<?xml version="1.0" encoding="UTF-8" standalone="no" ?>
<gpx xmlns="http://www.topografix.com/GPX/1/1" xmlns:xsi="http://www.w3.org/2001/XMLSchema-instance" xsi:schemaLocation="http://www.topografix.com/GPX/1/1 http://www.topografix.com/GPX/1/1/gpx.xsd" version="1.1" creator="VisuGPX - https://www.visugpx.com">
  <metadata>
    <name>Les Saisies</name>
  </metadata>
  <trk>
    <name><![CDATA[Avé les copains !]]></name>
    <extensions>
      <line xmlns="http://www.topografix.com/GPX/gpx_style/0/2">
        <color>0000FF</color>
        <width>4</width>
      </line>
    </extensions>
    <trkseg>
      <trkpt lat="45.75831" lon="6.54">
        <ele>1666.4</ele>
        <time>2025-08-15T09:11:32Z</time>
      </trkpt>
      <trkpt lat="45.75831" lon="6.54001">
        <ele>1666.4</ele>
        <time>2025-08-15T09:11:33Z</time>
      </trkpt>
      <trkpt lat="45.75854" lon="6.53862">
        <ele>1660.8</ele>
        <time>2025-08-15T09:11:34Z</time>
      </trkpt>
      <trkpt lat="45.75831" lon="6.54002">
        <ele>1666.4</ele>
        <time>2025-08-15T09:11:35Z</time>
      </trkpt>
      <trkpt lat="45.75831" lon="6.54002">
        <ele>1666.4</ele>
        <time>2025-08-15T09:11:36Z</time>
      </trkpt>
      <trkpt lat="45.75831" lon="6.54003">
        <ele>1666.4</ele>
        <time>2025-08-15T09:11:37Z</time>
      </trkpt>
      <trkpt lat="45.75831" lon="6.54004">
        <ele>1666.4</ele>
        <time>2025-08-15T09:11:38Z</time>
      </trkpt>
      <trkpt lat="45.75831" lon="6.54004">
        <ele>1666.5</ele>
        <time>2025-08-15T09:11:39Z</time>
      </trkpt>
      <trkpt lat="45.75831" lon="6.54005">
        <ele>1666.5</ele>
        <time>2025-08-15T09:11:40Z</time>
      </trkpt>
      <trkpt lat="45.75831" lon="6.54005">
        <ele>1666.5</ele>
        <time>2025-08-15T09:11:41Z</time>
      </trkpt>
      <trkpt lat="45.75831" lon="6.54006">
        <ele>1666.5</ele>
        <time>2025-08-15T09:11:42Z</time>
      </trkpt>
      <trkpt lat="45.75831" lon="6.54006">
        <ele>1666.5</ele>
        <time>2025-08-15T09:12:09Z</time>
      </trkpt>
      <trkpt lat="45.75831" lon="6.54007">
        <ele>1666.5</ele>
        <time>2025-08-15T09:12:10Z</time>
      </trkpt>
      <trkpt lat="45.75832" lon="6.54008">
        <ele>1666.6</ele>
        <time>2025-08-15T09:12:11Z</time>
      </trkpt>
      <trkpt lat="45.75832" lon="6.54013">
        <ele>1666.7</ele>
        <time>2025-08-15T09:12:12Z</time>
      </trkpt>
      <trkpt lat="45.75832" lon="6.54015">
        <ele>1666.7</ele>
        <time>2025-08-15T09:12:13Z</time>
      </trkpt>
      <trkpt lat="45.75832" lon="6.5402">
        <ele>1666.8</ele>
        <time>2025-08-15T09:12:14Z</time>
      </trkpt>
      <trkpt lat="45.75832" lon="6.54025">
        <ele>1666.9</ele>
        <time>2025-08-15T09:12:15Z</time>
      </trkpt>
      <trkpt lat="45.75832" lon="6.5403">
        <ele>1667</ele>
        <time>2025-08-15T09:12:16Z</time>
      </trkpt>
      <trkpt lat="45.75831" lon="6.54035">
        <ele>1667.1</ele>
        <time>2025-08-15T09:12:17Z</time>
      </trkpt>
      <trkpt lat="45.75831" lon="6.5404">
        <ele>1667.2</ele>
        <time>2025-08-15T09:12:18Z</time>
      </trkpt>
      <trkpt lat="45.75831" lon="6.54045">
        <ele>1667.3</ele>
        <time>2025-08-15T09:12:19Z</time>
      </trkpt>
      <trkpt lat="45.75831" lon="6.5405">
        <ele>1667.4</ele>
        <time>2025-08-15T09:12:20Z</time>
      </trkpt>
      <trkpt lat="45.7583" lon="6.54056">
        <ele>1667.5</ele>
        <time>2025-08-15T09:12:21Z</time>
      </trkpt>
      <trkpt lat="45.7583" lon="6.54062">
        <ele>1667.5</ele>
        <time>2025-08-15T09:12:22Z</time>
      </trkpt>
      <trkpt lat="45.75829" lon="6.54069">
        <ele>1667.6</ele>
        <time>2025-08-15T09:12:23Z</time>
      </trkpt>
      <trkpt lat="45.75827" lon="6.54075">
        <ele>1667.6</ele>
        <time>2025-08-15T09:12:24Z</time>
      </trkpt>
      <trkpt lat="45.75827" lon="6.54082">
        <ele>1667.6</ele>
        <time>2025-08-15T09:12:25Z</time>
      </trkpt>
      <trkpt lat="45.75826" lon="6.54089">
        <ele>1667.6</ele>
        <time>2025-08-15T09:12:26Z</time>
      </trkpt>
      <trkpt lat="45.75825" lon="6.54095">
        <ele>1667.6</ele>
        <time>2025-08-15T09:12:27Z</time>
      </trkpt>
      <trkpt lat="45.75823" lon="6.54102">
        <ele>1667.6</ele>
        <time>2025-08-15T09:12:28Z</time>
      </trkpt>
      <trkpt lat="45.75821" lon="6.5411">
        <ele>1667.6</ele>
        <time>2025-08-15T09:12:29Z</time>
      </trkpt>
      <trkpt lat="45.75819" lon="6.54117">
        <ele>1667.5</ele>
        <time>2025-08-15T09:12:30Z</time>
      </trkpt>
      <trkpt lat="45.75816" lon="6.54124">
        <ele>1667.5</ele>
        <time>2025-08-15T09:12:31Z</time>
      </trkpt>
      <trkpt lat="45.75813" lon="6.5413">
        <ele>1667.4</ele>
        <time>2025-08-15T09:12:32Z</time>
      </trkpt>
      <trkpt lat="45.75811" lon="6.54138">
        <ele>1667.3</ele>
        <time>2025-08-15T09:12:33Z</time>
      </trkpt>
      <trkpt lat="45.75809" lon="6.54147">
        <ele>1667.2</ele>
        <time>2025-08-15T09:12:34Z</time>
      </trkpt>
      <trkpt lat="45.75808" lon="6.54155">
        <ele>1667.1</ele>
        <time>2025-08-15T09:12:35Z</time>
      </trkpt>
      <trkpt lat="45.75806" lon="6.54164">
        <ele>1667</ele>
        <time>2025-08-15T09:12:36Z</time>
      </trkpt>
      <trkpt lat="45.75805" lon="6.54172">
        <ele>1666.9</ele>
        <time>2025-08-15T09:12:37Z</time>
      </trkpt>
      <trkpt lat="45.75805" lon="6.54182">
        <ele>1666.7</ele>
        <time>2025-08-15T09:12:38Z</time>
      </trkpt>
      <trkpt lat="45.75804" lon="6.54191">
        <ele>1666.6</ele>
        <time>2025-08-15T09:12:39Z</time>
      </trkpt>
      <trkpt lat="45.75804" lon="6.542">
        <ele>1666.5</ele>
        <time>2025-08-15T09:12:40Z</time>
      </trkpt>
      <trkpt lat="45.75804" lon="6.54211">
        <ele>1666.2</ele>
        <time>2025-08-15T09:12:41Z</time>
      </trkpt>
      <trkpt lat="45.75804" lon="6.54221">
        <ele>1666</ele>
        <time>2025-08-15T09:12:42Z</time>
      </trkpt>
      <trkpt lat="45.75804" lon="6.54231">
        <ele>1665.8</ele>
        <time>2025-08-15T09:12:43Z</time>
      </trkpt>
      <trkpt lat="45.75803" lon="6.54242">
        <ele>1665.5</ele>
        <time>2025-08-15T09:12:44Z</time>
      </trkpt>
      <trkpt lat="45.75802" lon="6.54252">
        <ele>1665.3</ele>
        <time>2025-08-15T09:12:45Z</time>
      </trkpt>
      <trkpt lat="45.75801" lon="6.54262">
        <ele>1665.1</ele>
        <time>2025-08-15T09:12:46Z</time>
      </trkpt>
      <trkpt lat="45.75801" lon="6.54272">
        <ele>1664.9</ele>
        <time>2025-08-15T09:12:47Z</time>
      </trkpt>
      <trkpt lat="45.75801" lon="6.54282">
        <ele>1664.7</ele>
        <time>2025-08-15T09:12:48Z</time>
      </trkpt>
      <trkpt lat="45.75801" lon="6.54292">
        <ele>1664.6</ele>
        <time>2025-08-15T09:12:49Z</time>
      </trkpt>
      <trkpt lat="45.75801" lon="6.54302">
        <ele>1664.6</ele>
        <time>2025-08-15T09:12:50Z</time>
      </trkpt>
      <trkpt lat="45.75801" lon="6.54311">
        <ele>1664.5</ele>
        <time>2025-08-15T09:12:51Z</time>
      </trkpt>
      <trkpt lat="45.75802" lon="6.54319">
        <ele>1664.7</ele>
        <time>2025-08-15T09:12:52Z</time>
      </trkpt>
      <trkpt lat="45.75804" lon="6.54326">
        <ele>1665</ele>
        <time>2025-08-15T09:12:53Z</time>
      </trkpt>
      <trkpt lat="45.75806" lon="6.54333">
        <ele>1665.3</ele>
        <time>2025-08-15T09:12:54Z</time>
      </trkpt>
      <trkpt lat="45.75808" lon="6.54337">
        <ele>1665.5</ele>
        <time>2025-08-15T09:12:55Z</time>
      </trkpt>
      <trkpt lat="45.75811" lon="6.54339">
        <ele>1665.8</ele>
        <time>2025-08-15T09:12:56Z</time>
      </trkpt>
      <trkpt lat="45.75812" lon="6.54339">
        <ele>1665.9</ele>
        <time>2025-08-15T09:12:57Z</time>
      </trkpt>
      <trkpt lat="45.75815" lon="6.54337">
        <ele>1666.3</ele>
        <time>2025-08-15T09:12:58Z</time>
      </trkpt>
      <trkpt lat="45.75815" lon="6.54336">
        <ele>1667</ele>
        <time>2025-08-15T09:12:59Z</time>
      </trkpt>
      <trkpt lat="45.75816" lon="6.54334">
        <ele>1666.7</ele>
        <time>2025-08-15T09:13:00Z</time>
      </trkpt>
      <trkpt lat="45.75818" lon="6.54333">
        <ele>1666.8</ele>
        <time>2025-08-15T09:13:01Z</time>
      </trkpt>
      <trkpt lat="45.7582" lon="6.5433">
        <ele>1667.4</ele>
        <time>2025-08-15T09:13:02Z</time>
      </trkpt>
      <trkpt lat="45.75822" lon="6.54328">
        <ele>1667.8</ele>
        <time>2025-08-15T09:13:03Z</time>
      </trkpt>
      <trkpt lat="45.75824" lon="6.54325">
        <ele>1668.3</ele>
        <time>2025-08-15T09:13:04Z</time>
      </trkpt>
      <trkpt lat="45.75827" lon="6.54322">
        <ele>1668.1</ele>
        <time>2025-08-15T09:13:05Z</time>
      </trkpt>
      <trkpt lat="45.75828" lon="6.5432">
        <ele>1668.9</ele>
        <time>2025-08-15T09:13:06Z</time>
      </trkpt>
      <trkpt lat="45.7583" lon="6.54316">
        <ele>1669.6</ele>
        <time>2025-08-15T09:13:07Z</time>
      </trkpt>
      <trkpt lat="45.75831" lon="6.54315">
        <ele>1669.6</ele>
        <time>2025-08-15T09:13:08Z</time>
      </trkpt>
      <trkpt lat="45.75833" lon="6.54311">
        <ele>1670.3</ele>
        <time>2025-08-15T09:13:09Z</time>
      </trkpt>
      <trkpt lat="45.75834" lon="6.5431">
        <ele>1670.3</ele>
        <time>2025-08-15T09:13:10Z</time>
      </trkpt>
      <trkpt lat="45.75835" lon="6.54305">
        <ele>1670.1</ele>
        <time>2025-08-15T09:13:11Z</time>
      </trkpt>
      <trkpt lat="45.75835" lon="6.54304">
        <ele>1670</ele>
        <time>2025-08-15T09:13:12Z</time>
      </trkpt>
      <trkpt lat="45.75836" lon="6.54301">
        <ele>1670</ele>
        <time>2025-08-15T09:13:13Z</time>
      </trkpt>
      <trkpt lat="45.75836" lon="6.54299">
        <ele>1670.7</ele>
        <time>2025-08-15T09:13:14Z</time>
      </trkpt>
      <trkpt lat="45.75838" lon="6.54295">
        <ele>1670.5</ele>
        <time>2025-08-15T09:13:15Z</time>
      </trkpt>
      <trkpt lat="45.75838" lon="6.54294">
        <ele>1670.6</ele>
        <time>2025-08-15T09:13:16Z</time>
      </trkpt>
      <trkpt lat="45.7584" lon="6.54292">
        <ele>1671.3</ele>
        <time>2025-08-15T09:13:17Z</time>
      </trkpt>
      <trkpt lat="45.7584" lon="6.54291">
        <ele>1671.2</ele>
        <time>2025-08-15T09:13:18Z</time>
      </trkpt>
      <trkpt lat="45.75842" lon="6.5429">
        <ele>1671.2</ele>
        <time>2025-08-15T09:13:19Z</time>
      </trkpt>
      <trkpt lat="45.75842" lon="6.54288">
        <ele>1671.3</ele>
        <time>2025-08-15T09:13:20Z</time>
      </trkpt>
      <trkpt lat="45.75843" lon="6.54287">
        <ele>1671.9</ele>
        <time>2025-08-15T09:13:21Z</time>
      </trkpt>
      <trkpt lat="45.75843" lon="6.54285">
        <ele>1672</ele>
        <time>2025-08-15T09:13:22Z</time>
      </trkpt>
      <trkpt lat="45.75844" lon="6.54284">
        <ele>1672</ele>
        <time>2025-08-15T09:13:23Z</time>
      </trkpt>
      <trkpt lat="45.75845" lon="6.54283">
        <ele>1671.9</ele>
        <time>2025-08-15T09:13:24Z</time>
      </trkpt>
      <trkpt lat="45.75846" lon="6.54282">
        <ele>1672.7</ele>
        <time>2025-08-15T09:13:25Z</time>
      </trkpt>
      <trkpt lat="45.75846" lon="6.54281">
        <ele>1672.7</ele>
        <time>2025-08-15T09:13:26Z</time>
      </trkpt>
      <trkpt lat="45.75847" lon="6.5428">
        <ele>1672.7</ele>
        <time>2025-08-15T09:13:27Z</time>
      </trkpt>
      <trkpt lat="45.75848" lon="6.54278">
        <ele>1672.6</ele>
        <time>2025-08-15T09:13:28Z</time>
      </trkpt>
      <trkpt lat="45.75848" lon="6.54276">
        <ele>1673.5</ele>
        <time>2025-08-15T09:13:29Z</time>
      </trkpt>
      <trkpt lat="45.75849" lon="6.54274">
        <ele>1673.4</ele>
        <time>2025-08-15T09:13:30Z</time>
      </trkpt>
      <trkpt lat="45.75852" lon="6.54272">
        <ele>1674.3</ele>
        <time>2025-08-15T09:13:31Z</time>
      </trkpt>
      <trkpt lat="45.75853" lon="6.54268">
        <ele>1674.3</ele>
        <time>2025-08-15T09:13:32Z</time>
      </trkpt>
      <trkpt lat="45.75853" lon="6.54267">
        <ele>1674.3</ele>
        <time>2025-08-15T09:13:33Z</time>
      </trkpt>
      <trkpt lat="45.75854" lon="6.54264">
        <ele>1674.2</ele>
        <time>2025-08-15T09:13:34Z</time>
      </trkpt>
      <trkpt lat="45.75854" lon="6.54262">
        <ele>1675.2</ele>
        <time>2025-08-15T09:13:35Z</time>
      </trkpt>
      <trkpt lat="45.75855" lon="6.5426">
        <ele>1675.1</ele>
        <time>2025-08-15T09:13:36Z</time>
      </trkpt>
      <trkpt lat="45.75856" lon="6.54258">
        <ele>1675.1</ele>
        <time>2025-08-15T09:13:37Z</time>
      </trkpt>
      <trkpt lat="45.75855" lon="6.54255">
        <ele>1675.1</ele>
        <time>2025-08-15T09:13:38Z</time>
      </trkpt>
      <trkpt lat="45.75855" lon="6.54254">
        <ele>1675.1</ele>
        <time>2025-08-15T09:13:39Z</time>
      </trkpt>
      <trkpt lat="45.75855" lon="6.54252">
        <ele>1675.1</ele>
        <time>2025-08-15T09:13:40Z</time>
      </trkpt>
      <trkpt lat="45.75855" lon="6.54251">
        <ele>1675.2</ele>
        <time>2025-08-15T09:13:41Z</time>
      </trkpt>
      <trkpt lat="45.75855" lon="6.54249">
        <ele>1675.2</ele>
        <time>2025-08-15T09:13:42Z</time>
      </trkpt>
      <trkpt lat="45.75856" lon="6.54248">
        <ele>1675.2</ele>
        <time>2025-08-15T09:13:43Z</time>
      </trkpt>
      <trkpt lat="45.75855" lon="6.54247">
        <ele>1675.2</ele>
        <time>2025-08-15T09:13:44Z</time>
      </trkpt>
      <trkpt lat="45.75855" lon="6.54247">
        <ele>1675.2</ele>
        <time>2025-08-15T09:13:45Z</time>
      </trkpt>
      <trkpt lat="45.75856" lon="6.54245">
        <ele>1675.3</ele>
        <time>2025-08-15T09:13:46Z</time>
      </trkpt>
      <trkpt lat="45.75856" lon="6.54244">
        <ele>1675.3</ele>
        <time>2025-08-15T09:13:47Z</time>
      </trkpt>
      <trkpt lat="45.75856" lon="6.54243">
        <ele>1675.3</ele>
        <time>2025-08-15T09:13:48Z</time>
      </trkpt>
      <trkpt lat="45.75856" lon="6.54242">
        <ele>1675.3</ele>
        <time>2025-08-15T09:13:49Z</time>
      </trkpt>
      <trkpt lat="45.75857" lon="6.54241">
        <ele>1675.4</ele>
        <time>2025-08-15T09:13:50Z</time>
      </trkpt>
      <trkpt lat="45.75857" lon="6.5424">
        <ele>1675.4</ele>
        <time>2025-08-15T09:13:51Z</time>
      </trkpt>
      <trkpt lat="45.75857" lon="6.54239">
        <ele>1675.4</ele>
        <time>2025-08-15T09:13:52Z</time>
      </trkpt>
      <trkpt lat="45.75857" lon="6.54238">
        <ele>1676.4</ele>
        <time>2025-08-15T09:13:53Z</time>
      </trkpt>
      <trkpt lat="45.75858" lon="6.54237">
        <ele>1676.4</ele>
        <time>2025-08-15T09:13:54Z</time>
      </trkpt>
      <trkpt lat="45.75858" lon="6.54236">
        <ele>1676.5</ele>
        <time>2025-08-15T09:13:55Z</time>
      </trkpt>
      <trkpt lat="45.75858" lon="6.54234">
        <ele>1676.5</ele>
        <time>2025-08-15T09:14:34Z</time>
      </trkpt>
      <trkpt lat="45.75858" lon="6.54233">
        <ele>1676.5</ele>
        <time>2025-08-15T09:14:35Z</time>
      </trkpt>
      <trkpt lat="45.75859" lon="6.54229">
        <ele>1676.5</ele>
        <time>2025-08-15T09:14:36Z</time>
      </trkpt>
      <trkpt lat="45.75859" lon="6.54227">
        <ele>1676.5</ele>
        <time>2025-08-15T09:14:37Z</time>
      </trkpt>
      <trkpt lat="45.75859" lon="6.54223">
        <ele>1676.5</ele>
        <time>2025-08-15T09:14:38Z</time>
      </trkpt>
      <trkpt lat="45.75859" lon="6.54222">
        <ele>1676.5</ele>
        <time>2025-08-15T09:14:39Z</time>
      </trkpt>
      <trkpt lat="45.7586" lon="6.54217">
        <ele>1676.4</ele>
        <time>2025-08-15T09:14:40Z</time>
      </trkpt>
      <trkpt lat="45.7586" lon="6.54215">
        <ele>1676.5</ele>
        <time>2025-08-15T09:14:41Z</time>
      </trkpt>
      <trkpt lat="45.75861" lon="6.54211">
        <ele>1677.4</ele>
        <time>2025-08-15T09:14:42Z</time>
      </trkpt>
      <trkpt lat="45.75861" lon="6.5421">
        <ele>1677.3</ele>
        <time>2025-08-15T09:14:43Z</time>
      </trkpt>
      <trkpt lat="45.75862" lon="6.54206">
        <ele>1677.3</ele>
        <time>2025-08-15T09:14:44Z</time>
      </trkpt>
      <trkpt lat="45.75862" lon="6.54205">
        <ele>1677.2</ele>
        <time>2025-08-15T09:14:45Z</time>
      </trkpt>
      <trkpt lat="45.75863" lon="6.542">
        <ele>1677</ele>
        <time>2025-08-15T09:14:46Z</time>
      </trkpt>
      <trkpt lat="45.75863" lon="6.54199">
        <ele>1678.1</ele>
        <time>2025-08-15T09:14:47Z</time>
      </trkpt>
      <trkpt lat="45.75864" lon="6.54195">
        <ele>1677.9</ele>
        <time>2025-08-15T09:14:48Z</time>
      </trkpt>
      <trkpt lat="45.75864" lon="6.54194">
        <ele>1677.9</ele>
        <time>2025-08-15T09:14:49Z</time>
      </trkpt>
      <trkpt lat="45.75865" lon="6.5419">
        <ele>1677.7</ele>
        <time>2025-08-15T09:14:50Z</time>
      </trkpt>
      <trkpt lat="45.75865" lon="6.54188">
        <ele>1677.4</ele>
        <time>2025-08-15T09:14:51Z</time>
      </trkpt>
      <trkpt lat="45.75866" lon="6.54184">
        <ele>1678.5</ele>
        <time>2025-08-15T09:14:52Z</time>
      </trkpt>
      <trkpt lat="45.75867" lon="6.54183">
        <ele>1678.2</ele>
        <time>2025-08-15T09:14:53Z</time>
      </trkpt>
      <trkpt lat="45.75867" lon="6.5418">
        <ele>1678.2</ele>
        <time>2025-08-15T09:14:54Z</time>
      </trkpt>
      <trkpt lat="45.75867" lon="6.54178">
        <ele>1677.8</ele>
        <time>2025-08-15T09:14:55Z</time>
      </trkpt>
      <trkpt lat="45.75868" lon="6.54176">
        <ele>1677.5</ele>
        <time>2025-08-15T09:14:56Z</time>
      </trkpt>
      <trkpt lat="45.75868" lon="6.54174">
        <ele>1677.5</ele>
        <time>2025-08-15T09:14:57Z</time>
      </trkpt>
      <trkpt lat="45.75868" lon="6.54173">
        <ele>1677.5</ele>
        <time>2025-08-15T09:14:58Z</time>
      </trkpt>
      <trkpt lat="45.75869" lon="6.54172">
        <ele>1677.5</ele>
        <time>2025-08-15T09:14:59Z</time>
      </trkpt>
      <trkpt lat="45.75869" lon="6.5417">
        <ele>1678.1</ele>
        <time>2025-08-15T09:15:00Z</time>
      </trkpt>
      <trkpt lat="45.7587" lon="6.54168">
        <ele>1678.1</ele>
        <time>2025-08-15T09:15:01Z</time>
      </trkpt>
      <trkpt lat="45.7587" lon="6.54165">
        <ele>1677.6</ele>
        <time>2025-08-15T09:15:02Z</time>
      </trkpt>
      <trkpt lat="45.7587" lon="6.54164">
        <ele>1677.7</ele>
        <time>2025-08-15T09:15:03Z</time>
      </trkpt>
      <trkpt lat="45.7587" lon="6.54163">
        <ele>1677.2</ele>
        <time>2025-08-15T09:15:04Z</time>
      </trkpt>
      <trkpt lat="45.75871" lon="6.54161">
        <ele>1677.3</ele>
        <time>2025-08-15T09:15:05Z</time>
      </trkpt>
      <trkpt lat="45.75872" lon="6.54159">
        <ele>1677.3</ele>
        <time>2025-08-15T09:15:06Z</time>
      </trkpt>
      <trkpt lat="45.75872" lon="6.54158">
        <ele>1677.8</ele>
        <time>2025-08-15T09:15:07Z</time>
      </trkpt>
      <trkpt lat="45.75873" lon="6.54157">
        <ele>1677.8</ele>
        <time>2025-08-15T09:15:08Z</time>
      </trkpt>
      <trkpt lat="45.75873" lon="6.54156">
        <ele>1677.8</ele>
        <time>2025-08-15T09:15:09Z</time>
      </trkpt>
      <trkpt lat="45.75873" lon="6.54155">
        <ele>1677.8</ele>
        <time>2025-08-15T09:15:10Z</time>
      </trkpt>
      <trkpt lat="45.75874" lon="6.54154">
        <ele>1677.5</ele>
        <time>2025-08-15T09:15:11Z</time>
      </trkpt>
      <trkpt lat="45.75874" lon="6.54153">
        <ele>1677.5</ele>
        <time>2025-08-15T09:15:12Z</time>
      </trkpt>
      <trkpt lat="45.75874" lon="6.54153">
        <ele>1677.5</ele>
        <time>2025-08-15T09:15:13Z</time>
      </trkpt>
      <trkpt lat="45.75874" lon="6.54152">
        <ele>1677.6</ele>
        <time>2025-08-15T09:15:14Z</time>
      </trkpt>
      <trkpt lat="45.75874" lon="6.54151">
        <ele>1677.6</ele>
        <time>2025-08-15T09:15:15Z</time>
      </trkpt>
      <trkpt lat="45.75875" lon="6.54151">
        <ele>1677.6</ele>
        <time>2025-08-15T09:15:16Z</time>
      </trkpt>
      <trkpt lat="45.75875" lon="6.5415">
        <ele>1678.1</ele>
        <time>2025-08-15T09:15:17Z</time>
      </trkpt>
      <trkpt lat="45.75875" lon="6.5415">
        <ele>1678.2</ele>
        <time>2025-08-15T09:15:18Z</time>
      </trkpt>
      <trkpt lat="45.75876" lon="6.54149">
        <ele>1678.2</ele>
        <time>2025-08-15T09:15:19Z</time>
      </trkpt>
      <trkpt lat="45.75876" lon="6.54148">
        <ele>1678.2</ele>
        <time>2025-08-15T09:15:20Z</time>
      </trkpt>
      <trkpt lat="45.75877" lon="6.54147">
        <ele>1678.2</ele>
        <time>2025-08-15T09:15:21Z</time>
      </trkpt>
      <trkpt lat="45.75877" lon="6.54146">
        <ele>1678.2</ele>
        <time>2025-08-15T09:15:22Z</time>
      </trkpt>
      <trkpt lat="45.75877" lon="6.54146">
        <ele>1678.3</ele>
        <time>2025-08-15T09:15:23Z</time>
      </trkpt>
      <trkpt lat="45.75878" lon="6.54145">
        <ele>1678</ele>
        <time>2025-08-15T09:15:24Z</time>
      </trkpt>
      <trkpt lat="45.75878" lon="6.54145">
        <ele>1678</ele>
        <time>2025-08-15T09:15:25Z</time>
      </trkpt>
      <trkpt lat="45.75878" lon="6.54144">
        <ele>1678.8</ele>
        <time>2025-08-15T09:15:26Z</time>
      </trkpt>
      <trkpt lat="45.75879" lon="6.54144">
        <ele>1678.9</ele>
        <time>2025-08-15T09:15:27Z</time>
      </trkpt>
      <trkpt lat="45.75879" lon="6.54143">
        <ele>1678.9</ele>
        <time>2025-08-15T09:15:28Z</time>
      </trkpt>
      <trkpt lat="45.75879" lon="6.54142">
        <ele>1678.9</ele>
        <time>2025-08-15T09:15:29Z</time>
      </trkpt>
      <trkpt lat="45.75879" lon="6.54142">
        <ele>1678.9</ele>
        <time>2025-08-15T09:15:30Z</time>
      </trkpt>
      <trkpt lat="45.7588" lon="6.54141">
        <ele>1678.7</ele>
        <time>2025-08-15T09:15:31Z</time>
      </trkpt>
      <trkpt lat="45.7588" lon="6.54141">
        <ele>1678.7</ele>
        <time>2025-08-15T09:15:32Z</time>
      </trkpt>
      <trkpt lat="45.7588" lon="6.5414">
        <ele>1678.7</ele>
        <time>2025-08-15T09:15:41Z</time>
      </trkpt>
      <trkpt lat="45.75881" lon="6.5414">
        <ele>1678.7</ele>
        <time>2025-08-15T09:15:42Z</time>
      </trkpt>
      <trkpt lat="45.7588" lon="6.54136">
        <ele>1678.5</ele>
        <time>2025-08-15T09:15:43Z</time>
      </trkpt>
      <trkpt lat="45.7588" lon="6.54135">
        <ele>1678.5</ele>
        <time>2025-08-15T09:15:44Z</time>
      </trkpt>
      <trkpt lat="45.7588" lon="6.54136">
        <ele>1678.5</ele>
        <time>2025-08-15T09:15:45Z</time>
      </trkpt>
      <trkpt lat="45.7588" lon="6.54136">
        <ele>1678.5</ele>
        <time>2025-08-15T09:15:46Z</time>
      </trkpt>
      <trkpt lat="45.7588" lon="6.54136">
        <ele>1678.6</ele>
        <time>2025-08-15T09:15:47Z</time>
      </trkpt>
      <trkpt lat="45.7588" lon="6.54135">
        <ele>1678.6</ele>
        <time>2025-08-15T09:15:48Z</time>
      </trkpt>
      <trkpt lat="45.75881" lon="6.54134">
        <ele>1678.6</ele>
        <time>2025-08-15T09:15:49Z</time>
      </trkpt>
      <trkpt lat="45.75881" lon="6.54133">
        <ele>1678.6</ele>
        <time>2025-08-15T09:15:50Z</time>
      </trkpt>
      <trkpt lat="45.75881" lon="6.54132">
        <ele>1678.4</ele>
        <time>2025-08-15T09:15:51Z</time>
      </trkpt>
      <trkpt lat="45.75881" lon="6.54131">
        <ele>1678.4</ele>
        <time>2025-08-15T09:15:52Z</time>
      </trkpt>
      <trkpt lat="45.75881" lon="6.54132">
        <ele>1678.4</ele>
        <time>2025-08-15T09:15:53Z</time>
      </trkpt>
      <trkpt lat="45.75881" lon="6.54132">
        <ele>1678.5</ele>
        <time>2025-08-15T09:15:54Z</time>
      </trkpt>
      <trkpt lat="45.75882" lon="6.54131">
        <ele>1679.3</ele>
        <time>2025-08-15T09:15:55Z</time>
      </trkpt>
      <trkpt lat="45.75882" lon="6.5413">
        <ele>1679.3</ele>
        <time>2025-08-15T09:15:56Z</time>
      </trkpt>
      <trkpt lat="45.75883" lon="6.54128">
        <ele>1679.1</ele>
        <time>2025-08-15T09:15:57Z</time>
      </trkpt>
      <trkpt lat="45.75883" lon="6.54126">
        <ele>1679.1</ele>
        <time>2025-08-15T09:15:58Z</time>
      </trkpt>
      <trkpt lat="45.75884" lon="6.54124">
        <ele>1678.9</ele>
        <time>2025-08-15T09:15:59Z</time>
      </trkpt>
      <trkpt lat="45.75884" lon="6.54122">
        <ele>1679.7</ele>
        <time>2025-08-15T09:16:00Z</time>
      </trkpt>
      <trkpt lat="45.75885" lon="6.5412">
        <ele>1679.7</ele>
        <time>2025-08-15T09:16:01Z</time>
      </trkpt>
      <trkpt lat="45.75886" lon="6.54118">
        <ele>1679.5</ele>
        <time>2025-08-15T09:16:02Z</time>
      </trkpt>
      <trkpt lat="45.75886" lon="6.54115">
        <ele>1679.3</ele>
        <time>2025-08-15T09:16:03Z</time>
      </trkpt>
      <trkpt lat="45.75887" lon="6.54113">
        <ele>1679.3</ele>
        <time>2025-08-15T09:16:04Z</time>
      </trkpt>
      <trkpt lat="45.75887" lon="6.54112">
        <ele>1680.3</ele>
        <time>2025-08-15T09:16:05Z</time>
      </trkpt>
      <trkpt lat="45.75888" lon="6.5411">
        <ele>1680</ele>
        <time>2025-08-15T09:16:06Z</time>
      </trkpt>
      <trkpt lat="45.75888" lon="6.54107">
        <ele>1680.1</ele>
        <time>2025-08-15T09:16:07Z</time>
      </trkpt>
      <trkpt lat="45.75889" lon="6.54105">
        <ele>1679.9</ele>
        <time>2025-08-15T09:16:08Z</time>
      </trkpt>
      <trkpt lat="45.7589" lon="6.54103">
        <ele>1679.7</ele>
        <time>2025-08-15T09:16:09Z</time>
      </trkpt>
      <trkpt lat="45.75891" lon="6.54101">
        <ele>1680.7</ele>
        <time>2025-08-15T09:16:10Z</time>
      </trkpt>
      <trkpt lat="45.75891" lon="6.54098">
        <ele>1680.5</ele>
        <time>2025-08-15T09:16:11Z</time>
      </trkpt>
      <trkpt lat="45.75892" lon="6.54096">
        <ele>1680.5</ele>
        <time>2025-08-15T09:16:12Z</time>
      </trkpt>
      <trkpt lat="45.75893" lon="6.54094">
        <ele>1680.4</ele>
        <time>2025-08-15T09:16:13Z</time>
      </trkpt>
      <trkpt lat="45.75893" lon="6.54091">
        <ele>1680.4</ele>
        <time>2025-08-15T09:16:14Z</time>
      </trkpt>
      <trkpt lat="45.75893" lon="6.54089">
        <ele>1681.2</ele>
        <time>2025-08-15T09:16:15Z</time>
      </trkpt>
      <trkpt lat="45.75894" lon="6.54086">
        <ele>1681.2</ele>
        <time>2025-08-15T09:16:16Z</time>
      </trkpt>
      <trkpt lat="45.75895" lon="6.54084">
        <ele>1681</ele>
        <time>2025-08-15T09:16:17Z</time>
      </trkpt>
      <trkpt lat="45.75897" lon="6.54081">
        <ele>1681.7</ele>
        <time>2025-08-15T09:16:18Z</time>
      </trkpt>
      <trkpt lat="45.75897" lon="6.54079">
        <ele>1681.7</ele>
        <time>2025-08-15T09:16:19Z</time>
      </trkpt>
      <trkpt lat="45.75898" lon="6.54075">
        <ele>1681.5</ele>
        <time>2025-08-15T09:16:20Z</time>
      </trkpt>
      <trkpt lat="45.75899" lon="6.54074">
        <ele>1681.5</ele>
        <time>2025-08-15T09:16:21Z</time>
      </trkpt>
      <trkpt lat="45.75899" lon="6.54072">
        <ele>1681.2</ele>
        <time>2025-08-15T09:16:22Z</time>
      </trkpt>
      <trkpt lat="45.759" lon="6.5407">
        <ele>1682.2</ele>
        <time>2025-08-15T09:16:23Z</time>
      </trkpt>
      <trkpt lat="45.75901" lon="6.54066">
        <ele>1681.9</ele>
        <time>2025-08-15T09:16:24Z</time>
      </trkpt>
      <trkpt lat="45.75902" lon="6.54064">
        <ele>1681.9</ele>
        <time>2025-08-15T09:16:25Z</time>
      </trkpt>
      <trkpt lat="45.75903" lon="6.54061">
        <ele>1682.6</ele>
        <time>2025-08-15T09:16:26Z</time>
      </trkpt>
      <trkpt lat="45.75903" lon="6.54059">
        <ele>1682.3</ele>
        <time>2025-08-15T09:16:27Z</time>
      </trkpt>
      <trkpt lat="45.75904" lon="6.54055">
        <ele>1682.1</ele>
        <time>2025-08-15T09:16:28Z</time>
      </trkpt>
      <trkpt lat="45.75904" lon="6.54054">
        <ele>1682.1</ele>
        <time>2025-08-15T09:16:29Z</time>
      </trkpt>
      <trkpt lat="45.75905" lon="6.54051">
        <ele>1681.8</ele>
        <time>2025-08-15T09:16:30Z</time>
      </trkpt>
      <trkpt lat="45.75906" lon="6.54049">
        <ele>1682.8</ele>
        <time>2025-08-15T09:16:31Z</time>
      </trkpt>
      <trkpt lat="45.75906" lon="6.54046">
        <ele>1682.6</ele>
        <time>2025-08-15T09:16:32Z</time>
      </trkpt>
      <trkpt lat="45.75907" lon="6.54044">
        <ele>1682.6</ele>
        <time>2025-08-15T09:16:33Z</time>
      </trkpt>
      <trkpt lat="45.75907" lon="6.5404">
        <ele>1682.4</ele>
        <time>2025-08-15T09:16:34Z</time>
      </trkpt>
      <trkpt lat="45.75908" lon="6.54039">
        <ele>1682.4</ele>
        <time>2025-08-15T09:16:35Z</time>
      </trkpt>
      <trkpt lat="45.75909" lon="6.54037">
        <ele>1683.2</ele>
        <time>2025-08-15T09:16:36Z</time>
      </trkpt>
      <trkpt lat="45.7591" lon="6.54035">
        <ele>1683.2</ele>
        <time>2025-08-15T09:16:37Z</time>
      </trkpt>
      <trkpt lat="45.7591" lon="6.54032">
        <ele>1683</ele>
        <time>2025-08-15T09:16:38Z</time>
      </trkpt>
      <trkpt lat="45.7591" lon="6.54029">
        <ele>1682.8</ele>
        <time>2025-08-15T09:16:39Z</time>
      </trkpt>
      <trkpt lat="45.75911" lon="6.54027">
        <ele>1682.8</ele>
        <time>2025-08-15T09:16:40Z</time>
      </trkpt>
      <trkpt lat="45.75911" lon="6.54025">
        <ele>1683.8</ele>
        <time>2025-08-15T09:16:41Z</time>
      </trkpt>
      <trkpt lat="45.75912" lon="6.54021">
        <ele>1683.6</ele>
        <time>2025-08-15T09:16:42Z</time>
      </trkpt>
      <trkpt lat="45.75912" lon="6.54019">
        <ele>1683.6</ele>
        <time>2025-08-15T09:16:43Z</time>
      </trkpt>
      <trkpt lat="45.75914" lon="6.54016">
        <ele>1683.4</ele>
        <time>2025-08-15T09:16:44Z</time>
      </trkpt>
      <trkpt lat="45.75914" lon="6.54015">
        <ele>1683.4</ele>
        <time>2025-08-15T09:16:45Z</time>
      </trkpt>
      <trkpt lat="45.75915" lon="6.54013">
        <ele>1684.3</ele>
        <time>2025-08-15T09:16:46Z</time>
      </trkpt>
      <trkpt lat="45.75916" lon="6.5401">
        <ele>1684.4</ele>
        <time>2025-08-15T09:16:47Z</time>
      </trkpt>
      <trkpt lat="45.75917" lon="6.54007">
        <ele>1685.4</ele>
        <time>2025-08-15T09:16:48Z</time>
      </trkpt>
      <trkpt lat="45.75918" lon="6.54006">
        <ele>1685.4</ele>
        <time>2025-08-15T09:16:49Z</time>
      </trkpt>
      <trkpt lat="45.75918" lon="6.54004">
        <ele>1685.1</ele>
        <time>2025-08-15T09:16:50Z</time>
      </trkpt>
      <trkpt lat="45.7592" lon="6.54001">
        <ele>1685.1</ele>
        <time>2025-08-15T09:16:51Z</time>
      </trkpt>
      <trkpt lat="45.75921" lon="6.53999">
        <ele>1686.1</ele>
        <time>2025-08-15T09:16:52Z</time>
      </trkpt>
      <trkpt lat="45.75922" lon="6.53997">
        <ele>1686.1</ele>
        <time>2025-08-15T09:16:53Z</time>
      </trkpt>
      <trkpt lat="45.75924" lon="6.53993">
        <ele>1687</ele>
        <time>2025-08-15T09:16:54Z</time>
      </trkpt>
      <trkpt lat="45.75924" lon="6.53992">
        <ele>1687</ele>
        <time>2025-08-15T09:16:55Z</time>
      </trkpt>
      <trkpt lat="45.75927" lon="6.53988">
        <ele>1688</ele>
        <time>2025-08-15T09:16:56Z</time>
      </trkpt>
      <trkpt lat="45.75927" lon="6.53987">
        <ele>1688</ele>
        <time>2025-08-15T09:16:57Z</time>
      </trkpt>
      <trkpt lat="45.7593" lon="6.53984">
        <ele>1688.9</ele>
        <time>2025-08-15T09:16:58Z</time>
      </trkpt>
      <trkpt lat="45.75931" lon="6.53984">
        <ele>1688.9</ele>
        <time>2025-08-15T09:16:59Z</time>
      </trkpt>
      <trkpt lat="45.75933" lon="6.53981">
        <ele>1689.9</ele>
        <time>2025-08-15T09:17:00Z</time>
      </trkpt>
      <trkpt lat="45.75933" lon="6.5398">
        <ele>1689.9</ele>
        <time>2025-08-15T09:17:01Z</time>
      </trkpt>
      <trkpt lat="45.75936" lon="6.53977">
        <ele>1690.9</ele>
        <time>2025-08-15T09:17:02Z</time>
      </trkpt>
      <trkpt lat="45.75936" lon="6.53976">
        <ele>1690.9</ele>
        <time>2025-08-15T09:17:03Z</time>
      </trkpt>
      <trkpt lat="45.75939" lon="6.53973">
        <ele>1691.8</ele>
        <time>2025-08-15T09:17:04Z</time>
      </trkpt>
      <trkpt lat="45.75939" lon="6.53972">
        <ele>1691.8</ele>
        <time>2025-08-15T09:17:05Z</time>
      </trkpt>
      <trkpt lat="45.7594" lon="6.5397">
        <ele>1691.8</ele>
        <time>2025-08-15T09:17:06Z</time>
      </trkpt>
      <trkpt lat="45.75941" lon="6.53968">
        <ele>1692.7</ele>
        <time>2025-08-15T09:17:07Z</time>
      </trkpt>
      <trkpt lat="45.75942" lon="6.53966">
        <ele>1692.7</ele>
        <time>2025-08-15T09:17:08Z</time>
      </trkpt>
      <trkpt lat="45.75944" lon="6.53964">
        <ele>1692.4</ele>
        <time>2025-08-15T09:17:09Z</time>
      </trkpt>
      <trkpt lat="45.75945" lon="6.53963">
        <ele>1693.5</ele>
        <time>2025-08-15T09:17:10Z</time>
      </trkpt>
      <trkpt lat="45.75946" lon="6.53961">
        <ele>1693.5</ele>
        <time>2025-08-15T09:17:11Z</time>
      </trkpt>
      <trkpt lat="45.75948" lon="6.53959">
        <ele>1694.2</ele>
        <time>2025-08-15T09:17:12Z</time>
      </trkpt>
      <trkpt lat="45.75949" lon="6.53958">
        <ele>1694.2</ele>
        <time>2025-08-15T09:17:13Z</time>
      </trkpt>
      <trkpt lat="45.7595" lon="6.53956">
        <ele>1694.8</ele>
        <time>2025-08-15T09:17:14Z</time>
      </trkpt>
      <trkpt lat="45.75951" lon="6.53954">
        <ele>1694.8</ele>
        <time>2025-08-15T09:17:15Z</time>
      </trkpt>
      <trkpt lat="45.75952" lon="6.53952">
        <ele>1694.4</ele>
        <time>2025-08-15T09:17:16Z</time>
      </trkpt>
      <trkpt lat="45.75953" lon="6.5395">
        <ele>1695.4</ele>
        <time>2025-08-15T09:17:17Z</time>
      </trkpt>
      <trkpt lat="45.75955" lon="6.53949">
        <ele>1695.4</ele>
        <time>2025-08-15T09:17:18Z</time>
      </trkpt>
      <trkpt lat="45.75956" lon="6.53948">
        <ele>1694.9</ele>
        <time>2025-08-15T09:17:19Z</time>
      </trkpt>
      <trkpt lat="45.75957" lon="6.53946">
        <ele>1695.9</ele>
        <time>2025-08-15T09:17:20Z</time>
      </trkpt>
      <trkpt lat="45.75958" lon="6.53944">
        <ele>1695.9</ele>
        <time>2025-08-15T09:17:21Z</time>
      </trkpt>
      <trkpt lat="45.75959" lon="6.53943">
        <ele>1695.4</ele>
        <time>2025-08-15T09:17:22Z</time>
      </trkpt>
      <trkpt lat="45.75961" lon="6.53941">
        <ele>1696.4</ele>
        <time>2025-08-15T09:17:23Z</time>
      </trkpt>
      <trkpt lat="45.75962" lon="6.53939">
        <ele>1695.9</ele>
        <time>2025-08-15T09:17:24Z</time>
      </trkpt>
      <trkpt lat="45.75963" lon="6.53938">
        <ele>1696.8</ele>
        <time>2025-08-15T09:17:25Z</time>
      </trkpt>
      <trkpt lat="45.75964" lon="6.53936">
        <ele>1696.8</ele>
        <time>2025-08-15T09:17:26Z</time>
      </trkpt>
      <trkpt lat="45.75966" lon="6.53935">
        <ele>1697.2</ele>
        <time>2025-08-15T09:17:27Z</time>
      </trkpt>
      <trkpt lat="45.75967" lon="6.53933">
        <ele>1697.2</ele>
        <time>2025-08-15T09:17:28Z</time>
      </trkpt>
      <trkpt lat="45.75968" lon="6.53932">
        <ele>1698.2</ele>
        <time>2025-08-15T09:17:29Z</time>
      </trkpt>
      <trkpt lat="45.7597" lon="6.53931">
        <ele>1697.7</ele>
        <time>2025-08-15T09:17:30Z</time>
      </trkpt>
      <trkpt lat="45.75972" lon="6.5393">
        <ele>1698.7</ele>
        <time>2025-08-15T09:17:31Z</time>
      </trkpt>
      <trkpt lat="45.75973" lon="6.53929">
        <ele>1698.7</ele>
        <time>2025-08-15T09:17:32Z</time>
      </trkpt>
      <trkpt lat="45.75975" lon="6.53929">
        <ele>1699.7</ele>
        <time>2025-08-15T09:17:33Z</time>
      </trkpt>
      <trkpt lat="45.75978" lon="6.53929">
        <ele>1700.7</ele>
        <time>2025-08-15T09:17:34Z</time>
      </trkpt>
      <trkpt lat="45.75979" lon="6.53929">
        <ele>1700.8</ele>
        <time>2025-08-15T09:17:35Z</time>
      </trkpt>
      <trkpt lat="45.75982" lon="6.53928">
        <ele>1701.7</ele>
        <time>2025-08-15T09:17:36Z</time>
      </trkpt>
      <trkpt lat="45.75983" lon="6.53928">
        <ele>1701.7</ele>
        <time>2025-08-15T09:17:37Z</time>
      </trkpt>
      <trkpt lat="45.75984" lon="6.53928">
        <ele>1702.5</ele>
        <time>2025-08-15T09:17:38Z</time>
      </trkpt>
      <trkpt lat="45.75985" lon="6.53929">
        <ele>1702.5</ele>
        <time>2025-08-15T09:17:39Z</time>
      </trkpt>
      <trkpt lat="45.75986" lon="6.53931">
        <ele>1703.7</ele>
        <time>2025-08-15T09:17:40Z</time>
      </trkpt>
      <trkpt lat="45.75987" lon="6.53932">
        <ele>1704.3</ele>
        <time>2025-08-15T09:17:41Z</time>
      </trkpt>
      <trkpt lat="45.75987" lon="6.53931">
        <ele>1703.7</ele>
        <time>2025-08-15T09:17:42Z</time>
      </trkpt>
      <trkpt lat="45.75986" lon="6.5393">
        <ele>1703.8</ele>
        <time>2025-08-15T09:17:43Z</time>
      </trkpt>
      <trkpt lat="45.75986" lon="6.5393">
        <ele>1703.8</ele>
        <time>2025-08-15T09:17:44Z</time>
      </trkpt>
      <trkpt lat="45.75986" lon="6.5393">
        <ele>1702.7</ele>
        <time>2025-08-15T09:17:45Z</time>
      </trkpt>
      <trkpt lat="45.75986" lon="6.5393">
        <ele>1703.8</ele>
        <time>2025-08-15T09:17:46Z</time>
      </trkpt>
      <trkpt lat="45.75986" lon="6.5393">
        <ele>1702.7</ele>
        <time>2025-08-15T09:17:47Z</time>
      </trkpt>
      <trkpt lat="45.75986" lon="6.5393">
        <ele>1702.7</ele>
        <time>2025-08-15T09:17:48Z</time>
      </trkpt>
      <trkpt lat="45.75986" lon="6.53931">
        <ele>1702.8</ele>
        <time>2025-08-15T09:17:49Z</time>
      </trkpt>
      <trkpt lat="45.75986" lon="6.53931">
        <ele>1702.8</ele>
        <time>2025-08-15T09:17:50Z</time>
      </trkpt>
      <trkpt lat="45.75985" lon="6.53931">
        <ele>1702.8</ele>
        <time>2025-08-15T09:17:51Z</time>
      </trkpt>
      <trkpt lat="45.75986" lon="6.53931">
        <ele>1702.8</ele>
        <time>2025-08-15T09:17:52Z</time>
      </trkpt>
      <trkpt lat="45.75988" lon="6.53935">
        <ele>1704.6</ele>
        <time>2025-08-15T09:18:32Z</time>
      </trkpt>
      <trkpt lat="45.75987" lon="6.53938">
        <ele>1704.8</ele>
        <time>2025-08-15T09:18:33Z</time>
      </trkpt>
      <trkpt lat="45.75984" lon="6.53941">
        <ele>1705</ele>
        <time>2025-08-15T09:18:34Z</time>
      </trkpt>
      <trkpt lat="45.75984" lon="6.53942">
        <ele>1705.1</ele>
        <time>2025-08-15T09:18:35Z</time>
      </trkpt>
      <trkpt lat="45.75982" lon="6.53944">
        <ele>1705.3</ele>
        <time>2025-08-15T09:18:36Z</time>
      </trkpt>
      <trkpt lat="45.75982" lon="6.53947">
        <ele>1705.4</ele>
        <time>2025-08-15T09:18:37Z</time>
      </trkpt>
      <trkpt lat="45.75981" lon="6.5395">
        <ele>1705.6</ele>
        <time>2025-08-15T09:18:38Z</time>
      </trkpt>
      <trkpt lat="45.75981" lon="6.53952">
        <ele>1705.7</ele>
        <time>2025-08-15T09:18:39Z</time>
      </trkpt>
      <trkpt lat="45.7598" lon="6.53954">
        <ele>1705.8</ele>
        <time>2025-08-15T09:18:40Z</time>
      </trkpt>
      <trkpt lat="45.7598" lon="6.53957">
        <ele>1705.9</ele>
        <time>2025-08-15T09:18:41Z</time>
      </trkpt>
      <trkpt lat="45.75979" lon="6.5396">
        <ele>1706.2</ele>
        <time>2025-08-15T09:18:42Z</time>
      </trkpt>
      <trkpt lat="45.75978" lon="6.53962">
        <ele>1706.2</ele>
        <time>2025-08-15T09:18:43Z</time>
      </trkpt>
      <trkpt lat="45.75978" lon="6.53964">
        <ele>1706.4</ele>
        <time>2025-08-15T09:18:44Z</time>
      </trkpt>
      <trkpt lat="45.75978" lon="6.53967">
        <ele>1706.5</ele>
        <time>2025-08-15T09:18:45Z</time>
      </trkpt>
      <trkpt lat="45.75977" lon="6.53971">
        <ele>1706.7</ele>
        <time>2025-08-15T09:18:46Z</time>
      </trkpt>
      <trkpt lat="45.75976" lon="6.53972">
        <ele>1706.8</ele>
        <time>2025-08-15T09:18:47Z</time>
      </trkpt>
      <trkpt lat="45.75975" lon="6.53976">
        <ele>1707.1</ele>
        <time>2025-08-15T09:18:48Z</time>
      </trkpt>
      <trkpt lat="45.75975" lon="6.53978">
        <ele>1707.2</ele>
        <time>2025-08-15T09:18:49Z</time>
      </trkpt>
      <trkpt lat="45.75974" lon="6.5398">
        <ele>1707.3</ele>
        <time>2025-08-15T09:18:50Z</time>
      </trkpt>
      <trkpt lat="45.75973" lon="6.53983">
        <ele>1707.5</ele>
        <time>2025-08-15T09:18:51Z</time>
      </trkpt>
      <trkpt lat="45.75973" lon="6.53987">
        <ele>1707.7</ele>
        <time>2025-08-15T09:18:52Z</time>
      </trkpt>
      <trkpt lat="45.75973" lon="6.53988">
        <ele>1707.8</ele>
        <time>2025-08-15T09:18:53Z</time>
      </trkpt>
      <trkpt lat="45.75972" lon="6.53992">
        <ele>1708</ele>
        <time>2025-08-15T09:18:54Z</time>
      </trkpt>
      <trkpt lat="45.75972" lon="6.53994">
        <ele>1708.1</ele>
        <time>2025-08-15T09:18:55Z</time>
      </trkpt>
      <trkpt lat="45.75971" lon="6.53996">
        <ele>1708.3</ele>
        <time>2025-08-15T09:18:56Z</time>
      </trkpt>
      <trkpt lat="45.75971" lon="6.53998">
        <ele>1708.4</ele>
        <time>2025-08-15T09:18:57Z</time>
      </trkpt>
      <trkpt lat="45.7597" lon="6.54001">
        <ele>1708.5</ele>
        <time>2025-08-15T09:18:58Z</time>
      </trkpt>
      <trkpt lat="45.7597" lon="6.54003">
        <ele>1708.7</ele>
        <time>2025-08-15T09:18:59Z</time>
      </trkpt>
      <trkpt lat="45.75969" lon="6.54007">
        <ele>1708.9</ele>
        <time>2025-08-15T09:19:00Z</time>
      </trkpt>
      <trkpt lat="45.75969" lon="6.54008">
        <ele>1709</ele>
        <time>2025-08-15T09:19:01Z</time>
      </trkpt>
      <trkpt lat="45.75968" lon="6.54011">
        <ele>1709.1</ele>
        <time>2025-08-15T09:19:02Z</time>
      </trkpt>
      <trkpt lat="45.75968" lon="6.54013">
        <ele>1709.3</ele>
        <time>2025-08-15T09:19:03Z</time>
      </trkpt>
      <trkpt lat="45.75967" lon="6.54015">
        <ele>1709.4</ele>
        <time>2025-08-15T09:19:04Z</time>
      </trkpt>
      <trkpt lat="45.75967" lon="6.54018">
        <ele>1709.6</ele>
        <time>2025-08-15T09:19:05Z</time>
      </trkpt>
      <trkpt lat="45.75967" lon="6.5402">
        <ele>1709.7</ele>
        <time>2025-08-15T09:19:06Z</time>
      </trkpt>
      <trkpt lat="45.75967" lon="6.54023">
        <ele>1709.8</ele>
        <time>2025-08-15T09:19:07Z</time>
      </trkpt>
      <trkpt lat="45.75967" lon="6.54025">
        <ele>1710</ele>
        <time>2025-08-15T09:19:08Z</time>
      </trkpt>
      <trkpt lat="45.75966" lon="6.54028">
        <ele>1710.1</ele>
        <time>2025-08-15T09:19:09Z</time>
      </trkpt>
      <trkpt lat="45.75966" lon="6.5403">
        <ele>1710.3</ele>
        <time>2025-08-15T09:19:10Z</time>
      </trkpt>
      <trkpt lat="45.75966" lon="6.54032">
        <ele>1710.4</ele>
        <time>2025-08-15T09:19:11Z</time>
      </trkpt>
      <trkpt lat="45.75967" lon="6.54035">
        <ele>1710.5</ele>
        <time>2025-08-15T09:19:12Z</time>
      </trkpt>
      <trkpt lat="45.75967" lon="6.54037">
        <ele>1710.6</ele>
        <time>2025-08-15T09:19:13Z</time>
      </trkpt>
      <trkpt lat="45.75967" lon="6.54041">
        <ele>1710.9</ele>
        <time>2025-08-15T09:19:14Z</time>
      </trkpt>
      <trkpt lat="45.75967" lon="6.54042">
        <ele>1710.9</ele>
        <time>2025-08-15T09:19:15Z</time>
      </trkpt>
      <trkpt lat="45.75966" lon="6.54045">
        <ele>1711.1</ele>
        <time>2025-08-15T09:19:16Z</time>
      </trkpt>
      <trkpt lat="45.75966" lon="6.54047">
        <ele>1711.2</ele>
        <time>2025-08-15T09:19:17Z</time>
      </trkpt>
      <trkpt lat="45.75967" lon="6.54051">
        <ele>1711.4</ele>
        <time>2025-08-15T09:19:18Z</time>
      </trkpt>
      <trkpt lat="45.75967" lon="6.54052">
        <ele>1711.4</ele>
        <time>2025-08-15T09:19:19Z</time>
      </trkpt>
      <trkpt lat="45.75967" lon="6.54055">
        <ele>1711.6</ele>
        <time>2025-08-15T09:19:20Z</time>
      </trkpt>
      <trkpt lat="45.75968" lon="6.54057">
        <ele>1711.7</ele>
        <time>2025-08-15T09:19:21Z</time>
      </trkpt>
      <trkpt lat="45.75968" lon="6.5406">
        <ele>1711.8</ele>
        <time>2025-08-15T09:19:22Z</time>
      </trkpt>
      <trkpt lat="45.75968" lon="6.54063">
        <ele>1711.9</ele>
        <time>2025-08-15T09:19:23Z</time>
      </trkpt>
      <trkpt lat="45.75968" lon="6.54065">
        <ele>1712</ele>
        <time>2025-08-15T09:19:24Z</time>
      </trkpt>
      <trkpt lat="45.75968" lon="6.54067">
        <ele>1712.2</ele>
        <time>2025-08-15T09:19:25Z</time>
      </trkpt>
      <trkpt lat="45.75969" lon="6.54071">
        <ele>1712.3</ele>
        <time>2025-08-15T09:19:26Z</time>
      </trkpt>
      <trkpt lat="45.75969" lon="6.54073">
        <ele>1712.4</ele>
        <time>2025-08-15T09:19:27Z</time>
      </trkpt>
      <trkpt lat="45.75968" lon="6.54075">
        <ele>1712.5</ele>
        <time>2025-08-15T09:19:28Z</time>
      </trkpt>
      <trkpt lat="45.75969" lon="6.54077">
        <ele>1712.6</ele>
        <time>2025-08-15T09:19:29Z</time>
      </trkpt>
      <trkpt lat="45.75969" lon="6.5408">
        <ele>1712.7</ele>
        <time>2025-08-15T09:19:30Z</time>
      </trkpt>
      <trkpt lat="45.7597" lon="6.54081">
        <ele>1712.8</ele>
        <time>2025-08-15T09:19:31Z</time>
      </trkpt>
      <trkpt lat="45.7597" lon="6.54084">
        <ele>1712.9</ele>
        <time>2025-08-15T09:19:32Z</time>
      </trkpt>
      <trkpt lat="45.7597" lon="6.54086">
        <ele>1713</ele>
        <time>2025-08-15T09:19:33Z</time>
      </trkpt>
      <trkpt lat="45.7597" lon="6.54089">
        <ele>1713.1</ele>
        <time>2025-08-15T09:19:34Z</time>
      </trkpt>
      <trkpt lat="45.75971" lon="6.54091">
        <ele>1713.2</ele>
        <time>2025-08-15T09:19:35Z</time>
      </trkpt>
      <trkpt lat="45.75971" lon="6.54095">
        <ele>1713.4</ele>
        <time>2025-08-15T09:19:36Z</time>
      </trkpt>
      <trkpt lat="45.75971" lon="6.54096">
        <ele>1713.4</ele>
        <time>2025-08-15T09:19:37Z</time>
      </trkpt>
      <trkpt lat="45.75972" lon="6.54101">
        <ele>1713.6</ele>
        <time>2025-08-15T09:19:38Z</time>
      </trkpt>
      <trkpt lat="45.75972" lon="6.54102">
        <ele>1713.7</ele>
        <time>2025-08-15T09:19:39Z</time>
      </trkpt>
      <trkpt lat="45.75973" lon="6.54106">
        <ele>1713.8</ele>
        <time>2025-08-15T09:19:40Z</time>
      </trkpt>
      <trkpt lat="45.75973" lon="6.54108">
        <ele>1713.9</ele>
        <time>2025-08-15T09:19:41Z</time>
      </trkpt>
      <trkpt lat="45.75973" lon="6.54112">
        <ele>1714.1</ele>
        <time>2025-08-15T09:19:42Z</time>
      </trkpt>
      <trkpt lat="45.75973" lon="6.54113">
        <ele>1714.1</ele>
        <time>2025-08-15T09:19:43Z</time>
      </trkpt>
      <trkpt lat="45.75974" lon="6.54118">
        <ele>1714.3</ele>
        <time>2025-08-15T09:19:44Z</time>
      </trkpt>
      <trkpt lat="45.75974" lon="6.54119">
        <ele>1714.4</ele>
        <time>2025-08-15T09:19:45Z</time>
      </trkpt>
      <trkpt lat="45.75974" lon="6.54124">
        <ele>1714.5</ele>
        <time>2025-08-15T09:19:46Z</time>
      </trkpt>
      <trkpt lat="45.75974" lon="6.54125">
        <ele>1714.6</ele>
        <time>2025-08-15T09:19:47Z</time>
      </trkpt>
      <trkpt lat="45.75974" lon="6.5413">
        <ele>1714.8</ele>
        <time>2025-08-15T09:19:48Z</time>
      </trkpt>
      <trkpt lat="45.75974" lon="6.54131">
        <ele>1714.8</ele>
        <time>2025-08-15T09:19:49Z</time>
      </trkpt>
      <trkpt lat="45.75974" lon="6.54136">
        <ele>1715</ele>
        <time>2025-08-15T09:19:50Z</time>
      </trkpt>
      <trkpt lat="45.75974" lon="6.54137">
        <ele>1715.1</ele>
        <time>2025-08-15T09:19:51Z</time>
      </trkpt>
      <trkpt lat="45.75974" lon="6.54142">
        <ele>1715.3</ele>
        <time>2025-08-15T09:19:52Z</time>
      </trkpt>
      <trkpt lat="45.75974" lon="6.54143">
        <ele>1715.4</ele>
        <time>2025-08-15T09:19:53Z</time>
      </trkpt>
      <trkpt lat="45.75973" lon="6.54148">
        <ele>1715.5</ele>
        <time>2025-08-15T09:19:54Z</time>
      </trkpt>
      <trkpt lat="45.75973" lon="6.54149">
        <ele>1715.6</ele>
        <time>2025-08-15T09:19:55Z</time>
      </trkpt>
      <trkpt lat="45.75972" lon="6.54153">
        <ele>1715.8</ele>
        <time>2025-08-15T09:19:56Z</time>
      </trkpt>
      <trkpt lat="45.75972" lon="6.54155">
        <ele>1715.9</ele>
        <time>2025-08-15T09:19:57Z</time>
      </trkpt>
      <trkpt lat="45.75971" lon="6.54159">
        <ele>1716.1</ele>
        <time>2025-08-15T09:19:58Z</time>
      </trkpt>
      <trkpt lat="45.75971" lon="6.5416">
        <ele>1716.2</ele>
        <time>2025-08-15T09:19:59Z</time>
      </trkpt>
      <trkpt lat="45.7597" lon="6.54164">
        <ele>1716.4</ele>
        <time>2025-08-15T09:20:00Z</time>
      </trkpt>
      <trkpt lat="45.75969" lon="6.54166">
        <ele>1716.5</ele>
        <time>2025-08-15T09:20:01Z</time>
      </trkpt>
      <trkpt lat="45.75969" lon="6.54171">
        <ele>1716.7</ele>
        <time>2025-08-15T09:20:02Z</time>
      </trkpt>
      <trkpt lat="45.75969" lon="6.54172">
        <ele>1716.8</ele>
        <time>2025-08-15T09:20:03Z</time>
      </trkpt>
      <trkpt lat="45.75968" lon="6.54176">
        <ele>1717</ele>
        <time>2025-08-15T09:20:04Z</time>
      </trkpt>
      <trkpt lat="45.75968" lon="6.54177">
        <ele>1717</ele>
        <time>2025-08-15T09:20:05Z</time>
      </trkpt>
      <trkpt lat="45.75968" lon="6.54182">
        <ele>1717.3</ele>
        <time>2025-08-15T09:20:06Z</time>
      </trkpt>
      <trkpt lat="45.75968" lon="6.54183">
        <ele>1717.3</ele>
        <time>2025-08-15T09:20:07Z</time>
      </trkpt>
      <trkpt lat="45.75968" lon="6.54188">
        <ele>1717.6</ele>
        <time>2025-08-15T09:20:08Z</time>
      </trkpt>
      <trkpt lat="45.75968" lon="6.54189">
        <ele>1717.7</ele>
        <time>2025-08-15T09:20:09Z</time>
      </trkpt>
      <trkpt lat="45.75968" lon="6.54191">
        <ele>1717.8</ele>
        <time>2025-08-15T09:20:10Z</time>
      </trkpt>
      <trkpt lat="45.75968" lon="6.54194">
        <ele>1717.9</ele>
        <time>2025-08-15T09:20:11Z</time>
      </trkpt>
      <trkpt lat="45.75967" lon="6.54196">
        <ele>1718.1</ele>
        <time>2025-08-15T09:20:12Z</time>
      </trkpt>
      <trkpt lat="45.75967" lon="6.54199">
        <ele>1718.2</ele>
        <time>2025-08-15T09:20:13Z</time>
      </trkpt>
      <trkpt lat="45.75968" lon="6.54201">
        <ele>1718.4</ele>
        <time>2025-08-15T09:20:14Z</time>
      </trkpt>
      <trkpt lat="45.75969" lon="6.54203">
        <ele>1718.5</ele>
        <time>2025-08-15T09:20:15Z</time>
      </trkpt>
      <trkpt lat="45.75969" lon="6.54205">
        <ele>1718.6</ele>
        <time>2025-08-15T09:20:16Z</time>
      </trkpt>
      <trkpt lat="45.7597" lon="6.54207">
        <ele>1718.8</ele>
        <time>2025-08-15T09:20:17Z</time>
      </trkpt>
      <trkpt lat="45.75969" lon="6.5421">
        <ele>1718.9</ele>
        <time>2025-08-15T09:20:18Z</time>
      </trkpt>
      <trkpt lat="45.75969" lon="6.54212">
        <ele>1719</ele>
        <time>2025-08-15T09:20:19Z</time>
      </trkpt>
      <trkpt lat="45.75969" lon="6.54214">
        <ele>1719.1</ele>
        <time>2025-08-15T09:20:20Z</time>
      </trkpt>
      <trkpt lat="45.75968" lon="6.54215">
        <ele>1719.2</ele>
        <time>2025-08-15T09:20:21Z</time>
      </trkpt>
      <trkpt lat="45.75968" lon="6.54219">
        <ele>1719.5</ele>
        <time>2025-08-15T09:20:22Z</time>
      </trkpt>
      <trkpt lat="45.75968" lon="6.54221">
        <ele>1719.5</ele>
        <time>2025-08-15T09:20:23Z</time>
      </trkpt>
      <trkpt lat="45.75968" lon="6.54223">
        <ele>1719.7</ele>
        <time>2025-08-15T09:20:24Z</time>
      </trkpt>
      <trkpt lat="45.75969" lon="6.54225">
        <ele>1719.8</ele>
        <time>2025-08-15T09:20:25Z</time>
      </trkpt>
      <trkpt lat="45.75969" lon="6.54228">
        <ele>1720</ele>
        <time>2025-08-15T09:20:26Z</time>
      </trkpt>
      <trkpt lat="45.75969" lon="6.5423">
        <ele>1720.1</ele>
        <time>2025-08-15T09:20:27Z</time>
      </trkpt>
      <trkpt lat="45.75969" lon="6.54233">
        <ele>1720.3</ele>
        <time>2025-08-15T09:20:28Z</time>
      </trkpt>
      <trkpt lat="45.75969" lon="6.54234">
        <ele>1720.4</ele>
        <time>2025-08-15T09:20:29Z</time>
      </trkpt>
      <trkpt lat="45.75969" lon="6.54236">
        <ele>1720.5</ele>
        <time>2025-08-15T09:20:30Z</time>
      </trkpt>
      <trkpt lat="45.75969" lon="6.54239">
        <ele>1720.6</ele>
        <time>2025-08-15T09:20:31Z</time>
      </trkpt>
      <trkpt lat="45.75969" lon="6.54241">
        <ele>1720.8</ele>
        <time>2025-08-15T09:20:32Z</time>
      </trkpt>
      <trkpt lat="45.75969" lon="6.54244">
        <ele>1720.9</ele>
        <time>2025-08-15T09:20:33Z</time>
      </trkpt>
      <trkpt lat="45.75969" lon="6.54246">
        <ele>1721</ele>
        <time>2025-08-15T09:20:34Z</time>
      </trkpt>
      <trkpt lat="45.7597" lon="6.54249">
        <ele>1721.2</ele>
        <time>2025-08-15T09:20:35Z</time>
      </trkpt>
      <trkpt lat="45.75969" lon="6.54253">
        <ele>1721.5</ele>
        <time>2025-08-15T09:20:36Z</time>
      </trkpt>
      <trkpt lat="45.75969" lon="6.54254">
        <ele>1721.6</ele>
        <time>2025-08-15T09:20:37Z</time>
      </trkpt>
      <trkpt lat="45.75969" lon="6.54259">
        <ele>1721.8</ele>
        <time>2025-08-15T09:20:38Z</time>
      </trkpt>
      <trkpt lat="45.75969" lon="6.5426">
        <ele>1721.9</ele>
        <time>2025-08-15T09:20:39Z</time>
      </trkpt>
      <trkpt lat="45.75969" lon="6.54264">
        <ele>1722.2</ele>
        <time>2025-08-15T09:20:40Z</time>
      </trkpt>
      <trkpt lat="45.75969" lon="6.54266">
        <ele>1722.3</ele>
        <time>2025-08-15T09:20:41Z</time>
      </trkpt>
      <trkpt lat="45.75969" lon="6.54269">
        <ele>1722.5</ele>
        <time>2025-08-15T09:20:42Z</time>
      </trkpt>
      <trkpt lat="45.75969" lon="6.54271">
        <ele>1722.6</ele>
        <time>2025-08-15T09:20:43Z</time>
      </trkpt>
      <trkpt lat="45.75969" lon="6.54276">
        <ele>1722.9</ele>
        <time>2025-08-15T09:20:44Z</time>
      </trkpt>
      <trkpt lat="45.75969" lon="6.54277">
        <ele>1723</ele>
        <time>2025-08-15T09:20:45Z</time>
      </trkpt>
      <trkpt lat="45.75969" lon="6.54282">
        <ele>1723.3</ele>
        <time>2025-08-15T09:20:46Z</time>
      </trkpt>
      <trkpt lat="45.75969" lon="6.54284">
        <ele>1723.4</ele>
        <time>2025-08-15T09:20:47Z</time>
      </trkpt>
      <trkpt lat="45.75969" lon="6.54288">
        <ele>1723.7</ele>
        <time>2025-08-15T09:20:48Z</time>
      </trkpt>
      <trkpt lat="45.75969" lon="6.5429">
        <ele>1723.8</ele>
        <time>2025-08-15T09:20:49Z</time>
      </trkpt>
      <trkpt lat="45.75969" lon="6.54294">
        <ele>1724.1</ele>
        <time>2025-08-15T09:20:50Z</time>
      </trkpt>
      <trkpt lat="45.75968" lon="6.54296">
        <ele>1724.2</ele>
        <time>2025-08-15T09:20:51Z</time>
      </trkpt>
      <trkpt lat="45.75968" lon="6.543">
        <ele>1724.5</ele>
        <time>2025-08-15T09:20:52Z</time>
      </trkpt>
      <trkpt lat="45.75968" lon="6.54302">
        <ele>1724.6</ele>
        <time>2025-08-15T09:20:53Z</time>
      </trkpt>
      <trkpt lat="45.75968" lon="6.54304">
        <ele>1724.8</ele>
        <time>2025-08-15T09:20:54Z</time>
      </trkpt>
      <trkpt lat="45.75968" lon="6.54306">
        <ele>1724.9</ele>
        <time>2025-08-15T09:20:55Z</time>
      </trkpt>
      <trkpt lat="45.75969" lon="6.54309">
        <ele>1725.2</ele>
        <time>2025-08-15T09:20:56Z</time>
      </trkpt>
      <trkpt lat="45.75969" lon="6.54311">
        <ele>1725.3</ele>
        <time>2025-08-15T09:20:57Z</time>
      </trkpt>
      <trkpt lat="45.75969" lon="6.54316">
        <ele>1725.6</ele>
        <time>2025-08-15T09:20:58Z</time>
      </trkpt>
      <trkpt lat="45.75969" lon="6.54317">
        <ele>1725.7</ele>
        <time>2025-08-15T09:20:59Z</time>
      </trkpt>
      <trkpt lat="45.75969" lon="6.54322">
        <ele>1726</ele>
        <time>2025-08-15T09:21:00Z</time>
      </trkpt>
      <trkpt lat="45.7597" lon="6.54323">
        <ele>1726.1</ele>
        <time>2025-08-15T09:21:01Z</time>
      </trkpt>
      <trkpt lat="45.7597" lon="6.54327">
        <ele>1726.4</ele>
        <time>2025-08-15T09:21:02Z</time>
      </trkpt>
      <trkpt lat="45.7597" lon="6.54329">
        <ele>1726.5</ele>
        <time>2025-08-15T09:21:03Z</time>
      </trkpt>
      <trkpt lat="45.75969" lon="6.54334">
        <ele>1726.8</ele>
        <time>2025-08-15T09:21:04Z</time>
      </trkpt>
      <trkpt lat="45.75969" lon="6.54335">
        <ele>1726.9</ele>
        <time>2025-08-15T09:21:05Z</time>
      </trkpt>
      <trkpt lat="45.75969" lon="6.5434">
        <ele>1727.2</ele>
        <time>2025-08-15T09:21:06Z</time>
      </trkpt>
      <trkpt lat="45.75969" lon="6.54341">
        <ele>1727.3</ele>
        <time>2025-08-15T09:21:07Z</time>
      </trkpt>
      <trkpt lat="45.75969" lon="6.54346">
        <ele>1727.6</ele>
        <time>2025-08-15T09:21:08Z</time>
      </trkpt>
      <trkpt lat="45.75969" lon="6.54347">
        <ele>1727.7</ele>
        <time>2025-08-15T09:21:09Z</time>
      </trkpt>
      <trkpt lat="45.7597" lon="6.54352">
        <ele>1728</ele>
        <time>2025-08-15T09:21:10Z</time>
      </trkpt>
      <trkpt lat="45.7597" lon="6.54353">
        <ele>1728.1</ele>
        <time>2025-08-15T09:21:11Z</time>
      </trkpt>
      <trkpt lat="45.7597" lon="6.54357">
        <ele>1728.4</ele>
        <time>2025-08-15T09:21:12Z</time>
      </trkpt>
      <trkpt lat="45.7597" lon="6.54358">
        <ele>1728.5</ele>
        <time>2025-08-15T09:21:13Z</time>
      </trkpt>
      <trkpt lat="45.75971" lon="6.54362">
        <ele>1728.7</ele>
        <time>2025-08-15T09:21:14Z</time>
      </trkpt>
      <trkpt lat="45.75971" lon="6.54364">
        <ele>1728.8</ele>
        <time>2025-08-15T09:21:15Z</time>
      </trkpt>
      <trkpt lat="45.75972" lon="6.54368">
        <ele>1729.1</ele>
        <time>2025-08-15T09:21:16Z</time>
      </trkpt>
      <trkpt lat="45.75972" lon="6.54369">
        <ele>1729.2</ele>
        <time>2025-08-15T09:21:17Z</time>
      </trkpt>
      <trkpt lat="45.75972" lon="6.54373">
        <ele>1729.5</ele>
        <time>2025-08-15T09:21:18Z</time>
      </trkpt>
      <trkpt lat="45.75972" lon="6.54375">
        <ele>1729.6</ele>
        <time>2025-08-15T09:21:19Z</time>
      </trkpt>
      <trkpt lat="45.75973" lon="6.54379">
        <ele>1729.8</ele>
        <time>2025-08-15T09:21:20Z</time>
      </trkpt>
      <trkpt lat="45.75973" lon="6.5438">
        <ele>1729.9</ele>
        <time>2025-08-15T09:21:21Z</time>
      </trkpt>
      <trkpt lat="45.75973" lon="6.54385">
        <ele>1730.2</ele>
        <time>2025-08-15T09:21:22Z</time>
      </trkpt>
      <trkpt lat="45.75973" lon="6.54387">
        <ele>1730.3</ele>
        <time>2025-08-15T09:21:23Z</time>
      </trkpt>
      <trkpt lat="45.75974" lon="6.54391">
        <ele>1730.6</ele>
        <time>2025-08-15T09:21:24Z</time>
      </trkpt>
      <trkpt lat="45.75974" lon="6.54392">
        <ele>1730.7</ele>
        <time>2025-08-15T09:21:25Z</time>
      </trkpt>
      <trkpt lat="45.75975" lon="6.54396">
        <ele>1731</ele>
        <time>2025-08-15T09:21:26Z</time>
      </trkpt>
      <trkpt lat="45.75975" lon="6.54398">
        <ele>1731.1</ele>
        <time>2025-08-15T09:21:27Z</time>
      </trkpt>
      <trkpt lat="45.75976" lon="6.54403">
        <ele>1731.4</ele>
        <time>2025-08-15T09:21:28Z</time>
      </trkpt>
      <trkpt lat="45.75976" lon="6.54404">
        <ele>1731.5</ele>
        <time>2025-08-15T09:21:29Z</time>
      </trkpt>
      <trkpt lat="45.75976" lon="6.54409">
        <ele>1731.8</ele>
        <time>2025-08-15T09:21:30Z</time>
      </trkpt>
      <trkpt lat="45.75976" lon="6.5441">
        <ele>1731.9</ele>
        <time>2025-08-15T09:21:31Z</time>
      </trkpt>
      <trkpt lat="45.75976" lon="6.54414">
        <ele>1732.2</ele>
        <time>2025-08-15T09:21:32Z</time>
      </trkpt>
      <trkpt lat="45.75976" lon="6.54416">
        <ele>1732.2</ele>
        <time>2025-08-15T09:21:33Z</time>
      </trkpt>
      <trkpt lat="45.75976" lon="6.5442">
        <ele>1732.5</ele>
        <time>2025-08-15T09:21:34Z</time>
      </trkpt>
      <trkpt lat="45.75976" lon="6.54421">
        <ele>1732.6</ele>
        <time>2025-08-15T09:21:35Z</time>
      </trkpt>
      <trkpt lat="45.75977" lon="6.54426">
        <ele>1732.9</ele>
        <time>2025-08-15T09:21:36Z</time>
      </trkpt>
      <trkpt lat="45.75977" lon="6.54427">
        <ele>1733</ele>
        <time>2025-08-15T09:21:37Z</time>
      </trkpt>
      <trkpt lat="45.75978" lon="6.54432">
        <ele>1733.3</ele>
        <time>2025-08-15T09:21:38Z</time>
      </trkpt>
      <trkpt lat="45.75978" lon="6.54433">
        <ele>1733.4</ele>
        <time>2025-08-15T09:21:39Z</time>
      </trkpt>
      <trkpt lat="45.75979" lon="6.54438">
        <ele>1733.7</ele>
        <time>2025-08-15T09:21:40Z</time>
      </trkpt>
      <trkpt lat="45.75979" lon="6.54439">
        <ele>1733.8</ele>
        <time>2025-08-15T09:21:41Z</time>
      </trkpt>
      <trkpt lat="45.75979" lon="6.54444">
        <ele>1734.1</ele>
        <time>2025-08-15T09:21:42Z</time>
      </trkpt>
      <trkpt lat="45.75979" lon="6.54446">
        <ele>1734.2</ele>
        <time>2025-08-15T09:21:43Z</time>
      </trkpt>
      <trkpt lat="45.75979" lon="6.5445">
        <ele>1734.5</ele>
        <time>2025-08-15T09:21:44Z</time>
      </trkpt>
      <trkpt lat="45.75979" lon="6.54452">
        <ele>1734.6</ele>
        <time>2025-08-15T09:21:45Z</time>
      </trkpt>
      <trkpt lat="45.75979" lon="6.54456">
        <ele>1734.9</ele>
        <time>2025-08-15T09:21:46Z</time>
      </trkpt>
      <trkpt lat="45.75979" lon="6.54458">
        <ele>1735</ele>
        <time>2025-08-15T09:21:47Z</time>
      </trkpt>
      <trkpt lat="45.7598" lon="6.54461">
        <ele>1735.1</ele>
        <time>2025-08-15T09:21:48Z</time>
      </trkpt>
      <trkpt lat="45.75979" lon="6.54463">
        <ele>1735.3</ele>
        <time>2025-08-15T09:21:49Z</time>
      </trkpt>
      <trkpt lat="45.75979" lon="6.54468">
        <ele>1735.6</ele>
        <time>2025-08-15T09:21:50Z</time>
      </trkpt>
      <trkpt lat="45.75979" lon="6.5447">
        <ele>1735.7</ele>
        <time>2025-08-15T09:21:51Z</time>
      </trkpt>
      <trkpt lat="45.7598" lon="6.54473">
        <ele>1735.9</ele>
        <time>2025-08-15T09:21:52Z</time>
      </trkpt>
      <trkpt lat="45.7598" lon="6.54475">
        <ele>1736</ele>
        <time>2025-08-15T09:21:53Z</time>
      </trkpt>
      <trkpt lat="45.7598" lon="6.54479">
        <ele>1736.3</ele>
        <time>2025-08-15T09:21:54Z</time>
      </trkpt>
      <trkpt lat="45.7598" lon="6.54481">
        <ele>1736.3</ele>
        <time>2025-08-15T09:21:55Z</time>
      </trkpt>
      <trkpt lat="45.7598" lon="6.54484">
        <ele>1736.5</ele>
        <time>2025-08-15T09:21:56Z</time>
      </trkpt>
      <trkpt lat="45.7598" lon="6.54486">
        <ele>1736.6</ele>
        <time>2025-08-15T09:21:57Z</time>
      </trkpt>
      <trkpt lat="45.7598" lon="6.54491">
        <ele>1737</ele>
        <time>2025-08-15T09:21:58Z</time>
      </trkpt>
      <trkpt lat="45.7598" lon="6.54493">
        <ele>1737</ele>
        <time>2025-08-15T09:21:59Z</time>
      </trkpt>
      <trkpt lat="45.7598" lon="6.54497">
        <ele>1737.3</ele>
        <time>2025-08-15T09:22:00Z</time>
      </trkpt>
      <trkpt lat="45.7598" lon="6.54499">
        <ele>1737.4</ele>
        <time>2025-08-15T09:22:01Z</time>
      </trkpt>
      <trkpt lat="45.7598" lon="6.54503">
        <ele>1737.6</ele>
        <time>2025-08-15T09:22:02Z</time>
      </trkpt>
      <trkpt lat="45.7598" lon="6.54504">
        <ele>1737.7</ele>
        <time>2025-08-15T09:22:03Z</time>
      </trkpt>
      <trkpt lat="45.7598" lon="6.54509">
        <ele>1738</ele>
        <time>2025-08-15T09:22:04Z</time>
      </trkpt>
      <trkpt lat="45.7598" lon="6.54511">
        <ele>1738.1</ele>
        <time>2025-08-15T09:22:05Z</time>
      </trkpt>
      <trkpt lat="45.75979" lon="6.54516">
        <ele>1738.4</ele>
        <time>2025-08-15T09:22:06Z</time>
      </trkpt>
      <trkpt lat="45.75979" lon="6.54517">
        <ele>1738.5</ele>
        <time>2025-08-15T09:22:07Z</time>
      </trkpt>
      <trkpt lat="45.75979" lon="6.54522">
        <ele>1738.8</ele>
        <time>2025-08-15T09:22:08Z</time>
      </trkpt>
      <trkpt lat="45.75979" lon="6.54523">
        <ele>1738.9</ele>
        <time>2025-08-15T09:22:09Z</time>
      </trkpt>
      <trkpt lat="45.75979" lon="6.54528">
        <ele>1739.1</ele>
        <time>2025-08-15T09:22:10Z</time>
      </trkpt>
      <trkpt lat="45.75979" lon="6.54529">
        <ele>1739.2</ele>
        <time>2025-08-15T09:22:11Z</time>
      </trkpt>
      <trkpt lat="45.75979" lon="6.54534">
        <ele>1739.5</ele>
        <time>2025-08-15T09:22:12Z</time>
      </trkpt>
      <trkpt lat="45.75979" lon="6.54536">
        <ele>1739.6</ele>
        <time>2025-08-15T09:22:13Z</time>
      </trkpt>
      <trkpt lat="45.75979" lon="6.5454">
        <ele>1739.9</ele>
        <time>2025-08-15T09:22:14Z</time>
      </trkpt>
      <trkpt lat="45.75979" lon="6.54542">
        <ele>1739.9</ele>
        <time>2025-08-15T09:22:15Z</time>
      </trkpt>
      <trkpt lat="45.75979" lon="6.54546">
        <ele>1740.2</ele>
        <time>2025-08-15T09:22:16Z</time>
      </trkpt>
      <trkpt lat="45.75979" lon="6.54548">
        <ele>1740.3</ele>
        <time>2025-08-15T09:22:17Z</time>
      </trkpt>
      <trkpt lat="45.75979" lon="6.54552">
        <ele>1740.6</ele>
        <time>2025-08-15T09:22:18Z</time>
      </trkpt>
      <trkpt lat="45.75978" lon="6.54554">
        <ele>1740.6</ele>
        <time>2025-08-15T09:22:19Z</time>
      </trkpt>
      <trkpt lat="45.75977" lon="6.54558">
        <ele>1740.9</ele>
        <time>2025-08-15T09:22:20Z</time>
      </trkpt>
      <trkpt lat="45.75977" lon="6.5456">
        <ele>1741</ele>
        <time>2025-08-15T09:22:21Z</time>
      </trkpt>
      <trkpt lat="45.75977" lon="6.54562">
        <ele>1741.2</ele>
        <time>2025-08-15T09:22:22Z</time>
      </trkpt>
      <trkpt lat="45.75977" lon="6.54565">
        <ele>1741.3</ele>
        <time>2025-08-15T09:22:23Z</time>
      </trkpt>
      <trkpt lat="45.75977" lon="6.54569">
        <ele>1741.6</ele>
        <time>2025-08-15T09:22:24Z</time>
      </trkpt>
      <trkpt lat="45.75977" lon="6.54571">
        <ele>1741.7</ele>
        <time>2025-08-15T09:22:25Z</time>
      </trkpt>
      <trkpt lat="45.75976" lon="6.54575">
        <ele>1742</ele>
        <time>2025-08-15T09:22:26Z</time>
      </trkpt>
      <trkpt lat="45.75976" lon="6.54577">
        <ele>1742</ele>
        <time>2025-08-15T09:22:27Z</time>
      </trkpt>
      <trkpt lat="45.75975" lon="6.54581">
        <ele>1742.3</ele>
        <time>2025-08-15T09:22:28Z</time>
      </trkpt>
      <trkpt lat="45.75975" lon="6.54582">
        <ele>1742.4</ele>
        <time>2025-08-15T09:22:29Z</time>
      </trkpt>
      <trkpt lat="45.75973" lon="6.54587">
        <ele>1742.7</ele>
        <time>2025-08-15T09:22:30Z</time>
      </trkpt>
      <trkpt lat="45.75973" lon="6.54588">
        <ele>1742.8</ele>
        <time>2025-08-15T09:22:31Z</time>
      </trkpt>
      <trkpt lat="45.75973" lon="6.54593">
        <ele>1743</ele>
        <time>2025-08-15T09:22:32Z</time>
      </trkpt>
      <trkpt lat="45.75972" lon="6.54594">
        <ele>1743.1</ele>
        <time>2025-08-15T09:22:33Z</time>
      </trkpt>
      <trkpt lat="45.75971" lon="6.54599">
        <ele>1743.4</ele>
        <time>2025-08-15T09:22:34Z</time>
      </trkpt>
      <trkpt lat="45.75971" lon="6.546">
        <ele>1743.5</ele>
        <time>2025-08-15T09:22:35Z</time>
      </trkpt>
      <trkpt lat="45.7597" lon="6.54605">
        <ele>1743.8</ele>
        <time>2025-08-15T09:22:36Z</time>
      </trkpt>
      <trkpt lat="45.7597" lon="6.54607">
        <ele>1743.9</ele>
        <time>2025-08-15T09:22:37Z</time>
      </trkpt>
      <trkpt lat="45.7597" lon="6.54611">
        <ele>1744.2</ele>
        <time>2025-08-15T09:22:38Z</time>
      </trkpt>
      <trkpt lat="45.75969" lon="6.54613">
        <ele>1744.3</ele>
        <time>2025-08-15T09:22:39Z</time>
      </trkpt>
      <trkpt lat="45.75968" lon="6.54617">
        <ele>1744.5</ele>
        <time>2025-08-15T09:22:40Z</time>
      </trkpt>
      <trkpt lat="45.75968" lon="6.54619">
        <ele>1744.6</ele>
        <time>2025-08-15T09:22:41Z</time>
      </trkpt>
      <trkpt lat="45.75967" lon="6.54624">
        <ele>1744.9</ele>
        <time>2025-08-15T09:22:42Z</time>
      </trkpt>
      <trkpt lat="45.75967" lon="6.54625">
        <ele>1745</ele>
        <time>2025-08-15T09:22:43Z</time>
      </trkpt>
      <trkpt lat="45.75965" lon="6.5463">
        <ele>1745.3</ele>
        <time>2025-08-15T09:22:44Z</time>
      </trkpt>
      <trkpt lat="45.75965" lon="6.54631">
        <ele>1745.4</ele>
        <time>2025-08-15T09:22:45Z</time>
      </trkpt>
      <trkpt lat="45.75963" lon="6.54635">
        <ele>1745.7</ele>
        <time>2025-08-15T09:22:46Z</time>
      </trkpt>
      <trkpt lat="45.75962" lon="6.54636">
        <ele>1745.8</ele>
        <time>2025-08-15T09:22:47Z</time>
      </trkpt>
      <trkpt lat="45.75961" lon="6.54641">
        <ele>1746</ele>
        <time>2025-08-15T09:22:48Z</time>
      </trkpt>
      <trkpt lat="45.7596" lon="6.54642">
        <ele>1746.1</ele>
        <time>2025-08-15T09:22:49Z</time>
      </trkpt>
      <trkpt lat="45.75959" lon="6.54646">
        <ele>1746.3</ele>
        <time>2025-08-15T09:22:50Z</time>
      </trkpt>
      <trkpt lat="45.75958" lon="6.54647">
        <ele>1746.4</ele>
        <time>2025-08-15T09:22:51Z</time>
      </trkpt>
      <trkpt lat="45.75957" lon="6.54651">
        <ele>1746.6</ele>
        <time>2025-08-15T09:22:52Z</time>
      </trkpt>
      <trkpt lat="45.75957" lon="6.54652">
        <ele>1746.7</ele>
        <time>2025-08-15T09:22:53Z</time>
      </trkpt>
      <trkpt lat="45.75956" lon="6.54654">
        <ele>1746.8</ele>
        <time>2025-08-15T09:22:54Z</time>
      </trkpt>
      <trkpt lat="45.75955" lon="6.54656">
        <ele>1746.9</ele>
        <time>2025-08-15T09:22:55Z</time>
      </trkpt>
      <trkpt lat="45.75954" lon="6.54658">
        <ele>1747</ele>
        <time>2025-08-15T09:22:56Z</time>
      </trkpt>
      <trkpt lat="45.75953" lon="6.54659">
        <ele>1747.1</ele>
        <time>2025-08-15T09:22:57Z</time>
      </trkpt>
      <trkpt lat="45.75952" lon="6.5466">
        <ele>1747.2</ele>
        <time>2025-08-15T09:22:58Z</time>
      </trkpt>
      <trkpt lat="45.75952" lon="6.54661">
        <ele>1747.3</ele>
        <time>2025-08-15T09:22:59Z</time>
      </trkpt>
      <trkpt lat="45.75951" lon="6.54663">
        <ele>1747.4</ele>
        <time>2025-08-15T09:23:00Z</time>
      </trkpt>
      <trkpt lat="45.7595" lon="6.54664">
        <ele>1747.4</ele>
        <time>2025-08-15T09:23:01Z</time>
      </trkpt>
      <trkpt lat="45.7595" lon="6.54665">
        <ele>1747.5</ele>
        <time>2025-08-15T09:23:02Z</time>
      </trkpt>
      <trkpt lat="45.75949" lon="6.54667">
        <ele>1747.6</ele>
        <time>2025-08-15T09:23:03Z</time>
      </trkpt>
      <trkpt lat="45.75948" lon="6.54669">
        <ele>1747.6</ele>
        <time>2025-08-15T09:23:04Z</time>
      </trkpt>
      <trkpt lat="45.75948" lon="6.5467">
        <ele>1747.7</ele>
        <time>2025-08-15T09:23:05Z</time>
      </trkpt>
      <trkpt lat="45.75946" lon="6.54673">
        <ele>1747.8</ele>
        <time>2025-08-15T09:23:06Z</time>
      </trkpt>
      <trkpt lat="45.75946" lon="6.54674">
        <ele>1747.9</ele>
        <time>2025-08-15T09:23:07Z</time>
      </trkpt>
      <trkpt lat="45.75945" lon="6.54674">
        <ele>1747.9</ele>
        <time>2025-08-15T09:23:08Z</time>
      </trkpt>
      <trkpt lat="45.75944" lon="6.54676">
        <ele>1748</ele>
        <time>2025-08-15T09:23:09Z</time>
      </trkpt>
      <trkpt lat="45.75944" lon="6.54677">
        <ele>1748</ele>
        <time>2025-08-15T09:23:10Z</time>
      </trkpt>
      <trkpt lat="45.75944" lon="6.54679">
        <ele>1748.1</ele>
        <time>2025-08-15T09:23:11Z</time>
      </trkpt>
      <trkpt lat="45.75944" lon="6.5468">
        <ele>1748.1</ele>
        <time>2025-08-15T09:23:12Z</time>
      </trkpt>
      <trkpt lat="45.75945" lon="6.54681">
        <ele>1748.2</ele>
        <time>2025-08-15T09:23:13Z</time>
      </trkpt>
      <trkpt lat="45.75947" lon="6.54681">
        <ele>1748.3</ele>
        <time>2025-08-15T09:23:14Z</time>
      </trkpt>
      <trkpt lat="45.75949" lon="6.54678">
        <ele>1748.1</ele>
        <time>2025-08-15T09:23:15Z</time>
      </trkpt>
      <trkpt lat="45.7595" lon="6.54677">
        <ele>1748.1</ele>
        <time>2025-08-15T09:23:16Z</time>
      </trkpt>
      <trkpt lat="45.7595" lon="6.54676">
        <ele>1748</ele>
        <time>2025-08-15T09:23:17Z</time>
      </trkpt>
      <trkpt lat="45.7595" lon="6.54674">
        <ele>1747.9</ele>
        <time>2025-08-15T09:23:18Z</time>
      </trkpt>
      <trkpt lat="45.75951" lon="6.54673">
        <ele>1747.8</ele>
        <time>2025-08-15T09:23:19Z</time>
      </trkpt>
      <trkpt lat="45.75953" lon="6.54671">
        <ele>1747.7</ele>
        <time>2025-08-15T09:23:20Z</time>
      </trkpt>
      <trkpt lat="45.75954" lon="6.5467">
        <ele>1747.6</ele>
        <time>2025-08-15T09:23:21Z</time>
      </trkpt>
      <trkpt lat="45.75954" lon="6.5467">
        <ele>1747.5</ele>
        <time>2025-08-15T09:23:22Z</time>
      </trkpt>
      <trkpt lat="45.75956" lon="6.54668">
        <ele>1747.4</ele>
        <time>2025-08-15T09:23:23Z</time>
      </trkpt>
      <trkpt lat="45.75957" lon="6.54667">
        <ele>1747.3</ele>
        <time>2025-08-15T09:23:24Z</time>
      </trkpt>
      <trkpt lat="45.75959" lon="6.54663">
        <ele>1747.2</ele>
        <time>2025-08-15T09:23:25Z</time>
      </trkpt>
      <trkpt lat="45.75959" lon="6.54662">
        <ele>1747.2</ele>
        <time>2025-08-15T09:23:26Z</time>
      </trkpt>
      <trkpt lat="45.75959" lon="6.54659">
        <ele>1747.1</ele>
        <time>2025-08-15T09:23:27Z</time>
      </trkpt>
      <trkpt lat="45.75958" lon="6.54657">
        <ele>1747.1</ele>
        <time>2025-08-15T09:23:28Z</time>
      </trkpt>
      <trkpt lat="45.75958" lon="6.54656">
        <ele>1747</ele>
        <time>2025-08-15T09:23:29Z</time>
      </trkpt>
      <trkpt lat="45.75957" lon="6.54654">
        <ele>1747</ele>
        <time>2025-08-15T09:23:30Z</time>
      </trkpt>
      <trkpt lat="45.75958" lon="6.54653">
        <ele>1747</ele>
        <time>2025-08-15T09:23:31Z</time>
      </trkpt>
      <trkpt lat="45.7596" lon="6.54652">
        <ele>1746.9</ele>
        <time>2025-08-15T09:23:32Z</time>
      </trkpt>
      <trkpt lat="45.75961" lon="6.54651">
        <ele>1746.9</ele>
        <time>2025-08-15T09:23:33Z</time>
      </trkpt>
      <trkpt lat="45.75962" lon="6.5465">
        <ele>1746.8</ele>
        <time>2025-08-15T09:23:34Z</time>
      </trkpt>
      <trkpt lat="45.75963" lon="6.54648">
        <ele>1746.8</ele>
        <time>2025-08-15T09:23:35Z</time>
      </trkpt>
      <trkpt lat="45.75962" lon="6.54646">
        <ele>1746.8</ele>
        <time>2025-08-15T09:23:36Z</time>
      </trkpt>
      <trkpt lat="45.7596" lon="6.54646">
        <ele>1746.7</ele>
        <time>2025-08-15T09:23:37Z</time>
      </trkpt>
      <trkpt lat="45.75959" lon="6.54648">
        <ele>1746.6</ele>
        <time>2025-08-15T09:23:38Z</time>
      </trkpt>
      <trkpt lat="45.75958" lon="6.5465">
        <ele>1746.6</ele>
        <time>2025-08-15T09:23:39Z</time>
      </trkpt>
      <trkpt lat="45.75958" lon="6.54652">
        <ele>1746.6</ele>
        <time>2025-08-15T09:23:40Z</time>
      </trkpt>
      <trkpt lat="45.75959" lon="6.54653">
        <ele>1746.5</ele>
        <time>2025-08-15T09:23:41Z</time>
      </trkpt>
      <trkpt lat="45.7596" lon="6.54654">
        <ele>1746.5</ele>
        <time>2025-08-15T09:23:42Z</time>
      </trkpt>
      <trkpt lat="45.75959" lon="6.54655">
        <ele>1746.5</ele>
        <time>2025-08-15T09:23:43Z</time>
      </trkpt>
      <trkpt lat="45.75958" lon="6.54656">
        <ele>1746.4</ele>
        <time>2025-08-15T09:23:44Z</time>
      </trkpt>
      <trkpt lat="45.75957" lon="6.54656">
        <ele>1746.4</ele>
        <time>2025-08-15T09:23:45Z</time>
      </trkpt>
      <trkpt lat="45.75956" lon="6.54656">
        <ele>1746.4</ele>
        <time>2025-08-15T09:23:46Z</time>
      </trkpt>
      <trkpt lat="45.75955" lon="6.54656">
        <ele>1746.3</ele>
        <time>2025-08-15T09:23:47Z</time>
      </trkpt>
      <trkpt lat="45.75955" lon="6.54657">
        <ele>1746.3</ele>
        <time>2025-08-15T09:23:48Z</time>
      </trkpt>
      <trkpt lat="45.75954" lon="6.54658">
        <ele>1746.3</ele>
        <time>2025-08-15T09:23:49Z</time>
      </trkpt>
      <trkpt lat="45.75954" lon="6.5466">
        <ele>1746.2</ele>
        <time>2025-08-15T09:23:50Z</time>
      </trkpt>
      <trkpt lat="45.75955" lon="6.54659">
        <ele>1746.2</ele>
        <time>2025-08-15T09:23:51Z</time>
      </trkpt>
      <trkpt lat="45.75955" lon="6.54659">
        <ele>1746.2</ele>
        <time>2025-08-15T09:23:52Z</time>
      </trkpt>
      <trkpt lat="45.75955" lon="6.54659">
        <ele>1746.2</ele>
        <time>2025-08-15T09:23:53Z</time>
      </trkpt>
      <trkpt lat="45.75955" lon="6.54659">
        <ele>1746.2</ele>
        <time>2025-08-15T09:23:54Z</time>
      </trkpt>
      <trkpt lat="45.75955" lon="6.54659">
        <ele>1746.2</ele>
        <time>2025-08-15T09:23:55Z</time>
      </trkpt>
      <trkpt lat="45.75955" lon="6.54659">
        <ele>1746.2</ele>
        <time>2025-08-15T09:23:56Z</time>
      </trkpt>
      <trkpt lat="45.75955" lon="6.54659">
        <ele>1746.2</ele>
        <time>2025-08-15T09:23:57Z</time>
      </trkpt>
      <trkpt lat="45.75956" lon="6.54659">
        <ele>1746.2</ele>
        <time>2025-08-15T09:23:58Z</time>
      </trkpt>
      <trkpt lat="45.75956" lon="6.54659">
        <ele>1746.2</ele>
        <time>2025-08-15T09:23:59Z</time>
      </trkpt>
      <trkpt lat="45.75956" lon="6.54659">
        <ele>1746.2</ele>
        <time>2025-08-15T09:24:00Z</time>
      </trkpt>
      <trkpt lat="45.75958" lon="6.5466">
        <ele>1746.1</ele>
        <time>2025-08-15T09:24:01Z</time>
      </trkpt>
      <trkpt lat="45.75962" lon="6.54656">
        <ele>1745.9</ele>
        <time>2025-08-15T09:24:08Z</time>
      </trkpt>
      <trkpt lat="45.75963" lon="6.54651">
        <ele>1745.8</ele>
        <time>2025-08-15T09:24:09Z</time>
      </trkpt>
      <trkpt lat="45.75964" lon="6.54647">
        <ele>1745.7</ele>
        <time>2025-08-15T09:24:10Z</time>
      </trkpt>
      <trkpt lat="45.75966" lon="6.54642">
        <ele>1745.6</ele>
        <time>2025-08-15T09:24:11Z</time>
      </trkpt>
      <trkpt lat="45.75967" lon="6.54637">
        <ele>1745.5</ele>
        <time>2025-08-15T09:24:12Z</time>
      </trkpt>
      <trkpt lat="45.75968" lon="6.54633">
        <ele>1745.4</ele>
        <time>2025-08-15T09:24:13Z</time>
      </trkpt>
      <trkpt lat="45.75968" lon="6.54632">
        <ele>1745.3</ele>
        <time>2025-08-15T09:24:14Z</time>
      </trkpt>
      <trkpt lat="45.75967" lon="6.54631">
        <ele>1745.3</ele>
        <time>2025-08-15T09:24:15Z</time>
      </trkpt>
      <trkpt lat="45.75967" lon="6.5463">
        <ele>1745.3</ele>
        <time>2025-08-15T09:24:16Z</time>
      </trkpt>
      <trkpt lat="45.75966" lon="6.54629">
        <ele>1745.2</ele>
        <time>2025-08-15T09:24:17Z</time>
      </trkpt>
      <trkpt lat="45.75966" lon="6.5463">
        <ele>1745.2</ele>
        <time>2025-08-15T09:24:18Z</time>
      </trkpt>
      <trkpt lat="45.75965" lon="6.54629">
        <ele>1745.2</ele>
        <time>2025-08-15T09:24:19Z</time>
      </trkpt>
      <trkpt lat="45.75965" lon="6.54629">
        <ele>1745.3</ele>
        <time>2025-08-15T09:24:20Z</time>
      </trkpt>
      <trkpt lat="45.75965" lon="6.54629">
        <ele>1745.3</ele>
        <time>2025-08-15T09:24:21Z</time>
      </trkpt>
      <trkpt lat="45.75965" lon="6.5463">
        <ele>1745.3</ele>
        <time>2025-08-15T09:24:22Z</time>
      </trkpt>
      <trkpt lat="45.75965" lon="6.5463">
        <ele>1745.3</ele>
        <time>2025-08-15T09:24:23Z</time>
      </trkpt>
      <trkpt lat="45.75965" lon="6.5463">
        <ele>1745.3</ele>
        <time>2025-08-15T09:24:24Z</time>
      </trkpt>
      <trkpt lat="45.75966" lon="6.5463">
        <ele>1745.3</ele>
        <time>2025-08-15T09:24:25Z</time>
      </trkpt>
      <trkpt lat="45.75966" lon="6.5463">
        <ele>1745.3</ele>
        <time>2025-08-15T09:24:26Z</time>
      </trkpt>
      <trkpt lat="45.75966" lon="6.54631">
        <ele>1745.3</ele>
        <time>2025-08-15T09:24:27Z</time>
      </trkpt>
      <trkpt lat="45.75966" lon="6.54631">
        <ele>1745.3</ele>
        <time>2025-08-15T09:24:28Z</time>
      </trkpt>
      <trkpt lat="45.75965" lon="6.5464">
        <ele>1745.5</ele>
        <time>2025-08-15T09:25:12Z</time>
      </trkpt>
      <trkpt lat="45.75964" lon="6.54639">
        <ele>1745.5</ele>
        <time>2025-08-15T09:25:13Z</time>
      </trkpt>
      <trkpt lat="45.75962" lon="6.54639">
        <ele>1745.6</ele>
        <time>2025-08-15T09:25:14Z</time>
      </trkpt>
      <trkpt lat="45.75961" lon="6.5464">
        <ele>1745.6</ele>
        <time>2025-08-15T09:25:15Z</time>
      </trkpt>
      <trkpt lat="45.75961" lon="6.54642">
        <ele>1745.7</ele>
        <time>2025-08-15T09:25:16Z</time>
      </trkpt>
      <trkpt lat="45.75961" lon="6.54643">
        <ele>1745.7</ele>
        <time>2025-08-15T09:25:17Z</time>
      </trkpt>
      <trkpt lat="45.75961" lon="6.54644">
        <ele>1745.7</ele>
        <time>2025-08-15T09:25:18Z</time>
      </trkpt>
      <trkpt lat="45.7596" lon="6.54645">
        <ele>1745.7</ele>
        <time>2025-08-15T09:25:19Z</time>
      </trkpt>
      <trkpt lat="45.7596" lon="6.54646">
        <ele>1745.7</ele>
        <time>2025-08-15T09:25:20Z</time>
      </trkpt>
      <trkpt lat="45.75959" lon="6.54647">
        <ele>1745.8</ele>
        <time>2025-08-15T09:25:21Z</time>
      </trkpt>
      <trkpt lat="45.75959" lon="6.54648">
        <ele>1745.8</ele>
        <time>2025-08-15T09:25:22Z</time>
      </trkpt>
      <trkpt lat="45.75959" lon="6.54649">
        <ele>1745.8</ele>
        <time>2025-08-15T09:25:23Z</time>
      </trkpt>
      <trkpt lat="45.75959" lon="6.5465">
        <ele>1745.8</ele>
        <time>2025-08-15T09:25:24Z</time>
      </trkpt>
      <trkpt lat="45.75958" lon="6.54651">
        <ele>1745.9</ele>
        <time>2025-08-15T09:25:25Z</time>
      </trkpt>
      <trkpt lat="45.75958" lon="6.54652">
        <ele>1745.9</ele>
        <time>2025-08-15T09:25:26Z</time>
      </trkpt>
      <trkpt lat="45.75957" lon="6.54653">
        <ele>1745.9</ele>
        <time>2025-08-15T09:25:27Z</time>
      </trkpt>
      <trkpt lat="45.75956" lon="6.54654">
        <ele>1745.9</ele>
        <time>2025-08-15T09:25:28Z</time>
      </trkpt>
      <trkpt lat="45.75956" lon="6.54654">
        <ele>1746</ele>
        <time>2025-08-15T09:25:29Z</time>
      </trkpt>
      <trkpt lat="45.75956" lon="6.54655">
        <ele>1746</ele>
        <time>2025-08-15T09:25:30Z</time>
      </trkpt>
      <trkpt lat="45.75956" lon="6.54656">
        <ele>1746</ele>
        <time>2025-08-15T09:25:31Z</time>
      </trkpt>
      <trkpt lat="45.75957" lon="6.54657">
        <ele>1746</ele>
        <time>2025-08-15T09:25:32Z</time>
      </trkpt>
      <trkpt lat="45.75959" lon="6.54656">
        <ele>1746.1</ele>
        <time>2025-08-15T09:25:33Z</time>
      </trkpt>
      <trkpt lat="45.7596" lon="6.54655">
        <ele>1746.1</ele>
        <time>2025-08-15T09:25:34Z</time>
      </trkpt>
      <trkpt lat="45.75961" lon="6.54652">
        <ele>1746.2</ele>
        <time>2025-08-15T09:25:35Z</time>
      </trkpt>
      <trkpt lat="45.75961" lon="6.54649">
        <ele>1746.2</ele>
        <time>2025-08-15T09:25:36Z</time>
      </trkpt>
      <trkpt lat="45.75962" lon="6.54647">
        <ele>1746.3</ele>
        <time>2025-08-15T09:25:37Z</time>
      </trkpt>
      <trkpt lat="45.75964" lon="6.54644">
        <ele>1746.4</ele>
        <time>2025-08-15T09:25:38Z</time>
      </trkpt>
      <trkpt lat="45.75965" lon="6.54643">
        <ele>1746.4</ele>
        <time>2025-08-15T09:25:39Z</time>
      </trkpt>
      <trkpt lat="45.75966" lon="6.54638">
        <ele>1746.5</ele>
        <time>2025-08-15T09:25:40Z</time>
      </trkpt>
      <trkpt lat="45.75965" lon="6.54636">
        <ele>1746.5</ele>
        <time>2025-08-15T09:25:41Z</time>
      </trkpt>
      <trkpt lat="45.75964" lon="6.54635">
        <ele>1746.6</ele>
        <time>2025-08-15T09:25:42Z</time>
      </trkpt>
      <trkpt lat="45.75962" lon="6.54635">
        <ele>1746.6</ele>
        <time>2025-08-15T09:25:43Z</time>
      </trkpt>
      <trkpt lat="45.75961" lon="6.54637">
        <ele>1746.7</ele>
        <time>2025-08-15T09:25:44Z</time>
      </trkpt>
      <trkpt lat="45.75961" lon="6.54639">
        <ele>1746.7</ele>
        <time>2025-08-15T09:25:45Z</time>
      </trkpt>
      <trkpt lat="45.75962" lon="6.54641">
        <ele>1746.7</ele>
        <time>2025-08-15T09:25:46Z</time>
      </trkpt>
      <trkpt lat="45.75963" lon="6.54642">
        <ele>1746.8</ele>
        <time>2025-08-15T09:25:47Z</time>
      </trkpt>
      <trkpt lat="45.75963" lon="6.54643">
        <ele>1746.8</ele>
        <time>2025-08-15T09:25:48Z</time>
      </trkpt>
      <trkpt lat="45.75963" lon="6.54644">
        <ele>1746.8</ele>
        <time>2025-08-15T09:25:49Z</time>
      </trkpt>
      <trkpt lat="45.75962" lon="6.54645">
        <ele>1746.8</ele>
        <time>2025-08-15T09:25:50Z</time>
      </trkpt>
      <trkpt lat="45.75962" lon="6.54647">
        <ele>1746.9</ele>
        <time>2025-08-15T09:25:51Z</time>
      </trkpt>
      <trkpt lat="45.75961" lon="6.54648">
        <ele>1746.9</ele>
        <time>2025-08-15T09:25:52Z</time>
      </trkpt>
      <trkpt lat="45.7596" lon="6.54648">
        <ele>1746.9</ele>
        <time>2025-08-15T09:25:53Z</time>
      </trkpt>
      <trkpt lat="45.7596" lon="6.54649">
        <ele>1746.9</ele>
        <time>2025-08-15T09:25:54Z</time>
      </trkpt>
      <trkpt lat="45.7596" lon="6.5465">
        <ele>1746.9</ele>
        <time>2025-08-15T09:25:55Z</time>
      </trkpt>
      <trkpt lat="45.7596" lon="6.54651">
        <ele>1747</ele>
        <time>2025-08-15T09:25:56Z</time>
      </trkpt>
      <trkpt lat="45.75959" lon="6.54652">
        <ele>1747</ele>
        <time>2025-08-15T09:25:57Z</time>
      </trkpt>
      <trkpt lat="45.75959" lon="6.54653">
        <ele>1747</ele>
        <time>2025-08-15T09:25:58Z</time>
      </trkpt>
      <trkpt lat="45.75958" lon="6.54654">
        <ele>1747</ele>
        <time>2025-08-15T09:25:59Z</time>
      </trkpt>
      <trkpt lat="45.75958" lon="6.54654">
        <ele>1747</ele>
        <time>2025-08-15T09:26:00Z</time>
      </trkpt>
      <trkpt lat="45.75958" lon="6.54655">
        <ele>1747</ele>
        <time>2025-08-15T09:26:01Z</time>
      </trkpt>
      <trkpt lat="45.75958" lon="6.54656">
        <ele>1747.1</ele>
        <time>2025-08-15T09:26:02Z</time>
      </trkpt>
      <trkpt lat="45.75957" lon="6.54657">
        <ele>1747.1</ele>
        <time>2025-08-15T09:26:03Z</time>
      </trkpt>
      <trkpt lat="45.75957" lon="6.54658">
        <ele>1747.1</ele>
        <time>2025-08-15T09:26:04Z</time>
      </trkpt>
      <trkpt lat="45.75957" lon="6.54659">
        <ele>1747.1</ele>
        <time>2025-08-15T09:26:05Z</time>
      </trkpt>
      <trkpt lat="45.75955" lon="6.54661">
        <ele>1747.2</ele>
        <time>2025-08-15T09:26:06Z</time>
      </trkpt>
      <trkpt lat="45.75954" lon="6.54661">
        <ele>1747.2</ele>
        <time>2025-08-15T09:26:07Z</time>
      </trkpt>
      <trkpt lat="45.75953" lon="6.54662">
        <ele>1747.2</ele>
        <time>2025-08-15T09:26:08Z</time>
      </trkpt>
      <trkpt lat="45.75952" lon="6.54664">
        <ele>1747.3</ele>
        <time>2025-08-15T09:26:09Z</time>
      </trkpt>
      <trkpt lat="45.75951" lon="6.54665">
        <ele>1747.4</ele>
        <time>2025-08-15T09:26:10Z</time>
      </trkpt>
      <trkpt lat="45.75951" lon="6.54667">
        <ele>1747.5</ele>
        <time>2025-08-15T09:26:11Z</time>
      </trkpt>
      <trkpt lat="45.75951" lon="6.54669">
        <ele>1747.7</ele>
        <time>2025-08-15T09:26:12Z</time>
      </trkpt>
      <trkpt lat="45.75951" lon="6.54671">
        <ele>1747.9</ele>
        <time>2025-08-15T09:26:13Z</time>
      </trkpt>
      <trkpt lat="45.75952" lon="6.54673">
        <ele>1748.1</ele>
        <time>2025-08-15T09:26:14Z</time>
      </trkpt>
      <trkpt lat="45.75953" lon="6.54678">
        <ele>1748.7</ele>
        <time>2025-08-15T09:26:15Z</time>
      </trkpt>
      <trkpt lat="45.75954" lon="6.54679">
        <ele>1748.9</ele>
        <time>2025-08-15T09:26:16Z</time>
      </trkpt>
      <trkpt lat="45.75955" lon="6.54683">
        <ele>1749.4</ele>
        <time>2025-08-15T09:26:17Z</time>
      </trkpt>
      <trkpt lat="45.75955" lon="6.54684">
        <ele>1749.6</ele>
        <time>2025-08-15T09:26:18Z</time>
      </trkpt>
      <trkpt lat="45.75955" lon="6.54687">
        <ele>1749.9</ele>
        <time>2025-08-15T09:26:19Z</time>
      </trkpt>
      <trkpt lat="45.75956" lon="6.5469">
        <ele>1750.2</ele>
        <time>2025-08-15T09:26:20Z</time>
      </trkpt>
      <trkpt lat="45.75956" lon="6.54692">
        <ele>1750.5</ele>
        <time>2025-08-15T09:26:21Z</time>
      </trkpt>
      <trkpt lat="45.75955" lon="6.54694">
        <ele>1750.9</ele>
        <time>2025-08-15T09:26:22Z</time>
      </trkpt>
      <trkpt lat="45.75954" lon="6.54698">
        <ele>1751.5</ele>
        <time>2025-08-15T09:26:23Z</time>
      </trkpt>
      <trkpt lat="45.75954" lon="6.54699">
        <ele>1751.7</ele>
        <time>2025-08-15T09:26:24Z</time>
      </trkpt>
      <trkpt lat="45.75954" lon="6.54702">
        <ele>1752.1</ele>
        <time>2025-08-15T09:26:25Z</time>
      </trkpt>
      <trkpt lat="45.75954" lon="6.54704">
        <ele>1752.3</ele>
        <time>2025-08-15T09:26:26Z</time>
      </trkpt>
      <trkpt lat="45.75954" lon="6.54705">
        <ele>1752.5</ele>
        <time>2025-08-15T09:26:27Z</time>
      </trkpt>
      <trkpt lat="45.75955" lon="6.54709">
        <ele>1753.2</ele>
        <time>2025-08-15T09:26:28Z</time>
      </trkpt>
      <trkpt lat="45.75955" lon="6.5471">
        <ele>1753.4</ele>
        <time>2025-08-15T09:26:29Z</time>
      </trkpt>
      <trkpt lat="45.75956" lon="6.54712">
        <ele>1753.7</ele>
        <time>2025-08-15T09:26:30Z</time>
      </trkpt>
      <trkpt lat="45.75957" lon="6.54715">
        <ele>1754</ele>
        <time>2025-08-15T09:26:31Z</time>
      </trkpt>
      <trkpt lat="45.75957" lon="6.54717">
        <ele>1754.3</ele>
        <time>2025-08-15T09:26:32Z</time>
      </trkpt>
      <trkpt lat="45.75957" lon="6.54719">
        <ele>1754.6</ele>
        <time>2025-08-15T09:26:33Z</time>
      </trkpt>
      <trkpt lat="45.75958" lon="6.54722">
        <ele>1754.9</ele>
        <time>2025-08-15T09:26:34Z</time>
      </trkpt>
      <trkpt lat="45.75958" lon="6.54724">
        <ele>1755.2</ele>
        <time>2025-08-15T09:26:35Z</time>
      </trkpt>
      <trkpt lat="45.75958" lon="6.54726">
        <ele>1755.4</ele>
        <time>2025-08-15T09:26:36Z</time>
      </trkpt>
      <trkpt lat="45.75958" lon="6.54728">
        <ele>1755.7</ele>
        <time>2025-08-15T09:26:37Z</time>
      </trkpt>
      <trkpt lat="45.75959" lon="6.54732">
        <ele>1756.1</ele>
        <time>2025-08-15T09:26:38Z</time>
      </trkpt>
      <trkpt lat="45.7596" lon="6.54734">
        <ele>1756.3</ele>
        <time>2025-08-15T09:26:39Z</time>
      </trkpt>
      <trkpt lat="45.75961" lon="6.54736">
        <ele>1756.5</ele>
        <time>2025-08-15T09:26:40Z</time>
      </trkpt>
      <trkpt lat="45.75961" lon="6.54738">
        <ele>1756.7</ele>
        <time>2025-08-15T09:26:41Z</time>
      </trkpt>
      <trkpt lat="45.75962" lon="6.5474">
        <ele>1756.9</ele>
        <time>2025-08-15T09:26:42Z</time>
      </trkpt>
      <trkpt lat="45.75963" lon="6.54741">
        <ele>1757.1</ele>
        <time>2025-08-15T09:26:43Z</time>
      </trkpt>
      <trkpt lat="45.75964" lon="6.54743">
        <ele>1757.3</ele>
        <time>2025-08-15T09:26:44Z</time>
      </trkpt>
      <trkpt lat="45.75964" lon="6.54745">
        <ele>1757.4</ele>
        <time>2025-08-15T09:26:45Z</time>
      </trkpt>
      <trkpt lat="45.75965" lon="6.54747">
        <ele>1757.6</ele>
        <time>2025-08-15T09:26:46Z</time>
      </trkpt>
      <trkpt lat="45.75965" lon="6.54748">
        <ele>1757.7</ele>
        <time>2025-08-15T09:26:47Z</time>
      </trkpt>
      <trkpt lat="45.75966" lon="6.54749">
        <ele>1757.8</ele>
        <time>2025-08-15T09:26:48Z</time>
      </trkpt>
      <trkpt lat="45.75967" lon="6.5475">
        <ele>1757.9</ele>
        <time>2025-08-15T09:26:49Z</time>
      </trkpt>
      <trkpt lat="45.75968" lon="6.54751">
        <ele>1758.1</ele>
        <time>2025-08-15T09:26:50Z</time>
      </trkpt>
      <trkpt lat="45.75969" lon="6.54753">
        <ele>1758.2</ele>
        <time>2025-08-15T09:26:51Z</time>
      </trkpt>
      <trkpt lat="45.75969" lon="6.54753">
        <ele>1758.2</ele>
        <time>2025-08-15T09:26:52Z</time>
      </trkpt>
      <trkpt lat="45.75969" lon="6.54754">
        <ele>1758.3</ele>
        <time>2025-08-15T09:26:53Z</time>
      </trkpt>
      <trkpt lat="45.75969" lon="6.54754">
        <ele>1758.3</ele>
        <time>2025-08-15T09:26:54Z</time>
      </trkpt>
      <trkpt lat="45.75969" lon="6.54754">
        <ele>1758.3</ele>
        <time>2025-08-15T09:26:55Z</time>
      </trkpt>
      <trkpt lat="45.75969" lon="6.54755">
        <ele>1758.4</ele>
        <time>2025-08-15T09:26:56Z</time>
      </trkpt>
      <trkpt lat="45.75969" lon="6.54755">
        <ele>1758.4</ele>
        <time>2025-08-15T09:26:57Z</time>
      </trkpt>
      <trkpt lat="45.75969" lon="6.54756">
        <ele>1758.4</ele>
        <time>2025-08-15T09:26:58Z</time>
      </trkpt>
      <trkpt lat="45.75969" lon="6.54756">
        <ele>1758.5</ele>
        <time>2025-08-15T09:26:59Z</time>
      </trkpt>
      <trkpt lat="45.75969" lon="6.54757">
        <ele>1758.5</ele>
        <time>2025-08-15T09:27:00Z</time>
      </trkpt>
      <trkpt lat="45.7597" lon="6.54759">
        <ele>1758.7</ele>
        <time>2025-08-15T09:27:01Z</time>
      </trkpt>
      <trkpt lat="45.7597" lon="6.54761">
        <ele>1758.8</ele>
        <time>2025-08-15T09:27:02Z</time>
      </trkpt>
      <trkpt lat="45.75971" lon="6.54763">
        <ele>1759</ele>
        <time>2025-08-15T09:27:03Z</time>
      </trkpt>
      <trkpt lat="45.75972" lon="6.54765">
        <ele>1759.2</ele>
        <time>2025-08-15T09:27:04Z</time>
      </trkpt>
      <trkpt lat="45.75973" lon="6.54768">
        <ele>1759.4</ele>
        <time>2025-08-15T09:27:05Z</time>
      </trkpt>
      <trkpt lat="45.75973" lon="6.5477">
        <ele>1759.6</ele>
        <time>2025-08-15T09:27:06Z</time>
      </trkpt>
      <trkpt lat="45.75974" lon="6.54772">
        <ele>1759.8</ele>
        <time>2025-08-15T09:27:07Z</time>
      </trkpt>
      <trkpt lat="45.75975" lon="6.54774">
        <ele>1759.9</ele>
        <time>2025-08-15T09:27:08Z</time>
      </trkpt>
      <trkpt lat="45.75975" lon="6.54776">
        <ele>1760.1</ele>
        <time>2025-08-15T09:27:09Z</time>
      </trkpt>
      <trkpt lat="45.75976" lon="6.54777">
        <ele>1760.2</ele>
        <time>2025-08-15T09:27:10Z</time>
      </trkpt>
      <trkpt lat="45.75977" lon="6.54778">
        <ele>1760.3</ele>
        <time>2025-08-15T09:27:11Z</time>
      </trkpt>
      <trkpt lat="45.75977" lon="6.5478">
        <ele>1760.4</ele>
        <time>2025-08-15T09:27:12Z</time>
      </trkpt>
      <trkpt lat="45.75978" lon="6.54781">
        <ele>1760.6</ele>
        <time>2025-08-15T09:27:13Z</time>
      </trkpt>
      <trkpt lat="45.75978" lon="6.54782">
        <ele>1760.7</ele>
        <time>2025-08-15T09:27:14Z</time>
      </trkpt>
      <trkpt lat="45.75979" lon="6.54784">
        <ele>1760.8</ele>
        <time>2025-08-15T09:27:15Z</time>
      </trkpt>
      <trkpt lat="45.75979" lon="6.54785">
        <ele>1760.9</ele>
        <time>2025-08-15T09:27:16Z</time>
      </trkpt>
      <trkpt lat="45.75979" lon="6.54785">
        <ele>1760.9</ele>
        <time>2025-08-15T09:27:17Z</time>
      </trkpt>
      <trkpt lat="45.75979" lon="6.54785">
        <ele>1761</ele>
        <time>2025-08-15T09:27:18Z</time>
      </trkpt>
      <trkpt lat="45.75979" lon="6.54785">
        <ele>1761</ele>
        <time>2025-08-15T09:27:19Z</time>
      </trkpt>
      <trkpt lat="45.75979" lon="6.54785">
        <ele>1761</ele>
        <time>2025-08-15T09:27:20Z</time>
      </trkpt>
      <trkpt lat="45.75979" lon="6.54785">
        <ele>1761</ele>
        <time>2025-08-15T09:27:21Z</time>
      </trkpt>
      <trkpt lat="45.75979" lon="6.54787">
        <ele>1761.1</ele>
        <time>2025-08-15T09:27:22Z</time>
      </trkpt>
      <trkpt lat="45.7598" lon="6.54789">
        <ele>1761.3</ele>
        <time>2025-08-15T09:27:23Z</time>
      </trkpt>
      <trkpt lat="45.7598" lon="6.54791">
        <ele>1761.5</ele>
        <time>2025-08-15T09:27:24Z</time>
      </trkpt>
      <trkpt lat="45.75981" lon="6.54793">
        <ele>1761.7</ele>
        <time>2025-08-15T09:27:25Z</time>
      </trkpt>
      <trkpt lat="45.75982" lon="6.54795">
        <ele>1761.9</ele>
        <time>2025-08-15T09:27:26Z</time>
      </trkpt>
      <trkpt lat="45.75983" lon="6.54797">
        <ele>1762.1</ele>
        <time>2025-08-15T09:27:27Z</time>
      </trkpt>
      <trkpt lat="45.75983" lon="6.54799">
        <ele>1762.2</ele>
        <time>2025-08-15T09:27:28Z</time>
      </trkpt>
      <trkpt lat="45.75984" lon="6.54801">
        <ele>1762.4</ele>
        <time>2025-08-15T09:27:29Z</time>
      </trkpt>
      <trkpt lat="45.75984" lon="6.54803">
        <ele>1762.5</ele>
        <time>2025-08-15T09:27:30Z</time>
      </trkpt>
      <trkpt lat="45.75985" lon="6.54806">
        <ele>1762.8</ele>
        <time>2025-08-15T09:27:31Z</time>
      </trkpt>
      <trkpt lat="45.75986" lon="6.54808">
        <ele>1763</ele>
        <time>2025-08-15T09:27:32Z</time>
      </trkpt>
      <trkpt lat="45.75987" lon="6.54811">
        <ele>1763.3</ele>
        <time>2025-08-15T09:27:33Z</time>
      </trkpt>
      <trkpt lat="45.75988" lon="6.54812">
        <ele>1763.3</ele>
        <time>2025-08-15T09:27:34Z</time>
      </trkpt>
      <trkpt lat="45.75989" lon="6.54817">
        <ele>1763.6</ele>
        <time>2025-08-15T09:27:35Z</time>
      </trkpt>
      <trkpt lat="45.75989" lon="6.54818">
        <ele>1763.7</ele>
        <time>2025-08-15T09:27:36Z</time>
      </trkpt>
      <trkpt lat="45.7599" lon="6.5482">
        <ele>1763.9</ele>
        <time>2025-08-15T09:27:37Z</time>
      </trkpt>
      <trkpt lat="45.75991" lon="6.54822">
        <ele>1764</ele>
        <time>2025-08-15T09:27:38Z</time>
      </trkpt>
      <trkpt lat="45.75992" lon="6.54827">
        <ele>1764.3</ele>
        <time>2025-08-15T09:27:39Z</time>
      </trkpt>
      <trkpt lat="45.75993" lon="6.54828">
        <ele>1764.4</ele>
        <time>2025-08-15T09:27:40Z</time>
      </trkpt>
      <trkpt lat="45.75994" lon="6.54832">
        <ele>1764.6</ele>
        <time>2025-08-15T09:27:41Z</time>
      </trkpt>
      <trkpt lat="45.75994" lon="6.54834">
        <ele>1764.7</ele>
        <time>2025-08-15T09:27:42Z</time>
      </trkpt>
      <trkpt lat="45.75996" lon="6.54839">
        <ele>1765</ele>
        <time>2025-08-15T09:27:43Z</time>
      </trkpt>
      <trkpt lat="45.75996" lon="6.5484">
        <ele>1765</ele>
        <time>2025-08-15T09:27:44Z</time>
      </trkpt>
      <trkpt lat="45.75997" lon="6.54845">
        <ele>1765.3</ele>
        <time>2025-08-15T09:27:45Z</time>
      </trkpt>
      <trkpt lat="45.75998" lon="6.54846">
        <ele>1765.3</ele>
        <time>2025-08-15T09:27:46Z</time>
      </trkpt>
      <trkpt lat="45.75999" lon="6.54848">
        <ele>1765.5</ele>
        <time>2025-08-15T09:27:47Z</time>
      </trkpt>
      <trkpt lat="45.76" lon="6.5485">
        <ele>1765.6</ele>
        <time>2025-08-15T09:27:48Z</time>
      </trkpt>
      <trkpt lat="45.76001" lon="6.54854">
        <ele>1765.8</ele>
        <time>2025-08-15T09:27:49Z</time>
      </trkpt>
      <trkpt lat="45.76002" lon="6.54856">
        <ele>1765.9</ele>
        <time>2025-08-15T09:27:50Z</time>
      </trkpt>
      <trkpt lat="45.76003" lon="6.54859">
        <ele>1766</ele>
        <time>2025-08-15T09:27:51Z</time>
      </trkpt>
      <trkpt lat="45.76003" lon="6.54861">
        <ele>1766.1</ele>
        <time>2025-08-15T09:27:52Z</time>
      </trkpt>
      <trkpt lat="45.76004" lon="6.54865">
        <ele>1766.3</ele>
        <time>2025-08-15T09:27:53Z</time>
      </trkpt>
      <trkpt lat="45.76005" lon="6.5487">
        <ele>1766.5</ele>
        <time>2025-08-15T09:27:54Z</time>
      </trkpt>
      <trkpt lat="45.76006" lon="6.54875">
        <ele>1766.8</ele>
        <time>2025-08-15T09:27:55Z</time>
      </trkpt>
      <trkpt lat="45.76006" lon="6.54877">
        <ele>1766.8</ele>
        <time>2025-08-15T09:27:56Z</time>
      </trkpt>
      <trkpt lat="45.76008" lon="6.54881">
        <ele>1767.1</ele>
        <time>2025-08-15T09:27:57Z</time>
      </trkpt>
      <trkpt lat="45.76008" lon="6.54883">
        <ele>1767.2</ele>
        <time>2025-08-15T09:27:58Z</time>
      </trkpt>
      <trkpt lat="45.76009" lon="6.54888">
        <ele>1767.4</ele>
        <time>2025-08-15T09:27:59Z</time>
      </trkpt>
      <trkpt lat="45.7601" lon="6.54889">
        <ele>1767.5</ele>
        <time>2025-08-15T09:28:00Z</time>
      </trkpt>
      <trkpt lat="45.7601" lon="6.54894">
        <ele>1767.8</ele>
        <time>2025-08-15T09:28:01Z</time>
      </trkpt>
      <trkpt lat="45.76011" lon="6.54896">
        <ele>1767.9</ele>
        <time>2025-08-15T09:28:02Z</time>
      </trkpt>
      <trkpt lat="45.76011" lon="6.54901">
        <ele>1768.2</ele>
        <time>2025-08-15T09:28:03Z</time>
      </trkpt>
      <trkpt lat="45.76011" lon="6.54903">
        <ele>1768.3</ele>
        <time>2025-08-15T09:28:04Z</time>
      </trkpt>
      <trkpt lat="45.76012" lon="6.54908">
        <ele>1768.6</ele>
        <time>2025-08-15T09:28:05Z</time>
      </trkpt>
      <trkpt lat="45.76012" lon="6.5491">
        <ele>1768.7</ele>
        <time>2025-08-15T09:28:06Z</time>
      </trkpt>
      <trkpt lat="45.76012" lon="6.54915">
        <ele>1768.9</ele>
        <time>2025-08-15T09:28:07Z</time>
      </trkpt>
      <trkpt lat="45.76013" lon="6.54916">
        <ele>1769</ele>
        <time>2025-08-15T09:28:08Z</time>
      </trkpt>
      <trkpt lat="45.76013" lon="6.54921">
        <ele>1769.3</ele>
        <time>2025-08-15T09:28:09Z</time>
      </trkpt>
      <trkpt lat="45.76013" lon="6.54922">
        <ele>1769.4</ele>
        <time>2025-08-15T09:28:10Z</time>
      </trkpt>
      <trkpt lat="45.76013" lon="6.54927">
        <ele>1769.8</ele>
        <time>2025-08-15T09:28:11Z</time>
      </trkpt>
      <trkpt lat="45.76013" lon="6.54929">
        <ele>1769.9</ele>
        <time>2025-08-15T09:28:12Z</time>
      </trkpt>
      <trkpt lat="45.76014" lon="6.54935">
        <ele>1770.3</ele>
        <time>2025-08-15T09:28:13Z</time>
      </trkpt>
      <trkpt lat="45.76014" lon="6.54936">
        <ele>1770.4</ele>
        <time>2025-08-15T09:28:14Z</time>
      </trkpt>
      <trkpt lat="45.76014" lon="6.54942">
        <ele>1770.7</ele>
        <time>2025-08-15T09:28:15Z</time>
      </trkpt>
      <trkpt lat="45.76014" lon="6.54943">
        <ele>1770.8</ele>
        <time>2025-08-15T09:28:16Z</time>
      </trkpt>
      <trkpt lat="45.76014" lon="6.54949">
        <ele>1771.2</ele>
        <time>2025-08-15T09:28:17Z</time>
      </trkpt>
      <trkpt lat="45.76013" lon="6.5495">
        <ele>1771.3</ele>
        <time>2025-08-15T09:28:18Z</time>
      </trkpt>
      <trkpt lat="45.76014" lon="6.54955">
        <ele>1771.6</ele>
        <time>2025-08-15T09:28:19Z</time>
      </trkpt>
      <trkpt lat="45.76014" lon="6.54956">
        <ele>1771.7</ele>
        <time>2025-08-15T09:28:20Z</time>
      </trkpt>
      <trkpt lat="45.76014" lon="6.54958">
        <ele>1771.8</ele>
        <time>2025-08-15T09:28:21Z</time>
      </trkpt>
      <trkpt lat="45.76015" lon="6.54961">
        <ele>1772</ele>
        <time>2025-08-15T09:28:22Z</time>
      </trkpt>
      <trkpt lat="45.76016" lon="6.54965">
        <ele>1772.2</ele>
        <time>2025-08-15T09:28:23Z</time>
      </trkpt>
      <trkpt lat="45.76016" lon="6.54966">
        <ele>1772.3</ele>
        <time>2025-08-15T09:28:24Z</time>
      </trkpt>
      <trkpt lat="45.76016" lon="6.5497">
        <ele>1772.5</ele>
        <time>2025-08-15T09:28:25Z</time>
      </trkpt>
      <trkpt lat="45.76017" lon="6.54971">
        <ele>1772.6</ele>
        <time>2025-08-15T09:28:26Z</time>
      </trkpt>
      <trkpt lat="45.76017" lon="6.54975">
        <ele>1772.7</ele>
        <time>2025-08-15T09:28:27Z</time>
      </trkpt>
      <trkpt lat="45.76017" lon="6.54976">
        <ele>1772.8</ele>
        <time>2025-08-15T09:28:28Z</time>
      </trkpt>
      <trkpt lat="45.76018" lon="6.54977">
        <ele>1772.9</ele>
        <time>2025-08-15T09:28:29Z</time>
      </trkpt>
      <trkpt lat="45.76019" lon="6.54978">
        <ele>1773</ele>
        <time>2025-08-15T09:28:30Z</time>
      </trkpt>
      <trkpt lat="45.7602" lon="6.5498">
        <ele>1773.1</ele>
        <time>2025-08-15T09:28:31Z</time>
      </trkpt>
      <trkpt lat="45.7602" lon="6.54981">
        <ele>1773.1</ele>
        <time>2025-08-15T09:28:32Z</time>
      </trkpt>
      <trkpt lat="45.7602" lon="6.54982">
        <ele>1773.2</ele>
        <time>2025-08-15T09:28:33Z</time>
      </trkpt>
      <trkpt lat="45.7602" lon="6.54984">
        <ele>1773.3</ele>
        <time>2025-08-15T09:28:34Z</time>
      </trkpt>
      <trkpt lat="45.76021" lon="6.54987">
        <ele>1773.4</ele>
        <time>2025-08-15T09:28:35Z</time>
      </trkpt>
      <trkpt lat="45.76021" lon="6.54988">
        <ele>1773.5</ele>
        <time>2025-08-15T09:28:36Z</time>
      </trkpt>
      <trkpt lat="45.76021" lon="6.54989">
        <ele>1773.6</ele>
        <time>2025-08-15T09:28:37Z</time>
      </trkpt>
      <trkpt lat="45.76021" lon="6.5499">
        <ele>1773.6</ele>
        <time>2025-08-15T09:28:38Z</time>
      </trkpt>
      <trkpt lat="45.76021" lon="6.54991">
        <ele>1773.6</ele>
        <time>2025-08-15T09:28:39Z</time>
      </trkpt>
      <trkpt lat="45.76022" lon="6.54992">
        <ele>1773.7</ele>
        <time>2025-08-15T09:28:40Z</time>
      </trkpt>
      <trkpt lat="45.76022" lon="6.54994">
        <ele>1773.8</ele>
        <time>2025-08-15T09:28:41Z</time>
      </trkpt>
      <trkpt lat="45.76023" lon="6.54999">
        <ele>1774</ele>
        <time>2025-08-15T09:28:42Z</time>
      </trkpt>
      <trkpt lat="45.76023" lon="6.55001">
        <ele>1774.1</ele>
        <time>2025-08-15T09:28:43Z</time>
      </trkpt>
      <trkpt lat="45.76024" lon="6.55006">
        <ele>1774.3</ele>
        <time>2025-08-15T09:28:44Z</time>
      </trkpt>
      <trkpt lat="45.76024" lon="6.55008">
        <ele>1774.4</ele>
        <time>2025-08-15T09:28:45Z</time>
      </trkpt>
      <trkpt lat="45.76025" lon="6.55012">
        <ele>1774.6</ele>
        <time>2025-08-15T09:28:46Z</time>
      </trkpt>
      <trkpt lat="45.76025" lon="6.55016">
        <ele>1774.8</ele>
        <time>2025-08-15T09:28:47Z</time>
      </trkpt>
      <trkpt lat="45.76026" lon="6.5502">
        <ele>1775</ele>
        <time>2025-08-15T09:28:48Z</time>
      </trkpt>
      <trkpt lat="45.76026" lon="6.55021">
        <ele>1775.1</ele>
        <time>2025-08-15T09:28:49Z</time>
      </trkpt>
      <trkpt lat="45.76027" lon="6.55024">
        <ele>1775.3</ele>
        <time>2025-08-15T09:28:50Z</time>
      </trkpt>
      <trkpt lat="45.76027" lon="6.55025">
        <ele>1775.3</ele>
        <time>2025-08-15T09:28:51Z</time>
      </trkpt>
      <trkpt lat="45.76028" lon="6.55026">
        <ele>1775.4</ele>
        <time>2025-08-15T09:28:52Z</time>
      </trkpt>
      <trkpt lat="45.76028" lon="6.55029">
        <ele>1775.6</ele>
        <time>2025-08-15T09:28:53Z</time>
      </trkpt>
      <trkpt lat="45.76028" lon="6.5503">
        <ele>1775.6</ele>
        <time>2025-08-15T09:28:54Z</time>
      </trkpt>
      <trkpt lat="45.76028" lon="6.55032">
        <ele>1775.7</ele>
        <time>2025-08-15T09:28:55Z</time>
      </trkpt>
      <trkpt lat="45.76028" lon="6.55036">
        <ele>1775.9</ele>
        <time>2025-08-15T09:28:56Z</time>
      </trkpt>
      <trkpt lat="45.76028" lon="6.55037">
        <ele>1775.9</ele>
        <time>2025-08-15T09:28:57Z</time>
      </trkpt>
      <trkpt lat="45.76029" lon="6.55041">
        <ele>1776.1</ele>
        <time>2025-08-15T09:28:58Z</time>
      </trkpt>
      <trkpt lat="45.76029" lon="6.55042">
        <ele>1776.1</ele>
        <time>2025-08-15T09:28:59Z</time>
      </trkpt>
      <trkpt lat="45.76031" lon="6.55046">
        <ele>1776.3</ele>
        <time>2025-08-15T09:29:00Z</time>
      </trkpt>
      <trkpt lat="45.76031" lon="6.55047">
        <ele>1776.3</ele>
        <time>2025-08-15T09:29:01Z</time>
      </trkpt>
      <trkpt lat="45.76031" lon="6.55049">
        <ele>1776.4</ele>
        <time>2025-08-15T09:29:02Z</time>
      </trkpt>
      <trkpt lat="45.76032" lon="6.55051">
        <ele>1776.5</ele>
        <time>2025-08-15T09:29:03Z</time>
      </trkpt>
      <trkpt lat="45.76035" lon="6.55054">
        <ele>1776.6</ele>
        <time>2025-08-15T09:29:04Z</time>
      </trkpt>
      <trkpt lat="45.76035" lon="6.55055">
        <ele>1776.7</ele>
        <time>2025-08-15T09:29:05Z</time>
      </trkpt>
      <trkpt lat="45.76037" lon="6.5506">
        <ele>1776.8</ele>
        <time>2025-08-15T09:29:06Z</time>
      </trkpt>
      <trkpt lat="45.76038" lon="6.55061">
        <ele>1776.9</ele>
        <time>2025-08-15T09:29:07Z</time>
      </trkpt>
      <trkpt lat="45.7604" lon="6.55065">
        <ele>1777.1</ele>
        <time>2025-08-15T09:29:08Z</time>
      </trkpt>
      <trkpt lat="45.76041" lon="6.55066">
        <ele>1777.1</ele>
        <time>2025-08-15T09:29:09Z</time>
      </trkpt>
      <trkpt lat="45.76042" lon="6.5507">
        <ele>1777.3</ele>
        <time>2025-08-15T09:29:10Z</time>
      </trkpt>
      <trkpt lat="45.76043" lon="6.55072">
        <ele>1777.4</ele>
        <time>2025-08-15T09:29:11Z</time>
      </trkpt>
      <trkpt lat="45.76045" lon="6.55075">
        <ele>1777.6</ele>
        <time>2025-08-15T09:29:12Z</time>
      </trkpt>
      <trkpt lat="45.76045" lon="6.55077">
        <ele>1777.7</ele>
        <time>2025-08-15T09:29:13Z</time>
      </trkpt>
      <trkpt lat="45.76047" lon="6.55081">
        <ele>1778</ele>
        <time>2025-08-15T09:29:14Z</time>
      </trkpt>
      <trkpt lat="45.76048" lon="6.55082">
        <ele>1778.1</ele>
        <time>2025-08-15T09:29:15Z</time>
      </trkpt>
      <trkpt lat="45.7605" lon="6.55087">
        <ele>1778.5</ele>
        <time>2025-08-15T09:29:16Z</time>
      </trkpt>
      <trkpt lat="45.76051" lon="6.55088">
        <ele>1778.6</ele>
        <time>2025-08-15T09:29:17Z</time>
      </trkpt>
      <trkpt lat="45.76053" lon="6.55093">
        <ele>1779</ele>
        <time>2025-08-15T09:29:18Z</time>
      </trkpt>
      <trkpt lat="45.76053" lon="6.55094">
        <ele>1779.1</ele>
        <time>2025-08-15T09:29:19Z</time>
      </trkpt>
      <trkpt lat="45.76055" lon="6.55098">
        <ele>1779.4</ele>
        <time>2025-08-15T09:29:20Z</time>
      </trkpt>
      <trkpt lat="45.76055" lon="6.55099">
        <ele>1779.5</ele>
        <time>2025-08-15T09:29:21Z</time>
      </trkpt>
      <trkpt lat="45.76057" lon="6.55103">
        <ele>1779.7</ele>
        <time>2025-08-15T09:29:22Z</time>
      </trkpt>
      <trkpt lat="45.76057" lon="6.55104">
        <ele>1779.9</ele>
        <time>2025-08-15T09:29:23Z</time>
      </trkpt>
      <trkpt lat="45.76059" lon="6.55108">
        <ele>1780.2</ele>
        <time>2025-08-15T09:29:24Z</time>
      </trkpt>
      <trkpt lat="45.76059" lon="6.5511">
        <ele>1780.3</ele>
        <time>2025-08-15T09:29:25Z</time>
      </trkpt>
      <trkpt lat="45.76061" lon="6.55114">
        <ele>1780.6</ele>
        <time>2025-08-15T09:29:26Z</time>
      </trkpt>
      <trkpt lat="45.76062" lon="6.55116">
        <ele>1780.7</ele>
        <time>2025-08-15T09:29:27Z</time>
      </trkpt>
      <trkpt lat="45.76063" lon="6.5512">
        <ele>1781</ele>
        <time>2025-08-15T09:29:28Z</time>
      </trkpt>
      <trkpt lat="45.76064" lon="6.55122">
        <ele>1781.1</ele>
        <time>2025-08-15T09:29:29Z</time>
      </trkpt>
      <trkpt lat="45.76064" lon="6.55124">
        <ele>1781.3</ele>
        <time>2025-08-15T09:29:30Z</time>
      </trkpt>
      <trkpt lat="45.76065" lon="6.55126">
        <ele>1781.4</ele>
        <time>2025-08-15T09:29:31Z</time>
      </trkpt>
      <trkpt lat="45.76065" lon="6.55131">
        <ele>1781.7</ele>
        <time>2025-08-15T09:29:32Z</time>
      </trkpt>
      <trkpt lat="45.76065" lon="6.55132">
        <ele>1781.8</ele>
        <time>2025-08-15T09:29:33Z</time>
      </trkpt>
      <trkpt lat="45.76065" lon="6.55137">
        <ele>1782.1</ele>
        <time>2025-08-15T09:29:34Z</time>
      </trkpt>
      <trkpt lat="45.76065" lon="6.55138">
        <ele>1782.2</ele>
        <time>2025-08-15T09:29:35Z</time>
      </trkpt>
      <trkpt lat="45.76064" lon="6.55142">
        <ele>1782.4</ele>
        <time>2025-08-15T09:29:36Z</time>
      </trkpt>
      <trkpt lat="45.76064" lon="6.55143">
        <ele>1782.5</ele>
        <time>2025-08-15T09:29:37Z</time>
      </trkpt>
      <trkpt lat="45.76064" lon="6.55148">
        <ele>1782.7</ele>
        <time>2025-08-15T09:29:38Z</time>
      </trkpt>
      <trkpt lat="45.76064" lon="6.55149">
        <ele>1782.8</ele>
        <time>2025-08-15T09:29:39Z</time>
      </trkpt>
      <trkpt lat="45.76064" lon="6.55153">
        <ele>1783</ele>
        <time>2025-08-15T09:29:40Z</time>
      </trkpt>
      <trkpt lat="45.76064" lon="6.55155">
        <ele>1783.1</ele>
        <time>2025-08-15T09:29:41Z</time>
      </trkpt>
      <trkpt lat="45.76064" lon="6.55159">
        <ele>1783.3</ele>
        <time>2025-08-15T09:29:42Z</time>
      </trkpt>
      <trkpt lat="45.76065" lon="6.5516">
        <ele>1783.3</ele>
        <time>2025-08-15T09:29:43Z</time>
      </trkpt>
      <trkpt lat="45.76065" lon="6.55164">
        <ele>1783.5</ele>
        <time>2025-08-15T09:29:44Z</time>
      </trkpt>
      <trkpt lat="45.76065" lon="6.55166">
        <ele>1783.6</ele>
        <time>2025-08-15T09:29:45Z</time>
      </trkpt>
      <trkpt lat="45.76066" lon="6.55171">
        <ele>1783.7</ele>
        <time>2025-08-15T09:29:46Z</time>
      </trkpt>
      <trkpt lat="45.76066" lon="6.55172">
        <ele>1783.8</ele>
        <time>2025-08-15T09:29:47Z</time>
      </trkpt>
      <trkpt lat="45.76065" lon="6.55177">
        <ele>1784</ele>
        <time>2025-08-15T09:29:48Z</time>
      </trkpt>
      <trkpt lat="45.76065" lon="6.55178">
        <ele>1784</ele>
        <time>2025-08-15T09:29:49Z</time>
      </trkpt>
      <trkpt lat="45.76065" lon="6.55183">
        <ele>1784.2</ele>
        <time>2025-08-15T09:29:50Z</time>
      </trkpt>
      <trkpt lat="45.76065" lon="6.55184">
        <ele>1784.2</ele>
        <time>2025-08-15T09:29:51Z</time>
      </trkpt>
      <trkpt lat="45.76066" lon="6.55189">
        <ele>1784.4</ele>
        <time>2025-08-15T09:29:52Z</time>
      </trkpt>
      <trkpt lat="45.76066" lon="6.55191">
        <ele>1784.4</ele>
        <time>2025-08-15T09:29:53Z</time>
      </trkpt>
      <trkpt lat="45.76067" lon="6.55195">
        <ele>1784.6</ele>
        <time>2025-08-15T09:29:54Z</time>
      </trkpt>
      <trkpt lat="45.76068" lon="6.55197">
        <ele>1784.7</ele>
        <time>2025-08-15T09:29:55Z</time>
      </trkpt>
      <trkpt lat="45.7607" lon="6.55201">
        <ele>1784.8</ele>
        <time>2025-08-15T09:29:56Z</time>
      </trkpt>
      <trkpt lat="45.7607" lon="6.55203">
        <ele>1784.9</ele>
        <time>2025-08-15T09:29:57Z</time>
      </trkpt>
      <trkpt lat="45.76072" lon="6.55207">
        <ele>1785.1</ele>
        <time>2025-08-15T09:29:58Z</time>
      </trkpt>
      <trkpt lat="45.76072" lon="6.55208">
        <ele>1785.2</ele>
        <time>2025-08-15T09:29:59Z</time>
      </trkpt>
      <trkpt lat="45.76072" lon="6.5521">
        <ele>1785.2</ele>
        <time>2025-08-15T09:30:00Z</time>
      </trkpt>
      <trkpt lat="45.76073" lon="6.55211">
        <ele>1785.3</ele>
        <time>2025-08-15T09:30:01Z</time>
      </trkpt>
      <trkpt lat="45.76073" lon="6.55212">
        <ele>1785.3</ele>
        <time>2025-08-15T09:30:02Z</time>
      </trkpt>
      <trkpt lat="45.76073" lon="6.55213">
        <ele>1785.4</ele>
        <time>2025-08-15T09:30:03Z</time>
      </trkpt>
      <trkpt lat="45.76074" lon="6.55214">
        <ele>1785.5</ele>
        <time>2025-08-15T09:30:04Z</time>
      </trkpt>
      <trkpt lat="45.76075" lon="6.55217">
        <ele>1785.6</ele>
        <time>2025-08-15T09:30:05Z</time>
      </trkpt>
      <trkpt lat="45.76074" lon="6.55222">
        <ele>1785.7</ele>
        <time>2025-08-15T09:30:06Z</time>
      </trkpt>
      <trkpt lat="45.76074" lon="6.55224">
        <ele>1785.7</ele>
        <time>2025-08-15T09:30:07Z</time>
      </trkpt>
      <trkpt lat="45.76072" lon="6.55228">
        <ele>1785.6</ele>
        <time>2025-08-15T09:30:08Z</time>
      </trkpt>
      <trkpt lat="45.7607" lon="6.55232">
        <ele>1785.5</ele>
        <time>2025-08-15T09:30:09Z</time>
      </trkpt>
      <trkpt lat="45.7607" lon="6.55238">
        <ele>1785.5</ele>
        <time>2025-08-15T09:30:10Z</time>
      </trkpt>
      <trkpt lat="45.76071" lon="6.55243">
        <ele>1785.4</ele>
        <time>2025-08-15T09:30:11Z</time>
      </trkpt>
      <trkpt lat="45.76072" lon="6.55248">
        <ele>1785.4</ele>
        <time>2025-08-15T09:30:12Z</time>
      </trkpt>
      <trkpt lat="45.76072" lon="6.55252">
        <ele>1785.3</ele>
        <time>2025-08-15T09:30:13Z</time>
      </trkpt>
      <trkpt lat="45.76072" lon="6.55257">
        <ele>1785.3</ele>
        <time>2025-08-15T09:30:14Z</time>
      </trkpt>
      <trkpt lat="45.76073" lon="6.55262">
        <ele>1785.3</ele>
        <time>2025-08-15T09:30:15Z</time>
      </trkpt>
      <trkpt lat="45.76073" lon="6.55266">
        <ele>1785.3</ele>
        <time>2025-08-15T09:30:16Z</time>
      </trkpt>
      <trkpt lat="45.76074" lon="6.5527">
        <ele>1785.3</ele>
        <time>2025-08-15T09:30:17Z</time>
      </trkpt>
      <trkpt lat="45.76075" lon="6.55274">
        <ele>1785.3</ele>
        <time>2025-08-15T09:30:18Z</time>
      </trkpt>
      <trkpt lat="45.76076" lon="6.55279">
        <ele>1785.3</ele>
        <time>2025-08-15T09:30:19Z</time>
      </trkpt>
      <trkpt lat="45.76076" lon="6.5528">
        <ele>1785.3</ele>
        <time>2025-08-15T09:30:20Z</time>
      </trkpt>
      <trkpt lat="45.76076" lon="6.55283">
        <ele>1785.2</ele>
        <time>2025-08-15T09:30:21Z</time>
      </trkpt>
      <trkpt lat="45.76075" lon="6.55284">
        <ele>1785.2</ele>
        <time>2025-08-15T09:30:22Z</time>
      </trkpt>
      <trkpt lat="45.76075" lon="6.55283">
        <ele>1785.2</ele>
        <time>2025-08-15T09:30:23Z</time>
      </trkpt>
      <trkpt lat="45.76074" lon="6.55281">
        <ele>1785.2</ele>
        <time>2025-08-15T09:30:24Z</time>
      </trkpt>
      <trkpt lat="45.76073" lon="6.5528">
        <ele>1785.2</ele>
        <time>2025-08-15T09:30:25Z</time>
      </trkpt>
      <trkpt lat="45.76072" lon="6.55279">
        <ele>1785.2</ele>
        <time>2025-08-15T09:30:26Z</time>
      </trkpt>
      <trkpt lat="45.76072" lon="6.55278">
        <ele>1785.2</ele>
        <time>2025-08-15T09:30:27Z</time>
      </trkpt>
      <trkpt lat="45.76071" lon="6.55277">
        <ele>1785.2</ele>
        <time>2025-08-15T09:30:28Z</time>
      </trkpt>
      <trkpt lat="45.7607" lon="6.55275">
        <ele>1785.2</ele>
        <time>2025-08-15T09:30:29Z</time>
      </trkpt>
      <trkpt lat="45.76069" lon="6.55274">
        <ele>1785.2</ele>
        <time>2025-08-15T09:30:30Z</time>
      </trkpt>
      <trkpt lat="45.76069" lon="6.55273">
        <ele>1785.2</ele>
        <time>2025-08-15T09:30:31Z</time>
      </trkpt>
      <trkpt lat="45.76068" lon="6.55272">
        <ele>1785.2</ele>
        <time>2025-08-15T09:30:32Z</time>
      </trkpt>
      <trkpt lat="45.76067" lon="6.55271">
        <ele>1785.2</ele>
        <time>2025-08-15T09:30:33Z</time>
      </trkpt>
      <trkpt lat="45.76066" lon="6.55269">
        <ele>1785.2</ele>
        <time>2025-08-15T09:33:40Z</time>
      </trkpt>
      <trkpt lat="45.76065" lon="6.55268">
        <ele>1785.2</ele>
        <time>2025-08-15T09:33:41Z</time>
      </trkpt>
      <trkpt lat="45.76064" lon="6.55264">
        <ele>1785.2</ele>
        <time>2025-08-15T09:33:42Z</time>
      </trkpt>
      <trkpt lat="45.76064" lon="6.55262">
        <ele>1785.3</ele>
        <time>2025-08-15T09:33:43Z</time>
      </trkpt>
      <trkpt lat="45.76063" lon="6.55257">
        <ele>1785.3</ele>
        <time>2025-08-15T09:33:44Z</time>
      </trkpt>
      <trkpt lat="45.76062" lon="6.55256">
        <ele>1785.3</ele>
        <time>2025-08-15T09:33:45Z</time>
      </trkpt>
      <trkpt lat="45.7606" lon="6.55252">
        <ele>1785.3</ele>
        <time>2025-08-15T09:33:46Z</time>
      </trkpt>
      <trkpt lat="45.76059" lon="6.55251">
        <ele>1785.2</ele>
        <time>2025-08-15T09:33:47Z</time>
      </trkpt>
      <trkpt lat="45.76056" lon="6.55249">
        <ele>1785.2</ele>
        <time>2025-08-15T09:33:48Z</time>
      </trkpt>
      <trkpt lat="45.76055" lon="6.55248">
        <ele>1785.2</ele>
        <time>2025-08-15T09:33:49Z</time>
      </trkpt>
      <trkpt lat="45.76052" lon="6.55245">
        <ele>1785.2</ele>
        <time>2025-08-15T09:33:50Z</time>
      </trkpt>
      <trkpt lat="45.7605" lon="6.55245">
        <ele>1785.1</ele>
        <time>2025-08-15T09:33:51Z</time>
      </trkpt>
      <trkpt lat="45.76047" lon="6.55242">
        <ele>1785.1</ele>
        <time>2025-08-15T09:33:52Z</time>
      </trkpt>
      <trkpt lat="45.76046" lon="6.55242">
        <ele>1785.1</ele>
        <time>2025-08-15T09:33:53Z</time>
      </trkpt>
      <trkpt lat="45.76043" lon="6.5524">
        <ele>1785.1</ele>
        <time>2025-08-15T09:33:54Z</time>
      </trkpt>
      <trkpt lat="45.76041" lon="6.5524">
        <ele>1785.2</ele>
        <time>2025-08-15T09:33:55Z</time>
      </trkpt>
      <trkpt lat="45.76037" lon="6.55241">
        <ele>1785.4</ele>
        <time>2025-08-15T09:33:56Z</time>
      </trkpt>
      <trkpt lat="45.76036" lon="6.55242">
        <ele>1785.4</ele>
        <time>2025-08-15T09:33:57Z</time>
      </trkpt>
      <trkpt lat="45.76035" lon="6.55243">
        <ele>1785.5</ele>
        <time>2025-08-15T09:33:58Z</time>
      </trkpt>
      <trkpt lat="45.76033" lon="6.55243">
        <ele>1785.6</ele>
        <time>2025-08-15T09:33:59Z</time>
      </trkpt>
      <trkpt lat="45.7603" lon="6.55244">
        <ele>1785.7</ele>
        <time>2025-08-15T09:34:00Z</time>
      </trkpt>
      <trkpt lat="45.76029" lon="6.55244">
        <ele>1785.8</ele>
        <time>2025-08-15T09:34:01Z</time>
      </trkpt>
      <trkpt lat="45.76026" lon="6.55245">
        <ele>1786</ele>
        <time>2025-08-15T09:34:02Z</time>
      </trkpt>
      <trkpt lat="45.76025" lon="6.55245">
        <ele>1786</ele>
        <time>2025-08-15T09:34:03Z</time>
      </trkpt>
      <trkpt lat="45.76022" lon="6.55247">
        <ele>1786.2</ele>
        <time>2025-08-15T09:34:04Z</time>
      </trkpt>
      <trkpt lat="45.76021" lon="6.55248">
        <ele>1786.3</ele>
        <time>2025-08-15T09:34:05Z</time>
      </trkpt>
      <trkpt lat="45.76017" lon="6.5525">
        <ele>1786.5</ele>
        <time>2025-08-15T09:34:06Z</time>
      </trkpt>
      <trkpt lat="45.76016" lon="6.55251">
        <ele>1786.6</ele>
        <time>2025-08-15T09:34:07Z</time>
      </trkpt>
      <trkpt lat="45.76013" lon="6.55253">
        <ele>1786.8</ele>
        <time>2025-08-15T09:34:08Z</time>
      </trkpt>
      <trkpt lat="45.76012" lon="6.55253">
        <ele>1786.9</ele>
        <time>2025-08-15T09:34:09Z</time>
      </trkpt>
      <trkpt lat="45.76009" lon="6.55255">
        <ele>1787.2</ele>
        <time>2025-08-15T09:34:10Z</time>
      </trkpt>
      <trkpt lat="45.76008" lon="6.55256">
        <ele>1787.2</ele>
        <time>2025-08-15T09:34:11Z</time>
      </trkpt>
      <trkpt lat="45.76005" lon="6.55259">
        <ele>1787.5</ele>
        <time>2025-08-15T09:34:12Z</time>
      </trkpt>
      <trkpt lat="45.76004" lon="6.5526">
        <ele>1787.6</ele>
        <time>2025-08-15T09:34:13Z</time>
      </trkpt>
      <trkpt lat="45.76001" lon="6.55262">
        <ele>1787.9</ele>
        <time>2025-08-15T09:34:14Z</time>
      </trkpt>
      <trkpt lat="45.76" lon="6.55263">
        <ele>1788</ele>
        <time>2025-08-15T09:34:15Z</time>
      </trkpt>
      <trkpt lat="45.75997" lon="6.55266">
        <ele>1788.3</ele>
        <time>2025-08-15T09:34:16Z</time>
      </trkpt>
      <trkpt lat="45.75996" lon="6.55267">
        <ele>1788.4</ele>
        <time>2025-08-15T09:34:17Z</time>
      </trkpt>
      <trkpt lat="45.75994" lon="6.55271">
        <ele>1788.6</ele>
        <time>2025-08-15T09:34:18Z</time>
      </trkpt>
      <trkpt lat="45.75993" lon="6.55272">
        <ele>1788.7</ele>
        <time>2025-08-15T09:34:19Z</time>
      </trkpt>
      <trkpt lat="45.75991" lon="6.55275">
        <ele>1789</ele>
        <time>2025-08-15T09:34:20Z</time>
      </trkpt>
      <trkpt lat="45.7599" lon="6.55276">
        <ele>1789.1</ele>
        <time>2025-08-15T09:34:21Z</time>
      </trkpt>
      <trkpt lat="45.75988" lon="6.5528">
        <ele>1789.3</ele>
        <time>2025-08-15T09:34:22Z</time>
      </trkpt>
      <trkpt lat="45.75988" lon="6.55281">
        <ele>1789.4</ele>
        <time>2025-08-15T09:34:23Z</time>
      </trkpt>
      <trkpt lat="45.75985" lon="6.55284">
        <ele>1789.7</ele>
        <time>2025-08-15T09:34:24Z</time>
      </trkpt>
      <trkpt lat="45.75985" lon="6.55285">
        <ele>1789.7</ele>
        <time>2025-08-15T09:34:25Z</time>
      </trkpt>
      <trkpt lat="45.75983" lon="6.55288">
        <ele>1790</ele>
        <time>2025-08-15T09:34:26Z</time>
      </trkpt>
      <trkpt lat="45.75982" lon="6.55289">
        <ele>1790.1</ele>
        <time>2025-08-15T09:34:27Z</time>
      </trkpt>
      <trkpt lat="45.7598" lon="6.55293">
        <ele>1790.3</ele>
        <time>2025-08-15T09:34:28Z</time>
      </trkpt>
      <trkpt lat="45.75979" lon="6.55294">
        <ele>1790.4</ele>
        <time>2025-08-15T09:34:29Z</time>
      </trkpt>
      <trkpt lat="45.75977" lon="6.55297">
        <ele>1790.7</ele>
        <time>2025-08-15T09:34:30Z</time>
      </trkpt>
      <trkpt lat="45.75976" lon="6.55298">
        <ele>1790.7</ele>
        <time>2025-08-15T09:34:31Z</time>
      </trkpt>
      <trkpt lat="45.75974" lon="6.55302">
        <ele>1791</ele>
        <time>2025-08-15T09:34:32Z</time>
      </trkpt>
      <trkpt lat="45.75973" lon="6.55303">
        <ele>1791.1</ele>
        <time>2025-08-15T09:34:33Z</time>
      </trkpt>
      <trkpt lat="45.75971" lon="6.55305">
        <ele>1791.3</ele>
        <time>2025-08-15T09:34:34Z</time>
      </trkpt>
      <trkpt lat="45.7597" lon="6.55306">
        <ele>1791.4</ele>
        <time>2025-08-15T09:34:35Z</time>
      </trkpt>
      <trkpt lat="45.75967" lon="6.55309">
        <ele>1791.6</ele>
        <time>2025-08-15T09:34:36Z</time>
      </trkpt>
      <trkpt lat="45.75966" lon="6.5531">
        <ele>1791.6</ele>
        <time>2025-08-15T09:34:37Z</time>
      </trkpt>
      <trkpt lat="45.75963" lon="6.55312">
        <ele>1791.8</ele>
        <time>2025-08-15T09:34:38Z</time>
      </trkpt>
      <trkpt lat="45.75962" lon="6.55313">
        <ele>1791.9</ele>
        <time>2025-08-15T09:34:39Z</time>
      </trkpt>
      <trkpt lat="45.75959" lon="6.55316">
        <ele>1792.1</ele>
        <time>2025-08-15T09:34:40Z</time>
      </trkpt>
      <trkpt lat="45.75958" lon="6.55316">
        <ele>1792.2</ele>
        <time>2025-08-15T09:34:41Z</time>
      </trkpt>
      <trkpt lat="45.75955" lon="6.55319">
        <ele>1792.4</ele>
        <time>2025-08-15T09:34:42Z</time>
      </trkpt>
      <trkpt lat="45.75954" lon="6.5532">
        <ele>1792.4</ele>
        <time>2025-08-15T09:34:43Z</time>
      </trkpt>
      <trkpt lat="45.75951" lon="6.55322">
        <ele>1792.7</ele>
        <time>2025-08-15T09:34:44Z</time>
      </trkpt>
      <trkpt lat="45.75949" lon="6.55322">
        <ele>1792.7</ele>
        <time>2025-08-15T09:34:45Z</time>
      </trkpt>
      <trkpt lat="45.75946" lon="6.55324">
        <ele>1793</ele>
        <time>2025-08-15T09:34:46Z</time>
      </trkpt>
      <trkpt lat="45.75945" lon="6.55325">
        <ele>1793.1</ele>
        <time>2025-08-15T09:34:47Z</time>
      </trkpt>
      <trkpt lat="45.75942" lon="6.55327">
        <ele>1793.3</ele>
        <time>2025-08-15T09:34:48Z</time>
      </trkpt>
      <trkpt lat="45.75941" lon="6.55327">
        <ele>1793.4</ele>
        <time>2025-08-15T09:34:49Z</time>
      </trkpt>
      <trkpt lat="45.75938" lon="6.55329">
        <ele>1793.7</ele>
        <time>2025-08-15T09:34:50Z</time>
      </trkpt>
      <trkpt lat="45.75937" lon="6.5533">
        <ele>1793.8</ele>
        <time>2025-08-15T09:34:51Z</time>
      </trkpt>
      <trkpt lat="45.75934" lon="6.55331">
        <ele>1794.2</ele>
        <time>2025-08-15T09:34:52Z</time>
      </trkpt>
      <trkpt lat="45.75933" lon="6.55332">
        <ele>1794.3</ele>
        <time>2025-08-15T09:34:53Z</time>
      </trkpt>
      <trkpt lat="45.7593" lon="6.55333">
        <ele>1794.6</ele>
        <time>2025-08-15T09:34:54Z</time>
      </trkpt>
      <trkpt lat="45.75929" lon="6.55334">
        <ele>1794.7</ele>
        <time>2025-08-15T09:34:55Z</time>
      </trkpt>
      <trkpt lat="45.75926" lon="6.55336">
        <ele>1795</ele>
        <time>2025-08-15T09:34:56Z</time>
      </trkpt>
      <trkpt lat="45.75925" lon="6.55336">
        <ele>1795.1</ele>
        <time>2025-08-15T09:34:57Z</time>
      </trkpt>
      <trkpt lat="45.75921" lon="6.55339">
        <ele>1795.4</ele>
        <time>2025-08-15T09:34:58Z</time>
      </trkpt>
      <trkpt lat="45.7592" lon="6.5534">
        <ele>1795.6</ele>
        <time>2025-08-15T09:34:59Z</time>
      </trkpt>
      <trkpt lat="45.75917" lon="6.55342">
        <ele>1795.8</ele>
        <time>2025-08-15T09:35:00Z</time>
      </trkpt>
      <trkpt lat="45.75916" lon="6.55343">
        <ele>1795.9</ele>
        <time>2025-08-15T09:35:01Z</time>
      </trkpt>
      <trkpt lat="45.75913" lon="6.55345">
        <ele>1796.2</ele>
        <time>2025-08-15T09:35:02Z</time>
      </trkpt>
      <trkpt lat="45.75912" lon="6.55346">
        <ele>1796.3</ele>
        <time>2025-08-15T09:35:03Z</time>
      </trkpt>
      <trkpt lat="45.75909" lon="6.55348">
        <ele>1796.5</ele>
        <time>2025-08-15T09:35:04Z</time>
      </trkpt>
      <trkpt lat="45.75908" lon="6.55348">
        <ele>1796.6</ele>
        <time>2025-08-15T09:35:05Z</time>
      </trkpt>
      <trkpt lat="45.75905" lon="6.5535">
        <ele>1796.8</ele>
        <time>2025-08-15T09:35:06Z</time>
      </trkpt>
      <trkpt lat="45.75904" lon="6.55351">
        <ele>1796.8</ele>
        <time>2025-08-15T09:35:07Z</time>
      </trkpt>
      <trkpt lat="45.75901" lon="6.55353">
        <ele>1797</ele>
        <time>2025-08-15T09:35:08Z</time>
      </trkpt>
      <trkpt lat="45.759" lon="6.55354">
        <ele>1797</ele>
        <time>2025-08-15T09:35:09Z</time>
      </trkpt>
      <trkpt lat="45.75897" lon="6.55356">
        <ele>1797.2</ele>
        <time>2025-08-15T09:35:10Z</time>
      </trkpt>
      <trkpt lat="45.75896" lon="6.55356">
        <ele>1797.2</ele>
        <time>2025-08-15T09:35:11Z</time>
      </trkpt>
      <trkpt lat="45.75893" lon="6.55358">
        <ele>1797.2</ele>
        <time>2025-08-15T09:35:12Z</time>
      </trkpt>
      <trkpt lat="45.75892" lon="6.55359">
        <ele>1797.3</ele>
        <time>2025-08-15T09:35:13Z</time>
      </trkpt>
      <trkpt lat="45.75889" lon="6.55362">
        <ele>1797.3</ele>
        <time>2025-08-15T09:35:14Z</time>
      </trkpt>
      <trkpt lat="45.75888" lon="6.55363">
        <ele>1797.3</ele>
        <time>2025-08-15T09:35:15Z</time>
      </trkpt>
      <trkpt lat="45.75884" lon="6.55366">
        <ele>1797.3</ele>
        <time>2025-08-15T09:35:16Z</time>
      </trkpt>
      <trkpt lat="45.75883" lon="6.55367">
        <ele>1797.3</ele>
        <time>2025-08-15T09:35:17Z</time>
      </trkpt>
      <trkpt lat="45.75881" lon="6.55368">
        <ele>1797.3</ele>
        <time>2025-08-15T09:35:18Z</time>
      </trkpt>
      <trkpt lat="45.75878" lon="6.55371">
        <ele>1797.3</ele>
        <time>2025-08-15T09:35:19Z</time>
      </trkpt>
      <trkpt lat="45.75875" lon="6.55374">
        <ele>1797.3</ele>
        <time>2025-08-15T09:35:20Z</time>
      </trkpt>
      <trkpt lat="45.75874" lon="6.55375">
        <ele>1797.3</ele>
        <time>2025-08-15T09:35:21Z</time>
      </trkpt>
      <trkpt lat="45.75871" lon="6.55378">
        <ele>1797.4</ele>
        <time>2025-08-15T09:35:22Z</time>
      </trkpt>
      <trkpt lat="45.7587" lon="6.55378">
        <ele>1797.4</ele>
        <time>2025-08-15T09:35:23Z</time>
      </trkpt>
      <trkpt lat="45.75867" lon="6.55382">
        <ele>1797.6</ele>
        <time>2025-08-15T09:35:24Z</time>
      </trkpt>
      <trkpt lat="45.75866" lon="6.55383">
        <ele>1797.6</ele>
        <time>2025-08-15T09:35:25Z</time>
      </trkpt>
      <trkpt lat="45.75863" lon="6.55386">
        <ele>1797.9</ele>
        <time>2025-08-15T09:35:26Z</time>
      </trkpt>
      <trkpt lat="45.75862" lon="6.55387">
        <ele>1797.9</ele>
        <time>2025-08-15T09:35:27Z</time>
      </trkpt>
      <trkpt lat="45.75859" lon="6.5539">
        <ele>1798.2</ele>
        <time>2025-08-15T09:35:28Z</time>
      </trkpt>
      <trkpt lat="45.75858" lon="6.55391">
        <ele>1798.4</ele>
        <time>2025-08-15T09:35:29Z</time>
      </trkpt>
      <trkpt lat="45.75856" lon="6.55395">
        <ele>1798.7</ele>
        <time>2025-08-15T09:35:30Z</time>
      </trkpt>
      <trkpt lat="45.75856" lon="6.55396">
        <ele>1798.8</ele>
        <time>2025-08-15T09:35:31Z</time>
      </trkpt>
      <trkpt lat="45.75854" lon="6.554">
        <ele>1799.3</ele>
        <time>2025-08-15T09:35:32Z</time>
      </trkpt>
      <trkpt lat="45.75853" lon="6.55401">
        <ele>1799.4</ele>
        <time>2025-08-15T09:35:33Z</time>
      </trkpt>
      <trkpt lat="45.75851" lon="6.55405">
        <ele>1799.9</ele>
        <time>2025-08-15T09:35:34Z</time>
      </trkpt>
      <trkpt lat="45.7585" lon="6.55406">
        <ele>1800</ele>
        <time>2025-08-15T09:35:35Z</time>
      </trkpt>
      <trkpt lat="45.75849" lon="6.5541">
        <ele>1800.4</ele>
        <time>2025-08-15T09:35:36Z</time>
      </trkpt>
      <trkpt lat="45.75848" lon="6.55411">
        <ele>1800.6</ele>
        <time>2025-08-15T09:35:37Z</time>
      </trkpt>
      <trkpt lat="45.75847" lon="6.55415">
        <ele>1801</ele>
        <time>2025-08-15T09:35:38Z</time>
      </trkpt>
      <trkpt lat="45.75846" lon="6.55417">
        <ele>1801.2</ele>
        <time>2025-08-15T09:35:39Z</time>
      </trkpt>
      <trkpt lat="45.75845" lon="6.5542">
        <ele>1801.6</ele>
        <time>2025-08-15T09:35:40Z</time>
      </trkpt>
      <trkpt lat="45.75844" lon="6.55421">
        <ele>1801.7</ele>
        <time>2025-08-15T09:35:41Z</time>
      </trkpt>
      <trkpt lat="45.75843" lon="6.55426">
        <ele>1802.2</ele>
        <time>2025-08-15T09:35:42Z</time>
      </trkpt>
      <trkpt lat="45.75842" lon="6.55427">
        <ele>1802.3</ele>
        <time>2025-08-15T09:35:43Z</time>
      </trkpt>
      <trkpt lat="45.75841" lon="6.55431">
        <ele>1802.8</ele>
        <time>2025-08-15T09:35:44Z</time>
      </trkpt>
      <trkpt lat="45.7584" lon="6.55433">
        <ele>1802.9</ele>
        <time>2025-08-15T09:35:45Z</time>
      </trkpt>
      <trkpt lat="45.75839" lon="6.55436">
        <ele>1803.3</ele>
        <time>2025-08-15T09:35:46Z</time>
      </trkpt>
      <trkpt lat="45.75838" lon="6.55438">
        <ele>1803.4</ele>
        <time>2025-08-15T09:35:47Z</time>
      </trkpt>
      <trkpt lat="45.75838" lon="6.5544">
        <ele>1803.7</ele>
        <time>2025-08-15T09:35:48Z</time>
      </trkpt>
      <trkpt lat="45.75837" lon="6.55442">
        <ele>1803.9</ele>
        <time>2025-08-15T09:35:49Z</time>
      </trkpt>
      <trkpt lat="45.75835" lon="6.55446">
        <ele>1804.3</ele>
        <time>2025-08-15T09:35:50Z</time>
      </trkpt>
      <trkpt lat="45.75835" lon="6.55447">
        <ele>1804.4</ele>
        <time>2025-08-15T09:35:51Z</time>
      </trkpt>
      <trkpt lat="45.75834" lon="6.55449">
        <ele>1804.6</ele>
        <time>2025-08-15T09:35:52Z</time>
      </trkpt>
      <trkpt lat="45.75833" lon="6.55451">
        <ele>1804.9</ele>
        <time>2025-08-15T09:35:53Z</time>
      </trkpt>
      <trkpt lat="45.75832" lon="6.55455">
        <ele>1805.2</ele>
        <time>2025-08-15T09:35:54Z</time>
      </trkpt>
      <trkpt lat="45.75831" lon="6.55456">
        <ele>1805.4</ele>
        <time>2025-08-15T09:35:55Z</time>
      </trkpt>
      <trkpt lat="45.75831" lon="6.55458">
        <ele>1805.6</ele>
        <time>2025-08-15T09:35:56Z</time>
      </trkpt>
      <trkpt lat="45.7583" lon="6.55461">
        <ele>1805.8</ele>
        <time>2025-08-15T09:35:57Z</time>
      </trkpt>
      <trkpt lat="45.75829" lon="6.55463">
        <ele>1806.1</ele>
        <time>2025-08-15T09:35:58Z</time>
      </trkpt>
      <trkpt lat="45.75828" lon="6.55465">
        <ele>1806.3</ele>
        <time>2025-08-15T09:35:59Z</time>
      </trkpt>
      <trkpt lat="45.75828" lon="6.55467">
        <ele>1806.5</ele>
        <time>2025-08-15T09:36:00Z</time>
      </trkpt>
      <trkpt lat="45.75827" lon="6.55469">
        <ele>1806.7</ele>
        <time>2025-08-15T09:36:01Z</time>
      </trkpt>
      <trkpt lat="45.75826" lon="6.55471">
        <ele>1807</ele>
        <time>2025-08-15T09:36:02Z</time>
      </trkpt>
      <trkpt lat="45.75825" lon="6.55473">
        <ele>1807.2</ele>
        <time>2025-08-15T09:36:03Z</time>
      </trkpt>
      <trkpt lat="45.75824" lon="6.55475">
        <ele>1807.4</ele>
        <time>2025-08-15T09:36:04Z</time>
      </trkpt>
      <trkpt lat="45.75823" lon="6.55477">
        <ele>1807.6</ele>
        <time>2025-08-15T09:36:05Z</time>
      </trkpt>
      <trkpt lat="45.75822" lon="6.55479">
        <ele>1807.8</ele>
        <time>2025-08-15T09:36:06Z</time>
      </trkpt>
      <trkpt lat="45.75821" lon="6.55481">
        <ele>1808.1</ele>
        <time>2025-08-15T09:36:07Z</time>
      </trkpt>
      <trkpt lat="45.75821" lon="6.55483">
        <ele>1808.3</ele>
        <time>2025-08-15T09:36:08Z</time>
      </trkpt>
      <trkpt lat="45.75819" lon="6.55485">
        <ele>1808.6</ele>
        <time>2025-08-15T09:36:09Z</time>
      </trkpt>
      <trkpt lat="45.75819" lon="6.55487">
        <ele>1808.8</ele>
        <time>2025-08-15T09:36:10Z</time>
      </trkpt>
      <trkpt lat="45.75818" lon="6.5549">
        <ele>1809</ele>
        <time>2025-08-15T09:36:11Z</time>
      </trkpt>
      <trkpt lat="45.75817" lon="6.55492">
        <ele>1809.3</ele>
        <time>2025-08-15T09:36:12Z</time>
      </trkpt>
      <trkpt lat="45.75817" lon="6.55494">
        <ele>1809.5</ele>
        <time>2025-08-15T09:36:13Z</time>
      </trkpt>
      <trkpt lat="45.75816" lon="6.55496">
        <ele>1809.8</ele>
        <time>2025-08-15T09:36:14Z</time>
      </trkpt>
      <trkpt lat="45.75815" lon="6.55498">
        <ele>1810.1</ele>
        <time>2025-08-15T09:36:15Z</time>
      </trkpt>
      <trkpt lat="45.75814" lon="6.555">
        <ele>1810.3</ele>
        <time>2025-08-15T09:36:16Z</time>
      </trkpt>
      <trkpt lat="45.75813" lon="6.55502">
        <ele>1810.6</ele>
        <time>2025-08-15T09:36:17Z</time>
      </trkpt>
      <trkpt lat="45.75812" lon="6.55504">
        <ele>1810.9</ele>
        <time>2025-08-15T09:36:18Z</time>
      </trkpt>
      <trkpt lat="45.75811" lon="6.55505">
        <ele>1811.2</ele>
        <time>2025-08-15T09:36:19Z</time>
      </trkpt>
      <trkpt lat="45.7581" lon="6.55507">
        <ele>1811.5</ele>
        <time>2025-08-15T09:36:20Z</time>
      </trkpt>
      <trkpt lat="45.7581" lon="6.55509">
        <ele>1811.7</ele>
        <time>2025-08-15T09:36:21Z</time>
      </trkpt>
      <trkpt lat="45.75808" lon="6.55511">
        <ele>1812.1</ele>
        <time>2025-08-15T09:36:22Z</time>
      </trkpt>
      <trkpt lat="45.75807" lon="6.55512">
        <ele>1812.4</ele>
        <time>2025-08-15T09:36:23Z</time>
      </trkpt>
      <trkpt lat="45.75806" lon="6.55513">
        <ele>1812.7</ele>
        <time>2025-08-15T09:36:24Z</time>
      </trkpt>
      <trkpt lat="45.75805" lon="6.55515">
        <ele>1813</ele>
        <time>2025-08-15T09:36:25Z</time>
      </trkpt>
      <trkpt lat="45.75804" lon="6.55517">
        <ele>1813.3</ele>
        <time>2025-08-15T09:36:26Z</time>
      </trkpt>
      <trkpt lat="45.75803" lon="6.55519">
        <ele>1813.6</ele>
        <time>2025-08-15T09:36:27Z</time>
      </trkpt>
      <trkpt lat="45.75802" lon="6.55522">
        <ele>1814.1</ele>
        <time>2025-08-15T09:36:28Z</time>
      </trkpt>
      <trkpt lat="45.75802" lon="6.55523">
        <ele>1814.3</ele>
        <time>2025-08-15T09:36:29Z</time>
      </trkpt>
      <trkpt lat="45.75801" lon="6.55525">
        <ele>1814.5</ele>
        <time>2025-08-15T09:36:30Z</time>
      </trkpt>
      <trkpt lat="45.758" lon="6.55526">
        <ele>1814.8</ele>
        <time>2025-08-15T09:36:31Z</time>
      </trkpt>
      <trkpt lat="45.758" lon="6.55528">
        <ele>1815.1</ele>
        <time>2025-08-15T09:36:32Z</time>
      </trkpt>
      <trkpt lat="45.75799" lon="6.5553">
        <ele>1815.4</ele>
        <time>2025-08-15T09:36:33Z</time>
      </trkpt>
      <trkpt lat="45.75798" lon="6.55532">
        <ele>1815.7</ele>
        <time>2025-08-15T09:36:34Z</time>
      </trkpt>
      <trkpt lat="45.75797" lon="6.55535">
        <ele>1816.2</ele>
        <time>2025-08-15T09:36:35Z</time>
      </trkpt>
      <trkpt lat="45.75796" lon="6.55536">
        <ele>1816.4</ele>
        <time>2025-08-15T09:36:36Z</time>
      </trkpt>
      <trkpt lat="45.75796" lon="6.55537">
        <ele>1816.6</ele>
        <time>2025-08-15T09:36:37Z</time>
      </trkpt>
      <trkpt lat="45.75795" lon="6.5554">
        <ele>1817</ele>
        <time>2025-08-15T09:36:38Z</time>
      </trkpt>
      <trkpt lat="45.75794" lon="6.55541">
        <ele>1817.1</ele>
        <time>2025-08-15T09:36:39Z</time>
      </trkpt>
      <trkpt lat="45.75794" lon="6.55542">
        <ele>1817.3</ele>
        <time>2025-08-15T09:36:40Z</time>
      </trkpt>
      <trkpt lat="45.75793" lon="6.55544">
        <ele>1817.6</ele>
        <time>2025-08-15T09:36:41Z</time>
      </trkpt>
      <trkpt lat="45.75793" lon="6.55545">
        <ele>1817.8</ele>
        <time>2025-08-15T09:36:42Z</time>
      </trkpt>
      <trkpt lat="45.75792" lon="6.55547">
        <ele>1818.1</ele>
        <time>2025-08-15T09:36:43Z</time>
      </trkpt>
      <trkpt lat="45.75791" lon="6.55549">
        <ele>1818.3</ele>
        <time>2025-08-15T09:36:44Z</time>
      </trkpt>
      <trkpt lat="45.7579" lon="6.55552">
        <ele>1818.7</ele>
        <time>2025-08-15T09:36:45Z</time>
      </trkpt>
      <trkpt lat="45.7579" lon="6.55553">
        <ele>1818.9</ele>
        <time>2025-08-15T09:36:46Z</time>
      </trkpt>
      <trkpt lat="45.7579" lon="6.55554">
        <ele>1819</ele>
        <time>2025-08-15T09:36:47Z</time>
      </trkpt>
      <trkpt lat="45.75789" lon="6.55557">
        <ele>1819.3</ele>
        <time>2025-08-15T09:36:48Z</time>
      </trkpt>
      <trkpt lat="45.75789" lon="6.55558">
        <ele>1819.4</ele>
        <time>2025-08-15T09:36:49Z</time>
      </trkpt>
      <trkpt lat="45.75788" lon="6.55559">
        <ele>1819.6</ele>
        <time>2025-08-15T09:36:50Z</time>
      </trkpt>
      <trkpt lat="45.75789" lon="6.55562">
        <ele>1819.8</ele>
        <time>2025-08-15T09:36:51Z</time>
      </trkpt>
      <trkpt lat="45.75788" lon="6.55564">
        <ele>1820</ele>
        <time>2025-08-15T09:36:52Z</time>
      </trkpt>
      <trkpt lat="45.75788" lon="6.55566">
        <ele>1820.2</ele>
        <time>2025-08-15T09:36:53Z</time>
      </trkpt>
      <trkpt lat="45.75787" lon="6.55568">
        <ele>1820.4</ele>
        <time>2025-08-15T09:36:54Z</time>
      </trkpt>
      <trkpt lat="45.75788" lon="6.5557">
        <ele>1820.5</ele>
        <time>2025-08-15T09:36:55Z</time>
      </trkpt>
      <trkpt lat="45.75788" lon="6.55572">
        <ele>1820.7</ele>
        <time>2025-08-15T09:36:56Z</time>
      </trkpt>
      <trkpt lat="45.75788" lon="6.55575">
        <ele>1820.9</ele>
        <time>2025-08-15T09:36:57Z</time>
      </trkpt>
      <trkpt lat="45.75789" lon="6.55577">
        <ele>1821.1</ele>
        <time>2025-08-15T09:36:58Z</time>
      </trkpt>
      <trkpt lat="45.75789" lon="6.55579">
        <ele>1821.3</ele>
        <time>2025-08-15T09:36:59Z</time>
      </trkpt>
      <trkpt lat="45.75789" lon="6.55581">
        <ele>1821.5</ele>
        <time>2025-08-15T09:37:00Z</time>
      </trkpt>
      <trkpt lat="45.75789" lon="6.55585">
        <ele>1821.8</ele>
        <time>2025-08-15T09:37:01Z</time>
      </trkpt>
      <trkpt lat="45.7579" lon="6.55586">
        <ele>1821.9</ele>
        <time>2025-08-15T09:37:02Z</time>
      </trkpt>
      <trkpt lat="45.7579" lon="6.55589">
        <ele>1822.1</ele>
        <time>2025-08-15T09:37:03Z</time>
      </trkpt>
      <trkpt lat="45.7579" lon="6.55591">
        <ele>1822.3</ele>
        <time>2025-08-15T09:37:04Z</time>
      </trkpt>
      <trkpt lat="45.75789" lon="6.55595">
        <ele>1822.6</ele>
        <time>2025-08-15T09:37:05Z</time>
      </trkpt>
      <trkpt lat="45.75789" lon="6.55596">
        <ele>1822.7</ele>
        <time>2025-08-15T09:37:06Z</time>
      </trkpt>
      <trkpt lat="45.75788" lon="6.55599">
        <ele>1822.9</ele>
        <time>2025-08-15T09:37:07Z</time>
      </trkpt>
      <trkpt lat="45.75788" lon="6.55601">
        <ele>1823.2</ele>
        <time>2025-08-15T09:37:08Z</time>
      </trkpt>
      <trkpt lat="45.75787" lon="6.55605">
        <ele>1823.5</ele>
        <time>2025-08-15T09:37:09Z</time>
      </trkpt>
      <trkpt lat="45.75786" lon="6.55606">
        <ele>1823.7</ele>
        <time>2025-08-15T09:37:10Z</time>
      </trkpt>
      <trkpt lat="45.75785" lon="6.55608">
        <ele>1824</ele>
        <time>2025-08-15T09:37:11Z</time>
      </trkpt>
      <trkpt lat="45.75784" lon="6.55609">
        <ele>1824.2</ele>
        <time>2025-08-15T09:37:12Z</time>
      </trkpt>
      <trkpt lat="45.75783" lon="6.55612">
        <ele>1824.5</ele>
        <time>2025-08-15T09:37:13Z</time>
      </trkpt>
      <trkpt lat="45.75782" lon="6.55613">
        <ele>1824.8</ele>
        <time>2025-08-15T09:37:14Z</time>
      </trkpt>
      <trkpt lat="45.75781" lon="6.55615">
        <ele>1825.1</ele>
        <time>2025-08-15T09:37:15Z</time>
      </trkpt>
      <trkpt lat="45.7578" lon="6.55617">
        <ele>1825.3</ele>
        <time>2025-08-15T09:37:16Z</time>
      </trkpt>
      <trkpt lat="45.75779" lon="6.55618">
        <ele>1825.6</ele>
        <time>2025-08-15T09:37:17Z</time>
      </trkpt>
      <trkpt lat="45.75778" lon="6.5562">
        <ele>1825.9</ele>
        <time>2025-08-15T09:37:18Z</time>
      </trkpt>
      <trkpt lat="45.75777" lon="6.55621">
        <ele>1826.2</ele>
        <time>2025-08-15T09:37:19Z</time>
      </trkpt>
      <trkpt lat="45.75775" lon="6.55622">
        <ele>1826.5</ele>
        <time>2025-08-15T09:37:20Z</time>
      </trkpt>
      <trkpt lat="45.75774" lon="6.55623">
        <ele>1826.7</ele>
        <time>2025-08-15T09:37:21Z</time>
      </trkpt>
      <trkpt lat="45.75773" lon="6.55624">
        <ele>1827</ele>
        <time>2025-08-15T09:37:22Z</time>
      </trkpt>
      <trkpt lat="45.75772" lon="6.55626">
        <ele>1827.3</ele>
        <time>2025-08-15T09:37:23Z</time>
      </trkpt>
      <trkpt lat="45.75771" lon="6.55626">
        <ele>1827.5</ele>
        <time>2025-08-15T09:37:24Z</time>
      </trkpt>
      <trkpt lat="45.7577" lon="6.55627">
        <ele>1827.7</ele>
        <time>2025-08-15T09:37:25Z</time>
      </trkpt>
      <trkpt lat="45.75768" lon="6.55627">
        <ele>1828</ele>
        <time>2025-08-15T09:37:26Z</time>
      </trkpt>
      <trkpt lat="45.75767" lon="6.55628">
        <ele>1828.3</ele>
        <time>2025-08-15T09:37:27Z</time>
      </trkpt>
      <trkpt lat="45.75766" lon="6.55629">
        <ele>1828.6</ele>
        <time>2025-08-15T09:37:28Z</time>
      </trkpt>
      <trkpt lat="45.75765" lon="6.5563">
        <ele>1828.8</ele>
        <time>2025-08-15T09:37:29Z</time>
      </trkpt>
      <trkpt lat="45.75763" lon="6.55632">
        <ele>1829.2</ele>
        <time>2025-08-15T09:37:30Z</time>
      </trkpt>
      <trkpt lat="45.75762" lon="6.55632">
        <ele>1829.3</ele>
        <time>2025-08-15T09:37:31Z</time>
      </trkpt>
      <trkpt lat="45.75761" lon="6.55632">
        <ele>1829.4</ele>
        <time>2025-08-15T09:37:32Z</time>
      </trkpt>
      <trkpt lat="45.75759" lon="6.55633">
        <ele>1829.7</ele>
        <time>2025-08-15T09:37:33Z</time>
      </trkpt>
      <trkpt lat="45.75758" lon="6.55633">
        <ele>1829.9</ele>
        <time>2025-08-15T09:37:34Z</time>
      </trkpt>
      <trkpt lat="45.75757" lon="6.55634">
        <ele>1830.1</ele>
        <time>2025-08-15T09:37:35Z</time>
      </trkpt>
      <trkpt lat="45.75756" lon="6.55634">
        <ele>1830.3</ele>
        <time>2025-08-15T09:37:36Z</time>
      </trkpt>
      <trkpt lat="45.75754" lon="6.55635">
        <ele>1830.5</ele>
        <time>2025-08-15T09:37:37Z</time>
      </trkpt>
      <trkpt lat="45.75753" lon="6.55636">
        <ele>1830.7</ele>
        <time>2025-08-15T09:37:38Z</time>
      </trkpt>
      <trkpt lat="45.75751" lon="6.55636">
        <ele>1830.9</ele>
        <time>2025-08-15T09:37:39Z</time>
      </trkpt>
      <trkpt lat="45.7575" lon="6.55637">
        <ele>1831.1</ele>
        <time>2025-08-15T09:37:40Z</time>
      </trkpt>
      <trkpt lat="45.75748" lon="6.55638">
        <ele>1831.3</ele>
        <time>2025-08-15T09:37:41Z</time>
      </trkpt>
      <trkpt lat="45.75747" lon="6.55638">
        <ele>1831.5</ele>
        <time>2025-08-15T09:37:42Z</time>
      </trkpt>
      <trkpt lat="45.75745" lon="6.55638">
        <ele>1831.6</ele>
        <time>2025-08-15T09:37:43Z</time>
      </trkpt>
      <trkpt lat="45.75743" lon="6.55638">
        <ele>1831.8</ele>
        <time>2025-08-15T09:37:44Z</time>
      </trkpt>
      <trkpt lat="45.75742" lon="6.55639">
        <ele>1832</ele>
        <time>2025-08-15T09:37:45Z</time>
      </trkpt>
      <trkpt lat="45.7574" lon="6.5564">
        <ele>1832.1</ele>
        <time>2025-08-15T09:37:46Z</time>
      </trkpt>
      <trkpt lat="45.75738" lon="6.5564">
        <ele>1832.3</ele>
        <time>2025-08-15T09:37:47Z</time>
      </trkpt>
      <trkpt lat="45.75736" lon="6.5564">
        <ele>1832.5</ele>
        <time>2025-08-15T09:37:48Z</time>
      </trkpt>
      <trkpt lat="45.75735" lon="6.55641">
        <ele>1832.6</ele>
        <time>2025-08-15T09:37:49Z</time>
      </trkpt>
      <trkpt lat="45.75733" lon="6.55641">
        <ele>1832.8</ele>
        <time>2025-08-15T09:37:50Z</time>
      </trkpt>
      <trkpt lat="45.7573" lon="6.55641">
        <ele>1833</ele>
        <time>2025-08-15T09:37:51Z</time>
      </trkpt>
      <trkpt lat="45.75729" lon="6.55641">
        <ele>1833.1</ele>
        <time>2025-08-15T09:37:52Z</time>
      </trkpt>
      <trkpt lat="45.75726" lon="6.55642">
        <ele>1833.3</ele>
        <time>2025-08-15T09:37:53Z</time>
      </trkpt>
      <trkpt lat="45.75725" lon="6.55642">
        <ele>1833.4</ele>
        <time>2025-08-15T09:37:54Z</time>
      </trkpt>
      <trkpt lat="45.75724" lon="6.55642">
        <ele>1833.6</ele>
        <time>2025-08-15T09:37:55Z</time>
      </trkpt>
      <trkpt lat="45.75722" lon="6.55642">
        <ele>1833.7</ele>
        <time>2025-08-15T09:37:56Z</time>
      </trkpt>
      <trkpt lat="45.7572" lon="6.55643">
        <ele>1833.9</ele>
        <time>2025-08-15T09:37:57Z</time>
      </trkpt>
      <trkpt lat="45.75718" lon="6.55644">
        <ele>1834</ele>
        <time>2025-08-15T09:37:58Z</time>
      </trkpt>
      <trkpt lat="45.75716" lon="6.55644">
        <ele>1834.3</ele>
        <time>2025-08-15T09:37:59Z</time>
      </trkpt>
      <trkpt lat="45.75715" lon="6.55645">
        <ele>1834.4</ele>
        <time>2025-08-15T09:38:00Z</time>
      </trkpt>
      <trkpt lat="45.75713" lon="6.55644">
        <ele>1834.5</ele>
        <time>2025-08-15T09:38:01Z</time>
      </trkpt>
      <trkpt lat="45.75711" lon="6.55644">
        <ele>1834.7</ele>
        <time>2025-08-15T09:38:02Z</time>
      </trkpt>
      <trkpt lat="45.75708" lon="6.55645">
        <ele>1835</ele>
        <time>2025-08-15T09:38:03Z</time>
      </trkpt>
      <trkpt lat="45.75707" lon="6.55645">
        <ele>1835.1</ele>
        <time>2025-08-15T09:38:04Z</time>
      </trkpt>
      <trkpt lat="45.75706" lon="6.55645">
        <ele>1835.2</ele>
        <time>2025-08-15T09:38:05Z</time>
      </trkpt>
      <trkpt lat="45.75704" lon="6.55645">
        <ele>1835.4</ele>
        <time>2025-08-15T09:38:06Z</time>
      </trkpt>
      <trkpt lat="45.75702" lon="6.55645">
        <ele>1835.6</ele>
        <time>2025-08-15T09:38:07Z</time>
      </trkpt>
      <trkpt lat="45.75701" lon="6.55645">
        <ele>1835.8</ele>
        <time>2025-08-15T09:38:08Z</time>
      </trkpt>
      <trkpt lat="45.75699" lon="6.55646">
        <ele>1835.9</ele>
        <time>2025-08-15T09:38:09Z</time>
      </trkpt>
      <trkpt lat="45.75698" lon="6.55646">
        <ele>1836.1</ele>
        <time>2025-08-15T09:38:10Z</time>
      </trkpt>
      <trkpt lat="45.75696" lon="6.55646">
        <ele>1836.3</ele>
        <time>2025-08-15T09:38:11Z</time>
      </trkpt>
      <trkpt lat="45.75694" lon="6.55646">
        <ele>1836.4</ele>
        <time>2025-08-15T09:38:12Z</time>
      </trkpt>
      <trkpt lat="45.75693" lon="6.55646">
        <ele>1836.6</ele>
        <time>2025-08-15T09:38:13Z</time>
      </trkpt>
      <trkpt lat="45.75691" lon="6.55646">
        <ele>1836.8</ele>
        <time>2025-08-15T09:38:14Z</time>
      </trkpt>
      <trkpt lat="45.75689" lon="6.55646">
        <ele>1837</ele>
        <time>2025-08-15T09:38:15Z</time>
      </trkpt>
      <trkpt lat="45.75688" lon="6.55646">
        <ele>1837.1</ele>
        <time>2025-08-15T09:38:16Z</time>
      </trkpt>
      <trkpt lat="45.75686" lon="6.55647">
        <ele>1837.3</ele>
        <time>2025-08-15T09:38:17Z</time>
      </trkpt>
      <trkpt lat="45.75685" lon="6.55648">
        <ele>1837.5</ele>
        <time>2025-08-15T09:38:18Z</time>
      </trkpt>
      <trkpt lat="45.75684" lon="6.55649">
        <ele>1837.6</ele>
        <time>2025-08-15T09:38:19Z</time>
      </trkpt>
      <trkpt lat="45.75682" lon="6.55649">
        <ele>1837.8</ele>
        <time>2025-08-15T09:38:20Z</time>
      </trkpt>
      <trkpt lat="45.7568" lon="6.55649">
        <ele>1838</ele>
        <time>2025-08-15T09:38:21Z</time>
      </trkpt>
      <trkpt lat="45.75678" lon="6.5565">
        <ele>1838.2</ele>
        <time>2025-08-15T09:38:22Z</time>
      </trkpt>
      <trkpt lat="45.75677" lon="6.5565">
        <ele>1838.4</ele>
        <time>2025-08-15T09:38:23Z</time>
      </trkpt>
      <trkpt lat="45.75675" lon="6.5565">
        <ele>1838.6</ele>
        <time>2025-08-15T09:38:24Z</time>
      </trkpt>
      <trkpt lat="45.75674" lon="6.55651">
        <ele>1838.7</ele>
        <time>2025-08-15T09:38:25Z</time>
      </trkpt>
      <trkpt lat="45.75672" lon="6.55652">
        <ele>1838.9</ele>
        <time>2025-08-15T09:38:26Z</time>
      </trkpt>
      <trkpt lat="45.75671" lon="6.55653">
        <ele>1839.1</ele>
        <time>2025-08-15T09:38:27Z</time>
      </trkpt>
      <trkpt lat="45.75669" lon="6.55654">
        <ele>1839.2</ele>
        <time>2025-08-15T09:38:28Z</time>
      </trkpt>
      <trkpt lat="45.75668" lon="6.55655">
        <ele>1839.4</ele>
        <time>2025-08-15T09:38:29Z</time>
      </trkpt>
      <trkpt lat="45.75666" lon="6.55655">
        <ele>1839.6</ele>
        <time>2025-08-15T09:38:30Z</time>
      </trkpt>
      <trkpt lat="45.75665" lon="6.55656">
        <ele>1839.7</ele>
        <time>2025-08-15T09:38:31Z</time>
      </trkpt>
      <trkpt lat="45.75663" lon="6.55657">
        <ele>1839.9</ele>
        <time>2025-08-15T09:38:32Z</time>
      </trkpt>
      <trkpt lat="45.75662" lon="6.55658">
        <ele>1840.1</ele>
        <time>2025-08-15T09:38:33Z</time>
      </trkpt>
      <trkpt lat="45.7566" lon="6.55659">
        <ele>1840.2</ele>
        <time>2025-08-15T09:38:34Z</time>
      </trkpt>
      <trkpt lat="45.75659" lon="6.5566">
        <ele>1840.4</ele>
        <time>2025-08-15T09:38:35Z</time>
      </trkpt>
      <trkpt lat="45.75658" lon="6.55661">
        <ele>1840.5</ele>
        <time>2025-08-15T09:38:36Z</time>
      </trkpt>
      <trkpt lat="45.75655" lon="6.55663">
        <ele>1840.8</ele>
        <time>2025-08-15T09:38:37Z</time>
      </trkpt>
      <trkpt lat="45.75654" lon="6.55664">
        <ele>1840.9</ele>
        <time>2025-08-15T09:38:38Z</time>
      </trkpt>
      <trkpt lat="45.75653" lon="6.55665">
        <ele>1841.1</ele>
        <time>2025-08-15T09:38:39Z</time>
      </trkpt>
      <trkpt lat="45.75651" lon="6.55665">
        <ele>1841.3</ele>
        <time>2025-08-15T09:38:40Z</time>
      </trkpt>
      <trkpt lat="45.7565" lon="6.55665">
        <ele>1841.4</ele>
        <time>2025-08-15T09:38:41Z</time>
      </trkpt>
      <trkpt lat="45.75648" lon="6.55666">
        <ele>1841.6</ele>
        <time>2025-08-15T09:38:42Z</time>
      </trkpt>
      <trkpt lat="45.75647" lon="6.55666">
        <ele>1841.7</ele>
        <time>2025-08-15T09:38:43Z</time>
      </trkpt>
      <trkpt lat="45.75645" lon="6.55667">
        <ele>1841.9</ele>
        <time>2025-08-15T09:38:44Z</time>
      </trkpt>
      <trkpt lat="45.75644" lon="6.55669">
        <ele>1842.1</ele>
        <time>2025-08-15T09:38:45Z</time>
      </trkpt>
      <trkpt lat="45.75643" lon="6.5567">
        <ele>1842.2</ele>
        <time>2025-08-15T09:38:46Z</time>
      </trkpt>
      <trkpt lat="45.75641" lon="6.55671">
        <ele>1842.4</ele>
        <time>2025-08-15T09:38:47Z</time>
      </trkpt>
      <trkpt lat="45.7564" lon="6.55672">
        <ele>1842.6</ele>
        <time>2025-08-15T09:38:48Z</time>
      </trkpt>
      <trkpt lat="45.75638" lon="6.55674">
        <ele>1842.9</ele>
        <time>2025-08-15T09:38:49Z</time>
      </trkpt>
      <trkpt lat="45.75637" lon="6.55674">
        <ele>1843</ele>
        <time>2025-08-15T09:38:50Z</time>
      </trkpt>
      <trkpt lat="45.75636" lon="6.55675">
        <ele>1843.2</ele>
        <time>2025-08-15T09:38:51Z</time>
      </trkpt>
      <trkpt lat="45.75634" lon="6.55675">
        <ele>1843.5</ele>
        <time>2025-08-15T09:38:52Z</time>
      </trkpt>
      <trkpt lat="45.75633" lon="6.55676">
        <ele>1843.7</ele>
        <time>2025-08-15T09:38:53Z</time>
      </trkpt>
      <trkpt lat="45.75631" lon="6.55677">
        <ele>1844</ele>
        <time>2025-08-15T09:38:54Z</time>
      </trkpt>
      <trkpt lat="45.75629" lon="6.55679">
        <ele>1844.3</ele>
        <time>2025-08-15T09:38:55Z</time>
      </trkpt>
      <trkpt lat="45.75628" lon="6.5568">
        <ele>1844.6</ele>
        <time>2025-08-15T09:38:56Z</time>
      </trkpt>
      <trkpt lat="45.75627" lon="6.55681">
        <ele>1844.8</ele>
        <time>2025-08-15T09:38:57Z</time>
      </trkpt>
      <trkpt lat="45.75625" lon="6.55682">
        <ele>1845.1</ele>
        <time>2025-08-15T09:38:58Z</time>
      </trkpt>
      <trkpt lat="45.75623" lon="6.55683">
        <ele>1845.4</ele>
        <time>2025-08-15T09:38:59Z</time>
      </trkpt>
      <trkpt lat="45.75622" lon="6.55683">
        <ele>1845.7</ele>
        <time>2025-08-15T09:39:00Z</time>
      </trkpt>
      <trkpt lat="45.7562" lon="6.55684">
        <ele>1846</ele>
        <time>2025-08-15T09:39:01Z</time>
      </trkpt>
      <trkpt lat="45.75618" lon="6.55685">
        <ele>1846.3</ele>
        <time>2025-08-15T09:39:02Z</time>
      </trkpt>
      <trkpt lat="45.75617" lon="6.55686">
        <ele>1846.5</ele>
        <time>2025-08-15T09:39:03Z</time>
      </trkpt>
      <trkpt lat="45.75616" lon="6.55687">
        <ele>1846.8</ele>
        <time>2025-08-15T09:39:04Z</time>
      </trkpt>
      <trkpt lat="45.75614" lon="6.55689">
        <ele>1847</ele>
        <time>2025-08-15T09:39:05Z</time>
      </trkpt>
      <trkpt lat="45.75613" lon="6.5569">
        <ele>1847.3</ele>
        <time>2025-08-15T09:39:06Z</time>
      </trkpt>
      <trkpt lat="45.75612" lon="6.55692">
        <ele>1847.6</ele>
        <time>2025-08-15T09:39:07Z</time>
      </trkpt>
      <trkpt lat="45.75611" lon="6.55693">
        <ele>1847.9</ele>
        <time>2025-08-15T09:39:08Z</time>
      </trkpt>
      <trkpt lat="45.75609" lon="6.55695">
        <ele>1848.2</ele>
        <time>2025-08-15T09:39:09Z</time>
      </trkpt>
      <trkpt lat="45.75608" lon="6.55697">
        <ele>1848.4</ele>
        <time>2025-08-15T09:39:10Z</time>
      </trkpt>
      <trkpt lat="45.75607" lon="6.55698">
        <ele>1848.6</ele>
        <time>2025-08-15T09:39:11Z</time>
      </trkpt>
      <trkpt lat="45.75606" lon="6.557">
        <ele>1848.9</ele>
        <time>2025-08-15T09:39:12Z</time>
      </trkpt>
      <trkpt lat="45.75605" lon="6.55701">
        <ele>1849.1</ele>
        <time>2025-08-15T09:39:13Z</time>
      </trkpt>
      <trkpt lat="45.75605" lon="6.55703">
        <ele>1849.2</ele>
        <time>2025-08-15T09:39:14Z</time>
      </trkpt>
      <trkpt lat="45.75605" lon="6.55705">
        <ele>1849.5</ele>
        <time>2025-08-15T09:39:15Z</time>
      </trkpt>
      <trkpt lat="45.75604" lon="6.55707">
        <ele>1849.7</ele>
        <time>2025-08-15T09:39:16Z</time>
      </trkpt>
      <trkpt lat="45.75604" lon="6.5571">
        <ele>1850</ele>
        <time>2025-08-15T09:39:17Z</time>
      </trkpt>
      <trkpt lat="45.75604" lon="6.55711">
        <ele>1850</ele>
        <time>2025-08-15T09:39:18Z</time>
      </trkpt>
      <trkpt lat="45.75604" lon="6.55713">
        <ele>1850.1</ele>
        <time>2025-08-15T09:39:19Z</time>
      </trkpt>
      <trkpt lat="45.75604" lon="6.55714">
        <ele>1850.1</ele>
        <time>2025-08-15T09:39:20Z</time>
      </trkpt>
      <trkpt lat="45.75604" lon="6.55716">
        <ele>1850.2</ele>
        <time>2025-08-15T09:39:21Z</time>
      </trkpt>
      <trkpt lat="45.75605" lon="6.55718">
        <ele>1850.3</ele>
        <time>2025-08-15T09:39:22Z</time>
      </trkpt>
      <trkpt lat="45.75606" lon="6.5572">
        <ele>1850.4</ele>
        <time>2025-08-15T09:39:23Z</time>
      </trkpt>
      <trkpt lat="45.75606" lon="6.55723">
        <ele>1850.5</ele>
        <time>2025-08-15T09:39:24Z</time>
      </trkpt>
      <trkpt lat="45.75606" lon="6.55724">
        <ele>1850.5</ele>
        <time>2025-08-15T09:39:25Z</time>
      </trkpt>
      <trkpt lat="45.75605" lon="6.55725">
        <ele>1850.6</ele>
        <time>2025-08-15T09:39:26Z</time>
      </trkpt>
      <trkpt lat="45.75604" lon="6.55726">
        <ele>1850.6</ele>
        <time>2025-08-15T09:39:27Z</time>
      </trkpt>
      <trkpt lat="45.75603" lon="6.55726">
        <ele>1850.7</ele>
        <time>2025-08-15T09:39:28Z</time>
      </trkpt>
      <trkpt lat="45.75602" lon="6.55726">
        <ele>1850.8</ele>
        <time>2025-08-15T09:39:29Z</time>
      </trkpt>
      <trkpt lat="45.75601" lon="6.55726">
        <ele>1850.8</ele>
        <time>2025-08-15T09:39:30Z</time>
      </trkpt>
      <trkpt lat="45.756" lon="6.55725">
        <ele>1850.9</ele>
        <time>2025-08-15T09:39:31Z</time>
      </trkpt>
      <trkpt lat="45.75599" lon="6.55724">
        <ele>1850.9</ele>
        <time>2025-08-15T09:39:32Z</time>
      </trkpt>
      <trkpt lat="45.75599" lon="6.55724">
        <ele>1850.9</ele>
        <time>2025-08-15T09:39:33Z</time>
      </trkpt>
      <trkpt lat="45.75599" lon="6.55724">
        <ele>1851</ele>
        <time>2025-08-15T09:39:34Z</time>
      </trkpt>
      <trkpt lat="45.756" lon="6.55724">
        <ele>1851</ele>
        <time>2025-08-15T09:39:35Z</time>
      </trkpt>
      <trkpt lat="45.756" lon="6.55725">
        <ele>1851</ele>
        <time>2025-08-15T09:39:36Z</time>
      </trkpt>
      <trkpt lat="45.756" lon="6.55725">
        <ele>1851</ele>
        <time>2025-08-15T09:39:37Z</time>
      </trkpt>
      <trkpt lat="45.756" lon="6.55725">
        <ele>1851</ele>
        <time>2025-08-15T09:39:38Z</time>
      </trkpt>
      <trkpt lat="45.756" lon="6.55725">
        <ele>1851</ele>
        <time>2025-08-15T09:39:39Z</time>
      </trkpt>
      <trkpt lat="45.756" lon="6.55725">
        <ele>1851</ele>
        <time>2025-08-15T09:39:40Z</time>
      </trkpt>
      <trkpt lat="45.756" lon="6.55725">
        <ele>1851</ele>
        <time>2025-08-15T09:39:41Z</time>
      </trkpt>
      <trkpt lat="45.756" lon="6.55725">
        <ele>1851</ele>
        <time>2025-08-15T09:39:42Z</time>
      </trkpt>
      <trkpt lat="45.756" lon="6.55724">
        <ele>1851.1</ele>
        <time>2025-08-15T09:39:43Z</time>
      </trkpt>
      <trkpt lat="45.75599" lon="6.55722">
        <ele>1851.2</ele>
        <time>2025-08-15T09:39:44Z</time>
      </trkpt>
      <trkpt lat="45.75597" lon="6.5572">
        <ele>1851.3</ele>
        <time>2025-08-15T09:39:47Z</time>
      </trkpt>
      <trkpt lat="45.75597" lon="6.5572">
        <ele>1851.3</ele>
        <time>2025-08-15T09:39:48Z</time>
      </trkpt>
      <trkpt lat="45.75598" lon="6.55721">
        <ele>1851.4</ele>
        <time>2025-08-15T09:39:49Z</time>
      </trkpt>
      <trkpt lat="45.75598" lon="6.55721">
        <ele>1851.4</ele>
        <time>2025-08-15T09:39:50Z</time>
      </trkpt>
      <trkpt lat="45.75598" lon="6.55721">
        <ele>1851.4</ele>
        <time>2025-08-15T09:39:51Z</time>
      </trkpt>
      <trkpt lat="45.75598" lon="6.55721">
        <ele>1851.4</ele>
        <time>2025-08-15T09:39:52Z</time>
      </trkpt>
      <trkpt lat="45.75598" lon="6.55721">
        <ele>1851.4</ele>
        <time>2025-08-15T09:39:53Z</time>
      </trkpt>
      <trkpt lat="45.75598" lon="6.55721">
        <ele>1851.4</ele>
        <time>2025-08-15T09:39:54Z</time>
      </trkpt>
      <trkpt lat="45.75598" lon="6.55722">
        <ele>1851.4</ele>
        <time>2025-08-15T09:39:55Z</time>
      </trkpt>
      <trkpt lat="45.75598" lon="6.55722">
        <ele>1851.4</ele>
        <time>2025-08-15T09:39:56Z</time>
      </trkpt>
      <trkpt lat="45.75598" lon="6.55722">
        <ele>1851.4</ele>
        <time>2025-08-15T09:39:57Z</time>
      </trkpt>
      <trkpt lat="45.756" lon="6.55724">
        <ele>1851.5</ele>
        <time>2025-08-15T09:40:36Z</time>
      </trkpt>
      <trkpt lat="45.75602" lon="6.55724">
        <ele>1851.6</ele>
        <time>2025-08-15T09:40:37Z</time>
      </trkpt>
      <trkpt lat="45.75605" lon="6.55727">
        <ele>1851.9</ele>
        <time>2025-08-15T09:40:38Z</time>
      </trkpt>
      <trkpt lat="45.75606" lon="6.55727">
        <ele>1852</ele>
        <time>2025-08-15T09:40:39Z</time>
      </trkpt>
      <trkpt lat="45.75607" lon="6.55729">
        <ele>1852.1</ele>
        <time>2025-08-15T09:40:40Z</time>
      </trkpt>
      <trkpt lat="45.75608" lon="6.5573">
        <ele>1852.2</ele>
        <time>2025-08-15T09:40:41Z</time>
      </trkpt>
      <trkpt lat="45.75609" lon="6.55732">
        <ele>1852.3</ele>
        <time>2025-08-15T09:40:42Z</time>
      </trkpt>
      <trkpt lat="45.7561" lon="6.55734">
        <ele>1852.4</ele>
        <time>2025-08-15T09:40:43Z</time>
      </trkpt>
      <trkpt lat="45.7561" lon="6.55735">
        <ele>1852.4</ele>
        <time>2025-08-15T09:40:44Z</time>
      </trkpt>
      <trkpt lat="45.7561" lon="6.55737">
        <ele>1852.5</ele>
        <time>2025-08-15T09:40:45Z</time>
      </trkpt>
      <trkpt lat="45.7561" lon="6.55739">
        <ele>1852.6</ele>
        <time>2025-08-15T09:40:46Z</time>
      </trkpt>
      <trkpt lat="45.7561" lon="6.55741">
        <ele>1852.7</ele>
        <time>2025-08-15T09:40:47Z</time>
      </trkpt>
      <trkpt lat="45.75611" lon="6.55742">
        <ele>1852.8</ele>
        <time>2025-08-15T09:40:48Z</time>
      </trkpt>
      <trkpt lat="45.75614" lon="6.55742">
        <ele>1853.1</ele>
        <time>2025-08-15T09:40:49Z</time>
      </trkpt>
      <trkpt lat="45.75615" lon="6.55743">
        <ele>1853.2</ele>
        <time>2025-08-15T09:40:50Z</time>
      </trkpt>
      <trkpt lat="45.75618" lon="6.55741">
        <ele>1853.4</ele>
        <time>2025-08-15T09:40:51Z</time>
      </trkpt>
      <trkpt lat="45.75619" lon="6.55741">
        <ele>1853.5</ele>
        <time>2025-08-15T09:40:52Z</time>
      </trkpt>
      <trkpt lat="45.75621" lon="6.55741">
        <ele>1853.6</ele>
        <time>2025-08-15T09:40:53Z</time>
      </trkpt>
      <trkpt lat="45.75622" lon="6.55741">
        <ele>1853.8</ele>
        <time>2025-08-15T09:40:54Z</time>
      </trkpt>
      <trkpt lat="45.75624" lon="6.55743">
        <ele>1853.9</ele>
        <time>2025-08-15T09:40:55Z</time>
      </trkpt>
      <trkpt lat="45.75625" lon="6.55744">
        <ele>1854</ele>
        <time>2025-08-15T09:40:56Z</time>
      </trkpt>
      <trkpt lat="45.75626" lon="6.55745">
        <ele>1854.2</ele>
        <time>2025-08-15T09:40:57Z</time>
      </trkpt>
      <trkpt lat="45.75628" lon="6.55746">
        <ele>1854.3</ele>
        <time>2025-08-15T09:40:58Z</time>
      </trkpt>
      <trkpt lat="45.75629" lon="6.55746">
        <ele>1854.4</ele>
        <time>2025-08-15T09:40:59Z</time>
      </trkpt>
      <trkpt lat="45.7563" lon="6.55747">
        <ele>1854.6</ele>
        <time>2025-08-15T09:41:00Z</time>
      </trkpt>
      <trkpt lat="45.75632" lon="6.55749">
        <ele>1854.8</ele>
        <time>2025-08-15T09:41:01Z</time>
      </trkpt>
      <trkpt lat="45.75633" lon="6.5575">
        <ele>1854.8</ele>
        <time>2025-08-15T09:41:02Z</time>
      </trkpt>
      <trkpt lat="45.75633" lon="6.55751">
        <ele>1854.9</ele>
        <time>2025-08-15T09:41:03Z</time>
      </trkpt>
      <trkpt lat="45.75635" lon="6.55753">
        <ele>1855.1</ele>
        <time>2025-08-15T09:41:04Z</time>
      </trkpt>
      <trkpt lat="45.75635" lon="6.55754">
        <ele>1855.2</ele>
        <time>2025-08-15T09:41:05Z</time>
      </trkpt>
      <trkpt lat="45.75636" lon="6.55754">
        <ele>1855.2</ele>
        <time>2025-08-15T09:41:06Z</time>
      </trkpt>
      <trkpt lat="45.75637" lon="6.55755">
        <ele>1855.4</ele>
        <time>2025-08-15T09:41:07Z</time>
      </trkpt>
      <trkpt lat="45.75638" lon="6.55756">
        <ele>1855.4</ele>
        <time>2025-08-15T09:41:08Z</time>
      </trkpt>
      <trkpt lat="45.75639" lon="6.55757">
        <ele>1855.5</ele>
        <time>2025-08-15T09:41:09Z</time>
      </trkpt>
      <trkpt lat="45.7564" lon="6.55758">
        <ele>1855.7</ele>
        <time>2025-08-15T09:41:10Z</time>
      </trkpt>
      <trkpt lat="45.75641" lon="6.5576">
        <ele>1855.8</ele>
        <time>2025-08-15T09:41:11Z</time>
      </trkpt>
      <trkpt lat="45.75641" lon="6.55762">
        <ele>1855.9</ele>
        <time>2025-08-15T09:41:12Z</time>
      </trkpt>
      <trkpt lat="45.75642" lon="6.55763">
        <ele>1856</ele>
        <time>2025-08-15T09:41:13Z</time>
      </trkpt>
      <trkpt lat="45.75643" lon="6.55764">
        <ele>1856.1</ele>
        <time>2025-08-15T09:41:14Z</time>
      </trkpt>
      <trkpt lat="45.75644" lon="6.55766">
        <ele>1856.2</ele>
        <time>2025-08-15T09:41:15Z</time>
      </trkpt>
      <trkpt lat="45.75645" lon="6.55767">
        <ele>1856.3</ele>
        <time>2025-08-15T09:41:16Z</time>
      </trkpt>
      <trkpt lat="45.75646" lon="6.55768">
        <ele>1856.4</ele>
        <time>2025-08-15T09:41:17Z</time>
      </trkpt>
      <trkpt lat="45.75647" lon="6.5577">
        <ele>1856.5</ele>
        <time>2025-08-15T09:41:18Z</time>
      </trkpt>
      <trkpt lat="45.75648" lon="6.55771">
        <ele>1856.7</ele>
        <time>2025-08-15T09:41:19Z</time>
      </trkpt>
      <trkpt lat="45.75649" lon="6.55772">
        <ele>1856.8</ele>
        <time>2025-08-15T09:41:20Z</time>
      </trkpt>
      <trkpt lat="45.75651" lon="6.55773">
        <ele>1856.9</ele>
        <time>2025-08-15T09:41:21Z</time>
      </trkpt>
      <trkpt lat="45.75652" lon="6.55774">
        <ele>1857</ele>
        <time>2025-08-15T09:41:22Z</time>
      </trkpt>
      <trkpt lat="45.75653" lon="6.55775">
        <ele>1857</ele>
        <time>2025-08-15T09:41:23Z</time>
      </trkpt>
      <trkpt lat="45.75654" lon="6.55776">
        <ele>1857.1</ele>
        <time>2025-08-15T09:41:24Z</time>
      </trkpt>
      <trkpt lat="45.75655" lon="6.55777">
        <ele>1857.2</ele>
        <time>2025-08-15T09:41:25Z</time>
      </trkpt>
      <trkpt lat="45.75657" lon="6.55778">
        <ele>1857.3</ele>
        <time>2025-08-15T09:41:26Z</time>
      </trkpt>
      <trkpt lat="45.75658" lon="6.55779">
        <ele>1857.4</ele>
        <time>2025-08-15T09:41:27Z</time>
      </trkpt>
      <trkpt lat="45.7566" lon="6.5578">
        <ele>1857.5</ele>
        <time>2025-08-15T09:41:28Z</time>
      </trkpt>
      <trkpt lat="45.75662" lon="6.55781">
        <ele>1857.6</ele>
        <time>2025-08-15T09:41:29Z</time>
      </trkpt>
      <trkpt lat="45.75663" lon="6.55781">
        <ele>1857.7</ele>
        <time>2025-08-15T09:41:30Z</time>
      </trkpt>
      <trkpt lat="45.75665" lon="6.55783">
        <ele>1857.8</ele>
        <time>2025-08-15T09:41:31Z</time>
      </trkpt>
      <trkpt lat="45.75666" lon="6.55783">
        <ele>1857.9</ele>
        <time>2025-08-15T09:41:32Z</time>
      </trkpt>
      <trkpt lat="45.75668" lon="6.55784">
        <ele>1858</ele>
        <time>2025-08-15T09:41:33Z</time>
      </trkpt>
      <trkpt lat="45.75669" lon="6.55784">
        <ele>1858</ele>
        <time>2025-08-15T09:41:34Z</time>
      </trkpt>
      <trkpt lat="45.75671" lon="6.55785">
        <ele>1858.1</ele>
        <time>2025-08-15T09:41:35Z</time>
      </trkpt>
      <trkpt lat="45.75672" lon="6.55786">
        <ele>1858.2</ele>
        <time>2025-08-15T09:41:36Z</time>
      </trkpt>
      <trkpt lat="45.75673" lon="6.55787">
        <ele>1858.2</ele>
        <time>2025-08-15T09:41:37Z</time>
      </trkpt>
      <trkpt lat="45.75673" lon="6.55787">
        <ele>1858.2</ele>
        <time>2025-08-15T09:41:38Z</time>
      </trkpt>
      <trkpt lat="45.75673" lon="6.55787">
        <ele>1858.2</ele>
        <time>2025-08-15T09:41:39Z</time>
      </trkpt>
      <trkpt lat="45.75672" lon="6.55786">
        <ele>1858.2</ele>
        <time>2025-08-15T09:41:40Z</time>
      </trkpt>
      <trkpt lat="45.75672" lon="6.55786">
        <ele>1858.2</ele>
        <time>2025-08-15T09:41:41Z</time>
      </trkpt>
      <trkpt lat="45.75673" lon="6.55787">
        <ele>1858.3</ele>
        <time>2025-08-15T09:41:42Z</time>
      </trkpt>
      <trkpt lat="45.75673" lon="6.55789">
        <ele>1858.3</ele>
        <time>2025-08-15T09:41:43Z</time>
      </trkpt>
      <trkpt lat="45.75673" lon="6.5579">
        <ele>1858.3</ele>
        <time>2025-08-15T09:41:44Z</time>
      </trkpt>
      <trkpt lat="45.75674" lon="6.55791">
        <ele>1858.4</ele>
        <time>2025-08-15T09:41:45Z</time>
      </trkpt>
      <trkpt lat="45.75674" lon="6.55792">
        <ele>1858.4</ele>
        <time>2025-08-15T09:41:46Z</time>
      </trkpt>
      <trkpt lat="45.75674" lon="6.55792">
        <ele>1858.4</ele>
        <time>2025-08-15T09:41:47Z</time>
      </trkpt>
      <trkpt lat="45.75674" lon="6.55793">
        <ele>1858.4</ele>
        <time>2025-08-15T09:41:48Z</time>
      </trkpt>
      <trkpt lat="45.75674" lon="6.55795">
        <ele>1858.5</ele>
        <time>2025-08-15T09:41:49Z</time>
      </trkpt>
      <trkpt lat="45.75674" lon="6.55795">
        <ele>1858.5</ele>
        <time>2025-08-15T09:41:50Z</time>
      </trkpt>
      <trkpt lat="45.75674" lon="6.55796">
        <ele>1858.5</ele>
        <time>2025-08-15T09:41:51Z</time>
      </trkpt>
      <trkpt lat="45.75673" lon="6.55797">
        <ele>1858.6</ele>
        <time>2025-08-15T09:41:52Z</time>
      </trkpt>
      <trkpt lat="45.75672" lon="6.55798">
        <ele>1858.6</ele>
        <time>2025-08-15T09:41:53Z</time>
      </trkpt>
      <trkpt lat="45.75672" lon="6.55799">
        <ele>1858.6</ele>
        <time>2025-08-15T09:41:54Z</time>
      </trkpt>
      <trkpt lat="45.75672" lon="6.55799">
        <ele>1858.6</ele>
        <time>2025-08-15T09:41:55Z</time>
      </trkpt>
      <trkpt lat="45.75672" lon="6.55799">
        <ele>1858.6</ele>
        <time>2025-08-15T09:41:56Z</time>
      </trkpt>
      <trkpt lat="45.75672" lon="6.558">
        <ele>1858.6</ele>
        <time>2025-08-15T09:41:57Z</time>
      </trkpt>
      <trkpt lat="45.75672" lon="6.558">
        <ele>1858.6</ele>
        <time>2025-08-15T09:41:58Z</time>
      </trkpt>
      <trkpt lat="45.75672" lon="6.558">
        <ele>1858.7</ele>
        <time>2025-08-15T09:41:59Z</time>
      </trkpt>
      <trkpt lat="45.75672" lon="6.558">
        <ele>1858.7</ele>
        <time>2025-08-15T09:42:00Z</time>
      </trkpt>
      <trkpt lat="45.75672" lon="6.558">
        <ele>1858.7</ele>
        <time>2025-08-15T09:42:01Z</time>
      </trkpt>
      <trkpt lat="45.75672" lon="6.558">
        <ele>1858.7</ele>
        <time>2025-08-15T09:42:02Z</time>
      </trkpt>
      <trkpt lat="45.75672" lon="6.55799">
        <ele>1858.7</ele>
        <time>2025-08-15T09:42:03Z</time>
      </trkpt>
      <trkpt lat="45.75672" lon="6.558">
        <ele>1858.7</ele>
        <time>2025-08-15T09:42:04Z</time>
      </trkpt>
      <trkpt lat="45.75672" lon="6.558">
        <ele>1858.7</ele>
        <time>2025-08-15T09:42:05Z</time>
      </trkpt>
      <trkpt lat="45.75674" lon="6.55798">
        <ele>1858.8</ele>
        <time>2025-08-15T09:43:11Z</time>
      </trkpt>
      <trkpt lat="45.75674" lon="6.55799">
        <ele>1858.8</ele>
        <time>2025-08-15T09:43:12Z</time>
      </trkpt>
      <trkpt lat="45.75674" lon="6.558">
        <ele>1858.8</ele>
        <time>2025-08-15T09:43:13Z</time>
      </trkpt>
      <trkpt lat="45.75674" lon="6.558">
        <ele>1858.9</ele>
        <time>2025-08-15T09:43:14Z</time>
      </trkpt>
      <trkpt lat="45.75673" lon="6.55801">
        <ele>1858.9</ele>
        <time>2025-08-15T09:43:15Z</time>
      </trkpt>
      <trkpt lat="45.75673" lon="6.55801">
        <ele>1858.9</ele>
        <time>2025-08-15T09:43:16Z</time>
      </trkpt>
      <trkpt lat="45.75673" lon="6.55801">
        <ele>1858.9</ele>
        <time>2025-08-15T09:43:17Z</time>
      </trkpt>
      <trkpt lat="45.75673" lon="6.55801">
        <ele>1858.9</ele>
        <time>2025-08-15T09:43:18Z</time>
      </trkpt>
      <trkpt lat="45.75673" lon="6.55802">
        <ele>1858.9</ele>
        <time>2025-08-15T09:43:19Z</time>
      </trkpt>
      <trkpt lat="45.75673" lon="6.55801">
        <ele>1858.9</ele>
        <time>2025-08-15T09:43:20Z</time>
      </trkpt>
      <trkpt lat="45.75673" lon="6.55799">
        <ele>1858.9</ele>
        <time>2025-08-15T09:43:21Z</time>
      </trkpt>
      <trkpt lat="45.75672" lon="6.558">
        <ele>1859</ele>
        <time>2025-08-15T09:44:54Z</time>
      </trkpt>
      <trkpt lat="45.75672" lon="6.558">
        <ele>1859</ele>
        <time>2025-08-15T09:44:55Z</time>
      </trkpt>
      <trkpt lat="45.75672" lon="6.55799">
        <ele>1859</ele>
        <time>2025-08-15T09:44:56Z</time>
      </trkpt>
      <trkpt lat="45.75672" lon="6.55798">
        <ele>1859</ele>
        <time>2025-08-15T09:44:57Z</time>
      </trkpt>
      <trkpt lat="45.75673" lon="6.55798">
        <ele>1859.1</ele>
        <time>2025-08-15T09:44:58Z</time>
      </trkpt>
      <trkpt lat="45.75672" lon="6.55798">
        <ele>1859.1</ele>
        <time>2025-08-15T09:44:59Z</time>
      </trkpt>
      <trkpt lat="45.75672" lon="6.55797">
        <ele>1859.1</ele>
        <time>2025-08-15T09:45:00Z</time>
      </trkpt>
      <trkpt lat="45.75672" lon="6.55796">
        <ele>1859.1</ele>
        <time>2025-08-15T09:45:01Z</time>
      </trkpt>
      <trkpt lat="45.75672" lon="6.55794">
        <ele>1859.1</ele>
        <time>2025-08-15T09:45:02Z</time>
      </trkpt>
      <trkpt lat="45.75672" lon="6.55793">
        <ele>1859.2</ele>
        <time>2025-08-15T09:45:03Z</time>
      </trkpt>
      <trkpt lat="45.75673" lon="6.55792">
        <ele>1859.2</ele>
        <time>2025-08-15T09:45:04Z</time>
      </trkpt>
      <trkpt lat="45.75673" lon="6.55791">
        <ele>1859.2</ele>
        <time>2025-08-15T09:45:05Z</time>
      </trkpt>
      <trkpt lat="45.75673" lon="6.5579">
        <ele>1859.2</ele>
        <time>2025-08-15T09:45:06Z</time>
      </trkpt>
      <trkpt lat="45.75673" lon="6.55789">
        <ele>1859.2</ele>
        <time>2025-08-15T09:47:53Z</time>
      </trkpt>
      <trkpt lat="45.75673" lon="6.55788">
        <ele>1859.2</ele>
        <time>2025-08-15T09:47:54Z</time>
      </trkpt>
      <trkpt lat="45.7567" lon="6.55786">
        <ele>1859.1</ele>
        <time>2025-08-15T09:47:55Z</time>
      </trkpt>
      <trkpt lat="45.75667" lon="6.55787">
        <ele>1859</ele>
        <time>2025-08-15T09:47:56Z</time>
      </trkpt>
      <trkpt lat="45.75667" lon="6.55789">
        <ele>1858.9</ele>
        <time>2025-08-15T09:47:57Z</time>
      </trkpt>
      <trkpt lat="45.75666" lon="6.55789">
        <ele>1858.8</ele>
        <time>2025-08-15T09:47:58Z</time>
      </trkpt>
      <trkpt lat="45.75666" lon="6.55789">
        <ele>1858.8</ele>
        <time>2025-08-15T09:47:59Z</time>
      </trkpt>
      <trkpt lat="45.75665" lon="6.55789">
        <ele>1858.8</ele>
        <time>2025-08-15T09:48:00Z</time>
      </trkpt>
      <trkpt lat="45.75665" lon="6.55788">
        <ele>1858.8</ele>
        <time>2025-08-15T09:48:01Z</time>
      </trkpt>
      <trkpt lat="45.75665" lon="6.55788">
        <ele>1858.8</ele>
        <time>2025-08-15T09:48:02Z</time>
      </trkpt>
      <trkpt lat="45.75664" lon="6.55788">
        <ele>1858.7</ele>
        <time>2025-08-15T09:48:03Z</time>
      </trkpt>
      <trkpt lat="45.75664" lon="6.55787">
        <ele>1858.7</ele>
        <time>2025-08-15T09:48:04Z</time>
      </trkpt>
      <trkpt lat="45.75664" lon="6.55787">
        <ele>1858.7</ele>
        <time>2025-08-15T09:48:05Z</time>
      </trkpt>
      <trkpt lat="45.75663" lon="6.55786">
        <ele>1858.7</ele>
        <time>2025-08-15T09:48:06Z</time>
      </trkpt>
      <trkpt lat="45.75663" lon="6.55786">
        <ele>1858.7</ele>
        <time>2025-08-15T09:48:07Z</time>
      </trkpt>
      <trkpt lat="45.75663" lon="6.55786">
        <ele>1858.6</ele>
        <time>2025-08-15T09:48:08Z</time>
      </trkpt>
      <trkpt lat="45.75662" lon="6.55785">
        <ele>1858.6</ele>
        <time>2025-08-15T09:48:09Z</time>
      </trkpt>
      <trkpt lat="45.75662" lon="6.55785">
        <ele>1858.6</ele>
        <time>2025-08-15T09:48:10Z</time>
      </trkpt>
      <trkpt lat="45.75662" lon="6.55785">
        <ele>1858.6</ele>
        <time>2025-08-15T09:48:11Z</time>
      </trkpt>
      <trkpt lat="45.75661" lon="6.55784">
        <ele>1858.6</ele>
        <time>2025-08-15T09:49:40Z</time>
      </trkpt>
      <trkpt lat="45.75661" lon="6.55784">
        <ele>1858.5</ele>
        <time>2025-08-15T09:49:41Z</time>
      </trkpt>
      <trkpt lat="45.75661" lon="6.55784">
        <ele>1858.5</ele>
        <time>2025-08-15T09:49:42Z</time>
      </trkpt>
      <trkpt lat="45.75659" lon="6.55781">
        <ele>1858.3</ele>
        <time>2025-08-15T09:49:43Z</time>
      </trkpt>
      <trkpt lat="45.75654" lon="6.55775">
        <ele>1857.9</ele>
        <time>2025-08-15T09:49:44Z</time>
      </trkpt>
      <trkpt lat="45.75652" lon="6.55772">
        <ele>1857.7</ele>
        <time>2025-08-15T09:49:45Z</time>
      </trkpt>
      <trkpt lat="45.75651" lon="6.55769">
        <ele>1857.4</ele>
        <time>2025-08-15T09:49:46Z</time>
      </trkpt>
      <trkpt lat="45.75648" lon="6.55766">
        <ele>1857.1</ele>
        <time>2025-08-15T09:49:47Z</time>
      </trkpt>
      <trkpt lat="45.75645" lon="6.55763">
        <ele>1856.7</ele>
        <time>2025-08-15T09:49:48Z</time>
      </trkpt>
      <trkpt lat="45.75644" lon="6.55762">
        <ele>1856.5</ele>
        <time>2025-08-15T09:49:49Z</time>
      </trkpt>
      <trkpt lat="45.75642" lon="6.55759">
        <ele>1856.1</ele>
        <time>2025-08-15T09:49:50Z</time>
      </trkpt>
      <trkpt lat="45.75639" lon="6.55756">
        <ele>1855.6</ele>
        <time>2025-08-15T09:49:51Z</time>
      </trkpt>
      <trkpt lat="45.75636" lon="6.55752">
        <ele>1855</ele>
        <time>2025-08-15T09:49:52Z</time>
      </trkpt>
      <trkpt lat="45.75632" lon="6.55748">
        <ele>1854.3</ele>
        <time>2025-08-15T09:49:53Z</time>
      </trkpt>
      <trkpt lat="45.75628" lon="6.55744">
        <ele>1853.6</ele>
        <time>2025-08-15T09:49:54Z</time>
      </trkpt>
      <trkpt lat="45.75623" lon="6.5574">
        <ele>1852.9</ele>
        <time>2025-08-15T09:49:55Z</time>
      </trkpt>
      <trkpt lat="45.75619" lon="6.55735">
        <ele>1852.3</ele>
        <time>2025-08-15T09:49:56Z</time>
      </trkpt>
      <trkpt lat="45.75616" lon="6.55732">
        <ele>1851.8</ele>
        <time>2025-08-15T09:49:57Z</time>
      </trkpt>
      <trkpt lat="45.75613" lon="6.55728">
        <ele>1851.4</ele>
        <time>2025-08-15T09:49:58Z</time>
      </trkpt>
      <trkpt lat="45.7561" lon="6.55725">
        <ele>1851.1</ele>
        <time>2025-08-15T09:49:59Z</time>
      </trkpt>
      <trkpt lat="45.75608" lon="6.55722">
        <ele>1850.8</ele>
        <time>2025-08-15T09:50:00Z</time>
      </trkpt>
      <trkpt lat="45.75606" lon="6.55718">
        <ele>1850.5</ele>
        <time>2025-08-15T09:50:01Z</time>
      </trkpt>
      <trkpt lat="45.75606" lon="6.55717">
        <ele>1850.4</ele>
        <time>2025-08-15T09:50:02Z</time>
      </trkpt>
      <trkpt lat="45.75605" lon="6.55712">
        <ele>1850.2</ele>
        <time>2025-08-15T09:50:03Z</time>
      </trkpt>
      <trkpt lat="45.75605" lon="6.55711">
        <ele>1850.1</ele>
        <time>2025-08-15T09:50:04Z</time>
      </trkpt>
      <trkpt lat="45.75605" lon="6.55707">
        <ele>1849.7</ele>
        <time>2025-08-15T09:50:05Z</time>
      </trkpt>
      <trkpt lat="45.75607" lon="6.55701">
        <ele>1849.1</ele>
        <time>2025-08-15T09:50:06Z</time>
      </trkpt>
      <trkpt lat="45.75607" lon="6.557">
        <ele>1848.9</ele>
        <time>2025-08-15T09:50:07Z</time>
      </trkpt>
      <trkpt lat="45.75609" lon="6.55696">
        <ele>1848.4</ele>
        <time>2025-08-15T09:50:08Z</time>
      </trkpt>
      <trkpt lat="45.75612" lon="6.55693">
        <ele>1847.9</ele>
        <time>2025-08-15T09:50:09Z</time>
      </trkpt>
      <trkpt lat="45.75614" lon="6.55691">
        <ele>1847.4</ele>
        <time>2025-08-15T09:50:10Z</time>
      </trkpt>
      <trkpt lat="45.75617" lon="6.55689">
        <ele>1846.8</ele>
        <time>2025-08-15T09:50:11Z</time>
      </trkpt>
      <trkpt lat="45.7562" lon="6.55687">
        <ele>1846.4</ele>
        <time>2025-08-15T09:50:12Z</time>
      </trkpt>
      <trkpt lat="45.75623" lon="6.55685">
        <ele>1845.7</ele>
        <time>2025-08-15T09:50:13Z</time>
      </trkpt>
      <trkpt lat="45.75625" lon="6.55685">
        <ele>1845.5</ele>
        <time>2025-08-15T09:50:14Z</time>
      </trkpt>
      <trkpt lat="45.75628" lon="6.55684">
        <ele>1844.9</ele>
        <time>2025-08-15T09:50:15Z</time>
      </trkpt>
      <trkpt lat="45.7563" lon="6.55683">
        <ele>1844.7</ele>
        <time>2025-08-15T09:50:16Z</time>
      </trkpt>
      <trkpt lat="45.75633" lon="6.55682">
        <ele>1844.1</ele>
        <time>2025-08-15T09:50:17Z</time>
      </trkpt>
      <trkpt lat="45.75634" lon="6.55681">
        <ele>1843.9</ele>
        <time>2025-08-15T09:50:18Z</time>
      </trkpt>
      <trkpt lat="45.75637" lon="6.5568">
        <ele>1843.4</ele>
        <time>2025-08-15T09:50:19Z</time>
      </trkpt>
      <trkpt lat="45.75638" lon="6.55679">
        <ele>1843.3</ele>
        <time>2025-08-15T09:50:20Z</time>
      </trkpt>
      <trkpt lat="45.75641" lon="6.55678">
        <ele>1842.8</ele>
        <time>2025-08-15T09:50:21Z</time>
      </trkpt>
      <trkpt lat="45.75641" lon="6.55677">
        <ele>1842.7</ele>
        <time>2025-08-15T09:50:22Z</time>
      </trkpt>
      <trkpt lat="45.75643" lon="6.55676">
        <ele>1842.5</ele>
        <time>2025-08-15T09:50:23Z</time>
      </trkpt>
      <trkpt lat="45.75644" lon="6.55676">
        <ele>1842.3</ele>
        <time>2025-08-15T09:50:24Z</time>
      </trkpt>
      <trkpt lat="45.75645" lon="6.55675">
        <ele>1842.2</ele>
        <time>2025-08-15T09:50:25Z</time>
      </trkpt>
      <trkpt lat="45.75645" lon="6.55675">
        <ele>1842.2</ele>
        <time>2025-08-15T09:50:26Z</time>
      </trkpt>
      <trkpt lat="45.75645" lon="6.55674">
        <ele>1842.1</ele>
        <time>2025-08-15T09:50:27Z</time>
      </trkpt>
      <trkpt lat="45.75645" lon="6.55674">
        <ele>1842.1</ele>
        <time>2025-08-15T09:50:28Z</time>
      </trkpt>
      <trkpt lat="45.75645" lon="6.55674">
        <ele>1842.1</ele>
        <time>2025-08-15T09:50:29Z</time>
      </trkpt>
      <trkpt lat="45.75645" lon="6.55674">
        <ele>1842</ele>
        <time>2025-08-15T09:50:30Z</time>
      </trkpt>
      <trkpt lat="45.75645" lon="6.55674">
        <ele>1842</ele>
        <time>2025-08-15T09:50:31Z</time>
      </trkpt>
      <trkpt lat="45.75645" lon="6.55674">
        <ele>1842</ele>
        <time>2025-08-15T09:50:32Z</time>
      </trkpt>
      <trkpt lat="45.75645" lon="6.55674">
        <ele>1842</ele>
        <time>2025-08-15T09:50:33Z</time>
      </trkpt>
      <trkpt lat="45.75645" lon="6.55675">
        <ele>1841.9</ele>
        <time>2025-08-15T09:50:34Z</time>
      </trkpt>
      <trkpt lat="45.75645" lon="6.55675">
        <ele>1841.9</ele>
        <time>2025-08-15T09:50:35Z</time>
      </trkpt>
      <trkpt lat="45.75645" lon="6.55675">
        <ele>1841.9</ele>
        <time>2025-08-15T09:50:36Z</time>
      </trkpt>
      <trkpt lat="45.75645" lon="6.55675">
        <ele>1841.9</ele>
        <time>2025-08-15T09:50:37Z</time>
      </trkpt>
      <trkpt lat="45.75649" lon="6.55666">
        <ele>1841</ele>
        <time>2025-08-15T09:51:01Z</time>
      </trkpt>
      <trkpt lat="45.7565" lon="6.55662">
        <ele>1840.6</ele>
        <time>2025-08-15T09:51:02Z</time>
      </trkpt>
      <trkpt lat="45.75652" lon="6.55658">
        <ele>1840.1</ele>
        <time>2025-08-15T09:51:03Z</time>
      </trkpt>
      <trkpt lat="45.75655" lon="6.55655">
        <ele>1839.6</ele>
        <time>2025-08-15T09:51:04Z</time>
      </trkpt>
      <trkpt lat="45.75657" lon="6.5565">
        <ele>1839.1</ele>
        <time>2025-08-15T09:51:05Z</time>
      </trkpt>
      <trkpt lat="45.7566" lon="6.55645">
        <ele>1838.5</ele>
        <time>2025-08-15T09:51:06Z</time>
      </trkpt>
      <trkpt lat="45.75666" lon="6.55645">
        <ele>1837.8</ele>
        <time>2025-08-15T09:51:07Z</time>
      </trkpt>
      <trkpt lat="45.75671" lon="6.55644">
        <ele>1837</ele>
        <time>2025-08-15T09:51:08Z</time>
      </trkpt>
      <trkpt lat="45.75675" lon="6.55638">
        <ele>1836.3</ele>
        <time>2025-08-15T09:51:09Z</time>
      </trkpt>
      <trkpt lat="45.75677" lon="6.5563">
        <ele>1835.4</ele>
        <time>2025-08-15T09:51:10Z</time>
      </trkpt>
      <trkpt lat="45.75682" lon="6.5563">
        <ele>1834.8</ele>
        <time>2025-08-15T09:51:11Z</time>
      </trkpt>
      <trkpt lat="45.75685" lon="6.5563">
        <ele>1834.4</ele>
        <time>2025-08-15T09:51:12Z</time>
      </trkpt>
      <trkpt lat="45.75686" lon="6.55635">
        <ele>1834.1</ele>
        <time>2025-08-15T09:51:13Z</time>
      </trkpt>
      <trkpt lat="45.75691" lon="6.55634">
        <ele>1833.7</ele>
        <time>2025-08-15T09:51:14Z</time>
      </trkpt>
      <trkpt lat="45.75692" lon="6.55626">
        <ele>1833.2</ele>
        <time>2025-08-15T09:51:15Z</time>
      </trkpt>
      <trkpt lat="45.75691" lon="6.5562">
        <ele>1832.7</ele>
        <time>2025-08-15T09:51:16Z</time>
      </trkpt>
      <trkpt lat="45.75696" lon="6.55621">
        <ele>1832.3</ele>
        <time>2025-08-15T09:51:17Z</time>
      </trkpt>
      <trkpt lat="45.75699" lon="6.55623">
        <ele>1831.9</ele>
        <time>2025-08-15T09:51:19Z</time>
      </trkpt>
      <trkpt lat="45.75703" lon="6.55624">
        <ele>1831.4</ele>
        <time>2025-08-15T09:51:20Z</time>
      </trkpt>
      <trkpt lat="45.75706" lon="6.5562">
        <ele>1831.1</ele>
        <time>2025-08-15T09:51:21Z</time>
      </trkpt>
      <trkpt lat="45.75706" lon="6.55615">
        <ele>1830.7</ele>
        <time>2025-08-15T09:51:22Z</time>
      </trkpt>
      <trkpt lat="45.75706" lon="6.5561">
        <ele>1830.3</ele>
        <time>2025-08-15T09:51:23Z</time>
      </trkpt>
      <trkpt lat="45.75709" lon="6.55606">
        <ele>1830</ele>
        <time>2025-08-15T09:51:24Z</time>
      </trkpt>
      <trkpt lat="45.75714" lon="6.55606">
        <ele>1829.6</ele>
        <time>2025-08-15T09:51:25Z</time>
      </trkpt>
      <trkpt lat="45.75719" lon="6.5561">
        <ele>1829.2</ele>
        <time>2025-08-15T09:51:26Z</time>
      </trkpt>
      <trkpt lat="45.75722" lon="6.55612">
        <ele>1829</ele>
        <time>2025-08-15T09:51:27Z</time>
      </trkpt>
      <trkpt lat="45.75724" lon="6.5561">
        <ele>1828.8</ele>
        <time>2025-08-15T09:51:28Z</time>
      </trkpt>
      <trkpt lat="45.75727" lon="6.55605">
        <ele>1828.5</ele>
        <time>2025-08-15T09:51:29Z</time>
      </trkpt>
      <trkpt lat="45.75727" lon="6.55598">
        <ele>1828.1</ele>
        <time>2025-08-15T09:51:30Z</time>
      </trkpt>
      <trkpt lat="45.75724" lon="6.55594">
        <ele>1827.8</ele>
        <time>2025-08-15T09:51:31Z</time>
      </trkpt>
      <trkpt lat="45.75719" lon="6.55594">
        <ele>1827.3</ele>
        <time>2025-08-15T09:51:32Z</time>
      </trkpt>
      <trkpt lat="45.75715" lon="6.55594">
        <ele>1826.9</ele>
        <time>2025-08-15T09:51:33Z</time>
      </trkpt>
      <trkpt lat="45.75715" lon="6.5559">
        <ele>1826.5</ele>
        <time>2025-08-15T09:51:34Z</time>
      </trkpt>
      <trkpt lat="45.75718" lon="6.55585">
        <ele>1825.8</ele>
        <time>2025-08-15T09:51:35Z</time>
      </trkpt>
      <trkpt lat="45.75722" lon="6.55583">
        <ele>1825.2</ele>
        <time>2025-08-15T09:51:36Z</time>
      </trkpt>
      <trkpt lat="45.75727" lon="6.55582">
        <ele>1824.5</ele>
        <time>2025-08-15T09:51:37Z</time>
      </trkpt>
      <trkpt lat="45.75731" lon="6.55577">
        <ele>1823.5</ele>
        <time>2025-08-15T09:51:38Z</time>
      </trkpt>
      <trkpt lat="45.75733" lon="6.55569">
        <ele>1822.6</ele>
        <time>2025-08-15T09:51:39Z</time>
      </trkpt>
      <trkpt lat="45.75734" lon="6.55562">
        <ele>1822</ele>
        <time>2025-08-15T09:51:40Z</time>
      </trkpt>
      <trkpt lat="45.75732" lon="6.55556">
        <ele>1821.4</ele>
        <time>2025-08-15T09:51:41Z</time>
      </trkpt>
      <trkpt lat="45.75735" lon="6.5555">
        <ele>1820.8</ele>
        <time>2025-08-15T09:51:42Z</time>
      </trkpt>
      <trkpt lat="45.75739" lon="6.55546">
        <ele>1820.3</ele>
        <time>2025-08-15T09:51:43Z</time>
      </trkpt>
      <trkpt lat="45.75745" lon="6.55543">
        <ele>1819.6</ele>
        <time>2025-08-15T09:51:44Z</time>
      </trkpt>
      <trkpt lat="45.7575" lon="6.55543">
        <ele>1819.1</ele>
        <time>2025-08-15T09:51:45Z</time>
      </trkpt>
      <trkpt lat="45.75754" lon="6.55549">
        <ele>1818.4</ele>
        <time>2025-08-15T09:51:46Z</time>
      </trkpt>
      <trkpt lat="45.75758" lon="6.55555">
        <ele>1817.8</ele>
        <time>2025-08-15T09:51:47Z</time>
      </trkpt>
      <trkpt lat="45.75763" lon="6.55551">
        <ele>1817.2</ele>
        <time>2025-08-15T09:51:48Z</time>
      </trkpt>
      <trkpt lat="45.75767" lon="6.55545">
        <ele>1816.6</ele>
        <time>2025-08-15T09:51:49Z</time>
      </trkpt>
      <trkpt lat="45.75774" lon="6.55545">
        <ele>1815.9</ele>
        <time>2025-08-15T09:51:50Z</time>
      </trkpt>
      <trkpt lat="45.7578" lon="6.55549">
        <ele>1815.4</ele>
        <time>2025-08-15T09:51:51Z</time>
      </trkpt>
      <trkpt lat="45.75784" lon="6.55546">
        <ele>1815</ele>
        <time>2025-08-15T09:51:52Z</time>
      </trkpt>
      <trkpt lat="45.75784" lon="6.55536">
        <ele>1814.4</ele>
        <time>2025-08-15T09:51:53Z</time>
      </trkpt>
      <trkpt lat="45.7578" lon="6.55528">
        <ele>1813.7</ele>
        <time>2025-08-15T09:51:54Z</time>
      </trkpt>
      <trkpt lat="45.75773" lon="6.55527">
        <ele>1813.1</ele>
        <time>2025-08-15T09:51:55Z</time>
      </trkpt>
      <trkpt lat="45.75769" lon="6.5553">
        <ele>1812.5</ele>
        <time>2025-08-15T09:51:56Z</time>
      </trkpt>
      <trkpt lat="45.75766" lon="6.55532">
        <ele>1812.3</ele>
        <time>2025-08-15T09:51:57Z</time>
      </trkpt>
      <trkpt lat="45.75767" lon="6.55532">
        <ele>1812.2</ele>
        <time>2025-08-15T09:51:58Z</time>
      </trkpt>
      <trkpt lat="45.75767" lon="6.55531">
        <ele>1812.2</ele>
        <time>2025-08-15T09:51:59Z</time>
      </trkpt>
      <trkpt lat="45.75768" lon="6.55532">
        <ele>1812.1</ele>
        <time>2025-08-15T09:52:00Z</time>
      </trkpt>
      <trkpt lat="45.75768" lon="6.55532">
        <ele>1812.1</ele>
        <time>2025-08-15T09:52:01Z</time>
      </trkpt>
      <trkpt lat="45.75768" lon="6.55532">
        <ele>1812.1</ele>
        <time>2025-08-15T09:52:02Z</time>
      </trkpt>
      <trkpt lat="45.75768" lon="6.55531">
        <ele>1812.1</ele>
        <time>2025-08-15T09:52:03Z</time>
      </trkpt>
      <trkpt lat="45.75768" lon="6.55531">
        <ele>1812.1</ele>
        <time>2025-08-15T09:52:04Z</time>
      </trkpt>
      <trkpt lat="45.75768" lon="6.55531">
        <ele>1812</ele>
        <time>2025-08-15T09:52:05Z</time>
      </trkpt>
      <trkpt lat="45.75768" lon="6.55531">
        <ele>1812</ele>
        <time>2025-08-15T09:52:06Z</time>
      </trkpt>
      <trkpt lat="45.75768" lon="6.55531">
        <ele>1812</ele>
        <time>2025-08-15T09:52:07Z</time>
      </trkpt>
      <trkpt lat="45.75768" lon="6.55531">
        <ele>1812</ele>
        <time>2025-08-15T09:52:08Z</time>
      </trkpt>
      <trkpt lat="45.75768" lon="6.55531">
        <ele>1812</ele>
        <time>2025-08-15T09:52:09Z</time>
      </trkpt>
      <trkpt lat="45.75763" lon="6.55526">
        <ele>1811.4</ele>
        <time>2025-08-15T09:52:42Z</time>
      </trkpt>
      <trkpt lat="45.75762" lon="6.55526">
        <ele>1811.3</ele>
        <time>2025-08-15T09:52:43Z</time>
      </trkpt>
      <trkpt lat="45.75759" lon="6.55524">
        <ele>1811.1</ele>
        <time>2025-08-15T09:52:44Z</time>
      </trkpt>
      <trkpt lat="45.75758" lon="6.55522">
        <ele>1810.9</ele>
        <time>2025-08-15T09:52:45Z</time>
      </trkpt>
      <trkpt lat="45.75757" lon="6.55516">
        <ele>1810.6</ele>
        <time>2025-08-15T09:52:46Z</time>
      </trkpt>
      <trkpt lat="45.7576" lon="6.55511">
        <ele>1810.2</ele>
        <time>2025-08-15T09:52:47Z</time>
      </trkpt>
      <trkpt lat="45.75765" lon="6.55508">
        <ele>1809.7</ele>
        <time>2025-08-15T09:52:48Z</time>
      </trkpt>
      <trkpt lat="45.75771" lon="6.55507">
        <ele>1809.2</ele>
        <time>2025-08-15T09:52:49Z</time>
      </trkpt>
      <trkpt lat="45.75774" lon="6.55505">
        <ele>1809.2</ele>
        <time>2025-08-15T09:52:50Z</time>
      </trkpt>
      <trkpt lat="45.75776" lon="6.55503">
        <ele>1809.2</ele>
        <time>2025-08-15T09:52:51Z</time>
      </trkpt>
      <trkpt lat="45.75778" lon="6.55502">
        <ele>1809.2</ele>
        <time>2025-08-15T09:52:52Z</time>
      </trkpt>
      <trkpt lat="45.75779" lon="6.55502">
        <ele>1809.2</ele>
        <time>2025-08-15T09:52:53Z</time>
      </trkpt>
      <trkpt lat="45.7578" lon="6.55498">
        <ele>1809.2</ele>
        <time>2025-08-15T09:52:54Z</time>
      </trkpt>
      <trkpt lat="45.75781" lon="6.55494">
        <ele>1809.2</ele>
        <time>2025-08-15T09:52:55Z</time>
      </trkpt>
      <trkpt lat="45.7578" lon="6.55489">
        <ele>1809.2</ele>
        <time>2025-08-15T09:52:56Z</time>
      </trkpt>
      <trkpt lat="45.75778" lon="6.55486">
        <ele>1809.1</ele>
        <time>2025-08-15T09:52:57Z</time>
      </trkpt>
      <trkpt lat="45.75774" lon="6.55483">
        <ele>1809</ele>
        <time>2025-08-15T09:52:58Z</time>
      </trkpt>
      <trkpt lat="45.75771" lon="6.55477">
        <ele>1808.8</ele>
        <time>2025-08-15T09:52:59Z</time>
      </trkpt>
      <trkpt lat="45.75773" lon="6.55467">
        <ele>1808.4</ele>
        <time>2025-08-15T09:53:00Z</time>
      </trkpt>
      <trkpt lat="45.75774" lon="6.55458">
        <ele>1807.8</ele>
        <time>2025-08-15T09:53:01Z</time>
      </trkpt>
      <trkpt lat="45.7577" lon="6.55452">
        <ele>1807.2</ele>
        <time>2025-08-15T09:53:02Z</time>
      </trkpt>
      <trkpt lat="45.75768" lon="6.55445">
        <ele>1806.7</ele>
        <time>2025-08-15T09:53:03Z</time>
      </trkpt>
      <trkpt lat="45.75772" lon="6.5544">
        <ele>1806.1</ele>
        <time>2025-08-15T09:53:04Z</time>
      </trkpt>
      <trkpt lat="45.75779" lon="6.55438">
        <ele>1805.5</ele>
        <time>2025-08-15T09:53:05Z</time>
      </trkpt>
      <trkpt lat="45.75783" lon="6.55436">
        <ele>1805</ele>
        <time>2025-08-15T09:53:06Z</time>
      </trkpt>
      <trkpt lat="45.75781" lon="6.5543">
        <ele>1804.5</ele>
        <time>2025-08-15T09:53:07Z</time>
      </trkpt>
      <trkpt lat="45.75777" lon="6.55422">
        <ele>1803.9</ele>
        <time>2025-08-15T09:53:08Z</time>
      </trkpt>
      <trkpt lat="45.75779" lon="6.55413">
        <ele>1803.1</ele>
        <time>2025-08-15T09:53:09Z</time>
      </trkpt>
      <trkpt lat="45.75785" lon="6.55405">
        <ele>1802.2</ele>
        <time>2025-08-15T09:53:10Z</time>
      </trkpt>
      <trkpt lat="45.7579" lon="6.55396">
        <ele>1801.4</ele>
        <time>2025-08-15T09:53:11Z</time>
      </trkpt>
      <trkpt lat="45.7579" lon="6.55387">
        <ele>1800.8</ele>
        <time>2025-08-15T09:53:12Z</time>
      </trkpt>
      <trkpt lat="45.75786" lon="6.55383">
        <ele>1800.1</ele>
        <time>2025-08-15T09:53:13Z</time>
      </trkpt>
      <trkpt lat="45.75779" lon="6.55385">
        <ele>1799.3</ele>
        <time>2025-08-15T09:53:14Z</time>
      </trkpt>
      <trkpt lat="45.75773" lon="6.5539">
        <ele>1798.5</ele>
        <time>2025-08-15T09:53:15Z</time>
      </trkpt>
      <trkpt lat="45.75768" lon="6.55388">
        <ele>1797.9</ele>
        <time>2025-08-15T09:53:16Z</time>
      </trkpt>
      <trkpt lat="45.7577" lon="6.55378">
        <ele>1797.1</ele>
        <time>2025-08-15T09:53:17Z</time>
      </trkpt>
      <trkpt lat="45.75776" lon="6.55372">
        <ele>1796.2</ele>
        <time>2025-08-15T09:53:18Z</time>
      </trkpt>
      <trkpt lat="45.7578" lon="6.55368">
        <ele>1795.7</ele>
        <time>2025-08-15T09:53:19Z</time>
      </trkpt>
      <trkpt lat="45.75777" lon="6.55363">
        <ele>1795.2</ele>
        <time>2025-08-15T09:53:20Z</time>
      </trkpt>
      <trkpt lat="45.75771" lon="6.55362">
        <ele>1794.5</ele>
        <time>2025-08-15T09:53:21Z</time>
      </trkpt>
      <trkpt lat="45.75766" lon="6.55359">
        <ele>1794</ele>
        <time>2025-08-15T09:53:22Z</time>
      </trkpt>
      <trkpt lat="45.75766" lon="6.55354">
        <ele>1793.6</ele>
        <time>2025-08-15T09:53:23Z</time>
      </trkpt>
      <trkpt lat="45.75771" lon="6.5535">
        <ele>1793</ele>
        <time>2025-08-15T09:53:25Z</time>
      </trkpt>
      <trkpt lat="45.75775" lon="6.55342">
        <ele>1792.4</ele>
        <time>2025-08-15T09:53:26Z</time>
      </trkpt>
      <trkpt lat="45.7578" lon="6.55335">
        <ele>1791.6</ele>
        <time>2025-08-15T09:53:27Z</time>
      </trkpt>
      <trkpt lat="45.75785" lon="6.55328">
        <ele>1790.9</ele>
        <time>2025-08-15T09:53:28Z</time>
      </trkpt>
      <trkpt lat="45.75791" lon="6.55324">
        <ele>1790.2</ele>
        <time>2025-08-15T09:53:29Z</time>
      </trkpt>
      <trkpt lat="45.75794" lon="6.55319">
        <ele>1789.7</ele>
        <time>2025-08-15T09:53:30Z</time>
      </trkpt>
      <trkpt lat="45.75797" lon="6.55313">
        <ele>1789.2</ele>
        <time>2025-08-15T09:53:31Z</time>
      </trkpt>
      <trkpt lat="45.75799" lon="6.5531">
        <ele>1788.9</ele>
        <time>2025-08-15T09:53:32Z</time>
      </trkpt>
      <trkpt lat="45.75802" lon="6.55299">
        <ele>1787.8</ele>
        <time>2025-08-15T09:53:33Z</time>
      </trkpt>
      <trkpt lat="45.75803" lon="6.55287">
        <ele>1787.1</ele>
        <time>2025-08-15T09:53:34Z</time>
      </trkpt>
      <trkpt lat="45.75803" lon="6.55283">
        <ele>1786.2</ele>
        <time>2025-08-15T09:53:35Z</time>
      </trkpt>
      <trkpt lat="45.75804" lon="6.55281">
        <ele>1786</ele>
        <time>2025-08-15T09:53:36Z</time>
      </trkpt>
      <trkpt lat="45.75804" lon="6.5528">
        <ele>1785.9</ele>
        <time>2025-08-15T09:53:37Z</time>
      </trkpt>
      <trkpt lat="45.75804" lon="6.55278">
        <ele>1785.4</ele>
        <time>2025-08-15T09:53:38Z</time>
      </trkpt>
      <trkpt lat="45.75805" lon="6.55271">
        <ele>1785</ele>
        <time>2025-08-15T09:53:39Z</time>
      </trkpt>
      <trkpt lat="45.75805" lon="6.55263">
        <ele>1784.4</ele>
        <time>2025-08-15T09:53:40Z</time>
      </trkpt>
      <trkpt lat="45.75807" lon="6.55257">
        <ele>1784.1</ele>
        <time>2025-08-15T09:53:41Z</time>
      </trkpt>
      <trkpt lat="45.75809" lon="6.55252">
        <ele>1784.1</ele>
        <time>2025-08-15T09:53:42Z</time>
      </trkpt>
      <trkpt lat="45.7581" lon="6.55244">
        <ele>1783.7</ele>
        <time>2025-08-15T09:53:43Z</time>
      </trkpt>
      <trkpt lat="45.75805" lon="6.55237">
        <ele>1782.4</ele>
        <time>2025-08-15T09:53:44Z</time>
      </trkpt>
      <trkpt lat="45.75803" lon="6.55229">
        <ele>1781.4</ele>
        <time>2025-08-15T09:53:45Z</time>
      </trkpt>
      <trkpt lat="45.75808" lon="6.55222">
        <ele>1781.5</ele>
        <time>2025-08-15T09:53:46Z</time>
      </trkpt>
      <trkpt lat="45.75813" lon="6.55214">
        <ele>1781.6</ele>
        <time>2025-08-15T09:53:47Z</time>
      </trkpt>
      <trkpt lat="45.75815" lon="6.55208">
        <ele>1781.2</ele>
        <time>2025-08-15T09:53:48Z</time>
      </trkpt>
      <trkpt lat="45.75813" lon="6.55199">
        <ele>1780.6</ele>
        <time>2025-08-15T09:53:49Z</time>
      </trkpt>
      <trkpt lat="45.75807" lon="6.55198">
        <ele>1779.8</ele>
        <time>2025-08-15T09:53:50Z</time>
      </trkpt>
      <trkpt lat="45.758" lon="6.55205">
        <ele>1778.9</ele>
        <time>2025-08-15T09:53:51Z</time>
      </trkpt>
      <trkpt lat="45.75794" lon="6.5521">
        <ele>1778.6</ele>
        <time>2025-08-15T09:53:52Z</time>
      </trkpt>
      <trkpt lat="45.75781" lon="6.55219">
        <ele>1777</ele>
        <time>2025-08-15T09:53:53Z</time>
      </trkpt>
      <trkpt lat="45.75774" lon="6.55229">
        <ele>1776.3</ele>
        <time>2025-08-15T09:53:54Z</time>
      </trkpt>
      <trkpt lat="45.75773" lon="6.55236">
        <ele>1775.8</ele>
        <time>2025-08-15T09:53:55Z</time>
      </trkpt>
      <trkpt lat="45.7577" lon="6.55241">
        <ele>1775.3</ele>
        <time>2025-08-15T09:53:56Z</time>
      </trkpt>
      <trkpt lat="45.75769" lon="6.55244">
        <ele>1775.1</ele>
        <time>2025-08-15T09:53:57Z</time>
      </trkpt>
      <trkpt lat="45.75765" lon="6.55251">
        <ele>1774.5</ele>
        <time>2025-08-15T09:53:58Z</time>
      </trkpt>
      <trkpt lat="45.75761" lon="6.55261">
        <ele>1773.7</ele>
        <time>2025-08-15T09:53:59Z</time>
      </trkpt>
      <trkpt lat="45.75759" lon="6.55269">
        <ele>1773.3</ele>
        <time>2025-08-15T09:54:00Z</time>
      </trkpt>
      <trkpt lat="45.75755" lon="6.5527">
        <ele>1773</ele>
        <time>2025-08-15T09:54:01Z</time>
      </trkpt>
      <trkpt lat="45.75752" lon="6.55261">
        <ele>1772.5</ele>
        <time>2025-08-15T09:54:02Z</time>
      </trkpt>
      <trkpt lat="45.75752" lon="6.5525">
        <ele>1772</ele>
        <time>2025-08-15T09:54:03Z</time>
      </trkpt>
      <trkpt lat="45.75755" lon="6.55239">
        <ele>1772.8</ele>
        <time>2025-08-15T09:54:04Z</time>
      </trkpt>
      <trkpt lat="45.7576" lon="6.55231">
        <ele>1773.6</ele>
        <time>2025-08-15T09:54:05Z</time>
      </trkpt>
      <trkpt lat="45.75763" lon="6.55227">
        <ele>1773.9</ele>
        <time>2025-08-15T09:54:06Z</time>
      </trkpt>
      <trkpt lat="45.75766" lon="6.55221">
        <ele>1774.2</ele>
        <time>2025-08-15T09:54:07Z</time>
      </trkpt>
      <trkpt lat="45.75764" lon="6.55223">
        <ele>1774.3</ele>
        <time>2025-08-15T09:54:08Z</time>
      </trkpt>
      <trkpt lat="45.75764" lon="6.55225">
        <ele>1774.4</ele>
        <time>2025-08-15T09:54:09Z</time>
      </trkpt>
      <trkpt lat="45.75764" lon="6.55226">
        <ele>1774.4</ele>
        <time>2025-08-15T09:54:10Z</time>
      </trkpt>
      <trkpt lat="45.75763" lon="6.55226">
        <ele>1774.4</ele>
        <time>2025-08-15T09:54:11Z</time>
      </trkpt>
      <trkpt lat="45.75764" lon="6.55226">
        <ele>1774.4</ele>
        <time>2025-08-15T09:54:12Z</time>
      </trkpt>
      <trkpt lat="45.75764" lon="6.55225">
        <ele>1774.4</ele>
        <time>2025-08-15T09:54:13Z</time>
      </trkpt>
      <trkpt lat="45.75764" lon="6.55225">
        <ele>1774.4</ele>
        <time>2025-08-15T09:54:14Z</time>
      </trkpt>
      <trkpt lat="45.75764" lon="6.55226">
        <ele>1774.5</ele>
        <time>2025-08-15T09:54:15Z</time>
      </trkpt>
      <trkpt lat="45.75764" lon="6.55225">
        <ele>1774.5</ele>
        <time>2025-08-15T09:54:16Z</time>
      </trkpt>
      <trkpt lat="45.75764" lon="6.55226">
        <ele>1774.5</ele>
        <time>2025-08-15T09:54:17Z</time>
      </trkpt>
      <trkpt lat="45.75764" lon="6.55226">
        <ele>1774.5</ele>
        <time>2025-08-15T09:54:18Z</time>
      </trkpt>
      <trkpt lat="45.75765" lon="6.55225">
        <ele>1774.5</ele>
        <time>2025-08-15T09:54:19Z</time>
      </trkpt>
      <trkpt lat="45.75768" lon="6.55223">
        <ele>1774.7</ele>
        <time>2025-08-15T09:54:31Z</time>
      </trkpt>
      <trkpt lat="45.75769" lon="6.55221">
        <ele>1774.7</ele>
        <time>2025-08-15T09:54:32Z</time>
      </trkpt>
      <trkpt lat="45.75772" lon="6.55218">
        <ele>1774.9</ele>
        <time>2025-08-15T09:54:33Z</time>
      </trkpt>
      <trkpt lat="45.75773" lon="6.55216">
        <ele>1774.9</ele>
        <time>2025-08-15T09:54:34Z</time>
      </trkpt>
      <trkpt lat="45.75774" lon="6.55211">
        <ele>1775</ele>
        <time>2025-08-15T09:54:35Z</time>
      </trkpt>
      <trkpt lat="45.75775" lon="6.55208">
        <ele>1775.1</ele>
        <time>2025-08-15T09:54:36Z</time>
      </trkpt>
      <trkpt lat="45.75777" lon="6.55204">
        <ele>1775.1</ele>
        <time>2025-08-15T09:54:37Z</time>
      </trkpt>
      <trkpt lat="45.75778" lon="6.55202">
        <ele>1775.1</ele>
        <time>2025-08-15T09:54:38Z</time>
      </trkpt>
      <trkpt lat="45.7578" lon="6.55198">
        <ele>1775.1</ele>
        <time>2025-08-15T09:54:39Z</time>
      </trkpt>
      <trkpt lat="45.75782" lon="6.55192">
        <ele>1775.1</ele>
        <time>2025-08-15T09:54:40Z</time>
      </trkpt>
      <trkpt lat="45.75783" lon="6.5519">
        <ele>1775.1</ele>
        <time>2025-08-15T09:54:41Z</time>
      </trkpt>
      <trkpt lat="45.75785" lon="6.55184">
        <ele>1775</ele>
        <time>2025-08-15T09:54:42Z</time>
      </trkpt>
      <trkpt lat="45.75785" lon="6.55178">
        <ele>1774.9</ele>
        <time>2025-08-15T09:54:43Z</time>
      </trkpt>
      <trkpt lat="45.75786" lon="6.55175">
        <ele>1774.9</ele>
        <time>2025-08-15T09:54:44Z</time>
      </trkpt>
      <trkpt lat="45.75791" lon="6.55166">
        <ele>1774.8</ele>
        <time>2025-08-15T09:54:45Z</time>
      </trkpt>
      <trkpt lat="45.75794" lon="6.55161">
        <ele>1774.7</ele>
        <time>2025-08-15T09:54:46Z</time>
      </trkpt>
      <trkpt lat="45.75796" lon="6.55157">
        <ele>1774.7</ele>
        <time>2025-08-15T09:54:47Z</time>
      </trkpt>
      <trkpt lat="45.75801" lon="6.55153">
        <ele>1774.7</ele>
        <time>2025-08-15T09:54:48Z</time>
      </trkpt>
      <trkpt lat="45.75804" lon="6.55148">
        <ele>1774.8</ele>
        <time>2025-08-15T09:54:49Z</time>
      </trkpt>
      <trkpt lat="45.75808" lon="6.55143">
        <ele>1774.9</ele>
        <time>2025-08-15T09:54:50Z</time>
      </trkpt>
      <trkpt lat="45.75812" lon="6.55141">
        <ele>1775.1</ele>
        <time>2025-08-15T09:54:51Z</time>
      </trkpt>
      <trkpt lat="45.75815" lon="6.5514">
        <ele>1775.2</ele>
        <time>2025-08-15T09:54:52Z</time>
      </trkpt>
      <trkpt lat="45.75818" lon="6.55139">
        <ele>1775.2</ele>
        <time>2025-08-15T09:54:53Z</time>
      </trkpt>
      <trkpt lat="45.75821" lon="6.55136">
        <ele>1775.3</ele>
        <time>2025-08-15T09:54:54Z</time>
      </trkpt>
      <trkpt lat="45.75822" lon="6.55136">
        <ele>1775.3</ele>
        <time>2025-08-15T09:54:55Z</time>
      </trkpt>
      <trkpt lat="45.75825" lon="6.55134">
        <ele>1775.4</ele>
        <time>2025-08-15T09:54:56Z</time>
      </trkpt>
      <trkpt lat="45.75827" lon="6.55131">
        <ele>1775.4</ele>
        <time>2025-08-15T09:54:57Z</time>
      </trkpt>
      <trkpt lat="45.7583" lon="6.55129">
        <ele>1775.4</ele>
        <time>2025-08-15T09:54:58Z</time>
      </trkpt>
      <trkpt lat="45.75833" lon="6.55127">
        <ele>1775.4</ele>
        <time>2025-08-15T09:54:59Z</time>
      </trkpt>
      <trkpt lat="45.75835" lon="6.55123">
        <ele>1775.3</ele>
        <time>2025-08-15T09:55:00Z</time>
      </trkpt>
      <trkpt lat="45.75838" lon="6.55119">
        <ele>1775.3</ele>
        <time>2025-08-15T09:55:01Z</time>
      </trkpt>
      <trkpt lat="45.75841" lon="6.55117">
        <ele>1775.2</ele>
        <time>2025-08-15T09:55:02Z</time>
      </trkpt>
      <trkpt lat="45.75844" lon="6.55112">
        <ele>1775.1</ele>
        <time>2025-08-15T09:55:03Z</time>
      </trkpt>
      <trkpt lat="45.75845" lon="6.5511">
        <ele>1775</ele>
        <time>2025-08-15T09:55:04Z</time>
      </trkpt>
      <trkpt lat="45.75847" lon="6.55106">
        <ele>1774.9</ele>
        <time>2025-08-15T09:55:05Z</time>
      </trkpt>
      <trkpt lat="45.75849" lon="6.551">
        <ele>1774.8</ele>
        <time>2025-08-15T09:55:06Z</time>
      </trkpt>
      <trkpt lat="45.75852" lon="6.55095">
        <ele>1774.6</ele>
        <time>2025-08-15T09:55:07Z</time>
      </trkpt>
      <trkpt lat="45.75856" lon="6.55091">
        <ele>1774.5</ele>
        <time>2025-08-15T09:55:08Z</time>
      </trkpt>
      <trkpt lat="45.7586" lon="6.55087">
        <ele>1774.5</ele>
        <time>2025-08-15T09:55:09Z</time>
      </trkpt>
      <trkpt lat="45.75863" lon="6.55083">
        <ele>1774.4</ele>
        <time>2025-08-15T09:55:10Z</time>
      </trkpt>
      <trkpt lat="45.75866" lon="6.5508">
        <ele>1774.4</ele>
        <time>2025-08-15T09:55:11Z</time>
      </trkpt>
      <trkpt lat="45.75867" lon="6.55079">
        <ele>1774.4</ele>
        <time>2025-08-15T09:55:12Z</time>
      </trkpt>
      <trkpt lat="45.75868" lon="6.55075">
        <ele>1774.4</ele>
        <time>2025-08-15T09:55:13Z</time>
      </trkpt>
      <trkpt lat="45.7587" lon="6.55071">
        <ele>1774.4</ele>
        <time>2025-08-15T09:55:14Z</time>
      </trkpt>
      <trkpt lat="45.75871" lon="6.5507">
        <ele>1774.4</ele>
        <time>2025-08-15T09:55:15Z</time>
      </trkpt>
      <trkpt lat="45.75873" lon="6.5507">
        <ele>1774.4</ele>
        <time>2025-08-15T09:55:16Z</time>
      </trkpt>
      <trkpt lat="45.75874" lon="6.55069">
        <ele>1774.4</ele>
        <time>2025-08-15T09:55:17Z</time>
      </trkpt>
      <trkpt lat="45.75875" lon="6.55065">
        <ele>1774.4</ele>
        <time>2025-08-15T09:55:18Z</time>
      </trkpt>
      <trkpt lat="45.75875" lon="6.55063">
        <ele>1774.4</ele>
        <time>2025-08-15T09:55:19Z</time>
      </trkpt>
      <trkpt lat="45.75878" lon="6.55061">
        <ele>1774.4</ele>
        <time>2025-08-15T09:55:20Z</time>
      </trkpt>
      <trkpt lat="45.75879" lon="6.5506">
        <ele>1774.4</ele>
        <time>2025-08-15T09:55:21Z</time>
      </trkpt>
      <trkpt lat="45.75882" lon="6.55058">
        <ele>1774.4</ele>
        <time>2025-08-15T09:55:22Z</time>
      </trkpt>
      <trkpt lat="45.75883" lon="6.55057">
        <ele>1774.4</ele>
        <time>2025-08-15T09:55:23Z</time>
      </trkpt>
      <trkpt lat="45.75886" lon="6.55056">
        <ele>1774.4</ele>
        <time>2025-08-15T09:55:24Z</time>
      </trkpt>
      <trkpt lat="45.7589" lon="6.55055">
        <ele>1774.4</ele>
        <time>2025-08-15T09:55:25Z</time>
      </trkpt>
      <trkpt lat="45.75891" lon="6.55054">
        <ele>1774.4</ele>
        <time>2025-08-15T09:55:26Z</time>
      </trkpt>
      <trkpt lat="45.75893" lon="6.55052">
        <ele>1774.4</ele>
        <time>2025-08-15T09:55:27Z</time>
      </trkpt>
      <trkpt lat="45.75895" lon="6.55052">
        <ele>1774.4</ele>
        <time>2025-08-15T09:55:28Z</time>
      </trkpt>
      <trkpt lat="45.75896" lon="6.5505">
        <ele>1774.3</ele>
        <time>2025-08-15T09:55:29Z</time>
      </trkpt>
      <trkpt lat="45.75899" lon="6.55049">
        <ele>1774.3</ele>
        <time>2025-08-15T09:55:31Z</time>
      </trkpt>
      <trkpt lat="45.75901" lon="6.55048">
        <ele>1774.2</ele>
        <time>2025-08-15T09:55:32Z</time>
      </trkpt>
      <trkpt lat="45.75905" lon="6.55045">
        <ele>1774</ele>
        <time>2025-08-15T09:55:33Z</time>
      </trkpt>
      <trkpt lat="45.75909" lon="6.55044">
        <ele>1773.8</ele>
        <time>2025-08-15T09:55:34Z</time>
      </trkpt>
      <trkpt lat="45.75913" lon="6.55042">
        <ele>1773.6</ele>
        <time>2025-08-15T09:55:35Z</time>
      </trkpt>
      <trkpt lat="45.75917" lon="6.55042">
        <ele>1773.3</ele>
        <time>2025-08-15T09:55:36Z</time>
      </trkpt>
      <trkpt lat="45.75922" lon="6.55042">
        <ele>1773</ele>
        <time>2025-08-15T09:55:37Z</time>
      </trkpt>
      <trkpt lat="45.75925" lon="6.55041">
        <ele>1772.7</ele>
        <time>2025-08-15T09:55:38Z</time>
      </trkpt>
      <trkpt lat="45.7593" lon="6.55042">
        <ele>1772.3</ele>
        <time>2025-08-15T09:55:39Z</time>
      </trkpt>
      <trkpt lat="45.75934" lon="6.55042">
        <ele>1772</ele>
        <time>2025-08-15T09:55:40Z</time>
      </trkpt>
      <trkpt lat="45.75938" lon="6.55042">
        <ele>1771.8</ele>
        <time>2025-08-15T09:55:41Z</time>
      </trkpt>
      <trkpt lat="45.75942" lon="6.55042">
        <ele>1771.5</ele>
        <time>2025-08-15T09:55:42Z</time>
      </trkpt>
      <trkpt lat="45.75946" lon="6.55043">
        <ele>1771.3</ele>
        <time>2025-08-15T09:55:43Z</time>
      </trkpt>
      <trkpt lat="45.7595" lon="6.55043">
        <ele>1771.1</ele>
        <time>2025-08-15T09:55:44Z</time>
      </trkpt>
      <trkpt lat="45.75955" lon="6.55044">
        <ele>1770.8</ele>
        <time>2025-08-15T09:55:45Z</time>
      </trkpt>
      <trkpt lat="45.75959" lon="6.55045">
        <ele>1770.6</ele>
        <time>2025-08-15T09:55:46Z</time>
      </trkpt>
      <trkpt lat="45.75964" lon="6.55045">
        <ele>1770.3</ele>
        <time>2025-08-15T09:55:47Z</time>
      </trkpt>
      <trkpt lat="45.75969" lon="6.55044">
        <ele>1770.2</ele>
        <time>2025-08-15T09:55:48Z</time>
      </trkpt>
      <trkpt lat="45.75973" lon="6.55043">
        <ele>1770</ele>
        <time>2025-08-15T09:55:49Z</time>
      </trkpt>
      <trkpt lat="45.75977" lon="6.55042">
        <ele>1770</ele>
        <time>2025-08-15T09:55:50Z</time>
      </trkpt>
      <trkpt lat="45.75981" lon="6.55039">
        <ele>1770.2</ele>
        <time>2025-08-15T09:55:51Z</time>
      </trkpt>
      <trkpt lat="45.75983" lon="6.55038">
        <ele>1770.2</ele>
        <time>2025-08-15T09:55:52Z</time>
      </trkpt>
      <trkpt lat="45.75984" lon="6.55037">
        <ele>1770.2</ele>
        <time>2025-08-15T09:55:53Z</time>
      </trkpt>
      <trkpt lat="45.75987" lon="6.55037">
        <ele>1770.3</ele>
        <time>2025-08-15T09:55:54Z</time>
      </trkpt>
      <trkpt lat="45.75988" lon="6.55037">
        <ele>1770.3</ele>
        <time>2025-08-15T09:55:55Z</time>
      </trkpt>
      <trkpt lat="45.7599" lon="6.55037">
        <ele>1770.4</ele>
        <time>2025-08-15T09:55:56Z</time>
      </trkpt>
      <trkpt lat="45.75991" lon="6.55037">
        <ele>1770.5</ele>
        <time>2025-08-15T09:55:57Z</time>
      </trkpt>
      <trkpt lat="45.75993" lon="6.55038">
        <ele>1770.6</ele>
        <time>2025-08-15T09:55:58Z</time>
      </trkpt>
      <trkpt lat="45.75994" lon="6.55039">
        <ele>1771.1</ele>
        <time>2025-08-15T09:55:59Z</time>
      </trkpt>
      <trkpt lat="45.75994" lon="6.5504">
        <ele>1771.1</ele>
        <time>2025-08-15T09:56:00Z</time>
      </trkpt>
      <trkpt lat="45.75995" lon="6.55042">
        <ele>1771.3</ele>
        <time>2025-08-15T09:56:01Z</time>
      </trkpt>
      <trkpt lat="45.75994" lon="6.55044">
        <ele>1771.4</ele>
        <time>2025-08-15T09:56:02Z</time>
      </trkpt>
      <trkpt lat="45.75994" lon="6.55047">
        <ele>1771.6</ele>
        <time>2025-08-15T09:56:03Z</time>
      </trkpt>
      <trkpt lat="45.75994" lon="6.55049">
        <ele>1771.8</ele>
        <time>2025-08-15T09:56:04Z</time>
      </trkpt>
      <trkpt lat="45.75993" lon="6.55051">
        <ele>1772</ele>
        <time>2025-08-15T09:56:05Z</time>
      </trkpt>
      <trkpt lat="45.75993" lon="6.55053">
        <ele>1772.1</ele>
        <time>2025-08-15T09:56:06Z</time>
      </trkpt>
      <trkpt lat="45.75994" lon="6.55057">
        <ele>1772.4</ele>
        <time>2025-08-15T09:56:07Z</time>
      </trkpt>
      <trkpt lat="45.75994" lon="6.55059">
        <ele>1772.6</ele>
        <time>2025-08-15T09:56:08Z</time>
      </trkpt>
      <trkpt lat="45.75993" lon="6.55061">
        <ele>1772.8</ele>
        <time>2025-08-15T09:56:09Z</time>
      </trkpt>
      <trkpt lat="45.75993" lon="6.55063">
        <ele>1772.9</ele>
        <time>2025-08-15T09:56:10Z</time>
      </trkpt>
      <trkpt lat="45.75992" lon="6.55066">
        <ele>1773.1</ele>
        <time>2025-08-15T09:56:11Z</time>
      </trkpt>
      <trkpt lat="45.75992" lon="6.55068">
        <ele>1773.3</ele>
        <time>2025-08-15T09:56:12Z</time>
      </trkpt>
      <trkpt lat="45.75992" lon="6.5507">
        <ele>1773.5</ele>
        <time>2025-08-15T09:56:13Z</time>
      </trkpt>
      <trkpt lat="45.75991" lon="6.55073">
        <ele>1773.7</ele>
        <time>2025-08-15T09:56:14Z</time>
      </trkpt>
      <trkpt lat="45.75991" lon="6.55075">
        <ele>1773.9</ele>
        <time>2025-08-15T09:56:15Z</time>
      </trkpt>
      <trkpt lat="45.75991" lon="6.55077">
        <ele>1774.1</ele>
        <time>2025-08-15T09:56:16Z</time>
      </trkpt>
      <trkpt lat="45.75991" lon="6.55079">
        <ele>1774.2</ele>
        <time>2025-08-15T09:56:17Z</time>
      </trkpt>
      <trkpt lat="45.75992" lon="6.55081">
        <ele>1774.4</ele>
        <time>2025-08-15T09:56:18Z</time>
      </trkpt>
      <trkpt lat="45.75992" lon="6.55083">
        <ele>1774.6</ele>
        <time>2025-08-15T09:56:19Z</time>
      </trkpt>
      <trkpt lat="45.75992" lon="6.55086">
        <ele>1774.8</ele>
        <time>2025-08-15T09:56:20Z</time>
      </trkpt>
      <trkpt lat="45.75993" lon="6.55088">
        <ele>1775</ele>
        <time>2025-08-15T09:56:21Z</time>
      </trkpt>
      <trkpt lat="45.75992" lon="6.5509">
        <ele>1775.2</ele>
        <time>2025-08-15T09:56:22Z</time>
      </trkpt>
      <trkpt lat="45.75992" lon="6.55092">
        <ele>1775.4</ele>
        <time>2025-08-15T09:56:23Z</time>
      </trkpt>
      <trkpt lat="45.75992" lon="6.55095">
        <ele>1775.6</ele>
        <time>2025-08-15T09:56:24Z</time>
      </trkpt>
      <trkpt lat="45.75992" lon="6.55097">
        <ele>1775.7</ele>
        <time>2025-08-15T09:56:25Z</time>
      </trkpt>
      <trkpt lat="45.75992" lon="6.55099">
        <ele>1775.9</ele>
        <time>2025-08-15T09:56:26Z</time>
      </trkpt>
      <trkpt lat="45.75993" lon="6.55103">
        <ele>1776.2</ele>
        <time>2025-08-15T09:56:27Z</time>
      </trkpt>
      <trkpt lat="45.75993" lon="6.55105">
        <ele>1776.4</ele>
        <time>2025-08-15T09:56:28Z</time>
      </trkpt>
      <trkpt lat="45.75993" lon="6.55107">
        <ele>1776.5</ele>
        <time>2025-08-15T09:56:29Z</time>
      </trkpt>
      <trkpt lat="45.75993" lon="6.55109">
        <ele>1776.7</ele>
        <time>2025-08-15T09:56:30Z</time>
      </trkpt>
      <trkpt lat="45.75993" lon="6.55113">
        <ele>1777</ele>
        <time>2025-08-15T09:56:31Z</time>
      </trkpt>
      <trkpt lat="45.75993" lon="6.55115">
        <ele>1777.2</ele>
        <time>2025-08-15T09:56:32Z</time>
      </trkpt>
      <trkpt lat="45.75994" lon="6.55119">
        <ele>1777.5</ele>
        <time>2025-08-15T09:56:33Z</time>
      </trkpt>
      <trkpt lat="45.75994" lon="6.5512">
        <ele>1777.6</ele>
        <time>2025-08-15T09:56:34Z</time>
      </trkpt>
      <trkpt lat="45.75994" lon="6.55124">
        <ele>1777.9</ele>
        <time>2025-08-15T09:56:35Z</time>
      </trkpt>
      <trkpt lat="45.75994" lon="6.55125">
        <ele>1778</ele>
        <time>2025-08-15T09:56:36Z</time>
      </trkpt>
      <trkpt lat="45.75995" lon="6.55129">
        <ele>1778.3</ele>
        <time>2025-08-15T09:56:37Z</time>
      </trkpt>
      <trkpt lat="45.75995" lon="6.55131">
        <ele>1778.4</ele>
        <time>2025-08-15T09:56:38Z</time>
      </trkpt>
      <trkpt lat="45.75995" lon="6.55135">
        <ele>1778.7</ele>
        <time>2025-08-15T09:56:39Z</time>
      </trkpt>
      <trkpt lat="45.75995" lon="6.55136">
        <ele>1778.8</ele>
        <time>2025-08-15T09:56:40Z</time>
      </trkpt>
      <trkpt lat="45.75995" lon="6.55139">
        <ele>1779</ele>
        <time>2025-08-15T09:56:41Z</time>
      </trkpt>
      <trkpt lat="45.75996" lon="6.55141">
        <ele>1779.1</ele>
        <time>2025-08-15T09:56:42Z</time>
      </trkpt>
      <trkpt lat="45.75996" lon="6.55145">
        <ele>1779.4</ele>
        <time>2025-08-15T09:56:43Z</time>
      </trkpt>
      <trkpt lat="45.75996" lon="6.55146">
        <ele>1779.5</ele>
        <time>2025-08-15T09:56:44Z</time>
      </trkpt>
      <trkpt lat="45.75997" lon="6.5515">
        <ele>1779.8</ele>
        <time>2025-08-15T09:56:45Z</time>
      </trkpt>
      <trkpt lat="45.75997" lon="6.55152">
        <ele>1779.8</ele>
        <time>2025-08-15T09:56:46Z</time>
      </trkpt>
      <trkpt lat="45.75998" lon="6.55156">
        <ele>1780.1</ele>
        <time>2025-08-15T09:56:47Z</time>
      </trkpt>
      <trkpt lat="45.75998" lon="6.55157">
        <ele>1780.2</ele>
        <time>2025-08-15T09:56:48Z</time>
      </trkpt>
      <trkpt lat="45.75999" lon="6.55161">
        <ele>1780.4</ele>
        <time>2025-08-15T09:56:49Z</time>
      </trkpt>
      <trkpt lat="45.75999" lon="6.55162">
        <ele>1780.5</ele>
        <time>2025-08-15T09:56:50Z</time>
      </trkpt>
      <trkpt lat="45.76001" lon="6.55166">
        <ele>1780.7</ele>
        <time>2025-08-15T09:56:51Z</time>
      </trkpt>
      <trkpt lat="45.76001" lon="6.55167">
        <ele>1780.8</ele>
        <time>2025-08-15T09:56:52Z</time>
      </trkpt>
      <trkpt lat="45.76003" lon="6.55169">
        <ele>1781</ele>
        <time>2025-08-15T09:56:53Z</time>
      </trkpt>
      <trkpt lat="45.76004" lon="6.5517">
        <ele>1781.1</ele>
        <time>2025-08-15T09:56:54Z</time>
      </trkpt>
      <trkpt lat="45.76007" lon="6.5517">
        <ele>1781.4</ele>
        <time>2025-08-15T09:56:55Z</time>
      </trkpt>
      <trkpt lat="45.76008" lon="6.5517">
        <ele>1781.4</ele>
        <time>2025-08-15T09:56:56Z</time>
      </trkpt>
      <trkpt lat="45.76009" lon="6.55169">
        <ele>1781.5</ele>
        <time>2025-08-15T09:56:57Z</time>
      </trkpt>
      <trkpt lat="45.76011" lon="6.55168">
        <ele>1781.5</ele>
        <time>2025-08-15T09:56:58Z</time>
      </trkpt>
      <trkpt lat="45.76014" lon="6.55166">
        <ele>1781.4</ele>
        <time>2025-08-15T09:56:59Z</time>
      </trkpt>
      <trkpt lat="45.76015" lon="6.55166">
        <ele>1781.4</ele>
        <time>2025-08-15T09:57:00Z</time>
      </trkpt>
      <trkpt lat="45.76018" lon="6.55165">
        <ele>1781.4</ele>
        <time>2025-08-15T09:57:01Z</time>
      </trkpt>
      <trkpt lat="45.76019" lon="6.55164">
        <ele>1781.4</ele>
        <time>2025-08-15T09:57:02Z</time>
      </trkpt>
      <trkpt lat="45.76022" lon="6.55163">
        <ele>1781.4</ele>
        <time>2025-08-15T09:57:03Z</time>
      </trkpt>
      <trkpt lat="45.76023" lon="6.55163">
        <ele>1781.4</ele>
        <time>2025-08-15T09:57:04Z</time>
      </trkpt>
      <trkpt lat="45.76025" lon="6.55161">
        <ele>1781.4</ele>
        <time>2025-08-15T09:57:05Z</time>
      </trkpt>
      <trkpt lat="45.76026" lon="6.5516">
        <ele>1781.4</ele>
        <time>2025-08-15T09:57:06Z</time>
      </trkpt>
      <trkpt lat="45.76027" lon="6.55159">
        <ele>1781.4</ele>
        <time>2025-08-15T09:57:07Z</time>
      </trkpt>
      <trkpt lat="45.76029" lon="6.55158">
        <ele>1781.4</ele>
        <time>2025-08-15T09:57:08Z</time>
      </trkpt>
      <trkpt lat="45.7603" lon="6.55158">
        <ele>1781.4</ele>
        <time>2025-08-15T09:57:09Z</time>
      </trkpt>
      <trkpt lat="45.76031" lon="6.55156">
        <ele>1781.4</ele>
        <time>2025-08-15T09:57:10Z</time>
      </trkpt>
      <trkpt lat="45.76032" lon="6.55154">
        <ele>1781.4</ele>
        <time>2025-08-15T09:57:11Z</time>
      </trkpt>
      <trkpt lat="45.76033" lon="6.55153">
        <ele>1781.4</ele>
        <time>2025-08-15T09:57:12Z</time>
      </trkpt>
      <trkpt lat="45.76034" lon="6.55152">
        <ele>1781.4</ele>
        <time>2025-08-15T09:57:13Z</time>
      </trkpt>
      <trkpt lat="45.76034" lon="6.5515">
        <ele>1781.4</ele>
        <time>2025-08-15T09:57:14Z</time>
      </trkpt>
      <trkpt lat="45.76035" lon="6.55149">
        <ele>1781.4</ele>
        <time>2025-08-15T09:57:15Z</time>
      </trkpt>
      <trkpt lat="45.76036" lon="6.55148">
        <ele>1781.4</ele>
        <time>2025-08-15T09:57:16Z</time>
      </trkpt>
      <trkpt lat="45.76036" lon="6.55148">
        <ele>1781.4</ele>
        <time>2025-08-15T09:57:17Z</time>
      </trkpt>
      <trkpt lat="45.76036" lon="6.55147">
        <ele>1781.4</ele>
        <time>2025-08-15T09:57:18Z</time>
      </trkpt>
      <trkpt lat="45.76036" lon="6.55146">
        <ele>1781.4</ele>
        <time>2025-08-15T09:57:19Z</time>
      </trkpt>
      <trkpt lat="45.76035" lon="6.55146">
        <ele>1781.4</ele>
        <time>2025-08-15T09:57:20Z</time>
      </trkpt>
      <trkpt lat="45.76036" lon="6.55146">
        <ele>1781.4</ele>
        <time>2025-08-15T09:57:21Z</time>
      </trkpt>
      <trkpt lat="45.76037" lon="6.55145">
        <ele>1781.4</ele>
        <time>2025-08-15T09:57:22Z</time>
      </trkpt>
      <trkpt lat="45.76037" lon="6.55144">
        <ele>1781.4</ele>
        <time>2025-08-15T09:57:23Z</time>
      </trkpt>
      <trkpt lat="45.76038" lon="6.55144">
        <ele>1781.4</ele>
        <time>2025-08-15T09:57:24Z</time>
      </trkpt>
      <trkpt lat="45.76039" lon="6.55144">
        <ele>1781.4</ele>
        <time>2025-08-15T09:57:25Z</time>
      </trkpt>
      <trkpt lat="45.76039" lon="6.55144">
        <ele>1781.4</ele>
        <time>2025-08-15T09:57:26Z</time>
      </trkpt>
      <trkpt lat="45.76039" lon="6.55144">
        <ele>1781.4</ele>
        <time>2025-08-15T09:57:27Z</time>
      </trkpt>
      <trkpt lat="45.76039" lon="6.55144">
        <ele>1781.4</ele>
        <time>2025-08-15T09:57:28Z</time>
      </trkpt>
      <trkpt lat="45.76039" lon="6.55144">
        <ele>1781.4</ele>
        <time>2025-08-15T09:57:29Z</time>
      </trkpt>
      <trkpt lat="45.76027" lon="6.55144">
        <ele>1781.4</ele>
        <time>2025-08-15T09:57:57Z</time>
      </trkpt>
      <trkpt lat="45.76027" lon="6.55143">
        <ele>1781.4</ele>
        <time>2025-08-15T09:57:58Z</time>
      </trkpt>
      <trkpt lat="45.76026" lon="6.55143">
        <ele>1781.4</ele>
        <time>2025-08-15T09:57:59Z</time>
      </trkpt>
      <trkpt lat="45.76026" lon="6.55143">
        <ele>1781.4</ele>
        <time>2025-08-15T09:58:00Z</time>
      </trkpt>
      <trkpt lat="45.76025" lon="6.55142">
        <ele>1781.4</ele>
        <time>2025-08-15T09:58:01Z</time>
      </trkpt>
      <trkpt lat="45.76024" lon="6.55141">
        <ele>1781.4</ele>
        <time>2025-08-15T09:58:02Z</time>
      </trkpt>
      <trkpt lat="45.76023" lon="6.5514">
        <ele>1781.4</ele>
        <time>2025-08-15T09:58:03Z</time>
      </trkpt>
      <trkpt lat="45.76022" lon="6.55139">
        <ele>1781.4</ele>
        <time>2025-08-15T09:58:04Z</time>
      </trkpt>
      <trkpt lat="45.76022" lon="6.55138">
        <ele>1781.4</ele>
        <time>2025-08-15T09:58:05Z</time>
      </trkpt>
      <trkpt lat="45.76021" lon="6.55139">
        <ele>1781.4</ele>
        <time>2025-08-15T09:58:06Z</time>
      </trkpt>
      <trkpt lat="45.76021" lon="6.55139">
        <ele>1781.4</ele>
        <time>2025-08-15T09:58:07Z</time>
      </trkpt>
      <trkpt lat="45.7602" lon="6.55139">
        <ele>1781.4</ele>
        <time>2025-08-15T09:58:08Z</time>
      </trkpt>
      <trkpt lat="45.76019" lon="6.55138">
        <ele>1781.4</ele>
        <time>2025-08-15T09:58:09Z</time>
      </trkpt>
      <trkpt lat="45.76018" lon="6.55139">
        <ele>1781.4</ele>
        <time>2025-08-15T09:58:10Z</time>
      </trkpt>
      <trkpt lat="45.76018" lon="6.55139">
        <ele>1781.4</ele>
        <time>2025-08-15T09:58:11Z</time>
      </trkpt>
      <trkpt lat="45.76016" lon="6.5514">
        <ele>1781.4</ele>
        <time>2025-08-15T09:58:12Z</time>
      </trkpt>
      <trkpt lat="45.76016" lon="6.55138">
        <ele>1781.4</ele>
        <time>2025-08-15T09:58:13Z</time>
      </trkpt>
      <trkpt lat="45.76016" lon="6.55135">
        <ele>1781.4</ele>
        <time>2025-08-15T09:58:14Z</time>
      </trkpt>
      <trkpt lat="45.76016" lon="6.55133">
        <ele>1781.4</ele>
        <time>2025-08-15T09:58:15Z</time>
      </trkpt>
      <trkpt lat="45.76016" lon="6.55132">
        <ele>1781.4</ele>
        <time>2025-08-15T09:58:16Z</time>
      </trkpt>
      <trkpt lat="45.76016" lon="6.55131">
        <ele>1781.4</ele>
        <time>2025-08-15T09:58:17Z</time>
      </trkpt>
      <trkpt lat="45.76016" lon="6.55128">
        <ele>1781.4</ele>
        <time>2025-08-15T09:58:18Z</time>
      </trkpt>
      <trkpt lat="45.76016" lon="6.55127">
        <ele>1781.4</ele>
        <time>2025-08-15T09:58:19Z</time>
      </trkpt>
      <trkpt lat="45.76016" lon="6.55126">
        <ele>1781.4</ele>
        <time>2025-08-15T09:58:20Z</time>
      </trkpt>
      <trkpt lat="45.76016" lon="6.55124">
        <ele>1781.4</ele>
        <time>2025-08-15T09:58:21Z</time>
      </trkpt>
      <trkpt lat="45.76016" lon="6.55124">
        <ele>1781.4</ele>
        <time>2025-08-15T09:58:22Z</time>
      </trkpt>
      <trkpt lat="45.76016" lon="6.55123">
        <ele>1781.4</ele>
        <time>2025-08-15T09:58:23Z</time>
      </trkpt>
      <trkpt lat="45.76016" lon="6.55123">
        <ele>1781.4</ele>
        <time>2025-08-15T09:58:24Z</time>
      </trkpt>
      <trkpt lat="45.76016" lon="6.55122">
        <ele>1781.4</ele>
        <time>2025-08-15T09:58:25Z</time>
      </trkpt>
      <trkpt lat="45.76016" lon="6.55121">
        <ele>1781.4</ele>
        <time>2025-08-15T09:58:26Z</time>
      </trkpt>
      <trkpt lat="45.76017" lon="6.55121">
        <ele>1781.4</ele>
        <time>2025-08-15T09:58:27Z</time>
      </trkpt>
      <trkpt lat="45.76017" lon="6.5512">
        <ele>1781.4</ele>
        <time>2025-08-15T09:58:28Z</time>
      </trkpt>
      <trkpt lat="45.76017" lon="6.55119">
        <ele>1781.4</ele>
        <time>2025-08-15T09:58:29Z</time>
      </trkpt>
      <trkpt lat="45.76017" lon="6.5512">
        <ele>1781.4</ele>
        <time>2025-08-15T09:58:30Z</time>
      </trkpt>
      <trkpt lat="45.76017" lon="6.55121">
        <ele>1781.4</ele>
        <time>2025-08-15T09:58:31Z</time>
      </trkpt>
      <trkpt lat="45.76017" lon="6.55121">
        <ele>1781.4</ele>
        <time>2025-08-15T09:58:32Z</time>
      </trkpt>
      <trkpt lat="45.76017" lon="6.55121">
        <ele>1781.4</ele>
        <time>2025-08-15T09:58:33Z</time>
      </trkpt>
      <trkpt lat="45.76017" lon="6.55121">
        <ele>1781.4</ele>
        <time>2025-08-15T09:58:34Z</time>
      </trkpt>
      <trkpt lat="45.76017" lon="6.55121">
        <ele>1781.4</ele>
        <time>2025-08-15T09:58:35Z</time>
      </trkpt>
      <trkpt lat="45.76017" lon="6.55121">
        <ele>1781.4</ele>
        <time>2025-08-15T09:58:36Z</time>
      </trkpt>
      <trkpt lat="45.76017" lon="6.55121">
        <ele>1781.4</ele>
        <time>2025-08-15T09:58:37Z</time>
      </trkpt>
      <trkpt lat="45.76017" lon="6.55121">
        <ele>1781.4</ele>
        <time>2025-08-15T09:58:38Z</time>
      </trkpt>
      <trkpt lat="45.76017" lon="6.55121">
        <ele>1781.4</ele>
        <time>2025-08-15T09:58:39Z</time>
      </trkpt>
      <trkpt lat="45.76017" lon="6.55121">
        <ele>1781.4</ele>
        <time>2025-08-15T09:58:40Z</time>
      </trkpt>
      <trkpt lat="45.7604" lon="6.55141">
        <ele>1782.3</ele>
        <time>2025-08-15T11:48:06Z</time>
      </trkpt>
      <trkpt lat="45.7604" lon="6.55141">
        <ele>1782.3</ele>
        <time>2025-08-15T11:48:07Z</time>
      </trkpt>
      <trkpt lat="45.7604" lon="6.55141">
        <ele>1782.3</ele>
        <time>2025-08-15T11:48:08Z</time>
      </trkpt>
      <trkpt lat="45.7604" lon="6.55141">
        <ele>1782.3</ele>
        <time>2025-08-15T11:48:09Z</time>
      </trkpt>
      <trkpt lat="45.7604" lon="6.55141">
        <ele>1782.3</ele>
        <time>2025-08-15T11:48:10Z</time>
      </trkpt>
      <trkpt lat="45.7604" lon="6.55141">
        <ele>1782.4</ele>
        <time>2025-08-15T11:48:11Z</time>
      </trkpt>
      <trkpt lat="45.76039" lon="6.55142">
        <ele>1782.4</ele>
        <time>2025-08-15T11:48:12Z</time>
      </trkpt>
      <trkpt lat="45.76039" lon="6.55142">
        <ele>1782.4</ele>
        <time>2025-08-15T11:48:13Z</time>
      </trkpt>
      <trkpt lat="45.7604" lon="6.55142">
        <ele>1782.4</ele>
        <time>2025-08-15T11:48:14Z</time>
      </trkpt>
      <trkpt lat="45.7604" lon="6.55142">
        <ele>1782.4</ele>
        <time>2025-08-15T11:48:15Z</time>
      </trkpt>
      <trkpt lat="45.7604" lon="6.55141">
        <ele>1782.4</ele>
        <time>2025-08-15T11:48:16Z</time>
      </trkpt>
      <trkpt lat="45.76038" lon="6.55144">
        <ele>1782.5</ele>
        <time>2025-08-15T11:49:25Z</time>
      </trkpt>
      <trkpt lat="45.76038" lon="6.55144">
        <ele>1782.6</ele>
        <time>2025-08-15T11:49:26Z</time>
      </trkpt>
      <trkpt lat="45.76037" lon="6.55143">
        <ele>1782.6</ele>
        <time>2025-08-15T11:49:27Z</time>
      </trkpt>
      <trkpt lat="45.76038" lon="6.55142">
        <ele>1782.7</ele>
        <time>2025-08-15T11:49:28Z</time>
      </trkpt>
      <trkpt lat="45.76038" lon="6.55141">
        <ele>1782.7</ele>
        <time>2025-08-15T11:49:29Z</time>
      </trkpt>
      <trkpt lat="45.76043" lon="6.55151">
        <ele>1783.1</ele>
        <time>2025-08-15T11:49:30Z</time>
      </trkpt>
      <trkpt lat="45.76047" lon="6.55161">
        <ele>1783.6</ele>
        <time>2025-08-15T11:49:31Z</time>
      </trkpt>
      <trkpt lat="45.76052" lon="6.55171">
        <ele>1783.9</ele>
        <time>2025-08-15T11:49:32Z</time>
      </trkpt>
      <trkpt lat="45.76056" lon="6.55181">
        <ele>1784.2</ele>
        <time>2025-08-15T11:49:33Z</time>
      </trkpt>
      <trkpt lat="45.76061" lon="6.55191">
        <ele>1784.6</ele>
        <time>2025-08-15T11:49:34Z</time>
      </trkpt>
      <trkpt lat="45.76065" lon="6.55201">
        <ele>1784.9</ele>
        <time>2025-08-15T11:49:35Z</time>
      </trkpt>
      <trkpt lat="45.7607" lon="6.55211">
        <ele>1785.3</ele>
        <time>2025-08-15T11:51:22Z</time>
      </trkpt>
      <trkpt lat="45.76074" lon="6.55221">
        <ele>1785.8</ele>
        <time>2025-08-15T11:51:23Z</time>
      </trkpt>
      <trkpt lat="45.76077" lon="6.55219">
        <ele>1785.9</ele>
        <time>2025-08-15T11:51:24Z</time>
      </trkpt>
      <trkpt lat="45.7608" lon="6.55215">
        <ele>1786.1</ele>
        <time>2025-08-15T11:51:25Z</time>
      </trkpt>
      <trkpt lat="45.76081" lon="6.55214">
        <ele>1786.2</ele>
        <time>2025-08-15T11:51:26Z</time>
      </trkpt>
      <trkpt lat="45.76083" lon="6.5521">
        <ele>1786.3</ele>
        <time>2025-08-15T11:51:27Z</time>
      </trkpt>
      <trkpt lat="45.76085" lon="6.55206">
        <ele>1786.4</ele>
        <time>2025-08-15T11:51:28Z</time>
      </trkpt>
      <trkpt lat="45.76087" lon="6.55202">
        <ele>1786.5</ele>
        <time>2025-08-15T11:51:29Z</time>
      </trkpt>
      <trkpt lat="45.76089" lon="6.55198">
        <ele>1786.6</ele>
        <time>2025-08-15T11:51:30Z</time>
      </trkpt>
      <trkpt lat="45.76092" lon="6.55192">
        <ele>1786.6</ele>
        <time>2025-08-15T11:51:31Z</time>
      </trkpt>
      <trkpt lat="45.76093" lon="6.55185">
        <ele>1786.6</ele>
        <time>2025-08-15T11:51:32Z</time>
      </trkpt>
      <trkpt lat="45.76096" lon="6.55177">
        <ele>1786.6</ele>
        <time>2025-08-15T11:51:33Z</time>
      </trkpt>
      <trkpt lat="45.76098" lon="6.55169">
        <ele>1786.4</ele>
        <time>2025-08-15T11:51:34Z</time>
      </trkpt>
      <trkpt lat="45.761" lon="6.5516">
        <ele>1786.2</ele>
        <time>2025-08-15T11:51:35Z</time>
      </trkpt>
      <trkpt lat="45.76103" lon="6.5515">
        <ele>1786</ele>
        <time>2025-08-15T11:51:36Z</time>
      </trkpt>
      <trkpt lat="45.76106" lon="6.5514">
        <ele>1785.9</ele>
        <time>2025-08-15T11:51:37Z</time>
      </trkpt>
      <trkpt lat="45.7611" lon="6.5513">
        <ele>1785.8</ele>
        <time>2025-08-15T11:51:38Z</time>
      </trkpt>
      <trkpt lat="45.76115" lon="6.55121">
        <ele>1786</ele>
        <time>2025-08-15T11:51:39Z</time>
      </trkpt>
      <trkpt lat="45.76119" lon="6.55112">
        <ele>1786.4</ele>
        <time>2025-08-15T11:51:40Z</time>
      </trkpt>
      <trkpt lat="45.76123" lon="6.55103">
        <ele>1787</ele>
        <time>2025-08-15T11:51:41Z</time>
      </trkpt>
      <trkpt lat="45.76128" lon="6.55097">
        <ele>1787.7</ele>
        <time>2025-08-15T11:51:42Z</time>
      </trkpt>
      <trkpt lat="45.76132" lon="6.55092">
        <ele>1788.3</ele>
        <time>2025-08-15T11:51:43Z</time>
      </trkpt>
      <trkpt lat="45.76137" lon="6.55088">
        <ele>1789</ele>
        <time>2025-08-15T11:51:44Z</time>
      </trkpt>
      <trkpt lat="45.76142" lon="6.55085">
        <ele>1789.6</ele>
        <time>2025-08-15T11:51:45Z</time>
      </trkpt>
      <trkpt lat="45.76147" lon="6.55083">
        <ele>1790.1</ele>
        <time>2025-08-15T11:51:46Z</time>
      </trkpt>
      <trkpt lat="45.76151" lon="6.5508">
        <ele>1790.6</ele>
        <time>2025-08-15T11:51:47Z</time>
      </trkpt>
      <trkpt lat="45.76155" lon="6.55078">
        <ele>1790.9</ele>
        <time>2025-08-15T11:51:48Z</time>
      </trkpt>
      <trkpt lat="45.76159" lon="6.55077">
        <ele>1791.2</ele>
        <time>2025-08-15T11:51:49Z</time>
      </trkpt>
      <trkpt lat="45.76162" lon="6.55077">
        <ele>1791.6</ele>
        <time>2025-08-15T11:51:50Z</time>
      </trkpt>
      <trkpt lat="45.76165" lon="6.55077">
        <ele>1791.6</ele>
        <time>2025-08-15T11:51:51Z</time>
      </trkpt>
      <trkpt lat="45.76169" lon="6.55079">
        <ele>1791.6</ele>
        <time>2025-08-15T11:51:52Z</time>
      </trkpt>
      <trkpt lat="45.7617" lon="6.5508">
        <ele>1791.6</ele>
        <time>2025-08-15T11:51:53Z</time>
      </trkpt>
      <trkpt lat="45.76173" lon="6.55084">
        <ele>1791.5</ele>
        <time>2025-08-15T11:51:54Z</time>
      </trkpt>
      <trkpt lat="45.76173" lon="6.55085">
        <ele>1791.5</ele>
        <time>2025-08-15T11:51:55Z</time>
      </trkpt>
      <trkpt lat="45.76175" lon="6.55089">
        <ele>1791.5</ele>
        <time>2025-08-15T11:51:56Z</time>
      </trkpt>
      <trkpt lat="45.76176" lon="6.5509">
        <ele>1791.5</ele>
        <time>2025-08-15T11:51:57Z</time>
      </trkpt>
      <trkpt lat="45.76176" lon="6.55092">
        <ele>1791.4</ele>
        <time>2025-08-15T11:51:58Z</time>
      </trkpt>
      <trkpt lat="45.76177" lon="6.55094">
        <ele>1791.4</ele>
        <time>2025-08-15T11:51:59Z</time>
      </trkpt>
      <trkpt lat="45.76177" lon="6.55095">
        <ele>1791.4</ele>
        <time>2025-08-15T11:52:00Z</time>
      </trkpt>
      <trkpt lat="45.76177" lon="6.55095">
        <ele>1791.4</ele>
        <time>2025-08-15T11:52:01Z</time>
      </trkpt>
      <trkpt lat="45.76177" lon="6.55096">
        <ele>1791.4</ele>
        <time>2025-08-15T11:52:02Z</time>
      </trkpt>
      <trkpt lat="45.76176" lon="6.55097">
        <ele>1791.4</ele>
        <time>2025-08-15T11:52:03Z</time>
      </trkpt>
      <trkpt lat="45.76176" lon="6.55097">
        <ele>1791.4</ele>
        <time>2025-08-15T11:52:04Z</time>
      </trkpt>
      <trkpt lat="45.76176" lon="6.55098">
        <ele>1791.4</ele>
        <time>2025-08-15T11:52:05Z</time>
      </trkpt>
      <trkpt lat="45.76176" lon="6.55099">
        <ele>1791.4</ele>
        <time>2025-08-15T11:52:06Z</time>
      </trkpt>
      <trkpt lat="45.76176" lon="6.55099">
        <ele>1791.4</ele>
        <time>2025-08-15T11:52:07Z</time>
      </trkpt>
      <trkpt lat="45.76176" lon="6.551">
        <ele>1791.4</ele>
        <time>2025-08-15T11:52:08Z</time>
      </trkpt>
      <trkpt lat="45.76176" lon="6.55101">
        <ele>1791.4</ele>
        <time>2025-08-15T11:52:09Z</time>
      </trkpt>
      <trkpt lat="45.76174" lon="6.55104">
        <ele>1791.3</ele>
        <time>2025-08-15T11:52:10Z</time>
      </trkpt>
      <trkpt lat="45.7617" lon="6.55105">
        <ele>1791.3</ele>
        <time>2025-08-15T11:52:11Z</time>
      </trkpt>
      <trkpt lat="45.76167" lon="6.55104">
        <ele>1791.3</ele>
        <time>2025-08-15T11:52:12Z</time>
      </trkpt>
      <trkpt lat="45.76164" lon="6.55104">
        <ele>1791.2</ele>
        <time>2025-08-15T11:52:13Z</time>
      </trkpt>
      <trkpt lat="45.76161" lon="6.55105">
        <ele>1791.2</ele>
        <time>2025-08-15T11:52:14Z</time>
      </trkpt>
      <trkpt lat="45.76158" lon="6.55106">
        <ele>1791.2</ele>
        <time>2025-08-15T11:52:15Z</time>
      </trkpt>
      <trkpt lat="45.76155" lon="6.55106">
        <ele>1791.2</ele>
        <time>2025-08-15T11:52:16Z</time>
      </trkpt>
      <trkpt lat="45.76152" lon="6.55106">
        <ele>1791.1</ele>
        <time>2025-08-15T11:52:17Z</time>
      </trkpt>
      <trkpt lat="45.76149" lon="6.55108">
        <ele>1791.1</ele>
        <time>2025-08-15T11:52:18Z</time>
      </trkpt>
      <trkpt lat="45.76148" lon="6.55109">
        <ele>1791.1</ele>
        <time>2025-08-15T11:52:19Z</time>
      </trkpt>
      <trkpt lat="45.76145" lon="6.55113">
        <ele>1791.1</ele>
        <time>2025-08-15T11:52:20Z</time>
      </trkpt>
      <trkpt lat="45.76145" lon="6.55115">
        <ele>1791</ele>
        <time>2025-08-15T11:52:21Z</time>
      </trkpt>
      <trkpt lat="45.76142" lon="6.55119">
        <ele>1791</ele>
        <time>2025-08-15T11:52:22Z</time>
      </trkpt>
      <trkpt lat="45.76141" lon="6.5512">
        <ele>1791</ele>
        <time>2025-08-15T11:52:23Z</time>
      </trkpt>
      <trkpt lat="45.76138" lon="6.55123">
        <ele>1791</ele>
        <time>2025-08-15T11:52:24Z</time>
      </trkpt>
      <trkpt lat="45.76137" lon="6.55124">
        <ele>1791</ele>
        <time>2025-08-15T11:52:25Z</time>
      </trkpt>
      <trkpt lat="45.76134" lon="6.55127">
        <ele>1790.9</ele>
        <time>2025-08-15T11:52:26Z</time>
      </trkpt>
      <trkpt lat="45.76133" lon="6.55129">
        <ele>1790.9</ele>
        <time>2025-08-15T11:52:27Z</time>
      </trkpt>
      <trkpt lat="45.76132" lon="6.55134">
        <ele>1790.9</ele>
        <time>2025-08-15T11:52:28Z</time>
      </trkpt>
      <trkpt lat="45.76132" lon="6.55135">
        <ele>1790.9</ele>
        <time>2025-08-15T11:52:29Z</time>
      </trkpt>
      <trkpt lat="45.76131" lon="6.55139">
        <ele>1790.9</ele>
        <time>2025-08-15T11:52:30Z</time>
      </trkpt>
      <trkpt lat="45.76131" lon="6.5514">
        <ele>1790.9</ele>
        <time>2025-08-15T11:52:31Z</time>
      </trkpt>
      <trkpt lat="45.7613" lon="6.55142">
        <ele>1790.9</ele>
        <time>2025-08-15T11:52:32Z</time>
      </trkpt>
      <trkpt lat="45.76129" lon="6.55144">
        <ele>1790.9</ele>
        <time>2025-08-15T11:52:33Z</time>
      </trkpt>
      <trkpt lat="45.76129" lon="6.55146">
        <ele>1790.8</ele>
        <time>2025-08-15T11:52:34Z</time>
      </trkpt>
      <trkpt lat="45.76128" lon="6.55148">
        <ele>1790.8</ele>
        <time>2025-08-15T11:52:35Z</time>
      </trkpt>
      <trkpt lat="45.76128" lon="6.55151">
        <ele>1790.8</ele>
        <time>2025-08-15T11:52:36Z</time>
      </trkpt>
      <trkpt lat="45.76128" lon="6.55153">
        <ele>1790.8</ele>
        <time>2025-08-15T11:52:37Z</time>
      </trkpt>
      <trkpt lat="45.76127" lon="6.55155">
        <ele>1790.8</ele>
        <time>2025-08-15T11:52:38Z</time>
      </trkpt>
      <trkpt lat="45.76126" lon="6.55157">
        <ele>1790.8</ele>
        <time>2025-08-15T11:52:39Z</time>
      </trkpt>
      <trkpt lat="45.76125" lon="6.55159">
        <ele>1790.8</ele>
        <time>2025-08-15T11:52:40Z</time>
      </trkpt>
      <trkpt lat="45.76124" lon="6.55161">
        <ele>1790.8</ele>
        <time>2025-08-15T11:52:41Z</time>
      </trkpt>
      <trkpt lat="45.76123" lon="6.55162">
        <ele>1790.8</ele>
        <time>2025-08-15T11:52:42Z</time>
      </trkpt>
      <trkpt lat="45.76121" lon="6.55164">
        <ele>1790.8</ele>
        <time>2025-08-15T11:52:43Z</time>
      </trkpt>
      <trkpt lat="45.76119" lon="6.55167">
        <ele>1790.8</ele>
        <time>2025-08-15T11:52:44Z</time>
      </trkpt>
      <trkpt lat="45.76119" lon="6.55169">
        <ele>1790.8</ele>
        <time>2025-08-15T11:52:45Z</time>
      </trkpt>
      <trkpt lat="45.76118" lon="6.55172">
        <ele>1790.8</ele>
        <time>2025-08-15T11:52:46Z</time>
      </trkpt>
      <trkpt lat="45.76117" lon="6.55173">
        <ele>1790.8</ele>
        <time>2025-08-15T11:52:47Z</time>
      </trkpt>
      <trkpt lat="45.76115" lon="6.55177">
        <ele>1790.8</ele>
        <time>2025-08-15T11:52:48Z</time>
      </trkpt>
      <trkpt lat="45.76115" lon="6.55178">
        <ele>1790.8</ele>
        <time>2025-08-15T11:52:49Z</time>
      </trkpt>
      <trkpt lat="45.76113" lon="6.55181">
        <ele>1790.8</ele>
        <time>2025-08-15T11:52:50Z</time>
      </trkpt>
      <trkpt lat="45.76113" lon="6.55183">
        <ele>1790.8</ele>
        <time>2025-08-15T11:52:51Z</time>
      </trkpt>
      <trkpt lat="45.76112" lon="6.55185">
        <ele>1790.8</ele>
        <time>2025-08-15T11:52:52Z</time>
      </trkpt>
      <trkpt lat="45.76111" lon="6.55187">
        <ele>1790.8</ele>
        <time>2025-08-15T11:52:53Z</time>
      </trkpt>
      <trkpt lat="45.7611" lon="6.55189">
        <ele>1790.8</ele>
        <time>2025-08-15T11:52:54Z</time>
      </trkpt>
      <trkpt lat="45.7611" lon="6.55191">
        <ele>1790.8</ele>
        <time>2025-08-15T11:52:55Z</time>
      </trkpt>
      <trkpt lat="45.76109" lon="6.55194">
        <ele>1790.8</ele>
        <time>2025-08-15T11:52:56Z</time>
      </trkpt>
      <trkpt lat="45.76108" lon="6.55195">
        <ele>1790.8</ele>
        <time>2025-08-15T11:52:57Z</time>
      </trkpt>
      <trkpt lat="45.76108" lon="6.55196">
        <ele>1790.8</ele>
        <time>2025-08-15T11:52:58Z</time>
      </trkpt>
      <trkpt lat="45.76107" lon="6.55198">
        <ele>1790.8</ele>
        <time>2025-08-15T11:52:59Z</time>
      </trkpt>
      <trkpt lat="45.76108" lon="6.552">
        <ele>1790.8</ele>
        <time>2025-08-15T11:53:00Z</time>
      </trkpt>
      <trkpt lat="45.7611" lon="6.552">
        <ele>1790.8</ele>
        <time>2025-08-15T11:53:01Z</time>
      </trkpt>
      <trkpt lat="45.76111" lon="6.55199">
        <ele>1790.8</ele>
        <time>2025-08-15T11:53:02Z</time>
      </trkpt>
      <trkpt lat="45.76112" lon="6.55197">
        <ele>1790.8</ele>
        <time>2025-08-15T11:53:03Z</time>
      </trkpt>
      <trkpt lat="45.76113" lon="6.55193">
        <ele>1790.8</ele>
        <time>2025-08-15T11:53:04Z</time>
      </trkpt>
      <trkpt lat="45.76113" lon="6.55192">
        <ele>1790.8</ele>
        <time>2025-08-15T11:53:05Z</time>
      </trkpt>
      <trkpt lat="45.76114" lon="6.55189">
        <ele>1790.8</ele>
        <time>2025-08-15T11:53:06Z</time>
      </trkpt>
      <trkpt lat="45.76115" lon="6.55187">
        <ele>1790.8</ele>
        <time>2025-08-15T11:53:07Z</time>
      </trkpt>
      <trkpt lat="45.76116" lon="6.55186">
        <ele>1790.8</ele>
        <time>2025-08-15T11:53:08Z</time>
      </trkpt>
      <trkpt lat="45.76117" lon="6.55184">
        <ele>1790.8</ele>
        <time>2025-08-15T11:53:09Z</time>
      </trkpt>
      <trkpt lat="45.76118" lon="6.55181">
        <ele>1790.8</ele>
        <time>2025-08-15T11:53:10Z</time>
      </trkpt>
      <trkpt lat="45.76118" lon="6.5518">
        <ele>1790.8</ele>
        <time>2025-08-15T11:53:11Z</time>
      </trkpt>
      <trkpt lat="45.76118" lon="6.55179">
        <ele>1790.8</ele>
        <time>2025-08-15T11:53:12Z</time>
      </trkpt>
      <trkpt lat="45.76119" lon="6.55176">
        <ele>1790.8</ele>
        <time>2025-08-15T11:53:13Z</time>
      </trkpt>
      <trkpt lat="45.7612" lon="6.55175">
        <ele>1790.8</ele>
        <time>2025-08-15T11:53:14Z</time>
      </trkpt>
      <trkpt lat="45.7612" lon="6.55174">
        <ele>1790.8</ele>
        <time>2025-08-15T11:53:15Z</time>
      </trkpt>
      <trkpt lat="45.76121" lon="6.55173">
        <ele>1790.8</ele>
        <time>2025-08-15T11:53:16Z</time>
      </trkpt>
      <trkpt lat="45.76122" lon="6.55172">
        <ele>1790.8</ele>
        <time>2025-08-15T11:53:17Z</time>
      </trkpt>
      <trkpt lat="45.76122" lon="6.5517">
        <ele>1790.8</ele>
        <time>2025-08-15T11:53:18Z</time>
      </trkpt>
      <trkpt lat="45.76121" lon="6.55168">
        <ele>1790.8</ele>
        <time>2025-08-15T11:53:19Z</time>
      </trkpt>
      <trkpt lat="45.76119" lon="6.55168">
        <ele>1790.8</ele>
        <time>2025-08-15T11:53:20Z</time>
      </trkpt>
      <trkpt lat="45.76117" lon="6.55172">
        <ele>1790.8</ele>
        <time>2025-08-15T11:53:21Z</time>
      </trkpt>
      <trkpt lat="45.76117" lon="6.55173">
        <ele>1790.8</ele>
        <time>2025-08-15T11:53:22Z</time>
      </trkpt>
      <trkpt lat="45.76115" lon="6.55177">
        <ele>1790.7</ele>
        <time>2025-08-15T11:53:23Z</time>
      </trkpt>
      <trkpt lat="45.76115" lon="6.55178">
        <ele>1790.7</ele>
        <time>2025-08-15T11:53:24Z</time>
      </trkpt>
      <trkpt lat="45.76113" lon="6.55182">
        <ele>1790.7</ele>
        <time>2025-08-15T11:53:25Z</time>
      </trkpt>
      <trkpt lat="45.76112" lon="6.55183">
        <ele>1790.7</ele>
        <time>2025-08-15T11:53:26Z</time>
      </trkpt>
      <trkpt lat="45.76111" lon="6.55187">
        <ele>1790.7</ele>
        <time>2025-08-15T11:53:27Z</time>
      </trkpt>
      <trkpt lat="45.76111" lon="6.55188">
        <ele>1790.7</ele>
        <time>2025-08-15T11:53:28Z</time>
      </trkpt>
      <trkpt lat="45.7611" lon="6.5519">
        <ele>1790.7</ele>
        <time>2025-08-15T11:53:29Z</time>
      </trkpt>
      <trkpt lat="45.76109" lon="6.55192">
        <ele>1790.7</ele>
        <time>2025-08-15T11:53:30Z</time>
      </trkpt>
      <trkpt lat="45.76108" lon="6.55197">
        <ele>1790.7</ele>
        <time>2025-08-15T11:53:31Z</time>
      </trkpt>
      <trkpt lat="45.76108" lon="6.55198">
        <ele>1790.7</ele>
        <time>2025-08-15T11:53:32Z</time>
      </trkpt>
      <trkpt lat="45.76107" lon="6.55203">
        <ele>1790.7</ele>
        <time>2025-08-15T11:53:33Z</time>
      </trkpt>
      <trkpt lat="45.76107" lon="6.55204">
        <ele>1790.7</ele>
        <time>2025-08-15T11:53:34Z</time>
      </trkpt>
      <trkpt lat="45.76106" lon="6.55209">
        <ele>1790.7</ele>
        <time>2025-08-15T11:53:35Z</time>
      </trkpt>
      <trkpt lat="45.76106" lon="6.55211">
        <ele>1790.7</ele>
        <time>2025-08-15T11:53:36Z</time>
      </trkpt>
      <trkpt lat="45.76107" lon="6.55215">
        <ele>1790.7</ele>
        <time>2025-08-15T11:53:37Z</time>
      </trkpt>
      <trkpt lat="45.76107" lon="6.55216">
        <ele>1790.7</ele>
        <time>2025-08-15T11:53:38Z</time>
      </trkpt>
      <trkpt lat="45.76108" lon="6.55222">
        <ele>1790.7</ele>
        <time>2025-08-15T11:53:39Z</time>
      </trkpt>
      <trkpt lat="45.76108" lon="6.55224">
        <ele>1790.7</ele>
        <time>2025-08-15T11:53:40Z</time>
      </trkpt>
      <trkpt lat="45.76109" lon="6.55229">
        <ele>1790.7</ele>
        <time>2025-08-15T11:53:41Z</time>
      </trkpt>
      <trkpt lat="45.76109" lon="6.5523">
        <ele>1790.7</ele>
        <time>2025-08-15T11:53:42Z</time>
      </trkpt>
      <trkpt lat="45.7611" lon="6.55235">
        <ele>1790.7</ele>
        <time>2025-08-15T11:53:43Z</time>
      </trkpt>
      <trkpt lat="45.76111" lon="6.55236">
        <ele>1790.7</ele>
        <time>2025-08-15T11:53:44Z</time>
      </trkpt>
      <trkpt lat="45.76111" lon="6.55238">
        <ele>1790.7</ele>
        <time>2025-08-15T11:53:45Z</time>
      </trkpt>
      <trkpt lat="45.76112" lon="6.5524">
        <ele>1790.7</ele>
        <time>2025-08-15T11:53:46Z</time>
      </trkpt>
      <trkpt lat="45.76114" lon="6.55244">
        <ele>1790.7</ele>
        <time>2025-08-15T11:53:47Z</time>
      </trkpt>
      <trkpt lat="45.76115" lon="6.55245">
        <ele>1790.7</ele>
        <time>2025-08-15T11:53:48Z</time>
      </trkpt>
      <trkpt lat="45.76118" lon="6.55248">
        <ele>1790.7</ele>
        <time>2025-08-15T11:53:49Z</time>
      </trkpt>
      <trkpt lat="45.76118" lon="6.5525">
        <ele>1790.7</ele>
        <time>2025-08-15T11:53:50Z</time>
      </trkpt>
      <trkpt lat="45.76121" lon="6.55253">
        <ele>1790.7</ele>
        <time>2025-08-15T11:53:51Z</time>
      </trkpt>
      <trkpt lat="45.76122" lon="6.55254">
        <ele>1790.7</ele>
        <time>2025-08-15T11:53:52Z</time>
      </trkpt>
      <trkpt lat="45.76125" lon="6.55257">
        <ele>1790.7</ele>
        <time>2025-08-15T11:53:53Z</time>
      </trkpt>
      <trkpt lat="45.76126" lon="6.55258">
        <ele>1790.7</ele>
        <time>2025-08-15T11:53:54Z</time>
      </trkpt>
      <trkpt lat="45.76129" lon="6.55261">
        <ele>1790.7</ele>
        <time>2025-08-15T11:53:55Z</time>
      </trkpt>
      <trkpt lat="45.7613" lon="6.55262">
        <ele>1790.8</ele>
        <time>2025-08-15T11:53:56Z</time>
      </trkpt>
      <trkpt lat="45.76133" lon="6.55264">
        <ele>1790.8</ele>
        <time>2025-08-15T11:53:57Z</time>
      </trkpt>
      <trkpt lat="45.76134" lon="6.55265">
        <ele>1790.8</ele>
        <time>2025-08-15T11:53:58Z</time>
      </trkpt>
      <trkpt lat="45.76138" lon="6.55265">
        <ele>1790.8</ele>
        <time>2025-08-15T11:53:59Z</time>
      </trkpt>
      <trkpt lat="45.76139" lon="6.55265">
        <ele>1790.8</ele>
        <time>2025-08-15T11:54:00Z</time>
      </trkpt>
      <trkpt lat="45.76143" lon="6.55265">
        <ele>1790.8</ele>
        <time>2025-08-15T11:54:01Z</time>
      </trkpt>
      <trkpt lat="45.76144" lon="6.55265">
        <ele>1790.8</ele>
        <time>2025-08-15T11:54:02Z</time>
      </trkpt>
      <trkpt lat="45.76147" lon="6.55264">
        <ele>1790.9</ele>
        <time>2025-08-15T11:54:03Z</time>
      </trkpt>
      <trkpt lat="45.76148" lon="6.55264">
        <ele>1790.9</ele>
        <time>2025-08-15T11:54:04Z</time>
      </trkpt>
      <trkpt lat="45.76152" lon="6.55264">
        <ele>1790.9</ele>
        <time>2025-08-15T11:54:05Z</time>
      </trkpt>
      <trkpt lat="45.76153" lon="6.55265">
        <ele>1790.9</ele>
        <time>2025-08-15T11:54:06Z</time>
      </trkpt>
      <trkpt lat="45.76156" lon="6.55265">
        <ele>1790.9</ele>
        <time>2025-08-15T11:54:07Z</time>
      </trkpt>
      <trkpt lat="45.7616" lon="6.55265">
        <ele>1790.9</ele>
        <time>2025-08-15T11:54:08Z</time>
      </trkpt>
      <trkpt lat="45.76161" lon="6.55265">
        <ele>1790.9</ele>
        <time>2025-08-15T11:54:09Z</time>
      </trkpt>
      <trkpt lat="45.76165" lon="6.55265">
        <ele>1790.9</ele>
        <time>2025-08-15T11:54:10Z</time>
      </trkpt>
      <trkpt lat="45.76166" lon="6.55265">
        <ele>1790.9</ele>
        <time>2025-08-15T11:54:11Z</time>
      </trkpt>
      <trkpt lat="45.7617" lon="6.55266">
        <ele>1791</ele>
        <time>2025-08-15T11:54:12Z</time>
      </trkpt>
      <trkpt lat="45.76171" lon="6.55266">
        <ele>1791</ele>
        <time>2025-08-15T11:54:13Z</time>
      </trkpt>
      <trkpt lat="45.76175" lon="6.55266">
        <ele>1791</ele>
        <time>2025-08-15T11:54:14Z</time>
      </trkpt>
      <trkpt lat="45.76176" lon="6.55266">
        <ele>1791</ele>
        <time>2025-08-15T11:54:15Z</time>
      </trkpt>
      <trkpt lat="45.76179" lon="6.55266">
        <ele>1790.9</ele>
        <time>2025-08-15T11:54:16Z</time>
      </trkpt>
      <trkpt lat="45.76182" lon="6.55266">
        <ele>1790.9</ele>
        <time>2025-08-15T11:54:17Z</time>
      </trkpt>
      <trkpt lat="45.76185" lon="6.55265">
        <ele>1790.9</ele>
        <time>2025-08-15T11:54:18Z</time>
      </trkpt>
      <trkpt lat="45.76189" lon="6.55265">
        <ele>1790.9</ele>
        <time>2025-08-15T11:54:19Z</time>
      </trkpt>
      <trkpt lat="45.76191" lon="6.55265">
        <ele>1790.9</ele>
        <time>2025-08-15T11:54:20Z</time>
      </trkpt>
      <trkpt lat="45.76194" lon="6.55264">
        <ele>1790.9</ele>
        <time>2025-08-15T11:54:21Z</time>
      </trkpt>
      <trkpt lat="45.76196" lon="6.55263">
        <ele>1790.9</ele>
        <time>2025-08-15T11:54:22Z</time>
      </trkpt>
      <trkpt lat="45.762" lon="6.55262">
        <ele>1790.9</ele>
        <time>2025-08-15T11:54:23Z</time>
      </trkpt>
      <trkpt lat="45.76203" lon="6.55262">
        <ele>1790.9</ele>
        <time>2025-08-15T11:54:25Z</time>
      </trkpt>
      <trkpt lat="45.76206" lon="6.55261">
        <ele>1790.9</ele>
        <time>2025-08-15T11:54:26Z</time>
      </trkpt>
      <trkpt lat="45.76209" lon="6.55261">
        <ele>1790.8</ele>
        <time>2025-08-15T11:54:27Z</time>
      </trkpt>
      <trkpt lat="45.76212" lon="6.5526">
        <ele>1790.8</ele>
        <time>2025-08-15T11:54:28Z</time>
      </trkpt>
      <trkpt lat="45.76215" lon="6.55259">
        <ele>1790.8</ele>
        <time>2025-08-15T11:54:29Z</time>
      </trkpt>
      <trkpt lat="45.76218" lon="6.55258">
        <ele>1790.8</ele>
        <time>2025-08-15T11:54:30Z</time>
      </trkpt>
      <trkpt lat="45.76221" lon="6.55256">
        <ele>1790.8</ele>
        <time>2025-08-15T11:54:31Z</time>
      </trkpt>
      <trkpt lat="45.76223" lon="6.55253">
        <ele>1790.8</ele>
        <time>2025-08-15T11:54:32Z</time>
      </trkpt>
      <trkpt lat="45.76226" lon="6.55251">
        <ele>1790.8</ele>
        <time>2025-08-15T11:54:33Z</time>
      </trkpt>
      <trkpt lat="45.76229" lon="6.55248">
        <ele>1790.8</ele>
        <time>2025-08-15T11:54:34Z</time>
      </trkpt>
      <trkpt lat="45.76231" lon="6.55247">
        <ele>1790.8</ele>
        <time>2025-08-15T11:54:35Z</time>
      </trkpt>
      <trkpt lat="45.76233" lon="6.55245">
        <ele>1790.8</ele>
        <time>2025-08-15T11:54:36Z</time>
      </trkpt>
      <trkpt lat="45.76236" lon="6.55242">
        <ele>1790.8</ele>
        <time>2025-08-15T11:54:37Z</time>
      </trkpt>
      <trkpt lat="45.76238" lon="6.55239">
        <ele>1790.8</ele>
        <time>2025-08-15T11:54:38Z</time>
      </trkpt>
      <trkpt lat="45.7624" lon="6.55236">
        <ele>1790.8</ele>
        <time>2025-08-15T11:54:39Z</time>
      </trkpt>
      <trkpt lat="45.76241" lon="6.55232">
        <ele>1790.8</ele>
        <time>2025-08-15T11:54:40Z</time>
      </trkpt>
      <trkpt lat="45.76242" lon="6.55227">
        <ele>1790.8</ele>
        <time>2025-08-15T11:54:41Z</time>
      </trkpt>
      <trkpt lat="45.76243" lon="6.55225">
        <ele>1790.8</ele>
        <time>2025-08-15T11:54:42Z</time>
      </trkpt>
      <trkpt lat="45.76244" lon="6.5522">
        <ele>1790.8</ele>
        <time>2025-08-15T11:54:43Z</time>
      </trkpt>
      <trkpt lat="45.76244" lon="6.55219">
        <ele>1790.8</ele>
        <time>2025-08-15T11:54:44Z</time>
      </trkpt>
      <trkpt lat="45.76245" lon="6.55212">
        <ele>1790.8</ele>
        <time>2025-08-15T11:54:45Z</time>
      </trkpt>
      <trkpt lat="45.76245" lon="6.55209">
        <ele>1790.8</ele>
        <time>2025-08-15T11:54:46Z</time>
      </trkpt>
      <trkpt lat="45.76244" lon="6.55205">
        <ele>1790.8</ele>
        <time>2025-08-15T11:54:47Z</time>
      </trkpt>
      <trkpt lat="45.76244" lon="6.55203">
        <ele>1790.8</ele>
        <time>2025-08-15T11:54:48Z</time>
      </trkpt>
      <trkpt lat="45.76244" lon="6.55201">
        <ele>1790.8</ele>
        <time>2025-08-15T11:54:49Z</time>
      </trkpt>
      <trkpt lat="45.76243" lon="6.55198">
        <ele>1790.9</ele>
        <time>2025-08-15T11:54:50Z</time>
      </trkpt>
      <trkpt lat="45.76243" lon="6.55196">
        <ele>1790.9</ele>
        <time>2025-08-15T11:54:51Z</time>
      </trkpt>
      <trkpt lat="45.76244" lon="6.55191">
        <ele>1791</ele>
        <time>2025-08-15T11:54:52Z</time>
      </trkpt>
      <trkpt lat="45.76244" lon="6.55189">
        <ele>1791</ele>
        <time>2025-08-15T11:54:53Z</time>
      </trkpt>
      <trkpt lat="45.76242" lon="6.55184">
        <ele>1791</ele>
        <time>2025-08-15T11:54:54Z</time>
      </trkpt>
      <trkpt lat="45.76242" lon="6.55182">
        <ele>1791.1</ele>
        <time>2025-08-15T11:54:55Z</time>
      </trkpt>
      <trkpt lat="45.7624" lon="6.55178">
        <ele>1791.1</ele>
        <time>2025-08-15T11:54:56Z</time>
      </trkpt>
      <trkpt lat="45.76239" lon="6.55176">
        <ele>1791.1</ele>
        <time>2025-08-15T11:54:57Z</time>
      </trkpt>
      <trkpt lat="45.76237" lon="6.55172">
        <ele>1791.2</ele>
        <time>2025-08-15T11:54:58Z</time>
      </trkpt>
      <trkpt lat="45.76236" lon="6.5517">
        <ele>1791.2</ele>
        <time>2025-08-15T11:54:59Z</time>
      </trkpt>
      <trkpt lat="45.76233" lon="6.55166">
        <ele>1791.3</ele>
        <time>2025-08-15T11:55:00Z</time>
      </trkpt>
      <trkpt lat="45.76232" lon="6.55165">
        <ele>1791.3</ele>
        <time>2025-08-15T11:55:01Z</time>
      </trkpt>
      <trkpt lat="45.7623" lon="6.55163">
        <ele>1791.3</ele>
        <time>2025-08-15T11:55:02Z</time>
      </trkpt>
      <trkpt lat="45.76228" lon="6.5516">
        <ele>1791.3</ele>
        <time>2025-08-15T11:55:03Z</time>
      </trkpt>
      <trkpt lat="45.76225" lon="6.55158">
        <ele>1791.4</ele>
        <time>2025-08-15T11:55:04Z</time>
      </trkpt>
      <trkpt lat="45.76223" lon="6.55156">
        <ele>1791.4</ele>
        <time>2025-08-15T11:55:05Z</time>
      </trkpt>
      <trkpt lat="45.7622" lon="6.55154">
        <ele>1791.4</ele>
        <time>2025-08-15T11:55:06Z</time>
      </trkpt>
      <trkpt lat="45.76218" lon="6.55151">
        <ele>1791.4</ele>
        <time>2025-08-15T11:55:07Z</time>
      </trkpt>
      <trkpt lat="45.76215" lon="6.55149">
        <ele>1791.4</ele>
        <time>2025-08-15T11:55:08Z</time>
      </trkpt>
      <trkpt lat="45.76213" lon="6.55146">
        <ele>1791.4</ele>
        <time>2025-08-15T11:55:09Z</time>
      </trkpt>
      <trkpt lat="45.76211" lon="6.55143">
        <ele>1791.5</ele>
        <time>2025-08-15T11:55:10Z</time>
      </trkpt>
      <trkpt lat="45.76208" lon="6.5514">
        <ele>1791.5</ele>
        <time>2025-08-15T11:55:11Z</time>
      </trkpt>
      <trkpt lat="45.76206" lon="6.55137">
        <ele>1791.5</ele>
        <time>2025-08-15T11:55:12Z</time>
      </trkpt>
      <trkpt lat="45.76204" lon="6.55135">
        <ele>1791.5</ele>
        <time>2025-08-15T11:55:13Z</time>
      </trkpt>
      <trkpt lat="45.76201" lon="6.55132">
        <ele>1791.4</ele>
        <time>2025-08-15T11:55:14Z</time>
      </trkpt>
      <trkpt lat="45.76199" lon="6.5513">
        <ele>1791.4</ele>
        <time>2025-08-15T11:55:15Z</time>
      </trkpt>
      <trkpt lat="45.76197" lon="6.55126">
        <ele>1791.4</ele>
        <time>2025-08-15T11:55:16Z</time>
      </trkpt>
      <trkpt lat="45.76194" lon="6.55123">
        <ele>1791.4</ele>
        <time>2025-08-15T11:55:17Z</time>
      </trkpt>
      <trkpt lat="45.76192" lon="6.5512">
        <ele>1791.4</ele>
        <time>2025-08-15T11:55:18Z</time>
      </trkpt>
      <trkpt lat="45.76189" lon="6.55117">
        <ele>1791.4</ele>
        <time>2025-08-15T11:55:19Z</time>
      </trkpt>
      <trkpt lat="45.76187" lon="6.55115">
        <ele>1791.4</ele>
        <time>2025-08-15T11:55:20Z</time>
      </trkpt>
      <trkpt lat="45.76185" lon="6.55113">
        <ele>1791.4</ele>
        <time>2025-08-15T11:55:21Z</time>
      </trkpt>
      <trkpt lat="45.76182" lon="6.5511">
        <ele>1791.4</ele>
        <time>2025-08-15T11:55:22Z</time>
      </trkpt>
      <trkpt lat="45.7618" lon="6.55108">
        <ele>1791.4</ele>
        <time>2025-08-15T11:55:23Z</time>
      </trkpt>
      <trkpt lat="45.76179" lon="6.55104">
        <ele>1791.4</ele>
        <time>2025-08-15T11:55:24Z</time>
      </trkpt>
      <trkpt lat="45.76178" lon="6.551">
        <ele>1791.4</ele>
        <time>2025-08-15T11:55:25Z</time>
      </trkpt>
      <trkpt lat="45.76177" lon="6.55096">
        <ele>1791.5</ele>
        <time>2025-08-15T11:55:26Z</time>
      </trkpt>
      <trkpt lat="45.76176" lon="6.55095">
        <ele>1791.5</ele>
        <time>2025-08-15T11:55:27Z</time>
      </trkpt>
      <trkpt lat="45.76175" lon="6.55093">
        <ele>1791.5</ele>
        <time>2025-08-15T11:55:28Z</time>
      </trkpt>
      <trkpt lat="45.76175" lon="6.55091">
        <ele>1791.5</ele>
        <time>2025-08-15T11:55:29Z</time>
      </trkpt>
      <trkpt lat="45.76173" lon="6.55087">
        <ele>1791.5</ele>
        <time>2025-08-15T11:55:30Z</time>
      </trkpt>
      <trkpt lat="45.76173" lon="6.55086">
        <ele>1791.5</ele>
        <time>2025-08-15T11:55:31Z</time>
      </trkpt>
      <trkpt lat="45.76171" lon="6.55082">
        <ele>1791.6</ele>
        <time>2025-08-15T11:55:32Z</time>
      </trkpt>
      <trkpt lat="45.76171" lon="6.55081">
        <ele>1791.6</ele>
        <time>2025-08-15T11:55:33Z</time>
      </trkpt>
      <trkpt lat="45.7617" lon="6.55079">
        <ele>1791.6</ele>
        <time>2025-08-15T11:55:34Z</time>
      </trkpt>
      <trkpt lat="45.7617" lon="6.55078">
        <ele>1791.6</ele>
        <time>2025-08-15T11:55:35Z</time>
      </trkpt>
      <trkpt lat="45.76169" lon="6.55077">
        <ele>1791.6</ele>
        <time>2025-08-15T11:55:36Z</time>
      </trkpt>
      <trkpt lat="45.76168" lon="6.55076">
        <ele>1791.6</ele>
        <time>2025-08-15T11:55:37Z</time>
      </trkpt>
      <trkpt lat="45.76167" lon="6.55075">
        <ele>1791.6</ele>
        <time>2025-08-15T11:55:38Z</time>
      </trkpt>
      <trkpt lat="45.76167" lon="6.55075">
        <ele>1791.6</ele>
        <time>2025-08-15T11:55:39Z</time>
      </trkpt>
      <trkpt lat="45.76167" lon="6.55074">
        <ele>1791.6</ele>
        <time>2025-08-15T11:55:40Z</time>
      </trkpt>
      <trkpt lat="45.76167" lon="6.55073">
        <ele>1791.6</ele>
        <time>2025-08-15T11:55:41Z</time>
      </trkpt>
      <trkpt lat="45.76167" lon="6.55073">
        <ele>1791.6</ele>
        <time>2025-08-15T11:55:42Z</time>
      </trkpt>
      <trkpt lat="45.76167" lon="6.55072">
        <ele>1791.6</ele>
        <time>2025-08-15T11:55:43Z</time>
      </trkpt>
      <trkpt lat="45.76167" lon="6.55071">
        <ele>1791.6</ele>
        <time>2025-08-15T11:55:44Z</time>
      </trkpt>
      <trkpt lat="45.76168" lon="6.5507">
        <ele>1791.6</ele>
        <time>2025-08-15T11:55:45Z</time>
      </trkpt>
      <trkpt lat="45.76168" lon="6.5507">
        <ele>1791.6</ele>
        <time>2025-08-15T11:55:46Z</time>
      </trkpt>
      <trkpt lat="45.76168" lon="6.55069">
        <ele>1791.6</ele>
        <time>2025-08-15T11:55:47Z</time>
      </trkpt>
      <trkpt lat="45.76168" lon="6.55068">
        <ele>1791.6</ele>
        <time>2025-08-15T11:55:48Z</time>
      </trkpt>
      <trkpt lat="45.76168" lon="6.55067">
        <ele>1791.7</ele>
        <time>2025-08-15T11:55:49Z</time>
      </trkpt>
      <trkpt lat="45.76169" lon="6.55067">
        <ele>1791.7</ele>
        <time>2025-08-15T11:56:21Z</time>
      </trkpt>
      <trkpt lat="45.76169" lon="6.55066">
        <ele>1791.7</ele>
        <time>2025-08-15T11:56:22Z</time>
      </trkpt>
      <trkpt lat="45.76172" lon="6.55063">
        <ele>1791.8</ele>
        <time>2025-08-15T11:56:23Z</time>
      </trkpt>
      <trkpt lat="45.76173" lon="6.55062">
        <ele>1791.8</ele>
        <time>2025-08-15T11:56:24Z</time>
      </trkpt>
      <trkpt lat="45.76174" lon="6.55058">
        <ele>1792</ele>
        <time>2025-08-15T11:56:25Z</time>
      </trkpt>
      <trkpt lat="45.76175" lon="6.55056">
        <ele>1792.1</ele>
        <time>2025-08-15T11:56:26Z</time>
      </trkpt>
      <trkpt lat="45.76177" lon="6.55052">
        <ele>1792.4</ele>
        <time>2025-08-15T11:56:27Z</time>
      </trkpt>
      <trkpt lat="45.76177" lon="6.55051">
        <ele>1792.4</ele>
        <time>2025-08-15T11:56:28Z</time>
      </trkpt>
      <trkpt lat="45.76179" lon="6.55048">
        <ele>1792.6</ele>
        <time>2025-08-15T11:56:29Z</time>
      </trkpt>
      <trkpt lat="45.7618" lon="6.55045">
        <ele>1792.8</ele>
        <time>2025-08-15T11:56:31Z</time>
      </trkpt>
      <trkpt lat="45.76183" lon="6.55041">
        <ele>1793</ele>
        <time>2025-08-15T11:56:32Z</time>
      </trkpt>
      <trkpt lat="45.76183" lon="6.55039">
        <ele>1793.1</ele>
        <time>2025-08-15T11:56:33Z</time>
      </trkpt>
      <trkpt lat="45.76185" lon="6.55035">
        <ele>1793.4</ele>
        <time>2025-08-15T11:56:34Z</time>
      </trkpt>
      <trkpt lat="45.76185" lon="6.55034">
        <ele>1793.4</ele>
        <time>2025-08-15T11:56:35Z</time>
      </trkpt>
      <trkpt lat="45.76187" lon="6.55029">
        <ele>1793.6</ele>
        <time>2025-08-15T11:56:36Z</time>
      </trkpt>
      <trkpt lat="45.76187" lon="6.55028">
        <ele>1793.7</ele>
        <time>2025-08-15T11:56:37Z</time>
      </trkpt>
      <trkpt lat="45.76189" lon="6.55024">
        <ele>1793.9</ele>
        <time>2025-08-15T11:56:38Z</time>
      </trkpt>
      <trkpt lat="45.76189" lon="6.55022">
        <ele>1794</ele>
        <time>2025-08-15T11:56:39Z</time>
      </trkpt>
      <trkpt lat="45.7619" lon="6.55018">
        <ele>1794.2</ele>
        <time>2025-08-15T11:56:40Z</time>
      </trkpt>
      <trkpt lat="45.76191" lon="6.55016">
        <ele>1794.2</ele>
        <time>2025-08-15T11:56:41Z</time>
      </trkpt>
      <trkpt lat="45.76192" lon="6.55012">
        <ele>1794.4</ele>
        <time>2025-08-15T11:56:42Z</time>
      </trkpt>
      <trkpt lat="45.76193" lon="6.5501">
        <ele>1794.5</ele>
        <time>2025-08-15T11:56:43Z</time>
      </trkpt>
      <trkpt lat="45.76195" lon="6.55006">
        <ele>1794.7</ele>
        <time>2025-08-15T11:56:44Z</time>
      </trkpt>
      <trkpt lat="45.76195" lon="6.55004">
        <ele>1794.8</ele>
        <time>2025-08-15T11:56:45Z</time>
      </trkpt>
      <trkpt lat="45.76197" lon="6.54999">
        <ele>1795</ele>
        <time>2025-08-15T11:56:46Z</time>
      </trkpt>
      <trkpt lat="45.76197" lon="6.54998">
        <ele>1795</ele>
        <time>2025-08-15T11:56:47Z</time>
      </trkpt>
      <trkpt lat="45.76199" lon="6.54994">
        <ele>1795.2</ele>
        <time>2025-08-15T11:56:48Z</time>
      </trkpt>
      <trkpt lat="45.762" lon="6.54992">
        <ele>1795.3</ele>
        <time>2025-08-15T11:56:49Z</time>
      </trkpt>
      <trkpt lat="45.76202" lon="6.54988">
        <ele>1795.4</ele>
        <time>2025-08-15T11:56:50Z</time>
      </trkpt>
      <trkpt lat="45.76202" lon="6.54987">
        <ele>1795.5</ele>
        <time>2025-08-15T11:56:51Z</time>
      </trkpt>
      <trkpt lat="45.76204" lon="6.54981">
        <ele>1795.7</ele>
        <time>2025-08-15T11:56:52Z</time>
      </trkpt>
      <trkpt lat="45.76205" lon="6.54978">
        <ele>1795.9</ele>
        <time>2025-08-15T11:56:53Z</time>
      </trkpt>
      <trkpt lat="45.76206" lon="6.54975">
        <ele>1796</ele>
        <time>2025-08-15T11:56:54Z</time>
      </trkpt>
      <trkpt lat="45.76207" lon="6.54971">
        <ele>1796.2</ele>
        <time>2025-08-15T11:56:55Z</time>
      </trkpt>
      <trkpt lat="45.76208" lon="6.54969">
        <ele>1796.2</ele>
        <time>2025-08-15T11:56:56Z</time>
      </trkpt>
      <trkpt lat="45.76209" lon="6.54964">
        <ele>1796.4</ele>
        <time>2025-08-15T11:56:57Z</time>
      </trkpt>
      <trkpt lat="45.76209" lon="6.54963">
        <ele>1796.5</ele>
        <time>2025-08-15T11:56:58Z</time>
      </trkpt>
      <trkpt lat="45.76211" lon="6.54959">
        <ele>1796.7</ele>
        <time>2025-08-15T11:56:59Z</time>
      </trkpt>
      <trkpt lat="45.76212" lon="6.54957">
        <ele>1796.8</ele>
        <time>2025-08-15T11:57:00Z</time>
      </trkpt>
      <trkpt lat="45.76213" lon="6.54953">
        <ele>1797</ele>
        <time>2025-08-15T11:57:01Z</time>
      </trkpt>
      <trkpt lat="45.76214" lon="6.54951">
        <ele>1797</ele>
        <time>2025-08-15T11:57:02Z</time>
      </trkpt>
      <trkpt lat="45.76216" lon="6.54947">
        <ele>1797.2</ele>
        <time>2025-08-15T11:57:03Z</time>
      </trkpt>
      <trkpt lat="45.76216" lon="6.54945">
        <ele>1797.3</ele>
        <time>2025-08-15T11:57:04Z</time>
      </trkpt>
      <trkpt lat="45.76217" lon="6.54941">
        <ele>1797.5</ele>
        <time>2025-08-15T11:57:05Z</time>
      </trkpt>
      <trkpt lat="45.76218" lon="6.54939">
        <ele>1797.6</ele>
        <time>2025-08-15T11:57:06Z</time>
      </trkpt>
      <trkpt lat="45.76219" lon="6.54935">
        <ele>1797.8</ele>
        <time>2025-08-15T11:57:07Z</time>
      </trkpt>
      <trkpt lat="45.7622" lon="6.54933">
        <ele>1797.8</ele>
        <time>2025-08-15T11:57:08Z</time>
      </trkpt>
      <trkpt lat="45.76221" lon="6.54929">
        <ele>1798</ele>
        <time>2025-08-15T11:57:09Z</time>
      </trkpt>
      <trkpt lat="45.76221" lon="6.54927">
        <ele>1798.1</ele>
        <time>2025-08-15T11:57:10Z</time>
      </trkpt>
      <trkpt lat="45.76222" lon="6.54923">
        <ele>1798.2</ele>
        <time>2025-08-15T11:57:11Z</time>
      </trkpt>
      <trkpt lat="45.76223" lon="6.54922">
        <ele>1798.3</ele>
        <time>2025-08-15T11:57:12Z</time>
      </trkpt>
      <trkpt lat="45.76223" lon="6.54917">
        <ele>1798.5</ele>
        <time>2025-08-15T11:57:13Z</time>
      </trkpt>
      <trkpt lat="45.76224" lon="6.54916">
        <ele>1798.6</ele>
        <time>2025-08-15T11:57:14Z</time>
      </trkpt>
      <trkpt lat="45.76225" lon="6.54911">
        <ele>1798.8</ele>
        <time>2025-08-15T11:57:15Z</time>
      </trkpt>
      <trkpt lat="45.76225" lon="6.5491">
        <ele>1798.8</ele>
        <time>2025-08-15T11:57:16Z</time>
      </trkpt>
      <trkpt lat="45.76226" lon="6.54906">
        <ele>1799</ele>
        <time>2025-08-15T11:57:17Z</time>
      </trkpt>
      <trkpt lat="45.76227" lon="6.54904">
        <ele>1799.1</ele>
        <time>2025-08-15T11:57:18Z</time>
      </trkpt>
      <trkpt lat="45.76228" lon="6.549">
        <ele>1799.3</ele>
        <time>2025-08-15T11:57:19Z</time>
      </trkpt>
      <trkpt lat="45.76228" lon="6.54898">
        <ele>1799.4</ele>
        <time>2025-08-15T11:57:20Z</time>
      </trkpt>
      <trkpt lat="45.76229" lon="6.54894">
        <ele>1799.7</ele>
        <time>2025-08-15T11:57:21Z</time>
      </trkpt>
      <trkpt lat="45.7623" lon="6.54892">
        <ele>1799.7</ele>
        <time>2025-08-15T11:57:22Z</time>
      </trkpt>
      <trkpt lat="45.76231" lon="6.54888">
        <ele>1800</ele>
        <time>2025-08-15T11:57:23Z</time>
      </trkpt>
      <trkpt lat="45.76231" lon="6.54887">
        <ele>1800.1</ele>
        <time>2025-08-15T11:57:24Z</time>
      </trkpt>
      <trkpt lat="45.76232" lon="6.54885">
        <ele>1800.2</ele>
        <time>2025-08-15T11:57:25Z</time>
      </trkpt>
      <trkpt lat="45.76233" lon="6.54883">
        <ele>1800.4</ele>
        <time>2025-08-15T11:57:26Z</time>
      </trkpt>
      <trkpt lat="45.76233" lon="6.54879">
        <ele>1800.6</ele>
        <time>2025-08-15T11:57:27Z</time>
      </trkpt>
      <trkpt lat="45.76234" lon="6.54877">
        <ele>1800.7</ele>
        <time>2025-08-15T11:57:28Z</time>
      </trkpt>
      <trkpt lat="45.76234" lon="6.54875">
        <ele>1800.9</ele>
        <time>2025-08-15T11:57:29Z</time>
      </trkpt>
      <trkpt lat="45.76235" lon="6.54873">
        <ele>1801</ele>
        <time>2025-08-15T11:57:30Z</time>
      </trkpt>
      <trkpt lat="45.76236" lon="6.54871">
        <ele>1801.2</ele>
        <time>2025-08-15T11:57:31Z</time>
      </trkpt>
      <trkpt lat="45.76236" lon="6.54868">
        <ele>1801.3</ele>
        <time>2025-08-15T11:57:32Z</time>
      </trkpt>
      <trkpt lat="45.76237" lon="6.54866">
        <ele>1801.5</ele>
        <time>2025-08-15T11:57:33Z</time>
      </trkpt>
      <trkpt lat="45.76237" lon="6.54864">
        <ele>1801.6</ele>
        <time>2025-08-15T11:57:34Z</time>
      </trkpt>
      <trkpt lat="45.76238" lon="6.54861">
        <ele>1801.8</ele>
        <time>2025-08-15T11:57:35Z</time>
      </trkpt>
      <trkpt lat="45.76238" lon="6.54859">
        <ele>1802</ele>
        <time>2025-08-15T11:57:36Z</time>
      </trkpt>
      <trkpt lat="45.76239" lon="6.54855">
        <ele>1802.2</ele>
        <time>2025-08-15T11:57:37Z</time>
      </trkpt>
      <trkpt lat="45.7624" lon="6.54854">
        <ele>1802.3</ele>
        <time>2025-08-15T11:57:38Z</time>
      </trkpt>
      <trkpt lat="45.7624" lon="6.54852">
        <ele>1802.5</ele>
        <time>2025-08-15T11:57:39Z</time>
      </trkpt>
      <trkpt lat="45.76241" lon="6.54849">
        <ele>1802.6</ele>
        <time>2025-08-15T11:57:40Z</time>
      </trkpt>
      <trkpt lat="45.76241" lon="6.54847">
        <ele>1802.8</ele>
        <time>2025-08-15T11:57:41Z</time>
      </trkpt>
      <trkpt lat="45.76242" lon="6.54845">
        <ele>1802.9</ele>
        <time>2025-08-15T11:57:42Z</time>
      </trkpt>
      <trkpt lat="45.76242" lon="6.54843">
        <ele>1803</ele>
        <time>2025-08-15T11:57:43Z</time>
      </trkpt>
      <trkpt lat="45.76243" lon="6.5484">
        <ele>1803.2</ele>
        <time>2025-08-15T11:57:44Z</time>
      </trkpt>
      <trkpt lat="45.76244" lon="6.54838">
        <ele>1803.3</ele>
        <time>2025-08-15T11:57:45Z</time>
      </trkpt>
      <trkpt lat="45.76244" lon="6.54836">
        <ele>1803.5</ele>
        <time>2025-08-15T11:57:46Z</time>
      </trkpt>
      <trkpt lat="45.76245" lon="6.54834">
        <ele>1803.6</ele>
        <time>2025-08-15T11:57:47Z</time>
      </trkpt>
      <trkpt lat="45.76246" lon="6.54831">
        <ele>1803.7</ele>
        <time>2025-08-15T11:57:48Z</time>
      </trkpt>
      <trkpt lat="45.76246" lon="6.54829">
        <ele>1803.9</ele>
        <time>2025-08-15T11:57:49Z</time>
      </trkpt>
      <trkpt lat="45.76247" lon="6.54827">
        <ele>1804</ele>
        <time>2025-08-15T11:57:50Z</time>
      </trkpt>
      <trkpt lat="45.76248" lon="6.54822">
        <ele>1804.2</ele>
        <time>2025-08-15T11:57:51Z</time>
      </trkpt>
      <trkpt lat="45.76249" lon="6.54821">
        <ele>1804.2</ele>
        <time>2025-08-15T11:57:52Z</time>
      </trkpt>
      <trkpt lat="45.7625" lon="6.54817">
        <ele>1804.4</ele>
        <time>2025-08-15T11:57:53Z</time>
      </trkpt>
      <trkpt lat="45.7625" lon="6.54816">
        <ele>1804.4</ele>
        <time>2025-08-15T11:57:54Z</time>
      </trkpt>
      <trkpt lat="45.76251" lon="6.54812">
        <ele>1804.6</ele>
        <time>2025-08-15T11:57:55Z</time>
      </trkpt>
      <trkpt lat="45.76252" lon="6.5481">
        <ele>1804.6</ele>
        <time>2025-08-15T11:57:56Z</time>
      </trkpt>
      <trkpt lat="45.76253" lon="6.54806">
        <ele>1804.7</ele>
        <time>2025-08-15T11:57:57Z</time>
      </trkpt>
      <trkpt lat="45.76254" lon="6.54805">
        <ele>1804.8</ele>
        <time>2025-08-15T11:57:58Z</time>
      </trkpt>
      <trkpt lat="45.76256" lon="6.548">
        <ele>1804.9</ele>
        <time>2025-08-15T11:57:59Z</time>
      </trkpt>
      <trkpt lat="45.76257" lon="6.54799">
        <ele>1804.9</ele>
        <time>2025-08-15T11:58:00Z</time>
      </trkpt>
      <trkpt lat="45.76258" lon="6.54794">
        <ele>1805.1</ele>
        <time>2025-08-15T11:58:01Z</time>
      </trkpt>
      <trkpt lat="45.76259" lon="6.54793">
        <ele>1805.1</ele>
        <time>2025-08-15T11:58:02Z</time>
      </trkpt>
      <trkpt lat="45.7626" lon="6.54788">
        <ele>1805.2</ele>
        <time>2025-08-15T11:58:03Z</time>
      </trkpt>
      <trkpt lat="45.7626" lon="6.54787">
        <ele>1805.3</ele>
        <time>2025-08-15T11:58:04Z</time>
      </trkpt>
      <trkpt lat="45.76262" lon="6.54783">
        <ele>1805.4</ele>
        <time>2025-08-15T11:58:05Z</time>
      </trkpt>
      <trkpt lat="45.76263" lon="6.54781">
        <ele>1805.4</ele>
        <time>2025-08-15T11:58:06Z</time>
      </trkpt>
      <trkpt lat="45.76265" lon="6.54777">
        <ele>1805.6</ele>
        <time>2025-08-15T11:58:07Z</time>
      </trkpt>
      <trkpt lat="45.76265" lon="6.54775">
        <ele>1805.7</ele>
        <time>2025-08-15T11:58:08Z</time>
      </trkpt>
      <trkpt lat="45.76267" lon="6.54771">
        <ele>1805.8</ele>
        <time>2025-08-15T11:58:09Z</time>
      </trkpt>
      <trkpt lat="45.76268" lon="6.5477">
        <ele>1805.9</ele>
        <time>2025-08-15T11:58:10Z</time>
      </trkpt>
      <trkpt lat="45.7627" lon="6.54765">
        <ele>1806.1</ele>
        <time>2025-08-15T11:58:11Z</time>
      </trkpt>
      <trkpt lat="45.76271" lon="6.54764">
        <ele>1806.1</ele>
        <time>2025-08-15T11:58:12Z</time>
      </trkpt>
      <trkpt lat="45.76273" lon="6.5476">
        <ele>1806.3</ele>
        <time>2025-08-15T11:58:13Z</time>
      </trkpt>
      <trkpt lat="45.76273" lon="6.54758">
        <ele>1806.4</ele>
        <time>2025-08-15T11:58:14Z</time>
      </trkpt>
      <trkpt lat="45.76275" lon="6.54755">
        <ele>1806.6</ele>
        <time>2025-08-15T11:58:15Z</time>
      </trkpt>
      <trkpt lat="45.76276" lon="6.54754">
        <ele>1806.7</ele>
        <time>2025-08-15T11:58:16Z</time>
      </trkpt>
      <trkpt lat="45.76278" lon="6.5475">
        <ele>1806.9</ele>
        <time>2025-08-15T11:58:17Z</time>
      </trkpt>
      <trkpt lat="45.76278" lon="6.54749">
        <ele>1807</ele>
        <time>2025-08-15T11:58:18Z</time>
      </trkpt>
      <trkpt lat="45.76281" lon="6.54746">
        <ele>1807.3</ele>
        <time>2025-08-15T11:58:19Z</time>
      </trkpt>
      <trkpt lat="45.76282" lon="6.54745">
        <ele>1807.4</ele>
        <time>2025-08-15T11:58:20Z</time>
      </trkpt>
      <trkpt lat="45.76285" lon="6.54743">
        <ele>1807.6</ele>
        <time>2025-08-15T11:58:21Z</time>
      </trkpt>
      <trkpt lat="45.76286" lon="6.54743">
        <ele>1807.7</ele>
        <time>2025-08-15T11:58:22Z</time>
      </trkpt>
      <trkpt lat="45.7629" lon="6.54742">
        <ele>1808</ele>
        <time>2025-08-15T11:58:23Z</time>
      </trkpt>
      <trkpt lat="45.76291" lon="6.54742">
        <ele>1808.1</ele>
        <time>2025-08-15T11:58:24Z</time>
      </trkpt>
      <trkpt lat="45.76294" lon="6.54743">
        <ele>1808.3</ele>
        <time>2025-08-15T11:58:25Z</time>
      </trkpt>
      <trkpt lat="45.76295" lon="6.54743">
        <ele>1808.3</ele>
        <time>2025-08-15T11:58:26Z</time>
      </trkpt>
      <trkpt lat="45.76298" lon="6.54745">
        <ele>1808.6</ele>
        <time>2025-08-15T11:58:27Z</time>
      </trkpt>
      <trkpt lat="45.76299" lon="6.54746">
        <ele>1808.7</ele>
        <time>2025-08-15T11:58:28Z</time>
      </trkpt>
      <trkpt lat="45.76302" lon="6.54747">
        <ele>1808.9</ele>
        <time>2025-08-15T11:58:29Z</time>
      </trkpt>
      <trkpt lat="45.76303" lon="6.54748">
        <ele>1809</ele>
        <time>2025-08-15T11:58:30Z</time>
      </trkpt>
      <trkpt lat="45.76306" lon="6.54749">
        <ele>1809.1</ele>
        <time>2025-08-15T11:58:31Z</time>
      </trkpt>
      <trkpt lat="45.76307" lon="6.54749">
        <ele>1809.2</ele>
        <time>2025-08-15T11:58:32Z</time>
      </trkpt>
      <trkpt lat="45.7631" lon="6.5475">
        <ele>1809.3</ele>
        <time>2025-08-15T11:58:33Z</time>
      </trkpt>
      <trkpt lat="45.76311" lon="6.54751">
        <ele>1809.4</ele>
        <time>2025-08-15T11:58:34Z</time>
      </trkpt>
      <trkpt lat="45.76314" lon="6.54751">
        <ele>1809.5</ele>
        <time>2025-08-15T11:58:35Z</time>
      </trkpt>
      <trkpt lat="45.76316" lon="6.54752">
        <ele>1809.6</ele>
        <time>2025-08-15T11:58:37Z</time>
      </trkpt>
      <trkpt lat="45.76319" lon="6.54752">
        <ele>1809.6</ele>
        <time>2025-08-15T11:58:38Z</time>
      </trkpt>
      <trkpt lat="45.7632" lon="6.54753">
        <ele>1809.7</ele>
        <time>2025-08-15T11:58:39Z</time>
      </trkpt>
      <trkpt lat="45.76323" lon="6.54753">
        <ele>1809.7</ele>
        <time>2025-08-15T11:58:40Z</time>
      </trkpt>
      <trkpt lat="45.76325" lon="6.54754">
        <ele>1809.8</ele>
        <time>2025-08-15T11:58:41Z</time>
      </trkpt>
      <trkpt lat="45.76328" lon="6.54754">
        <ele>1809.8</ele>
        <time>2025-08-15T11:58:42Z</time>
      </trkpt>
      <trkpt lat="45.7633" lon="6.54755">
        <ele>1809.8</ele>
        <time>2025-08-15T11:58:43Z</time>
      </trkpt>
      <trkpt lat="45.76334" lon="6.54756">
        <ele>1809.8</ele>
        <time>2025-08-15T11:58:44Z</time>
      </trkpt>
      <trkpt lat="45.76335" lon="6.54756">
        <ele>1809.9</ele>
        <time>2025-08-15T11:58:45Z</time>
      </trkpt>
      <trkpt lat="45.76338" lon="6.54757">
        <ele>1809.9</ele>
        <time>2025-08-15T11:58:46Z</time>
      </trkpt>
      <trkpt lat="45.76342" lon="6.54758">
        <ele>1809.9</ele>
        <time>2025-08-15T11:58:47Z</time>
      </trkpt>
      <trkpt lat="45.76344" lon="6.54759">
        <ele>1809.9</ele>
        <time>2025-08-15T11:58:48Z</time>
      </trkpt>
      <trkpt lat="45.76347" lon="6.54759">
        <ele>1810</ele>
        <time>2025-08-15T11:58:49Z</time>
      </trkpt>
      <trkpt lat="45.7635" lon="6.5476">
        <ele>1810</ele>
        <time>2025-08-15T11:58:50Z</time>
      </trkpt>
      <trkpt lat="45.76354" lon="6.54762">
        <ele>1810</ele>
        <time>2025-08-15T11:58:51Z</time>
      </trkpt>
      <trkpt lat="45.76355" lon="6.54763">
        <ele>1810.1</ele>
        <time>2025-08-15T11:58:52Z</time>
      </trkpt>
      <trkpt lat="45.76358" lon="6.54764">
        <ele>1810.1</ele>
        <time>2025-08-15T11:58:53Z</time>
      </trkpt>
      <trkpt lat="45.76361" lon="6.54765">
        <ele>1810.3</ele>
        <time>2025-08-15T11:58:54Z</time>
      </trkpt>
      <trkpt lat="45.76363" lon="6.54767">
        <ele>1810.4</ele>
        <time>2025-08-15T11:58:55Z</time>
      </trkpt>
      <trkpt lat="45.76368" lon="6.5477">
        <ele>1810.6</ele>
        <time>2025-08-15T11:58:56Z</time>
      </trkpt>
      <trkpt lat="45.76371" lon="6.54771">
        <ele>1810.8</ele>
        <time>2025-08-15T11:58:57Z</time>
      </trkpt>
      <trkpt lat="45.76373" lon="6.54772">
        <ele>1810.9</ele>
        <time>2025-08-15T11:58:58Z</time>
      </trkpt>
      <trkpt lat="45.76376" lon="6.54773">
        <ele>1811.1</ele>
        <time>2025-08-15T11:58:59Z</time>
      </trkpt>
      <trkpt lat="45.7638" lon="6.54775">
        <ele>1811.4</ele>
        <time>2025-08-15T11:59:00Z</time>
      </trkpt>
      <trkpt lat="45.76381" lon="6.54776">
        <ele>1811.5</ele>
        <time>2025-08-15T11:59:01Z</time>
      </trkpt>
      <trkpt lat="45.76384" lon="6.54777">
        <ele>1811.7</ele>
        <time>2025-08-15T11:59:02Z</time>
      </trkpt>
      <trkpt lat="45.76388" lon="6.54778">
        <ele>1812</ele>
        <time>2025-08-15T11:59:03Z</time>
      </trkpt>
      <trkpt lat="45.76389" lon="6.54778">
        <ele>1812.1</ele>
        <time>2025-08-15T11:59:04Z</time>
      </trkpt>
      <trkpt lat="45.76393" lon="6.54779">
        <ele>1812.4</ele>
        <time>2025-08-15T11:59:05Z</time>
      </trkpt>
      <trkpt lat="45.76395" lon="6.54779">
        <ele>1812.5</ele>
        <time>2025-08-15T11:59:06Z</time>
      </trkpt>
      <trkpt lat="45.76397" lon="6.5478">
        <ele>1812.7</ele>
        <time>2025-08-15T11:59:07Z</time>
      </trkpt>
      <trkpt lat="45.764" lon="6.54781">
        <ele>1813</ele>
        <time>2025-08-15T11:59:08Z</time>
      </trkpt>
      <trkpt lat="45.76403" lon="6.54782">
        <ele>1813.2</ele>
        <time>2025-08-15T11:59:09Z</time>
      </trkpt>
      <trkpt lat="45.76406" lon="6.54783">
        <ele>1813.5</ele>
        <time>2025-08-15T11:59:10Z</time>
      </trkpt>
      <trkpt lat="45.76408" lon="6.54784">
        <ele>1813.7</ele>
        <time>2025-08-15T11:59:11Z</time>
      </trkpt>
      <trkpt lat="45.7641" lon="6.54785">
        <ele>1813.9</ele>
        <time>2025-08-15T11:59:12Z</time>
      </trkpt>
      <trkpt lat="45.76414" lon="6.54786">
        <ele>1814.3</ele>
        <time>2025-08-15T11:59:13Z</time>
      </trkpt>
      <trkpt lat="45.76415" lon="6.54786">
        <ele>1814.4</ele>
        <time>2025-08-15T11:59:14Z</time>
      </trkpt>
      <trkpt lat="45.76419" lon="6.54788">
        <ele>1814.7</ele>
        <time>2025-08-15T11:59:15Z</time>
      </trkpt>
      <trkpt lat="45.7642" lon="6.54788">
        <ele>1814.9</ele>
        <time>2025-08-15T11:59:16Z</time>
      </trkpt>
      <trkpt lat="45.76424" lon="6.5479">
        <ele>1815.2</ele>
        <time>2025-08-15T11:59:17Z</time>
      </trkpt>
      <trkpt lat="45.76425" lon="6.5479">
        <ele>1815.3</ele>
        <time>2025-08-15T11:59:18Z</time>
      </trkpt>
      <trkpt lat="45.76428" lon="6.54792">
        <ele>1815.6</ele>
        <time>2025-08-15T11:59:19Z</time>
      </trkpt>
      <trkpt lat="45.7643" lon="6.54792">
        <ele>1815.7</ele>
        <time>2025-08-15T11:59:20Z</time>
      </trkpt>
      <trkpt lat="45.76433" lon="6.54794">
        <ele>1816.1</ele>
        <time>2025-08-15T11:59:21Z</time>
      </trkpt>
      <trkpt lat="45.76434" lon="6.54794">
        <ele>1816.2</ele>
        <time>2025-08-15T11:59:22Z</time>
      </trkpt>
      <trkpt lat="45.76438" lon="6.54796">
        <ele>1816.5</ele>
        <time>2025-08-15T11:59:23Z</time>
      </trkpt>
      <trkpt lat="45.76439" lon="6.54796">
        <ele>1816.6</ele>
        <time>2025-08-15T11:59:24Z</time>
      </trkpt>
      <trkpt lat="45.76442" lon="6.54797">
        <ele>1816.9</ele>
        <time>2025-08-15T11:59:25Z</time>
      </trkpt>
      <trkpt lat="45.76443" lon="6.54798">
        <ele>1817</ele>
        <time>2025-08-15T11:59:26Z</time>
      </trkpt>
      <trkpt lat="45.76446" lon="6.54799">
        <ele>1817.2</ele>
        <time>2025-08-15T11:59:27Z</time>
      </trkpt>
      <trkpt lat="45.76447" lon="6.54799">
        <ele>1817.3</ele>
        <time>2025-08-15T11:59:28Z</time>
      </trkpt>
      <trkpt lat="45.7645" lon="6.54801">
        <ele>1817.5</ele>
        <time>2025-08-15T11:59:29Z</time>
      </trkpt>
      <trkpt lat="45.76451" lon="6.54801">
        <ele>1817.6</ele>
        <time>2025-08-15T11:59:30Z</time>
      </trkpt>
      <trkpt lat="45.76454" lon="6.54802">
        <ele>1817.9</ele>
        <time>2025-08-15T11:59:31Z</time>
      </trkpt>
      <trkpt lat="45.76455" lon="6.54803">
        <ele>1817.9</ele>
        <time>2025-08-15T11:59:32Z</time>
      </trkpt>
      <trkpt lat="45.76458" lon="6.54804">
        <ele>1818.2</ele>
        <time>2025-08-15T11:59:33Z</time>
      </trkpt>
      <trkpt lat="45.76459" lon="6.54804">
        <ele>1818.2</ele>
        <time>2025-08-15T11:59:34Z</time>
      </trkpt>
      <trkpt lat="45.76463" lon="6.54805">
        <ele>1818.5</ele>
        <time>2025-08-15T11:59:35Z</time>
      </trkpt>
      <trkpt lat="45.76464" lon="6.54806">
        <ele>1818.6</ele>
        <time>2025-08-15T11:59:36Z</time>
      </trkpt>
      <trkpt lat="45.76467" lon="6.54806">
        <ele>1818.8</ele>
        <time>2025-08-15T11:59:37Z</time>
      </trkpt>
      <trkpt lat="45.76468" lon="6.54807">
        <ele>1818.9</ele>
        <time>2025-08-15T11:59:38Z</time>
      </trkpt>
      <trkpt lat="45.76471" lon="6.54808">
        <ele>1819.1</ele>
        <time>2025-08-15T11:59:39Z</time>
      </trkpt>
      <trkpt lat="45.76472" lon="6.54808">
        <ele>1819.2</ele>
        <time>2025-08-15T11:59:40Z</time>
      </trkpt>
      <trkpt lat="45.76475" lon="6.5481">
        <ele>1819.4</ele>
        <time>2025-08-15T11:59:41Z</time>
      </trkpt>
      <trkpt lat="45.76476" lon="6.5481">
        <ele>1819.5</ele>
        <time>2025-08-15T11:59:42Z</time>
      </trkpt>
      <trkpt lat="45.76479" lon="6.54812">
        <ele>1819.7</ele>
        <time>2025-08-15T11:59:43Z</time>
      </trkpt>
      <trkpt lat="45.76481" lon="6.54812">
        <ele>1819.8</ele>
        <time>2025-08-15T11:59:44Z</time>
      </trkpt>
      <trkpt lat="45.76484" lon="6.54813">
        <ele>1820.1</ele>
        <time>2025-08-15T11:59:45Z</time>
      </trkpt>
      <trkpt lat="45.76485" lon="6.54813">
        <ele>1820.1</ele>
        <time>2025-08-15T11:59:46Z</time>
      </trkpt>
      <trkpt lat="45.76488" lon="6.54814">
        <ele>1820.4</ele>
        <time>2025-08-15T11:59:47Z</time>
      </trkpt>
      <trkpt lat="45.76489" lon="6.54815">
        <ele>1820.5</ele>
        <time>2025-08-15T11:59:48Z</time>
      </trkpt>
      <trkpt lat="45.76492" lon="6.54816">
        <ele>1820.7</ele>
        <time>2025-08-15T11:59:49Z</time>
      </trkpt>
      <trkpt lat="45.76493" lon="6.54816">
        <ele>1820.8</ele>
        <time>2025-08-15T11:59:50Z</time>
      </trkpt>
      <trkpt lat="45.76496" lon="6.54818">
        <ele>1821</ele>
        <time>2025-08-15T11:59:51Z</time>
      </trkpt>
      <trkpt lat="45.76497" lon="6.54818">
        <ele>1821.1</ele>
        <time>2025-08-15T11:59:52Z</time>
      </trkpt>
      <trkpt lat="45.765" lon="6.54819">
        <ele>1821.3</ele>
        <time>2025-08-15T11:59:53Z</time>
      </trkpt>
      <trkpt lat="45.76501" lon="6.54819">
        <ele>1821.4</ele>
        <time>2025-08-15T11:59:54Z</time>
      </trkpt>
      <trkpt lat="45.76504" lon="6.5482">
        <ele>1821.6</ele>
        <time>2025-08-15T11:59:55Z</time>
      </trkpt>
      <trkpt lat="45.76506" lon="6.54821">
        <ele>1821.7</ele>
        <time>2025-08-15T11:59:56Z</time>
      </trkpt>
      <trkpt lat="45.76509" lon="6.54822">
        <ele>1821.9</ele>
        <time>2025-08-15T11:59:57Z</time>
      </trkpt>
      <trkpt lat="45.7651" lon="6.54823">
        <ele>1822</ele>
        <time>2025-08-15T11:59:58Z</time>
      </trkpt>
      <trkpt lat="45.76513" lon="6.54825">
        <ele>1822.2</ele>
        <time>2025-08-15T11:59:59Z</time>
      </trkpt>
      <trkpt lat="45.76514" lon="6.54825">
        <ele>1822.3</ele>
        <time>2025-08-15T12:00:00Z</time>
      </trkpt>
      <trkpt lat="45.76518" lon="6.54827">
        <ele>1822.6</ele>
        <time>2025-08-15T12:00:01Z</time>
      </trkpt>
      <trkpt lat="45.76519" lon="6.54828">
        <ele>1822.7</ele>
        <time>2025-08-15T12:00:02Z</time>
      </trkpt>
      <trkpt lat="45.76522" lon="6.54829">
        <ele>1822.9</ele>
        <time>2025-08-15T12:00:03Z</time>
      </trkpt>
      <trkpt lat="45.76525" lon="6.54832">
        <ele>1823.1</ele>
        <time>2025-08-15T12:00:04Z</time>
      </trkpt>
      <trkpt lat="45.76527" lon="6.54833">
        <ele>1823.2</ele>
        <time>2025-08-15T12:00:05Z</time>
      </trkpt>
      <trkpt lat="45.7653" lon="6.54835">
        <ele>1823.5</ele>
        <time>2025-08-15T12:00:06Z</time>
      </trkpt>
      <trkpt lat="45.76532" lon="6.54836">
        <ele>1823.6</ele>
        <time>2025-08-15T12:00:07Z</time>
      </trkpt>
      <trkpt lat="45.76534" lon="6.54837">
        <ele>1823.8</ele>
        <time>2025-08-15T12:00:08Z</time>
      </trkpt>
      <trkpt lat="45.76537" lon="6.54839">
        <ele>1824</ele>
        <time>2025-08-15T12:00:09Z</time>
      </trkpt>
      <trkpt lat="45.7654" lon="6.54841">
        <ele>1824.2</ele>
        <time>2025-08-15T12:00:10Z</time>
      </trkpt>
      <trkpt lat="45.76542" lon="6.54841">
        <ele>1824.3</ele>
        <time>2025-08-15T12:00:11Z</time>
      </trkpt>
      <trkpt lat="45.76545" lon="6.54843">
        <ele>1824.6</ele>
        <time>2025-08-15T12:00:12Z</time>
      </trkpt>
      <trkpt lat="45.76547" lon="6.54844">
        <ele>1824.8</ele>
        <time>2025-08-15T12:00:13Z</time>
      </trkpt>
      <trkpt lat="45.7655" lon="6.54846">
        <ele>1825.1</ele>
        <time>2025-08-15T12:00:14Z</time>
      </trkpt>
      <trkpt lat="45.76552" lon="6.54847">
        <ele>1825.3</ele>
        <time>2025-08-15T12:00:15Z</time>
      </trkpt>
      <trkpt lat="45.76555" lon="6.54848">
        <ele>1825.7</ele>
        <time>2025-08-15T12:00:16Z</time>
      </trkpt>
      <trkpt lat="45.76556" lon="6.54849">
        <ele>1825.8</ele>
        <time>2025-08-15T12:00:17Z</time>
      </trkpt>
      <trkpt lat="45.7656" lon="6.5485">
        <ele>1826.2</ele>
        <time>2025-08-15T12:00:18Z</time>
      </trkpt>
      <trkpt lat="45.76561" lon="6.5485">
        <ele>1826.3</ele>
        <time>2025-08-15T12:00:19Z</time>
      </trkpt>
      <trkpt lat="45.76564" lon="6.54851">
        <ele>1826.7</ele>
        <time>2025-08-15T12:00:20Z</time>
      </trkpt>
      <trkpt lat="45.76565" lon="6.54852">
        <ele>1826.8</ele>
        <time>2025-08-15T12:00:21Z</time>
      </trkpt>
      <trkpt lat="45.76568" lon="6.54853">
        <ele>1827.2</ele>
        <time>2025-08-15T12:00:22Z</time>
      </trkpt>
      <trkpt lat="45.76569" lon="6.54854">
        <ele>1827.4</ele>
        <time>2025-08-15T12:00:23Z</time>
      </trkpt>
      <trkpt lat="45.76572" lon="6.54855">
        <ele>1827.8</ele>
        <time>2025-08-15T12:00:24Z</time>
      </trkpt>
      <trkpt lat="45.76573" lon="6.54855">
        <ele>1827.9</ele>
        <time>2025-08-15T12:00:25Z</time>
      </trkpt>
      <trkpt lat="45.76577" lon="6.54856">
        <ele>1828.3</ele>
        <time>2025-08-15T12:00:26Z</time>
      </trkpt>
      <trkpt lat="45.76578" lon="6.54856">
        <ele>1828.4</ele>
        <time>2025-08-15T12:00:27Z</time>
      </trkpt>
      <trkpt lat="45.76581" lon="6.54857">
        <ele>1828.8</ele>
        <time>2025-08-15T12:00:28Z</time>
      </trkpt>
      <trkpt lat="45.76582" lon="6.54857">
        <ele>1828.9</ele>
        <time>2025-08-15T12:00:29Z</time>
      </trkpt>
      <trkpt lat="45.76586" lon="6.54858">
        <ele>1829.3</ele>
        <time>2025-08-15T12:00:30Z</time>
      </trkpt>
      <trkpt lat="45.76587" lon="6.54858">
        <ele>1829.4</ele>
        <time>2025-08-15T12:00:31Z</time>
      </trkpt>
      <trkpt lat="45.76591" lon="6.54858">
        <ele>1829.8</ele>
        <time>2025-08-15T12:00:32Z</time>
      </trkpt>
      <trkpt lat="45.76592" lon="6.54859">
        <ele>1829.9</ele>
        <time>2025-08-15T12:00:33Z</time>
      </trkpt>
      <trkpt lat="45.76595" lon="6.54858">
        <ele>1830.3</ele>
        <time>2025-08-15T12:00:34Z</time>
      </trkpt>
      <trkpt lat="45.76597" lon="6.54858">
        <ele>1830.5</ele>
        <time>2025-08-15T12:00:35Z</time>
      </trkpt>
      <trkpt lat="45.766" lon="6.54858">
        <ele>1830.8</ele>
        <time>2025-08-15T12:00:36Z</time>
      </trkpt>
      <trkpt lat="45.76601" lon="6.54858">
        <ele>1830.9</ele>
        <time>2025-08-15T12:00:37Z</time>
      </trkpt>
      <trkpt lat="45.76604" lon="6.54858">
        <ele>1831.3</ele>
        <time>2025-08-15T12:00:38Z</time>
      </trkpt>
      <trkpt lat="45.76605" lon="6.54857">
        <ele>1831.4</ele>
        <time>2025-08-15T12:00:39Z</time>
      </trkpt>
      <trkpt lat="45.76608" lon="6.54857">
        <ele>1831.8</ele>
        <time>2025-08-15T12:00:40Z</time>
      </trkpt>
      <trkpt lat="45.76609" lon="6.54857">
        <ele>1831.9</ele>
        <time>2025-08-15T12:00:41Z</time>
      </trkpt>
      <trkpt lat="45.76613" lon="6.54855">
        <ele>1832.3</ele>
        <time>2025-08-15T12:00:43Z</time>
      </trkpt>
      <trkpt lat="45.76614" lon="6.54855">
        <ele>1832.4</ele>
        <time>2025-08-15T12:00:44Z</time>
      </trkpt>
      <trkpt lat="45.76616" lon="6.54854">
        <ele>1832.8</ele>
        <time>2025-08-15T12:00:45Z</time>
      </trkpt>
      <trkpt lat="45.76617" lon="6.54854">
        <ele>1832.9</ele>
        <time>2025-08-15T12:00:46Z</time>
      </trkpt>
      <trkpt lat="45.7662" lon="6.54853">
        <ele>1833.3</ele>
        <time>2025-08-15T12:00:47Z</time>
      </trkpt>
      <trkpt lat="45.76621" lon="6.54852">
        <ele>1833.5</ele>
        <time>2025-08-15T12:00:48Z</time>
      </trkpt>
      <trkpt lat="45.76624" lon="6.54851">
        <ele>1833.8</ele>
        <time>2025-08-15T12:00:49Z</time>
      </trkpt>
      <trkpt lat="45.76625" lon="6.5485">
        <ele>1834</ele>
        <time>2025-08-15T12:00:50Z</time>
      </trkpt>
      <trkpt lat="45.76628" lon="6.54848">
        <ele>1834.4</ele>
        <time>2025-08-15T12:00:51Z</time>
      </trkpt>
      <trkpt lat="45.76629" lon="6.54847">
        <ele>1834.5</ele>
        <time>2025-08-15T12:00:52Z</time>
      </trkpt>
      <trkpt lat="45.76631" lon="6.54845">
        <ele>1834.9</ele>
        <time>2025-08-15T12:00:53Z</time>
      </trkpt>
      <trkpt lat="45.76632" lon="6.54844">
        <ele>1835.1</ele>
        <time>2025-08-15T12:00:54Z</time>
      </trkpt>
      <trkpt lat="45.76635" lon="6.54841">
        <ele>1835.5</ele>
        <time>2025-08-15T12:00:55Z</time>
      </trkpt>
      <trkpt lat="45.76636" lon="6.5484">
        <ele>1835.6</ele>
        <time>2025-08-15T12:00:56Z</time>
      </trkpt>
      <trkpt lat="45.7664" lon="6.54837">
        <ele>1836.1</ele>
        <time>2025-08-15T12:00:57Z</time>
      </trkpt>
      <trkpt lat="45.76642" lon="6.54835">
        <ele>1836.4</ele>
        <time>2025-08-15T12:00:58Z</time>
      </trkpt>
      <trkpt lat="45.76643" lon="6.54834">
        <ele>1836.6</ele>
        <time>2025-08-15T12:00:59Z</time>
      </trkpt>
      <trkpt lat="45.76646" lon="6.5483">
        <ele>1836.9</ele>
        <time>2025-08-15T12:01:00Z</time>
      </trkpt>
      <trkpt lat="45.76647" lon="6.54829">
        <ele>1837</ele>
        <time>2025-08-15T12:01:01Z</time>
      </trkpt>
      <trkpt lat="45.7665" lon="6.54826">
        <ele>1837.3</ele>
        <time>2025-08-15T12:01:02Z</time>
      </trkpt>
      <trkpt lat="45.76651" lon="6.54825">
        <ele>1837.4</ele>
        <time>2025-08-15T12:01:03Z</time>
      </trkpt>
      <trkpt lat="45.76653" lon="6.54822">
        <ele>1837.7</ele>
        <time>2025-08-15T12:01:04Z</time>
      </trkpt>
      <trkpt lat="45.76654" lon="6.54821">
        <ele>1837.8</ele>
        <time>2025-08-15T12:01:05Z</time>
      </trkpt>
      <trkpt lat="45.76658" lon="6.54818">
        <ele>1838</ele>
        <time>2025-08-15T12:01:06Z</time>
      </trkpt>
      <trkpt lat="45.76659" lon="6.54818">
        <ele>1838.1</ele>
        <time>2025-08-15T12:01:07Z</time>
      </trkpt>
      <trkpt lat="45.76662" lon="6.54815">
        <ele>1838.3</ele>
        <time>2025-08-15T12:01:08Z</time>
      </trkpt>
      <trkpt lat="45.76663" lon="6.54813">
        <ele>1838.4</ele>
        <time>2025-08-15T12:01:09Z</time>
      </trkpt>
      <trkpt lat="45.76666" lon="6.5481">
        <ele>1838.6</ele>
        <time>2025-08-15T12:01:10Z</time>
      </trkpt>
      <trkpt lat="45.76666" lon="6.54809">
        <ele>1838.7</ele>
        <time>2025-08-15T12:01:11Z</time>
      </trkpt>
      <trkpt lat="45.76669" lon="6.54807">
        <ele>1838.9</ele>
        <time>2025-08-15T12:01:12Z</time>
      </trkpt>
      <trkpt lat="45.7667" lon="6.54806">
        <ele>1839</ele>
        <time>2025-08-15T12:01:13Z</time>
      </trkpt>
      <trkpt lat="45.76673" lon="6.54803">
        <ele>1839.2</ele>
        <time>2025-08-15T12:01:14Z</time>
      </trkpt>
      <trkpt lat="45.76674" lon="6.54802">
        <ele>1839.3</ele>
        <time>2025-08-15T12:01:15Z</time>
      </trkpt>
      <trkpt lat="45.76677" lon="6.54799">
        <ele>1839.5</ele>
        <time>2025-08-15T12:01:16Z</time>
      </trkpt>
      <trkpt lat="45.76678" lon="6.54798">
        <ele>1839.6</ele>
        <time>2025-08-15T12:01:17Z</time>
      </trkpt>
      <trkpt lat="45.76681" lon="6.54795">
        <ele>1839.8</ele>
        <time>2025-08-15T12:01:18Z</time>
      </trkpt>
      <trkpt lat="45.76682" lon="6.54795">
        <ele>1839.9</ele>
        <time>2025-08-15T12:01:19Z</time>
      </trkpt>
      <trkpt lat="45.76685" lon="6.54792">
        <ele>1840.1</ele>
        <time>2025-08-15T12:01:20Z</time>
      </trkpt>
      <trkpt lat="45.76686" lon="6.54791">
        <ele>1840.2</ele>
        <time>2025-08-15T12:01:21Z</time>
      </trkpt>
      <trkpt lat="45.76689" lon="6.54789">
        <ele>1840.5</ele>
        <time>2025-08-15T12:01:22Z</time>
      </trkpt>
      <trkpt lat="45.7669" lon="6.54788">
        <ele>1840.6</ele>
        <time>2025-08-15T12:01:23Z</time>
      </trkpt>
      <trkpt lat="45.76693" lon="6.54787">
        <ele>1840.9</ele>
        <time>2025-08-15T12:01:24Z</time>
      </trkpt>
      <trkpt lat="45.76694" lon="6.54786">
        <ele>1841</ele>
        <time>2025-08-15T12:01:25Z</time>
      </trkpt>
      <trkpt lat="45.76698" lon="6.54785">
        <ele>1841.4</ele>
        <time>2025-08-15T12:01:26Z</time>
      </trkpt>
      <trkpt lat="45.76699" lon="6.54785">
        <ele>1841.5</ele>
        <time>2025-08-15T12:01:27Z</time>
      </trkpt>
      <trkpt lat="45.76702" lon="6.54784">
        <ele>1841.8</ele>
        <time>2025-08-15T12:01:28Z</time>
      </trkpt>
      <trkpt lat="45.76703" lon="6.54783">
        <ele>1841.9</ele>
        <time>2025-08-15T12:01:29Z</time>
      </trkpt>
      <trkpt lat="45.76706" lon="6.54782">
        <ele>1842.3</ele>
        <time>2025-08-15T12:01:30Z</time>
      </trkpt>
      <trkpt lat="45.76707" lon="6.54782">
        <ele>1842.4</ele>
        <time>2025-08-15T12:01:31Z</time>
      </trkpt>
      <trkpt lat="45.7671" lon="6.54781">
        <ele>1842.8</ele>
        <time>2025-08-15T12:01:32Z</time>
      </trkpt>
      <trkpt lat="45.76711" lon="6.5478">
        <ele>1842.9</ele>
        <time>2025-08-15T12:01:33Z</time>
      </trkpt>
      <trkpt lat="45.76715" lon="6.5478">
        <ele>1843.3</ele>
        <time>2025-08-15T12:01:34Z</time>
      </trkpt>
      <trkpt lat="45.76716" lon="6.54779">
        <ele>1843.4</ele>
        <time>2025-08-15T12:01:35Z</time>
      </trkpt>
      <trkpt lat="45.76719" lon="6.54778">
        <ele>1843.9</ele>
        <time>2025-08-15T12:01:36Z</time>
      </trkpt>
      <trkpt lat="45.7672" lon="6.54778">
        <ele>1844</ele>
        <time>2025-08-15T12:01:37Z</time>
      </trkpt>
      <trkpt lat="45.76723" lon="6.54779">
        <ele>1844.5</ele>
        <time>2025-08-15T12:01:38Z</time>
      </trkpt>
      <trkpt lat="45.76724" lon="6.54779">
        <ele>1844.6</ele>
        <time>2025-08-15T12:01:39Z</time>
      </trkpt>
      <trkpt lat="45.76727" lon="6.54779">
        <ele>1845</ele>
        <time>2025-08-15T12:01:40Z</time>
      </trkpt>
      <trkpt lat="45.76729" lon="6.54778">
        <ele>1845.2</ele>
        <time>2025-08-15T12:01:41Z</time>
      </trkpt>
      <trkpt lat="45.76732" lon="6.54776">
        <ele>1845.7</ele>
        <time>2025-08-15T12:01:42Z</time>
      </trkpt>
      <trkpt lat="45.76733" lon="6.54776">
        <ele>1845.9</ele>
        <time>2025-08-15T12:01:43Z</time>
      </trkpt>
      <trkpt lat="45.76736" lon="6.54774">
        <ele>1846.3</ele>
        <time>2025-08-15T12:01:44Z</time>
      </trkpt>
      <trkpt lat="45.76737" lon="6.54774">
        <ele>1846.5</ele>
        <time>2025-08-15T12:01:45Z</time>
      </trkpt>
      <trkpt lat="45.76741" lon="6.54774">
        <ele>1846.7</ele>
        <time>2025-08-15T12:01:46Z</time>
      </trkpt>
      <trkpt lat="45.76742" lon="6.54773">
        <ele>1846.8</ele>
        <time>2025-08-15T12:01:47Z</time>
      </trkpt>
      <trkpt lat="45.76745" lon="6.54773">
        <ele>1847</ele>
        <time>2025-08-15T12:01:48Z</time>
      </trkpt>
      <trkpt lat="45.76746" lon="6.54772">
        <ele>1847</ele>
        <time>2025-08-15T12:01:49Z</time>
      </trkpt>
      <trkpt lat="45.76748" lon="6.5477">
        <ele>1847.6</ele>
        <time>2025-08-15T12:01:50Z</time>
      </trkpt>
      <trkpt lat="45.76749" lon="6.54769">
        <ele>1847.8</ele>
        <time>2025-08-15T12:01:51Z</time>
      </trkpt>
      <trkpt lat="45.76752" lon="6.54766">
        <ele>1848.3</ele>
        <time>2025-08-15T12:01:52Z</time>
      </trkpt>
      <trkpt lat="45.76752" lon="6.54765">
        <ele>1848.5</ele>
        <time>2025-08-15T12:01:53Z</time>
      </trkpt>
      <trkpt lat="45.76754" lon="6.54762">
        <ele>1849.1</ele>
        <time>2025-08-15T12:01:54Z</time>
      </trkpt>
      <trkpt lat="45.76755" lon="6.5476">
        <ele>1849.2</ele>
        <time>2025-08-15T12:01:55Z</time>
      </trkpt>
      <trkpt lat="45.76756" lon="6.54759">
        <ele>1849.6</ele>
        <time>2025-08-15T12:01:56Z</time>
      </trkpt>
      <trkpt lat="45.76758" lon="6.54757">
        <ele>1849.9</ele>
        <time>2025-08-15T12:01:57Z</time>
      </trkpt>
      <trkpt lat="45.76759" lon="6.54755">
        <ele>1850.2</ele>
        <time>2025-08-15T12:01:58Z</time>
      </trkpt>
      <trkpt lat="45.7676" lon="6.54754">
        <ele>1850.5</ele>
        <time>2025-08-15T12:01:59Z</time>
      </trkpt>
      <trkpt lat="45.76762" lon="6.54753">
        <ele>1850.9</ele>
        <time>2025-08-15T12:02:00Z</time>
      </trkpt>
      <trkpt lat="45.76763" lon="6.54751">
        <ele>1851.2</ele>
        <time>2025-08-15T12:02:01Z</time>
      </trkpt>
      <trkpt lat="45.76765" lon="6.54749">
        <ele>1851.8</ele>
        <time>2025-08-15T12:02:02Z</time>
      </trkpt>
      <trkpt lat="45.76766" lon="6.54748">
        <ele>1852</ele>
        <time>2025-08-15T12:02:03Z</time>
      </trkpt>
      <trkpt lat="45.76767" lon="6.54747">
        <ele>1852.3</ele>
        <time>2025-08-15T12:02:04Z</time>
      </trkpt>
      <trkpt lat="45.76769" lon="6.54746">
        <ele>1852.7</ele>
        <time>2025-08-15T12:02:05Z</time>
      </trkpt>
      <trkpt lat="45.76772" lon="6.54745">
        <ele>1853.3</ele>
        <time>2025-08-15T12:02:06Z</time>
      </trkpt>
      <trkpt lat="45.76773" lon="6.54745">
        <ele>1853.5</ele>
        <time>2025-08-15T12:02:07Z</time>
      </trkpt>
      <trkpt lat="45.76775" lon="6.54744">
        <ele>1853.8</ele>
        <time>2025-08-15T12:02:08Z</time>
      </trkpt>
      <trkpt lat="45.76776" lon="6.54744">
        <ele>1854.2</ele>
        <time>2025-08-15T12:02:09Z</time>
      </trkpt>
      <trkpt lat="45.76778" lon="6.54743">
        <ele>1854.6</ele>
        <time>2025-08-15T12:02:10Z</time>
      </trkpt>
      <trkpt lat="45.7678" lon="6.54743">
        <ele>1855</ele>
        <time>2025-08-15T12:02:11Z</time>
      </trkpt>
      <trkpt lat="45.76783" lon="6.54743">
        <ele>1855.6</ele>
        <time>2025-08-15T12:02:12Z</time>
      </trkpt>
      <trkpt lat="45.76784" lon="6.54743">
        <ele>1855.8</ele>
        <time>2025-08-15T12:02:13Z</time>
      </trkpt>
      <trkpt lat="45.76786" lon="6.54744">
        <ele>1856.4</ele>
        <time>2025-08-15T12:02:14Z</time>
      </trkpt>
      <trkpt lat="45.76787" lon="6.54744">
        <ele>1856.6</ele>
        <time>2025-08-15T12:02:15Z</time>
      </trkpt>
      <trkpt lat="45.76789" lon="6.54744">
        <ele>1857</ele>
        <time>2025-08-15T12:02:16Z</time>
      </trkpt>
      <trkpt lat="45.76791" lon="6.54743">
        <ele>1857.4</ele>
        <time>2025-08-15T12:02:17Z</time>
      </trkpt>
      <trkpt lat="45.76792" lon="6.54743">
        <ele>1857.7</ele>
        <time>2025-08-15T12:02:18Z</time>
      </trkpt>
      <trkpt lat="45.76794" lon="6.54741">
        <ele>1858.1</ele>
        <time>2025-08-15T12:02:19Z</time>
      </trkpt>
      <trkpt lat="45.76795" lon="6.54739">
        <ele>1858.5</ele>
        <time>2025-08-15T12:02:20Z</time>
      </trkpt>
      <trkpt lat="45.76796" lon="6.54738">
        <ele>1858.7</ele>
        <time>2025-08-15T12:02:21Z</time>
      </trkpt>
      <trkpt lat="45.76797" lon="6.54736">
        <ele>1859</ele>
        <time>2025-08-15T12:02:22Z</time>
      </trkpt>
      <trkpt lat="45.76799" lon="6.54734">
        <ele>1859.3</ele>
        <time>2025-08-15T12:02:23Z</time>
      </trkpt>
      <trkpt lat="45.768" lon="6.5473">
        <ele>1859.8</ele>
        <time>2025-08-15T12:02:24Z</time>
      </trkpt>
      <trkpt lat="45.768" lon="6.54729">
        <ele>1859.9</ele>
        <time>2025-08-15T12:02:25Z</time>
      </trkpt>
      <trkpt lat="45.768" lon="6.54727">
        <ele>1860.2</ele>
        <time>2025-08-15T12:02:26Z</time>
      </trkpt>
      <trkpt lat="45.76801" lon="6.54725">
        <ele>1860.5</ele>
        <time>2025-08-15T12:02:27Z</time>
      </trkpt>
      <trkpt lat="45.76801" lon="6.54722">
        <ele>1860.8</ele>
        <time>2025-08-15T12:02:28Z</time>
      </trkpt>
      <trkpt lat="45.76801" lon="6.5472">
        <ele>1861.1</ele>
        <time>2025-08-15T12:02:29Z</time>
      </trkpt>
      <trkpt lat="45.76801" lon="6.54717">
        <ele>1861.3</ele>
        <time>2025-08-15T12:02:30Z</time>
      </trkpt>
      <trkpt lat="45.76802" lon="6.54715">
        <ele>1861.6</ele>
        <time>2025-08-15T12:02:31Z</time>
      </trkpt>
      <trkpt lat="45.76802" lon="6.54711">
        <ele>1862.1</ele>
        <time>2025-08-15T12:02:32Z</time>
      </trkpt>
      <trkpt lat="45.76802" lon="6.54709">
        <ele>1862.2</ele>
        <time>2025-08-15T12:02:33Z</time>
      </trkpt>
      <trkpt lat="45.76802" lon="6.54707">
        <ele>1862.4</ele>
        <time>2025-08-15T12:02:34Z</time>
      </trkpt>
      <trkpt lat="45.76803" lon="6.54705">
        <ele>1862.7</ele>
        <time>2025-08-15T12:02:35Z</time>
      </trkpt>
      <trkpt lat="45.76803" lon="6.54703">
        <ele>1862.9</ele>
        <time>2025-08-15T12:02:36Z</time>
      </trkpt>
      <trkpt lat="45.76803" lon="6.547">
        <ele>1863.2</ele>
        <time>2025-08-15T12:02:37Z</time>
      </trkpt>
      <trkpt lat="45.76804" lon="6.54696">
        <ele>1863.6</ele>
        <time>2025-08-15T12:02:38Z</time>
      </trkpt>
      <trkpt lat="45.76804" lon="6.54694">
        <ele>1863.8</ele>
        <time>2025-08-15T12:02:39Z</time>
      </trkpt>
      <trkpt lat="45.76804" lon="6.54692">
        <ele>1864.1</ele>
        <time>2025-08-15T12:02:40Z</time>
      </trkpt>
      <trkpt lat="45.76804" lon="6.5469">
        <ele>1864.3</ele>
        <time>2025-08-15T12:02:41Z</time>
      </trkpt>
      <trkpt lat="45.76805" lon="6.54686">
        <ele>1864.7</ele>
        <time>2025-08-15T12:02:42Z</time>
      </trkpt>
      <trkpt lat="45.76805" lon="6.54684">
        <ele>1864.9</ele>
        <time>2025-08-15T12:02:43Z</time>
      </trkpt>
      <trkpt lat="45.76805" lon="6.5468">
        <ele>1865.3</ele>
        <time>2025-08-15T12:02:44Z</time>
      </trkpt>
      <trkpt lat="45.76805" lon="6.54678">
        <ele>1865.5</ele>
        <time>2025-08-15T12:02:45Z</time>
      </trkpt>
      <trkpt lat="45.76806" lon="6.54676">
        <ele>1865.7</ele>
        <time>2025-08-15T12:02:46Z</time>
      </trkpt>
      <trkpt lat="45.76806" lon="6.54673">
        <ele>1866</ele>
        <time>2025-08-15T12:02:47Z</time>
      </trkpt>
      <trkpt lat="45.76806" lon="6.54669">
        <ele>1866.5</ele>
        <time>2025-08-15T12:02:48Z</time>
      </trkpt>
      <trkpt lat="45.76807" lon="6.54668">
        <ele>1866.6</ele>
        <time>2025-08-15T12:02:49Z</time>
      </trkpt>
      <trkpt lat="45.76807" lon="6.54663">
        <ele>1867.2</ele>
        <time>2025-08-15T12:02:50Z</time>
      </trkpt>
      <trkpt lat="45.76807" lon="6.54661">
        <ele>1867.3</ele>
        <time>2025-08-15T12:02:51Z</time>
      </trkpt>
      <trkpt lat="45.76808" lon="6.54657">
        <ele>1867.8</ele>
        <time>2025-08-15T12:02:52Z</time>
      </trkpt>
      <trkpt lat="45.76808" lon="6.54656">
        <ele>1867.9</ele>
        <time>2025-08-15T12:02:53Z</time>
      </trkpt>
      <trkpt lat="45.76809" lon="6.54651">
        <ele>1868.4</ele>
        <time>2025-08-15T12:02:54Z</time>
      </trkpt>
      <trkpt lat="45.76809" lon="6.5465">
        <ele>1868.6</ele>
        <time>2025-08-15T12:02:55Z</time>
      </trkpt>
      <trkpt lat="45.7681" lon="6.54646">
        <ele>1869</ele>
        <time>2025-08-15T12:02:56Z</time>
      </trkpt>
      <trkpt lat="45.7681" lon="6.54644">
        <ele>1869.2</ele>
        <time>2025-08-15T12:02:57Z</time>
      </trkpt>
      <trkpt lat="45.76811" lon="6.5464">
        <ele>1869.7</ele>
        <time>2025-08-15T12:02:58Z</time>
      </trkpt>
      <trkpt lat="45.76811" lon="6.54639">
        <ele>1869.8</ele>
        <time>2025-08-15T12:02:59Z</time>
      </trkpt>
      <trkpt lat="45.76812" lon="6.54634">
        <ele>1870.3</ele>
        <time>2025-08-15T12:03:00Z</time>
      </trkpt>
      <trkpt lat="45.76812" lon="6.54633">
        <ele>1870.4</ele>
        <time>2025-08-15T12:03:01Z</time>
      </trkpt>
      <trkpt lat="45.76813" lon="6.54628">
        <ele>1870.6</ele>
        <time>2025-08-15T12:03:02Z</time>
      </trkpt>
      <trkpt lat="45.76814" lon="6.54627">
        <ele>1870.7</ele>
        <time>2025-08-15T12:03:03Z</time>
      </trkpt>
      <trkpt lat="45.76815" lon="6.54623">
        <ele>1870.8</ele>
        <time>2025-08-15T12:03:04Z</time>
      </trkpt>
      <trkpt lat="45.76815" lon="6.54622">
        <ele>1870.9</ele>
        <time>2025-08-15T12:03:05Z</time>
      </trkpt>
      <trkpt lat="45.76816" lon="6.54619">
        <ele>1870.9</ele>
        <time>2025-08-15T12:03:06Z</time>
      </trkpt>
      <trkpt lat="45.76817" lon="6.54617">
        <ele>1871</ele>
        <time>2025-08-15T12:03:07Z</time>
      </trkpt>
      <trkpt lat="45.76818" lon="6.54616">
        <ele>1871</ele>
        <time>2025-08-15T12:03:08Z</time>
      </trkpt>
      <trkpt lat="45.7682" lon="6.54614">
        <ele>1871.1</ele>
        <time>2025-08-15T12:03:09Z</time>
      </trkpt>
      <trkpt lat="45.76821" lon="6.54613">
        <ele>1871.1</ele>
        <time>2025-08-15T12:03:10Z</time>
      </trkpt>
      <trkpt lat="45.76823" lon="6.54612">
        <ele>1871.1</ele>
        <time>2025-08-15T12:03:11Z</time>
      </trkpt>
      <trkpt lat="45.76825" lon="6.54611">
        <ele>1871.2</ele>
        <time>2025-08-15T12:03:12Z</time>
      </trkpt>
      <trkpt lat="45.76826" lon="6.54611">
        <ele>1871.2</ele>
        <time>2025-08-15T12:03:13Z</time>
      </trkpt>
      <trkpt lat="45.76828" lon="6.54612">
        <ele>1871.2</ele>
        <time>2025-08-15T12:03:14Z</time>
      </trkpt>
      <trkpt lat="45.76829" lon="6.54613">
        <ele>1871.3</ele>
        <time>2025-08-15T12:03:15Z</time>
      </trkpt>
      <trkpt lat="45.76831" lon="6.54614">
        <ele>1871.4</ele>
        <time>2025-08-15T12:03:16Z</time>
      </trkpt>
      <trkpt lat="45.76832" lon="6.54615">
        <ele>1871.4</ele>
        <time>2025-08-15T12:03:17Z</time>
      </trkpt>
      <trkpt lat="45.76834" lon="6.54617">
        <ele>1871.4</ele>
        <time>2025-08-15T12:03:18Z</time>
      </trkpt>
      <trkpt lat="45.76835" lon="6.54618">
        <ele>1871.4</ele>
        <time>2025-08-15T12:03:19Z</time>
      </trkpt>
      <trkpt lat="45.76835" lon="6.54618">
        <ele>1871.5</ele>
        <time>2025-08-15T12:03:20Z</time>
      </trkpt>
      <trkpt lat="45.76836" lon="6.54619">
        <ele>1871.5</ele>
        <time>2025-08-15T12:03:21Z</time>
      </trkpt>
      <trkpt lat="45.76837" lon="6.5462">
        <ele>1871.5</ele>
        <time>2025-08-15T12:03:22Z</time>
      </trkpt>
      <trkpt lat="45.76838" lon="6.54621">
        <ele>1871.5</ele>
        <time>2025-08-15T12:03:23Z</time>
      </trkpt>
      <trkpt lat="45.76839" lon="6.54622">
        <ele>1871.5</ele>
        <time>2025-08-15T12:03:24Z</time>
      </trkpt>
      <trkpt lat="45.76839" lon="6.54622">
        <ele>1871.5</ele>
        <time>2025-08-15T12:03:25Z</time>
      </trkpt>
      <trkpt lat="45.7684" lon="6.54622">
        <ele>1871.6</ele>
        <time>2025-08-15T12:03:26Z</time>
      </trkpt>
      <trkpt lat="45.7684" lon="6.54622">
        <ele>1871.6</ele>
        <time>2025-08-15T12:03:27Z</time>
      </trkpt>
      <trkpt lat="45.7684" lon="6.54622">
        <ele>1871.6</ele>
        <time>2025-08-15T12:03:28Z</time>
      </trkpt>
      <trkpt lat="45.7684" lon="6.54622">
        <ele>1871.6</ele>
        <time>2025-08-15T12:03:29Z</time>
      </trkpt>
      <trkpt lat="45.7684" lon="6.54622">
        <ele>1871.6</ele>
        <time>2025-08-15T12:03:30Z</time>
      </trkpt>
      <trkpt lat="45.7684" lon="6.54622">
        <ele>1871.6</ele>
        <time>2025-08-15T12:03:31Z</time>
      </trkpt>
      <trkpt lat="45.7684" lon="6.54622">
        <ele>1871.6</ele>
        <time>2025-08-15T12:03:32Z</time>
      </trkpt>
      <trkpt lat="45.7684" lon="6.54622">
        <ele>1871.6</ele>
        <time>2025-08-15T12:03:33Z</time>
      </trkpt>
      <trkpt lat="45.7684" lon="6.54622">
        <ele>1871.6</ele>
        <time>2025-08-15T12:03:34Z</time>
      </trkpt>
      <trkpt lat="45.7684" lon="6.54622">
        <ele>1871.6</ele>
        <time>2025-08-15T12:03:35Z</time>
      </trkpt>
      <trkpt lat="45.7684" lon="6.54622">
        <ele>1871.6</ele>
        <time>2025-08-15T12:03:36Z</time>
      </trkpt>
      <trkpt lat="45.76842" lon="6.54621">
        <ele>1871.6</ele>
        <time>2025-08-15T12:04:05Z</time>
      </trkpt>
      <trkpt lat="45.76841" lon="6.54621">
        <ele>1871.6</ele>
        <time>2025-08-15T12:04:06Z</time>
      </trkpt>
      <trkpt lat="45.76841" lon="6.5462">
        <ele>1871.6</ele>
        <time>2025-08-15T12:04:07Z</time>
      </trkpt>
      <trkpt lat="45.76841" lon="6.5462">
        <ele>1871.6</ele>
        <time>2025-08-15T12:04:08Z</time>
      </trkpt>
      <trkpt lat="45.76841" lon="6.5462">
        <ele>1871.6</ele>
        <time>2025-08-15T12:04:09Z</time>
      </trkpt>
      <trkpt lat="45.76841" lon="6.5462">
        <ele>1871.6</ele>
        <time>2025-08-15T12:04:10Z</time>
      </trkpt>
      <trkpt lat="45.76841" lon="6.5462">
        <ele>1871.6</ele>
        <time>2025-08-15T12:04:11Z</time>
      </trkpt>
      <trkpt lat="45.76841" lon="6.5462">
        <ele>1871.7</ele>
        <time>2025-08-15T12:04:12Z</time>
      </trkpt>
      <trkpt lat="45.76841" lon="6.54619">
        <ele>1871.7</ele>
        <time>2025-08-15T12:04:13Z</time>
      </trkpt>
      <trkpt lat="45.76841" lon="6.54619">
        <ele>1871.7</ele>
        <time>2025-08-15T12:04:14Z</time>
      </trkpt>
      <trkpt lat="45.76841" lon="6.54619">
        <ele>1871.7</ele>
        <time>2025-08-15T12:04:15Z</time>
      </trkpt>
      <trkpt lat="45.76842" lon="6.54632">
        <ele>1871.8</ele>
        <time>2025-08-15T12:04:31Z</time>
      </trkpt>
      <trkpt lat="45.76842" lon="6.54633">
        <ele>1871.8</ele>
        <time>2025-08-15T12:04:32Z</time>
      </trkpt>
      <trkpt lat="45.76843" lon="6.54634">
        <ele>1871.8</ele>
        <time>2025-08-15T12:04:33Z</time>
      </trkpt>
      <trkpt lat="45.76844" lon="6.54633">
        <ele>1871.9</ele>
        <time>2025-08-15T12:04:34Z</time>
      </trkpt>
      <trkpt lat="45.76845" lon="6.54632">
        <ele>1871.9</ele>
        <time>2025-08-15T12:04:35Z</time>
      </trkpt>
      <trkpt lat="45.76844" lon="6.5463">
        <ele>1871.9</ele>
        <time>2025-08-15T12:04:36Z</time>
      </trkpt>
      <trkpt lat="45.76843" lon="6.54628">
        <ele>1871.9</ele>
        <time>2025-08-15T12:04:37Z</time>
      </trkpt>
      <trkpt lat="45.76842" lon="6.54627">
        <ele>1872</ele>
        <time>2025-08-15T12:04:38Z</time>
      </trkpt>
      <trkpt lat="45.76841" lon="6.54626">
        <ele>1872</ele>
        <time>2025-08-15T12:04:39Z</time>
      </trkpt>
      <trkpt lat="45.7684" lon="6.54625">
        <ele>1872</ele>
        <time>2025-08-15T12:04:40Z</time>
      </trkpt>
      <trkpt lat="45.7684" lon="6.54623">
        <ele>1872</ele>
        <time>2025-08-15T12:04:41Z</time>
      </trkpt>
      <trkpt lat="45.7684" lon="6.54622">
        <ele>1872.1</ele>
        <time>2025-08-15T12:04:42Z</time>
      </trkpt>
      <trkpt lat="45.76838" lon="6.5462">
        <ele>1872.1</ele>
        <time>2025-08-15T12:04:43Z</time>
      </trkpt>
      <trkpt lat="45.76837" lon="6.5462">
        <ele>1872.1</ele>
        <time>2025-08-15T12:04:44Z</time>
      </trkpt>
      <trkpt lat="45.76836" lon="6.54621">
        <ele>1872.2</ele>
        <time>2025-08-15T12:04:45Z</time>
      </trkpt>
      <trkpt lat="45.76836" lon="6.54624">
        <ele>1872.2</ele>
        <time>2025-08-15T12:04:46Z</time>
      </trkpt>
      <trkpt lat="45.76837" lon="6.54626">
        <ele>1872.2</ele>
        <time>2025-08-15T12:04:47Z</time>
      </trkpt>
      <trkpt lat="45.76838" lon="6.54627">
        <ele>1872.3</ele>
        <time>2025-08-15T12:04:48Z</time>
      </trkpt>
      <trkpt lat="45.76839" lon="6.54627">
        <ele>1872.3</ele>
        <time>2025-08-15T12:04:49Z</time>
      </trkpt>
      <trkpt lat="45.76841" lon="6.54628">
        <ele>1872.3</ele>
        <time>2025-08-15T12:04:50Z</time>
      </trkpt>
      <trkpt lat="45.76842" lon="6.54629">
        <ele>1872.3</ele>
        <time>2025-08-15T12:04:51Z</time>
      </trkpt>
      <trkpt lat="45.76843" lon="6.54629">
        <ele>1872.1</ele>
        <time>2025-08-15T12:04:52Z</time>
      </trkpt>
      <trkpt lat="45.76844" lon="6.54627">
        <ele>1871.9</ele>
        <time>2025-08-15T12:04:53Z</time>
      </trkpt>
      <trkpt lat="45.76845" lon="6.54625">
        <ele>1871.6</ele>
        <time>2025-08-15T12:04:54Z</time>
      </trkpt>
      <trkpt lat="45.76846" lon="6.54624">
        <ele>1871.5</ele>
        <time>2025-08-15T12:04:55Z</time>
      </trkpt>
      <trkpt lat="45.76846" lon="6.54623">
        <ele>1871.3</ele>
        <time>2025-08-15T12:04:56Z</time>
      </trkpt>
      <trkpt lat="45.76849" lon="6.54623">
        <ele>1870.9</ele>
        <time>2025-08-15T12:04:57Z</time>
      </trkpt>
      <trkpt lat="45.7685" lon="6.54623">
        <ele>1870.7</ele>
        <time>2025-08-15T12:04:58Z</time>
      </trkpt>
      <trkpt lat="45.76853" lon="6.54624">
        <ele>1870.3</ele>
        <time>2025-08-15T12:04:59Z</time>
      </trkpt>
      <trkpt lat="45.76856" lon="6.54625">
        <ele>1869.9</ele>
        <time>2025-08-15T12:05:00Z</time>
      </trkpt>
      <trkpt lat="45.76856" lon="6.54625">
        <ele>1869.8</ele>
        <time>2025-08-15T12:05:01Z</time>
      </trkpt>
      <trkpt lat="45.76856" lon="6.54625">
        <ele>1869.8</ele>
        <time>2025-08-15T12:05:02Z</time>
      </trkpt>
      <trkpt lat="45.76856" lon="6.54625">
        <ele>1869.8</ele>
        <time>2025-08-15T12:05:03Z</time>
      </trkpt>
      <trkpt lat="45.76856" lon="6.54624">
        <ele>1869.7</ele>
        <time>2025-08-15T12:05:04Z</time>
      </trkpt>
      <trkpt lat="45.76855" lon="6.54625">
        <ele>1869.7</ele>
        <time>2025-08-15T12:05:05Z</time>
      </trkpt>
      <trkpt lat="45.76855" lon="6.54624">
        <ele>1869.6</ele>
        <time>2025-08-15T12:05:06Z</time>
      </trkpt>
      <trkpt lat="45.76854" lon="6.54624">
        <ele>1869.5</ele>
        <time>2025-08-15T12:05:07Z</time>
      </trkpt>
      <trkpt lat="45.76853" lon="6.54624">
        <ele>1869.4</ele>
        <time>2025-08-15T12:05:08Z</time>
      </trkpt>
      <trkpt lat="45.76853" lon="6.54624">
        <ele>1869.3</ele>
        <time>2025-08-15T12:05:09Z</time>
      </trkpt>
      <trkpt lat="45.76851" lon="6.54624">
        <ele>1869.2</ele>
        <time>2025-08-15T12:05:10Z</time>
      </trkpt>
      <trkpt lat="45.7685" lon="6.54624">
        <ele>1869.1</ele>
        <time>2025-08-15T12:05:11Z</time>
      </trkpt>
      <trkpt lat="45.76849" lon="6.54624">
        <ele>1868.9</ele>
        <time>2025-08-15T12:05:26Z</time>
      </trkpt>
      <trkpt lat="45.76848" lon="6.54623">
        <ele>1868.8</ele>
        <time>2025-08-15T12:05:27Z</time>
      </trkpt>
      <trkpt lat="45.76847" lon="6.54623">
        <ele>1868.7</ele>
        <time>2025-08-15T12:05:28Z</time>
      </trkpt>
      <trkpt lat="45.76847" lon="6.54624">
        <ele>1868.6</ele>
        <time>2025-08-15T12:05:29Z</time>
      </trkpt>
      <trkpt lat="45.76846" lon="6.54624">
        <ele>1868.6</ele>
        <time>2025-08-15T12:05:30Z</time>
      </trkpt>
      <trkpt lat="45.76846" lon="6.54625">
        <ele>1868.5</ele>
        <time>2025-08-15T12:05:31Z</time>
      </trkpt>
      <trkpt lat="45.76846" lon="6.54625">
        <ele>1868.5</ele>
        <time>2025-08-15T12:05:32Z</time>
      </trkpt>
      <trkpt lat="45.76846" lon="6.54625">
        <ele>1868.5</ele>
        <time>2025-08-15T12:05:33Z</time>
      </trkpt>
      <trkpt lat="45.76846" lon="6.54625">
        <ele>1868.4</ele>
        <time>2025-08-15T12:05:34Z</time>
      </trkpt>
      <trkpt lat="45.76846" lon="6.54625">
        <ele>1868.4</ele>
        <time>2025-08-15T12:05:35Z</time>
      </trkpt>
      <trkpt lat="45.76847" lon="6.54624">
        <ele>1868.3</ele>
        <time>2025-08-15T12:05:36Z</time>
      </trkpt>
      <trkpt lat="45.76847" lon="6.54623">
        <ele>1868.3</ele>
        <time>2025-08-15T12:05:37Z</time>
      </trkpt>
      <trkpt lat="45.76848" lon="6.54623">
        <ele>1868.2</ele>
        <time>2025-08-15T12:05:38Z</time>
      </trkpt>
      <trkpt lat="45.76849" lon="6.54623">
        <ele>1868.1</ele>
        <time>2025-08-15T12:05:39Z</time>
      </trkpt>
      <trkpt lat="45.7685" lon="6.54624">
        <ele>1868.1</ele>
        <time>2025-08-15T12:05:40Z</time>
      </trkpt>
      <trkpt lat="45.76867" lon="6.54625">
        <ele>1867</ele>
        <time>2025-08-15T12:07:04Z</time>
      </trkpt>
      <trkpt lat="45.76868" lon="6.54626">
        <ele>1867</ele>
        <time>2025-08-15T12:07:05Z</time>
      </trkpt>
      <trkpt lat="45.76869" lon="6.54626">
        <ele>1866.9</ele>
        <time>2025-08-15T12:07:06Z</time>
      </trkpt>
      <trkpt lat="45.7687" lon="6.54626">
        <ele>1866.9</ele>
        <time>2025-08-15T12:07:07Z</time>
      </trkpt>
      <trkpt lat="45.7687" lon="6.54627">
        <ele>1866.8</ele>
        <time>2025-08-15T12:07:08Z</time>
      </trkpt>
      <trkpt lat="45.76871" lon="6.54628">
        <ele>1866.8</ele>
        <time>2025-08-15T12:07:09Z</time>
      </trkpt>
      <trkpt lat="45.76873" lon="6.54628">
        <ele>1866.7</ele>
        <time>2025-08-15T12:07:10Z</time>
      </trkpt>
      <trkpt lat="45.76874" lon="6.54628">
        <ele>1866.7</ele>
        <time>2025-08-15T12:07:11Z</time>
      </trkpt>
      <trkpt lat="45.76876" lon="6.54628">
        <ele>1866.6</ele>
        <time>2025-08-15T12:07:12Z</time>
      </trkpt>
      <trkpt lat="45.76878" lon="6.54628">
        <ele>1866.5</ele>
        <time>2025-08-15T12:07:13Z</time>
      </trkpt>
      <trkpt lat="45.7688" lon="6.54627">
        <ele>1866.4</ele>
        <time>2025-08-15T12:07:14Z</time>
      </trkpt>
      <trkpt lat="45.76883" lon="6.54628">
        <ele>1866.3</ele>
        <time>2025-08-15T12:07:15Z</time>
      </trkpt>
      <trkpt lat="45.76887" lon="6.54629">
        <ele>1866.2</ele>
        <time>2025-08-15T12:07:16Z</time>
      </trkpt>
      <trkpt lat="45.76888" lon="6.54629">
        <ele>1866.1</ele>
        <time>2025-08-15T12:07:17Z</time>
      </trkpt>
      <trkpt lat="45.76891" lon="6.54628">
        <ele>1866</ele>
        <time>2025-08-15T12:07:18Z</time>
      </trkpt>
      <trkpt lat="45.76894" lon="6.54629">
        <ele>1865.9</ele>
        <time>2025-08-15T12:07:19Z</time>
      </trkpt>
      <trkpt lat="45.76898" lon="6.54629">
        <ele>1865.7</ele>
        <time>2025-08-15T12:07:20Z</time>
      </trkpt>
      <trkpt lat="45.76902" lon="6.5463">
        <ele>1865.6</ele>
        <time>2025-08-15T12:07:21Z</time>
      </trkpt>
      <trkpt lat="45.76906" lon="6.5463">
        <ele>1865.4</ele>
        <time>2025-08-15T12:07:22Z</time>
      </trkpt>
      <trkpt lat="45.7691" lon="6.54631">
        <ele>1865.2</ele>
        <time>2025-08-15T12:07:23Z</time>
      </trkpt>
      <trkpt lat="45.76913" lon="6.54632">
        <ele>1865.1</ele>
        <time>2025-08-15T12:07:24Z</time>
      </trkpt>
      <trkpt lat="45.76917" lon="6.54633">
        <ele>1864.9</ele>
        <time>2025-08-15T12:07:25Z</time>
      </trkpt>
      <trkpt lat="45.76921" lon="6.54633">
        <ele>1864.6</ele>
        <time>2025-08-15T12:07:26Z</time>
      </trkpt>
      <trkpt lat="45.76926" lon="6.54632">
        <ele>1864.4</ele>
        <time>2025-08-15T12:07:27Z</time>
      </trkpt>
      <trkpt lat="45.7693" lon="6.54632">
        <ele>1864.2</ele>
        <time>2025-08-15T12:07:28Z</time>
      </trkpt>
      <trkpt lat="45.76934" lon="6.54631">
        <ele>1863.9</ele>
        <time>2025-08-15T12:07:29Z</time>
      </trkpt>
      <trkpt lat="45.76938" lon="6.54632">
        <ele>1863.7</ele>
        <time>2025-08-15T12:07:30Z</time>
      </trkpt>
      <trkpt lat="45.76943" lon="6.54633">
        <ele>1863.5</ele>
        <time>2025-08-15T12:07:31Z</time>
      </trkpt>
      <trkpt lat="45.76947" lon="6.54633">
        <ele>1863.2</ele>
        <time>2025-08-15T12:07:32Z</time>
      </trkpt>
      <trkpt lat="45.76951" lon="6.54634">
        <ele>1863</ele>
        <time>2025-08-15T12:07:33Z</time>
      </trkpt>
      <trkpt lat="45.76956" lon="6.54635">
        <ele>1862.8</ele>
        <time>2025-08-15T12:07:34Z</time>
      </trkpt>
      <trkpt lat="45.76961" lon="6.54635">
        <ele>1862.7</ele>
        <time>2025-08-15T12:07:35Z</time>
      </trkpt>
      <trkpt lat="45.76965" lon="6.54635">
        <ele>1862.5</ele>
        <time>2025-08-15T12:07:36Z</time>
      </trkpt>
      <trkpt lat="45.76969" lon="6.54636">
        <ele>1862.4</ele>
        <time>2025-08-15T12:07:37Z</time>
      </trkpt>
      <trkpt lat="45.76973" lon="6.54636">
        <ele>1862.4</ele>
        <time>2025-08-15T12:07:38Z</time>
      </trkpt>
      <trkpt lat="45.76978" lon="6.54636">
        <ele>1862.3</ele>
        <time>2025-08-15T12:07:39Z</time>
      </trkpt>
      <trkpt lat="45.76981" lon="6.54636">
        <ele>1862.2</ele>
        <time>2025-08-15T12:07:40Z</time>
      </trkpt>
      <trkpt lat="45.76985" lon="6.54637">
        <ele>1862.1</ele>
        <time>2025-08-15T12:07:41Z</time>
      </trkpt>
      <trkpt lat="45.76987" lon="6.54637">
        <ele>1862</ele>
        <time>2025-08-15T12:07:42Z</time>
      </trkpt>
      <trkpt lat="45.76988" lon="6.54637">
        <ele>1862</ele>
        <time>2025-08-15T12:07:43Z</time>
      </trkpt>
      <trkpt lat="45.76989" lon="6.54636">
        <ele>1862</ele>
        <time>2025-08-15T12:07:44Z</time>
      </trkpt>
      <trkpt lat="45.76989" lon="6.54636">
        <ele>1862</ele>
        <time>2025-08-15T12:07:45Z</time>
      </trkpt>
      <trkpt lat="45.76988" lon="6.54636">
        <ele>1861.9</ele>
        <time>2025-08-15T12:07:46Z</time>
      </trkpt>
      <trkpt lat="45.76988" lon="6.54636">
        <ele>1861.9</ele>
        <time>2025-08-15T12:07:47Z</time>
      </trkpt>
      <trkpt lat="45.76988" lon="6.54636">
        <ele>1861.9</ele>
        <time>2025-08-15T12:07:48Z</time>
      </trkpt>
      <trkpt lat="45.76988" lon="6.54636">
        <ele>1861.9</ele>
        <time>2025-08-15T12:07:49Z</time>
      </trkpt>
      <trkpt lat="45.76988" lon="6.54636">
        <ele>1861.9</ele>
        <time>2025-08-15T12:07:50Z</time>
      </trkpt>
      <trkpt lat="45.76988" lon="6.54636">
        <ele>1861.9</ele>
        <time>2025-08-15T12:07:51Z</time>
      </trkpt>
      <trkpt lat="45.76988" lon="6.54636">
        <ele>1861.9</ele>
        <time>2025-08-15T12:07:52Z</time>
      </trkpt>
      <trkpt lat="45.76988" lon="6.54636">
        <ele>1861.9</ele>
        <time>2025-08-15T12:07:53Z</time>
      </trkpt>
      <trkpt lat="45.76988" lon="6.54636">
        <ele>1861.9</ele>
        <time>2025-08-15T12:07:54Z</time>
      </trkpt>
      <trkpt lat="45.76994" lon="6.54636">
        <ele>1861.6</ele>
        <time>2025-08-15T12:08:36Z</time>
      </trkpt>
      <trkpt lat="45.76995" lon="6.54636">
        <ele>1861.6</ele>
        <time>2025-08-15T12:08:37Z</time>
      </trkpt>
      <trkpt lat="45.76998" lon="6.54636">
        <ele>1861.3</ele>
        <time>2025-08-15T12:08:38Z</time>
      </trkpt>
      <trkpt lat="45.76999" lon="6.54636">
        <ele>1861.2</ele>
        <time>2025-08-15T12:08:39Z</time>
      </trkpt>
      <trkpt lat="45.77002" lon="6.54636">
        <ele>1860.6</ele>
        <time>2025-08-15T12:08:40Z</time>
      </trkpt>
      <trkpt lat="45.77003" lon="6.54636">
        <ele>1860.4</ele>
        <time>2025-08-15T12:08:41Z</time>
      </trkpt>
      <trkpt lat="45.77006" lon="6.54635">
        <ele>1860</ele>
        <time>2025-08-15T12:08:42Z</time>
      </trkpt>
      <trkpt lat="45.77009" lon="6.54634">
        <ele>1859.6</ele>
        <time>2025-08-15T12:08:43Z</time>
      </trkpt>
      <trkpt lat="45.77013" lon="6.54631">
        <ele>1859</ele>
        <time>2025-08-15T12:08:44Z</time>
      </trkpt>
      <trkpt lat="45.77017" lon="6.54628">
        <ele>1858.3</ele>
        <time>2025-08-15T12:08:45Z</time>
      </trkpt>
      <trkpt lat="45.77019" lon="6.54626">
        <ele>1857.9</ele>
        <time>2025-08-15T12:08:46Z</time>
      </trkpt>
      <trkpt lat="45.77023" lon="6.54626">
        <ele>1857.4</ele>
        <time>2025-08-15T12:08:47Z</time>
      </trkpt>
      <trkpt lat="45.77024" lon="6.54625">
        <ele>1857.2</ele>
        <time>2025-08-15T12:08:48Z</time>
      </trkpt>
      <trkpt lat="45.77025" lon="6.54626">
        <ele>1857.1</ele>
        <time>2025-08-15T12:08:49Z</time>
      </trkpt>
      <trkpt lat="45.77026" lon="6.54625">
        <ele>1856.9</ele>
        <time>2025-08-15T12:08:50Z</time>
      </trkpt>
      <trkpt lat="45.77028" lon="6.54624">
        <ele>1856.7</ele>
        <time>2025-08-15T12:08:51Z</time>
      </trkpt>
      <trkpt lat="45.77028" lon="6.54624">
        <ele>1856.6</ele>
        <time>2025-08-15T12:08:52Z</time>
      </trkpt>
      <trkpt lat="45.77028" lon="6.54624">
        <ele>1856.6</ele>
        <time>2025-08-15T12:08:53Z</time>
      </trkpt>
      <trkpt lat="45.77029" lon="6.54624">
        <ele>1856.5</ele>
        <time>2025-08-15T12:08:54Z</time>
      </trkpt>
      <trkpt lat="45.77029" lon="6.54624">
        <ele>1856.5</ele>
        <time>2025-08-15T12:08:55Z</time>
      </trkpt>
      <trkpt lat="45.77029" lon="6.54624">
        <ele>1856.5</ele>
        <time>2025-08-15T12:08:56Z</time>
      </trkpt>
      <trkpt lat="45.77029" lon="6.54624">
        <ele>1856.4</ele>
        <time>2025-08-15T12:08:57Z</time>
      </trkpt>
      <trkpt lat="45.7703" lon="6.54624">
        <ele>1856.4</ele>
        <time>2025-08-15T12:08:58Z</time>
      </trkpt>
      <trkpt lat="45.7703" lon="6.54623">
        <ele>1856.3</ele>
        <time>2025-08-15T12:08:59Z</time>
      </trkpt>
      <trkpt lat="45.7703" lon="6.54623">
        <ele>1856.3</ele>
        <time>2025-08-15T12:09:00Z</time>
      </trkpt>
      <trkpt lat="45.77031" lon="6.54623">
        <ele>1856.3</ele>
        <time>2025-08-15T12:09:01Z</time>
      </trkpt>
      <trkpt lat="45.77034" lon="6.54621">
        <ele>1855.8</ele>
        <time>2025-08-15T12:09:02Z</time>
      </trkpt>
      <trkpt lat="45.77035" lon="6.54621">
        <ele>1855.6</ele>
        <time>2025-08-15T12:09:03Z</time>
      </trkpt>
      <trkpt lat="45.77037" lon="6.5462">
        <ele>1855.2</ele>
        <time>2025-08-15T12:09:04Z</time>
      </trkpt>
      <trkpt lat="45.7704" lon="6.54619">
        <ele>1854.7</ele>
        <time>2025-08-15T12:09:05Z</time>
      </trkpt>
      <trkpt lat="45.77041" lon="6.54619">
        <ele>1854.6</ele>
        <time>2025-08-15T12:09:06Z</time>
      </trkpt>
      <trkpt lat="45.77043" lon="6.54617">
        <ele>1854.3</ele>
        <time>2025-08-15T12:09:07Z</time>
      </trkpt>
      <trkpt lat="45.77044" lon="6.54616">
        <ele>1854.1</ele>
        <time>2025-08-15T12:09:08Z</time>
      </trkpt>
      <trkpt lat="45.77045" lon="6.54616">
        <ele>1853.9</ele>
        <time>2025-08-15T12:09:09Z</time>
      </trkpt>
      <trkpt lat="45.77046" lon="6.54615">
        <ele>1853.8</ele>
        <time>2025-08-15T12:09:10Z</time>
      </trkpt>
      <trkpt lat="45.77047" lon="6.54615">
        <ele>1853.7</ele>
        <time>2025-08-15T12:09:11Z</time>
      </trkpt>
      <trkpt lat="45.77047" lon="6.54614">
        <ele>1853.5</ele>
        <time>2025-08-15T12:09:12Z</time>
      </trkpt>
      <trkpt lat="45.77048" lon="6.54614">
        <ele>1853.4</ele>
        <time>2025-08-15T12:09:13Z</time>
      </trkpt>
      <trkpt lat="45.77049" lon="6.54613">
        <ele>1853.3</ele>
        <time>2025-08-15T12:09:14Z</time>
      </trkpt>
      <trkpt lat="45.7705" lon="6.54613">
        <ele>1853.2</ele>
        <time>2025-08-15T12:09:15Z</time>
      </trkpt>
      <trkpt lat="45.7705" lon="6.54612">
        <ele>1853</ele>
        <time>2025-08-15T12:09:16Z</time>
      </trkpt>
      <trkpt lat="45.77051" lon="6.54612">
        <ele>1852.9</ele>
        <time>2025-08-15T12:09:17Z</time>
      </trkpt>
      <trkpt lat="45.77052" lon="6.54611">
        <ele>1852.8</ele>
        <time>2025-08-15T12:09:18Z</time>
      </trkpt>
      <trkpt lat="45.77052" lon="6.5461">
        <ele>1852.7</ele>
        <time>2025-08-15T12:09:19Z</time>
      </trkpt>
      <trkpt lat="45.77053" lon="6.5461">
        <ele>1852.5</ele>
        <time>2025-08-15T12:11:16Z</time>
      </trkpt>
      <trkpt lat="45.77054" lon="6.54609">
        <ele>1852.4</ele>
        <time>2025-08-15T12:11:17Z</time>
      </trkpt>
      <trkpt lat="45.77056" lon="6.54607">
        <ele>1852</ele>
        <time>2025-08-15T12:11:18Z</time>
      </trkpt>
      <trkpt lat="45.7706" lon="6.54605">
        <ele>1851.5</ele>
        <time>2025-08-15T12:11:19Z</time>
      </trkpt>
      <trkpt lat="45.77063" lon="6.54604">
        <ele>1851</ele>
        <time>2025-08-15T12:11:20Z</time>
      </trkpt>
      <trkpt lat="45.77066" lon="6.54603">
        <ele>1850.6</ele>
        <time>2025-08-15T12:11:21Z</time>
      </trkpt>
      <trkpt lat="45.77067" lon="6.54604">
        <ele>1850.4</ele>
        <time>2025-08-15T12:11:22Z</time>
      </trkpt>
      <trkpt lat="45.77068" lon="6.54604">
        <ele>1850.4</ele>
        <time>2025-08-15T12:11:23Z</time>
      </trkpt>
      <trkpt lat="45.77069" lon="6.54604">
        <ele>1850.3</ele>
        <time>2025-08-15T12:11:24Z</time>
      </trkpt>
      <trkpt lat="45.77069" lon="6.54604">
        <ele>1850.2</ele>
        <time>2025-08-15T12:11:25Z</time>
      </trkpt>
      <trkpt lat="45.7707" lon="6.54604">
        <ele>1850.1</ele>
        <time>2025-08-15T12:11:26Z</time>
      </trkpt>
      <trkpt lat="45.7707" lon="6.54604">
        <ele>1850.1</ele>
        <time>2025-08-15T12:11:27Z</time>
      </trkpt>
      <trkpt lat="45.77075" lon="6.54604">
        <ele>1849.6</ele>
        <time>2025-08-15T12:11:28Z</time>
      </trkpt>
      <trkpt lat="45.77079" lon="6.54603">
        <ele>1849.1</ele>
        <time>2025-08-15T12:11:29Z</time>
      </trkpt>
      <trkpt lat="45.77084" lon="6.54604">
        <ele>1848.6</ele>
        <time>2025-08-15T12:11:30Z</time>
      </trkpt>
      <trkpt lat="45.77089" lon="6.54605">
        <ele>1848.1</ele>
        <time>2025-08-15T12:11:31Z</time>
      </trkpt>
      <trkpt lat="45.77095" lon="6.54606">
        <ele>1847.5</ele>
        <time>2025-08-15T12:11:32Z</time>
      </trkpt>
      <trkpt lat="45.77101" lon="6.54607">
        <ele>1847</ele>
        <time>2025-08-15T12:11:33Z</time>
      </trkpt>
      <trkpt lat="45.77107" lon="6.54607">
        <ele>1846.6</ele>
        <time>2025-08-15T12:11:34Z</time>
      </trkpt>
      <trkpt lat="45.77113" lon="6.54606">
        <ele>1846.2</ele>
        <time>2025-08-15T12:11:35Z</time>
      </trkpt>
      <trkpt lat="45.77119" lon="6.54601">
        <ele>1845.9</ele>
        <time>2025-08-15T12:11:36Z</time>
      </trkpt>
      <trkpt lat="45.77122" lon="6.54596">
        <ele>1845.8</ele>
        <time>2025-08-15T12:11:37Z</time>
      </trkpt>
      <trkpt lat="45.77124" lon="6.5459">
        <ele>1845.8</ele>
        <time>2025-08-15T12:11:38Z</time>
      </trkpt>
      <trkpt lat="45.77125" lon="6.54586">
        <ele>1845.7</ele>
        <time>2025-08-15T12:11:39Z</time>
      </trkpt>
      <trkpt lat="45.77124" lon="6.54582">
        <ele>1845.7</ele>
        <time>2025-08-15T12:11:40Z</time>
      </trkpt>
      <trkpt lat="45.77123" lon="6.54581">
        <ele>1845.7</ele>
        <time>2025-08-15T12:11:41Z</time>
      </trkpt>
      <trkpt lat="45.77123" lon="6.54579">
        <ele>1845.7</ele>
        <time>2025-08-15T12:11:42Z</time>
      </trkpt>
      <trkpt lat="45.77123" lon="6.54577">
        <ele>1845.7</ele>
        <time>2025-08-15T12:11:43Z</time>
      </trkpt>
      <trkpt lat="45.77123" lon="6.54576">
        <ele>1845.7</ele>
        <time>2025-08-15T12:11:44Z</time>
      </trkpt>
      <trkpt lat="45.77123" lon="6.54574">
        <ele>1845.6</ele>
        <time>2025-08-15T12:11:45Z</time>
      </trkpt>
      <trkpt lat="45.77124" lon="6.54571">
        <ele>1845.6</ele>
        <time>2025-08-15T12:11:46Z</time>
      </trkpt>
      <trkpt lat="45.77124" lon="6.54568">
        <ele>1845.5</ele>
        <time>2025-08-15T12:11:47Z</time>
      </trkpt>
      <trkpt lat="45.77124" lon="6.54567">
        <ele>1845.5</ele>
        <time>2025-08-15T12:11:48Z</time>
      </trkpt>
      <trkpt lat="45.77124" lon="6.54565">
        <ele>1845.4</ele>
        <time>2025-08-15T12:11:49Z</time>
      </trkpt>
      <trkpt lat="45.77124" lon="6.54565">
        <ele>1845.4</ele>
        <time>2025-08-15T12:11:50Z</time>
      </trkpt>
      <trkpt lat="45.77124" lon="6.54566">
        <ele>1845.4</ele>
        <time>2025-08-15T12:11:51Z</time>
      </trkpt>
      <trkpt lat="45.77124" lon="6.54565">
        <ele>1845.4</ele>
        <time>2025-08-15T12:11:52Z</time>
      </trkpt>
      <trkpt lat="45.77124" lon="6.54565">
        <ele>1845.3</ele>
        <time>2025-08-15T12:11:53Z</time>
      </trkpt>
      <trkpt lat="45.77124" lon="6.54565">
        <ele>1845.3</ele>
        <time>2025-08-15T12:11:54Z</time>
      </trkpt>
      <trkpt lat="45.77124" lon="6.54565">
        <ele>1845.3</ele>
        <time>2025-08-15T12:11:55Z</time>
      </trkpt>
      <trkpt lat="45.77124" lon="6.54565">
        <ele>1845.3</ele>
        <time>2025-08-15T12:11:56Z</time>
      </trkpt>
      <trkpt lat="45.77123" lon="6.54562">
        <ele>1845.2</ele>
        <time>2025-08-15T12:11:57Z</time>
      </trkpt>
      <trkpt lat="45.77122" lon="6.54561">
        <ele>1845.1</ele>
        <time>2025-08-15T12:11:58Z</time>
      </trkpt>
      <trkpt lat="45.77121" lon="6.54559">
        <ele>1845</ele>
        <time>2025-08-15T12:11:59Z</time>
      </trkpt>
      <trkpt lat="45.77122" lon="6.54554">
        <ele>1844.7</ele>
        <time>2025-08-15T12:12:00Z</time>
      </trkpt>
      <trkpt lat="45.77123" lon="6.54552">
        <ele>1844.6</ele>
        <time>2025-08-15T12:12:01Z</time>
      </trkpt>
      <trkpt lat="45.77124" lon="6.54548">
        <ele>1844.3</ele>
        <time>2025-08-15T12:12:02Z</time>
      </trkpt>
      <trkpt lat="45.77125" lon="6.54547">
        <ele>1844.2</ele>
        <time>2025-08-15T12:12:03Z</time>
      </trkpt>
      <trkpt lat="45.77125" lon="6.54545">
        <ele>1844.1</ele>
        <time>2025-08-15T12:12:04Z</time>
      </trkpt>
      <trkpt lat="45.77125" lon="6.54544">
        <ele>1844</ele>
        <time>2025-08-15T12:12:05Z</time>
      </trkpt>
      <trkpt lat="45.77126" lon="6.54542">
        <ele>1843.9</ele>
        <time>2025-08-15T12:12:06Z</time>
      </trkpt>
      <trkpt lat="45.77126" lon="6.54538">
        <ele>1843.6</ele>
        <time>2025-08-15T12:12:07Z</time>
      </trkpt>
      <trkpt lat="45.77126" lon="6.54536">
        <ele>1843.5</ele>
        <time>2025-08-15T12:12:08Z</time>
      </trkpt>
      <trkpt lat="45.77127" lon="6.5453">
        <ele>1843.1</ele>
        <time>2025-08-15T12:12:09Z</time>
      </trkpt>
      <trkpt lat="45.77127" lon="6.54528">
        <ele>1843</ele>
        <time>2025-08-15T12:12:10Z</time>
      </trkpt>
      <trkpt lat="45.77129" lon="6.54525">
        <ele>1842.7</ele>
        <time>2025-08-15T12:12:11Z</time>
      </trkpt>
      <trkpt lat="45.77129" lon="6.54524">
        <ele>1842.6</ele>
        <time>2025-08-15T12:12:12Z</time>
      </trkpt>
      <trkpt lat="45.77129" lon="6.54523">
        <ele>1842.6</ele>
        <time>2025-08-15T12:12:13Z</time>
      </trkpt>
      <trkpt lat="45.77131" lon="6.54521">
        <ele>1842.3</ele>
        <time>2025-08-15T12:12:14Z</time>
      </trkpt>
      <trkpt lat="45.77133" lon="6.54518">
        <ele>1842.1</ele>
        <time>2025-08-15T12:12:15Z</time>
      </trkpt>
      <trkpt lat="45.77134" lon="6.54517">
        <ele>1842</ele>
        <time>2025-08-15T12:12:16Z</time>
      </trkpt>
      <trkpt lat="45.77135" lon="6.54515">
        <ele>1841.7</ele>
        <time>2025-08-15T12:12:17Z</time>
      </trkpt>
      <trkpt lat="45.77138" lon="6.54511">
        <ele>1841.4</ele>
        <time>2025-08-15T12:12:18Z</time>
      </trkpt>
      <trkpt lat="45.77139" lon="6.5451">
        <ele>1841.3</ele>
        <time>2025-08-15T12:12:19Z</time>
      </trkpt>
      <trkpt lat="45.7714" lon="6.54508">
        <ele>1841.1</ele>
        <time>2025-08-15T12:12:20Z</time>
      </trkpt>
      <trkpt lat="45.77141" lon="6.54507">
        <ele>1841</ele>
        <time>2025-08-15T12:12:21Z</time>
      </trkpt>
      <trkpt lat="45.77142" lon="6.54505">
        <ele>1840.8</ele>
        <time>2025-08-15T12:12:22Z</time>
      </trkpt>
      <trkpt lat="45.77141" lon="6.54505">
        <ele>1840.8</ele>
        <time>2025-08-15T12:12:23Z</time>
      </trkpt>
      <trkpt lat="45.77141" lon="6.54505">
        <ele>1840.8</ele>
        <time>2025-08-15T12:12:24Z</time>
      </trkpt>
      <trkpt lat="45.77141" lon="6.54505">
        <ele>1840.8</ele>
        <time>2025-08-15T12:12:25Z</time>
      </trkpt>
      <trkpt lat="45.77141" lon="6.54504">
        <ele>1840.7</ele>
        <time>2025-08-15T12:12:26Z</time>
      </trkpt>
      <trkpt lat="45.77141" lon="6.54504">
        <ele>1840.7</ele>
        <time>2025-08-15T12:12:27Z</time>
      </trkpt>
      <trkpt lat="45.77141" lon="6.54503">
        <ele>1840.7</ele>
        <time>2025-08-15T12:12:28Z</time>
      </trkpt>
      <trkpt lat="45.77141" lon="6.54503">
        <ele>1840.6</ele>
        <time>2025-08-15T12:12:29Z</time>
      </trkpt>
      <trkpt lat="45.77142" lon="6.54503">
        <ele>1840.6</ele>
        <time>2025-08-15T12:12:30Z</time>
      </trkpt>
      <trkpt lat="45.77142" lon="6.54502">
        <ele>1840.5</ele>
        <time>2025-08-15T12:12:31Z</time>
      </trkpt>
      <trkpt lat="45.77142" lon="6.54502">
        <ele>1840.5</ele>
        <time>2025-08-15T12:12:32Z</time>
      </trkpt>
      <trkpt lat="45.77143" lon="6.54501">
        <ele>1840.4</ele>
        <time>2025-08-15T12:12:44Z</time>
      </trkpt>
      <trkpt lat="45.77143" lon="6.54501">
        <ele>1840.4</ele>
        <time>2025-08-15T12:12:45Z</time>
      </trkpt>
      <trkpt lat="45.77143" lon="6.54501">
        <ele>1840.4</ele>
        <time>2025-08-15T12:12:46Z</time>
      </trkpt>
      <trkpt lat="45.77144" lon="6.54501">
        <ele>1840.3</ele>
        <time>2025-08-15T12:12:47Z</time>
      </trkpt>
      <trkpt lat="45.77144" lon="6.54501">
        <ele>1840.3</ele>
        <time>2025-08-15T12:12:48Z</time>
      </trkpt>
      <trkpt lat="45.77144" lon="6.54501">
        <ele>1840.2</ele>
        <time>2025-08-15T12:12:49Z</time>
      </trkpt>
      <trkpt lat="45.77145" lon="6.545">
        <ele>1840.2</ele>
        <time>2025-08-15T12:12:50Z</time>
      </trkpt>
      <trkpt lat="45.77145" lon="6.545">
        <ele>1840.2</ele>
        <time>2025-08-15T12:12:51Z</time>
      </trkpt>
      <trkpt lat="45.77145" lon="6.545">
        <ele>1840.1</ele>
        <time>2025-08-15T12:12:52Z</time>
      </trkpt>
      <trkpt lat="45.77146" lon="6.545">
        <ele>1840.1</ele>
        <time>2025-08-15T12:12:53Z</time>
      </trkpt>
      <trkpt lat="45.77146" lon="6.545">
        <ele>1840.1</ele>
        <time>2025-08-15T12:12:54Z</time>
      </trkpt>
      <trkpt lat="45.77146" lon="6.545">
        <ele>1840</ele>
        <time>2025-08-15T12:13:27Z</time>
      </trkpt>
      <trkpt lat="45.77147" lon="6.54499">
        <ele>1840</ele>
        <time>2025-08-15T12:13:28Z</time>
      </trkpt>
      <trkpt lat="45.77147" lon="6.54499">
        <ele>1839.9</ele>
        <time>2025-08-15T12:13:29Z</time>
      </trkpt>
      <trkpt lat="45.77149" lon="6.54497">
        <ele>1839.7</ele>
        <time>2025-08-15T12:13:30Z</time>
      </trkpt>
      <trkpt lat="45.77149" lon="6.54496">
        <ele>1839.6</ele>
        <time>2025-08-15T12:13:31Z</time>
      </trkpt>
      <trkpt lat="45.77149" lon="6.54495">
        <ele>1839.5</ele>
        <time>2025-08-15T12:13:32Z</time>
      </trkpt>
      <trkpt lat="45.77151" lon="6.54492">
        <ele>1839.2</ele>
        <time>2025-08-15T12:13:33Z</time>
      </trkpt>
      <trkpt lat="45.77151" lon="6.54491">
        <ele>1839</ele>
        <time>2025-08-15T12:13:34Z</time>
      </trkpt>
      <trkpt lat="45.7715" lon="6.54487">
        <ele>1838.6</ele>
        <time>2025-08-15T12:13:35Z</time>
      </trkpt>
      <trkpt lat="45.7715" lon="6.54486">
        <ele>1838.6</ele>
        <time>2025-08-15T12:13:36Z</time>
      </trkpt>
      <trkpt lat="45.7715" lon="6.54485">
        <ele>1838.5</ele>
        <time>2025-08-15T12:13:37Z</time>
      </trkpt>
      <trkpt lat="45.7715" lon="6.54485">
        <ele>1838.5</ele>
        <time>2025-08-15T12:13:38Z</time>
      </trkpt>
      <trkpt lat="45.77149" lon="6.54485">
        <ele>1838.4</ele>
        <time>2025-08-15T12:13:39Z</time>
      </trkpt>
      <trkpt lat="45.77149" lon="6.54485">
        <ele>1838.4</ele>
        <time>2025-08-15T12:13:40Z</time>
      </trkpt>
      <trkpt lat="45.77149" lon="6.54485">
        <ele>1838.3</ele>
        <time>2025-08-15T12:13:41Z</time>
      </trkpt>
      <trkpt lat="45.77149" lon="6.54485">
        <ele>1838.3</ele>
        <time>2025-08-15T12:13:42Z</time>
      </trkpt>
      <trkpt lat="45.77149" lon="6.54485">
        <ele>1838.3</ele>
        <time>2025-08-15T12:13:43Z</time>
      </trkpt>
      <trkpt lat="45.77148" lon="6.54485">
        <ele>1838.3</ele>
        <time>2025-08-15T12:13:44Z</time>
      </trkpt>
      <trkpt lat="45.77148" lon="6.54484">
        <ele>1838.2</ele>
        <time>2025-08-15T12:13:45Z</time>
      </trkpt>
      <trkpt lat="45.77148" lon="6.54484">
        <ele>1838.2</ele>
        <time>2025-08-15T12:13:46Z</time>
      </trkpt>
      <trkpt lat="45.77148" lon="6.54484">
        <ele>1838.1</ele>
        <time>2025-08-15T12:13:47Z</time>
      </trkpt>
      <trkpt lat="45.77147" lon="6.54484">
        <ele>1838.1</ele>
        <time>2025-08-15T12:14:07Z</time>
      </trkpt>
      <trkpt lat="45.77147" lon="6.54484">
        <ele>1838.1</ele>
        <time>2025-08-15T12:14:08Z</time>
      </trkpt>
      <trkpt lat="45.77147" lon="6.54484">
        <ele>1838</ele>
        <time>2025-08-15T12:14:09Z</time>
      </trkpt>
      <trkpt lat="45.77145" lon="6.54482">
        <ele>1837.7</ele>
        <time>2025-08-15T12:14:10Z</time>
      </trkpt>
      <trkpt lat="45.77145" lon="6.5448">
        <ele>1837.5</ele>
        <time>2025-08-15T12:14:11Z</time>
      </trkpt>
      <trkpt lat="45.77144" lon="6.54477">
        <ele>1837.2</ele>
        <time>2025-08-15T12:14:12Z</time>
      </trkpt>
      <trkpt lat="45.77143" lon="6.54476">
        <ele>1837.1</ele>
        <time>2025-08-15T12:14:13Z</time>
      </trkpt>
      <trkpt lat="45.77143" lon="6.54475">
        <ele>1837</ele>
        <time>2025-08-15T12:14:14Z</time>
      </trkpt>
      <trkpt lat="45.77143" lon="6.54475">
        <ele>1836.9</ele>
        <time>2025-08-15T12:14:15Z</time>
      </trkpt>
      <trkpt lat="45.77143" lon="6.54475">
        <ele>1836.9</ele>
        <time>2025-08-15T12:14:16Z</time>
      </trkpt>
      <trkpt lat="45.77143" lon="6.54475">
        <ele>1836.8</ele>
        <time>2025-08-15T12:14:17Z</time>
      </trkpt>
      <trkpt lat="45.77142" lon="6.54475">
        <ele>1836.8</ele>
        <time>2025-08-15T12:14:18Z</time>
      </trkpt>
      <trkpt lat="45.77142" lon="6.54475">
        <ele>1836.8</ele>
        <time>2025-08-15T12:14:19Z</time>
      </trkpt>
      <trkpt lat="45.77142" lon="6.54475">
        <ele>1836.8</ele>
        <time>2025-08-15T12:14:20Z</time>
      </trkpt>
      <trkpt lat="45.77143" lon="6.54475">
        <ele>1836.7</ele>
        <time>2025-08-15T12:14:21Z</time>
      </trkpt>
      <trkpt lat="45.77143" lon="6.54475">
        <ele>1836.7</ele>
        <time>2025-08-15T12:14:22Z</time>
      </trkpt>
      <trkpt lat="45.77143" lon="6.54475">
        <ele>1836.7</ele>
        <time>2025-08-15T12:14:23Z</time>
      </trkpt>
      <trkpt lat="45.77143" lon="6.54475">
        <ele>1836.6</ele>
        <time>2025-08-15T12:14:24Z</time>
      </trkpt>
      <trkpt lat="45.7714" lon="6.5447">
        <ele>1835.6</ele>
        <time>2025-08-15T12:14:38Z</time>
      </trkpt>
      <trkpt lat="45.77139" lon="6.54467">
        <ele>1835.3</ele>
        <time>2025-08-15T12:14:39Z</time>
      </trkpt>
      <trkpt lat="45.77137" lon="6.54464">
        <ele>1834.7</ele>
        <time>2025-08-15T12:14:40Z</time>
      </trkpt>
      <trkpt lat="45.77137" lon="6.54463">
        <ele>1834.5</ele>
        <time>2025-08-15T12:14:41Z</time>
      </trkpt>
      <trkpt lat="45.77136" lon="6.54462">
        <ele>1834.3</ele>
        <time>2025-08-15T12:14:42Z</time>
      </trkpt>
      <trkpt lat="45.77135" lon="6.54461">
        <ele>1834.1</ele>
        <time>2025-08-15T12:14:43Z</time>
      </trkpt>
      <trkpt lat="45.77134" lon="6.54459">
        <ele>1833.7</ele>
        <time>2025-08-15T12:14:44Z</time>
      </trkpt>
      <trkpt lat="45.77133" lon="6.54457">
        <ele>1833.3</ele>
        <time>2025-08-15T12:14:45Z</time>
      </trkpt>
      <trkpt lat="45.77133" lon="6.54455">
        <ele>1832.9</ele>
        <time>2025-08-15T12:14:46Z</time>
      </trkpt>
      <trkpt lat="45.77133" lon="6.54453">
        <ele>1832.5</ele>
        <time>2025-08-15T12:14:47Z</time>
      </trkpt>
      <trkpt lat="45.77133" lon="6.54451">
        <ele>1832</ele>
        <time>2025-08-15T12:14:48Z</time>
      </trkpt>
      <trkpt lat="45.77133" lon="6.54448">
        <ele>1831.5</ele>
        <time>2025-08-15T12:14:49Z</time>
      </trkpt>
      <trkpt lat="45.77132" lon="6.54446">
        <ele>1831.1</ele>
        <time>2025-08-15T12:14:50Z</time>
      </trkpt>
      <trkpt lat="45.77131" lon="6.54444">
        <ele>1830.6</ele>
        <time>2025-08-15T12:14:51Z</time>
      </trkpt>
      <trkpt lat="45.7713" lon="6.54443">
        <ele>1830.2</ele>
        <time>2025-08-15T12:14:52Z</time>
      </trkpt>
      <trkpt lat="45.7713" lon="6.54441">
        <ele>1829.7</ele>
        <time>2025-08-15T12:14:53Z</time>
      </trkpt>
      <trkpt lat="45.7713" lon="6.54439">
        <ele>1829.4</ele>
        <time>2025-08-15T12:14:54Z</time>
      </trkpt>
      <trkpt lat="45.7713" lon="6.54439">
        <ele>1829.2</ele>
        <time>2025-08-15T12:14:55Z</time>
      </trkpt>
      <trkpt lat="45.7713" lon="6.54439">
        <ele>1829.2</ele>
        <time>2025-08-15T12:14:56Z</time>
      </trkpt>
      <trkpt lat="45.7713" lon="6.54438">
        <ele>1829</ele>
        <time>2025-08-15T12:14:57Z</time>
      </trkpt>
      <trkpt lat="45.7713" lon="6.54437">
        <ele>1828.7</ele>
        <time>2025-08-15T12:14:58Z</time>
      </trkpt>
      <trkpt lat="45.77129" lon="6.54436">
        <ele>1828.5</ele>
        <time>2025-08-15T12:14:59Z</time>
      </trkpt>
      <trkpt lat="45.77129" lon="6.54435">
        <ele>1828.2</ele>
        <time>2025-08-15T12:15:00Z</time>
      </trkpt>
      <trkpt lat="45.77129" lon="6.54435">
        <ele>1828</ele>
        <time>2025-08-15T12:15:01Z</time>
      </trkpt>
      <trkpt lat="45.77128" lon="6.54434">
        <ele>1827.7</ele>
        <time>2025-08-15T12:15:02Z</time>
      </trkpt>
      <trkpt lat="45.77128" lon="6.54433">
        <ele>1827.5</ele>
        <time>2025-08-15T12:15:03Z</time>
      </trkpt>
      <trkpt lat="45.77128" lon="6.54432">
        <ele>1827.2</ele>
        <time>2025-08-15T12:15:04Z</time>
      </trkpt>
      <trkpt lat="45.77127" lon="6.54431">
        <ele>1827</ele>
        <time>2025-08-15T12:15:06Z</time>
      </trkpt>
      <trkpt lat="45.77127" lon="6.5443">
        <ele>1826.7</ele>
        <time>2025-08-15T12:15:07Z</time>
      </trkpt>
      <trkpt lat="45.77125" lon="6.54426">
        <ele>1825.7</ele>
        <time>2025-08-15T12:15:08Z</time>
      </trkpt>
      <trkpt lat="45.77124" lon="6.54425">
        <ele>1825.3</ele>
        <time>2025-08-15T12:15:09Z</time>
      </trkpt>
      <trkpt lat="45.77122" lon="6.54424">
        <ele>1824.6</ele>
        <time>2025-08-15T12:15:10Z</time>
      </trkpt>
      <trkpt lat="45.77121" lon="6.54423">
        <ele>1824.2</ele>
        <time>2025-08-15T12:15:11Z</time>
      </trkpt>
      <trkpt lat="45.7712" lon="6.54423">
        <ele>1823.8</ele>
        <time>2025-08-15T12:15:12Z</time>
      </trkpt>
      <trkpt lat="45.77118" lon="6.54421">
        <ele>1823.1</ele>
        <time>2025-08-15T12:15:13Z</time>
      </trkpt>
      <trkpt lat="45.77117" lon="6.5442">
        <ele>1822.8</ele>
        <time>2025-08-15T12:15:14Z</time>
      </trkpt>
      <trkpt lat="45.77117" lon="6.54419">
        <ele>1822.5</ele>
        <time>2025-08-15T12:15:15Z</time>
      </trkpt>
      <trkpt lat="45.77118" lon="6.54413">
        <ele>1821.5</ele>
        <time>2025-08-15T12:15:16Z</time>
      </trkpt>
      <trkpt lat="45.77119" lon="6.54412">
        <ele>1821.2</ele>
        <time>2025-08-15T12:15:17Z</time>
      </trkpt>
      <trkpt lat="45.77119" lon="6.54413">
        <ele>1821</ele>
        <time>2025-08-15T12:15:18Z</time>
      </trkpt>
      <trkpt lat="45.77119" lon="6.54412">
        <ele>1820.9</ele>
        <time>2025-08-15T12:15:19Z</time>
      </trkpt>
      <trkpt lat="45.77119" lon="6.54412">
        <ele>1820.7</ele>
        <time>2025-08-15T12:15:20Z</time>
      </trkpt>
      <trkpt lat="45.77119" lon="6.54412">
        <ele>1820.6</ele>
        <time>2025-08-15T12:15:21Z</time>
      </trkpt>
      <trkpt lat="45.77119" lon="6.54412">
        <ele>1820.6</ele>
        <time>2025-08-15T12:15:22Z</time>
      </trkpt>
      <trkpt lat="45.77119" lon="6.54412">
        <ele>1820.5</ele>
        <time>2025-08-15T12:15:23Z</time>
      </trkpt>
      <trkpt lat="45.77118" lon="6.54413">
        <ele>1820.3</ele>
        <time>2025-08-15T12:15:24Z</time>
      </trkpt>
      <trkpt lat="45.77118" lon="6.54414">
        <ele>1820.1</ele>
        <time>2025-08-15T12:15:25Z</time>
      </trkpt>
      <trkpt lat="45.77118" lon="6.54415">
        <ele>1820</ele>
        <time>2025-08-15T12:15:26Z</time>
      </trkpt>
      <trkpt lat="45.77118" lon="6.54417">
        <ele>1819.7</ele>
        <time>2025-08-15T12:15:27Z</time>
      </trkpt>
      <trkpt lat="45.77118" lon="6.54418">
        <ele>1819.5</ele>
        <time>2025-08-15T12:15:28Z</time>
      </trkpt>
      <trkpt lat="45.77119" lon="6.54419">
        <ele>1819.3</ele>
        <time>2025-08-15T12:15:29Z</time>
      </trkpt>
      <trkpt lat="45.7712" lon="6.5442">
        <ele>1819</ele>
        <time>2025-08-15T12:15:30Z</time>
      </trkpt>
      <trkpt lat="45.77122" lon="6.54423">
        <ele>1818.6</ele>
        <time>2025-08-15T12:15:31Z</time>
      </trkpt>
      <trkpt lat="45.77122" lon="6.54424">
        <ele>1818.5</ele>
        <time>2025-08-15T12:15:32Z</time>
      </trkpt>
      <trkpt lat="45.77123" lon="6.54425">
        <ele>1818.3</ele>
        <time>2025-08-15T12:15:33Z</time>
      </trkpt>
      <trkpt lat="45.77124" lon="6.54426">
        <ele>1818.2</ele>
        <time>2025-08-15T12:15:34Z</time>
      </trkpt>
      <trkpt lat="45.77124" lon="6.54427">
        <ele>1818</ele>
        <time>2025-08-15T12:15:35Z</time>
      </trkpt>
      <trkpt lat="45.77124" lon="6.54428">
        <ele>1818</ele>
        <time>2025-08-15T12:15:36Z</time>
      </trkpt>
      <trkpt lat="45.77124" lon="6.54428">
        <ele>1817.9</ele>
        <time>2025-08-15T12:15:37Z</time>
      </trkpt>
      <trkpt lat="45.77124" lon="6.54428">
        <ele>1817.9</ele>
        <time>2025-08-15T12:15:38Z</time>
      </trkpt>
      <trkpt lat="45.77124" lon="6.54429">
        <ele>1817.9</ele>
        <time>2025-08-15T12:15:39Z</time>
      </trkpt>
      <trkpt lat="45.77123" lon="6.54429">
        <ele>1817.8</ele>
        <time>2025-08-15T12:15:40Z</time>
      </trkpt>
      <trkpt lat="45.77123" lon="6.54429">
        <ele>1817.8</ele>
        <time>2025-08-15T12:15:41Z</time>
      </trkpt>
      <trkpt lat="45.77123" lon="6.54429">
        <ele>1817.8</ele>
        <time>2025-08-15T12:15:42Z</time>
      </trkpt>
      <trkpt lat="45.77123" lon="6.54428">
        <ele>1817.7</ele>
        <time>2025-08-15T12:15:43Z</time>
      </trkpt>
      <trkpt lat="45.77124" lon="6.54427">
        <ele>1817.6</ele>
        <time>2025-08-15T12:15:44Z</time>
      </trkpt>
      <trkpt lat="45.77124" lon="6.54427">
        <ele>1817.6</ele>
        <time>2025-08-15T12:15:45Z</time>
      </trkpt>
      <trkpt lat="45.77123" lon="6.54426">
        <ele>1817.6</ele>
        <time>2025-08-15T12:15:46Z</time>
      </trkpt>
      <trkpt lat="45.77123" lon="6.54427">
        <ele>1817.5</ele>
        <time>2025-08-15T12:15:47Z</time>
      </trkpt>
      <trkpt lat="45.77118" lon="6.54412">
        <ele>1816.1</ele>
        <time>2025-08-15T12:16:29Z</time>
      </trkpt>
      <trkpt lat="45.77118" lon="6.54413">
        <ele>1816</ele>
        <time>2025-08-15T12:16:30Z</time>
      </trkpt>
      <trkpt lat="45.77118" lon="6.54412">
        <ele>1815.9</ele>
        <time>2025-08-15T12:16:31Z</time>
      </trkpt>
      <trkpt lat="45.77118" lon="6.54412">
        <ele>1815.9</ele>
        <time>2025-08-15T12:16:32Z</time>
      </trkpt>
      <trkpt lat="45.77118" lon="6.54412">
        <ele>1815.9</ele>
        <time>2025-08-15T12:16:33Z</time>
      </trkpt>
      <trkpt lat="45.77119" lon="6.5441">
        <ele>1815.6</ele>
        <time>2025-08-15T12:16:34Z</time>
      </trkpt>
      <trkpt lat="45.77119" lon="6.54408">
        <ele>1815.4</ele>
        <time>2025-08-15T12:16:35Z</time>
      </trkpt>
      <trkpt lat="45.77121" lon="6.54405">
        <ele>1815</ele>
        <time>2025-08-15T12:16:36Z</time>
      </trkpt>
      <trkpt lat="45.77124" lon="6.54401">
        <ele>1814.5</ele>
        <time>2025-08-15T12:16:37Z</time>
      </trkpt>
      <trkpt lat="45.77127" lon="6.54396">
        <ele>1813.9</ele>
        <time>2025-08-15T12:16:38Z</time>
      </trkpt>
      <trkpt lat="45.77131" lon="6.5439">
        <ele>1813.1</ele>
        <time>2025-08-15T12:16:39Z</time>
      </trkpt>
      <trkpt lat="45.77136" lon="6.54384">
        <ele>1812.2</ele>
        <time>2025-08-15T12:16:40Z</time>
      </trkpt>
      <trkpt lat="45.77142" lon="6.54377">
        <ele>1811.2</ele>
        <time>2025-08-15T12:16:41Z</time>
      </trkpt>
      <trkpt lat="45.77149" lon="6.5437">
        <ele>1810</ele>
        <time>2025-08-15T12:16:42Z</time>
      </trkpt>
      <trkpt lat="45.77156" lon="6.54362">
        <ele>1808.8</ele>
        <time>2025-08-15T12:16:43Z</time>
      </trkpt>
      <trkpt lat="45.77163" lon="6.54355">
        <ele>1807.7</ele>
        <time>2025-08-15T12:16:44Z</time>
      </trkpt>
      <trkpt lat="45.7717" lon="6.54352">
        <ele>1806.8</ele>
        <time>2025-08-15T12:16:45Z</time>
      </trkpt>
      <trkpt lat="45.77177" lon="6.54349">
        <ele>1805.8</ele>
        <time>2025-08-15T12:16:46Z</time>
      </trkpt>
      <trkpt lat="45.77183" lon="6.54348">
        <ele>1804.9</ele>
        <time>2025-08-15T12:16:47Z</time>
      </trkpt>
      <trkpt lat="45.77189" lon="6.54348">
        <ele>1804.1</ele>
        <time>2025-08-15T12:16:48Z</time>
      </trkpt>
      <trkpt lat="45.77195" lon="6.54349">
        <ele>1803.3</ele>
        <time>2025-08-15T12:16:49Z</time>
      </trkpt>
      <trkpt lat="45.77199" lon="6.54349">
        <ele>1802.7</ele>
        <time>2025-08-15T12:16:50Z</time>
      </trkpt>
      <trkpt lat="45.77204" lon="6.54349">
        <ele>1802.2</ele>
        <time>2025-08-15T12:16:51Z</time>
      </trkpt>
      <trkpt lat="45.77205" lon="6.54349">
        <ele>1802</ele>
        <time>2025-08-15T12:16:52Z</time>
      </trkpt>
      <trkpt lat="45.77208" lon="6.5435">
        <ele>1801.6</ele>
        <time>2025-08-15T12:16:53Z</time>
      </trkpt>
      <trkpt lat="45.77212" lon="6.54349">
        <ele>1801.1</ele>
        <time>2025-08-15T12:16:54Z</time>
      </trkpt>
      <trkpt lat="45.77213" lon="6.54349">
        <ele>1800.9</ele>
        <time>2025-08-15T12:16:55Z</time>
      </trkpt>
      <trkpt lat="45.77217" lon="6.5435">
        <ele>1800.4</ele>
        <time>2025-08-15T12:16:56Z</time>
      </trkpt>
      <trkpt lat="45.7722" lon="6.54349">
        <ele>1800</ele>
        <time>2025-08-15T12:16:57Z</time>
      </trkpt>
      <trkpt lat="45.77224" lon="6.5435">
        <ele>1799.5</ele>
        <time>2025-08-15T12:16:58Z</time>
      </trkpt>
      <trkpt lat="45.77227" lon="6.5435">
        <ele>1798.9</ele>
        <time>2025-08-15T12:16:59Z</time>
      </trkpt>
      <trkpt lat="45.77229" lon="6.5435">
        <ele>1798.7</ele>
        <time>2025-08-15T12:17:00Z</time>
      </trkpt>
      <trkpt lat="45.77233" lon="6.5435">
        <ele>1798.2</ele>
        <time>2025-08-15T12:17:01Z</time>
      </trkpt>
      <trkpt lat="45.77237" lon="6.5435">
        <ele>1797.7</ele>
        <time>2025-08-15T12:17:02Z</time>
      </trkpt>
      <trkpt lat="45.7724" lon="6.54351">
        <ele>1797.3</ele>
        <time>2025-08-15T12:17:03Z</time>
      </trkpt>
      <trkpt lat="45.77244" lon="6.5435">
        <ele>1796.8</ele>
        <time>2025-08-15T12:17:04Z</time>
      </trkpt>
      <trkpt lat="45.77247" lon="6.5435">
        <ele>1796.3</ele>
        <time>2025-08-15T12:17:05Z</time>
      </trkpt>
      <trkpt lat="45.77248" lon="6.5435">
        <ele>1796.2</ele>
        <time>2025-08-15T12:17:06Z</time>
      </trkpt>
      <trkpt lat="45.77251" lon="6.5435">
        <ele>1795.8</ele>
        <time>2025-08-15T12:17:07Z</time>
      </trkpt>
      <trkpt lat="45.77255" lon="6.5435">
        <ele>1795.3</ele>
        <time>2025-08-15T12:17:08Z</time>
      </trkpt>
      <trkpt lat="45.77259" lon="6.54351">
        <ele>1794.8</ele>
        <time>2025-08-15T12:17:09Z</time>
      </trkpt>
      <trkpt lat="45.7726" lon="6.54351">
        <ele>1794.7</ele>
        <time>2025-08-15T12:17:10Z</time>
      </trkpt>
      <trkpt lat="45.77263" lon="6.54352">
        <ele>1794.3</ele>
        <time>2025-08-15T12:17:11Z</time>
      </trkpt>
      <trkpt lat="45.77266" lon="6.54353">
        <ele>1793.9</ele>
        <time>2025-08-15T12:17:12Z</time>
      </trkpt>
      <trkpt lat="45.77269" lon="6.54354">
        <ele>1793.5</ele>
        <time>2025-08-15T12:17:13Z</time>
      </trkpt>
      <trkpt lat="45.7727" lon="6.54354">
        <ele>1793.3</ele>
        <time>2025-08-15T12:17:14Z</time>
      </trkpt>
      <trkpt lat="45.77274" lon="6.54354">
        <ele>1792.8</ele>
        <time>2025-08-15T12:17:15Z</time>
      </trkpt>
      <trkpt lat="45.77277" lon="6.54353">
        <ele>1792.4</ele>
        <time>2025-08-15T12:17:16Z</time>
      </trkpt>
      <trkpt lat="45.77282" lon="6.54354">
        <ele>1791.8</ele>
        <time>2025-08-15T12:17:17Z</time>
      </trkpt>
      <trkpt lat="45.77283" lon="6.54354">
        <ele>1791.6</ele>
        <time>2025-08-15T12:17:18Z</time>
      </trkpt>
      <trkpt lat="45.77287" lon="6.54353">
        <ele>1791.1</ele>
        <time>2025-08-15T12:17:19Z</time>
      </trkpt>
      <trkpt lat="45.77288" lon="6.54353">
        <ele>1790.9</ele>
        <time>2025-08-15T12:17:20Z</time>
      </trkpt>
      <trkpt lat="45.77291" lon="6.54352">
        <ele>1790.6</ele>
        <time>2025-08-15T12:17:21Z</time>
      </trkpt>
      <trkpt lat="45.77294" lon="6.54352">
        <ele>1790.2</ele>
        <time>2025-08-15T12:17:22Z</time>
      </trkpt>
      <trkpt lat="45.77295" lon="6.54352">
        <ele>1790</ele>
        <time>2025-08-15T12:17:23Z</time>
      </trkpt>
      <trkpt lat="45.77298" lon="6.5435">
        <ele>1789.6</ele>
        <time>2025-08-15T12:17:24Z</time>
      </trkpt>
      <trkpt lat="45.77301" lon="6.54349">
        <ele>1789.2</ele>
        <time>2025-08-15T12:17:25Z</time>
      </trkpt>
      <trkpt lat="45.77302" lon="6.54349">
        <ele>1789</ele>
        <time>2025-08-15T12:17:26Z</time>
      </trkpt>
      <trkpt lat="45.77305" lon="6.54348">
        <ele>1788.7</ele>
        <time>2025-08-15T12:17:27Z</time>
      </trkpt>
      <trkpt lat="45.77306" lon="6.54349">
        <ele>1788.6</ele>
        <time>2025-08-15T12:17:28Z</time>
      </trkpt>
      <trkpt lat="45.7731" lon="6.54349">
        <ele>1788</ele>
        <time>2025-08-15T12:17:29Z</time>
      </trkpt>
      <trkpt lat="45.77311" lon="6.54348">
        <ele>1787.8</ele>
        <time>2025-08-15T12:17:30Z</time>
      </trkpt>
      <trkpt lat="45.77315" lon="6.54347">
        <ele>1787.4</ele>
        <time>2025-08-15T12:17:31Z</time>
      </trkpt>
      <trkpt lat="45.77316" lon="6.54347">
        <ele>1787.2</ele>
        <time>2025-08-15T12:17:32Z</time>
      </trkpt>
      <trkpt lat="45.77319" lon="6.54346">
        <ele>1786.7</ele>
        <time>2025-08-15T12:17:33Z</time>
      </trkpt>
      <trkpt lat="45.77321" lon="6.54346">
        <ele>1786.5</ele>
        <time>2025-08-15T12:17:34Z</time>
      </trkpt>
      <trkpt lat="45.77325" lon="6.54345">
        <ele>1786</ele>
        <time>2025-08-15T12:17:35Z</time>
      </trkpt>
      <trkpt lat="45.77326" lon="6.54345">
        <ele>1785.8</ele>
        <time>2025-08-15T12:17:36Z</time>
      </trkpt>
      <trkpt lat="45.77329" lon="6.54344">
        <ele>1785.3</ele>
        <time>2025-08-15T12:17:37Z</time>
      </trkpt>
      <trkpt lat="45.77331" lon="6.54344">
        <ele>1785.1</ele>
        <time>2025-08-15T12:17:38Z</time>
      </trkpt>
      <trkpt lat="45.77334" lon="6.54342">
        <ele>1784.7</ele>
        <time>2025-08-15T12:17:39Z</time>
      </trkpt>
      <trkpt lat="45.77336" lon="6.54341">
        <ele>1784.3</ele>
        <time>2025-08-15T12:17:40Z</time>
      </trkpt>
      <trkpt lat="45.77339" lon="6.54339">
        <ele>1783.9</ele>
        <time>2025-08-15T12:17:41Z</time>
      </trkpt>
      <trkpt lat="45.7734" lon="6.54338">
        <ele>1783.7</ele>
        <time>2025-08-15T12:17:42Z</time>
      </trkpt>
      <trkpt lat="45.77342" lon="6.54335">
        <ele>1783.3</ele>
        <time>2025-08-15T12:17:43Z</time>
      </trkpt>
      <trkpt lat="45.77343" lon="6.54335">
        <ele>1783.1</ele>
        <time>2025-08-15T12:17:44Z</time>
      </trkpt>
      <trkpt lat="45.77347" lon="6.54333">
        <ele>1782.6</ele>
        <time>2025-08-15T12:17:45Z</time>
      </trkpt>
      <trkpt lat="45.77348" lon="6.54332">
        <ele>1782.4</ele>
        <time>2025-08-15T12:17:46Z</time>
      </trkpt>
      <trkpt lat="45.77352" lon="6.5433">
        <ele>1781.8</ele>
        <time>2025-08-15T12:17:47Z</time>
      </trkpt>
      <trkpt lat="45.77353" lon="6.54329">
        <ele>1781.6</ele>
        <time>2025-08-15T12:17:48Z</time>
      </trkpt>
      <trkpt lat="45.77356" lon="6.54326">
        <ele>1781.2</ele>
        <time>2025-08-15T12:17:49Z</time>
      </trkpt>
      <trkpt lat="45.77359" lon="6.54324">
        <ele>1780.6</ele>
        <time>2025-08-15T12:17:50Z</time>
      </trkpt>
      <trkpt lat="45.7736" lon="6.54323">
        <ele>1780.4</ele>
        <time>2025-08-15T12:17:51Z</time>
      </trkpt>
      <trkpt lat="45.77364" lon="6.5432">
        <ele>1779.8</ele>
        <time>2025-08-15T12:17:52Z</time>
      </trkpt>
      <trkpt lat="45.77365" lon="6.54319">
        <ele>1779.6</ele>
        <time>2025-08-15T12:17:53Z</time>
      </trkpt>
      <trkpt lat="45.77369" lon="6.54316">
        <ele>1778.8</ele>
        <time>2025-08-15T12:17:54Z</time>
      </trkpt>
      <trkpt lat="45.77372" lon="6.54312">
        <ele>1778.3</ele>
        <time>2025-08-15T12:17:55Z</time>
      </trkpt>
      <trkpt lat="45.77374" lon="6.54309">
        <ele>1777.9</ele>
        <time>2025-08-15T12:17:56Z</time>
      </trkpt>
      <trkpt lat="45.77377" lon="6.54306">
        <ele>1777.3</ele>
        <time>2025-08-15T12:17:57Z</time>
      </trkpt>
      <trkpt lat="45.77378" lon="6.54304">
        <ele>1777</ele>
        <time>2025-08-15T12:17:58Z</time>
      </trkpt>
      <trkpt lat="45.77381" lon="6.543">
        <ele>1776.3</ele>
        <time>2025-08-15T12:17:59Z</time>
      </trkpt>
      <trkpt lat="45.77384" lon="6.54297">
        <ele>1775.8</ele>
        <time>2025-08-15T12:18:00Z</time>
      </trkpt>
      <trkpt lat="45.77387" lon="6.54296">
        <ele>1775.3</ele>
        <time>2025-08-15T12:18:01Z</time>
      </trkpt>
      <trkpt lat="45.77388" lon="6.54295">
        <ele>1775.1</ele>
        <time>2025-08-15T12:18:02Z</time>
      </trkpt>
      <trkpt lat="45.77391" lon="6.54291">
        <ele>1774.6</ele>
        <time>2025-08-15T12:18:03Z</time>
      </trkpt>
      <trkpt lat="45.77391" lon="6.5429">
        <ele>1774.4</ele>
        <time>2025-08-15T12:18:04Z</time>
      </trkpt>
      <trkpt lat="45.77394" lon="6.54286">
        <ele>1773.8</ele>
        <time>2025-08-15T12:18:05Z</time>
      </trkpt>
      <trkpt lat="45.77395" lon="6.54285">
        <ele>1773.6</ele>
        <time>2025-08-15T12:18:06Z</time>
      </trkpt>
      <trkpt lat="45.77398" lon="6.54282">
        <ele>1773.1</ele>
        <time>2025-08-15T12:18:07Z</time>
      </trkpt>
      <trkpt lat="45.77398" lon="6.54281">
        <ele>1772.9</ele>
        <time>2025-08-15T12:18:08Z</time>
      </trkpt>
      <trkpt lat="45.774" lon="6.54279">
        <ele>1772.7</ele>
        <time>2025-08-15T12:18:09Z</time>
      </trkpt>
      <trkpt lat="45.77401" lon="6.54278">
        <ele>1772.5</ele>
        <time>2025-08-15T12:18:10Z</time>
      </trkpt>
      <trkpt lat="45.77402" lon="6.54276">
        <ele>1772.2</ele>
        <time>2025-08-15T12:18:11Z</time>
      </trkpt>
      <trkpt lat="45.77403" lon="6.54275">
        <ele>1772</ele>
        <time>2025-08-15T12:18:12Z</time>
      </trkpt>
      <trkpt lat="45.77404" lon="6.54274">
        <ele>1771.8</ele>
        <time>2025-08-15T12:18:13Z</time>
      </trkpt>
      <trkpt lat="45.77407" lon="6.54272">
        <ele>1771.3</ele>
        <time>2025-08-15T12:18:14Z</time>
      </trkpt>
      <trkpt lat="45.77408" lon="6.54271">
        <ele>1771.2</ele>
        <time>2025-08-15T12:18:15Z</time>
      </trkpt>
      <trkpt lat="45.77411" lon="6.54269">
        <ele>1770.7</ele>
        <time>2025-08-15T12:18:16Z</time>
      </trkpt>
      <trkpt lat="45.77412" lon="6.54268">
        <ele>1770.5</ele>
        <time>2025-08-15T12:18:17Z</time>
      </trkpt>
      <trkpt lat="45.77414" lon="6.54264">
        <ele>1769.9</ele>
        <time>2025-08-15T12:18:18Z</time>
      </trkpt>
      <trkpt lat="45.77415" lon="6.54263">
        <ele>1769.8</ele>
        <time>2025-08-15T12:18:19Z</time>
      </trkpt>
      <trkpt lat="45.77417" lon="6.5426">
        <ele>1769.3</ele>
        <time>2025-08-15T12:18:20Z</time>
      </trkpt>
      <trkpt lat="45.77418" lon="6.54258">
        <ele>1769</ele>
        <time>2025-08-15T12:18:21Z</time>
      </trkpt>
      <trkpt lat="45.77421" lon="6.54255">
        <ele>1768.5</ele>
        <time>2025-08-15T12:18:22Z</time>
      </trkpt>
      <trkpt lat="45.77423" lon="6.54252">
        <ele>1768.1</ele>
        <time>2025-08-15T12:18:23Z</time>
      </trkpt>
      <trkpt lat="45.77424" lon="6.5425">
        <ele>1767.9</ele>
        <time>2025-08-15T12:18:24Z</time>
      </trkpt>
      <trkpt lat="45.77425" lon="6.54246">
        <ele>1767.4</ele>
        <time>2025-08-15T12:18:25Z</time>
      </trkpt>
      <trkpt lat="45.77429" lon="6.54243">
        <ele>1766.8</ele>
        <time>2025-08-15T12:18:26Z</time>
      </trkpt>
      <trkpt lat="45.77432" lon="6.5424">
        <ele>1766.3</ele>
        <time>2025-08-15T12:18:27Z</time>
      </trkpt>
      <trkpt lat="45.77434" lon="6.54238">
        <ele>1765.8</ele>
        <time>2025-08-15T12:18:28Z</time>
      </trkpt>
      <trkpt lat="45.77436" lon="6.54234">
        <ele>1765.4</ele>
        <time>2025-08-15T12:18:29Z</time>
      </trkpt>
      <trkpt lat="45.77439" lon="6.5423">
        <ele>1764.8</ele>
        <time>2025-08-15T12:18:30Z</time>
      </trkpt>
      <trkpt lat="45.77441" lon="6.54229">
        <ele>1764.5</ele>
        <time>2025-08-15T12:18:31Z</time>
      </trkpt>
      <trkpt lat="45.77443" lon="6.54227">
        <ele>1764.1</ele>
        <time>2025-08-15T12:18:32Z</time>
      </trkpt>
      <trkpt lat="45.77444" lon="6.54226">
        <ele>1763.9</ele>
        <time>2025-08-15T12:18:33Z</time>
      </trkpt>
      <trkpt lat="45.77447" lon="6.54224">
        <ele>1763.5</ele>
        <time>2025-08-15T12:18:34Z</time>
      </trkpt>
      <trkpt lat="45.77451" lon="6.54222">
        <ele>1762.9</ele>
        <time>2025-08-15T12:18:35Z</time>
      </trkpt>
      <trkpt lat="45.77452" lon="6.54219">
        <ele>1762.5</ele>
        <time>2025-08-15T12:18:36Z</time>
      </trkpt>
      <trkpt lat="45.77453" lon="6.54218">
        <ele>1762.3</ele>
        <time>2025-08-15T12:18:37Z</time>
      </trkpt>
      <trkpt lat="45.77455" lon="6.54215">
        <ele>1761.9</ele>
        <time>2025-08-15T12:18:38Z</time>
      </trkpt>
      <trkpt lat="45.77456" lon="6.54214">
        <ele>1761.7</ele>
        <time>2025-08-15T12:18:39Z</time>
      </trkpt>
      <trkpt lat="45.77459" lon="6.54212">
        <ele>1761.3</ele>
        <time>2025-08-15T12:18:40Z</time>
      </trkpt>
      <trkpt lat="45.77461" lon="6.5421">
        <ele>1760.9</ele>
        <time>2025-08-15T12:18:41Z</time>
      </trkpt>
      <trkpt lat="45.77464" lon="6.54207">
        <ele>1760.4</ele>
        <time>2025-08-15T12:18:42Z</time>
      </trkpt>
      <trkpt lat="45.77466" lon="6.54204">
        <ele>1760</ele>
        <time>2025-08-15T12:18:43Z</time>
      </trkpt>
      <trkpt lat="45.77469" lon="6.54202">
        <ele>1759.4</ele>
        <time>2025-08-15T12:18:44Z</time>
      </trkpt>
      <trkpt lat="45.77471" lon="6.54199">
        <ele>1758.9</ele>
        <time>2025-08-15T12:18:45Z</time>
      </trkpt>
      <trkpt lat="45.77474" lon="6.54196">
        <ele>1758.5</ele>
        <time>2025-08-15T12:18:46Z</time>
      </trkpt>
      <trkpt lat="45.77476" lon="6.54193">
        <ele>1758</ele>
        <time>2025-08-15T12:18:47Z</time>
      </trkpt>
      <trkpt lat="45.77477" lon="6.54191">
        <ele>1757.8</ele>
        <time>2025-08-15T12:18:48Z</time>
      </trkpt>
      <trkpt lat="45.77479" lon="6.54188">
        <ele>1757.3</ele>
        <time>2025-08-15T12:18:49Z</time>
      </trkpt>
      <trkpt lat="45.77482" lon="6.54185">
        <ele>1756.8</ele>
        <time>2025-08-15T12:18:50Z</time>
      </trkpt>
      <trkpt lat="45.77483" lon="6.54183">
        <ele>1756.6</ele>
        <time>2025-08-15T12:18:51Z</time>
      </trkpt>
      <trkpt lat="45.77486" lon="6.5418">
        <ele>1756.1</ele>
        <time>2025-08-15T12:18:52Z</time>
      </trkpt>
      <trkpt lat="45.77488" lon="6.54176">
        <ele>1755.6</ele>
        <time>2025-08-15T12:18:53Z</time>
      </trkpt>
      <trkpt lat="45.7749" lon="6.54173">
        <ele>1755.2</ele>
        <time>2025-08-15T12:18:54Z</time>
      </trkpt>
      <trkpt lat="45.77493" lon="6.5417">
        <ele>1754.7</ele>
        <time>2025-08-15T12:18:55Z</time>
      </trkpt>
      <trkpt lat="45.77494" lon="6.54166">
        <ele>1754.3</ele>
        <time>2025-08-15T12:18:56Z</time>
      </trkpt>
      <trkpt lat="45.77497" lon="6.54164">
        <ele>1753.9</ele>
        <time>2025-08-15T12:18:57Z</time>
      </trkpt>
      <trkpt lat="45.77499" lon="6.54159">
        <ele>1753.4</ele>
        <time>2025-08-15T12:18:58Z</time>
      </trkpt>
      <trkpt lat="45.77499" lon="6.54158">
        <ele>1753.3</ele>
        <time>2025-08-15T12:18:59Z</time>
      </trkpt>
      <trkpt lat="45.77502" lon="6.54154">
        <ele>1752.8</ele>
        <time>2025-08-15T12:19:00Z</time>
      </trkpt>
      <trkpt lat="45.77504" lon="6.54151">
        <ele>1752.3</ele>
        <time>2025-08-15T12:19:01Z</time>
      </trkpt>
      <trkpt lat="45.77506" lon="6.54148">
        <ele>1751.9</ele>
        <time>2025-08-15T12:19:02Z</time>
      </trkpt>
      <trkpt lat="45.77509" lon="6.54144">
        <ele>1751.4</ele>
        <time>2025-08-15T12:19:03Z</time>
      </trkpt>
      <trkpt lat="45.7751" lon="6.54142">
        <ele>1751.1</ele>
        <time>2025-08-15T12:19:04Z</time>
      </trkpt>
      <trkpt lat="45.77512" lon="6.54139">
        <ele>1750.7</ele>
        <time>2025-08-15T12:19:05Z</time>
      </trkpt>
      <trkpt lat="45.77514" lon="6.54134">
        <ele>1750.1</ele>
        <time>2025-08-15T12:19:06Z</time>
      </trkpt>
      <trkpt lat="45.77515" lon="6.54133">
        <ele>1749.9</ele>
        <time>2025-08-15T12:19:07Z</time>
      </trkpt>
      <trkpt lat="45.77517" lon="6.5413">
        <ele>1749.5</ele>
        <time>2025-08-15T12:19:08Z</time>
      </trkpt>
      <trkpt lat="45.77519" lon="6.54127">
        <ele>1749.1</ele>
        <time>2025-08-15T12:19:09Z</time>
      </trkpt>
      <trkpt lat="45.77521" lon="6.54123">
        <ele>1748.6</ele>
        <time>2025-08-15T12:19:10Z</time>
      </trkpt>
      <trkpt lat="45.77521" lon="6.54122">
        <ele>1748.5</ele>
        <time>2025-08-15T12:19:11Z</time>
      </trkpt>
      <trkpt lat="45.77523" lon="6.54118">
        <ele>1747.9</ele>
        <time>2025-08-15T12:19:12Z</time>
      </trkpt>
      <trkpt lat="45.77525" lon="6.54114">
        <ele>1747.4</ele>
        <time>2025-08-15T12:19:13Z</time>
      </trkpt>
      <trkpt lat="45.77525" lon="6.5411">
        <ele>1747</ele>
        <time>2025-08-15T12:19:14Z</time>
      </trkpt>
      <trkpt lat="45.77525" lon="6.54106">
        <ele>1746.6</ele>
        <time>2025-08-15T12:19:15Z</time>
      </trkpt>
      <trkpt lat="45.77526" lon="6.54102">
        <ele>1746.2</ele>
        <time>2025-08-15T12:19:16Z</time>
      </trkpt>
      <trkpt lat="45.77527" lon="6.54097">
        <ele>1745.7</ele>
        <time>2025-08-15T12:19:17Z</time>
      </trkpt>
      <trkpt lat="45.77527" lon="6.54095">
        <ele>1745.6</ele>
        <time>2025-08-15T12:19:18Z</time>
      </trkpt>
      <trkpt lat="45.77527" lon="6.54092">
        <ele>1745.3</ele>
        <time>2025-08-15T12:19:19Z</time>
      </trkpt>
      <trkpt lat="45.77527" lon="6.54091">
        <ele>1745.2</ele>
        <time>2025-08-15T12:19:20Z</time>
      </trkpt>
      <trkpt lat="45.77527" lon="6.54089">
        <ele>1744.9</ele>
        <time>2025-08-15T12:19:21Z</time>
      </trkpt>
      <trkpt lat="45.77527" lon="6.54088">
        <ele>1744.9</ele>
        <time>2025-08-15T12:19:22Z</time>
      </trkpt>
      <trkpt lat="45.77527" lon="6.54087">
        <ele>1744.8</ele>
        <time>2025-08-15T12:19:23Z</time>
      </trkpt>
      <trkpt lat="45.77527" lon="6.54086">
        <ele>1744.7</ele>
        <time>2025-08-15T12:19:24Z</time>
      </trkpt>
      <trkpt lat="45.77527" lon="6.54085">
        <ele>1744.6</ele>
        <time>2025-08-15T12:19:25Z</time>
      </trkpt>
      <trkpt lat="45.77527" lon="6.54084">
        <ele>1744.5</ele>
        <time>2025-08-15T12:19:26Z</time>
      </trkpt>
      <trkpt lat="45.77527" lon="6.54083">
        <ele>1744.4</ele>
        <time>2025-08-15T12:19:27Z</time>
      </trkpt>
      <trkpt lat="45.77527" lon="6.54082">
        <ele>1744.3</ele>
        <time>2025-08-15T12:19:28Z</time>
      </trkpt>
      <trkpt lat="45.77527" lon="6.54081">
        <ele>1744.3</ele>
        <time>2025-08-15T12:19:29Z</time>
      </trkpt>
      <trkpt lat="45.77527" lon="6.5408">
        <ele>1744.2</ele>
        <time>2025-08-15T12:19:30Z</time>
      </trkpt>
      <trkpt lat="45.77527" lon="6.54079">
        <ele>1744.1</ele>
        <time>2025-08-15T12:19:31Z</time>
      </trkpt>
      <trkpt lat="45.77527" lon="6.54078">
        <ele>1744</ele>
        <time>2025-08-15T12:19:54Z</time>
      </trkpt>
      <trkpt lat="45.77527" lon="6.54077">
        <ele>1743.9</ele>
        <time>2025-08-15T12:19:55Z</time>
      </trkpt>
      <trkpt lat="45.77527" lon="6.54077">
        <ele>1743.8</ele>
        <time>2025-08-15T12:19:56Z</time>
      </trkpt>
      <trkpt lat="45.77529" lon="6.54073">
        <ele>1743.5</ele>
        <time>2025-08-15T12:19:57Z</time>
      </trkpt>
      <trkpt lat="45.7753" lon="6.54072">
        <ele>1743.3</ele>
        <time>2025-08-15T12:19:58Z</time>
      </trkpt>
      <trkpt lat="45.77531" lon="6.54068">
        <ele>1742.9</ele>
        <time>2025-08-15T12:19:59Z</time>
      </trkpt>
      <trkpt lat="45.77531" lon="6.54067">
        <ele>1742.7</ele>
        <time>2025-08-15T12:20:00Z</time>
      </trkpt>
      <trkpt lat="45.77534" lon="6.54063">
        <ele>1742.2</ele>
        <time>2025-08-15T12:20:01Z</time>
      </trkpt>
      <trkpt lat="45.77535" lon="6.54062">
        <ele>1742</ele>
        <time>2025-08-15T12:20:02Z</time>
      </trkpt>
      <trkpt lat="45.77537" lon="6.54058">
        <ele>1741.5</ele>
        <time>2025-08-15T12:20:03Z</time>
      </trkpt>
      <trkpt lat="45.77539" lon="6.54055">
        <ele>1741</ele>
        <time>2025-08-15T12:20:04Z</time>
      </trkpt>
      <trkpt lat="45.77541" lon="6.54052">
        <ele>1740.6</ele>
        <time>2025-08-15T12:20:05Z</time>
      </trkpt>
      <trkpt lat="45.77543" lon="6.54049">
        <ele>1740.1</ele>
        <time>2025-08-15T12:20:06Z</time>
      </trkpt>
      <trkpt lat="45.77544" lon="6.54045">
        <ele>1739.7</ele>
        <time>2025-08-15T12:20:07Z</time>
      </trkpt>
      <trkpt lat="45.77546" lon="6.54041">
        <ele>1739.1</ele>
        <time>2025-08-15T12:20:08Z</time>
      </trkpt>
      <trkpt lat="45.77547" lon="6.5404">
        <ele>1739</ele>
        <time>2025-08-15T12:20:09Z</time>
      </trkpt>
      <trkpt lat="45.7755" lon="6.54037">
        <ele>1738.5</ele>
        <time>2025-08-15T12:20:10Z</time>
      </trkpt>
      <trkpt lat="45.7755" lon="6.54036">
        <ele>1738.4</ele>
        <time>2025-08-15T12:20:11Z</time>
      </trkpt>
      <trkpt lat="45.77552" lon="6.54034">
        <ele>1738.2</ele>
        <time>2025-08-15T12:20:12Z</time>
      </trkpt>
      <trkpt lat="45.77553" lon="6.54033">
        <ele>1737.9</ele>
        <time>2025-08-15T12:20:13Z</time>
      </trkpt>
      <trkpt lat="45.77554" lon="6.54032">
        <ele>1737.7</ele>
        <time>2025-08-15T12:20:14Z</time>
      </trkpt>
      <trkpt lat="45.77555" lon="6.54031">
        <ele>1737.5</ele>
        <time>2025-08-15T12:20:15Z</time>
      </trkpt>
      <trkpt lat="45.77556" lon="6.54029">
        <ele>1737.3</ele>
        <time>2025-08-15T12:20:16Z</time>
      </trkpt>
      <trkpt lat="45.77557" lon="6.54028">
        <ele>1737.1</ele>
        <time>2025-08-15T12:20:17Z</time>
      </trkpt>
      <trkpt lat="45.77558" lon="6.54027">
        <ele>1737</ele>
        <time>2025-08-15T12:20:18Z</time>
      </trkpt>
      <trkpt lat="45.77558" lon="6.54027">
        <ele>1737</ele>
        <time>2025-08-15T12:20:19Z</time>
      </trkpt>
      <trkpt lat="45.77558" lon="6.54027">
        <ele>1736.9</ele>
        <time>2025-08-15T12:20:20Z</time>
      </trkpt>
      <trkpt lat="45.77558" lon="6.54027">
        <ele>1736.9</ele>
        <time>2025-08-15T12:20:21Z</time>
      </trkpt>
      <trkpt lat="45.77558" lon="6.54026">
        <ele>1736.9</ele>
        <time>2025-08-15T12:20:22Z</time>
      </trkpt>
      <trkpt lat="45.77557" lon="6.54026">
        <ele>1736.8</ele>
        <time>2025-08-15T12:20:23Z</time>
      </trkpt>
      <trkpt lat="45.77557" lon="6.54026">
        <ele>1736.8</ele>
        <time>2025-08-15T12:20:24Z</time>
      </trkpt>
      <trkpt lat="45.77557" lon="6.54026">
        <ele>1736.8</ele>
        <time>2025-08-15T12:20:25Z</time>
      </trkpt>
      <trkpt lat="45.77557" lon="6.54026">
        <ele>1736.8</ele>
        <time>2025-08-15T12:20:26Z</time>
      </trkpt>
      <trkpt lat="45.77557" lon="6.54026">
        <ele>1736.8</ele>
        <time>2025-08-15T12:20:27Z</time>
      </trkpt>
      <trkpt lat="45.77557" lon="6.54026">
        <ele>1736.8</ele>
        <time>2025-08-15T12:20:28Z</time>
      </trkpt>
      <trkpt lat="45.77557" lon="6.54026">
        <ele>1736.8</ele>
        <time>2025-08-15T12:20:29Z</time>
      </trkpt>
      <trkpt lat="45.77565" lon="6.54023">
        <ele>1735.5</ele>
        <time>2025-08-15T12:20:53Z</time>
      </trkpt>
      <trkpt lat="45.77568" lon="6.54023">
        <ele>1735.1</ele>
        <time>2025-08-15T12:20:54Z</time>
      </trkpt>
      <trkpt lat="45.77572" lon="6.54025">
        <ele>1734.5</ele>
        <time>2025-08-15T12:20:55Z</time>
      </trkpt>
      <trkpt lat="45.77572" lon="6.54025">
        <ele>1734.4</ele>
        <time>2025-08-15T12:20:56Z</time>
      </trkpt>
      <trkpt lat="45.77576" lon="6.54025">
        <ele>1733.8</ele>
        <time>2025-08-15T12:20:57Z</time>
      </trkpt>
      <trkpt lat="45.77577" lon="6.54025">
        <ele>1733.6</ele>
        <time>2025-08-15T12:20:58Z</time>
      </trkpt>
      <trkpt lat="45.77581" lon="6.54026">
        <ele>1733</ele>
        <time>2025-08-15T12:20:59Z</time>
      </trkpt>
      <trkpt lat="45.77585" lon="6.54025">
        <ele>1732.5</ele>
        <time>2025-08-15T12:21:00Z</time>
      </trkpt>
      <trkpt lat="45.77588" lon="6.54026">
        <ele>1732</ele>
        <time>2025-08-15T12:21:01Z</time>
      </trkpt>
      <trkpt lat="45.77591" lon="6.54025">
        <ele>1731.5</ele>
        <time>2025-08-15T12:21:02Z</time>
      </trkpt>
      <trkpt lat="45.77592" lon="6.54025">
        <ele>1731.3</ele>
        <time>2025-08-15T12:21:03Z</time>
      </trkpt>
      <trkpt lat="45.77596" lon="6.54025">
        <ele>1730.8</ele>
        <time>2025-08-15T12:21:04Z</time>
      </trkpt>
      <trkpt lat="45.77597" lon="6.54025">
        <ele>1730.6</ele>
        <time>2025-08-15T12:21:05Z</time>
      </trkpt>
      <trkpt lat="45.776" lon="6.54023">
        <ele>1730.1</ele>
        <time>2025-08-15T12:21:06Z</time>
      </trkpt>
      <trkpt lat="45.77603" lon="6.54022">
        <ele>1729.6</ele>
        <time>2025-08-15T12:21:07Z</time>
      </trkpt>
      <trkpt lat="45.77607" lon="6.54022">
        <ele>1729.1</ele>
        <time>2025-08-15T12:21:08Z</time>
      </trkpt>
      <trkpt lat="45.7761" lon="6.54023">
        <ele>1728.6</ele>
        <time>2025-08-15T12:21:09Z</time>
      </trkpt>
      <trkpt lat="45.77614" lon="6.54023">
        <ele>1728</ele>
        <time>2025-08-15T12:21:10Z</time>
      </trkpt>
      <trkpt lat="45.77616" lon="6.54023">
        <ele>1727.8</ele>
        <time>2025-08-15T12:21:11Z</time>
      </trkpt>
      <trkpt lat="45.77618" lon="6.54023">
        <ele>1727.3</ele>
        <time>2025-08-15T12:21:12Z</time>
      </trkpt>
      <trkpt lat="45.77621" lon="6.54023">
        <ele>1726.8</ele>
        <time>2025-08-15T12:21:13Z</time>
      </trkpt>
      <trkpt lat="45.77625" lon="6.54024">
        <ele>1726.2</ele>
        <time>2025-08-15T12:21:14Z</time>
      </trkpt>
      <trkpt lat="45.77627" lon="6.54024">
        <ele>1726</ele>
        <time>2025-08-15T12:21:15Z</time>
      </trkpt>
      <trkpt lat="45.7763" lon="6.54024">
        <ele>1725.4</ele>
        <time>2025-08-15T12:21:16Z</time>
      </trkpt>
      <trkpt lat="45.77634" lon="6.54025">
        <ele>1724.8</ele>
        <time>2025-08-15T12:21:17Z</time>
      </trkpt>
      <trkpt lat="45.77637" lon="6.54025">
        <ele>1724.3</ele>
        <time>2025-08-15T12:21:18Z</time>
      </trkpt>
      <trkpt lat="45.77641" lon="6.54025">
        <ele>1723.7</ele>
        <time>2025-08-15T12:21:19Z</time>
      </trkpt>
      <trkpt lat="45.77642" lon="6.54025">
        <ele>1723.6</ele>
        <time>2025-08-15T12:21:20Z</time>
      </trkpt>
      <trkpt lat="45.77644" lon="6.54025">
        <ele>1723.1</ele>
        <time>2025-08-15T12:21:21Z</time>
      </trkpt>
      <trkpt lat="45.77648" lon="6.54024">
        <ele>1722.6</ele>
        <time>2025-08-15T12:21:22Z</time>
      </trkpt>
      <trkpt lat="45.77651" lon="6.54023">
        <ele>1722.1</ele>
        <time>2025-08-15T12:21:23Z</time>
      </trkpt>
      <trkpt lat="45.77654" lon="6.54022">
        <ele>1721.7</ele>
        <time>2025-08-15T12:21:24Z</time>
      </trkpt>
      <trkpt lat="45.77657" lon="6.54021">
        <ele>1721.2</ele>
        <time>2025-08-15T12:21:25Z</time>
      </trkpt>
      <trkpt lat="45.7766" lon="6.54021">
        <ele>1720.6</ele>
        <time>2025-08-15T12:21:26Z</time>
      </trkpt>
      <trkpt lat="45.77663" lon="6.5402">
        <ele>1720.1</ele>
        <time>2025-08-15T12:21:27Z</time>
      </trkpt>
      <trkpt lat="45.77667" lon="6.54019">
        <ele>1719.5</ele>
        <time>2025-08-15T12:21:28Z</time>
      </trkpt>
      <trkpt lat="45.77668" lon="6.54019">
        <ele>1719.3</ele>
        <time>2025-08-15T12:21:29Z</time>
      </trkpt>
      <trkpt lat="45.77672" lon="6.54019">
        <ele>1718.8</ele>
        <time>2025-08-15T12:21:30Z</time>
      </trkpt>
      <trkpt lat="45.77673" lon="6.5402">
        <ele>1718.6</ele>
        <time>2025-08-15T12:21:31Z</time>
      </trkpt>
      <trkpt lat="45.77676" lon="6.5402">
        <ele>1718.1</ele>
        <time>2025-08-15T12:21:32Z</time>
      </trkpt>
      <trkpt lat="45.77677" lon="6.5402">
        <ele>1717.9</ele>
        <time>2025-08-15T12:21:33Z</time>
      </trkpt>
      <trkpt lat="45.77681" lon="6.54022">
        <ele>1717.3</ele>
        <time>2025-08-15T12:21:34Z</time>
      </trkpt>
      <trkpt lat="45.77682" lon="6.54022">
        <ele>1717.2</ele>
        <time>2025-08-15T12:21:35Z</time>
      </trkpt>
      <trkpt lat="45.77683" lon="6.54023">
        <ele>1717</ele>
        <time>2025-08-15T12:21:36Z</time>
      </trkpt>
      <trkpt lat="45.77683" lon="6.54023">
        <ele>1717</ele>
        <time>2025-08-15T12:21:37Z</time>
      </trkpt>
      <trkpt lat="45.77684" lon="6.54024">
        <ele>1716.7</ele>
        <time>2025-08-15T12:21:38Z</time>
      </trkpt>
      <trkpt lat="45.77685" lon="6.54024">
        <ele>1716.6</ele>
        <time>2025-08-15T12:21:39Z</time>
      </trkpt>
      <trkpt lat="45.77687" lon="6.54025">
        <ele>1716.2</ele>
        <time>2025-08-15T12:21:40Z</time>
      </trkpt>
      <trkpt lat="45.7769" lon="6.54026">
        <ele>1715.7</ele>
        <time>2025-08-15T12:21:41Z</time>
      </trkpt>
      <trkpt lat="45.77692" lon="6.54026">
        <ele>1715.5</ele>
        <time>2025-08-15T12:21:42Z</time>
      </trkpt>
      <trkpt lat="45.77694" lon="6.54027">
        <ele>1715.1</ele>
        <time>2025-08-15T12:21:43Z</time>
      </trkpt>
      <trkpt lat="45.77697" lon="6.54029">
        <ele>1714.6</ele>
        <time>2025-08-15T12:21:44Z</time>
      </trkpt>
      <trkpt lat="45.77698" lon="6.54029">
        <ele>1714.4</ele>
        <time>2025-08-15T12:21:45Z</time>
      </trkpt>
      <trkpt lat="45.77699" lon="6.5403">
        <ele>1714.2</ele>
        <time>2025-08-15T12:21:46Z</time>
      </trkpt>
      <trkpt lat="45.777" lon="6.54031">
        <ele>1713.9</ele>
        <time>2025-08-15T12:21:47Z</time>
      </trkpt>
      <trkpt lat="45.77704" lon="6.54034">
        <ele>1713.2</ele>
        <time>2025-08-15T12:21:48Z</time>
      </trkpt>
      <trkpt lat="45.77705" lon="6.54035">
        <ele>1713</ele>
        <time>2025-08-15T12:21:49Z</time>
      </trkpt>
      <trkpt lat="45.77707" lon="6.54037">
        <ele>1712.5</ele>
        <time>2025-08-15T12:21:50Z</time>
      </trkpt>
      <trkpt lat="45.77708" lon="6.54038">
        <ele>1712.3</ele>
        <time>2025-08-15T12:21:51Z</time>
      </trkpt>
      <trkpt lat="45.77711" lon="6.54041">
        <ele>1711.7</ele>
        <time>2025-08-15T12:21:52Z</time>
      </trkpt>
      <trkpt lat="45.77711" lon="6.54042">
        <ele>1711.5</ele>
        <time>2025-08-15T12:21:53Z</time>
      </trkpt>
      <trkpt lat="45.77712" lon="6.54045">
        <ele>1711.2</ele>
        <time>2025-08-15T12:21:54Z</time>
      </trkpt>
      <trkpt lat="45.77715" lon="6.54048">
        <ele>1710.6</ele>
        <time>2025-08-15T12:21:56Z</time>
      </trkpt>
      <trkpt lat="45.77716" lon="6.54051">
        <ele>1710.2</ele>
        <time>2025-08-15T12:21:57Z</time>
      </trkpt>
      <trkpt lat="45.77717" lon="6.54052">
        <ele>1709.9</ele>
        <time>2025-08-15T12:21:58Z</time>
      </trkpt>
      <trkpt lat="45.77718" lon="6.54054">
        <ele>1709.6</ele>
        <time>2025-08-15T12:21:59Z</time>
      </trkpt>
      <trkpt lat="45.77721" lon="6.54057">
        <ele>1709</ele>
        <time>2025-08-15T12:22:00Z</time>
      </trkpt>
      <trkpt lat="45.77723" lon="6.54059">
        <ele>1708.7</ele>
        <time>2025-08-15T12:22:01Z</time>
      </trkpt>
      <trkpt lat="45.77726" lon="6.54058">
        <ele>1708</ele>
        <time>2025-08-15T12:22:02Z</time>
      </trkpt>
      <trkpt lat="45.77729" lon="6.54062">
        <ele>1707.4</ele>
        <time>2025-08-15T12:22:03Z</time>
      </trkpt>
      <trkpt lat="45.77733" lon="6.54061">
        <ele>1706.7</ele>
        <time>2025-08-15T12:22:04Z</time>
      </trkpt>
      <trkpt lat="45.77736" lon="6.54059">
        <ele>1706.3</ele>
        <time>2025-08-15T12:22:05Z</time>
      </trkpt>
      <trkpt lat="45.77737" lon="6.54058">
        <ele>1706.2</ele>
        <time>2025-08-15T12:22:06Z</time>
      </trkpt>
      <trkpt lat="45.77739" lon="6.54055">
        <ele>1705.8</ele>
        <time>2025-08-15T12:22:07Z</time>
      </trkpt>
      <trkpt lat="45.77739" lon="6.5405">
        <ele>1705.4</ele>
        <time>2025-08-15T12:22:08Z</time>
      </trkpt>
      <trkpt lat="45.77739" lon="6.54048">
        <ele>1705.3</ele>
        <time>2025-08-15T12:22:09Z</time>
      </trkpt>
      <trkpt lat="45.77739" lon="6.54044">
        <ele>1704.9</ele>
        <time>2025-08-15T12:22:10Z</time>
      </trkpt>
      <trkpt lat="45.77738" lon="6.54041">
        <ele>1704.7</ele>
        <time>2025-08-15T12:22:11Z</time>
      </trkpt>
      <trkpt lat="45.77737" lon="6.54039">
        <ele>1704.5</ele>
        <time>2025-08-15T12:22:12Z</time>
      </trkpt>
      <trkpt lat="45.77736" lon="6.54035">
        <ele>1704.2</ele>
        <time>2025-08-15T12:22:13Z</time>
      </trkpt>
      <trkpt lat="45.77736" lon="6.54034">
        <ele>1704.1</ele>
        <time>2025-08-15T12:22:14Z</time>
      </trkpt>
      <trkpt lat="45.77734" lon="6.54031">
        <ele>1703.8</ele>
        <time>2025-08-15T12:22:15Z</time>
      </trkpt>
      <trkpt lat="45.77733" lon="6.54029">
        <ele>1703.6</ele>
        <time>2025-08-15T12:22:16Z</time>
      </trkpt>
      <trkpt lat="45.77732" lon="6.54027">
        <ele>1703.5</ele>
        <time>2025-08-15T12:22:17Z</time>
      </trkpt>
      <trkpt lat="45.7773" lon="6.54024">
        <ele>1703.1</ele>
        <time>2025-08-15T12:22:18Z</time>
      </trkpt>
      <trkpt lat="45.77728" lon="6.54019">
        <ele>1702.7</ele>
        <time>2025-08-15T12:22:19Z</time>
      </trkpt>
      <trkpt lat="45.77727" lon="6.54018">
        <ele>1702.6</ele>
        <time>2025-08-15T12:22:20Z</time>
      </trkpt>
      <trkpt lat="45.77724" lon="6.54014">
        <ele>1702.2</ele>
        <time>2025-08-15T12:22:21Z</time>
      </trkpt>
      <trkpt lat="45.77723" lon="6.54012">
        <ele>1702</ele>
        <time>2025-08-15T12:22:22Z</time>
      </trkpt>
      <trkpt lat="45.77722" lon="6.54008">
        <ele>1701.7</ele>
        <time>2025-08-15T12:22:23Z</time>
      </trkpt>
      <trkpt lat="45.7772" lon="6.54004">
        <ele>1701.4</ele>
        <time>2025-08-15T12:22:24Z</time>
      </trkpt>
      <trkpt lat="45.77717" lon="6.54">
        <ele>1701.1</ele>
        <time>2025-08-15T12:22:25Z</time>
      </trkpt>
      <trkpt lat="45.77716" lon="6.53999">
        <ele>1701</ele>
        <time>2025-08-15T12:22:26Z</time>
      </trkpt>
      <trkpt lat="45.77714" lon="6.53995">
        <ele>1700.7</ele>
        <time>2025-08-15T12:22:27Z</time>
      </trkpt>
      <trkpt lat="45.77712" lon="6.53994">
        <ele>1700.5</ele>
        <time>2025-08-15T12:22:28Z</time>
      </trkpt>
      <trkpt lat="45.7771" lon="6.5399">
        <ele>1700.2</ele>
        <time>2025-08-15T12:22:29Z</time>
      </trkpt>
      <trkpt lat="45.77709" lon="6.53987">
        <ele>1700</ele>
        <time>2025-08-15T12:22:30Z</time>
      </trkpt>
      <trkpt lat="45.77707" lon="6.53984">
        <ele>1699.7</ele>
        <time>2025-08-15T12:22:31Z</time>
      </trkpt>
      <trkpt lat="45.77704" lon="6.5398">
        <ele>1699.4</ele>
        <time>2025-08-15T12:22:32Z</time>
      </trkpt>
      <trkpt lat="45.77703" lon="6.53978">
        <ele>1699.3</ele>
        <time>2025-08-15T12:22:33Z</time>
      </trkpt>
      <trkpt lat="45.777" lon="6.53976">
        <ele>1699</ele>
        <time>2025-08-15T12:22:34Z</time>
      </trkpt>
      <trkpt lat="45.77698" lon="6.53973">
        <ele>1698.7</ele>
        <time>2025-08-15T12:22:35Z</time>
      </trkpt>
      <trkpt lat="45.77696" lon="6.5397">
        <ele>1698.5</ele>
        <time>2025-08-15T12:22:36Z</time>
      </trkpt>
      <trkpt lat="45.77694" lon="6.53968">
        <ele>1698.2</ele>
        <time>2025-08-15T12:22:37Z</time>
      </trkpt>
      <trkpt lat="45.77692" lon="6.53965">
        <ele>1698</ele>
        <time>2025-08-15T12:22:38Z</time>
      </trkpt>
      <trkpt lat="45.77689" lon="6.53962">
        <ele>1697.6</ele>
        <time>2025-08-15T12:22:39Z</time>
      </trkpt>
      <trkpt lat="45.77688" lon="6.5396">
        <ele>1697.5</ele>
        <time>2025-08-15T12:22:40Z</time>
      </trkpt>
      <trkpt lat="45.77685" lon="6.53958">
        <ele>1697.2</ele>
        <time>2025-08-15T12:22:41Z</time>
      </trkpt>
      <trkpt lat="45.77683" lon="6.53954">
        <ele>1696.9</ele>
        <time>2025-08-15T12:22:42Z</time>
      </trkpt>
      <trkpt lat="45.77682" lon="6.53953">
        <ele>1696.7</ele>
        <time>2025-08-15T12:22:43Z</time>
      </trkpt>
      <trkpt lat="45.7768" lon="6.53951">
        <ele>1696.5</ele>
        <time>2025-08-15T12:22:44Z</time>
      </trkpt>
      <trkpt lat="45.77677" lon="6.53948">
        <ele>1696.1</ele>
        <time>2025-08-15T12:22:45Z</time>
      </trkpt>
      <trkpt lat="45.77676" lon="6.53947">
        <ele>1696</ele>
        <time>2025-08-15T12:22:46Z</time>
      </trkpt>
      <trkpt lat="45.77673" lon="6.53944">
        <ele>1695.7</ele>
        <time>2025-08-15T12:22:47Z</time>
      </trkpt>
      <trkpt lat="45.77669" lon="6.53941">
        <ele>1695.2</ele>
        <time>2025-08-15T12:22:48Z</time>
      </trkpt>
      <trkpt lat="45.77665" lon="6.53939">
        <ele>1694.8</ele>
        <time>2025-08-15T12:22:49Z</time>
      </trkpt>
      <trkpt lat="45.77663" lon="6.53937">
        <ele>1694.5</ele>
        <time>2025-08-15T12:22:50Z</time>
      </trkpt>
      <trkpt lat="45.7766" lon="6.53934">
        <ele>1694.1</ele>
        <time>2025-08-15T12:22:51Z</time>
      </trkpt>
      <trkpt lat="45.77657" lon="6.53932">
        <ele>1693.8</ele>
        <time>2025-08-15T12:22:52Z</time>
      </trkpt>
      <trkpt lat="45.77654" lon="6.5393">
        <ele>1693.4</ele>
        <time>2025-08-15T12:22:53Z</time>
      </trkpt>
      <trkpt lat="45.77653" lon="6.53929">
        <ele>1693.3</ele>
        <time>2025-08-15T12:22:54Z</time>
      </trkpt>
      <trkpt lat="45.7765" lon="6.53925">
        <ele>1692.9</ele>
        <time>2025-08-15T12:22:55Z</time>
      </trkpt>
      <trkpt lat="45.77649" lon="6.53924">
        <ele>1692.7</ele>
        <time>2025-08-15T12:22:56Z</time>
      </trkpt>
      <trkpt lat="45.77646" lon="6.53922">
        <ele>1692.4</ele>
        <time>2025-08-15T12:22:57Z</time>
      </trkpt>
      <trkpt lat="45.77643" lon="6.5392">
        <ele>1692.1</ele>
        <time>2025-08-15T12:22:58Z</time>
      </trkpt>
      <trkpt lat="45.77641" lon="6.53917">
        <ele>1691.9</ele>
        <time>2025-08-15T12:22:59Z</time>
      </trkpt>
      <trkpt lat="45.77639" lon="6.53914">
        <ele>1691.6</ele>
        <time>2025-08-15T12:23:00Z</time>
      </trkpt>
      <trkpt lat="45.77636" lon="6.53912">
        <ele>1691.3</ele>
        <time>2025-08-15T12:23:01Z</time>
      </trkpt>
      <trkpt lat="45.77633" lon="6.5391">
        <ele>1691</ele>
        <time>2025-08-15T12:23:02Z</time>
      </trkpt>
      <trkpt lat="45.77633" lon="6.53908">
        <ele>1690.9</ele>
        <time>2025-08-15T12:23:03Z</time>
      </trkpt>
      <trkpt lat="45.7763" lon="6.53905">
        <ele>1690.5</ele>
        <time>2025-08-15T12:23:04Z</time>
      </trkpt>
      <trkpt lat="45.77628" lon="6.53903">
        <ele>1690.3</ele>
        <time>2025-08-15T12:23:05Z</time>
      </trkpt>
      <trkpt lat="45.77627" lon="6.539">
        <ele>1690.1</ele>
        <time>2025-08-15T12:23:06Z</time>
      </trkpt>
      <trkpt lat="45.77625" lon="6.53899">
        <ele>1689.9</ele>
        <time>2025-08-15T12:23:07Z</time>
      </trkpt>
      <trkpt lat="45.77624" lon="6.53897">
        <ele>1689.7</ele>
        <time>2025-08-15T12:23:08Z</time>
      </trkpt>
      <trkpt lat="45.77622" lon="6.53895">
        <ele>1689.5</ele>
        <time>2025-08-15T12:23:09Z</time>
      </trkpt>
      <trkpt lat="45.77621" lon="6.53894">
        <ele>1689.4</ele>
        <time>2025-08-15T12:23:10Z</time>
      </trkpt>
      <trkpt lat="45.77619" lon="6.53892">
        <ele>1689.1</ele>
        <time>2025-08-15T12:23:11Z</time>
      </trkpt>
      <trkpt lat="45.77618" lon="6.53891">
        <ele>1689</ele>
        <time>2025-08-15T12:23:12Z</time>
      </trkpt>
      <trkpt lat="45.77614" lon="6.53888">
        <ele>1688.6</ele>
        <time>2025-08-15T12:23:13Z</time>
      </trkpt>
      <trkpt lat="45.77613" lon="6.53887">
        <ele>1688.4</ele>
        <time>2025-08-15T12:23:14Z</time>
      </trkpt>
      <trkpt lat="45.7761" lon="6.53884">
        <ele>1688.1</ele>
        <time>2025-08-15T12:23:15Z</time>
      </trkpt>
      <trkpt lat="45.77609" lon="6.53883">
        <ele>1688</ele>
        <time>2025-08-15T12:23:16Z</time>
      </trkpt>
      <trkpt lat="45.77606" lon="6.5388">
        <ele>1687.7</ele>
        <time>2025-08-15T12:23:17Z</time>
      </trkpt>
      <trkpt lat="45.77605" lon="6.53879">
        <ele>1687.5</ele>
        <time>2025-08-15T12:23:18Z</time>
      </trkpt>
      <trkpt lat="45.77603" lon="6.53876">
        <ele>1687.3</ele>
        <time>2025-08-15T12:23:19Z</time>
      </trkpt>
      <trkpt lat="45.77601" lon="6.53873">
        <ele>1687</ele>
        <time>2025-08-15T12:23:20Z</time>
      </trkpt>
      <trkpt lat="45.77599" lon="6.53869">
        <ele>1686.7</ele>
        <time>2025-08-15T12:23:21Z</time>
      </trkpt>
      <trkpt lat="45.77598" lon="6.53868">
        <ele>1686.6</ele>
        <time>2025-08-15T12:23:22Z</time>
      </trkpt>
      <trkpt lat="45.77597" lon="6.53867">
        <ele>1686.4</ele>
        <time>2025-08-15T12:23:23Z</time>
      </trkpt>
      <trkpt lat="45.77596" lon="6.53866">
        <ele>1686.3</ele>
        <time>2025-08-15T12:23:24Z</time>
      </trkpt>
      <trkpt lat="45.77595" lon="6.53865">
        <ele>1686.3</ele>
        <time>2025-08-15T12:23:25Z</time>
      </trkpt>
      <trkpt lat="45.77595" lon="6.53865">
        <ele>1686.3</ele>
        <time>2025-08-15T12:23:26Z</time>
      </trkpt>
      <trkpt lat="45.77595" lon="6.53864">
        <ele>1686.2</ele>
        <time>2025-08-15T12:23:27Z</time>
      </trkpt>
      <trkpt lat="45.77595" lon="6.53864">
        <ele>1686.2</ele>
        <time>2025-08-15T12:23:28Z</time>
      </trkpt>
      <trkpt lat="45.77595" lon="6.53863">
        <ele>1686.1</ele>
        <time>2025-08-15T12:23:29Z</time>
      </trkpt>
      <trkpt lat="45.77594" lon="6.53863">
        <ele>1686.1</ele>
        <time>2025-08-15T12:23:30Z</time>
      </trkpt>
      <trkpt lat="45.77594" lon="6.53862">
        <ele>1686.1</ele>
        <time>2025-08-15T12:23:31Z</time>
      </trkpt>
      <trkpt lat="45.77594" lon="6.53861">
        <ele>1686</ele>
        <time>2025-08-15T12:23:32Z</time>
      </trkpt>
      <trkpt lat="45.77594" lon="6.53861">
        <ele>1686</ele>
        <time>2025-08-15T12:23:33Z</time>
      </trkpt>
      <trkpt lat="45.77594" lon="6.5386">
        <ele>1685.9</ele>
        <time>2025-08-15T12:23:34Z</time>
      </trkpt>
      <trkpt lat="45.77594" lon="6.5386">
        <ele>1685.9</ele>
        <time>2025-08-15T12:23:35Z</time>
      </trkpt>
      <trkpt lat="45.77593" lon="6.53859">
        <ele>1685.9</ele>
        <time>2025-08-15T12:23:41Z</time>
      </trkpt>
      <trkpt lat="45.77593" lon="6.53859">
        <ele>1685.8</ele>
        <time>2025-08-15T12:23:42Z</time>
      </trkpt>
      <trkpt lat="45.77591" lon="6.53854">
        <ele>1685.4</ele>
        <time>2025-08-15T12:23:43Z</time>
      </trkpt>
      <trkpt lat="45.77589" lon="6.53848">
        <ele>1685</ele>
        <time>2025-08-15T12:23:44Z</time>
      </trkpt>
      <trkpt lat="45.77586" lon="6.53842">
        <ele>1684.5</ele>
        <time>2025-08-15T12:23:45Z</time>
      </trkpt>
      <trkpt lat="45.77585" lon="6.53838">
        <ele>1684.2</ele>
        <time>2025-08-15T12:23:46Z</time>
      </trkpt>
      <trkpt lat="45.77582" lon="6.53834">
        <ele>1683.8</ele>
        <time>2025-08-15T12:23:47Z</time>
      </trkpt>
      <trkpt lat="45.77581" lon="6.53832">
        <ele>1683.6</ele>
        <time>2025-08-15T12:23:48Z</time>
      </trkpt>
      <trkpt lat="45.77579" lon="6.53828">
        <ele>1683.3</ele>
        <time>2025-08-15T12:23:49Z</time>
      </trkpt>
      <trkpt lat="45.77578" lon="6.53823">
        <ele>1682.9</ele>
        <time>2025-08-15T12:23:50Z</time>
      </trkpt>
      <trkpt lat="45.77575" lon="6.53819">
        <ele>1682.6</ele>
        <time>2025-08-15T12:23:51Z</time>
      </trkpt>
      <trkpt lat="45.77574" lon="6.53817">
        <ele>1682.4</ele>
        <time>2025-08-15T12:23:52Z</time>
      </trkpt>
      <trkpt lat="45.77573" lon="6.53815">
        <ele>1682.2</ele>
        <time>2025-08-15T12:23:53Z</time>
      </trkpt>
      <trkpt lat="45.77572" lon="6.53811">
        <ele>1681.9</ele>
        <time>2025-08-15T12:23:54Z</time>
      </trkpt>
      <trkpt lat="45.7757" lon="6.53807">
        <ele>1681.4</ele>
        <time>2025-08-15T12:23:55Z</time>
      </trkpt>
      <trkpt lat="45.77569" lon="6.53803">
        <ele>1681.1</ele>
        <time>2025-08-15T12:23:56Z</time>
      </trkpt>
      <trkpt lat="45.77567" lon="6.53799">
        <ele>1680.7</ele>
        <time>2025-08-15T12:23:57Z</time>
      </trkpt>
      <trkpt lat="45.77566" lon="6.53795">
        <ele>1680.3</ele>
        <time>2025-08-15T12:23:58Z</time>
      </trkpt>
      <trkpt lat="45.77563" lon="6.53791">
        <ele>1679.8</ele>
        <time>2025-08-15T12:23:59Z</time>
      </trkpt>
      <trkpt lat="45.77561" lon="6.53787">
        <ele>1679.4</ele>
        <time>2025-08-15T12:24:00Z</time>
      </trkpt>
      <trkpt lat="45.77559" lon="6.53784">
        <ele>1679.1</ele>
        <time>2025-08-15T12:24:01Z</time>
      </trkpt>
      <trkpt lat="45.77557" lon="6.53779">
        <ele>1678.6</ele>
        <time>2025-08-15T12:24:02Z</time>
      </trkpt>
      <trkpt lat="45.77555" lon="6.53775">
        <ele>1678.2</ele>
        <time>2025-08-15T12:24:03Z</time>
      </trkpt>
      <trkpt lat="45.77553" lon="6.53771">
        <ele>1677.7</ele>
        <time>2025-08-15T12:24:04Z</time>
      </trkpt>
      <trkpt lat="45.77552" lon="6.53769">
        <ele>1677.6</ele>
        <time>2025-08-15T12:24:05Z</time>
      </trkpt>
      <trkpt lat="45.7755" lon="6.53766">
        <ele>1677.2</ele>
        <time>2025-08-15T12:24:06Z</time>
      </trkpt>
      <trkpt lat="45.77547" lon="6.53763">
        <ele>1676.8</ele>
        <time>2025-08-15T12:24:07Z</time>
      </trkpt>
      <trkpt lat="45.77545" lon="6.5376">
        <ele>1676.4</ele>
        <time>2025-08-15T12:24:08Z</time>
      </trkpt>
      <trkpt lat="45.77543" lon="6.53757">
        <ele>1675.9</ele>
        <time>2025-08-15T12:24:09Z</time>
      </trkpt>
      <trkpt lat="45.7754" lon="6.53755">
        <ele>1675.5</ele>
        <time>2025-08-15T12:24:10Z</time>
      </trkpt>
      <trkpt lat="45.77538" lon="6.53753">
        <ele>1675</ele>
        <time>2025-08-15T12:24:11Z</time>
      </trkpt>
      <trkpt lat="45.77535" lon="6.53749">
        <ele>1674.4</ele>
        <time>2025-08-15T12:24:12Z</time>
      </trkpt>
      <trkpt lat="45.77534" lon="6.53747">
        <ele>1674.2</ele>
        <time>2025-08-15T12:24:13Z</time>
      </trkpt>
      <trkpt lat="45.77531" lon="6.53745">
        <ele>1673.8</ele>
        <time>2025-08-15T12:24:14Z</time>
      </trkpt>
      <trkpt lat="45.77529" lon="6.53742">
        <ele>1673.2</ele>
        <time>2025-08-15T12:24:15Z</time>
      </trkpt>
      <trkpt lat="45.77527" lon="6.53739">
        <ele>1672.8</ele>
        <time>2025-08-15T12:24:16Z</time>
      </trkpt>
      <trkpt lat="45.77524" lon="6.53735">
        <ele>1672.1</ele>
        <time>2025-08-15T12:24:17Z</time>
      </trkpt>
      <trkpt lat="45.77523" lon="6.53734">
        <ele>1671.9</ele>
        <time>2025-08-15T12:24:18Z</time>
      </trkpt>
      <trkpt lat="45.7752" lon="6.53731">
        <ele>1671.3</ele>
        <time>2025-08-15T12:24:19Z</time>
      </trkpt>
      <trkpt lat="45.77519" lon="6.5373">
        <ele>1671.1</ele>
        <time>2025-08-15T12:24:20Z</time>
      </trkpt>
      <trkpt lat="45.77516" lon="6.53727">
        <ele>1670.5</ele>
        <time>2025-08-15T12:24:21Z</time>
      </trkpt>
      <trkpt lat="45.77515" lon="6.53725">
        <ele>1670.2</ele>
        <time>2025-08-15T12:24:22Z</time>
      </trkpt>
      <trkpt lat="45.77513" lon="6.53724">
        <ele>1669.7</ele>
        <time>2025-08-15T12:24:23Z</time>
      </trkpt>
      <trkpt lat="45.77509" lon="6.53721">
        <ele>1669</ele>
        <time>2025-08-15T12:24:24Z</time>
      </trkpt>
      <trkpt lat="45.77508" lon="6.5372">
        <ele>1668.8</ele>
        <time>2025-08-15T12:24:25Z</time>
      </trkpt>
      <trkpt lat="45.77504" lon="6.53718">
        <ele>1668.1</ele>
        <time>2025-08-15T12:24:26Z</time>
      </trkpt>
      <trkpt lat="45.77503" lon="6.53717">
        <ele>1667.8</ele>
        <time>2025-08-15T12:24:27Z</time>
      </trkpt>
      <trkpt lat="45.775" lon="6.53716">
        <ele>1667.3</ele>
        <time>2025-08-15T12:24:28Z</time>
      </trkpt>
      <trkpt lat="45.77498" lon="6.53713">
        <ele>1666.6</ele>
        <time>2025-08-15T12:24:29Z</time>
      </trkpt>
      <trkpt lat="45.77497" lon="6.53712">
        <ele>1666.4</ele>
        <time>2025-08-15T12:24:30Z</time>
      </trkpt>
      <trkpt lat="45.77494" lon="6.53711">
        <ele>1665.8</ele>
        <time>2025-08-15T12:24:31Z</time>
      </trkpt>
      <trkpt lat="45.77493" lon="6.5371">
        <ele>1665.6</ele>
        <time>2025-08-15T12:24:32Z</time>
      </trkpt>
      <trkpt lat="45.77492" lon="6.5371">
        <ele>1665.3</ele>
        <time>2025-08-15T12:24:33Z</time>
      </trkpt>
      <trkpt lat="45.77491" lon="6.53709">
        <ele>1665</ele>
        <time>2025-08-15T12:24:34Z</time>
      </trkpt>
      <trkpt lat="45.77487" lon="6.53707">
        <ele>1664.2</ele>
        <time>2025-08-15T12:24:35Z</time>
      </trkpt>
      <trkpt lat="45.77486" lon="6.53707">
        <ele>1663.9</ele>
        <time>2025-08-15T12:24:36Z</time>
      </trkpt>
      <trkpt lat="45.77483" lon="6.53705">
        <ele>1663.3</ele>
        <time>2025-08-15T12:24:37Z</time>
      </trkpt>
      <trkpt lat="45.77481" lon="6.53704">
        <ele>1662.7</ele>
        <time>2025-08-15T12:24:38Z</time>
      </trkpt>
      <trkpt lat="45.7748" lon="6.53704">
        <ele>1662.5</ele>
        <time>2025-08-15T12:24:39Z</time>
      </trkpt>
      <trkpt lat="45.77477" lon="6.53705">
        <ele>1661.9</ele>
        <time>2025-08-15T12:24:40Z</time>
      </trkpt>
      <trkpt lat="45.77476" lon="6.53705">
        <ele>1661.6</ele>
        <time>2025-08-15T12:24:41Z</time>
      </trkpt>
      <trkpt lat="45.77473" lon="6.53704">
        <ele>1661</ele>
        <time>2025-08-15T12:24:42Z</time>
      </trkpt>
      <trkpt lat="45.77469" lon="6.53703">
        <ele>1660.1</ele>
        <time>2025-08-15T12:24:43Z</time>
      </trkpt>
      <trkpt lat="45.77467" lon="6.53703">
        <ele>1659.7</ele>
        <time>2025-08-15T12:24:44Z</time>
      </trkpt>
      <trkpt lat="45.77463" lon="6.53701">
        <ele>1658.8</ele>
        <time>2025-08-15T12:24:45Z</time>
      </trkpt>
      <trkpt lat="45.77461" lon="6.53701">
        <ele>1658.5</ele>
        <time>2025-08-15T12:24:46Z</time>
      </trkpt>
      <trkpt lat="45.77458" lon="6.53701">
        <ele>1657.8</ele>
        <time>2025-08-15T12:24:47Z</time>
      </trkpt>
      <trkpt lat="45.77455" lon="6.537">
        <ele>1657.3</ele>
        <time>2025-08-15T12:24:48Z</time>
      </trkpt>
      <trkpt lat="45.77451" lon="6.53699">
        <ele>1656.5</ele>
        <time>2025-08-15T12:24:49Z</time>
      </trkpt>
      <trkpt lat="45.77447" lon="6.53699">
        <ele>1655.7</ele>
        <time>2025-08-15T12:24:50Z</time>
      </trkpt>
      <trkpt lat="45.77444" lon="6.53699">
        <ele>1655.1</ele>
        <time>2025-08-15T12:24:51Z</time>
      </trkpt>
      <trkpt lat="45.77441" lon="6.53699">
        <ele>1654.4</ele>
        <time>2025-08-15T12:24:52Z</time>
      </trkpt>
      <trkpt lat="45.77437" lon="6.537">
        <ele>1653.6</ele>
        <time>2025-08-15T12:24:53Z</time>
      </trkpt>
      <trkpt lat="45.77435" lon="6.537">
        <ele>1653.3</ele>
        <time>2025-08-15T12:24:54Z</time>
      </trkpt>
      <trkpt lat="45.77431" lon="6.537">
        <ele>1652.4</ele>
        <time>2025-08-15T12:24:55Z</time>
      </trkpt>
      <trkpt lat="45.77429" lon="6.53701">
        <ele>1652.1</ele>
        <time>2025-08-15T12:24:56Z</time>
      </trkpt>
      <trkpt lat="45.77426" lon="6.53702">
        <ele>1651.6</ele>
        <time>2025-08-15T12:24:57Z</time>
      </trkpt>
      <trkpt lat="45.77423" lon="6.53702">
        <ele>1651</ele>
        <time>2025-08-15T12:24:58Z</time>
      </trkpt>
      <trkpt lat="45.7742" lon="6.53703">
        <ele>1650.4</ele>
        <time>2025-08-15T12:24:59Z</time>
      </trkpt>
      <trkpt lat="45.77418" lon="6.53704">
        <ele>1649.9</ele>
        <time>2025-08-15T12:25:00Z</time>
      </trkpt>
      <trkpt lat="45.77414" lon="6.53706">
        <ele>1649.1</ele>
        <time>2025-08-15T12:25:01Z</time>
      </trkpt>
      <trkpt lat="45.77412" lon="6.53707">
        <ele>1648.8</ele>
        <time>2025-08-15T12:25:02Z</time>
      </trkpt>
      <trkpt lat="45.77409" lon="6.5371">
        <ele>1648</ele>
        <time>2025-08-15T12:25:03Z</time>
      </trkpt>
      <trkpt lat="45.77407" lon="6.53711">
        <ele>1647.6</ele>
        <time>2025-08-15T12:25:04Z</time>
      </trkpt>
      <trkpt lat="45.77404" lon="6.53713">
        <ele>1646.9</ele>
        <time>2025-08-15T12:25:05Z</time>
      </trkpt>
      <trkpt lat="45.77403" lon="6.53715">
        <ele>1646.6</ele>
        <time>2025-08-15T12:25:06Z</time>
      </trkpt>
      <trkpt lat="45.77401" lon="6.53716">
        <ele>1646.1</ele>
        <time>2025-08-15T12:25:07Z</time>
      </trkpt>
      <trkpt lat="45.774" lon="6.53717">
        <ele>1645.9</ele>
        <time>2025-08-15T12:25:08Z</time>
      </trkpt>
      <trkpt lat="45.77397" lon="6.53721">
        <ele>1645</ele>
        <time>2025-08-15T12:25:09Z</time>
      </trkpt>
      <trkpt lat="45.77395" lon="6.53722">
        <ele>1644.7</ele>
        <time>2025-08-15T12:25:10Z</time>
      </trkpt>
      <trkpt lat="45.77394" lon="6.53724">
        <ele>1644.2</ele>
        <time>2025-08-15T12:25:11Z</time>
      </trkpt>
      <trkpt lat="45.77392" lon="6.53725">
        <ele>1643.9</ele>
        <time>2025-08-15T12:25:12Z</time>
      </trkpt>
      <trkpt lat="45.7739" lon="6.53725">
        <ele>1643.5</ele>
        <time>2025-08-15T12:25:13Z</time>
      </trkpt>
      <trkpt lat="45.77389" lon="6.53726">
        <ele>1643.3</ele>
        <time>2025-08-15T12:25:14Z</time>
      </trkpt>
      <trkpt lat="45.77388" lon="6.53728">
        <ele>1642.9</ele>
        <time>2025-08-15T12:25:15Z</time>
      </trkpt>
      <trkpt lat="45.77387" lon="6.53729">
        <ele>1642.7</ele>
        <time>2025-08-15T12:25:16Z</time>
      </trkpt>
      <trkpt lat="45.77385" lon="6.53732">
        <ele>1642.1</ele>
        <time>2025-08-15T12:25:17Z</time>
      </trkpt>
      <trkpt lat="45.77382" lon="6.53734">
        <ele>1641.4</ele>
        <time>2025-08-15T12:25:18Z</time>
      </trkpt>
      <trkpt lat="45.77381" lon="6.53735">
        <ele>1641.2</ele>
        <time>2025-08-15T12:25:19Z</time>
      </trkpt>
      <trkpt lat="45.77378" lon="6.53738">
        <ele>1640.4</ele>
        <time>2025-08-15T12:25:20Z</time>
      </trkpt>
      <trkpt lat="45.77377" lon="6.53739">
        <ele>1640.1</ele>
        <time>2025-08-15T12:25:21Z</time>
      </trkpt>
      <trkpt lat="45.77373" lon="6.53741">
        <ele>1639.2</ele>
        <time>2025-08-15T12:25:22Z</time>
      </trkpt>
      <trkpt lat="45.77371" lon="6.53742">
        <ele>1638.8</ele>
        <time>2025-08-15T12:25:23Z</time>
      </trkpt>
      <trkpt lat="45.77367" lon="6.53744">
        <ele>1637.9</ele>
        <time>2025-08-15T12:25:24Z</time>
      </trkpt>
      <trkpt lat="45.77366" lon="6.53745">
        <ele>1637.6</ele>
        <time>2025-08-15T12:25:25Z</time>
      </trkpt>
      <trkpt lat="45.77363" lon="6.53746">
        <ele>1636.9</ele>
        <time>2025-08-15T12:25:26Z</time>
      </trkpt>
      <trkpt lat="45.77359" lon="6.53747">
        <ele>1636.3</ele>
        <time>2025-08-15T12:25:27Z</time>
      </trkpt>
      <trkpt lat="45.77358" lon="6.53748">
        <ele>1636.1</ele>
        <time>2025-08-15T12:25:28Z</time>
      </trkpt>
      <trkpt lat="45.77356" lon="6.53747">
        <ele>1635.6</ele>
        <time>2025-08-15T12:25:29Z</time>
      </trkpt>
      <trkpt lat="45.77355" lon="6.53748">
        <ele>1635.5</ele>
        <time>2025-08-15T12:25:30Z</time>
      </trkpt>
      <trkpt lat="45.77352" lon="6.5375">
        <ele>1634.7</ele>
        <time>2025-08-15T12:25:31Z</time>
      </trkpt>
      <trkpt lat="45.7735" lon="6.53751">
        <ele>1634.4</ele>
        <time>2025-08-15T12:25:32Z</time>
      </trkpt>
      <trkpt lat="45.77347" lon="6.53754">
        <ele>1633.7</ele>
        <time>2025-08-15T12:25:33Z</time>
      </trkpt>
      <trkpt lat="45.77345" lon="6.53755">
        <ele>1633.4</ele>
        <time>2025-08-15T12:25:34Z</time>
      </trkpt>
      <trkpt lat="45.77342" lon="6.53757">
        <ele>1632.7</ele>
        <time>2025-08-15T12:25:35Z</time>
      </trkpt>
      <trkpt lat="45.77341" lon="6.53758">
        <ele>1632.4</ele>
        <time>2025-08-15T12:25:36Z</time>
      </trkpt>
      <trkpt lat="45.77338" lon="6.5376">
        <ele>1631.8</ele>
        <time>2025-08-15T12:25:37Z</time>
      </trkpt>
      <trkpt lat="45.77338" lon="6.53761">
        <ele>1631.6</ele>
        <time>2025-08-15T12:25:38Z</time>
      </trkpt>
      <trkpt lat="45.77335" lon="6.53764">
        <ele>1630.9</ele>
        <time>2025-08-15T12:25:39Z</time>
      </trkpt>
      <trkpt lat="45.77333" lon="6.53767">
        <ele>1630.3</ele>
        <time>2025-08-15T12:25:40Z</time>
      </trkpt>
      <trkpt lat="45.77332" lon="6.53768">
        <ele>1630.2</ele>
        <time>2025-08-15T12:25:41Z</time>
      </trkpt>
      <trkpt lat="45.77332" lon="6.53769">
        <ele>1630</ele>
        <time>2025-08-15T12:25:42Z</time>
      </trkpt>
      <trkpt lat="45.77329" lon="6.53771">
        <ele>1629.3</ele>
        <time>2025-08-15T12:25:43Z</time>
      </trkpt>
      <trkpt lat="45.77326" lon="6.53774">
        <ele>1628.6</ele>
        <time>2025-08-15T12:25:44Z</time>
      </trkpt>
      <trkpt lat="45.77322" lon="6.53777">
        <ele>1627.8</ele>
        <time>2025-08-15T12:25:45Z</time>
      </trkpt>
      <trkpt lat="45.77321" lon="6.53778">
        <ele>1627.6</ele>
        <time>2025-08-15T12:25:46Z</time>
      </trkpt>
      <trkpt lat="45.77319" lon="6.53779">
        <ele>1627</ele>
        <time>2025-08-15T12:25:47Z</time>
      </trkpt>
      <trkpt lat="45.77318" lon="6.53779">
        <ele>1626.7</ele>
        <time>2025-08-15T12:25:48Z</time>
      </trkpt>
      <trkpt lat="45.77315" lon="6.5378">
        <ele>1626.2</ele>
        <time>2025-08-15T12:25:49Z</time>
      </trkpt>
      <trkpt lat="45.77312" lon="6.53782">
        <ele>1625.5</ele>
        <time>2025-08-15T12:25:50Z</time>
      </trkpt>
      <trkpt lat="45.77309" lon="6.53781">
        <ele>1624.7</ele>
        <time>2025-08-15T12:25:51Z</time>
      </trkpt>
      <trkpt lat="45.77308" lon="6.53781">
        <ele>1624.5</ele>
        <time>2025-08-15T12:25:52Z</time>
      </trkpt>
      <trkpt lat="45.77304" lon="6.53781">
        <ele>1623.6</ele>
        <time>2025-08-15T12:25:53Z</time>
      </trkpt>
      <trkpt lat="45.77303" lon="6.5378">
        <ele>1623.3</ele>
        <time>2025-08-15T12:25:54Z</time>
      </trkpt>
      <trkpt lat="45.773" lon="6.53778">
        <ele>1622.4</ele>
        <time>2025-08-15T12:25:55Z</time>
      </trkpt>
      <trkpt lat="45.77299" lon="6.53777">
        <ele>1622</ele>
        <time>2025-08-15T12:25:56Z</time>
      </trkpt>
      <trkpt lat="45.77296" lon="6.53773">
        <ele>1621</ele>
        <time>2025-08-15T12:25:57Z</time>
      </trkpt>
      <trkpt lat="45.77295" lon="6.53772">
        <ele>1620.6</ele>
        <time>2025-08-15T12:25:58Z</time>
      </trkpt>
      <trkpt lat="45.77292" lon="6.53766">
        <ele>1619.3</ele>
        <time>2025-08-15T12:25:59Z</time>
      </trkpt>
      <trkpt lat="45.77291" lon="6.53762">
        <ele>1618.7</ele>
        <time>2025-08-15T12:26:00Z</time>
      </trkpt>
      <trkpt lat="45.77292" lon="6.53758">
        <ele>1618</ele>
        <time>2025-08-15T12:26:01Z</time>
      </trkpt>
      <trkpt lat="45.77289" lon="6.53756">
        <ele>1617.4</ele>
        <time>2025-08-15T12:26:02Z</time>
      </trkpt>
      <trkpt lat="45.77286" lon="6.53752">
        <ele>1616.6</ele>
        <time>2025-08-15T12:26:03Z</time>
      </trkpt>
      <trkpt lat="45.77286" lon="6.5375">
        <ele>1616.3</ele>
        <time>2025-08-15T12:26:04Z</time>
      </trkpt>
      <trkpt lat="45.77283" lon="6.53747">
        <ele>1615.8</ele>
        <time>2025-08-15T12:26:05Z</time>
      </trkpt>
      <trkpt lat="45.77282" lon="6.53742">
        <ele>1615.1</ele>
        <time>2025-08-15T12:26:06Z</time>
      </trkpt>
      <trkpt lat="45.77282" lon="6.53741">
        <ele>1614.8</ele>
        <time>2025-08-15T12:26:07Z</time>
      </trkpt>
      <trkpt lat="45.7728" lon="6.53738">
        <ele>1614.3</ele>
        <time>2025-08-15T12:26:08Z</time>
      </trkpt>
      <trkpt lat="45.77279" lon="6.53736">
        <ele>1614.1</ele>
        <time>2025-08-15T12:26:09Z</time>
      </trkpt>
      <trkpt lat="45.77278" lon="6.53733">
        <ele>1613.5</ele>
        <time>2025-08-15T12:26:10Z</time>
      </trkpt>
      <trkpt lat="45.77276" lon="6.53728">
        <ele>1612.8</ele>
        <time>2025-08-15T12:26:11Z</time>
      </trkpt>
      <trkpt lat="45.77274" lon="6.53724">
        <ele>1612.1</ele>
        <time>2025-08-15T12:26:12Z</time>
      </trkpt>
      <trkpt lat="45.77273" lon="6.53719">
        <ele>1611.5</ele>
        <time>2025-08-15T12:26:13Z</time>
      </trkpt>
      <trkpt lat="45.77271" lon="6.53715">
        <ele>1610.8</ele>
        <time>2025-08-15T12:26:14Z</time>
      </trkpt>
      <trkpt lat="45.77268" lon="6.53712">
        <ele>1610.2</ele>
        <time>2025-08-15T12:26:15Z</time>
      </trkpt>
      <trkpt lat="45.77264" lon="6.5371">
        <ele>1609.5</ele>
        <time>2025-08-15T12:26:16Z</time>
      </trkpt>
      <trkpt lat="45.77261" lon="6.5371">
        <ele>1608.9</ele>
        <time>2025-08-15T12:26:17Z</time>
      </trkpt>
      <trkpt lat="45.77258" lon="6.53711">
        <ele>1608.4</ele>
        <time>2025-08-15T12:26:18Z</time>
      </trkpt>
      <trkpt lat="45.77255" lon="6.53712">
        <ele>1607.9</ele>
        <time>2025-08-15T12:26:19Z</time>
      </trkpt>
      <trkpt lat="45.77252" lon="6.53712">
        <ele>1607.3</ele>
        <time>2025-08-15T12:26:20Z</time>
      </trkpt>
      <trkpt lat="45.77249" lon="6.53712">
        <ele>1606.8</ele>
        <time>2025-08-15T12:26:21Z</time>
      </trkpt>
      <trkpt lat="45.77246" lon="6.53712">
        <ele>1606.2</ele>
        <time>2025-08-15T12:26:22Z</time>
      </trkpt>
      <trkpt lat="45.77245" lon="6.53711">
        <ele>1606</ele>
        <time>2025-08-15T12:26:23Z</time>
      </trkpt>
      <trkpt lat="45.77243" lon="6.53709">
        <ele>1605.6</ele>
        <time>2025-08-15T12:26:24Z</time>
      </trkpt>
      <trkpt lat="45.77243" lon="6.53708">
        <ele>1605.5</ele>
        <time>2025-08-15T12:26:25Z</time>
      </trkpt>
      <trkpt lat="45.77242" lon="6.53706">
        <ele>1605.1</ele>
        <time>2025-08-15T12:26:26Z</time>
      </trkpt>
      <trkpt lat="45.77241" lon="6.53705">
        <ele>1605</ele>
        <time>2025-08-15T12:26:27Z</time>
      </trkpt>
      <trkpt lat="45.77241" lon="6.53704">
        <ele>1604.8</ele>
        <time>2025-08-15T12:26:28Z</time>
      </trkpt>
      <trkpt lat="45.77241" lon="6.53703">
        <ele>1604.7</ele>
        <time>2025-08-15T12:26:29Z</time>
      </trkpt>
      <trkpt lat="45.77241" lon="6.53702">
        <ele>1604.5</ele>
        <time>2025-08-15T12:26:30Z</time>
      </trkpt>
      <trkpt lat="45.7724" lon="6.53701">
        <ele>1604.4</ele>
        <time>2025-08-15T12:26:31Z</time>
      </trkpt>
      <trkpt lat="45.7724" lon="6.537">
        <ele>1604.3</ele>
        <time>2025-08-15T12:26:32Z</time>
      </trkpt>
      <trkpt lat="45.7724" lon="6.53699">
        <ele>1604.1</ele>
        <time>2025-08-15T12:26:33Z</time>
      </trkpt>
      <trkpt lat="45.77239" lon="6.53698">
        <ele>1604</ele>
        <time>2025-08-15T12:26:34Z</time>
      </trkpt>
      <trkpt lat="45.77239" lon="6.53697">
        <ele>1603.8</ele>
        <time>2025-08-15T12:26:35Z</time>
      </trkpt>
      <trkpt lat="45.77239" lon="6.53696">
        <ele>1603.7</ele>
        <time>2025-08-15T12:26:36Z</time>
      </trkpt>
      <trkpt lat="45.77239" lon="6.53695">
        <ele>1603.5</ele>
        <time>2025-08-15T12:26:37Z</time>
      </trkpt>
      <trkpt lat="45.77238" lon="6.53695">
        <ele>1603.4</ele>
        <time>2025-08-15T12:31:19Z</time>
      </trkpt>
      <trkpt lat="45.77238" lon="6.53694">
        <ele>1603.2</ele>
        <time>2025-08-15T12:31:20Z</time>
      </trkpt>
      <trkpt lat="45.77239" lon="6.53684">
        <ele>1601.8</ele>
        <time>2025-08-15T12:31:21Z</time>
      </trkpt>
      <trkpt lat="45.7724" lon="6.53674">
        <ele>1600.5</ele>
        <time>2025-08-15T12:31:22Z</time>
      </trkpt>
      <trkpt lat="45.77243" lon="6.53664">
        <ele>1599.4</ele>
        <time>2025-08-15T12:31:23Z</time>
      </trkpt>
      <trkpt lat="45.77245" lon="6.53657">
        <ele>1598.8</ele>
        <time>2025-08-15T12:31:24Z</time>
      </trkpt>
      <trkpt lat="45.77247" lon="6.53655">
        <ele>1598.7</ele>
        <time>2025-08-15T12:31:25Z</time>
      </trkpt>
      <trkpt lat="45.77248" lon="6.53655">
        <ele>1598.6</ele>
        <time>2025-08-15T12:31:26Z</time>
      </trkpt>
      <trkpt lat="45.77248" lon="6.53655">
        <ele>1598.6</ele>
        <time>2025-08-15T12:31:27Z</time>
      </trkpt>
      <trkpt lat="45.77248" lon="6.53656">
        <ele>1598.5</ele>
        <time>2025-08-15T12:31:28Z</time>
      </trkpt>
      <trkpt lat="45.77247" lon="6.53656">
        <ele>1598.5</ele>
        <time>2025-08-15T12:31:29Z</time>
      </trkpt>
      <trkpt lat="45.77247" lon="6.53656">
        <ele>1598.5</ele>
        <time>2025-08-15T12:31:30Z</time>
      </trkpt>
      <trkpt lat="45.77246" lon="6.53656">
        <ele>1598.5</ele>
        <time>2025-08-15T12:31:31Z</time>
      </trkpt>
      <trkpt lat="45.77246" lon="6.53657">
        <ele>1598.4</ele>
        <time>2025-08-15T12:31:32Z</time>
      </trkpt>
      <trkpt lat="45.77246" lon="6.53657">
        <ele>1598.4</ele>
        <time>2025-08-15T12:31:33Z</time>
      </trkpt>
      <trkpt lat="45.77246" lon="6.53657">
        <ele>1598.4</ele>
        <time>2025-08-15T12:31:34Z</time>
      </trkpt>
      <trkpt lat="45.77246" lon="6.53657">
        <ele>1598.4</ele>
        <time>2025-08-15T12:31:35Z</time>
      </trkpt>
      <trkpt lat="45.77247" lon="6.53656">
        <ele>1598.4</ele>
        <time>2025-08-15T12:31:36Z</time>
      </trkpt>
      <trkpt lat="45.77247" lon="6.53656">
        <ele>1598.4</ele>
        <time>2025-08-15T12:31:37Z</time>
      </trkpt>
      <trkpt lat="45.77247" lon="6.53655">
        <ele>1598.4</ele>
        <time>2025-08-15T12:31:38Z</time>
      </trkpt>
      <trkpt lat="45.77247" lon="6.53654">
        <ele>1598.3</ele>
        <time>2025-08-15T12:31:39Z</time>
      </trkpt>
      <trkpt lat="45.77248" lon="6.53652">
        <ele>1598.3</ele>
        <time>2025-08-15T12:31:40Z</time>
      </trkpt>
      <trkpt lat="45.7725" lon="6.53652">
        <ele>1598.3</ele>
        <time>2025-08-15T12:31:41Z</time>
      </trkpt>
      <trkpt lat="45.77252" lon="6.53652">
        <ele>1598.3</ele>
        <time>2025-08-15T12:31:42Z</time>
      </trkpt>
      <trkpt lat="45.77252" lon="6.53652">
        <ele>1598.3</ele>
        <time>2025-08-15T12:31:43Z</time>
      </trkpt>
      <trkpt lat="45.77253" lon="6.53652">
        <ele>1598.3</ele>
        <time>2025-08-15T12:31:44Z</time>
      </trkpt>
      <trkpt lat="45.77254" lon="6.53652">
        <ele>1598.3</ele>
        <time>2025-08-15T12:31:45Z</time>
      </trkpt>
      <trkpt lat="45.77255" lon="6.53651">
        <ele>1598.3</ele>
        <time>2025-08-15T12:31:46Z</time>
      </trkpt>
      <trkpt lat="45.77256" lon="6.53651">
        <ele>1598.3</ele>
        <time>2025-08-15T12:31:47Z</time>
      </trkpt>
      <trkpt lat="45.77257" lon="6.53651">
        <ele>1598.3</ele>
        <time>2025-08-15T12:31:48Z</time>
      </trkpt>
      <trkpt lat="45.77258" lon="6.5365">
        <ele>1598.4</ele>
        <time>2025-08-15T12:31:49Z</time>
      </trkpt>
      <trkpt lat="45.77259" lon="6.5365">
        <ele>1598.4</ele>
        <time>2025-08-15T12:31:50Z</time>
      </trkpt>
      <trkpt lat="45.7726" lon="6.5365">
        <ele>1598.4</ele>
        <time>2025-08-15T12:31:51Z</time>
      </trkpt>
      <trkpt lat="45.77261" lon="6.53651">
        <ele>1598.5</ele>
        <time>2025-08-15T12:31:52Z</time>
      </trkpt>
      <trkpt lat="45.77262" lon="6.5365">
        <ele>1598.5</ele>
        <time>2025-08-15T12:31:53Z</time>
      </trkpt>
      <trkpt lat="45.77264" lon="6.5365">
        <ele>1598.5</ele>
        <time>2025-08-15T12:31:54Z</time>
      </trkpt>
      <trkpt lat="45.77264" lon="6.53649">
        <ele>1598.6</ele>
        <time>2025-08-15T12:31:55Z</time>
      </trkpt>
      <trkpt lat="45.77265" lon="6.53649">
        <ele>1598.6</ele>
        <time>2025-08-15T12:31:56Z</time>
      </trkpt>
      <trkpt lat="45.77266" lon="6.53649">
        <ele>1598.6</ele>
        <time>2025-08-15T12:31:57Z</time>
      </trkpt>
      <trkpt lat="45.77267" lon="6.53648">
        <ele>1598.7</ele>
        <time>2025-08-15T12:31:58Z</time>
      </trkpt>
      <trkpt lat="45.77268" lon="6.53647">
        <ele>1598.7</ele>
        <time>2025-08-15T12:31:59Z</time>
      </trkpt>
      <trkpt lat="45.77269" lon="6.53646">
        <ele>1598.7</ele>
        <time>2025-08-15T12:32:00Z</time>
      </trkpt>
      <trkpt lat="45.7727" lon="6.53645">
        <ele>1598.8</ele>
        <time>2025-08-15T12:32:01Z</time>
      </trkpt>
      <trkpt lat="45.77272" lon="6.53645">
        <ele>1598.8</ele>
        <time>2025-08-15T12:32:02Z</time>
      </trkpt>
      <trkpt lat="45.77274" lon="6.53644">
        <ele>1598.9</ele>
        <time>2025-08-15T12:32:03Z</time>
      </trkpt>
      <trkpt lat="45.77275" lon="6.53644">
        <ele>1598.9</ele>
        <time>2025-08-15T12:32:04Z</time>
      </trkpt>
      <trkpt lat="45.77276" lon="6.53642">
        <ele>1599</ele>
        <time>2025-08-15T12:32:05Z</time>
      </trkpt>
      <trkpt lat="45.77276" lon="6.5364">
        <ele>1599</ele>
        <time>2025-08-15T12:32:06Z</time>
      </trkpt>
      <trkpt lat="45.77275" lon="6.53638">
        <ele>1599</ele>
        <time>2025-08-15T12:32:07Z</time>
      </trkpt>
      <trkpt lat="45.77273" lon="6.53638">
        <ele>1599.1</ele>
        <time>2025-08-15T12:32:08Z</time>
      </trkpt>
      <trkpt lat="45.77271" lon="6.5364">
        <ele>1599.2</ele>
        <time>2025-08-15T12:32:09Z</time>
      </trkpt>
      <trkpt lat="45.77272" lon="6.53641">
        <ele>1599.2</ele>
        <time>2025-08-15T12:32:10Z</time>
      </trkpt>
      <trkpt lat="45.77274" lon="6.53642">
        <ele>1599.2</ele>
        <time>2025-08-15T12:32:11Z</time>
      </trkpt>
      <trkpt lat="45.77275" lon="6.53642">
        <ele>1599.3</ele>
        <time>2025-08-15T12:32:12Z</time>
      </trkpt>
      <trkpt lat="45.77277" lon="6.5364">
        <ele>1599.3</ele>
        <time>2025-08-15T12:32:13Z</time>
      </trkpt>
      <trkpt lat="45.77278" lon="6.53639">
        <ele>1599.4</ele>
        <time>2025-08-15T12:32:14Z</time>
      </trkpt>
      <trkpt lat="45.77278" lon="6.53636">
        <ele>1599.4</ele>
        <time>2025-08-15T12:32:15Z</time>
      </trkpt>
      <trkpt lat="45.77278" lon="6.53634">
        <ele>1599.5</ele>
        <time>2025-08-15T12:32:16Z</time>
      </trkpt>
      <trkpt lat="45.77277" lon="6.53632">
        <ele>1599.5</ele>
        <time>2025-08-15T12:32:17Z</time>
      </trkpt>
      <trkpt lat="45.77279" lon="6.5363">
        <ele>1599.5</ele>
        <time>2025-08-15T12:32:18Z</time>
      </trkpt>
      <trkpt lat="45.7728" lon="6.53631">
        <ele>1599.6</ele>
        <time>2025-08-15T12:32:19Z</time>
      </trkpt>
      <trkpt lat="45.7728" lon="6.53631">
        <ele>1599.6</ele>
        <time>2025-08-15T12:32:20Z</time>
      </trkpt>
      <trkpt lat="45.77281" lon="6.53632">
        <ele>1599.6</ele>
        <time>2025-08-15T12:32:21Z</time>
      </trkpt>
      <trkpt lat="45.77281" lon="6.53632">
        <ele>1599.6</ele>
        <time>2025-08-15T12:32:22Z</time>
      </trkpt>
      <trkpt lat="45.77282" lon="6.53632">
        <ele>1599.6</ele>
        <time>2025-08-15T12:32:23Z</time>
      </trkpt>
      <trkpt lat="45.77283" lon="6.53632">
        <ele>1599.7</ele>
        <time>2025-08-15T12:32:24Z</time>
      </trkpt>
      <trkpt lat="45.77284" lon="6.53633">
        <ele>1599.7</ele>
        <time>2025-08-15T12:32:25Z</time>
      </trkpt>
      <trkpt lat="45.77284" lon="6.53634">
        <ele>1599.7</ele>
        <time>2025-08-15T12:32:26Z</time>
      </trkpt>
      <trkpt lat="45.77284" lon="6.53634">
        <ele>1599.7</ele>
        <time>2025-08-15T12:32:27Z</time>
      </trkpt>
      <trkpt lat="45.77285" lon="6.53636">
        <ele>1599.7</ele>
        <time>2025-08-15T12:32:28Z</time>
      </trkpt>
      <trkpt lat="45.77284" lon="6.53637">
        <ele>1599.8</ele>
        <time>2025-08-15T12:32:29Z</time>
      </trkpt>
      <trkpt lat="45.77282" lon="6.53637">
        <ele>1599.8</ele>
        <time>2025-08-15T12:32:30Z</time>
      </trkpt>
      <trkpt lat="45.77281" lon="6.53637">
        <ele>1599.8</ele>
        <time>2025-08-15T12:32:31Z</time>
      </trkpt>
      <trkpt lat="45.77279" lon="6.53636">
        <ele>1599.8</ele>
        <time>2025-08-15T12:32:32Z</time>
      </trkpt>
      <trkpt lat="45.77278" lon="6.53632">
        <ele>1599.7</ele>
        <time>2025-08-15T12:32:33Z</time>
      </trkpt>
      <trkpt lat="45.77278" lon="6.5363">
        <ele>1599.7</ele>
        <time>2025-08-15T12:32:34Z</time>
      </trkpt>
      <trkpt lat="45.77279" lon="6.5363">
        <ele>1599.6</ele>
        <time>2025-08-15T12:32:35Z</time>
      </trkpt>
      <trkpt lat="45.77279" lon="6.53629">
        <ele>1599.6</ele>
        <time>2025-08-15T12:32:36Z</time>
      </trkpt>
      <trkpt lat="45.7728" lon="6.53628">
        <ele>1599.6</ele>
        <time>2025-08-15T12:32:37Z</time>
      </trkpt>
      <trkpt lat="45.7728" lon="6.53627">
        <ele>1599.6</ele>
        <time>2025-08-15T12:32:38Z</time>
      </trkpt>
      <trkpt lat="45.77279" lon="6.53625">
        <ele>1599.5</ele>
        <time>2025-08-15T12:32:39Z</time>
      </trkpt>
      <trkpt lat="45.77277" lon="6.53624">
        <ele>1599.4</ele>
        <time>2025-08-15T12:32:40Z</time>
      </trkpt>
      <trkpt lat="45.77276" lon="6.53624">
        <ele>1599.4</ele>
        <time>2025-08-15T12:32:41Z</time>
      </trkpt>
      <trkpt lat="45.77275" lon="6.53624">
        <ele>1599.4</ele>
        <time>2025-08-15T12:32:42Z</time>
      </trkpt>
      <trkpt lat="45.77274" lon="6.53624">
        <ele>1599.3</ele>
        <time>2025-08-15T12:32:43Z</time>
      </trkpt>
      <trkpt lat="45.77273" lon="6.53624">
        <ele>1599.3</ele>
        <time>2025-08-15T12:32:44Z</time>
      </trkpt>
      <trkpt lat="45.77273" lon="6.53624">
        <ele>1599.3</ele>
        <time>2025-08-15T12:32:45Z</time>
      </trkpt>
      <trkpt lat="45.77273" lon="6.53625">
        <ele>1599.3</ele>
        <time>2025-08-15T12:32:46Z</time>
      </trkpt>
      <trkpt lat="45.77273" lon="6.53625">
        <ele>1599.3</ele>
        <time>2025-08-15T12:32:47Z</time>
      </trkpt>
      <trkpt lat="45.77272" lon="6.53626">
        <ele>1599.2</ele>
        <time>2025-08-15T12:32:48Z</time>
      </trkpt>
      <trkpt lat="45.77272" lon="6.53626">
        <ele>1599.2</ele>
        <time>2025-08-15T12:32:49Z</time>
      </trkpt>
      <trkpt lat="45.77272" lon="6.53626">
        <ele>1599.2</ele>
        <time>2025-08-15T12:32:50Z</time>
      </trkpt>
      <trkpt lat="45.77272" lon="6.53627">
        <ele>1599.2</ele>
        <time>2025-08-15T12:32:51Z</time>
      </trkpt>
      <trkpt lat="45.77272" lon="6.53627">
        <ele>1599.2</ele>
        <time>2025-08-15T12:32:52Z</time>
      </trkpt>
      <trkpt lat="45.77271" lon="6.53628">
        <ele>1599.2</ele>
        <time>2025-08-15T12:32:53Z</time>
      </trkpt>
      <trkpt lat="45.77271" lon="6.53628">
        <ele>1599.2</ele>
        <time>2025-08-15T12:32:54Z</time>
      </trkpt>
      <trkpt lat="45.77271" lon="6.53629">
        <ele>1599.1</ele>
        <time>2025-08-15T12:36:57Z</time>
      </trkpt>
      <trkpt lat="45.77271" lon="6.53629">
        <ele>1599.1</ele>
        <time>2025-08-15T12:36:58Z</time>
      </trkpt>
      <trkpt lat="45.77267" lon="6.53631">
        <ele>1599</ele>
        <time>2025-08-15T12:36:59Z</time>
      </trkpt>
      <trkpt lat="45.77266" lon="6.53632">
        <ele>1598.9</ele>
        <time>2025-08-15T12:37:00Z</time>
      </trkpt>
      <trkpt lat="45.77262" lon="6.53633">
        <ele>1598.8</ele>
        <time>2025-08-15T12:37:01Z</time>
      </trkpt>
      <trkpt lat="45.77259" lon="6.53635">
        <ele>1598.6</ele>
        <time>2025-08-15T12:37:02Z</time>
      </trkpt>
      <trkpt lat="45.77255" lon="6.53635">
        <ele>1598.4</ele>
        <time>2025-08-15T12:37:03Z</time>
      </trkpt>
      <trkpt lat="45.77251" lon="6.53636">
        <ele>1598.2</ele>
        <time>2025-08-15T12:37:04Z</time>
      </trkpt>
      <trkpt lat="45.77245" lon="6.53636">
        <ele>1597.8</ele>
        <time>2025-08-15T12:37:05Z</time>
      </trkpt>
      <trkpt lat="45.77239" lon="6.53635">
        <ele>1597.5</ele>
        <time>2025-08-15T12:37:06Z</time>
      </trkpt>
      <trkpt lat="45.77234" lon="6.53634">
        <ele>1597.1</ele>
        <time>2025-08-15T12:37:07Z</time>
      </trkpt>
      <trkpt lat="45.77228" lon="6.5363">
        <ele>1596.7</ele>
        <time>2025-08-15T12:37:08Z</time>
      </trkpt>
      <trkpt lat="45.77222" lon="6.53625">
        <ele>1596.6</ele>
        <time>2025-08-15T12:37:09Z</time>
      </trkpt>
      <trkpt lat="45.77218" lon="6.53619">
        <ele>1596.6</ele>
        <time>2025-08-15T12:37:10Z</time>
      </trkpt>
      <trkpt lat="45.77213" lon="6.53613">
        <ele>1596.6</ele>
        <time>2025-08-15T12:37:11Z</time>
      </trkpt>
      <trkpt lat="45.77209" lon="6.53606">
        <ele>1596.6</ele>
        <time>2025-08-15T12:37:12Z</time>
      </trkpt>
      <trkpt lat="45.77205" lon="6.53599">
        <ele>1596.6</ele>
        <time>2025-08-15T12:37:13Z</time>
      </trkpt>
      <trkpt lat="45.77202" lon="6.53593">
        <ele>1596.7</ele>
        <time>2025-08-15T12:37:14Z</time>
      </trkpt>
      <trkpt lat="45.77199" lon="6.53588">
        <ele>1596.7</ele>
        <time>2025-08-15T12:37:15Z</time>
      </trkpt>
      <trkpt lat="45.77196" lon="6.53583">
        <ele>1596.8</ele>
        <time>2025-08-15T12:37:16Z</time>
      </trkpt>
      <trkpt lat="45.77193" lon="6.53578">
        <ele>1596.8</ele>
        <time>2025-08-15T12:37:17Z</time>
      </trkpt>
      <trkpt lat="45.77192" lon="6.53574">
        <ele>1596.8</ele>
        <time>2025-08-15T12:37:18Z</time>
      </trkpt>
      <trkpt lat="45.77192" lon="6.53568">
        <ele>1596.8</ele>
        <time>2025-08-15T12:37:19Z</time>
      </trkpt>
      <trkpt lat="45.77192" lon="6.53566">
        <ele>1596.8</ele>
        <time>2025-08-15T12:37:20Z</time>
      </trkpt>
      <trkpt lat="45.77191" lon="6.53561">
        <ele>1596.6</ele>
        <time>2025-08-15T12:37:21Z</time>
      </trkpt>
      <trkpt lat="45.7719" lon="6.53559">
        <ele>1596.6</ele>
        <time>2025-08-15T12:37:22Z</time>
      </trkpt>
      <trkpt lat="45.7719" lon="6.53555">
        <ele>1596.5</ele>
        <time>2025-08-15T12:37:23Z</time>
      </trkpt>
      <trkpt lat="45.77189" lon="6.53551">
        <ele>1596.3</ele>
        <time>2025-08-15T12:37:24Z</time>
      </trkpt>
      <trkpt lat="45.77188" lon="6.53546">
        <ele>1596.1</ele>
        <time>2025-08-15T12:37:25Z</time>
      </trkpt>
      <trkpt lat="45.77187" lon="6.53542">
        <ele>1595.8</ele>
        <time>2025-08-15T12:37:26Z</time>
      </trkpt>
      <trkpt lat="45.77185" lon="6.53537">
        <ele>1595.6</ele>
        <time>2025-08-15T12:37:27Z</time>
      </trkpt>
      <trkpt lat="45.77184" lon="6.53533">
        <ele>1595.3</ele>
        <time>2025-08-15T12:37:28Z</time>
      </trkpt>
      <trkpt lat="45.77182" lon="6.53527">
        <ele>1594.8</ele>
        <time>2025-08-15T12:37:29Z</time>
      </trkpt>
      <trkpt lat="45.7718" lon="6.53522">
        <ele>1594.4</ele>
        <time>2025-08-15T12:37:30Z</time>
      </trkpt>
      <trkpt lat="45.77179" lon="6.53516">
        <ele>1594</ele>
        <time>2025-08-15T12:37:31Z</time>
      </trkpt>
      <trkpt lat="45.77178" lon="6.5351">
        <ele>1593.6</ele>
        <time>2025-08-15T12:37:32Z</time>
      </trkpt>
      <trkpt lat="45.77176" lon="6.53505">
        <ele>1593.2</ele>
        <time>2025-08-15T12:37:33Z</time>
      </trkpt>
      <trkpt lat="45.77175" lon="6.535">
        <ele>1592.7</ele>
        <time>2025-08-15T12:37:34Z</time>
      </trkpt>
      <trkpt lat="45.77175" lon="6.53494">
        <ele>1592.3</ele>
        <time>2025-08-15T12:37:35Z</time>
      </trkpt>
      <trkpt lat="45.77175" lon="6.53488">
        <ele>1591.8</ele>
        <time>2025-08-15T12:37:36Z</time>
      </trkpt>
      <trkpt lat="45.77176" lon="6.53482">
        <ele>1591.3</ele>
        <time>2025-08-15T12:37:37Z</time>
      </trkpt>
      <trkpt lat="45.77177" lon="6.53477">
        <ele>1590.9</ele>
        <time>2025-08-15T12:37:38Z</time>
      </trkpt>
      <trkpt lat="45.77176" lon="6.53472">
        <ele>1590.9</ele>
        <time>2025-08-15T12:37:39Z</time>
      </trkpt>
      <trkpt lat="45.77175" lon="6.53467">
        <ele>1591.4</ele>
        <time>2025-08-15T12:37:40Z</time>
      </trkpt>
      <trkpt lat="45.77175" lon="6.53462">
        <ele>1591.9</ele>
        <time>2025-08-15T12:37:41Z</time>
      </trkpt>
      <trkpt lat="45.77174" lon="6.53457">
        <ele>1592.9</ele>
        <time>2025-08-15T12:37:42Z</time>
      </trkpt>
      <trkpt lat="45.77174" lon="6.53452">
        <ele>1593.3</ele>
        <time>2025-08-15T12:37:43Z</time>
      </trkpt>
      <trkpt lat="45.77172" lon="6.53448">
        <ele>1593.7</ele>
        <time>2025-08-15T12:37:44Z</time>
      </trkpt>
      <trkpt lat="45.77171" lon="6.53443">
        <ele>1594</ele>
        <time>2025-08-15T12:37:45Z</time>
      </trkpt>
      <trkpt lat="45.77171" lon="6.53438">
        <ele>1594.3</ele>
        <time>2025-08-15T12:37:46Z</time>
      </trkpt>
      <trkpt lat="45.77169" lon="6.53432">
        <ele>1594.7</ele>
        <time>2025-08-15T12:37:47Z</time>
      </trkpt>
      <trkpt lat="45.77169" lon="6.53428">
        <ele>1595.1</ele>
        <time>2025-08-15T12:37:48Z</time>
      </trkpt>
      <trkpt lat="45.77169" lon="6.53423">
        <ele>1594.5</ele>
        <time>2025-08-15T12:37:49Z</time>
      </trkpt>
      <trkpt lat="45.77169" lon="6.53418">
        <ele>1593.8</ele>
        <time>2025-08-15T12:37:50Z</time>
      </trkpt>
      <trkpt lat="45.7717" lon="6.53411">
        <ele>1592.9</ele>
        <time>2025-08-15T12:37:51Z</time>
      </trkpt>
      <trkpt lat="45.7717" lon="6.53404">
        <ele>1592.1</ele>
        <time>2025-08-15T12:37:52Z</time>
      </trkpt>
      <trkpt lat="45.77171" lon="6.53398">
        <ele>1591.3</ele>
        <time>2025-08-15T12:37:53Z</time>
      </trkpt>
      <trkpt lat="45.77171" lon="6.53392">
        <ele>1590.5</ele>
        <time>2025-08-15T12:37:54Z</time>
      </trkpt>
      <trkpt lat="45.77172" lon="6.53386">
        <ele>1589.7</ele>
        <time>2025-08-15T12:37:55Z</time>
      </trkpt>
      <trkpt lat="45.77173" lon="6.53382">
        <ele>1589.1</ele>
        <time>2025-08-15T12:37:56Z</time>
      </trkpt>
      <trkpt lat="45.77173" lon="6.53377">
        <ele>1588.4</ele>
        <time>2025-08-15T12:37:57Z</time>
      </trkpt>
      <trkpt lat="45.77173" lon="6.53371">
        <ele>1587.7</ele>
        <time>2025-08-15T12:37:58Z</time>
      </trkpt>
      <trkpt lat="45.77173" lon="6.53367">
        <ele>1587.1</ele>
        <time>2025-08-15T12:37:59Z</time>
      </trkpt>
      <trkpt lat="45.77173" lon="6.53362">
        <ele>1586.4</ele>
        <time>2025-08-15T12:38:00Z</time>
      </trkpt>
      <trkpt lat="45.77173" lon="6.53356">
        <ele>1585.8</ele>
        <time>2025-08-15T12:38:01Z</time>
      </trkpt>
      <trkpt lat="45.77174" lon="6.53351">
        <ele>1585.1</ele>
        <time>2025-08-15T12:38:02Z</time>
      </trkpt>
      <trkpt lat="45.77175" lon="6.53344">
        <ele>1584.4</ele>
        <time>2025-08-15T12:38:03Z</time>
      </trkpt>
      <trkpt lat="45.77175" lon="6.53338">
        <ele>1583.7</ele>
        <time>2025-08-15T12:38:04Z</time>
      </trkpt>
      <trkpt lat="45.77175" lon="6.53331">
        <ele>1582.9</ele>
        <time>2025-08-15T12:38:05Z</time>
      </trkpt>
      <trkpt lat="45.77176" lon="6.53325">
        <ele>1582.3</ele>
        <time>2025-08-15T12:38:06Z</time>
      </trkpt>
      <trkpt lat="45.77176" lon="6.53319">
        <ele>1581.6</ele>
        <time>2025-08-15T12:38:07Z</time>
      </trkpt>
      <trkpt lat="45.77177" lon="6.53314">
        <ele>1581</ele>
        <time>2025-08-15T12:38:08Z</time>
      </trkpt>
      <trkpt lat="45.77177" lon="6.53309">
        <ele>1580.5</ele>
        <time>2025-08-15T12:38:09Z</time>
      </trkpt>
      <trkpt lat="45.77177" lon="6.53305">
        <ele>1580.1</ele>
        <time>2025-08-15T12:38:10Z</time>
      </trkpt>
      <trkpt lat="45.77177" lon="6.533">
        <ele>1579.5</ele>
        <time>2025-08-15T12:38:11Z</time>
      </trkpt>
      <trkpt lat="45.77177" lon="6.53296">
        <ele>1579</ele>
        <time>2025-08-15T12:38:12Z</time>
      </trkpt>
      <trkpt lat="45.77178" lon="6.53292">
        <ele>1578.5</ele>
        <time>2025-08-15T12:38:13Z</time>
      </trkpt>
      <trkpt lat="45.7718" lon="6.53287">
        <ele>1577.8</ele>
        <time>2025-08-15T12:38:14Z</time>
      </trkpt>
      <trkpt lat="45.77181" lon="6.53281">
        <ele>1577</ele>
        <time>2025-08-15T12:38:15Z</time>
      </trkpt>
      <trkpt lat="45.77183" lon="6.53275">
        <ele>1576.2</ele>
        <time>2025-08-15T12:38:16Z</time>
      </trkpt>
      <trkpt lat="45.77183" lon="6.53269">
        <ele>1575.4</ele>
        <time>2025-08-15T12:38:17Z</time>
      </trkpt>
      <trkpt lat="45.77184" lon="6.53264">
        <ele>1574.7</ele>
        <time>2025-08-15T12:38:18Z</time>
      </trkpt>
      <trkpt lat="45.77185" lon="6.53259">
        <ele>1573.9</ele>
        <time>2025-08-15T12:38:19Z</time>
      </trkpt>
      <trkpt lat="45.77185" lon="6.53252">
        <ele>1573.1</ele>
        <time>2025-08-15T12:38:20Z</time>
      </trkpt>
      <trkpt lat="45.77186" lon="6.53246">
        <ele>1572.3</ele>
        <time>2025-08-15T12:38:21Z</time>
      </trkpt>
      <trkpt lat="45.77186" lon="6.5324">
        <ele>1571.5</ele>
        <time>2025-08-15T12:38:22Z</time>
      </trkpt>
      <trkpt lat="45.77187" lon="6.53234">
        <ele>1570.9</ele>
        <time>2025-08-15T12:38:23Z</time>
      </trkpt>
      <trkpt lat="45.77188" lon="6.53227">
        <ele>1570.1</ele>
        <time>2025-08-15T12:38:24Z</time>
      </trkpt>
      <trkpt lat="45.77188" lon="6.53222">
        <ele>1569.4</ele>
        <time>2025-08-15T12:38:25Z</time>
      </trkpt>
      <trkpt lat="45.77188" lon="6.53217">
        <ele>1568.8</ele>
        <time>2025-08-15T12:38:26Z</time>
      </trkpt>
      <trkpt lat="45.77188" lon="6.53213">
        <ele>1568.2</ele>
        <time>2025-08-15T12:38:27Z</time>
      </trkpt>
      <trkpt lat="45.77188" lon="6.53209">
        <ele>1567.7</ele>
        <time>2025-08-15T12:38:28Z</time>
      </trkpt>
      <trkpt lat="45.77188" lon="6.53205">
        <ele>1567.3</ele>
        <time>2025-08-15T12:38:29Z</time>
      </trkpt>
      <trkpt lat="45.77189" lon="6.53202">
        <ele>1566.8</ele>
        <time>2025-08-15T12:38:31Z</time>
      </trkpt>
      <trkpt lat="45.77189" lon="6.532">
        <ele>1566.5</ele>
        <time>2025-08-15T12:38:32Z</time>
      </trkpt>
      <trkpt lat="45.7719" lon="6.53198">
        <ele>1566.2</ele>
        <time>2025-08-15T12:38:33Z</time>
      </trkpt>
      <trkpt lat="45.77192" lon="6.53194">
        <ele>1565.7</ele>
        <time>2025-08-15T12:38:34Z</time>
      </trkpt>
      <trkpt lat="45.77192" lon="6.53193">
        <ele>1565.5</ele>
        <time>2025-08-15T12:38:35Z</time>
      </trkpt>
      <trkpt lat="45.77193" lon="6.53189">
        <ele>1564.5</ele>
        <time>2025-08-15T12:38:36Z</time>
      </trkpt>
      <trkpt lat="45.77193" lon="6.53187">
        <ele>1564.5</ele>
        <time>2025-08-15T12:38:37Z</time>
      </trkpt>
      <trkpt lat="45.77195" lon="6.53182">
        <ele>1564.1</ele>
        <time>2025-08-15T12:38:38Z</time>
      </trkpt>
      <trkpt lat="45.77195" lon="6.53181">
        <ele>1564.1</ele>
        <time>2025-08-15T12:38:39Z</time>
      </trkpt>
      <trkpt lat="45.77197" lon="6.53176">
        <ele>1563</ele>
        <time>2025-08-15T12:38:40Z</time>
      </trkpt>
      <trkpt lat="45.77197" lon="6.53174">
        <ele>1563</ele>
        <time>2025-08-15T12:38:41Z</time>
      </trkpt>
      <trkpt lat="45.77198" lon="6.5317">
        <ele>1562.6</ele>
        <time>2025-08-15T12:38:42Z</time>
      </trkpt>
      <trkpt lat="45.77199" lon="6.53168">
        <ele>1562.2</ele>
        <time>2025-08-15T12:38:43Z</time>
      </trkpt>
      <trkpt lat="45.772" lon="6.53163">
        <ele>1561.9</ele>
        <time>2025-08-15T12:38:44Z</time>
      </trkpt>
      <trkpt lat="45.772" lon="6.53162">
        <ele>1561.6</ele>
        <time>2025-08-15T12:38:45Z</time>
      </trkpt>
      <trkpt lat="45.77201" lon="6.53157">
        <ele>1561.4</ele>
        <time>2025-08-15T12:38:46Z</time>
      </trkpt>
      <trkpt lat="45.77201" lon="6.53156">
        <ele>1561.4</ele>
        <time>2025-08-15T12:38:47Z</time>
      </trkpt>
      <trkpt lat="45.77202" lon="6.53151">
        <ele>1560.9</ele>
        <time>2025-08-15T12:38:48Z</time>
      </trkpt>
      <trkpt lat="45.77202" lon="6.5315">
        <ele>1560.8</ele>
        <time>2025-08-15T12:38:49Z</time>
      </trkpt>
      <trkpt lat="45.77203" lon="6.53146">
        <ele>1560.8</ele>
        <time>2025-08-15T12:38:50Z</time>
      </trkpt>
      <trkpt lat="45.77203" lon="6.53145">
        <ele>1560.7</ele>
        <time>2025-08-15T12:38:51Z</time>
      </trkpt>
      <trkpt lat="45.77204" lon="6.53143">
        <ele>1560.6</ele>
        <time>2025-08-15T12:38:52Z</time>
      </trkpt>
      <trkpt lat="45.77205" lon="6.53141">
        <ele>1560.4</ele>
        <time>2025-08-15T12:38:53Z</time>
      </trkpt>
      <trkpt lat="45.77207" lon="6.5314">
        <ele>1560.4</ele>
        <time>2025-08-15T12:38:54Z</time>
      </trkpt>
      <trkpt lat="45.77208" lon="6.53139">
        <ele>1560.3</ele>
        <time>2025-08-15T12:38:55Z</time>
      </trkpt>
      <trkpt lat="45.77209" lon="6.53138">
        <ele>1560.3</ele>
        <time>2025-08-15T12:38:56Z</time>
      </trkpt>
      <trkpt lat="45.7721" lon="6.53136">
        <ele>1560.2</ele>
        <time>2025-08-15T12:38:57Z</time>
      </trkpt>
      <trkpt lat="45.77212" lon="6.53134">
        <ele>1560</ele>
        <time>2025-08-15T12:38:58Z</time>
      </trkpt>
      <trkpt lat="45.77213" lon="6.53134">
        <ele>1559.9</ele>
        <time>2025-08-15T12:38:59Z</time>
      </trkpt>
      <trkpt lat="45.77215" lon="6.53134">
        <ele>1559.9</ele>
        <time>2025-08-15T12:39:00Z</time>
      </trkpt>
      <trkpt lat="45.77216" lon="6.53135">
        <ele>1559.9</ele>
        <time>2025-08-15T12:39:01Z</time>
      </trkpt>
      <trkpt lat="45.77218" lon="6.53135">
        <ele>1559.7</ele>
        <time>2025-08-15T12:39:02Z</time>
      </trkpt>
      <trkpt lat="45.77218" lon="6.53136">
        <ele>1559.7</ele>
        <time>2025-08-15T12:39:03Z</time>
      </trkpt>
      <trkpt lat="45.77219" lon="6.53136">
        <ele>1559.5</ele>
        <time>2025-08-15T12:39:04Z</time>
      </trkpt>
      <trkpt lat="45.77221" lon="6.53136">
        <ele>1559.5</ele>
        <time>2025-08-15T12:39:05Z</time>
      </trkpt>
      <trkpt lat="45.77223" lon="6.53134">
        <ele>1559.3</ele>
        <time>2025-08-15T12:39:06Z</time>
      </trkpt>
      <trkpt lat="45.77223" lon="6.53133">
        <ele>1559.2</ele>
        <time>2025-08-15T12:39:07Z</time>
      </trkpt>
      <trkpt lat="45.77223" lon="6.53131">
        <ele>1559.2</ele>
        <time>2025-08-15T12:39:08Z</time>
      </trkpt>
      <trkpt lat="45.77224" lon="6.5313">
        <ele>1559.2</ele>
        <time>2025-08-15T12:39:09Z</time>
      </trkpt>
      <trkpt lat="45.77224" lon="6.53129">
        <ele>1559.1</ele>
        <time>2025-08-15T12:39:10Z</time>
      </trkpt>
      <trkpt lat="45.77224" lon="6.53128">
        <ele>1559.1</ele>
        <time>2025-08-15T12:39:11Z</time>
      </trkpt>
      <trkpt lat="45.77224" lon="6.53127">
        <ele>1559.1</ele>
        <time>2025-08-15T12:39:12Z</time>
      </trkpt>
      <trkpt lat="45.77224" lon="6.53128">
        <ele>1559.1</ele>
        <time>2025-08-15T12:39:13Z</time>
      </trkpt>
      <trkpt lat="45.77224" lon="6.53128">
        <ele>1559</ele>
        <time>2025-08-15T12:39:14Z</time>
      </trkpt>
      <trkpt lat="45.77224" lon="6.53128">
        <ele>1559</ele>
        <time>2025-08-15T12:39:15Z</time>
      </trkpt>
      <trkpt lat="45.77224" lon="6.53128">
        <ele>1559</ele>
        <time>2025-08-15T12:39:16Z</time>
      </trkpt>
      <trkpt lat="45.77224" lon="6.53128">
        <ele>1559</ele>
        <time>2025-08-15T12:39:17Z</time>
      </trkpt>
      <trkpt lat="45.77224" lon="6.53128">
        <ele>1559</ele>
        <time>2025-08-15T12:39:18Z</time>
      </trkpt>
      <trkpt lat="45.77224" lon="6.53128">
        <ele>1559</ele>
        <time>2025-08-15T12:39:19Z</time>
      </trkpt>
      <trkpt lat="45.77224" lon="6.53128">
        <ele>1559</ele>
        <time>2025-08-15T12:39:20Z</time>
      </trkpt>
      <trkpt lat="45.77224" lon="6.53128">
        <ele>1559</ele>
        <time>2025-08-15T12:39:21Z</time>
      </trkpt>
      <trkpt lat="45.77224" lon="6.53117">
        <ele>1558.7</ele>
        <time>2025-08-15T12:39:30Z</time>
      </trkpt>
      <trkpt lat="45.77224" lon="6.53115">
        <ele>1558.6</ele>
        <time>2025-08-15T12:39:31Z</time>
      </trkpt>
      <trkpt lat="45.77224" lon="6.53114">
        <ele>1558.6</ele>
        <time>2025-08-15T12:39:32Z</time>
      </trkpt>
      <trkpt lat="45.77225" lon="6.53113">
        <ele>1558.5</ele>
        <time>2025-08-15T12:39:33Z</time>
      </trkpt>
      <trkpt lat="45.77225" lon="6.53111">
        <ele>1558.2</ele>
        <time>2025-08-15T12:39:34Z</time>
      </trkpt>
      <trkpt lat="45.77226" lon="6.53106">
        <ele>1557.9</ele>
        <time>2025-08-15T12:39:35Z</time>
      </trkpt>
      <trkpt lat="45.77227" lon="6.53104">
        <ele>1557.9</ele>
        <time>2025-08-15T12:39:36Z</time>
      </trkpt>
      <trkpt lat="45.7723" lon="6.531">
        <ele>1557.4</ele>
        <time>2025-08-15T12:39:37Z</time>
      </trkpt>
      <trkpt lat="45.77233" lon="6.53095">
        <ele>1556.9</ele>
        <time>2025-08-15T12:39:38Z</time>
      </trkpt>
      <trkpt lat="45.77236" lon="6.53091">
        <ele>1556.3</ele>
        <time>2025-08-15T12:39:39Z</time>
      </trkpt>
      <trkpt lat="45.77239" lon="6.53087">
        <ele>1555.6</ele>
        <time>2025-08-15T12:39:40Z</time>
      </trkpt>
      <trkpt lat="45.7724" lon="6.53082">
        <ele>1555.1</ele>
        <time>2025-08-15T12:39:41Z</time>
      </trkpt>
      <trkpt lat="45.7724" lon="6.53078">
        <ele>1554.6</ele>
        <time>2025-08-15T12:39:42Z</time>
      </trkpt>
      <trkpt lat="45.7724" lon="6.53077">
        <ele>1554.2</ele>
        <time>2025-08-15T12:39:43Z</time>
      </trkpt>
      <trkpt lat="45.7724" lon="6.53073">
        <ele>1554.2</ele>
        <time>2025-08-15T12:39:44Z</time>
      </trkpt>
      <trkpt lat="45.77239" lon="6.53069">
        <ele>1553.8</ele>
        <time>2025-08-15T12:39:45Z</time>
      </trkpt>
      <trkpt lat="45.77237" lon="6.53065">
        <ele>1553.7</ele>
        <time>2025-08-15T12:39:46Z</time>
      </trkpt>
      <trkpt lat="45.77234" lon="6.53061">
        <ele>1553.6</ele>
        <time>2025-08-15T12:39:47Z</time>
      </trkpt>
      <trkpt lat="45.77233" lon="6.53055">
        <ele>1553.1</ele>
        <time>2025-08-15T12:39:48Z</time>
      </trkpt>
      <trkpt lat="45.77231" lon="6.53052">
        <ele>1553.3</ele>
        <time>2025-08-15T12:39:49Z</time>
      </trkpt>
      <trkpt lat="45.7723" lon="6.53047">
        <ele>1553.1</ele>
        <time>2025-08-15T12:39:50Z</time>
      </trkpt>
      <trkpt lat="45.77229" lon="6.53046">
        <ele>1552.8</ele>
        <time>2025-08-15T12:39:51Z</time>
      </trkpt>
      <trkpt lat="45.77227" lon="6.53041">
        <ele>1552.9</ele>
        <time>2025-08-15T12:39:52Z</time>
      </trkpt>
      <trkpt lat="45.77227" lon="6.53039">
        <ele>1552.6</ele>
        <time>2025-08-15T12:39:53Z</time>
      </trkpt>
      <trkpt lat="45.77227" lon="6.53034">
        <ele>1552.4</ele>
        <time>2025-08-15T12:39:54Z</time>
      </trkpt>
      <trkpt lat="45.77229" lon="6.53028">
        <ele>1551.7</ele>
        <time>2025-08-15T12:39:55Z</time>
      </trkpt>
      <trkpt lat="45.7723" lon="6.53023">
        <ele>1551.4</ele>
        <time>2025-08-15T12:39:56Z</time>
      </trkpt>
      <trkpt lat="45.77231" lon="6.53017">
        <ele>1551.1</ele>
        <time>2025-08-15T12:39:57Z</time>
      </trkpt>
      <trkpt lat="45.77231" lon="6.53012">
        <ele>1550.4</ele>
        <time>2025-08-15T12:39:58Z</time>
      </trkpt>
      <trkpt lat="45.77232" lon="6.53008">
        <ele>1549.7</ele>
        <time>2025-08-15T12:39:59Z</time>
      </trkpt>
      <trkpt lat="45.77233" lon="6.53003">
        <ele>1549.2</ele>
        <time>2025-08-15T12:40:00Z</time>
      </trkpt>
      <trkpt lat="45.77234" lon="6.52999">
        <ele>1548.8</ele>
        <time>2025-08-15T12:40:01Z</time>
      </trkpt>
      <trkpt lat="45.77236" lon="6.52995">
        <ele>1548</ele>
        <time>2025-08-15T12:40:02Z</time>
      </trkpt>
      <trkpt lat="45.77238" lon="6.52991">
        <ele>1547.6</ele>
        <time>2025-08-15T12:40:03Z</time>
      </trkpt>
      <trkpt lat="45.7724" lon="6.52988">
        <ele>1547.2</ele>
        <time>2025-08-15T12:40:04Z</time>
      </trkpt>
      <trkpt lat="45.77241" lon="6.52985">
        <ele>1546.5</ele>
        <time>2025-08-15T12:40:05Z</time>
      </trkpt>
      <trkpt lat="45.77243" lon="6.52981">
        <ele>1546.2</ele>
        <time>2025-08-15T12:40:06Z</time>
      </trkpt>
      <trkpt lat="45.77245" lon="6.52978">
        <ele>1545.5</ele>
        <time>2025-08-15T12:40:07Z</time>
      </trkpt>
      <trkpt lat="45.77245" lon="6.52974">
        <ele>1545.3</ele>
        <time>2025-08-15T12:40:08Z</time>
      </trkpt>
      <trkpt lat="45.77246" lon="6.52968">
        <ele>1545</ele>
        <time>2025-08-15T12:40:09Z</time>
      </trkpt>
      <trkpt lat="45.77247" lon="6.52966">
        <ele>1544.6</ele>
        <time>2025-08-15T12:40:10Z</time>
      </trkpt>
      <trkpt lat="45.7725" lon="6.52963">
        <ele>1544</ele>
        <time>2025-08-15T12:40:11Z</time>
      </trkpt>
      <trkpt lat="45.7725" lon="6.52962">
        <ele>1544</ele>
        <time>2025-08-15T12:40:12Z</time>
      </trkpt>
      <trkpt lat="45.77252" lon="6.52959">
        <ele>1543.8</ele>
        <time>2025-08-15T12:40:13Z</time>
      </trkpt>
      <trkpt lat="45.77255" lon="6.52955">
        <ele>1543.2</ele>
        <time>2025-08-15T12:40:14Z</time>
      </trkpt>
      <trkpt lat="45.77256" lon="6.52955">
        <ele>1542.9</ele>
        <time>2025-08-15T12:40:15Z</time>
      </trkpt>
      <trkpt lat="45.77258" lon="6.52951">
        <ele>1542.7</ele>
        <time>2025-08-15T12:40:16Z</time>
      </trkpt>
      <trkpt lat="45.77259" lon="6.52948">
        <ele>1542.1</ele>
        <time>2025-08-15T12:40:17Z</time>
      </trkpt>
      <trkpt lat="45.77262" lon="6.52945">
        <ele>1541.7</ele>
        <time>2025-08-15T12:40:18Z</time>
      </trkpt>
      <trkpt lat="45.77265" lon="6.52943">
        <ele>1541.1</ele>
        <time>2025-08-15T12:40:19Z</time>
      </trkpt>
      <trkpt lat="45.77267" lon="6.52942">
        <ele>1541.1</ele>
        <time>2025-08-15T12:40:20Z</time>
      </trkpt>
      <trkpt lat="45.7727" lon="6.5294">
        <ele>1540.7</ele>
        <time>2025-08-15T12:40:21Z</time>
      </trkpt>
      <trkpt lat="45.77272" lon="6.52939">
        <ele>1540.1</ele>
        <time>2025-08-15T12:40:22Z</time>
      </trkpt>
      <trkpt lat="45.77274" lon="6.52937">
        <ele>1539.7</ele>
        <time>2025-08-15T12:40:23Z</time>
      </trkpt>
      <trkpt lat="45.77278" lon="6.52935">
        <ele>1539</ele>
        <time>2025-08-15T12:40:24Z</time>
      </trkpt>
      <trkpt lat="45.77279" lon="6.52934">
        <ele>1539</ele>
        <time>2025-08-15T12:40:25Z</time>
      </trkpt>
      <trkpt lat="45.77281" lon="6.52932">
        <ele>1538.6</ele>
        <time>2025-08-15T12:40:26Z</time>
      </trkpt>
      <trkpt lat="45.77284" lon="6.52931">
        <ele>1537.9</ele>
        <time>2025-08-15T12:40:27Z</time>
      </trkpt>
      <trkpt lat="45.77287" lon="6.5293">
        <ele>1537.6</ele>
        <time>2025-08-15T12:40:28Z</time>
      </trkpt>
      <trkpt lat="45.77288" lon="6.52929">
        <ele>1537.5</ele>
        <time>2025-08-15T12:40:29Z</time>
      </trkpt>
      <trkpt lat="45.7729" lon="6.52928">
        <ele>1537.2</ele>
        <time>2025-08-15T12:40:30Z</time>
      </trkpt>
      <trkpt lat="45.77293" lon="6.52927">
        <ele>1536.9</ele>
        <time>2025-08-15T12:40:31Z</time>
      </trkpt>
      <trkpt lat="45.77296" lon="6.52925">
        <ele>1536.3</ele>
        <time>2025-08-15T12:40:32Z</time>
      </trkpt>
      <trkpt lat="45.773" lon="6.52923">
        <ele>1536</ele>
        <time>2025-08-15T12:40:33Z</time>
      </trkpt>
      <trkpt lat="45.77303" lon="6.5292">
        <ele>1535.4</ele>
        <time>2025-08-15T12:40:34Z</time>
      </trkpt>
      <trkpt lat="45.77305" lon="6.52917">
        <ele>1534.7</ele>
        <time>2025-08-15T12:40:35Z</time>
      </trkpt>
      <trkpt lat="45.77308" lon="6.52914">
        <ele>1534.4</ele>
        <time>2025-08-15T12:40:37Z</time>
      </trkpt>
      <trkpt lat="45.77309" lon="6.52913">
        <ele>1534</ele>
        <time>2025-08-15T12:40:38Z</time>
      </trkpt>
      <trkpt lat="45.7731" lon="6.52909">
        <ele>1533.4</ele>
        <time>2025-08-15T12:40:39Z</time>
      </trkpt>
      <trkpt lat="45.77311" lon="6.52908">
        <ele>1533.4</ele>
        <time>2025-08-15T12:40:40Z</time>
      </trkpt>
      <trkpt lat="45.77312" lon="6.52903">
        <ele>1532.9</ele>
        <time>2025-08-15T12:40:41Z</time>
      </trkpt>
      <trkpt lat="45.77314" lon="6.529">
        <ele>1532.6</ele>
        <time>2025-08-15T12:40:42Z</time>
      </trkpt>
      <trkpt lat="45.77317" lon="6.52897">
        <ele>1532.4</ele>
        <time>2025-08-15T12:40:43Z</time>
      </trkpt>
      <trkpt lat="45.77321" lon="6.52896">
        <ele>1532</ele>
        <time>2025-08-15T12:40:44Z</time>
      </trkpt>
      <trkpt lat="45.77324" lon="6.52897">
        <ele>1531.8</ele>
        <time>2025-08-15T12:40:45Z</time>
      </trkpt>
      <trkpt lat="45.77326" lon="6.52896">
        <ele>1531.7</ele>
        <time>2025-08-15T12:40:46Z</time>
      </trkpt>
      <trkpt lat="45.77329" lon="6.52895">
        <ele>1531.5</ele>
        <time>2025-08-15T12:40:47Z</time>
      </trkpt>
      <trkpt lat="45.77333" lon="6.52894">
        <ele>1531.4</ele>
        <time>2025-08-15T12:40:48Z</time>
      </trkpt>
      <trkpt lat="45.77336" lon="6.52893">
        <ele>1531.3</ele>
        <time>2025-08-15T12:40:49Z</time>
      </trkpt>
      <trkpt lat="45.77339" lon="6.52893">
        <ele>1531.1</ele>
        <time>2025-08-15T12:40:50Z</time>
      </trkpt>
      <trkpt lat="45.7734" lon="6.52892">
        <ele>1530.9</ele>
        <time>2025-08-15T12:40:51Z</time>
      </trkpt>
      <trkpt lat="45.77343" lon="6.52891">
        <ele>1530.8</ele>
        <time>2025-08-15T12:40:52Z</time>
      </trkpt>
      <trkpt lat="45.77345" lon="6.52891">
        <ele>1530.7</ele>
        <time>2025-08-15T12:40:53Z</time>
      </trkpt>
      <trkpt lat="45.77347" lon="6.52891">
        <ele>1530.7</ele>
        <time>2025-08-15T12:40:54Z</time>
      </trkpt>
      <trkpt lat="45.77348" lon="6.52891">
        <ele>1530.7</ele>
        <time>2025-08-15T12:40:55Z</time>
      </trkpt>
      <trkpt lat="45.77349" lon="6.52891">
        <ele>1530.6</ele>
        <time>2025-08-15T12:40:56Z</time>
      </trkpt>
      <trkpt lat="45.7735" lon="6.52892">
        <ele>1530.6</ele>
        <time>2025-08-15T12:40:57Z</time>
      </trkpt>
      <trkpt lat="45.77351" lon="6.52893">
        <ele>1530.7</ele>
        <time>2025-08-15T12:40:58Z</time>
      </trkpt>
      <trkpt lat="45.77352" lon="6.52892">
        <ele>1530.5</ele>
        <time>2025-08-15T12:40:59Z</time>
      </trkpt>
      <trkpt lat="45.77354" lon="6.52893">
        <ele>1530.6</ele>
        <time>2025-08-15T12:41:00Z</time>
      </trkpt>
      <trkpt lat="45.77356" lon="6.52895">
        <ele>1530.6</ele>
        <time>2025-08-15T12:41:01Z</time>
      </trkpt>
      <trkpt lat="45.77356" lon="6.52895">
        <ele>1530.5</ele>
        <time>2025-08-15T12:41:02Z</time>
      </trkpt>
      <trkpt lat="45.77357" lon="6.52896">
        <ele>1530.5</ele>
        <time>2025-08-15T12:41:03Z</time>
      </trkpt>
      <trkpt lat="45.77359" lon="6.52896">
        <ele>1530.5</ele>
        <time>2025-08-15T12:41:04Z</time>
      </trkpt>
      <trkpt lat="45.7736" lon="6.52896">
        <ele>1530.4</ele>
        <time>2025-08-15T12:41:05Z</time>
      </trkpt>
      <trkpt lat="45.77362" lon="6.52896">
        <ele>1530.4</ele>
        <time>2025-08-15T12:41:06Z</time>
      </trkpt>
      <trkpt lat="45.77363" lon="6.52896">
        <ele>1530.3</ele>
        <time>2025-08-15T12:41:07Z</time>
      </trkpt>
      <trkpt lat="45.77364" lon="6.52897">
        <ele>1530.3</ele>
        <time>2025-08-15T12:41:08Z</time>
      </trkpt>
      <trkpt lat="45.77364" lon="6.52896">
        <ele>1530.3</ele>
        <time>2025-08-15T12:41:09Z</time>
      </trkpt>
      <trkpt lat="45.77364" lon="6.52895">
        <ele>1530.3</ele>
        <time>2025-08-15T12:41:10Z</time>
      </trkpt>
      <trkpt lat="45.77364" lon="6.52895">
        <ele>1530.3</ele>
        <time>2025-08-15T12:41:11Z</time>
      </trkpt>
      <trkpt lat="45.77364" lon="6.52894">
        <ele>1530.2</ele>
        <time>2025-08-15T12:41:12Z</time>
      </trkpt>
      <trkpt lat="45.77364" lon="6.52894">
        <ele>1530.2</ele>
        <time>2025-08-15T12:41:13Z</time>
      </trkpt>
      <trkpt lat="45.77364" lon="6.52893">
        <ele>1530.2</ele>
        <time>2025-08-15T12:41:14Z</time>
      </trkpt>
      <trkpt lat="45.77363" lon="6.52893">
        <ele>1530.2</ele>
        <time>2025-08-15T12:41:15Z</time>
      </trkpt>
      <trkpt lat="45.77363" lon="6.52892">
        <ele>1530.1</ele>
        <time>2025-08-15T12:41:16Z</time>
      </trkpt>
      <trkpt lat="45.77363" lon="6.52892">
        <ele>1530.2</ele>
        <time>2025-08-15T12:41:17Z</time>
      </trkpt>
      <trkpt lat="45.77361" lon="6.52888">
        <ele>1530.1</ele>
        <time>2025-08-15T12:41:20Z</time>
      </trkpt>
      <trkpt lat="45.77361" lon="6.52888">
        <ele>1530.1</ele>
        <time>2025-08-15T12:41:21Z</time>
      </trkpt>
      <trkpt lat="45.77361" lon="6.52887">
        <ele>1530.1</ele>
        <time>2025-08-15T12:41:22Z</time>
      </trkpt>
      <trkpt lat="45.7736" lon="6.52886">
        <ele>1530.1</ele>
        <time>2025-08-15T12:41:23Z</time>
      </trkpt>
      <trkpt lat="45.77361" lon="6.52886">
        <ele>1530.1</ele>
        <time>2025-08-15T12:41:24Z</time>
      </trkpt>
      <trkpt lat="45.77362" lon="6.52886">
        <ele>1530.1</ele>
        <time>2025-08-15T12:41:25Z</time>
      </trkpt>
      <trkpt lat="45.77362" lon="6.52885">
        <ele>1530.1</ele>
        <time>2025-08-15T12:41:26Z</time>
      </trkpt>
      <trkpt lat="45.77362" lon="6.52884">
        <ele>1530.1</ele>
        <time>2025-08-15T12:41:27Z</time>
      </trkpt>
      <trkpt lat="45.77362" lon="6.52884">
        <ele>1530.1</ele>
        <time>2025-08-15T12:41:28Z</time>
      </trkpt>
      <trkpt lat="45.77362" lon="6.52883">
        <ele>1530.1</ele>
        <time>2025-08-15T12:41:29Z</time>
      </trkpt>
      <trkpt lat="45.77361" lon="6.52883">
        <ele>1530</ele>
        <time>2025-08-15T12:41:30Z</time>
      </trkpt>
      <trkpt lat="45.77361" lon="6.52882">
        <ele>1530</ele>
        <time>2025-08-15T12:41:31Z</time>
      </trkpt>
      <trkpt lat="45.77361" lon="6.52882">
        <ele>1530</ele>
        <time>2025-08-15T12:41:32Z</time>
      </trkpt>
      <trkpt lat="45.7736" lon="6.52882">
        <ele>1530</ele>
        <time>2025-08-15T12:41:33Z</time>
      </trkpt>
      <trkpt lat="45.7736" lon="6.52881">
        <ele>1530</ele>
        <time>2025-08-15T12:41:34Z</time>
      </trkpt>
      <trkpt lat="45.77359" lon="6.52881">
        <ele>1530</ele>
        <time>2025-08-15T12:41:35Z</time>
      </trkpt>
      <trkpt lat="45.77359" lon="6.52881">
        <ele>1530</ele>
        <time>2025-08-15T12:41:36Z</time>
      </trkpt>
      <trkpt lat="45.77359" lon="6.52881">
        <ele>1530</ele>
        <time>2025-08-15T12:41:37Z</time>
      </trkpt>
      <trkpt lat="45.77358" lon="6.52879">
        <ele>1530</ele>
        <time>2025-08-15T12:41:38Z</time>
      </trkpt>
      <trkpt lat="45.77358" lon="6.52877">
        <ele>1530</ele>
        <time>2025-08-15T12:41:39Z</time>
      </trkpt>
      <trkpt lat="45.77358" lon="6.52876">
        <ele>1530</ele>
        <time>2025-08-15T12:41:40Z</time>
      </trkpt>
      <trkpt lat="45.77358" lon="6.52874">
        <ele>1530</ele>
        <time>2025-08-15T12:41:41Z</time>
      </trkpt>
      <trkpt lat="45.77358" lon="6.52873">
        <ele>1530</ele>
        <time>2025-08-15T12:41:42Z</time>
      </trkpt>
      <trkpt lat="45.77358" lon="6.52872">
        <ele>1530</ele>
        <time>2025-08-15T12:41:43Z</time>
      </trkpt>
      <trkpt lat="45.77358" lon="6.5287">
        <ele>1530.1</ele>
        <time>2025-08-15T12:41:44Z</time>
      </trkpt>
      <trkpt lat="45.77358" lon="6.52869">
        <ele>1530.1</ele>
        <time>2025-08-15T12:41:45Z</time>
      </trkpt>
      <trkpt lat="45.77358" lon="6.52867">
        <ele>1530.1</ele>
        <time>2025-08-15T12:41:46Z</time>
      </trkpt>
      <trkpt lat="45.77358" lon="6.52866">
        <ele>1530.3</ele>
        <time>2025-08-15T12:43:28Z</time>
      </trkpt>
      <trkpt lat="45.77358" lon="6.52864">
        <ele>1530.3</ele>
        <time>2025-08-15T12:43:29Z</time>
      </trkpt>
      <trkpt lat="45.77358" lon="6.52863">
        <ele>1530.2</ele>
        <time>2025-08-15T12:43:30Z</time>
      </trkpt>
      <trkpt lat="45.77362" lon="6.52861">
        <ele>1530</ele>
        <time>2025-08-15T12:43:31Z</time>
      </trkpt>
      <trkpt lat="45.77366" lon="6.52857">
        <ele>1529.7</ele>
        <time>2025-08-15T12:43:32Z</time>
      </trkpt>
      <trkpt lat="45.77367" lon="6.52856">
        <ele>1529.7</ele>
        <time>2025-08-15T12:43:33Z</time>
      </trkpt>
      <trkpt lat="45.7737" lon="6.52855">
        <ele>1529.5</ele>
        <time>2025-08-15T12:43:34Z</time>
      </trkpt>
      <trkpt lat="45.77371" lon="6.52855">
        <ele>1529.4</ele>
        <time>2025-08-15T12:43:35Z</time>
      </trkpt>
      <trkpt lat="45.77374" lon="6.52853">
        <ele>1529.2</ele>
        <time>2025-08-15T12:43:36Z</time>
      </trkpt>
      <trkpt lat="45.77378" lon="6.52853">
        <ele>1528.9</ele>
        <time>2025-08-15T12:43:37Z</time>
      </trkpt>
      <trkpt lat="45.7738" lon="6.52852">
        <ele>1528.8</ele>
        <time>2025-08-15T12:43:38Z</time>
      </trkpt>
      <trkpt lat="45.77383" lon="6.5285">
        <ele>1528.6</ele>
        <time>2025-08-15T12:43:39Z</time>
      </trkpt>
      <trkpt lat="45.77387" lon="6.52849">
        <ele>1528.3</ele>
        <time>2025-08-15T12:43:40Z</time>
      </trkpt>
      <trkpt lat="45.77388" lon="6.52848">
        <ele>1528.2</ele>
        <time>2025-08-15T12:43:41Z</time>
      </trkpt>
      <trkpt lat="45.77391" lon="6.52848">
        <ele>1528</ele>
        <time>2025-08-15T12:43:42Z</time>
      </trkpt>
      <trkpt lat="45.77395" lon="6.52847">
        <ele>1527.8</ele>
        <time>2025-08-15T12:43:43Z</time>
      </trkpt>
      <trkpt lat="45.77397" lon="6.52846">
        <ele>1527.7</ele>
        <time>2025-08-15T12:43:44Z</time>
      </trkpt>
      <trkpt lat="45.77399" lon="6.52844">
        <ele>1527.6</ele>
        <time>2025-08-15T12:43:45Z</time>
      </trkpt>
      <trkpt lat="45.77403" lon="6.52843">
        <ele>1527.4</ele>
        <time>2025-08-15T12:43:46Z</time>
      </trkpt>
      <trkpt lat="45.77404" lon="6.52843">
        <ele>1527.3</ele>
        <time>2025-08-15T12:43:47Z</time>
      </trkpt>
      <trkpt lat="45.77407" lon="6.52843">
        <ele>1527.1</ele>
        <time>2025-08-15T12:43:48Z</time>
      </trkpt>
      <trkpt lat="45.77407" lon="6.52843">
        <ele>1527.1</ele>
        <time>2025-08-15T12:43:49Z</time>
      </trkpt>
      <trkpt lat="45.7741" lon="6.52844">
        <ele>1526.9</ele>
        <time>2025-08-15T12:43:50Z</time>
      </trkpt>
      <trkpt lat="45.77411" lon="6.52844">
        <ele>1526.9</ele>
        <time>2025-08-15T12:43:51Z</time>
      </trkpt>
      <trkpt lat="45.77413" lon="6.52844">
        <ele>1526.8</ele>
        <time>2025-08-15T12:43:52Z</time>
      </trkpt>
      <trkpt lat="45.77414" lon="6.52845">
        <ele>1526.7</ele>
        <time>2025-08-15T12:43:53Z</time>
      </trkpt>
      <trkpt lat="45.77416" lon="6.52846">
        <ele>1526.6</ele>
        <time>2025-08-15T12:43:54Z</time>
      </trkpt>
      <trkpt lat="45.77417" lon="6.52847">
        <ele>1526.5</ele>
        <time>2025-08-15T12:43:55Z</time>
      </trkpt>
      <trkpt lat="45.77419" lon="6.52848">
        <ele>1526.3</ele>
        <time>2025-08-15T12:43:56Z</time>
      </trkpt>
      <trkpt lat="45.7742" lon="6.52848">
        <ele>1526.3</ele>
        <time>2025-08-15T12:43:57Z</time>
      </trkpt>
      <trkpt lat="45.77423" lon="6.52849">
        <ele>1526.1</ele>
        <time>2025-08-15T12:43:58Z</time>
      </trkpt>
      <trkpt lat="45.77425" lon="6.5285">
        <ele>1526</ele>
        <time>2025-08-15T12:43:59Z</time>
      </trkpt>
      <trkpt lat="45.77427" lon="6.5285">
        <ele>1525.9</ele>
        <time>2025-08-15T12:44:00Z</time>
      </trkpt>
      <trkpt lat="45.77428" lon="6.5285">
        <ele>1525.8</ele>
        <time>2025-08-15T12:44:01Z</time>
      </trkpt>
      <trkpt lat="45.77429" lon="6.52852">
        <ele>1525.7</ele>
        <time>2025-08-15T12:44:02Z</time>
      </trkpt>
      <trkpt lat="45.77433" lon="6.52854">
        <ele>1525.4</ele>
        <time>2025-08-15T12:44:03Z</time>
      </trkpt>
      <trkpt lat="45.77435" lon="6.52855">
        <ele>1525.3</ele>
        <time>2025-08-15T12:44:04Z</time>
      </trkpt>
      <trkpt lat="45.77438" lon="6.52856">
        <ele>1525.1</ele>
        <time>2025-08-15T12:44:05Z</time>
      </trkpt>
      <trkpt lat="45.77441" lon="6.52856">
        <ele>1524.9</ele>
        <time>2025-08-15T12:44:06Z</time>
      </trkpt>
      <trkpt lat="45.77444" lon="6.52858">
        <ele>1524.6</ele>
        <time>2025-08-15T12:44:07Z</time>
      </trkpt>
      <trkpt lat="45.77444" lon="6.5286">
        <ele>1524.6</ele>
        <time>2025-08-15T12:44:08Z</time>
      </trkpt>
      <trkpt lat="45.77448" lon="6.52863">
        <ele>1524.3</ele>
        <time>2025-08-15T12:44:09Z</time>
      </trkpt>
      <trkpt lat="45.77449" lon="6.52865">
        <ele>1524.1</ele>
        <time>2025-08-15T12:44:10Z</time>
      </trkpt>
      <trkpt lat="45.77453" lon="6.52865">
        <ele>1523.8</ele>
        <time>2025-08-15T12:44:11Z</time>
      </trkpt>
      <trkpt lat="45.77456" lon="6.52869">
        <ele>1523.5</ele>
        <time>2025-08-15T12:44:12Z</time>
      </trkpt>
      <trkpt lat="45.77459" lon="6.52871">
        <ele>1523.2</ele>
        <time>2025-08-15T12:44:13Z</time>
      </trkpt>
      <trkpt lat="45.77464" lon="6.52874">
        <ele>1522.7</ele>
        <time>2025-08-15T12:44:14Z</time>
      </trkpt>
      <trkpt lat="45.77467" lon="6.52877">
        <ele>1522.4</ele>
        <time>2025-08-15T12:44:15Z</time>
      </trkpt>
      <trkpt lat="45.7747" lon="6.5288">
        <ele>1522.1</ele>
        <time>2025-08-15T12:44:16Z</time>
      </trkpt>
      <trkpt lat="45.77476" lon="6.52882">
        <ele>1521.6</ele>
        <time>2025-08-15T12:44:17Z</time>
      </trkpt>
      <trkpt lat="45.77482" lon="6.52885">
        <ele>1521.1</ele>
        <time>2025-08-15T12:44:18Z</time>
      </trkpt>
      <trkpt lat="45.77489" lon="6.52885">
        <ele>1520.5</ele>
        <time>2025-08-15T12:44:19Z</time>
      </trkpt>
      <trkpt lat="45.77497" lon="6.52887">
        <ele>1519.8</ele>
        <time>2025-08-15T12:44:20Z</time>
      </trkpt>
      <trkpt lat="45.77505" lon="6.52886">
        <ele>1518.9</ele>
        <time>2025-08-15T12:44:21Z</time>
      </trkpt>
      <trkpt lat="45.77513" lon="6.5289">
        <ele>1517.9</ele>
        <time>2025-08-15T12:44:22Z</time>
      </trkpt>
      <trkpt lat="45.7752" lon="6.52893">
        <ele>1516.9</ele>
        <time>2025-08-15T12:44:23Z</time>
      </trkpt>
      <trkpt lat="45.77524" lon="6.52896">
        <ele>1516.4</ele>
        <time>2025-08-15T12:44:24Z</time>
      </trkpt>
      <trkpt lat="45.77527" lon="6.52898">
        <ele>1515.9</ele>
        <time>2025-08-15T12:44:25Z</time>
      </trkpt>
      <trkpt lat="45.77528" lon="6.52898">
        <ele>1515.7</ele>
        <time>2025-08-15T12:44:26Z</time>
      </trkpt>
      <trkpt lat="45.77531" lon="6.529">
        <ele>1515.4</ele>
        <time>2025-08-15T12:44:27Z</time>
      </trkpt>
      <trkpt lat="45.77532" lon="6.52901">
        <ele>1515.2</ele>
        <time>2025-08-15T12:44:28Z</time>
      </trkpt>
      <trkpt lat="45.77535" lon="6.52903">
        <ele>1514.7</ele>
        <time>2025-08-15T12:44:29Z</time>
      </trkpt>
      <trkpt lat="45.77536" lon="6.52903">
        <ele>1514.6</ele>
        <time>2025-08-15T12:44:30Z</time>
      </trkpt>
      <trkpt lat="45.77539" lon="6.52904">
        <ele>1514.2</ele>
        <time>2025-08-15T12:44:31Z</time>
      </trkpt>
      <trkpt lat="45.77542" lon="6.52904">
        <ele>1513.8</ele>
        <time>2025-08-15T12:44:32Z</time>
      </trkpt>
      <trkpt lat="45.77545" lon="6.52908">
        <ele>1513.3</ele>
        <time>2025-08-15T12:44:33Z</time>
      </trkpt>
      <trkpt lat="45.77546" lon="6.52909">
        <ele>1513.1</ele>
        <time>2025-08-15T12:44:34Z</time>
      </trkpt>
      <trkpt lat="45.7755" lon="6.52912">
        <ele>1512.6</ele>
        <time>2025-08-15T12:44:35Z</time>
      </trkpt>
      <trkpt lat="45.77555" lon="6.52913">
        <ele>1511.9</ele>
        <time>2025-08-15T12:44:36Z</time>
      </trkpt>
      <trkpt lat="45.77559" lon="6.52914">
        <ele>1511.3</ele>
        <time>2025-08-15T12:44:37Z</time>
      </trkpt>
      <trkpt lat="45.77563" lon="6.52915">
        <ele>1510.8</ele>
        <time>2025-08-15T12:44:38Z</time>
      </trkpt>
      <trkpt lat="45.77567" lon="6.52917">
        <ele>1510.2</ele>
        <time>2025-08-15T12:44:39Z</time>
      </trkpt>
      <trkpt lat="45.7757" lon="6.52918">
        <ele>1509.8</ele>
        <time>2025-08-15T12:44:40Z</time>
      </trkpt>
      <trkpt lat="45.77573" lon="6.5292">
        <ele>1509.4</ele>
        <time>2025-08-15T12:44:41Z</time>
      </trkpt>
      <trkpt lat="45.77574" lon="6.5292">
        <ele>1509.3</ele>
        <time>2025-08-15T12:44:42Z</time>
      </trkpt>
      <trkpt lat="45.77576" lon="6.52921">
        <ele>1509</ele>
        <time>2025-08-15T12:44:43Z</time>
      </trkpt>
      <trkpt lat="45.77577" lon="6.52922">
        <ele>1508.9</ele>
        <time>2025-08-15T12:44:44Z</time>
      </trkpt>
      <trkpt lat="45.77577" lon="6.52924">
        <ele>1508.7</ele>
        <time>2025-08-15T12:44:45Z</time>
      </trkpt>
      <trkpt lat="45.77577" lon="6.52925">
        <ele>1508.6</ele>
        <time>2025-08-15T12:44:46Z</time>
      </trkpt>
      <trkpt lat="45.77578" lon="6.52925">
        <ele>1508.5</ele>
        <time>2025-08-15T12:44:47Z</time>
      </trkpt>
      <trkpt lat="45.77578" lon="6.52924">
        <ele>1508.4</ele>
        <time>2025-08-15T12:44:49Z</time>
      </trkpt>
      <trkpt lat="45.77578" lon="6.52924">
        <ele>1508.4</ele>
        <time>2025-08-15T12:44:50Z</time>
      </trkpt>
      <trkpt lat="45.77578" lon="6.52923">
        <ele>1508.3</ele>
        <time>2025-08-15T12:44:51Z</time>
      </trkpt>
      <trkpt lat="45.77578" lon="6.52922">
        <ele>1508.2</ele>
        <time>2025-08-15T12:44:52Z</time>
      </trkpt>
      <trkpt lat="45.77578" lon="6.52922">
        <ele>1508.1</ele>
        <time>2025-08-15T12:44:53Z</time>
      </trkpt>
      <trkpt lat="45.77578" lon="6.52922">
        <ele>1508.1</ele>
        <time>2025-08-15T12:44:54Z</time>
      </trkpt>
      <trkpt lat="45.77578" lon="6.52921">
        <ele>1508</ele>
        <time>2025-08-15T12:44:55Z</time>
      </trkpt>
      <trkpt lat="45.77578" lon="6.5292">
        <ele>1507.9</ele>
        <time>2025-08-15T12:44:56Z</time>
      </trkpt>
      <trkpt lat="45.77578" lon="6.5292">
        <ele>1507.9</ele>
        <time>2025-08-15T12:44:57Z</time>
      </trkpt>
      <trkpt lat="45.77585" lon="6.52913">
        <ele>1507.5</ele>
        <time>2025-08-15T12:46:11Z</time>
      </trkpt>
      <trkpt lat="45.77584" lon="6.52912">
        <ele>1507.6</ele>
        <time>2025-08-15T12:46:12Z</time>
      </trkpt>
      <trkpt lat="45.77584" lon="6.52911">
        <ele>1507.7</ele>
        <time>2025-08-15T12:46:13Z</time>
      </trkpt>
      <trkpt lat="45.77582" lon="6.5291">
        <ele>1508</ele>
        <time>2025-08-15T12:46:14Z</time>
      </trkpt>
      <trkpt lat="45.77581" lon="6.52911">
        <ele>1508.1</ele>
        <time>2025-08-15T12:46:15Z</time>
      </trkpt>
      <trkpt lat="45.7758" lon="6.52912">
        <ele>1508.3</ele>
        <time>2025-08-15T12:46:16Z</time>
      </trkpt>
      <trkpt lat="45.77579" lon="6.52913">
        <ele>1508.4</ele>
        <time>2025-08-15T12:46:17Z</time>
      </trkpt>
      <trkpt lat="45.77578" lon="6.52912">
        <ele>1508.5</ele>
        <time>2025-08-15T12:46:18Z</time>
      </trkpt>
      <trkpt lat="45.77578" lon="6.52912">
        <ele>1508.6</ele>
        <time>2025-08-15T12:46:19Z</time>
      </trkpt>
      <trkpt lat="45.77577" lon="6.52911">
        <ele>1508.7</ele>
        <time>2025-08-15T12:46:20Z</time>
      </trkpt>
      <trkpt lat="45.77576" lon="6.52911">
        <ele>1508.8</ele>
        <time>2025-08-15T12:46:21Z</time>
      </trkpt>
      <trkpt lat="45.77576" lon="6.5291">
        <ele>1508.9</ele>
        <time>2025-08-15T12:46:22Z</time>
      </trkpt>
      <trkpt lat="45.77575" lon="6.52909">
        <ele>1509</ele>
        <time>2025-08-15T12:46:23Z</time>
      </trkpt>
      <trkpt lat="45.77574" lon="6.52908">
        <ele>1509.2</ele>
        <time>2025-08-15T12:46:24Z</time>
      </trkpt>
      <trkpt lat="45.77574" lon="6.52908">
        <ele>1509.2</ele>
        <time>2025-08-15T12:46:25Z</time>
      </trkpt>
      <trkpt lat="45.77573" lon="6.52907">
        <ele>1509.3</ele>
        <time>2025-08-15T12:46:26Z</time>
      </trkpt>
      <trkpt lat="45.77573" lon="6.52907">
        <ele>1509.4</ele>
        <time>2025-08-15T12:46:27Z</time>
      </trkpt>
      <trkpt lat="45.77572" lon="6.52907">
        <ele>1509.4</ele>
        <time>2025-08-15T12:46:28Z</time>
      </trkpt>
      <trkpt lat="45.77572" lon="6.52907">
        <ele>1509.5</ele>
        <time>2025-08-15T12:46:29Z</time>
      </trkpt>
      <trkpt lat="45.7757" lon="6.52906">
        <ele>1509.7</ele>
        <time>2025-08-15T12:46:30Z</time>
      </trkpt>
      <trkpt lat="45.7757" lon="6.52905">
        <ele>1509.7</ele>
        <time>2025-08-15T12:46:31Z</time>
      </trkpt>
      <trkpt lat="45.77569" lon="6.52905">
        <ele>1509.9</ele>
        <time>2025-08-15T12:46:32Z</time>
      </trkpt>
      <trkpt lat="45.77567" lon="6.52905">
        <ele>1510.1</ele>
        <time>2025-08-15T12:46:33Z</time>
      </trkpt>
      <trkpt lat="45.77566" lon="6.52905">
        <ele>1510.2</ele>
        <time>2025-08-15T12:46:34Z</time>
      </trkpt>
      <trkpt lat="45.77565" lon="6.52905">
        <ele>1510.3</ele>
        <time>2025-08-15T12:46:35Z</time>
      </trkpt>
      <trkpt lat="45.77564" lon="6.52905">
        <ele>1510.5</ele>
        <time>2025-08-15T12:46:36Z</time>
      </trkpt>
      <trkpt lat="45.77564" lon="6.52905">
        <ele>1510.5</ele>
        <time>2025-08-15T12:46:37Z</time>
      </trkpt>
      <trkpt lat="45.77563" lon="6.52904">
        <ele>1510.6</ele>
        <time>2025-08-15T12:46:38Z</time>
      </trkpt>
      <trkpt lat="45.77562" lon="6.52903">
        <ele>1510.8</ele>
        <time>2025-08-15T12:46:39Z</time>
      </trkpt>
      <trkpt lat="45.7756" lon="6.52902">
        <ele>1511</ele>
        <time>2025-08-15T12:46:40Z</time>
      </trkpt>
      <trkpt lat="45.77559" lon="6.52902">
        <ele>1511.1</ele>
        <time>2025-08-15T12:46:41Z</time>
      </trkpt>
      <trkpt lat="45.77558" lon="6.52902">
        <ele>1511.2</ele>
        <time>2025-08-15T12:46:42Z</time>
      </trkpt>
      <trkpt lat="45.77556" lon="6.52902">
        <ele>1511.5</ele>
        <time>2025-08-15T12:46:43Z</time>
      </trkpt>
      <trkpt lat="45.77556" lon="6.52901">
        <ele>1511.2</ele>
        <time>2025-08-15T12:46:44Z</time>
      </trkpt>
      <trkpt lat="45.77555" lon="6.52901">
        <ele>1511.6</ele>
        <time>2025-08-15T12:46:45Z</time>
      </trkpt>
      <trkpt lat="45.77555" lon="6.52901">
        <ele>1511.3</ele>
        <time>2025-08-15T12:46:46Z</time>
      </trkpt>
      <trkpt lat="45.77554" lon="6.529">
        <ele>1511.5</ele>
        <time>2025-08-15T12:46:47Z</time>
      </trkpt>
      <trkpt lat="45.77553" lon="6.52899">
        <ele>1511.3</ele>
        <time>2025-08-15T12:46:48Z</time>
      </trkpt>
      <trkpt lat="45.77552" lon="6.52898">
        <ele>1511</ele>
        <time>2025-08-15T12:46:49Z</time>
      </trkpt>
      <trkpt lat="45.77552" lon="6.52898">
        <ele>1510.7</ele>
        <time>2025-08-15T12:46:50Z</time>
      </trkpt>
      <trkpt lat="45.77551" lon="6.52897">
        <ele>1510.9</ele>
        <time>2025-08-15T12:46:51Z</time>
      </trkpt>
      <trkpt lat="45.77551" lon="6.52897">
        <ele>1511.3</ele>
        <time>2025-08-15T12:46:52Z</time>
      </trkpt>
      <trkpt lat="45.77549" lon="6.52896">
        <ele>1511</ele>
        <time>2025-08-15T12:46:54Z</time>
      </trkpt>
      <trkpt lat="45.77549" lon="6.52895">
        <ele>1511.1</ele>
        <time>2025-08-15T12:46:55Z</time>
      </trkpt>
      <trkpt lat="45.77548" lon="6.52894">
        <ele>1510.9</ele>
        <time>2025-08-15T12:46:56Z</time>
      </trkpt>
      <trkpt lat="45.77548" lon="6.52893">
        <ele>1510.6</ele>
        <time>2025-08-15T12:46:57Z</time>
      </trkpt>
      <trkpt lat="45.77547" lon="6.52892">
        <ele>1510.9</ele>
        <time>2025-08-15T12:46:58Z</time>
      </trkpt>
      <trkpt lat="45.77544" lon="6.52891">
        <ele>1511</ele>
        <time>2025-08-15T12:46:59Z</time>
      </trkpt>
      <trkpt lat="45.77543" lon="6.52891">
        <ele>1510.7</ele>
        <time>2025-08-15T12:47:00Z</time>
      </trkpt>
      <trkpt lat="45.77542" lon="6.5289">
        <ele>1510.8</ele>
        <time>2025-08-15T12:47:01Z</time>
      </trkpt>
      <trkpt lat="45.77542" lon="6.52889">
        <ele>1510.5</ele>
        <time>2025-08-15T12:47:02Z</time>
      </trkpt>
      <trkpt lat="45.77541" lon="6.52888">
        <ele>1510.8</ele>
        <time>2025-08-15T12:47:03Z</time>
      </trkpt>
      <trkpt lat="45.77541" lon="6.52887">
        <ele>1510.6</ele>
        <time>2025-08-15T12:47:04Z</time>
      </trkpt>
      <trkpt lat="45.7754" lon="6.52887">
        <ele>1510.3</ele>
        <time>2025-08-15T12:47:05Z</time>
      </trkpt>
      <trkpt lat="45.77539" lon="6.52886">
        <ele>1510.3</ele>
        <time>2025-08-15T12:47:06Z</time>
      </trkpt>
      <trkpt lat="45.77537" lon="6.52886">
        <ele>1510</ele>
        <time>2025-08-15T12:47:07Z</time>
      </trkpt>
      <trkpt lat="45.77536" lon="6.52886">
        <ele>1510</ele>
        <time>2025-08-15T12:47:08Z</time>
      </trkpt>
      <trkpt lat="45.77536" lon="6.52885">
        <ele>1509.8</ele>
        <time>2025-08-15T12:47:09Z</time>
      </trkpt>
      <trkpt lat="45.77534" lon="6.52884">
        <ele>1510.1</ele>
        <time>2025-08-15T12:47:10Z</time>
      </trkpt>
      <trkpt lat="45.77535" lon="6.52884">
        <ele>1509.8</ele>
        <time>2025-08-15T12:47:11Z</time>
      </trkpt>
      <trkpt lat="45.77533" lon="6.52883">
        <ele>1510.2</ele>
        <time>2025-08-15T12:47:12Z</time>
      </trkpt>
      <trkpt lat="45.77531" lon="6.52882">
        <ele>1510.4</ele>
        <time>2025-08-15T12:47:13Z</time>
      </trkpt>
      <trkpt lat="45.77529" lon="6.52882">
        <ele>1510.8</ele>
        <time>2025-08-15T12:47:14Z</time>
      </trkpt>
      <trkpt lat="45.77528" lon="6.52882">
        <ele>1510.9</ele>
        <time>2025-08-15T12:47:15Z</time>
      </trkpt>
      <trkpt lat="45.77527" lon="6.52881">
        <ele>1511.1</ele>
        <time>2025-08-15T12:47:16Z</time>
      </trkpt>
      <trkpt lat="45.77525" lon="6.52881">
        <ele>1511.3</ele>
        <time>2025-08-15T12:47:17Z</time>
      </trkpt>
      <trkpt lat="45.77524" lon="6.5288">
        <ele>1511.5</ele>
        <time>2025-08-15T12:47:18Z</time>
      </trkpt>
      <trkpt lat="45.77523" lon="6.5288">
        <ele>1511.6</ele>
        <time>2025-08-15T12:47:19Z</time>
      </trkpt>
      <trkpt lat="45.77522" lon="6.52879">
        <ele>1511.8</ele>
        <time>2025-08-15T12:47:20Z</time>
      </trkpt>
      <trkpt lat="45.77521" lon="6.52879">
        <ele>1512</ele>
        <time>2025-08-15T12:47:21Z</time>
      </trkpt>
      <trkpt lat="45.77518" lon="6.52878">
        <ele>1512.4</ele>
        <time>2025-08-15T12:47:22Z</time>
      </trkpt>
      <trkpt lat="45.77517" lon="6.52877">
        <ele>1512.6</ele>
        <time>2025-08-15T12:47:23Z</time>
      </trkpt>
      <trkpt lat="45.77514" lon="6.52876">
        <ele>1512.9</ele>
        <time>2025-08-15T12:47:24Z</time>
      </trkpt>
      <trkpt lat="45.77514" lon="6.52876">
        <ele>1513</ele>
        <time>2025-08-15T12:47:25Z</time>
      </trkpt>
      <trkpt lat="45.77513" lon="6.52875">
        <ele>1513.2</ele>
        <time>2025-08-15T12:47:26Z</time>
      </trkpt>
      <trkpt lat="45.77512" lon="6.52874">
        <ele>1513.3</ele>
        <time>2025-08-15T12:47:27Z</time>
      </trkpt>
      <trkpt lat="45.77511" lon="6.52874">
        <ele>1513.5</ele>
        <time>2025-08-15T12:47:28Z</time>
      </trkpt>
      <trkpt lat="45.7751" lon="6.52873">
        <ele>1513.7</ele>
        <time>2025-08-15T12:47:29Z</time>
      </trkpt>
      <trkpt lat="45.77509" lon="6.52873">
        <ele>1513.8</ele>
        <time>2025-08-15T12:47:30Z</time>
      </trkpt>
      <trkpt lat="45.77507" lon="6.52873">
        <ele>1514.1</ele>
        <time>2025-08-15T12:47:31Z</time>
      </trkpt>
      <trkpt lat="45.77505" lon="6.52873">
        <ele>1514.4</ele>
        <time>2025-08-15T12:47:32Z</time>
      </trkpt>
      <trkpt lat="45.77504" lon="6.52873">
        <ele>1514.5</ele>
        <time>2025-08-15T12:47:33Z</time>
      </trkpt>
      <trkpt lat="45.77501" lon="6.52872">
        <ele>1514.8</ele>
        <time>2025-08-15T12:47:34Z</time>
      </trkpt>
      <trkpt lat="45.775" lon="6.52871">
        <ele>1515</ele>
        <time>2025-08-15T12:47:35Z</time>
      </trkpt>
      <trkpt lat="45.77498" lon="6.52871">
        <ele>1515.3</ele>
        <time>2025-08-15T12:47:36Z</time>
      </trkpt>
      <trkpt lat="45.77496" lon="6.5287">
        <ele>1515.5</ele>
        <time>2025-08-15T12:47:37Z</time>
      </trkpt>
      <trkpt lat="45.77495" lon="6.52869">
        <ele>1515.8</ele>
        <time>2025-08-15T12:47:38Z</time>
      </trkpt>
      <trkpt lat="45.77494" lon="6.52869">
        <ele>1515.9</ele>
        <time>2025-08-15T12:47:39Z</time>
      </trkpt>
      <trkpt lat="45.77492" lon="6.52868">
        <ele>1516.2</ele>
        <time>2025-08-15T12:47:40Z</time>
      </trkpt>
      <trkpt lat="45.7749" lon="6.52867">
        <ele>1516.4</ele>
        <time>2025-08-15T12:47:41Z</time>
      </trkpt>
      <trkpt lat="45.77487" lon="6.52866">
        <ele>1516.9</ele>
        <time>2025-08-15T12:47:42Z</time>
      </trkpt>
      <trkpt lat="45.77486" lon="6.52866">
        <ele>1517</ele>
        <time>2025-08-15T12:47:43Z</time>
      </trkpt>
      <trkpt lat="45.77485" lon="6.52865">
        <ele>1517.2</ele>
        <time>2025-08-15T12:47:44Z</time>
      </trkpt>
      <trkpt lat="45.77484" lon="6.52863">
        <ele>1517.5</ele>
        <time>2025-08-15T12:47:45Z</time>
      </trkpt>
      <trkpt lat="45.77483" lon="6.52861">
        <ele>1517.7</ele>
        <time>2025-08-15T12:47:46Z</time>
      </trkpt>
      <trkpt lat="45.77481" lon="6.5286">
        <ele>1517.9</ele>
        <time>2025-08-15T12:47:47Z</time>
      </trkpt>
      <trkpt lat="45.7748" lon="6.52858">
        <ele>1518.1</ele>
        <time>2025-08-15T12:47:48Z</time>
      </trkpt>
      <trkpt lat="45.77479" lon="6.52858">
        <ele>1518.3</ele>
        <time>2025-08-15T12:47:49Z</time>
      </trkpt>
      <trkpt lat="45.77477" lon="6.52856">
        <ele>1518.6</ele>
        <time>2025-08-15T12:47:50Z</time>
      </trkpt>
      <trkpt lat="45.77476" lon="6.52855">
        <ele>1518.7</ele>
        <time>2025-08-15T12:47:51Z</time>
      </trkpt>
      <trkpt lat="45.77475" lon="6.52853">
        <ele>1518.9</ele>
        <time>2025-08-15T12:47:52Z</time>
      </trkpt>
      <trkpt lat="45.77474" lon="6.52851">
        <ele>1519.1</ele>
        <time>2025-08-15T12:47:53Z</time>
      </trkpt>
      <trkpt lat="45.77472" lon="6.52849">
        <ele>1519.4</ele>
        <time>2025-08-15T12:47:54Z</time>
      </trkpt>
      <trkpt lat="45.77471" lon="6.52848">
        <ele>1519.5</ele>
        <time>2025-08-15T12:47:55Z</time>
      </trkpt>
      <trkpt lat="45.7747" lon="6.52847">
        <ele>1519.6</ele>
        <time>2025-08-15T12:47:56Z</time>
      </trkpt>
      <trkpt lat="45.77469" lon="6.52846">
        <ele>1519.8</ele>
        <time>2025-08-15T12:47:57Z</time>
      </trkpt>
      <trkpt lat="45.77468" lon="6.52845">
        <ele>1519.9</ele>
        <time>2025-08-15T12:47:58Z</time>
      </trkpt>
      <trkpt lat="45.77466" lon="6.52843">
        <ele>1520.1</ele>
        <time>2025-08-15T12:47:59Z</time>
      </trkpt>
      <trkpt lat="45.77464" lon="6.52842">
        <ele>1520.4</ele>
        <time>2025-08-15T12:48:00Z</time>
      </trkpt>
      <trkpt lat="45.77461" lon="6.52842">
        <ele>1520.6</ele>
        <time>2025-08-15T12:48:01Z</time>
      </trkpt>
      <trkpt lat="45.77458" lon="6.52842">
        <ele>1520.9</ele>
        <time>2025-08-15T12:48:02Z</time>
      </trkpt>
      <trkpt lat="45.77454" lon="6.52841">
        <ele>1521.2</ele>
        <time>2025-08-15T12:48:03Z</time>
      </trkpt>
      <trkpt lat="45.77453" lon="6.5284">
        <ele>1521.3</ele>
        <time>2025-08-15T12:48:04Z</time>
      </trkpt>
      <trkpt lat="45.7745" lon="6.52838">
        <ele>1521.4</ele>
        <time>2025-08-15T12:48:05Z</time>
      </trkpt>
      <trkpt lat="45.77449" lon="6.52838">
        <ele>1521.5</ele>
        <time>2025-08-15T12:48:06Z</time>
      </trkpt>
      <trkpt lat="45.77446" lon="6.52837">
        <ele>1521.6</ele>
        <time>2025-08-15T12:48:07Z</time>
      </trkpt>
      <trkpt lat="45.77445" lon="6.52836">
        <ele>1521.7</ele>
        <time>2025-08-15T12:48:08Z</time>
      </trkpt>
      <trkpt lat="45.77443" lon="6.52835">
        <ele>1521.8</ele>
        <time>2025-08-15T12:48:09Z</time>
      </trkpt>
      <trkpt lat="45.77442" lon="6.52834">
        <ele>1521.9</ele>
        <time>2025-08-15T12:48:10Z</time>
      </trkpt>
      <trkpt lat="45.77439" lon="6.52833">
        <ele>1522.1</ele>
        <time>2025-08-15T12:48:11Z</time>
      </trkpt>
      <trkpt lat="45.77435" lon="6.52832">
        <ele>1522.3</ele>
        <time>2025-08-15T12:48:12Z</time>
      </trkpt>
      <trkpt lat="45.77433" lon="6.52832">
        <ele>1522.4</ele>
        <time>2025-08-15T12:48:13Z</time>
      </trkpt>
      <trkpt lat="45.77431" lon="6.5283">
        <ele>1522.6</ele>
        <time>2025-08-15T12:48:14Z</time>
      </trkpt>
      <trkpt lat="45.77429" lon="6.52829">
        <ele>1522.8</ele>
        <time>2025-08-15T12:48:15Z</time>
      </trkpt>
      <trkpt lat="45.77426" lon="6.52828">
        <ele>1523</ele>
        <time>2025-08-15T12:48:16Z</time>
      </trkpt>
      <trkpt lat="45.77422" lon="6.52828">
        <ele>1523.3</ele>
        <time>2025-08-15T12:48:17Z</time>
      </trkpt>
      <trkpt lat="45.7742" lon="6.52828">
        <ele>1523.4</ele>
        <time>2025-08-15T12:48:18Z</time>
      </trkpt>
      <trkpt lat="45.77417" lon="6.52827">
        <ele>1523.7</ele>
        <time>2025-08-15T12:48:19Z</time>
      </trkpt>
      <trkpt lat="45.77415" lon="6.52826">
        <ele>1523.8</ele>
        <time>2025-08-15T12:48:20Z</time>
      </trkpt>
      <trkpt lat="45.77412" lon="6.52827">
        <ele>1524.1</ele>
        <time>2025-08-15T12:48:21Z</time>
      </trkpt>
      <trkpt lat="45.7741" lon="6.52827">
        <ele>1524.2</ele>
        <time>2025-08-15T12:48:22Z</time>
      </trkpt>
      <trkpt lat="45.77408" lon="6.52827">
        <ele>1524.4</ele>
        <time>2025-08-15T12:48:23Z</time>
      </trkpt>
      <trkpt lat="45.77404" lon="6.52828">
        <ele>1524.6</ele>
        <time>2025-08-15T12:48:24Z</time>
      </trkpt>
      <trkpt lat="45.77403" lon="6.52828">
        <ele>1524.6</ele>
        <time>2025-08-15T12:48:25Z</time>
      </trkpt>
      <trkpt lat="45.774" lon="6.5283">
        <ele>1524.7</ele>
        <time>2025-08-15T12:48:26Z</time>
      </trkpt>
      <trkpt lat="45.77399" lon="6.52831">
        <ele>1524.7</ele>
        <time>2025-08-15T12:48:27Z</time>
      </trkpt>
      <trkpt lat="45.77395" lon="6.52832">
        <ele>1524.8</ele>
        <time>2025-08-15T12:48:28Z</time>
      </trkpt>
      <trkpt lat="45.77394" lon="6.52833">
        <ele>1524.9</ele>
        <time>2025-08-15T12:48:29Z</time>
      </trkpt>
      <trkpt lat="45.77391" lon="6.52834">
        <ele>1525</ele>
        <time>2025-08-15T12:48:30Z</time>
      </trkpt>
      <trkpt lat="45.77388" lon="6.52835">
        <ele>1525.1</ele>
        <time>2025-08-15T12:48:31Z</time>
      </trkpt>
      <trkpt lat="45.77384" lon="6.52836">
        <ele>1525.2</ele>
        <time>2025-08-15T12:48:32Z</time>
      </trkpt>
      <trkpt lat="45.77381" lon="6.52837">
        <ele>1525.3</ele>
        <time>2025-08-15T12:48:33Z</time>
      </trkpt>
      <trkpt lat="45.7738" lon="6.52838">
        <ele>1525.4</ele>
        <time>2025-08-15T12:48:34Z</time>
      </trkpt>
      <trkpt lat="45.77378" lon="6.52839">
        <ele>1525.5</ele>
        <time>2025-08-15T12:48:35Z</time>
      </trkpt>
      <trkpt lat="45.77377" lon="6.5284">
        <ele>1525.5</ele>
        <time>2025-08-15T12:48:36Z</time>
      </trkpt>
      <trkpt lat="45.77374" lon="6.52842">
        <ele>1525.7</ele>
        <time>2025-08-15T12:48:37Z</time>
      </trkpt>
      <trkpt lat="45.77373" lon="6.52842">
        <ele>1525.7</ele>
        <time>2025-08-15T12:48:38Z</time>
      </trkpt>
      <trkpt lat="45.7737" lon="6.52844">
        <ele>1525.8</ele>
        <time>2025-08-15T12:48:39Z</time>
      </trkpt>
      <trkpt lat="45.7737" lon="6.52844">
        <ele>1525.8</ele>
        <time>2025-08-15T12:48:40Z</time>
      </trkpt>
      <trkpt lat="45.77368" lon="6.52845">
        <ele>1525.9</ele>
        <time>2025-08-15T12:48:41Z</time>
      </trkpt>
      <trkpt lat="45.77367" lon="6.52845">
        <ele>1526</ele>
        <time>2025-08-15T12:48:42Z</time>
      </trkpt>
      <trkpt lat="45.77365" lon="6.52845">
        <ele>1526</ele>
        <time>2025-08-15T12:48:43Z</time>
      </trkpt>
      <trkpt lat="45.77365" lon="6.52846">
        <ele>1526</ele>
        <time>2025-08-15T12:48:44Z</time>
      </trkpt>
      <trkpt lat="45.77364" lon="6.52847">
        <ele>1526.1</ele>
        <time>2025-08-15T12:48:45Z</time>
      </trkpt>
      <trkpt lat="45.77365" lon="6.52847">
        <ele>1526.1</ele>
        <time>2025-08-15T12:48:46Z</time>
      </trkpt>
      <trkpt lat="45.77365" lon="6.52847">
        <ele>1526.1</ele>
        <time>2025-08-15T12:48:47Z</time>
      </trkpt>
      <trkpt lat="45.77365" lon="6.52848">
        <ele>1526.1</ele>
        <time>2025-08-15T12:48:48Z</time>
      </trkpt>
      <trkpt lat="45.77365" lon="6.52848">
        <ele>1526.1</ele>
        <time>2025-08-15T12:48:49Z</time>
      </trkpt>
      <trkpt lat="45.77365" lon="6.52849">
        <ele>1526.1</ele>
        <time>2025-08-15T12:48:50Z</time>
      </trkpt>
      <trkpt lat="45.77365" lon="6.52849">
        <ele>1526.1</ele>
        <time>2025-08-15T12:48:51Z</time>
      </trkpt>
      <trkpt lat="45.77365" lon="6.52849">
        <ele>1526.1</ele>
        <time>2025-08-15T12:48:52Z</time>
      </trkpt>
      <trkpt lat="45.77364" lon="6.52849">
        <ele>1526.2</ele>
        <time>2025-08-15T12:48:53Z</time>
      </trkpt>
      <trkpt lat="45.77364" lon="6.52849">
        <ele>1526.2</ele>
        <time>2025-08-15T12:48:54Z</time>
      </trkpt>
      <trkpt lat="45.77363" lon="6.52849">
        <ele>1526.2</ele>
        <time>2025-08-15T12:48:55Z</time>
      </trkpt>
      <trkpt lat="45.7736" lon="6.5285">
        <ele>1526.3</ele>
        <time>2025-08-15T12:48:58Z</time>
      </trkpt>
      <trkpt lat="45.77358" lon="6.52852">
        <ele>1526.4</ele>
        <time>2025-08-15T12:49:00Z</time>
      </trkpt>
      <trkpt lat="45.77357" lon="6.52855">
        <ele>1526.4</ele>
        <time>2025-08-15T12:49:01Z</time>
      </trkpt>
      <trkpt lat="45.77357" lon="6.52857">
        <ele>1526.5</ele>
        <time>2025-08-15T12:49:02Z</time>
      </trkpt>
      <trkpt lat="45.77357" lon="6.52858">
        <ele>1526.5</ele>
        <time>2025-08-15T12:49:03Z</time>
      </trkpt>
      <trkpt lat="45.77358" lon="6.52859">
        <ele>1526.6</ele>
        <time>2025-08-15T12:49:04Z</time>
      </trkpt>
      <trkpt lat="45.77359" lon="6.5286">
        <ele>1526.6</ele>
        <time>2025-08-15T12:49:05Z</time>
      </trkpt>
      <trkpt lat="45.7736" lon="6.52862">
        <ele>1526.6</ele>
        <time>2025-08-15T12:49:06Z</time>
      </trkpt>
      <trkpt lat="45.7736" lon="6.52864">
        <ele>1526.6</ele>
        <time>2025-08-15T12:49:07Z</time>
      </trkpt>
      <trkpt lat="45.77361" lon="6.52865">
        <ele>1526.5</ele>
        <time>2025-08-15T12:49:08Z</time>
      </trkpt>
      <trkpt lat="45.77361" lon="6.52865">
        <ele>1526.5</ele>
        <time>2025-08-15T12:49:09Z</time>
      </trkpt>
      <trkpt lat="45.77362" lon="6.52866">
        <ele>1526.5</ele>
        <time>2025-08-15T12:49:10Z</time>
      </trkpt>
      <trkpt lat="45.77362" lon="6.52867">
        <ele>1526.4</ele>
        <time>2025-08-15T12:49:11Z</time>
      </trkpt>
      <trkpt lat="45.77363" lon="6.52868">
        <ele>1526.4</ele>
        <time>2025-08-15T12:49:12Z</time>
      </trkpt>
      <trkpt lat="45.77364" lon="6.52869">
        <ele>1526.3</ele>
        <time>2025-08-15T12:49:13Z</time>
      </trkpt>
      <trkpt lat="45.77365" lon="6.5287">
        <ele>1526.3</ele>
        <time>2025-08-15T12:49:14Z</time>
      </trkpt>
      <trkpt lat="45.77368" lon="6.52874">
        <ele>1526.1</ele>
        <time>2025-08-15T12:49:15Z</time>
      </trkpt>
      <trkpt lat="45.77369" lon="6.52875">
        <ele>1526.1</ele>
        <time>2025-08-15T12:49:16Z</time>
      </trkpt>
      <trkpt lat="45.77371" lon="6.52876">
        <ele>1526</ele>
        <time>2025-08-15T12:49:17Z</time>
      </trkpt>
      <trkpt lat="45.77372" lon="6.52877">
        <ele>1525.9</ele>
        <time>2025-08-15T12:49:18Z</time>
      </trkpt>
      <trkpt lat="45.77375" lon="6.52879">
        <ele>1525.8</ele>
        <time>2025-08-15T12:49:19Z</time>
      </trkpt>
      <trkpt lat="45.77376" lon="6.5288">
        <ele>1525.7</ele>
        <time>2025-08-15T12:49:20Z</time>
      </trkpt>
      <trkpt lat="45.77379" lon="6.52881">
        <ele>1525.6</ele>
        <time>2025-08-15T12:49:21Z</time>
      </trkpt>
      <trkpt lat="45.7738" lon="6.52882">
        <ele>1525.5</ele>
        <time>2025-08-15T12:49:22Z</time>
      </trkpt>
      <trkpt lat="45.77381" lon="6.52886">
        <ele>1525.4</ele>
        <time>2025-08-15T12:49:23Z</time>
      </trkpt>
      <trkpt lat="45.77385" lon="6.52887">
        <ele>1525.3</ele>
        <time>2025-08-15T12:49:24Z</time>
      </trkpt>
      <trkpt lat="45.77388" lon="6.52888">
        <ele>1525.2</ele>
        <time>2025-08-15T12:49:25Z</time>
      </trkpt>
      <trkpt lat="45.77392" lon="6.5289">
        <ele>1525</ele>
        <time>2025-08-15T12:49:26Z</time>
      </trkpt>
      <trkpt lat="45.77397" lon="6.52892">
        <ele>1524.8</ele>
        <time>2025-08-15T12:49:27Z</time>
      </trkpt>
      <trkpt lat="45.77401" lon="6.52895">
        <ele>1524.6</ele>
        <time>2025-08-15T12:49:28Z</time>
      </trkpt>
      <trkpt lat="45.77405" lon="6.52897">
        <ele>1524.4</ele>
        <time>2025-08-15T12:49:29Z</time>
      </trkpt>
      <trkpt lat="45.77409" lon="6.52901">
        <ele>1524.1</ele>
        <time>2025-08-15T12:49:30Z</time>
      </trkpt>
      <trkpt lat="45.77413" lon="6.52905">
        <ele>1523.8</ele>
        <time>2025-08-15T12:49:31Z</time>
      </trkpt>
      <trkpt lat="45.77418" lon="6.5291">
        <ele>1523.5</ele>
        <time>2025-08-15T12:49:32Z</time>
      </trkpt>
      <trkpt lat="45.77422" lon="6.52916">
        <ele>1523.1</ele>
        <time>2025-08-15T12:49:33Z</time>
      </trkpt>
      <trkpt lat="45.77427" lon="6.52922">
        <ele>1522.6</ele>
        <time>2025-08-15T12:49:34Z</time>
      </trkpt>
      <trkpt lat="45.77433" lon="6.52928">
        <ele>1522.1</ele>
        <time>2025-08-15T12:49:35Z</time>
      </trkpt>
      <trkpt lat="45.77438" lon="6.52934">
        <ele>1521.6</ele>
        <time>2025-08-15T12:49:36Z</time>
      </trkpt>
      <trkpt lat="45.77443" lon="6.52939">
        <ele>1521.1</ele>
        <time>2025-08-15T12:49:37Z</time>
      </trkpt>
      <trkpt lat="45.7745" lon="6.52943">
        <ele>1520.6</ele>
        <time>2025-08-15T12:49:38Z</time>
      </trkpt>
      <trkpt lat="45.77456" lon="6.52945">
        <ele>1520.1</ele>
        <time>2025-08-15T12:49:39Z</time>
      </trkpt>
      <trkpt lat="45.77462" lon="6.52947">
        <ele>1519.7</ele>
        <time>2025-08-15T12:49:40Z</time>
      </trkpt>
      <trkpt lat="45.77468" lon="6.52951">
        <ele>1519.1</ele>
        <time>2025-08-15T12:49:41Z</time>
      </trkpt>
      <trkpt lat="45.77473" lon="6.52956">
        <ele>1518.6</ele>
        <time>2025-08-15T12:49:42Z</time>
      </trkpt>
      <trkpt lat="45.77476" lon="6.52962">
        <ele>1518.1</ele>
        <time>2025-08-15T12:49:43Z</time>
      </trkpt>
      <trkpt lat="45.77478" lon="6.52968">
        <ele>1517.6</ele>
        <time>2025-08-15T12:49:44Z</time>
      </trkpt>
      <trkpt lat="45.77481" lon="6.52972">
        <ele>1517.2</ele>
        <time>2025-08-15T12:49:45Z</time>
      </trkpt>
      <trkpt lat="45.77482" lon="6.52976">
        <ele>1516.8</ele>
        <time>2025-08-15T12:49:46Z</time>
      </trkpt>
      <trkpt lat="45.77484" lon="6.52982">
        <ele>1516.4</ele>
        <time>2025-08-15T12:49:47Z</time>
      </trkpt>
      <trkpt lat="45.77485" lon="6.52987">
        <ele>1516</ele>
        <time>2025-08-15T12:49:48Z</time>
      </trkpt>
      <trkpt lat="45.77485" lon="6.52992">
        <ele>1515.6</ele>
        <time>2025-08-15T12:49:49Z</time>
      </trkpt>
      <trkpt lat="45.77485" lon="6.52998">
        <ele>1515.2</ele>
        <time>2025-08-15T12:49:50Z</time>
      </trkpt>
      <trkpt lat="45.77485" lon="6.53003">
        <ele>1514.8</ele>
        <time>2025-08-15T12:49:51Z</time>
      </trkpt>
      <trkpt lat="45.77484" lon="6.53007">
        <ele>1514.6</ele>
        <time>2025-08-15T12:49:52Z</time>
      </trkpt>
      <trkpt lat="45.77485" lon="6.53014">
        <ele>1514.1</ele>
        <time>2025-08-15T12:49:53Z</time>
      </trkpt>
      <trkpt lat="45.77485" lon="6.5302">
        <ele>1513.7</ele>
        <time>2025-08-15T12:49:54Z</time>
      </trkpt>
      <trkpt lat="45.77487" lon="6.53026">
        <ele>1513.4</ele>
        <time>2025-08-15T12:49:55Z</time>
      </trkpt>
      <trkpt lat="45.77489" lon="6.53031">
        <ele>1513</ele>
        <time>2025-08-15T12:49:56Z</time>
      </trkpt>
      <trkpt lat="45.7749" lon="6.53035">
        <ele>1512.8</ele>
        <time>2025-08-15T12:49:57Z</time>
      </trkpt>
      <trkpt lat="45.77491" lon="6.53039">
        <ele>1512.6</ele>
        <time>2025-08-15T12:49:58Z</time>
      </trkpt>
      <trkpt lat="45.77493" lon="6.53043">
        <ele>1512.4</ele>
        <time>2025-08-15T12:49:59Z</time>
      </trkpt>
      <trkpt lat="45.77495" lon="6.53048">
        <ele>1512.2</ele>
        <time>2025-08-15T12:50:00Z</time>
      </trkpt>
      <trkpt lat="45.77496" lon="6.53054">
        <ele>1511.9</ele>
        <time>2025-08-15T12:50:01Z</time>
      </trkpt>
      <trkpt lat="45.77496" lon="6.53057">
        <ele>1511.9</ele>
        <time>2025-08-15T12:50:02Z</time>
      </trkpt>
      <trkpt lat="45.77497" lon="6.53061">
        <ele>1511.8</ele>
        <time>2025-08-15T12:50:03Z</time>
      </trkpt>
      <trkpt lat="45.77497" lon="6.53065">
        <ele>1511.7</ele>
        <time>2025-08-15T12:50:04Z</time>
      </trkpt>
      <trkpt lat="45.77497" lon="6.53066">
        <ele>1511.6</ele>
        <time>2025-08-15T12:50:05Z</time>
      </trkpt>
      <trkpt lat="45.77495" lon="6.53069">
        <ele>1511.5</ele>
        <time>2025-08-15T12:50:06Z</time>
      </trkpt>
      <trkpt lat="45.77494" lon="6.5307">
        <ele>1511.5</ele>
        <time>2025-08-15T12:50:07Z</time>
      </trkpt>
      <trkpt lat="45.77493" lon="6.53075">
        <ele>1511.4</ele>
        <time>2025-08-15T12:50:08Z</time>
      </trkpt>
      <trkpt lat="45.77492" lon="6.53079">
        <ele>1511.3</ele>
        <time>2025-08-15T12:50:09Z</time>
      </trkpt>
      <trkpt lat="45.7749" lon="6.53083">
        <ele>1511.2</ele>
        <time>2025-08-15T12:50:10Z</time>
      </trkpt>
      <trkpt lat="45.7749" lon="6.53086">
        <ele>1511.2</ele>
        <time>2025-08-15T12:50:11Z</time>
      </trkpt>
      <trkpt lat="45.77491" lon="6.53091">
        <ele>1511.1</ele>
        <time>2025-08-15T12:50:12Z</time>
      </trkpt>
      <trkpt lat="45.77493" lon="6.53095">
        <ele>1511</ele>
        <time>2025-08-15T12:50:13Z</time>
      </trkpt>
      <trkpt lat="45.77495" lon="6.53097">
        <ele>1511</ele>
        <time>2025-08-15T12:50:14Z</time>
      </trkpt>
      <trkpt lat="45.77498" lon="6.53099">
        <ele>1511</ele>
        <time>2025-08-15T12:50:15Z</time>
      </trkpt>
      <trkpt lat="45.77498" lon="6.531">
        <ele>1511</ele>
        <time>2025-08-15T12:50:16Z</time>
      </trkpt>
      <trkpt lat="45.77499" lon="6.531">
        <ele>1511</ele>
        <time>2025-08-15T12:50:17Z</time>
      </trkpt>
      <trkpt lat="45.77501" lon="6.53101">
        <ele>1510.9</ele>
        <time>2025-08-15T12:50:18Z</time>
      </trkpt>
      <trkpt lat="45.77502" lon="6.53101">
        <ele>1510.9</ele>
        <time>2025-08-15T12:50:19Z</time>
      </trkpt>
      <trkpt lat="45.77503" lon="6.53102">
        <ele>1510.9</ele>
        <time>2025-08-15T12:50:20Z</time>
      </trkpt>
      <trkpt lat="45.77506" lon="6.53103">
        <ele>1510.9</ele>
        <time>2025-08-15T12:50:21Z</time>
      </trkpt>
      <trkpt lat="45.77507" lon="6.53104">
        <ele>1510.9</ele>
        <time>2025-08-15T12:50:22Z</time>
      </trkpt>
      <trkpt lat="45.7751" lon="6.53104">
        <ele>1510.8</ele>
        <time>2025-08-15T12:50:23Z</time>
      </trkpt>
      <trkpt lat="45.77511" lon="6.53104">
        <ele>1510.8</ele>
        <time>2025-08-15T12:50:24Z</time>
      </trkpt>
      <trkpt lat="45.77514" lon="6.53105">
        <ele>1510.7</ele>
        <time>2025-08-15T12:50:25Z</time>
      </trkpt>
      <trkpt lat="45.77515" lon="6.53105">
        <ele>1510.7</ele>
        <time>2025-08-15T12:50:26Z</time>
      </trkpt>
      <trkpt lat="45.77518" lon="6.53107">
        <ele>1510.6</ele>
        <time>2025-08-15T12:50:27Z</time>
      </trkpt>
      <trkpt lat="45.7752" lon="6.53107">
        <ele>1510.5</ele>
        <time>2025-08-15T12:50:28Z</time>
      </trkpt>
      <trkpt lat="45.77523" lon="6.53109">
        <ele>1510.3</ele>
        <time>2025-08-15T12:50:29Z</time>
      </trkpt>
      <trkpt lat="45.77524" lon="6.5311">
        <ele>1510.3</ele>
        <time>2025-08-15T12:50:30Z</time>
      </trkpt>
      <trkpt lat="45.77527" lon="6.53111">
        <ele>1510.1</ele>
        <time>2025-08-15T12:50:31Z</time>
      </trkpt>
      <trkpt lat="45.77527" lon="6.53111">
        <ele>1510</ele>
        <time>2025-08-15T12:50:32Z</time>
      </trkpt>
      <trkpt lat="45.7753" lon="6.53114">
        <ele>1509.8</ele>
        <time>2025-08-15T12:50:33Z</time>
      </trkpt>
      <trkpt lat="45.77531" lon="6.53115">
        <ele>1509.7</ele>
        <time>2025-08-15T12:50:34Z</time>
      </trkpt>
      <trkpt lat="45.77536" lon="6.53116">
        <ele>1509.5</ele>
        <time>2025-08-15T12:50:35Z</time>
      </trkpt>
      <trkpt lat="45.77537" lon="6.53116">
        <ele>1509.3</ele>
        <time>2025-08-15T12:50:36Z</time>
      </trkpt>
      <trkpt lat="45.77541" lon="6.53117">
        <ele>1509.1</ele>
        <time>2025-08-15T12:50:37Z</time>
      </trkpt>
      <trkpt lat="45.77544" lon="6.53117">
        <ele>1508.9</ele>
        <time>2025-08-15T12:50:38Z</time>
      </trkpt>
      <trkpt lat="45.77548" lon="6.53115">
        <ele>1508.6</ele>
        <time>2025-08-15T12:50:39Z</time>
      </trkpt>
      <trkpt lat="45.77551" lon="6.53114">
        <ele>1508.4</ele>
        <time>2025-08-15T12:50:40Z</time>
      </trkpt>
      <trkpt lat="45.77555" lon="6.53113">
        <ele>1508.1</ele>
        <time>2025-08-15T12:50:41Z</time>
      </trkpt>
      <trkpt lat="45.77559" lon="6.53114">
        <ele>1507.9</ele>
        <time>2025-08-15T12:50:42Z</time>
      </trkpt>
      <trkpt lat="45.77563" lon="6.53113">
        <ele>1507.6</ele>
        <time>2025-08-15T12:50:43Z</time>
      </trkpt>
      <trkpt lat="45.77568" lon="6.53112">
        <ele>1507.3</ele>
        <time>2025-08-15T12:50:44Z</time>
      </trkpt>
      <trkpt lat="45.77574" lon="6.5311">
        <ele>1506.9</ele>
        <time>2025-08-15T12:50:45Z</time>
      </trkpt>
      <trkpt lat="45.7758" lon="6.53108">
        <ele>1506.3</ele>
        <time>2025-08-15T12:50:46Z</time>
      </trkpt>
      <trkpt lat="45.77588" lon="6.53107">
        <ele>1505.8</ele>
        <time>2025-08-15T12:50:47Z</time>
      </trkpt>
      <trkpt lat="45.77595" lon="6.53105">
        <ele>1505.2</ele>
        <time>2025-08-15T12:50:48Z</time>
      </trkpt>
      <trkpt lat="45.77603" lon="6.53102">
        <ele>1504.7</ele>
        <time>2025-08-15T12:50:49Z</time>
      </trkpt>
      <trkpt lat="45.77611" lon="6.53098">
        <ele>1504.3</ele>
        <time>2025-08-15T12:50:50Z</time>
      </trkpt>
      <trkpt lat="45.77617" lon="6.53094">
        <ele>1504</ele>
        <time>2025-08-15T12:50:51Z</time>
      </trkpt>
      <trkpt lat="45.77623" lon="6.53091">
        <ele>1503.8</ele>
        <time>2025-08-15T12:50:52Z</time>
      </trkpt>
      <trkpt lat="45.77628" lon="6.53088">
        <ele>1503.6</ele>
        <time>2025-08-15T12:50:53Z</time>
      </trkpt>
      <trkpt lat="45.7763" lon="6.53085">
        <ele>1503.5</ele>
        <time>2025-08-15T12:50:54Z</time>
      </trkpt>
      <trkpt lat="45.77633" lon="6.53083">
        <ele>1503.3</ele>
        <time>2025-08-15T12:50:55Z</time>
      </trkpt>
      <trkpt lat="45.77634" lon="6.53083">
        <ele>1503.3</ele>
        <time>2025-08-15T12:50:56Z</time>
      </trkpt>
      <trkpt lat="45.77635" lon="6.53082">
        <ele>1503.2</ele>
        <time>2025-08-15T12:50:57Z</time>
      </trkpt>
      <trkpt lat="45.77637" lon="6.53082">
        <ele>1503.1</ele>
        <time>2025-08-15T12:50:58Z</time>
      </trkpt>
      <trkpt lat="45.7764" lon="6.53081">
        <ele>1502.8</ele>
        <time>2025-08-15T12:50:59Z</time>
      </trkpt>
      <trkpt lat="45.77642" lon="6.5308">
        <ele>1502.7</ele>
        <time>2025-08-15T12:51:00Z</time>
      </trkpt>
      <trkpt lat="45.77644" lon="6.53079">
        <ele>1502.5</ele>
        <time>2025-08-15T12:51:01Z</time>
      </trkpt>
      <trkpt lat="45.77648" lon="6.53078">
        <ele>1502.2</ele>
        <time>2025-08-15T12:51:02Z</time>
      </trkpt>
      <trkpt lat="45.7765" lon="6.53077">
        <ele>1502</ele>
        <time>2025-08-15T12:51:03Z</time>
      </trkpt>
      <trkpt lat="45.77653" lon="6.53076">
        <ele>1501.7</ele>
        <time>2025-08-15T12:51:04Z</time>
      </trkpt>
      <trkpt lat="45.77656" lon="6.53076">
        <ele>1501.4</ele>
        <time>2025-08-15T12:51:05Z</time>
      </trkpt>
      <trkpt lat="45.77657" lon="6.53076">
        <ele>1501.3</ele>
        <time>2025-08-15T12:51:06Z</time>
      </trkpt>
      <trkpt lat="45.77661" lon="6.53076">
        <ele>1500.9</ele>
        <time>2025-08-15T12:51:07Z</time>
      </trkpt>
      <trkpt lat="45.77662" lon="6.53076">
        <ele>1500.9</ele>
        <time>2025-08-15T12:51:08Z</time>
      </trkpt>
      <trkpt lat="45.77665" lon="6.53076">
        <ele>1500.5</ele>
        <time>2025-08-15T12:51:09Z</time>
      </trkpt>
      <trkpt lat="45.77668" lon="6.53078">
        <ele>1500.2</ele>
        <time>2025-08-15T12:51:10Z</time>
      </trkpt>
      <trkpt lat="45.77671" lon="6.53079">
        <ele>1499.8</ele>
        <time>2025-08-15T12:51:11Z</time>
      </trkpt>
      <trkpt lat="45.77675" lon="6.53082">
        <ele>1499.3</ele>
        <time>2025-08-15T12:51:12Z</time>
      </trkpt>
      <trkpt lat="45.77681" lon="6.53087">
        <ele>1498.5</ele>
        <time>2025-08-15T12:51:13Z</time>
      </trkpt>
      <trkpt lat="45.77687" lon="6.5309">
        <ele>1497.8</ele>
        <time>2025-08-15T12:51:14Z</time>
      </trkpt>
      <trkpt lat="45.77694" lon="6.53091">
        <ele>1497.2</ele>
        <time>2025-08-15T12:51:15Z</time>
      </trkpt>
      <trkpt lat="45.777" lon="6.53085">
        <ele>1496.6</ele>
        <time>2025-08-15T12:51:16Z</time>
      </trkpt>
      <trkpt lat="45.77704" lon="6.53078">
        <ele>1496</ele>
        <time>2025-08-15T12:51:17Z</time>
      </trkpt>
      <trkpt lat="45.7771" lon="6.53075">
        <ele>1495.5</ele>
        <time>2025-08-15T12:51:18Z</time>
      </trkpt>
      <trkpt lat="45.77717" lon="6.53071">
        <ele>1494.7</ele>
        <time>2025-08-15T12:51:19Z</time>
      </trkpt>
      <trkpt lat="45.77725" lon="6.53069">
        <ele>1493.9</ele>
        <time>2025-08-15T12:51:20Z</time>
      </trkpt>
      <trkpt lat="45.77732" lon="6.53068">
        <ele>1493.1</ele>
        <time>2025-08-15T12:51:21Z</time>
      </trkpt>
      <trkpt lat="45.77742" lon="6.53066">
        <ele>1492</ele>
        <time>2025-08-15T12:51:22Z</time>
      </trkpt>
      <trkpt lat="45.77751" lon="6.53066">
        <ele>1491.1</ele>
        <time>2025-08-15T12:51:23Z</time>
      </trkpt>
      <trkpt lat="45.7776" lon="6.5307">
        <ele>1490.1</ele>
        <time>2025-08-15T12:51:24Z</time>
      </trkpt>
      <trkpt lat="45.77769" lon="6.53074">
        <ele>1489.2</ele>
        <time>2025-08-15T12:51:25Z</time>
      </trkpt>
      <trkpt lat="45.77779" lon="6.53078">
        <ele>1488.2</ele>
        <time>2025-08-15T12:51:26Z</time>
      </trkpt>
      <trkpt lat="45.77789" lon="6.53077">
        <ele>1487.3</ele>
        <time>2025-08-15T12:51:27Z</time>
      </trkpt>
      <trkpt lat="45.778" lon="6.53077">
        <ele>1486.5</ele>
        <time>2025-08-15T12:51:28Z</time>
      </trkpt>
      <trkpt lat="45.77809" lon="6.53077">
        <ele>1485.8</ele>
        <time>2025-08-15T12:51:29Z</time>
      </trkpt>
      <trkpt lat="45.77819" lon="6.53075">
        <ele>1485.1</ele>
        <time>2025-08-15T12:51:30Z</time>
      </trkpt>
      <trkpt lat="45.77829" lon="6.53071">
        <ele>1484.4</ele>
        <time>2025-08-15T12:51:31Z</time>
      </trkpt>
      <trkpt lat="45.77838" lon="6.53068">
        <ele>1483.8</ele>
        <time>2025-08-15T12:51:32Z</time>
      </trkpt>
      <trkpt lat="45.77848" lon="6.53069">
        <ele>1483.1</ele>
        <time>2025-08-15T12:51:33Z</time>
      </trkpt>
      <trkpt lat="45.77858" lon="6.53071">
        <ele>1482.3</ele>
        <time>2025-08-15T12:51:34Z</time>
      </trkpt>
      <trkpt lat="45.77867" lon="6.53076">
        <ele>1481.5</ele>
        <time>2025-08-15T12:51:35Z</time>
      </trkpt>
      <trkpt lat="45.77876" lon="6.53078">
        <ele>1480.7</ele>
        <time>2025-08-15T12:51:36Z</time>
      </trkpt>
      <trkpt lat="45.77884" lon="6.53079">
        <ele>1479.9</ele>
        <time>2025-08-15T12:51:37Z</time>
      </trkpt>
      <trkpt lat="45.77891" lon="6.53076">
        <ele>1479.4</ele>
        <time>2025-08-15T12:51:38Z</time>
      </trkpt>
      <trkpt lat="45.77897" lon="6.53075">
        <ele>1478.8</ele>
        <time>2025-08-15T12:51:39Z</time>
      </trkpt>
      <trkpt lat="45.77902" lon="6.53078">
        <ele>1478.3</ele>
        <time>2025-08-15T12:51:40Z</time>
      </trkpt>
      <trkpt lat="45.77907" lon="6.53082">
        <ele>1477.9</ele>
        <time>2025-08-15T12:51:41Z</time>
      </trkpt>
      <trkpt lat="45.77911" lon="6.53087">
        <ele>1477.3</ele>
        <time>2025-08-15T12:51:42Z</time>
      </trkpt>
      <trkpt lat="45.77916" lon="6.5309">
        <ele>1476.9</ele>
        <time>2025-08-15T12:51:43Z</time>
      </trkpt>
      <trkpt lat="45.77919" lon="6.53093">
        <ele>1476.5</ele>
        <time>2025-08-15T12:51:44Z</time>
      </trkpt>
      <trkpt lat="45.77923" lon="6.53096">
        <ele>1476.1</ele>
        <time>2025-08-15T12:51:45Z</time>
      </trkpt>
      <trkpt lat="45.77927" lon="6.53097">
        <ele>1475.8</ele>
        <time>2025-08-15T12:51:46Z</time>
      </trkpt>
      <trkpt lat="45.77929" lon="6.531">
        <ele>1475.5</ele>
        <time>2025-08-15T12:51:47Z</time>
      </trkpt>
      <trkpt lat="45.77932" lon="6.53101">
        <ele>1475.2</ele>
        <time>2025-08-15T12:51:48Z</time>
      </trkpt>
      <trkpt lat="45.77933" lon="6.53102">
        <ele>1475.2</ele>
        <time>2025-08-15T12:51:49Z</time>
      </trkpt>
      <trkpt lat="45.77934" lon="6.53103">
        <ele>1475</ele>
        <time>2025-08-15T12:51:50Z</time>
      </trkpt>
      <trkpt lat="45.77936" lon="6.53102">
        <ele>1474.6</ele>
        <time>2025-08-15T12:51:51Z</time>
      </trkpt>
      <trkpt lat="45.77936" lon="6.53099">
        <ele>1474.5</ele>
        <time>2025-08-15T12:51:52Z</time>
      </trkpt>
      <trkpt lat="45.77936" lon="6.53097">
        <ele>1473.8</ele>
        <time>2025-08-15T12:51:53Z</time>
      </trkpt>
      <trkpt lat="45.77936" lon="6.53095">
        <ele>1473.6</ele>
        <time>2025-08-15T12:51:54Z</time>
      </trkpt>
      <trkpt lat="45.77936" lon="6.53093">
        <ele>1472.9</ele>
        <time>2025-08-15T12:51:55Z</time>
      </trkpt>
      <trkpt lat="45.77936" lon="6.5309">
        <ele>1472.8</ele>
        <time>2025-08-15T12:51:56Z</time>
      </trkpt>
      <trkpt lat="45.77936" lon="6.53088">
        <ele>1472.1</ele>
        <time>2025-08-15T12:51:57Z</time>
      </trkpt>
      <trkpt lat="45.77936" lon="6.53086">
        <ele>1472</ele>
        <time>2025-08-15T12:51:58Z</time>
      </trkpt>
      <trkpt lat="45.77936" lon="6.53084">
        <ele>1471.3</ele>
        <time>2025-08-15T12:51:59Z</time>
      </trkpt>
      <trkpt lat="45.77936" lon="6.53081">
        <ele>1470.8</ele>
        <time>2025-08-15T12:52:00Z</time>
      </trkpt>
      <trkpt lat="45.77936" lon="6.53079">
        <ele>1470.6</ele>
        <time>2025-08-15T12:52:01Z</time>
      </trkpt>
      <trkpt lat="45.77936" lon="6.53077">
        <ele>1470.1</ele>
        <time>2025-08-15T12:52:02Z</time>
      </trkpt>
      <trkpt lat="45.77936" lon="6.53075">
        <ele>1469.9</ele>
        <time>2025-08-15T12:55:51Z</time>
      </trkpt>
      <trkpt lat="45.77936" lon="6.53073">
        <ele>1469.5</ele>
        <time>2025-08-15T12:55:52Z</time>
      </trkpt>
      <trkpt lat="45.77931" lon="6.53069">
        <ele>1469.7</ele>
        <time>2025-08-15T12:55:53Z</time>
      </trkpt>
      <trkpt lat="45.7793" lon="6.53065">
        <ele>1469.3</ele>
        <time>2025-08-15T12:55:54Z</time>
      </trkpt>
      <trkpt lat="45.77933" lon="6.53064">
        <ele>1468.7</ele>
        <time>2025-08-15T12:55:55Z</time>
      </trkpt>
      <trkpt lat="45.77934" lon="6.53064">
        <ele>1468.8</ele>
        <time>2025-08-15T12:55:56Z</time>
      </trkpt>
      <trkpt lat="45.77935" lon="6.53063">
        <ele>1468.2</ele>
        <time>2025-08-15T12:55:57Z</time>
      </trkpt>
      <trkpt lat="45.77936" lon="6.53064">
        <ele>1468.1</ele>
        <time>2025-08-15T12:55:58Z</time>
      </trkpt>
      <trkpt lat="45.77938" lon="6.53064">
        <ele>1467.9</ele>
        <time>2025-08-15T12:55:59Z</time>
      </trkpt>
      <trkpt lat="45.77938" lon="6.53063">
        <ele>1467.6</ele>
        <time>2025-08-15T12:56:00Z</time>
      </trkpt>
      <trkpt lat="45.77938" lon="6.53061">
        <ele>1467.5</ele>
        <time>2025-08-15T12:56:01Z</time>
      </trkpt>
      <trkpt lat="45.77939" lon="6.5306">
        <ele>1467.3</ele>
        <time>2025-08-15T12:56:02Z</time>
      </trkpt>
      <trkpt lat="45.7794" lon="6.53056">
        <ele>1466.9</ele>
        <time>2025-08-15T12:56:03Z</time>
      </trkpt>
      <trkpt lat="45.77939" lon="6.53055">
        <ele>1466.8</ele>
        <time>2025-08-15T12:56:04Z</time>
      </trkpt>
      <trkpt lat="45.77939" lon="6.53055">
        <ele>1466.6</ele>
        <time>2025-08-15T12:56:05Z</time>
      </trkpt>
      <trkpt lat="45.77939" lon="6.53055">
        <ele>1466.5</ele>
        <time>2025-08-15T12:56:06Z</time>
      </trkpt>
      <trkpt lat="45.77939" lon="6.53055">
        <ele>1466.3</ele>
        <time>2025-08-15T12:56:07Z</time>
      </trkpt>
      <trkpt lat="45.77939" lon="6.53055">
        <ele>1466.2</ele>
        <time>2025-08-15T12:56:08Z</time>
      </trkpt>
      <trkpt lat="45.77939" lon="6.53054">
        <ele>1466</ele>
        <time>2025-08-15T12:56:09Z</time>
      </trkpt>
      <trkpt lat="45.77939" lon="6.53054">
        <ele>1465.9</ele>
        <time>2025-08-15T12:56:10Z</time>
      </trkpt>
      <trkpt lat="45.77939" lon="6.53054">
        <ele>1465.7</ele>
        <time>2025-08-15T12:56:11Z</time>
      </trkpt>
      <trkpt lat="45.77939" lon="6.53053">
        <ele>1465.6</ele>
        <time>2025-08-15T12:56:12Z</time>
      </trkpt>
      <trkpt lat="45.77939" lon="6.53053">
        <ele>1465.4</ele>
        <time>2025-08-15T12:56:13Z</time>
      </trkpt>
      <trkpt lat="45.77938" lon="6.53053">
        <ele>1465.3</ele>
        <time>2025-08-15T12:56:14Z</time>
      </trkpt>
      <trkpt lat="45.77939" lon="6.53046">
        <ele>1465.2</ele>
        <time>2025-08-15T12:56:31Z</time>
      </trkpt>
      <trkpt lat="45.77938" lon="6.53043">
        <ele>1465.2</ele>
        <time>2025-08-15T12:56:32Z</time>
      </trkpt>
      <trkpt lat="45.77937" lon="6.53043">
        <ele>1465.2</ele>
        <time>2025-08-15T12:56:33Z</time>
      </trkpt>
      <trkpt lat="45.7794" lon="6.53042">
        <ele>1464.9</ele>
        <time>2025-08-15T12:56:34Z</time>
      </trkpt>
      <trkpt lat="45.77941" lon="6.53041">
        <ele>1464.6</ele>
        <time>2025-08-15T12:56:35Z</time>
      </trkpt>
      <trkpt lat="45.77941" lon="6.53038">
        <ele>1464.8</ele>
        <time>2025-08-15T12:56:36Z</time>
      </trkpt>
      <trkpt lat="45.7794" lon="6.53036">
        <ele>1464.7</ele>
        <time>2025-08-15T12:56:37Z</time>
      </trkpt>
      <trkpt lat="45.7794" lon="6.53035">
        <ele>1464.5</ele>
        <time>2025-08-15T12:56:38Z</time>
      </trkpt>
      <trkpt lat="45.7794" lon="6.5303">
        <ele>1464.7</ele>
        <time>2025-08-15T12:56:39Z</time>
      </trkpt>
      <trkpt lat="45.7794" lon="6.53029">
        <ele>1464.9</ele>
        <time>2025-08-15T12:56:40Z</time>
      </trkpt>
      <trkpt lat="45.7794" lon="6.53027">
        <ele>1464.7</ele>
        <time>2025-08-15T12:56:41Z</time>
      </trkpt>
      <trkpt lat="45.7794" lon="6.53026">
        <ele>1464.6</ele>
        <time>2025-08-15T12:56:42Z</time>
      </trkpt>
      <trkpt lat="45.77939" lon="6.53024">
        <ele>1464.9</ele>
        <time>2025-08-15T12:56:43Z</time>
      </trkpt>
      <trkpt lat="45.7794" lon="6.53023">
        <ele>1464.7</ele>
        <time>2025-08-15T12:56:44Z</time>
      </trkpt>
      <trkpt lat="45.77939" lon="6.53021">
        <ele>1465.1</ele>
        <time>2025-08-15T12:56:45Z</time>
      </trkpt>
      <trkpt lat="45.77938" lon="6.53019">
        <ele>1464.9</ele>
        <time>2025-08-15T12:56:46Z</time>
      </trkpt>
      <trkpt lat="45.77938" lon="6.53018">
        <ele>1464.8</ele>
        <time>2025-08-15T12:56:47Z</time>
      </trkpt>
      <trkpt lat="45.77938" lon="6.53017">
        <ele>1465.2</ele>
        <time>2025-08-15T12:56:48Z</time>
      </trkpt>
      <trkpt lat="45.77938" lon="6.53019">
        <ele>1465.2</ele>
        <time>2025-08-15T12:56:49Z</time>
      </trkpt>
      <trkpt lat="45.77938" lon="6.53019">
        <ele>1465.3</ele>
        <time>2025-08-15T12:56:50Z</time>
      </trkpt>
      <trkpt lat="45.77937" lon="6.53018">
        <ele>1465.3</ele>
        <time>2025-08-15T12:56:51Z</time>
      </trkpt>
      <trkpt lat="45.77936" lon="6.53018">
        <ele>1465.3</ele>
        <time>2025-08-15T12:56:52Z</time>
      </trkpt>
      <trkpt lat="45.77936" lon="6.53017">
        <ele>1465.3</ele>
        <time>2025-08-15T12:56:53Z</time>
      </trkpt>
      <trkpt lat="45.77935" lon="6.53017">
        <ele>1465.4</ele>
        <time>2025-08-15T12:56:54Z</time>
      </trkpt>
      <trkpt lat="45.77934" lon="6.53017">
        <ele>1465.4</ele>
        <time>2025-08-15T12:56:55Z</time>
      </trkpt>
      <trkpt lat="45.77934" lon="6.53017">
        <ele>1465.4</ele>
        <time>2025-08-15T12:56:56Z</time>
      </trkpt>
      <trkpt lat="45.77934" lon="6.53017">
        <ele>1465.4</ele>
        <time>2025-08-15T12:56:57Z</time>
      </trkpt>
      <trkpt lat="45.77934" lon="6.53017">
        <ele>1465.4</ele>
        <time>2025-08-15T12:56:58Z</time>
      </trkpt>
      <trkpt lat="45.77931" lon="6.53018">
        <ele>1465.4</ele>
        <time>2025-08-15T12:57:09Z</time>
      </trkpt>
      <trkpt lat="45.77932" lon="6.53017">
        <ele>1465.4</ele>
        <time>2025-08-15T12:57:10Z</time>
      </trkpt>
      <trkpt lat="45.77934" lon="6.53016">
        <ele>1465.5</ele>
        <time>2025-08-15T12:57:11Z</time>
      </trkpt>
      <trkpt lat="45.77935" lon="6.53017">
        <ele>1465.5</ele>
        <time>2025-08-15T12:57:12Z</time>
      </trkpt>
      <trkpt lat="45.77936" lon="6.53016">
        <ele>1465.5</ele>
        <time>2025-08-15T12:57:13Z</time>
      </trkpt>
      <trkpt lat="45.77937" lon="6.53016">
        <ele>1465.5</ele>
        <time>2025-08-15T12:57:14Z</time>
      </trkpt>
      <trkpt lat="45.77939" lon="6.53016">
        <ele>1465.5</ele>
        <time>2025-08-15T12:57:15Z</time>
      </trkpt>
      <trkpt lat="45.77939" lon="6.53016">
        <ele>1465.5</ele>
        <time>2025-08-15T12:57:16Z</time>
      </trkpt>
      <trkpt lat="45.77941" lon="6.53015">
        <ele>1465.5</ele>
        <time>2025-08-15T12:57:17Z</time>
      </trkpt>
      <trkpt lat="45.77942" lon="6.53015">
        <ele>1465.5</ele>
        <time>2025-08-15T12:57:18Z</time>
      </trkpt>
      <trkpt lat="45.77944" lon="6.53014">
        <ele>1465.5</ele>
        <time>2025-08-15T12:57:19Z</time>
      </trkpt>
      <trkpt lat="45.77946" lon="6.53013">
        <ele>1465.5</ele>
        <time>2025-08-15T12:57:20Z</time>
      </trkpt>
      <trkpt lat="45.77946" lon="6.53012">
        <ele>1465.5</ele>
        <time>2025-08-15T12:57:21Z</time>
      </trkpt>
      <trkpt lat="45.77947" lon="6.53012">
        <ele>1465.5</ele>
        <time>2025-08-15T12:57:22Z</time>
      </trkpt>
      <trkpt lat="45.77948" lon="6.53012">
        <ele>1465.5</ele>
        <time>2025-08-15T12:57:23Z</time>
      </trkpt>
      <trkpt lat="45.77951" lon="6.53012">
        <ele>1465.4</ele>
        <time>2025-08-15T12:57:24Z</time>
      </trkpt>
      <trkpt lat="45.77952" lon="6.53012">
        <ele>1465.4</ele>
        <time>2025-08-15T12:57:25Z</time>
      </trkpt>
      <trkpt lat="45.77955" lon="6.53013">
        <ele>1465.4</ele>
        <time>2025-08-15T12:57:26Z</time>
      </trkpt>
      <trkpt lat="45.77956" lon="6.53013">
        <ele>1465.4</ele>
        <time>2025-08-15T12:57:27Z</time>
      </trkpt>
      <trkpt lat="45.77959" lon="6.53014">
        <ele>1465.3</ele>
        <time>2025-08-15T12:57:28Z</time>
      </trkpt>
      <trkpt lat="45.7796" lon="6.53014">
        <ele>1465.3</ele>
        <time>2025-08-15T12:57:29Z</time>
      </trkpt>
      <trkpt lat="45.77962" lon="6.53013">
        <ele>1465.3</ele>
        <time>2025-08-15T12:57:30Z</time>
      </trkpt>
      <trkpt lat="45.77963" lon="6.53014">
        <ele>1465.2</ele>
        <time>2025-08-15T12:57:31Z</time>
      </trkpt>
      <trkpt lat="45.77965" lon="6.53014">
        <ele>1465.2</ele>
        <time>2025-08-15T12:57:32Z</time>
      </trkpt>
      <trkpt lat="45.77966" lon="6.53016">
        <ele>1465.2</ele>
        <time>2025-08-15T12:57:33Z</time>
      </trkpt>
      <trkpt lat="45.77967" lon="6.53016">
        <ele>1465.2</ele>
        <time>2025-08-15T12:57:34Z</time>
      </trkpt>
      <trkpt lat="45.77969" lon="6.53016">
        <ele>1465.1</ele>
        <time>2025-08-15T12:57:35Z</time>
      </trkpt>
      <trkpt lat="45.77971" lon="6.53016">
        <ele>1465.1</ele>
        <time>2025-08-15T12:57:36Z</time>
      </trkpt>
      <trkpt lat="45.77972" lon="6.53016">
        <ele>1465.1</ele>
        <time>2025-08-15T12:57:37Z</time>
      </trkpt>
      <trkpt lat="45.77973" lon="6.53016">
        <ele>1465</ele>
        <time>2025-08-15T12:57:38Z</time>
      </trkpt>
      <trkpt lat="45.77975" lon="6.53016">
        <ele>1465</ele>
        <time>2025-08-15T12:57:39Z</time>
      </trkpt>
      <trkpt lat="45.77976" lon="6.53016">
        <ele>1465</ele>
        <time>2025-08-15T12:57:40Z</time>
      </trkpt>
      <trkpt lat="45.77977" lon="6.53016">
        <ele>1465</ele>
        <time>2025-08-15T12:57:41Z</time>
      </trkpt>
      <trkpt lat="45.77978" lon="6.53017">
        <ele>1464.9</ele>
        <time>2025-08-15T12:57:42Z</time>
      </trkpt>
      <trkpt lat="45.77979" lon="6.53016">
        <ele>1464.9</ele>
        <time>2025-08-15T12:57:43Z</time>
      </trkpt>
      <trkpt lat="45.77981" lon="6.53016">
        <ele>1464.9</ele>
        <time>2025-08-15T12:57:44Z</time>
      </trkpt>
      <trkpt lat="45.77984" lon="6.53016">
        <ele>1464.8</ele>
        <time>2025-08-15T12:57:45Z</time>
      </trkpt>
      <trkpt lat="45.77985" lon="6.53016">
        <ele>1464.8</ele>
        <time>2025-08-15T12:57:46Z</time>
      </trkpt>
      <trkpt lat="45.77988" lon="6.53016">
        <ele>1464.7</ele>
        <time>2025-08-15T12:57:47Z</time>
      </trkpt>
      <trkpt lat="45.77989" lon="6.53016">
        <ele>1464.7</ele>
        <time>2025-08-15T12:57:48Z</time>
      </trkpt>
      <trkpt lat="45.77992" lon="6.53016">
        <ele>1464.7</ele>
        <time>2025-08-15T12:57:49Z</time>
      </trkpt>
      <trkpt lat="45.77993" lon="6.53016">
        <ele>1464.6</ele>
        <time>2025-08-15T12:57:50Z</time>
      </trkpt>
      <trkpt lat="45.77997" lon="6.53016">
        <ele>1464.6</ele>
        <time>2025-08-15T12:57:51Z</time>
      </trkpt>
      <trkpt lat="45.78" lon="6.53016">
        <ele>1464.5</ele>
        <time>2025-08-15T12:57:52Z</time>
      </trkpt>
      <trkpt lat="45.78003" lon="6.53016">
        <ele>1464.5</ele>
        <time>2025-08-15T12:57:53Z</time>
      </trkpt>
      <trkpt lat="45.78007" lon="6.53016">
        <ele>1464.4</ele>
        <time>2025-08-15T12:57:54Z</time>
      </trkpt>
      <trkpt lat="45.7801" lon="6.53016">
        <ele>1464.3</ele>
        <time>2025-08-15T12:57:55Z</time>
      </trkpt>
      <trkpt lat="45.78013" lon="6.53014">
        <ele>1464.2</ele>
        <time>2025-08-15T12:57:56Z</time>
      </trkpt>
      <trkpt lat="45.78017" lon="6.53015">
        <ele>1464.2</ele>
        <time>2025-08-15T12:57:57Z</time>
      </trkpt>
      <trkpt lat="45.78018" lon="6.53015">
        <ele>1464.1</ele>
        <time>2025-08-15T12:57:58Z</time>
      </trkpt>
      <trkpt lat="45.78022" lon="6.53015">
        <ele>1464</ele>
        <time>2025-08-15T12:57:59Z</time>
      </trkpt>
      <trkpt lat="45.78024" lon="6.53016">
        <ele>1464</ele>
        <time>2025-08-15T12:58:00Z</time>
      </trkpt>
      <trkpt lat="45.78026" lon="6.53018">
        <ele>1463.9</ele>
        <time>2025-08-15T12:58:01Z</time>
      </trkpt>
      <trkpt lat="45.7803" lon="6.53019">
        <ele>1463.8</ele>
        <time>2025-08-15T12:58:02Z</time>
      </trkpt>
      <trkpt lat="45.78032" lon="6.5302">
        <ele>1463.8</ele>
        <time>2025-08-15T12:58:03Z</time>
      </trkpt>
      <trkpt lat="45.78035" lon="6.53022">
        <ele>1463.7</ele>
        <time>2025-08-15T12:58:04Z</time>
      </trkpt>
      <trkpt lat="45.78038" lon="6.53024">
        <ele>1463.6</ele>
        <time>2025-08-15T12:58:05Z</time>
      </trkpt>
      <trkpt lat="45.78041" lon="6.53025">
        <ele>1463.6</ele>
        <time>2025-08-15T12:58:06Z</time>
      </trkpt>
      <trkpt lat="45.78045" lon="6.53027">
        <ele>1463.5</ele>
        <time>2025-08-15T12:58:07Z</time>
      </trkpt>
      <trkpt lat="45.78049" lon="6.53028">
        <ele>1463.5</ele>
        <time>2025-08-15T12:58:08Z</time>
      </trkpt>
      <trkpt lat="45.78053" lon="6.53029">
        <ele>1463.5</ele>
        <time>2025-08-15T12:58:09Z</time>
      </trkpt>
      <trkpt lat="45.78057" lon="6.53028">
        <ele>1463.5</ele>
        <time>2025-08-15T12:58:10Z</time>
      </trkpt>
      <trkpt lat="45.78061" lon="6.53028">
        <ele>1463.6</ele>
        <time>2025-08-15T12:58:11Z</time>
      </trkpt>
      <trkpt lat="45.78064" lon="6.53029">
        <ele>1463.6</ele>
        <time>2025-08-15T12:58:12Z</time>
      </trkpt>
      <trkpt lat="45.78068" lon="6.53028">
        <ele>1463.7</ele>
        <time>2025-08-15T12:58:13Z</time>
      </trkpt>
      <trkpt lat="45.78069" lon="6.53027">
        <ele>1463.7</ele>
        <time>2025-08-15T12:58:14Z</time>
      </trkpt>
      <trkpt lat="45.78072" lon="6.53027">
        <ele>1464</ele>
        <time>2025-08-15T12:58:15Z</time>
      </trkpt>
      <trkpt lat="45.78073" lon="6.53026">
        <ele>1464</ele>
        <time>2025-08-15T12:58:16Z</time>
      </trkpt>
      <trkpt lat="45.78076" lon="6.53027">
        <ele>1464.3</ele>
        <time>2025-08-15T12:58:17Z</time>
      </trkpt>
      <trkpt lat="45.78077" lon="6.53027">
        <ele>1464.3</ele>
        <time>2025-08-15T12:58:18Z</time>
      </trkpt>
      <trkpt lat="45.7808" lon="6.53027">
        <ele>1464.6</ele>
        <time>2025-08-15T12:58:19Z</time>
      </trkpt>
      <trkpt lat="45.78081" lon="6.53027">
        <ele>1464.7</ele>
        <time>2025-08-15T12:58:20Z</time>
      </trkpt>
      <trkpt lat="45.78084" lon="6.5303">
        <ele>1465</ele>
        <time>2025-08-15T12:58:21Z</time>
      </trkpt>
      <trkpt lat="45.78085" lon="6.53031">
        <ele>1465</ele>
        <time>2025-08-15T12:58:22Z</time>
      </trkpt>
      <trkpt lat="45.78086" lon="6.53031">
        <ele>1465.2</ele>
        <time>2025-08-15T12:58:23Z</time>
      </trkpt>
      <trkpt lat="45.78087" lon="6.53032">
        <ele>1465.3</ele>
        <time>2025-08-15T12:58:24Z</time>
      </trkpt>
      <trkpt lat="45.78088" lon="6.53032">
        <ele>1465.4</ele>
        <time>2025-08-15T12:58:25Z</time>
      </trkpt>
      <trkpt lat="45.78091" lon="6.5303">
        <ele>1465.7</ele>
        <time>2025-08-15T12:58:26Z</time>
      </trkpt>
      <trkpt lat="45.78092" lon="6.5303">
        <ele>1465.9</ele>
        <time>2025-08-15T12:58:27Z</time>
      </trkpt>
      <trkpt lat="45.78094" lon="6.5303">
        <ele>1466</ele>
        <time>2025-08-15T12:58:28Z</time>
      </trkpt>
      <trkpt lat="45.78095" lon="6.53031">
        <ele>1466.1</ele>
        <time>2025-08-15T12:58:29Z</time>
      </trkpt>
      <trkpt lat="45.78095" lon="6.53032">
        <ele>1466.2</ele>
        <time>2025-08-15T12:58:30Z</time>
      </trkpt>
      <trkpt lat="45.78099" lon="6.53033">
        <ele>1466.6</ele>
        <time>2025-08-15T12:58:31Z</time>
      </trkpt>
      <trkpt lat="45.781" lon="6.53033">
        <ele>1466.7</ele>
        <time>2025-08-15T12:58:32Z</time>
      </trkpt>
      <trkpt lat="45.78103" lon="6.53034">
        <ele>1467.1</ele>
        <time>2025-08-15T12:58:33Z</time>
      </trkpt>
      <trkpt lat="45.78104" lon="6.53034">
        <ele>1467.2</ele>
        <time>2025-08-15T12:58:34Z</time>
      </trkpt>
      <trkpt lat="45.78106" lon="6.53033">
        <ele>1467.4</ele>
        <time>2025-08-15T12:58:35Z</time>
      </trkpt>
      <trkpt lat="45.78107" lon="6.53033">
        <ele>1467.6</ele>
        <time>2025-08-15T12:58:36Z</time>
      </trkpt>
      <trkpt lat="45.78108" lon="6.53033">
        <ele>1467.6</ele>
        <time>2025-08-15T12:58:37Z</time>
      </trkpt>
      <trkpt lat="45.7811" lon="6.53034">
        <ele>1467.9</ele>
        <time>2025-08-15T12:58:38Z</time>
      </trkpt>
      <trkpt lat="45.78112" lon="6.53034">
        <ele>1468.2</ele>
        <time>2025-08-15T12:58:39Z</time>
      </trkpt>
      <trkpt lat="45.78113" lon="6.53035">
        <ele>1468.3</ele>
        <time>2025-08-15T12:58:40Z</time>
      </trkpt>
      <trkpt lat="45.78116" lon="6.53034">
        <ele>1468.7</ele>
        <time>2025-08-15T12:58:41Z</time>
      </trkpt>
      <trkpt lat="45.78117" lon="6.53034">
        <ele>1468.8</ele>
        <time>2025-08-15T12:58:42Z</time>
      </trkpt>
      <trkpt lat="45.7812" lon="6.53035">
        <ele>1469.2</ele>
        <time>2025-08-15T12:58:43Z</time>
      </trkpt>
      <trkpt lat="45.78121" lon="6.53035">
        <ele>1469.3</ele>
        <time>2025-08-15T12:58:44Z</time>
      </trkpt>
      <trkpt lat="45.78124" lon="6.53035">
        <ele>1469.7</ele>
        <time>2025-08-15T12:58:45Z</time>
      </trkpt>
      <trkpt lat="45.78125" lon="6.53035">
        <ele>1469.8</ele>
        <time>2025-08-15T12:58:46Z</time>
      </trkpt>
      <trkpt lat="45.78126" lon="6.53035">
        <ele>1470</ele>
        <time>2025-08-15T12:58:47Z</time>
      </trkpt>
      <trkpt lat="45.78128" lon="6.53036">
        <ele>1470.2</ele>
        <time>2025-08-15T12:58:48Z</time>
      </trkpt>
      <trkpt lat="45.78131" lon="6.53035">
        <ele>1470.6</ele>
        <time>2025-08-15T12:58:49Z</time>
      </trkpt>
      <trkpt lat="45.78132" lon="6.53035">
        <ele>1470.7</ele>
        <time>2025-08-15T12:58:50Z</time>
      </trkpt>
      <trkpt lat="45.78134" lon="6.53035">
        <ele>1471.1</ele>
        <time>2025-08-15T12:58:51Z</time>
      </trkpt>
      <trkpt lat="45.78135" lon="6.53035">
        <ele>1471.2</ele>
        <time>2025-08-15T12:58:52Z</time>
      </trkpt>
      <trkpt lat="45.78137" lon="6.53035">
        <ele>1471.4</ele>
        <time>2025-08-15T12:58:53Z</time>
      </trkpt>
      <trkpt lat="45.78138" lon="6.53036">
        <ele>1471.6</ele>
        <time>2025-08-15T12:58:54Z</time>
      </trkpt>
      <trkpt lat="45.78141" lon="6.53036">
        <ele>1471.9</ele>
        <time>2025-08-15T12:58:55Z</time>
      </trkpt>
      <trkpt lat="45.78142" lon="6.53036">
        <ele>1472.1</ele>
        <time>2025-08-15T12:58:56Z</time>
      </trkpt>
      <trkpt lat="45.78144" lon="6.53037">
        <ele>1472.4</ele>
        <time>2025-08-15T12:58:57Z</time>
      </trkpt>
      <trkpt lat="45.78146" lon="6.53038">
        <ele>1472.5</ele>
        <time>2025-08-15T12:58:58Z</time>
      </trkpt>
      <trkpt lat="45.78148" lon="6.53038">
        <ele>1472.9</ele>
        <time>2025-08-15T12:58:59Z</time>
      </trkpt>
      <trkpt lat="45.78149" lon="6.53039">
        <ele>1473</ele>
        <time>2025-08-15T12:59:00Z</time>
      </trkpt>
      <trkpt lat="45.78152" lon="6.53039">
        <ele>1473.3</ele>
        <time>2025-08-15T12:59:01Z</time>
      </trkpt>
      <trkpt lat="45.78153" lon="6.53039">
        <ele>1473.4</ele>
        <time>2025-08-15T12:59:02Z</time>
      </trkpt>
      <trkpt lat="45.78155" lon="6.5304">
        <ele>1473.7</ele>
        <time>2025-08-15T12:59:03Z</time>
      </trkpt>
      <trkpt lat="45.78156" lon="6.5304">
        <ele>1473.9</ele>
        <time>2025-08-15T12:59:04Z</time>
      </trkpt>
      <trkpt lat="45.78158" lon="6.5304">
        <ele>1474.1</ele>
        <time>2025-08-15T12:59:05Z</time>
      </trkpt>
      <trkpt lat="45.7816" lon="6.53041">
        <ele>1474.3</ele>
        <time>2025-08-15T12:59:06Z</time>
      </trkpt>
      <trkpt lat="45.78161" lon="6.53043">
        <ele>1474.5</ele>
        <time>2025-08-15T12:59:07Z</time>
      </trkpt>
      <trkpt lat="45.78162" lon="6.53043">
        <ele>1474.7</ele>
        <time>2025-08-15T12:59:08Z</time>
      </trkpt>
      <trkpt lat="45.78165" lon="6.53043">
        <ele>1475.2</ele>
        <time>2025-08-15T12:59:09Z</time>
      </trkpt>
      <trkpt lat="45.78166" lon="6.53043">
        <ele>1475.3</ele>
        <time>2025-08-15T12:59:10Z</time>
      </trkpt>
      <trkpt lat="45.78167" lon="6.53042">
        <ele>1475.5</ele>
        <time>2025-08-15T12:59:11Z</time>
      </trkpt>
      <trkpt lat="45.78169" lon="6.53042">
        <ele>1475.7</ele>
        <time>2025-08-15T12:59:12Z</time>
      </trkpt>
      <trkpt lat="45.7817" lon="6.53044">
        <ele>1475.9</ele>
        <time>2025-08-15T12:59:13Z</time>
      </trkpt>
      <trkpt lat="45.78172" lon="6.53044">
        <ele>1476.2</ele>
        <time>2025-08-15T12:59:14Z</time>
      </trkpt>
      <trkpt lat="45.78175" lon="6.53044">
        <ele>1476.5</ele>
        <time>2025-08-15T12:59:15Z</time>
      </trkpt>
      <trkpt lat="45.78176" lon="6.53044">
        <ele>1476.7</ele>
        <time>2025-08-15T12:59:16Z</time>
      </trkpt>
      <trkpt lat="45.78178" lon="6.53044">
        <ele>1477</ele>
        <time>2025-08-15T12:59:17Z</time>
      </trkpt>
      <trkpt lat="45.78179" lon="6.53045">
        <ele>1477.2</ele>
        <time>2025-08-15T12:59:18Z</time>
      </trkpt>
      <trkpt lat="45.78181" lon="6.53045">
        <ele>1477.4</ele>
        <time>2025-08-15T12:59:19Z</time>
      </trkpt>
      <trkpt lat="45.78183" lon="6.53045">
        <ele>1477.7</ele>
        <time>2025-08-15T12:59:20Z</time>
      </trkpt>
      <trkpt lat="45.78184" lon="6.53045">
        <ele>1477.9</ele>
        <time>2025-08-15T12:59:21Z</time>
      </trkpt>
      <trkpt lat="45.78186" lon="6.53045">
        <ele>1478.1</ele>
        <time>2025-08-15T12:59:22Z</time>
      </trkpt>
      <trkpt lat="45.78189" lon="6.53045">
        <ele>1478.6</ele>
        <time>2025-08-15T12:59:23Z</time>
      </trkpt>
      <trkpt lat="45.7819" lon="6.53045">
        <ele>1478.7</ele>
        <time>2025-08-15T12:59:24Z</time>
      </trkpt>
      <trkpt lat="45.78191" lon="6.53045">
        <ele>1478.9</ele>
        <time>2025-08-15T12:59:25Z</time>
      </trkpt>
      <trkpt lat="45.78193" lon="6.53045">
        <ele>1479.2</ele>
        <time>2025-08-15T12:59:26Z</time>
      </trkpt>
      <trkpt lat="45.78195" lon="6.53046">
        <ele>1479.4</ele>
        <time>2025-08-15T12:59:27Z</time>
      </trkpt>
      <trkpt lat="45.78196" lon="6.53046">
        <ele>1479.6</ele>
        <time>2025-08-15T12:59:28Z</time>
      </trkpt>
      <trkpt lat="45.78199" lon="6.53046">
        <ele>1480</ele>
        <time>2025-08-15T12:59:29Z</time>
      </trkpt>
      <trkpt lat="45.78199" lon="6.53046">
        <ele>1480.2</ele>
        <time>2025-08-15T12:59:30Z</time>
      </trkpt>
      <trkpt lat="45.78201" lon="6.53048">
        <ele>1480.5</ele>
        <time>2025-08-15T12:59:31Z</time>
      </trkpt>
      <trkpt lat="45.78202" lon="6.53049">
        <ele>1480.7</ele>
        <time>2025-08-15T12:59:32Z</time>
      </trkpt>
      <trkpt lat="45.78203" lon="6.53049">
        <ele>1480.8</ele>
        <time>2025-08-15T12:59:33Z</time>
      </trkpt>
      <trkpt lat="45.78205" lon="6.53051">
        <ele>1481.1</ele>
        <time>2025-08-15T12:59:34Z</time>
      </trkpt>
      <trkpt lat="45.78206" lon="6.53051">
        <ele>1481.4</ele>
        <time>2025-08-15T12:59:35Z</time>
      </trkpt>
      <trkpt lat="45.78208" lon="6.53052">
        <ele>1481.6</ele>
        <time>2025-08-15T12:59:36Z</time>
      </trkpt>
      <trkpt lat="45.7821" lon="6.53053">
        <ele>1481.9</ele>
        <time>2025-08-15T12:59:37Z</time>
      </trkpt>
      <trkpt lat="45.78212" lon="6.53054">
        <ele>1482.3</ele>
        <time>2025-08-15T12:59:38Z</time>
      </trkpt>
      <trkpt lat="45.78213" lon="6.53054">
        <ele>1482.4</ele>
        <time>2025-08-15T12:59:39Z</time>
      </trkpt>
      <trkpt lat="45.78214" lon="6.53055">
        <ele>1482.6</ele>
        <time>2025-08-15T12:59:40Z</time>
      </trkpt>
      <trkpt lat="45.78215" lon="6.53056">
        <ele>1482.9</ele>
        <time>2025-08-15T12:59:41Z</time>
      </trkpt>
      <trkpt lat="45.78216" lon="6.53056">
        <ele>1483.1</ele>
        <time>2025-08-15T12:59:42Z</time>
      </trkpt>
      <trkpt lat="45.78219" lon="6.53058">
        <ele>1483.5</ele>
        <time>2025-08-15T12:59:43Z</time>
      </trkpt>
      <trkpt lat="45.7822" lon="6.53058">
        <ele>1483.7</ele>
        <time>2025-08-15T12:59:44Z</time>
      </trkpt>
      <trkpt lat="45.78222" lon="6.53059">
        <ele>1484</ele>
        <time>2025-08-15T12:59:45Z</time>
      </trkpt>
      <trkpt lat="45.78223" lon="6.5306">
        <ele>1484.1</ele>
        <time>2025-08-15T12:59:46Z</time>
      </trkpt>
      <trkpt lat="45.78224" lon="6.53061">
        <ele>1484.3</ele>
        <time>2025-08-15T12:59:47Z</time>
      </trkpt>
      <trkpt lat="45.78225" lon="6.53061">
        <ele>1484.5</ele>
        <time>2025-08-15T12:59:48Z</time>
      </trkpt>
      <trkpt lat="45.78227" lon="6.53062">
        <ele>1484.7</ele>
        <time>2025-08-15T12:59:49Z</time>
      </trkpt>
      <trkpt lat="45.78228" lon="6.53063">
        <ele>1485</ele>
        <time>2025-08-15T12:59:50Z</time>
      </trkpt>
      <trkpt lat="45.7823" lon="6.53063">
        <ele>1485.2</ele>
        <time>2025-08-15T12:59:51Z</time>
      </trkpt>
      <trkpt lat="45.78232" lon="6.53065">
        <ele>1485.6</ele>
        <time>2025-08-15T12:59:52Z</time>
      </trkpt>
      <trkpt lat="45.78233" lon="6.53064">
        <ele>1485.8</ele>
        <time>2025-08-15T12:59:53Z</time>
      </trkpt>
      <trkpt lat="45.78235" lon="6.53066">
        <ele>1486</ele>
        <time>2025-08-15T12:59:54Z</time>
      </trkpt>
      <trkpt lat="45.78237" lon="6.53066">
        <ele>1486.3</ele>
        <time>2025-08-15T12:59:55Z</time>
      </trkpt>
      <trkpt lat="45.78238" lon="6.53066">
        <ele>1486.5</ele>
        <time>2025-08-15T12:59:56Z</time>
      </trkpt>
      <trkpt lat="45.78239" lon="6.53067">
        <ele>1486.7</ele>
        <time>2025-08-15T12:59:57Z</time>
      </trkpt>
      <trkpt lat="45.78243" lon="6.53067">
        <ele>1487.2</ele>
        <time>2025-08-15T12:59:58Z</time>
      </trkpt>
      <trkpt lat="45.78244" lon="6.53067">
        <ele>1487.3</ele>
        <time>2025-08-15T12:59:59Z</time>
      </trkpt>
      <trkpt lat="45.78246" lon="6.53067">
        <ele>1487.7</ele>
        <time>2025-08-15T13:00:00Z</time>
      </trkpt>
      <trkpt lat="45.78247" lon="6.53068">
        <ele>1487.8</ele>
        <time>2025-08-15T13:00:01Z</time>
      </trkpt>
      <trkpt lat="45.78248" lon="6.53069">
        <ele>1487.9</ele>
        <time>2025-08-15T13:00:02Z</time>
      </trkpt>
      <trkpt lat="45.7825" lon="6.53069">
        <ele>1488.3</ele>
        <time>2025-08-15T13:00:03Z</time>
      </trkpt>
      <trkpt lat="45.7825" lon="6.53069">
        <ele>1488.3</ele>
        <time>2025-08-15T13:00:04Z</time>
      </trkpt>
      <trkpt lat="45.78251" lon="6.53069">
        <ele>1488.4</ele>
        <time>2025-08-15T13:00:05Z</time>
      </trkpt>
      <trkpt lat="45.78253" lon="6.5307">
        <ele>1488.7</ele>
        <time>2025-08-15T13:00:06Z</time>
      </trkpt>
      <trkpt lat="45.78256" lon="6.53071">
        <ele>1489.1</ele>
        <time>2025-08-15T13:00:07Z</time>
      </trkpt>
      <trkpt lat="45.78257" lon="6.53071">
        <ele>1489.2</ele>
        <time>2025-08-15T13:00:08Z</time>
      </trkpt>
      <trkpt lat="45.78258" lon="6.53071">
        <ele>1489.4</ele>
        <time>2025-08-15T13:00:09Z</time>
      </trkpt>
      <trkpt lat="45.7826" lon="6.53072">
        <ele>1489.7</ele>
        <time>2025-08-15T13:00:10Z</time>
      </trkpt>
      <trkpt lat="45.78262" lon="6.53072">
        <ele>1489.9</ele>
        <time>2025-08-15T13:00:11Z</time>
      </trkpt>
      <trkpt lat="45.78263" lon="6.53072">
        <ele>1490.2</ele>
        <time>2025-08-15T13:00:12Z</time>
      </trkpt>
      <trkpt lat="45.78266" lon="6.53073">
        <ele>1490.6</ele>
        <time>2025-08-15T13:00:13Z</time>
      </trkpt>
      <trkpt lat="45.78267" lon="6.53073">
        <ele>1490.7</ele>
        <time>2025-08-15T13:00:14Z</time>
      </trkpt>
      <trkpt lat="45.78268" lon="6.53073">
        <ele>1490.9</ele>
        <time>2025-08-15T13:00:15Z</time>
      </trkpt>
      <trkpt lat="45.7827" lon="6.53073">
        <ele>1491.2</ele>
        <time>2025-08-15T13:00:16Z</time>
      </trkpt>
      <trkpt lat="45.78272" lon="6.53074">
        <ele>1491.4</ele>
        <time>2025-08-15T13:00:17Z</time>
      </trkpt>
      <trkpt lat="45.78274" lon="6.53075">
        <ele>1491.7</ele>
        <time>2025-08-15T13:00:18Z</time>
      </trkpt>
      <trkpt lat="45.78275" lon="6.53075">
        <ele>1491.9</ele>
        <time>2025-08-15T13:00:19Z</time>
      </trkpt>
      <trkpt lat="45.78276" lon="6.53076">
        <ele>1492.1</ele>
        <time>2025-08-15T13:00:20Z</time>
      </trkpt>
      <trkpt lat="45.78277" lon="6.53076">
        <ele>1492.2</ele>
        <time>2025-08-15T13:00:21Z</time>
      </trkpt>
      <trkpt lat="45.78278" lon="6.53077">
        <ele>1492.3</ele>
        <time>2025-08-15T13:00:22Z</time>
      </trkpt>
      <trkpt lat="45.78279" lon="6.53079">
        <ele>1492.7</ele>
        <time>2025-08-15T13:00:23Z</time>
      </trkpt>
      <trkpt lat="45.78281" lon="6.53079">
        <ele>1492.9</ele>
        <time>2025-08-15T13:00:24Z</time>
      </trkpt>
      <trkpt lat="45.78282" lon="6.53081">
        <ele>1493.1</ele>
        <time>2025-08-15T13:00:25Z</time>
      </trkpt>
      <trkpt lat="45.78283" lon="6.53081">
        <ele>1493.3</ele>
        <time>2025-08-15T13:00:26Z</time>
      </trkpt>
      <trkpt lat="45.78284" lon="6.53082">
        <ele>1493.5</ele>
        <time>2025-08-15T13:00:27Z</time>
      </trkpt>
      <trkpt lat="45.78284" lon="6.53084">
        <ele>1493.6</ele>
        <time>2025-08-15T13:00:28Z</time>
      </trkpt>
      <trkpt lat="45.78285" lon="6.53085">
        <ele>1493.9</ele>
        <time>2025-08-15T13:00:29Z</time>
      </trkpt>
      <trkpt lat="45.78287" lon="6.53087">
        <ele>1494.3</ele>
        <time>2025-08-15T13:00:30Z</time>
      </trkpt>
      <trkpt lat="45.78288" lon="6.53088">
        <ele>1494.4</ele>
        <time>2025-08-15T13:00:31Z</time>
      </trkpt>
      <trkpt lat="45.78289" lon="6.53089">
        <ele>1494.5</ele>
        <time>2025-08-15T13:00:32Z</time>
      </trkpt>
      <trkpt lat="45.78291" lon="6.53089">
        <ele>1494.9</ele>
        <time>2025-08-15T13:00:33Z</time>
      </trkpt>
      <trkpt lat="45.78292" lon="6.53089">
        <ele>1495.1</ele>
        <time>2025-08-15T13:00:34Z</time>
      </trkpt>
      <trkpt lat="45.78294" lon="6.53091">
        <ele>1495.4</ele>
        <time>2025-08-15T13:00:35Z</time>
      </trkpt>
      <trkpt lat="45.78295" lon="6.53092">
        <ele>1495.6</ele>
        <time>2025-08-15T13:00:36Z</time>
      </trkpt>
      <trkpt lat="45.78297" lon="6.53093">
        <ele>1495.8</ele>
        <time>2025-08-15T13:00:37Z</time>
      </trkpt>
      <trkpt lat="45.78297" lon="6.53094">
        <ele>1496</ele>
        <time>2025-08-15T13:00:38Z</time>
      </trkpt>
      <trkpt lat="45.78298" lon="6.53095">
        <ele>1496.2</ele>
        <time>2025-08-15T13:00:39Z</time>
      </trkpt>
      <trkpt lat="45.78299" lon="6.53096">
        <ele>1496.4</ele>
        <time>2025-08-15T13:00:40Z</time>
      </trkpt>
      <trkpt lat="45.78301" lon="6.53097">
        <ele>1496.7</ele>
        <time>2025-08-15T13:00:41Z</time>
      </trkpt>
      <trkpt lat="45.78302" lon="6.53099">
        <ele>1497</ele>
        <time>2025-08-15T13:00:42Z</time>
      </trkpt>
      <trkpt lat="45.78303" lon="6.531">
        <ele>1497.1</ele>
        <time>2025-08-15T13:00:43Z</time>
      </trkpt>
      <trkpt lat="45.78304" lon="6.53101">
        <ele>1497.3</ele>
        <time>2025-08-15T13:00:44Z</time>
      </trkpt>
      <trkpt lat="45.78305" lon="6.53103">
        <ele>1497.6</ele>
        <time>2025-08-15T13:00:45Z</time>
      </trkpt>
      <trkpt lat="45.78306" lon="6.53103">
        <ele>1497.8</ele>
        <time>2025-08-15T13:00:46Z</time>
      </trkpt>
      <trkpt lat="45.78307" lon="6.53104">
        <ele>1498</ele>
        <time>2025-08-15T13:00:47Z</time>
      </trkpt>
      <trkpt lat="45.7831" lon="6.53106">
        <ele>1498.4</ele>
        <time>2025-08-15T13:00:48Z</time>
      </trkpt>
      <trkpt lat="45.7831" lon="6.53107">
        <ele>1498.5</ele>
        <time>2025-08-15T13:00:49Z</time>
      </trkpt>
      <trkpt lat="45.78312" lon="6.53109">
        <ele>1498.8</ele>
        <time>2025-08-15T13:00:50Z</time>
      </trkpt>
      <trkpt lat="45.78313" lon="6.53109">
        <ele>1498.9</ele>
        <time>2025-08-15T13:00:51Z</time>
      </trkpt>
      <trkpt lat="45.78313" lon="6.5311">
        <ele>1499</ele>
        <time>2025-08-15T13:00:52Z</time>
      </trkpt>
      <trkpt lat="45.78315" lon="6.53111">
        <ele>1499.3</ele>
        <time>2025-08-15T13:00:53Z</time>
      </trkpt>
      <trkpt lat="45.78316" lon="6.53111">
        <ele>1499.4</ele>
        <time>2025-08-15T13:00:54Z</time>
      </trkpt>
      <trkpt lat="45.78317" lon="6.53113">
        <ele>1499.6</ele>
        <time>2025-08-15T13:00:55Z</time>
      </trkpt>
      <trkpt lat="45.78319" lon="6.53114">
        <ele>1499.9</ele>
        <time>2025-08-15T13:00:56Z</time>
      </trkpt>
      <trkpt lat="45.78321" lon="6.53115">
        <ele>1500.2</ele>
        <time>2025-08-15T13:00:57Z</time>
      </trkpt>
      <trkpt lat="45.78322" lon="6.53116">
        <ele>1500.4</ele>
        <time>2025-08-15T13:00:58Z</time>
      </trkpt>
      <trkpt lat="45.78324" lon="6.53119">
        <ele>1500.7</ele>
        <time>2025-08-15T13:00:59Z</time>
      </trkpt>
      <trkpt lat="45.78326" lon="6.5312">
        <ele>1500.9</ele>
        <time>2025-08-15T13:01:00Z</time>
      </trkpt>
      <trkpt lat="45.78327" lon="6.53121">
        <ele>1501.1</ele>
        <time>2025-08-15T13:01:01Z</time>
      </trkpt>
      <trkpt lat="45.7833" lon="6.53123">
        <ele>1501.6</ele>
        <time>2025-08-15T13:01:02Z</time>
      </trkpt>
      <trkpt lat="45.78331" lon="6.53123">
        <ele>1501.7</ele>
        <time>2025-08-15T13:01:03Z</time>
      </trkpt>
      <trkpt lat="45.78335" lon="6.53125">
        <ele>1502.2</ele>
        <time>2025-08-15T13:01:04Z</time>
      </trkpt>
      <trkpt lat="45.78336" lon="6.53126">
        <ele>1502.4</ele>
        <time>2025-08-15T13:01:05Z</time>
      </trkpt>
      <trkpt lat="45.7834" lon="6.53129">
        <ele>1502.9</ele>
        <time>2025-08-15T13:01:06Z</time>
      </trkpt>
      <trkpt lat="45.78342" lon="6.5313">
        <ele>1503.1</ele>
        <time>2025-08-15T13:01:07Z</time>
      </trkpt>
      <trkpt lat="45.78344" lon="6.53133">
        <ele>1503.5</ele>
        <time>2025-08-15T13:01:08Z</time>
      </trkpt>
      <trkpt lat="45.78345" lon="6.53134">
        <ele>1503.7</ele>
        <time>2025-08-15T13:01:09Z</time>
      </trkpt>
      <trkpt lat="45.78348" lon="6.53137">
        <ele>1504.1</ele>
        <time>2025-08-15T13:01:10Z</time>
      </trkpt>
      <trkpt lat="45.78349" lon="6.53138">
        <ele>1504.2</ele>
        <time>2025-08-15T13:01:11Z</time>
      </trkpt>
      <trkpt lat="45.78351" lon="6.53141">
        <ele>1504.7</ele>
        <time>2025-08-15T13:01:12Z</time>
      </trkpt>
      <trkpt lat="45.78352" lon="6.53143">
        <ele>1504.8</ele>
        <time>2025-08-15T13:01:13Z</time>
      </trkpt>
      <trkpt lat="45.78356" lon="6.53145">
        <ele>1505.3</ele>
        <time>2025-08-15T13:01:14Z</time>
      </trkpt>
      <trkpt lat="45.78357" lon="6.53146">
        <ele>1505.4</ele>
        <time>2025-08-15T13:01:15Z</time>
      </trkpt>
      <trkpt lat="45.7836" lon="6.53148">
        <ele>1505.8</ele>
        <time>2025-08-15T13:01:16Z</time>
      </trkpt>
      <trkpt lat="45.78361" lon="6.5315">
        <ele>1506.1</ele>
        <time>2025-08-15T13:01:17Z</time>
      </trkpt>
      <trkpt lat="45.7836" lon="6.53152">
        <ele>1506.3</ele>
        <time>2025-08-15T13:01:18Z</time>
      </trkpt>
      <trkpt lat="45.78364" lon="6.53156">
        <ele>1506.9</ele>
        <time>2025-08-15T13:01:19Z</time>
      </trkpt>
      <trkpt lat="45.78368" lon="6.53157">
        <ele>1507.3</ele>
        <time>2025-08-15T13:01:20Z</time>
      </trkpt>
      <trkpt lat="45.78371" lon="6.53158">
        <ele>1507.8</ele>
        <time>2025-08-15T13:01:21Z</time>
      </trkpt>
      <trkpt lat="45.78374" lon="6.5316">
        <ele>1508.2</ele>
        <time>2025-08-15T13:01:22Z</time>
      </trkpt>
      <trkpt lat="45.78377" lon="6.53161">
        <ele>1508.6</ele>
        <time>2025-08-15T13:01:23Z</time>
      </trkpt>
      <trkpt lat="45.78381" lon="6.53163">
        <ele>1509.1</ele>
        <time>2025-08-15T13:01:24Z</time>
      </trkpt>
      <trkpt lat="45.78382" lon="6.53164">
        <ele>1509.2</ele>
        <time>2025-08-15T13:01:25Z</time>
      </trkpt>
      <trkpt lat="45.78385" lon="6.53166">
        <ele>1509.6</ele>
        <time>2025-08-15T13:01:26Z</time>
      </trkpt>
      <trkpt lat="45.78385" lon="6.53171">
        <ele>1509.9</ele>
        <time>2025-08-15T13:01:27Z</time>
      </trkpt>
      <trkpt lat="45.78385" lon="6.53172">
        <ele>1510.1</ele>
        <time>2025-08-15T13:01:28Z</time>
      </trkpt>
      <trkpt lat="45.78386" lon="6.53176">
        <ele>1510.4</ele>
        <time>2025-08-15T13:01:29Z</time>
      </trkpt>
      <trkpt lat="45.78387" lon="6.53178">
        <ele>1510.5</ele>
        <time>2025-08-15T13:01:30Z</time>
      </trkpt>
      <trkpt lat="45.78389" lon="6.5318">
        <ele>1510.9</ele>
        <time>2025-08-15T13:01:31Z</time>
      </trkpt>
      <trkpt lat="45.78391" lon="6.53184">
        <ele>1511.2</ele>
        <time>2025-08-15T13:01:32Z</time>
      </trkpt>
      <trkpt lat="45.78391" lon="6.53185">
        <ele>1511.3</ele>
        <time>2025-08-15T13:01:33Z</time>
      </trkpt>
      <trkpt lat="45.78393" lon="6.53187">
        <ele>1511.6</ele>
        <time>2025-08-15T13:01:34Z</time>
      </trkpt>
      <trkpt lat="45.78394" lon="6.53189">
        <ele>1511.8</ele>
        <time>2025-08-15T13:01:36Z</time>
      </trkpt>
      <trkpt lat="45.78398" lon="6.53191">
        <ele>1512.2</ele>
        <time>2025-08-15T13:01:37Z</time>
      </trkpt>
      <trkpt lat="45.78401" lon="6.53194">
        <ele>1512.6</ele>
        <time>2025-08-15T13:01:38Z</time>
      </trkpt>
      <trkpt lat="45.78403" lon="6.53194">
        <ele>1512.8</ele>
        <time>2025-08-15T13:01:39Z</time>
      </trkpt>
      <trkpt lat="45.78405" lon="6.53196">
        <ele>1513.1</ele>
        <time>2025-08-15T13:01:40Z</time>
      </trkpt>
      <trkpt lat="45.78406" lon="6.53197">
        <ele>1513.2</ele>
        <time>2025-08-15T13:01:41Z</time>
      </trkpt>
      <trkpt lat="45.78407" lon="6.53197">
        <ele>1513.3</ele>
        <time>2025-08-15T13:01:42Z</time>
      </trkpt>
      <trkpt lat="45.78409" lon="6.53199">
        <ele>1513.5</ele>
        <time>2025-08-15T13:01:43Z</time>
      </trkpt>
      <trkpt lat="45.78409" lon="6.53201">
        <ele>1513.7</ele>
        <time>2025-08-15T13:01:44Z</time>
      </trkpt>
      <trkpt lat="45.78412" lon="6.53201">
        <ele>1514</ele>
        <time>2025-08-15T13:01:45Z</time>
      </trkpt>
      <trkpt lat="45.78413" lon="6.53201">
        <ele>1514.1</ele>
        <time>2025-08-15T13:01:46Z</time>
      </trkpt>
      <trkpt lat="45.78415" lon="6.53202">
        <ele>1514.3</ele>
        <time>2025-08-15T13:01:47Z</time>
      </trkpt>
      <trkpt lat="45.78416" lon="6.53204">
        <ele>1514.4</ele>
        <time>2025-08-15T13:01:48Z</time>
      </trkpt>
      <trkpt lat="45.78418" lon="6.53205">
        <ele>1514.6</ele>
        <time>2025-08-15T13:01:49Z</time>
      </trkpt>
      <trkpt lat="45.78419" lon="6.53206">
        <ele>1514.8</ele>
        <time>2025-08-15T13:01:50Z</time>
      </trkpt>
      <trkpt lat="45.78422" lon="6.5321">
        <ele>1515.1</ele>
        <time>2025-08-15T13:01:51Z</time>
      </trkpt>
      <trkpt lat="45.78423" lon="6.53212">
        <ele>1515.3</ele>
        <time>2025-08-15T13:01:52Z</time>
      </trkpt>
      <trkpt lat="45.78424" lon="6.53215">
        <ele>1515.5</ele>
        <time>2025-08-15T13:01:53Z</time>
      </trkpt>
      <trkpt lat="45.78424" lon="6.53216">
        <ele>1515.5</ele>
        <time>2025-08-15T13:01:54Z</time>
      </trkpt>
      <trkpt lat="45.78427" lon="6.53218">
        <ele>1515.8</ele>
        <time>2025-08-15T13:01:55Z</time>
      </trkpt>
      <trkpt lat="45.78429" lon="6.53221">
        <ele>1516</ele>
        <time>2025-08-15T13:01:56Z</time>
      </trkpt>
      <trkpt lat="45.78432" lon="6.53223">
        <ele>1516.3</ele>
        <time>2025-08-15T13:01:57Z</time>
      </trkpt>
      <trkpt lat="45.78433" lon="6.53224">
        <ele>1516.4</ele>
        <time>2025-08-15T13:01:58Z</time>
      </trkpt>
      <trkpt lat="45.78436" lon="6.53227">
        <ele>1516.7</ele>
        <time>2025-08-15T13:01:59Z</time>
      </trkpt>
      <trkpt lat="45.78437" lon="6.53229">
        <ele>1516.9</ele>
        <time>2025-08-15T13:02:00Z</time>
      </trkpt>
      <trkpt lat="45.7844" lon="6.53232">
        <ele>1517.1</ele>
        <time>2025-08-15T13:02:01Z</time>
      </trkpt>
      <trkpt lat="45.78441" lon="6.53233">
        <ele>1517.3</ele>
        <time>2025-08-15T13:02:02Z</time>
      </trkpt>
      <trkpt lat="45.78444" lon="6.53235">
        <ele>1517.6</ele>
        <time>2025-08-15T13:02:03Z</time>
      </trkpt>
      <trkpt lat="45.78445" lon="6.53236">
        <ele>1517.7</ele>
        <time>2025-08-15T13:02:04Z</time>
      </trkpt>
      <trkpt lat="45.78448" lon="6.53238">
        <ele>1518</ele>
        <time>2025-08-15T13:02:05Z</time>
      </trkpt>
      <trkpt lat="45.78452" lon="6.53242">
        <ele>1518.4</ele>
        <time>2025-08-15T13:02:06Z</time>
      </trkpt>
      <trkpt lat="45.78454" lon="6.53243">
        <ele>1518.7</ele>
        <time>2025-08-15T13:02:07Z</time>
      </trkpt>
      <trkpt lat="45.78459" lon="6.53246">
        <ele>1519.1</ele>
        <time>2025-08-15T13:02:08Z</time>
      </trkpt>
      <trkpt lat="45.78461" lon="6.53246">
        <ele>1519.4</ele>
        <time>2025-08-15T13:02:09Z</time>
      </trkpt>
      <trkpt lat="45.78464" lon="6.53246">
        <ele>1519.7</ele>
        <time>2025-08-15T13:02:10Z</time>
      </trkpt>
      <trkpt lat="45.78468" lon="6.53245">
        <ele>1520.1</ele>
        <time>2025-08-15T13:02:11Z</time>
      </trkpt>
      <trkpt lat="45.78471" lon="6.53246">
        <ele>1520.4</ele>
        <time>2025-08-15T13:02:12Z</time>
      </trkpt>
      <trkpt lat="45.78474" lon="6.53246">
        <ele>1520.7</ele>
        <time>2025-08-15T13:02:13Z</time>
      </trkpt>
      <trkpt lat="45.78478" lon="6.53248">
        <ele>1521.1</ele>
        <time>2025-08-15T13:02:14Z</time>
      </trkpt>
      <trkpt lat="45.78481" lon="6.53247">
        <ele>1521.3</ele>
        <time>2025-08-15T13:02:15Z</time>
      </trkpt>
      <trkpt lat="45.78486" lon="6.53247">
        <ele>1521.8</ele>
        <time>2025-08-15T13:02:16Z</time>
      </trkpt>
      <trkpt lat="45.78489" lon="6.53248">
        <ele>1522.1</ele>
        <time>2025-08-15T13:02:17Z</time>
      </trkpt>
      <trkpt lat="45.78493" lon="6.53249">
        <ele>1522.4</ele>
        <time>2025-08-15T13:02:18Z</time>
      </trkpt>
      <trkpt lat="45.78496" lon="6.53248">
        <ele>1522.7</ele>
        <time>2025-08-15T13:02:19Z</time>
      </trkpt>
      <trkpt lat="45.78499" lon="6.53247">
        <ele>1522.9</ele>
        <time>2025-08-15T13:02:20Z</time>
      </trkpt>
      <trkpt lat="45.78503" lon="6.53246">
        <ele>1523.2</ele>
        <time>2025-08-15T13:02:21Z</time>
      </trkpt>
      <trkpt lat="45.78506" lon="6.53247">
        <ele>1523.5</ele>
        <time>2025-08-15T13:02:22Z</time>
      </trkpt>
      <trkpt lat="45.7851" lon="6.53247">
        <ele>1523.8</ele>
        <time>2025-08-15T13:02:23Z</time>
      </trkpt>
      <trkpt lat="45.78514" lon="6.53245">
        <ele>1524.1</ele>
        <time>2025-08-15T13:02:24Z</time>
      </trkpt>
      <trkpt lat="45.78518" lon="6.53241">
        <ele>1524.5</ele>
        <time>2025-08-15T13:02:25Z</time>
      </trkpt>
      <trkpt lat="45.7852" lon="6.53239">
        <ele>1524.7</ele>
        <time>2025-08-15T13:02:26Z</time>
      </trkpt>
      <trkpt lat="45.78522" lon="6.53238">
        <ele>1525</ele>
        <time>2025-08-15T13:02:27Z</time>
      </trkpt>
      <trkpt lat="45.78526" lon="6.53236">
        <ele>1525.3</ele>
        <time>2025-08-15T13:02:28Z</time>
      </trkpt>
      <trkpt lat="45.78529" lon="6.53231">
        <ele>1525.6</ele>
        <time>2025-08-15T13:02:29Z</time>
      </trkpt>
      <trkpt lat="45.78532" lon="6.53229">
        <ele>1525.9</ele>
        <time>2025-08-15T13:02:30Z</time>
      </trkpt>
      <trkpt lat="45.78535" lon="6.53225">
        <ele>1526.1</ele>
        <time>2025-08-15T13:02:31Z</time>
      </trkpt>
      <trkpt lat="45.78539" lon="6.53222">
        <ele>1525.9</ele>
        <time>2025-08-15T13:02:32Z</time>
      </trkpt>
      <trkpt lat="45.78542" lon="6.53218">
        <ele>1525.6</ele>
        <time>2025-08-15T13:02:33Z</time>
      </trkpt>
      <trkpt lat="45.78545" lon="6.53217">
        <ele>1525.4</ele>
        <time>2025-08-15T13:02:34Z</time>
      </trkpt>
      <trkpt lat="45.7855" lon="6.53215">
        <ele>1525.1</ele>
        <time>2025-08-15T13:02:35Z</time>
      </trkpt>
      <trkpt lat="45.78552" lon="6.53213">
        <ele>1525</ele>
        <time>2025-08-15T13:02:36Z</time>
      </trkpt>
      <trkpt lat="45.78556" lon="6.5321">
        <ele>1524.7</ele>
        <time>2025-08-15T13:02:37Z</time>
      </trkpt>
      <trkpt lat="45.78558" lon="6.53207">
        <ele>1524.6</ele>
        <time>2025-08-15T13:02:38Z</time>
      </trkpt>
      <trkpt lat="45.78559" lon="6.53205">
        <ele>1524.5</ele>
        <time>2025-08-15T13:02:39Z</time>
      </trkpt>
      <trkpt lat="45.78562" lon="6.53202">
        <ele>1524.2</ele>
        <time>2025-08-15T13:02:40Z</time>
      </trkpt>
      <trkpt lat="45.78563" lon="6.532">
        <ele>1524.1</ele>
        <time>2025-08-15T13:02:41Z</time>
      </trkpt>
      <trkpt lat="45.78566" lon="6.53197">
        <ele>1523.9</ele>
        <time>2025-08-15T13:02:42Z</time>
      </trkpt>
      <trkpt lat="45.78567" lon="6.53197">
        <ele>1523.9</ele>
        <time>2025-08-15T13:02:43Z</time>
      </trkpt>
      <trkpt lat="45.7857" lon="6.53196">
        <ele>1523.7</ele>
        <time>2025-08-15T13:02:44Z</time>
      </trkpt>
      <trkpt lat="45.78571" lon="6.53195">
        <ele>1523.7</ele>
        <time>2025-08-15T13:02:45Z</time>
      </trkpt>
      <trkpt lat="45.78573" lon="6.53193">
        <ele>1523.5</ele>
        <time>2025-08-15T13:02:46Z</time>
      </trkpt>
      <trkpt lat="45.78574" lon="6.53193">
        <ele>1523.4</ele>
        <time>2025-08-15T13:02:47Z</time>
      </trkpt>
      <trkpt lat="45.78575" lon="6.53192">
        <ele>1523.4</ele>
        <time>2025-08-15T13:02:48Z</time>
      </trkpt>
      <trkpt lat="45.78577" lon="6.53188">
        <ele>1523.1</ele>
        <time>2025-08-15T13:02:49Z</time>
      </trkpt>
      <trkpt lat="45.78578" lon="6.53185">
        <ele>1522.9</ele>
        <time>2025-08-15T13:02:50Z</time>
      </trkpt>
      <trkpt lat="45.78579" lon="6.53181">
        <ele>1522.7</ele>
        <time>2025-08-15T13:02:51Z</time>
      </trkpt>
      <trkpt lat="45.78579" lon="6.5318">
        <ele>1522.6</ele>
        <time>2025-08-15T13:02:52Z</time>
      </trkpt>
      <trkpt lat="45.78579" lon="6.53179">
        <ele>1522.5</ele>
        <time>2025-08-15T13:02:53Z</time>
      </trkpt>
      <trkpt lat="45.78581" lon="6.53177">
        <ele>1522.3</ele>
        <time>2025-08-15T13:02:54Z</time>
      </trkpt>
      <trkpt lat="45.78582" lon="6.53175">
        <ele>1522.2</ele>
        <time>2025-08-15T13:02:55Z</time>
      </trkpt>
      <trkpt lat="45.78583" lon="6.53173">
        <ele>1522</ele>
        <time>2025-08-15T13:02:56Z</time>
      </trkpt>
      <trkpt lat="45.78584" lon="6.53171">
        <ele>1521.8</ele>
        <time>2025-08-15T13:02:57Z</time>
      </trkpt>
      <trkpt lat="45.78585" lon="6.53169">
        <ele>1521.5</ele>
        <time>2025-08-15T13:02:58Z</time>
      </trkpt>
      <trkpt lat="45.78587" lon="6.53167">
        <ele>1521.3</ele>
        <time>2025-08-15T13:02:59Z</time>
      </trkpt>
      <trkpt lat="45.78588" lon="6.53165">
        <ele>1521.1</ele>
        <time>2025-08-15T13:03:00Z</time>
      </trkpt>
      <trkpt lat="45.78589" lon="6.53164">
        <ele>1520.9</ele>
        <time>2025-08-15T13:03:01Z</time>
      </trkpt>
      <trkpt lat="45.7859" lon="6.53162">
        <ele>1520.6</ele>
        <time>2025-08-15T13:03:02Z</time>
      </trkpt>
      <trkpt lat="45.78591" lon="6.5316">
        <ele>1520.5</ele>
        <time>2025-08-15T13:03:41Z</time>
      </trkpt>
      <trkpt lat="45.78593" lon="6.53158">
        <ele>1520.3</ele>
        <time>2025-08-15T13:03:42Z</time>
      </trkpt>
      <trkpt lat="45.78596" lon="6.53157">
        <ele>1520</ele>
        <time>2025-08-15T13:03:43Z</time>
      </trkpt>
      <trkpt lat="45.78597" lon="6.53156">
        <ele>1519.9</ele>
        <time>2025-08-15T13:03:44Z</time>
      </trkpt>
      <trkpt lat="45.78601" lon="6.53156">
        <ele>1519.6</ele>
        <time>2025-08-15T13:03:45Z</time>
      </trkpt>
      <trkpt lat="45.78601" lon="6.53155">
        <ele>1519.6</ele>
        <time>2025-08-15T13:03:46Z</time>
      </trkpt>
      <trkpt lat="45.78605" lon="6.53154">
        <ele>1519.3</ele>
        <time>2025-08-15T13:03:47Z</time>
      </trkpt>
      <trkpt lat="45.78608" lon="6.53152">
        <ele>1519</ele>
        <time>2025-08-15T13:03:48Z</time>
      </trkpt>
      <trkpt lat="45.78611" lon="6.53152">
        <ele>1518.8</ele>
        <time>2025-08-15T13:03:49Z</time>
      </trkpt>
      <trkpt lat="45.78615" lon="6.53153">
        <ele>1518.4</ele>
        <time>2025-08-15T13:03:50Z</time>
      </trkpt>
      <trkpt lat="45.78617" lon="6.53154">
        <ele>1518.2</ele>
        <time>2025-08-15T13:03:51Z</time>
      </trkpt>
      <trkpt lat="45.78621" lon="6.53153">
        <ele>1518</ele>
        <time>2025-08-15T13:03:52Z</time>
      </trkpt>
      <trkpt lat="45.78624" lon="6.53154">
        <ele>1517.7</ele>
        <time>2025-08-15T13:03:53Z</time>
      </trkpt>
      <trkpt lat="45.78628" lon="6.53154">
        <ele>1517.4</ele>
        <time>2025-08-15T13:03:54Z</time>
      </trkpt>
      <trkpt lat="45.78633" lon="6.53154">
        <ele>1517</ele>
        <time>2025-08-15T13:03:55Z</time>
      </trkpt>
      <trkpt lat="45.78637" lon="6.53154">
        <ele>1516.7</ele>
        <time>2025-08-15T13:03:56Z</time>
      </trkpt>
      <trkpt lat="45.78642" lon="6.53154">
        <ele>1516.3</ele>
        <time>2025-08-15T13:03:57Z</time>
      </trkpt>
      <trkpt lat="45.78648" lon="6.53154">
        <ele>1515.8</ele>
        <time>2025-08-15T13:03:58Z</time>
      </trkpt>
      <trkpt lat="45.78654" lon="6.53155">
        <ele>1515.3</ele>
        <time>2025-08-15T13:03:59Z</time>
      </trkpt>
      <trkpt lat="45.7866" lon="6.53157">
        <ele>1514.7</ele>
        <time>2025-08-15T13:04:00Z</time>
      </trkpt>
      <trkpt lat="45.78667" lon="6.53161">
        <ele>1514.1</ele>
        <time>2025-08-15T13:04:01Z</time>
      </trkpt>
      <trkpt lat="45.78673" lon="6.53167">
        <ele>1513.5</ele>
        <time>2025-08-15T13:04:02Z</time>
      </trkpt>
      <trkpt lat="45.7868" lon="6.53171">
        <ele>1512.9</ele>
        <time>2025-08-15T13:04:03Z</time>
      </trkpt>
      <trkpt lat="45.78687" lon="6.53176">
        <ele>1512.2</ele>
        <time>2025-08-15T13:04:04Z</time>
      </trkpt>
      <trkpt lat="45.78695" lon="6.5318">
        <ele>1511.5</ele>
        <time>2025-08-15T13:04:05Z</time>
      </trkpt>
      <trkpt lat="45.78703" lon="6.53184">
        <ele>1510.7</ele>
        <time>2025-08-15T13:04:06Z</time>
      </trkpt>
      <trkpt lat="45.78712" lon="6.53185">
        <ele>1509.9</ele>
        <time>2025-08-15T13:04:07Z</time>
      </trkpt>
      <trkpt lat="45.7872" lon="6.53186">
        <ele>1509.2</ele>
        <time>2025-08-15T13:04:08Z</time>
      </trkpt>
      <trkpt lat="45.78729" lon="6.53188">
        <ele>1508.4</ele>
        <time>2025-08-15T13:04:09Z</time>
      </trkpt>
      <trkpt lat="45.78736" lon="6.53187">
        <ele>1507.7</ele>
        <time>2025-08-15T13:04:10Z</time>
      </trkpt>
      <trkpt lat="45.78744" lon="6.53186">
        <ele>1506.9</ele>
        <time>2025-08-15T13:04:11Z</time>
      </trkpt>
      <trkpt lat="45.78753" lon="6.53186">
        <ele>1505.8</ele>
        <time>2025-08-15T13:04:12Z</time>
      </trkpt>
      <trkpt lat="45.78761" lon="6.53185">
        <ele>1504.8</ele>
        <time>2025-08-15T13:04:13Z</time>
      </trkpt>
      <trkpt lat="45.7877" lon="6.53187">
        <ele>1503.7</ele>
        <time>2025-08-15T13:04:14Z</time>
      </trkpt>
      <trkpt lat="45.78779" lon="6.53185">
        <ele>1502.4</ele>
        <time>2025-08-15T13:04:15Z</time>
      </trkpt>
      <trkpt lat="45.78789" lon="6.53185">
        <ele>1501.4</ele>
        <time>2025-08-15T13:04:16Z</time>
      </trkpt>
      <trkpt lat="45.78798" lon="6.53186">
        <ele>1500.4</ele>
        <time>2025-08-15T13:04:17Z</time>
      </trkpt>
      <trkpt lat="45.78806" lon="6.53186">
        <ele>1499.6</ele>
        <time>2025-08-15T13:04:18Z</time>
      </trkpt>
      <trkpt lat="45.78815" lon="6.53188">
        <ele>1498.8</ele>
        <time>2025-08-15T13:04:19Z</time>
      </trkpt>
      <trkpt lat="45.78823" lon="6.53188">
        <ele>1498.1</ele>
        <time>2025-08-15T13:04:20Z</time>
      </trkpt>
      <trkpt lat="45.78829" lon="6.53188">
        <ele>1497.5</ele>
        <time>2025-08-15T13:04:21Z</time>
      </trkpt>
      <trkpt lat="45.78836" lon="6.53186">
        <ele>1497</ele>
        <time>2025-08-15T13:04:22Z</time>
      </trkpt>
      <trkpt lat="45.78841" lon="6.53183">
        <ele>1496.5</ele>
        <time>2025-08-15T13:04:23Z</time>
      </trkpt>
      <trkpt lat="45.78846" lon="6.5318">
        <ele>1496.1</ele>
        <time>2025-08-15T13:04:24Z</time>
      </trkpt>
      <trkpt lat="45.7885" lon="6.53177">
        <ele>1495.8</ele>
        <time>2025-08-15T13:04:25Z</time>
      </trkpt>
      <trkpt lat="45.78854" lon="6.53175">
        <ele>1495.4</ele>
        <time>2025-08-15T13:04:26Z</time>
      </trkpt>
      <trkpt lat="45.78858" lon="6.53175">
        <ele>1495.2</ele>
        <time>2025-08-15T13:04:27Z</time>
      </trkpt>
      <trkpt lat="45.78862" lon="6.53175">
        <ele>1494.9</ele>
        <time>2025-08-15T13:04:28Z</time>
      </trkpt>
      <trkpt lat="45.78865" lon="6.53175">
        <ele>1494.7</ele>
        <time>2025-08-15T13:04:29Z</time>
      </trkpt>
      <trkpt lat="45.78869" lon="6.53175">
        <ele>1494.4</ele>
        <time>2025-08-15T13:04:30Z</time>
      </trkpt>
      <trkpt lat="45.7887" lon="6.53175">
        <ele>1494.3</ele>
        <time>2025-08-15T13:04:31Z</time>
      </trkpt>
      <trkpt lat="45.78873" lon="6.53176">
        <ele>1494.1</ele>
        <time>2025-08-15T13:04:32Z</time>
      </trkpt>
      <trkpt lat="45.78874" lon="6.53176">
        <ele>1494.1</ele>
        <time>2025-08-15T13:04:33Z</time>
      </trkpt>
      <trkpt lat="45.78875" lon="6.53177">
        <ele>1494</ele>
        <time>2025-08-15T13:04:34Z</time>
      </trkpt>
      <trkpt lat="45.78876" lon="6.53177">
        <ele>1493.9</ele>
        <time>2025-08-15T13:04:35Z</time>
      </trkpt>
      <trkpt lat="45.78877" lon="6.53177">
        <ele>1493.8</ele>
        <time>2025-08-15T13:04:36Z</time>
      </trkpt>
      <trkpt lat="45.78881" lon="6.53178">
        <ele>1493.6</ele>
        <time>2025-08-15T13:04:37Z</time>
      </trkpt>
      <trkpt lat="45.78882" lon="6.53178">
        <ele>1493.5</ele>
        <time>2025-08-15T13:04:38Z</time>
      </trkpt>
      <trkpt lat="45.78884" lon="6.53177">
        <ele>1493.5</ele>
        <time>2025-08-15T13:04:39Z</time>
      </trkpt>
      <trkpt lat="45.78883" lon="6.53174">
        <ele>1493.6</ele>
        <time>2025-08-15T13:04:40Z</time>
      </trkpt>
      <trkpt lat="45.78881" lon="6.5317">
        <ele>1493.7</ele>
        <time>2025-08-15T13:04:41Z</time>
      </trkpt>
      <trkpt lat="45.78881" lon="6.53169">
        <ele>1493.7</ele>
        <time>2025-08-15T13:04:42Z</time>
      </trkpt>
      <trkpt lat="45.7888" lon="6.53166">
        <ele>1493.8</ele>
        <time>2025-08-15T13:04:43Z</time>
      </trkpt>
      <trkpt lat="45.7888" lon="6.53164">
        <ele>1493.8</ele>
        <time>2025-08-15T13:04:44Z</time>
      </trkpt>
      <trkpt lat="45.7888" lon="6.53162">
        <ele>1493.8</ele>
        <time>2025-08-15T13:04:45Z</time>
      </trkpt>
      <trkpt lat="45.7888" lon="6.53161">
        <ele>1493.8</ele>
        <time>2025-08-15T13:04:46Z</time>
      </trkpt>
      <trkpt lat="45.7888" lon="6.5316">
        <ele>1493.8</ele>
        <time>2025-08-15T13:04:47Z</time>
      </trkpt>
      <trkpt lat="45.78881" lon="6.53158">
        <ele>1493.9</ele>
        <time>2025-08-15T13:04:48Z</time>
      </trkpt>
      <trkpt lat="45.78881" lon="6.53156">
        <ele>1493.9</ele>
        <time>2025-08-15T13:04:49Z</time>
      </trkpt>
      <trkpt lat="45.78882" lon="6.53155">
        <ele>1493.9</ele>
        <time>2025-08-15T13:04:50Z</time>
      </trkpt>
      <trkpt lat="45.78883" lon="6.53154">
        <ele>1494</ele>
        <time>2025-08-15T13:04:51Z</time>
      </trkpt>
      <trkpt lat="45.78884" lon="6.53152">
        <ele>1494</ele>
        <time>2025-08-15T13:04:52Z</time>
      </trkpt>
      <trkpt lat="45.78886" lon="6.53151">
        <ele>1494</ele>
        <time>2025-08-15T13:04:53Z</time>
      </trkpt>
      <trkpt lat="45.78887" lon="6.5315">
        <ele>1494</ele>
        <time>2025-08-15T13:04:54Z</time>
      </trkpt>
      <trkpt lat="45.78888" lon="6.53149">
        <ele>1494</ele>
        <time>2025-08-15T13:04:55Z</time>
      </trkpt>
      <trkpt lat="45.78889" lon="6.53147">
        <ele>1494</ele>
        <time>2025-08-15T13:04:56Z</time>
      </trkpt>
      <trkpt lat="45.7889" lon="6.53145">
        <ele>1494</ele>
        <time>2025-08-15T13:04:57Z</time>
      </trkpt>
      <trkpt lat="45.78891" lon="6.53144">
        <ele>1493.9</ele>
        <time>2025-08-15T13:04:58Z</time>
      </trkpt>
      <trkpt lat="45.78893" lon="6.53141">
        <ele>1493.9</ele>
        <time>2025-08-15T13:04:59Z</time>
      </trkpt>
      <trkpt lat="45.78894" lon="6.5314">
        <ele>1493.8</ele>
        <time>2025-08-15T13:05:00Z</time>
      </trkpt>
      <trkpt lat="45.78895" lon="6.53138">
        <ele>1493.8</ele>
        <time>2025-08-15T13:05:01Z</time>
      </trkpt>
      <trkpt lat="45.78896" lon="6.53137">
        <ele>1493.7</ele>
        <time>2025-08-15T13:05:02Z</time>
      </trkpt>
      <trkpt lat="45.78897" lon="6.53135">
        <ele>1493.6</ele>
        <time>2025-08-15T13:05:03Z</time>
      </trkpt>
      <trkpt lat="45.78898" lon="6.53134">
        <ele>1493.6</ele>
        <time>2025-08-15T13:05:04Z</time>
      </trkpt>
      <trkpt lat="45.78899" lon="6.53132">
        <ele>1493.5</ele>
        <time>2025-08-15T13:05:05Z</time>
      </trkpt>
      <trkpt lat="45.789" lon="6.5313">
        <ele>1493.4</ele>
        <time>2025-08-15T13:05:06Z</time>
      </trkpt>
      <trkpt lat="45.78901" lon="6.53128">
        <ele>1493.3</ele>
        <time>2025-08-15T13:05:07Z</time>
      </trkpt>
      <trkpt lat="45.78902" lon="6.53126">
        <ele>1493.2</ele>
        <time>2025-08-15T13:05:08Z</time>
      </trkpt>
      <trkpt lat="45.78903" lon="6.53124">
        <ele>1493.1</ele>
        <time>2025-08-15T13:05:09Z</time>
      </trkpt>
      <trkpt lat="45.78904" lon="6.53122">
        <ele>1493</ele>
        <time>2025-08-15T13:05:10Z</time>
      </trkpt>
      <trkpt lat="45.78905" lon="6.5312">
        <ele>1492.9</ele>
        <time>2025-08-15T13:05:11Z</time>
      </trkpt>
      <trkpt lat="45.78906" lon="6.53118">
        <ele>1492.8</ele>
        <time>2025-08-15T13:05:12Z</time>
      </trkpt>
      <trkpt lat="45.78907" lon="6.53116">
        <ele>1492.7</ele>
        <time>2025-08-15T13:05:13Z</time>
      </trkpt>
      <trkpt lat="45.78907" lon="6.53115">
        <ele>1492.6</ele>
        <time>2025-08-15T13:05:14Z</time>
      </trkpt>
      <trkpt lat="45.78907" lon="6.53113">
        <ele>1492.6</ele>
        <time>2025-08-15T13:05:15Z</time>
      </trkpt>
      <trkpt lat="45.78908" lon="6.53112">
        <ele>1492.5</ele>
        <time>2025-08-15T13:05:16Z</time>
      </trkpt>
      <trkpt lat="45.78908" lon="6.5311">
        <ele>1492.5</ele>
        <time>2025-08-15T13:05:17Z</time>
      </trkpt>
      <trkpt lat="45.78908" lon="6.53109">
        <ele>1492.5</ele>
        <time>2025-08-15T13:05:18Z</time>
      </trkpt>
      <trkpt lat="45.78909" lon="6.53107">
        <ele>1492.4</ele>
        <time>2025-08-15T13:05:19Z</time>
      </trkpt>
      <trkpt lat="45.78909" lon="6.53106">
        <ele>1492.4</ele>
        <time>2025-08-15T13:05:20Z</time>
      </trkpt>
      <trkpt lat="45.78909" lon="6.53104">
        <ele>1492.3</ele>
        <time>2025-08-15T13:05:21Z</time>
      </trkpt>
      <trkpt lat="45.7891" lon="6.53102">
        <ele>1492.3</ele>
        <time>2025-08-15T13:05:22Z</time>
      </trkpt>
      <trkpt lat="45.7891" lon="6.53101">
        <ele>1492.3</ele>
        <time>2025-08-15T13:05:23Z</time>
      </trkpt>
      <trkpt lat="45.78911" lon="6.53099">
        <ele>1492.3</ele>
        <time>2025-08-15T13:06:39Z</time>
      </trkpt>
      <trkpt lat="45.78911" lon="6.53098">
        <ele>1492.2</ele>
        <time>2025-08-15T13:06:40Z</time>
      </trkpt>
      <trkpt lat="45.78914" lon="6.53091">
        <ele>1492.2</ele>
        <time>2025-08-15T13:06:41Z</time>
      </trkpt>
      <trkpt lat="45.78917" lon="6.53085">
        <ele>1492.2</ele>
        <time>2025-08-15T13:06:42Z</time>
      </trkpt>
      <trkpt lat="45.78919" lon="6.53079">
        <ele>1492.3</ele>
        <time>2025-08-15T13:06:43Z</time>
      </trkpt>
      <trkpt lat="45.78921" lon="6.53072">
        <ele>1492.4</ele>
        <time>2025-08-15T13:06:44Z</time>
      </trkpt>
      <trkpt lat="45.78924" lon="6.53067">
        <ele>1492.5</ele>
        <time>2025-08-15T13:06:45Z</time>
      </trkpt>
      <trkpt lat="45.78926" lon="6.53061">
        <ele>1492.7</ele>
        <time>2025-08-15T13:06:46Z</time>
      </trkpt>
      <trkpt lat="45.78928" lon="6.53056">
        <ele>1493</ele>
        <time>2025-08-15T13:06:47Z</time>
      </trkpt>
      <trkpt lat="45.78929" lon="6.53051">
        <ele>1493.1</ele>
        <time>2025-08-15T13:06:48Z</time>
      </trkpt>
      <trkpt lat="45.78931" lon="6.53046">
        <ele>1493.3</ele>
        <time>2025-08-15T13:06:49Z</time>
      </trkpt>
      <trkpt lat="45.78932" lon="6.53041">
        <ele>1493.5</ele>
        <time>2025-08-15T13:06:50Z</time>
      </trkpt>
      <trkpt lat="45.78934" lon="6.53036">
        <ele>1493.7</ele>
        <time>2025-08-15T13:06:51Z</time>
      </trkpt>
      <trkpt lat="45.78935" lon="6.53033">
        <ele>1493.8</ele>
        <time>2025-08-15T13:06:52Z</time>
      </trkpt>
      <trkpt lat="45.78936" lon="6.53028">
        <ele>1494</ele>
        <time>2025-08-15T13:06:53Z</time>
      </trkpt>
      <trkpt lat="45.78937" lon="6.53023">
        <ele>1494.1</ele>
        <time>2025-08-15T13:06:54Z</time>
      </trkpt>
      <trkpt lat="45.78938" lon="6.53019">
        <ele>1494.2</ele>
        <time>2025-08-15T13:06:55Z</time>
      </trkpt>
      <trkpt lat="45.78939" lon="6.53013">
        <ele>1494.4</ele>
        <time>2025-08-15T13:06:56Z</time>
      </trkpt>
      <trkpt lat="45.78941" lon="6.53008">
        <ele>1494.5</ele>
        <time>2025-08-15T13:06:57Z</time>
      </trkpt>
      <trkpt lat="45.78942" lon="6.53002">
        <ele>1494.6</ele>
        <time>2025-08-15T13:06:58Z</time>
      </trkpt>
      <trkpt lat="45.78944" lon="6.52997">
        <ele>1494.8</ele>
        <time>2025-08-15T13:06:59Z</time>
      </trkpt>
      <trkpt lat="45.78946" lon="6.52992">
        <ele>1495</ele>
        <time>2025-08-15T13:07:00Z</time>
      </trkpt>
      <trkpt lat="45.78947" lon="6.52987">
        <ele>1495.2</ele>
        <time>2025-08-15T13:07:01Z</time>
      </trkpt>
      <trkpt lat="45.78949" lon="6.52982">
        <ele>1495.5</ele>
        <time>2025-08-15T13:07:02Z</time>
      </trkpt>
      <trkpt lat="45.78951" lon="6.52976">
        <ele>1495.8</ele>
        <time>2025-08-15T13:07:03Z</time>
      </trkpt>
      <trkpt lat="45.78954" lon="6.52972">
        <ele>1496.1</ele>
        <time>2025-08-15T13:07:04Z</time>
      </trkpt>
      <trkpt lat="45.78956" lon="6.52966">
        <ele>1496.5</ele>
        <time>2025-08-15T13:07:05Z</time>
      </trkpt>
      <trkpt lat="45.78957" lon="6.52962">
        <ele>1496.8</ele>
        <time>2025-08-15T13:07:06Z</time>
      </trkpt>
      <trkpt lat="45.78958" lon="6.52957">
        <ele>1497.1</ele>
        <time>2025-08-15T13:07:07Z</time>
      </trkpt>
      <trkpt lat="45.78959" lon="6.52952">
        <ele>1497.4</ele>
        <time>2025-08-15T13:07:08Z</time>
      </trkpt>
      <trkpt lat="45.7896" lon="6.52945">
        <ele>1497.7</ele>
        <time>2025-08-15T13:07:09Z</time>
      </trkpt>
      <trkpt lat="45.78961" lon="6.5294">
        <ele>1498</ele>
        <time>2025-08-15T13:07:10Z</time>
      </trkpt>
      <trkpt lat="45.78963" lon="6.52935">
        <ele>1498.2</ele>
        <time>2025-08-15T13:07:11Z</time>
      </trkpt>
      <trkpt lat="45.78964" lon="6.52929">
        <ele>1498.4</ele>
        <time>2025-08-15T13:07:12Z</time>
      </trkpt>
      <trkpt lat="45.78966" lon="6.52922">
        <ele>1498.6</ele>
        <time>2025-08-15T13:07:13Z</time>
      </trkpt>
      <trkpt lat="45.78968" lon="6.52916">
        <ele>1498.8</ele>
        <time>2025-08-15T13:07:14Z</time>
      </trkpt>
      <trkpt lat="45.7897" lon="6.5291">
        <ele>1499</ele>
        <time>2025-08-15T13:07:15Z</time>
      </trkpt>
      <trkpt lat="45.78971" lon="6.52903">
        <ele>1499.2</ele>
        <time>2025-08-15T13:07:16Z</time>
      </trkpt>
      <trkpt lat="45.78973" lon="6.52896">
        <ele>1499.4</ele>
        <time>2025-08-15T13:07:17Z</time>
      </trkpt>
      <trkpt lat="45.78974" lon="6.52888">
        <ele>1499.7</ele>
        <time>2025-08-15T13:07:18Z</time>
      </trkpt>
      <trkpt lat="45.78975" lon="6.52881">
        <ele>1499.9</ele>
        <time>2025-08-15T13:07:19Z</time>
      </trkpt>
      <trkpt lat="45.78977" lon="6.52875">
        <ele>1500.1</ele>
        <time>2025-08-15T13:07:20Z</time>
      </trkpt>
      <trkpt lat="45.78978" lon="6.52868">
        <ele>1500.3</ele>
        <time>2025-08-15T13:07:21Z</time>
      </trkpt>
      <trkpt lat="45.7898" lon="6.52862">
        <ele>1500.5</ele>
        <time>2025-08-15T13:07:22Z</time>
      </trkpt>
      <trkpt lat="45.78983" lon="6.52855">
        <ele>1500.5</ele>
        <time>2025-08-15T13:07:23Z</time>
      </trkpt>
      <trkpt lat="45.78986" lon="6.5285">
        <ele>1500.5</ele>
        <time>2025-08-15T13:07:24Z</time>
      </trkpt>
      <trkpt lat="45.78989" lon="6.52844">
        <ele>1500.5</ele>
        <time>2025-08-15T13:07:25Z</time>
      </trkpt>
      <trkpt lat="45.78993" lon="6.52839">
        <ele>1500.5</ele>
        <time>2025-08-15T13:07:26Z</time>
      </trkpt>
      <trkpt lat="45.78997" lon="6.52834">
        <ele>1500.5</ele>
        <time>2025-08-15T13:07:27Z</time>
      </trkpt>
      <trkpt lat="45.79001" lon="6.5283">
        <ele>1500.6</ele>
        <time>2025-08-15T13:07:28Z</time>
      </trkpt>
      <trkpt lat="45.79006" lon="6.52826">
        <ele>1500.7</ele>
        <time>2025-08-15T13:07:29Z</time>
      </trkpt>
      <trkpt lat="45.79009" lon="6.52822">
        <ele>1500.7</ele>
        <time>2025-08-15T13:07:30Z</time>
      </trkpt>
      <trkpt lat="45.79013" lon="6.52818">
        <ele>1500.8</ele>
        <time>2025-08-15T13:07:31Z</time>
      </trkpt>
      <trkpt lat="45.79018" lon="6.52815">
        <ele>1500.9</ele>
        <time>2025-08-15T13:07:32Z</time>
      </trkpt>
      <trkpt lat="45.79022" lon="6.52811">
        <ele>1500.9</ele>
        <time>2025-08-15T13:07:33Z</time>
      </trkpt>
      <trkpt lat="45.79026" lon="6.52808">
        <ele>1501</ele>
        <time>2025-08-15T13:07:34Z</time>
      </trkpt>
      <trkpt lat="45.79031" lon="6.52805">
        <ele>1501</ele>
        <time>2025-08-15T13:07:35Z</time>
      </trkpt>
      <trkpt lat="45.79035" lon="6.52803">
        <ele>1501.1</ele>
        <time>2025-08-15T13:07:36Z</time>
      </trkpt>
      <trkpt lat="45.7904" lon="6.52801">
        <ele>1501.2</ele>
        <time>2025-08-15T13:07:37Z</time>
      </trkpt>
      <trkpt lat="45.79045" lon="6.52801">
        <ele>1501.3</ele>
        <time>2025-08-15T13:07:38Z</time>
      </trkpt>
      <trkpt lat="45.7905" lon="6.528">
        <ele>1501.4</ele>
        <time>2025-08-15T13:07:39Z</time>
      </trkpt>
      <trkpt lat="45.79055" lon="6.52801">
        <ele>1501.5</ele>
        <time>2025-08-15T13:07:40Z</time>
      </trkpt>
      <trkpt lat="45.79059" lon="6.52802">
        <ele>1501.7</ele>
        <time>2025-08-15T13:07:41Z</time>
      </trkpt>
      <trkpt lat="45.79064" lon="6.52802">
        <ele>1501.9</ele>
        <time>2025-08-15T13:07:42Z</time>
      </trkpt>
      <trkpt lat="45.79069" lon="6.52802">
        <ele>1502.1</ele>
        <time>2025-08-15T13:07:43Z</time>
      </trkpt>
      <trkpt lat="45.79073" lon="6.52801">
        <ele>1502.3</ele>
        <time>2025-08-15T13:07:44Z</time>
      </trkpt>
      <trkpt lat="45.79077" lon="6.528">
        <ele>1502.5</ele>
        <time>2025-08-15T13:07:45Z</time>
      </trkpt>
      <trkpt lat="45.79081" lon="6.52799">
        <ele>1502.7</ele>
        <time>2025-08-15T13:07:46Z</time>
      </trkpt>
      <trkpt lat="45.79084" lon="6.52797">
        <ele>1502.9</ele>
        <time>2025-08-15T13:07:47Z</time>
      </trkpt>
      <trkpt lat="45.79088" lon="6.52795">
        <ele>1503.1</ele>
        <time>2025-08-15T13:07:48Z</time>
      </trkpt>
      <trkpt lat="45.79092" lon="6.52794">
        <ele>1503.3</ele>
        <time>2025-08-15T13:07:49Z</time>
      </trkpt>
      <trkpt lat="45.79095" lon="6.52791">
        <ele>1503.5</ele>
        <time>2025-08-15T13:07:50Z</time>
      </trkpt>
      <trkpt lat="45.79099" lon="6.52788">
        <ele>1503.7</ele>
        <time>2025-08-15T13:07:51Z</time>
      </trkpt>
      <trkpt lat="45.79102" lon="6.52786">
        <ele>1503.9</ele>
        <time>2025-08-15T13:07:52Z</time>
      </trkpt>
      <trkpt lat="45.79105" lon="6.52784">
        <ele>1504.1</ele>
        <time>2025-08-15T13:07:53Z</time>
      </trkpt>
      <trkpt lat="45.79108" lon="6.52781">
        <ele>1504.3</ele>
        <time>2025-08-15T13:07:54Z</time>
      </trkpt>
      <trkpt lat="45.79112" lon="6.52779">
        <ele>1504.5</ele>
        <time>2025-08-15T13:07:55Z</time>
      </trkpt>
      <trkpt lat="45.79115" lon="6.52777">
        <ele>1504.6</ele>
        <time>2025-08-15T13:07:56Z</time>
      </trkpt>
      <trkpt lat="45.79118" lon="6.52773">
        <ele>1504.8</ele>
        <time>2025-08-15T13:07:57Z</time>
      </trkpt>
      <trkpt lat="45.79121" lon="6.5277">
        <ele>1504.9</ele>
        <time>2025-08-15T13:07:58Z</time>
      </trkpt>
      <trkpt lat="45.79125" lon="6.52767">
        <ele>1505</ele>
        <time>2025-08-15T13:07:59Z</time>
      </trkpt>
      <trkpt lat="45.79129" lon="6.52764">
        <ele>1505.1</ele>
        <time>2025-08-15T13:08:00Z</time>
      </trkpt>
      <trkpt lat="45.79134" lon="6.52763">
        <ele>1505.1</ele>
        <time>2025-08-15T13:08:01Z</time>
      </trkpt>
      <trkpt lat="45.79139" lon="6.52762">
        <ele>1505.1</ele>
        <time>2025-08-15T13:08:02Z</time>
      </trkpt>
      <trkpt lat="45.79144" lon="6.52761">
        <ele>1505.1</ele>
        <time>2025-08-15T13:08:03Z</time>
      </trkpt>
      <trkpt lat="45.79148" lon="6.52763">
        <ele>1505</ele>
        <time>2025-08-15T13:08:04Z</time>
      </trkpt>
      <trkpt lat="45.79152" lon="6.52762">
        <ele>1505</ele>
        <time>2025-08-15T13:08:05Z</time>
      </trkpt>
      <trkpt lat="45.79158" lon="6.52762">
        <ele>1505</ele>
        <time>2025-08-15T13:08:06Z</time>
      </trkpt>
      <trkpt lat="45.79162" lon="6.52762">
        <ele>1504.9</ele>
        <time>2025-08-15T13:08:07Z</time>
      </trkpt>
      <trkpt lat="45.79167" lon="6.52763">
        <ele>1504.9</ele>
        <time>2025-08-15T13:08:08Z</time>
      </trkpt>
      <trkpt lat="45.79171" lon="6.52763">
        <ele>1504.8</ele>
        <time>2025-08-15T13:08:09Z</time>
      </trkpt>
      <trkpt lat="45.79176" lon="6.52762">
        <ele>1504.8</ele>
        <time>2025-08-15T13:08:10Z</time>
      </trkpt>
      <trkpt lat="45.79181" lon="6.52761">
        <ele>1504.6</ele>
        <time>2025-08-15T13:08:11Z</time>
      </trkpt>
      <trkpt lat="45.79185" lon="6.5276">
        <ele>1504.5</ele>
        <time>2025-08-15T13:08:12Z</time>
      </trkpt>
      <trkpt lat="45.79189" lon="6.52758">
        <ele>1504.3</ele>
        <time>2025-08-15T13:08:13Z</time>
      </trkpt>
      <trkpt lat="45.79194" lon="6.52755">
        <ele>1504</ele>
        <time>2025-08-15T13:08:14Z</time>
      </trkpt>
      <trkpt lat="45.79198" lon="6.52752">
        <ele>1503.7</ele>
        <time>2025-08-15T13:08:15Z</time>
      </trkpt>
      <trkpt lat="45.79203" lon="6.52748">
        <ele>1503.4</ele>
        <time>2025-08-15T13:08:16Z</time>
      </trkpt>
      <trkpt lat="45.79208" lon="6.52742">
        <ele>1503</ele>
        <time>2025-08-15T13:08:17Z</time>
      </trkpt>
      <trkpt lat="45.79211" lon="6.52736">
        <ele>1502.5</ele>
        <time>2025-08-15T13:08:18Z</time>
      </trkpt>
      <trkpt lat="45.79214" lon="6.52728">
        <ele>1502.1</ele>
        <time>2025-08-15T13:08:19Z</time>
      </trkpt>
      <trkpt lat="45.79216" lon="6.52721">
        <ele>1501.7</ele>
        <time>2025-08-15T13:08:20Z</time>
      </trkpt>
      <trkpt lat="45.79218" lon="6.52712">
        <ele>1501.2</ele>
        <time>2025-08-15T13:08:21Z</time>
      </trkpt>
      <trkpt lat="45.79221" lon="6.52703">
        <ele>1500.7</ele>
        <time>2025-08-15T13:08:22Z</time>
      </trkpt>
      <trkpt lat="45.79224" lon="6.52694">
        <ele>1500.4</ele>
        <time>2025-08-15T13:08:23Z</time>
      </trkpt>
      <trkpt lat="45.79227" lon="6.52686">
        <ele>1500.1</ele>
        <time>2025-08-15T13:08:24Z</time>
      </trkpt>
      <trkpt lat="45.7923" lon="6.52679">
        <ele>1499.9</ele>
        <time>2025-08-15T13:08:25Z</time>
      </trkpt>
      <trkpt lat="45.79234" lon="6.52672">
        <ele>1499.8</ele>
        <time>2025-08-15T13:08:26Z</time>
      </trkpt>
      <trkpt lat="45.79238" lon="6.52667">
        <ele>1499.6</ele>
        <time>2025-08-15T13:08:27Z</time>
      </trkpt>
      <trkpt lat="45.79244" lon="6.52664">
        <ele>1499.4</ele>
        <time>2025-08-15T13:08:28Z</time>
      </trkpt>
      <trkpt lat="45.79249" lon="6.52662">
        <ele>1499.3</ele>
        <time>2025-08-15T13:08:29Z</time>
      </trkpt>
      <trkpt lat="45.79254" lon="6.52658">
        <ele>1499.1</ele>
        <time>2025-08-15T13:08:30Z</time>
      </trkpt>
      <trkpt lat="45.79258" lon="6.52654">
        <ele>1498.9</ele>
        <time>2025-08-15T13:08:31Z</time>
      </trkpt>
      <trkpt lat="45.79262" lon="6.52649">
        <ele>1498.7</ele>
        <time>2025-08-15T13:08:32Z</time>
      </trkpt>
      <trkpt lat="45.79266" lon="6.52643">
        <ele>1498.5</ele>
        <time>2025-08-15T13:08:33Z</time>
      </trkpt>
      <trkpt lat="45.79271" lon="6.52638">
        <ele>1498.3</ele>
        <time>2025-08-15T13:08:34Z</time>
      </trkpt>
      <trkpt lat="45.79275" lon="6.52632">
        <ele>1498.1</ele>
        <time>2025-08-15T13:08:35Z</time>
      </trkpt>
      <trkpt lat="45.79279" lon="6.52625">
        <ele>1497.9</ele>
        <time>2025-08-15T13:08:36Z</time>
      </trkpt>
      <trkpt lat="45.79282" lon="6.52619">
        <ele>1497.7</ele>
        <time>2025-08-15T13:08:37Z</time>
      </trkpt>
      <trkpt lat="45.79286" lon="6.52614">
        <ele>1497.6</ele>
        <time>2025-08-15T13:08:38Z</time>
      </trkpt>
      <trkpt lat="45.7929" lon="6.52609">
        <ele>1497.4</ele>
        <time>2025-08-15T13:08:39Z</time>
      </trkpt>
      <trkpt lat="45.79293" lon="6.52605">
        <ele>1497.1</ele>
        <time>2025-08-15T13:08:40Z</time>
      </trkpt>
      <trkpt lat="45.79295" lon="6.526">
        <ele>1496.9</ele>
        <time>2025-08-15T13:08:41Z</time>
      </trkpt>
      <trkpt lat="45.79297" lon="6.52597">
        <ele>1496.7</ele>
        <time>2025-08-15T13:08:42Z</time>
      </trkpt>
      <trkpt lat="45.79299" lon="6.52593">
        <ele>1496.4</ele>
        <time>2025-08-15T13:08:43Z</time>
      </trkpt>
      <trkpt lat="45.79301" lon="6.52588">
        <ele>1496.1</ele>
        <time>2025-08-15T13:08:44Z</time>
      </trkpt>
      <trkpt lat="45.79302" lon="6.52583">
        <ele>1495.7</ele>
        <time>2025-08-15T13:08:45Z</time>
      </trkpt>
      <trkpt lat="45.79305" lon="6.52577">
        <ele>1495.2</ele>
        <time>2025-08-15T13:08:46Z</time>
      </trkpt>
      <trkpt lat="45.79307" lon="6.52568">
        <ele>1494.6</ele>
        <time>2025-08-15T13:08:47Z</time>
      </trkpt>
      <trkpt lat="45.79309" lon="6.52562">
        <ele>1494.1</ele>
        <time>2025-08-15T13:08:48Z</time>
      </trkpt>
      <trkpt lat="45.7931" lon="6.52555">
        <ele>1493.6</ele>
        <time>2025-08-15T13:08:49Z</time>
      </trkpt>
      <trkpt lat="45.79311" lon="6.52548">
        <ele>1493.2</ele>
        <time>2025-08-15T13:08:50Z</time>
      </trkpt>
      <trkpt lat="45.79311" lon="6.52541">
        <ele>1492.8</ele>
        <time>2025-08-15T13:08:51Z</time>
      </trkpt>
      <trkpt lat="45.7931" lon="6.52534">
        <ele>1492.4</ele>
        <time>2025-08-15T13:08:52Z</time>
      </trkpt>
      <trkpt lat="45.7931" lon="6.52527">
        <ele>1492.1</ele>
        <time>2025-08-15T13:08:53Z</time>
      </trkpt>
      <trkpt lat="45.7931" lon="6.5252">
        <ele>1491.8</ele>
        <time>2025-08-15T13:08:54Z</time>
      </trkpt>
      <trkpt lat="45.79313" lon="6.52512">
        <ele>1491.5</ele>
        <time>2025-08-15T13:08:55Z</time>
      </trkpt>
      <trkpt lat="45.79315" lon="6.52505">
        <ele>1491.2</ele>
        <time>2025-08-15T13:08:56Z</time>
      </trkpt>
      <trkpt lat="45.79317" lon="6.52498">
        <ele>1490.9</ele>
        <time>2025-08-15T13:08:57Z</time>
      </trkpt>
      <trkpt lat="45.79318" lon="6.52491">
        <ele>1490.6</ele>
        <time>2025-08-15T13:08:58Z</time>
      </trkpt>
      <trkpt lat="45.79319" lon="6.52483">
        <ele>1490.3</ele>
        <time>2025-08-15T13:08:59Z</time>
      </trkpt>
      <trkpt lat="45.79319" lon="6.52477">
        <ele>1490</ele>
        <time>2025-08-15T13:09:00Z</time>
      </trkpt>
      <trkpt lat="45.79318" lon="6.5247">
        <ele>1489.7</ele>
        <time>2025-08-15T13:09:01Z</time>
      </trkpt>
      <trkpt lat="45.79318" lon="6.52463">
        <ele>1489.9</ele>
        <time>2025-08-15T13:09:02Z</time>
      </trkpt>
      <trkpt lat="45.79317" lon="6.52456">
        <ele>1490.1</ele>
        <time>2025-08-15T13:09:03Z</time>
      </trkpt>
      <trkpt lat="45.79316" lon="6.52451">
        <ele>1490.3</ele>
        <time>2025-08-15T13:09:04Z</time>
      </trkpt>
      <trkpt lat="45.79315" lon="6.52446">
        <ele>1490.4</ele>
        <time>2025-08-15T13:09:05Z</time>
      </trkpt>
      <trkpt lat="45.79315" lon="6.52444">
        <ele>1490.5</ele>
        <time>2025-08-15T13:09:06Z</time>
      </trkpt>
      <trkpt lat="45.79314" lon="6.5244">
        <ele>1490.7</ele>
        <time>2025-08-15T13:09:07Z</time>
      </trkpt>
      <trkpt lat="45.79313" lon="6.52436">
        <ele>1490.9</ele>
        <time>2025-08-15T13:09:08Z</time>
      </trkpt>
      <trkpt lat="45.79312" lon="6.52432">
        <ele>1491.1</ele>
        <time>2025-08-15T13:09:09Z</time>
      </trkpt>
      <trkpt lat="45.79311" lon="6.52427">
        <ele>1491.3</ele>
        <time>2025-08-15T13:09:10Z</time>
      </trkpt>
      <trkpt lat="45.7931" lon="6.52425">
        <ele>1491.4</ele>
        <time>2025-08-15T13:09:11Z</time>
      </trkpt>
      <trkpt lat="45.79308" lon="6.5242">
        <ele>1491.6</ele>
        <time>2025-08-15T13:09:12Z</time>
      </trkpt>
      <trkpt lat="45.79307" lon="6.52418">
        <ele>1491.7</ele>
        <time>2025-08-15T13:09:13Z</time>
      </trkpt>
      <trkpt lat="45.79306" lon="6.52413">
        <ele>1491.9</ele>
        <time>2025-08-15T13:09:14Z</time>
      </trkpt>
      <trkpt lat="45.79305" lon="6.52412">
        <ele>1492</ele>
        <time>2025-08-15T13:09:15Z</time>
      </trkpt>
      <trkpt lat="45.79304" lon="6.52408">
        <ele>1492.1</ele>
        <time>2025-08-15T13:09:16Z</time>
      </trkpt>
      <trkpt lat="45.79303" lon="6.52403">
        <ele>1492.1</ele>
        <time>2025-08-15T13:09:17Z</time>
      </trkpt>
      <trkpt lat="45.79303" lon="6.52399">
        <ele>1492.1</ele>
        <time>2025-08-15T13:09:18Z</time>
      </trkpt>
      <trkpt lat="45.79303" lon="6.52396">
        <ele>1492.2</ele>
        <time>2025-08-15T13:09:19Z</time>
      </trkpt>
      <trkpt lat="45.79302" lon="6.52392">
        <ele>1492.2</ele>
        <time>2025-08-15T13:09:20Z</time>
      </trkpt>
      <trkpt lat="45.79301" lon="6.52388">
        <ele>1492.3</ele>
        <time>2025-08-15T13:09:21Z</time>
      </trkpt>
      <trkpt lat="45.793" lon="6.52384">
        <ele>1492.3</ele>
        <time>2025-08-15T13:09:22Z</time>
      </trkpt>
      <trkpt lat="45.79299" lon="6.5238">
        <ele>1492.4</ele>
        <time>2025-08-15T13:09:23Z</time>
      </trkpt>
      <trkpt lat="45.79298" lon="6.52376">
        <ele>1492.4</ele>
        <time>2025-08-15T13:09:24Z</time>
      </trkpt>
      <trkpt lat="45.79298" lon="6.52371">
        <ele>1492.5</ele>
        <time>2025-08-15T13:09:25Z</time>
      </trkpt>
      <trkpt lat="45.79298" lon="6.52367">
        <ele>1492.6</ele>
        <time>2025-08-15T13:09:26Z</time>
      </trkpt>
      <trkpt lat="45.79299" lon="6.52363">
        <ele>1492.6</ele>
        <time>2025-08-15T13:09:27Z</time>
      </trkpt>
      <trkpt lat="45.79298" lon="6.52359">
        <ele>1492.7</ele>
        <time>2025-08-15T13:09:28Z</time>
      </trkpt>
      <trkpt lat="45.79298" lon="6.52355">
        <ele>1492.8</ele>
        <time>2025-08-15T13:09:29Z</time>
      </trkpt>
      <trkpt lat="45.79297" lon="6.52349">
        <ele>1492.8</ele>
        <time>2025-08-15T13:09:30Z</time>
      </trkpt>
      <trkpt lat="45.79297" lon="6.52347">
        <ele>1492.9</ele>
        <time>2025-08-15T13:09:31Z</time>
      </trkpt>
      <trkpt lat="45.79296" lon="6.52342">
        <ele>1493</ele>
        <time>2025-08-15T13:09:32Z</time>
      </trkpt>
      <trkpt lat="45.79295" lon="6.5234">
        <ele>1493</ele>
        <time>2025-08-15T13:09:33Z</time>
      </trkpt>
      <trkpt lat="45.79295" lon="6.52334">
        <ele>1493.2</ele>
        <time>2025-08-15T13:09:34Z</time>
      </trkpt>
      <trkpt lat="45.79294" lon="6.52333">
        <ele>1493.2</ele>
        <time>2025-08-15T13:09:35Z</time>
      </trkpt>
      <trkpt lat="45.79294" lon="6.52327">
        <ele>1493.4</ele>
        <time>2025-08-15T13:09:36Z</time>
      </trkpt>
      <trkpt lat="45.79294" lon="6.52325">
        <ele>1493.5</ele>
        <time>2025-08-15T13:09:37Z</time>
      </trkpt>
      <trkpt lat="45.79294" lon="6.52319">
        <ele>1493.7</ele>
        <time>2025-08-15T13:09:38Z</time>
      </trkpt>
      <trkpt lat="45.79294" lon="6.52317">
        <ele>1493.7</ele>
        <time>2025-08-15T13:09:39Z</time>
      </trkpt>
      <trkpt lat="45.79294" lon="6.52313">
        <ele>1493.9</ele>
        <time>2025-08-15T13:09:40Z</time>
      </trkpt>
      <trkpt lat="45.79291" lon="6.52309">
        <ele>1494.1</ele>
        <time>2025-08-15T13:09:41Z</time>
      </trkpt>
      <trkpt lat="45.79291" lon="6.52304">
        <ele>1494.3</ele>
        <time>2025-08-15T13:09:42Z</time>
      </trkpt>
      <trkpt lat="45.79291" lon="6.52298">
        <ele>1494.6</ele>
        <time>2025-08-15T13:09:43Z</time>
      </trkpt>
      <trkpt lat="45.79291" lon="6.52296">
        <ele>1494.7</ele>
        <time>2025-08-15T13:09:44Z</time>
      </trkpt>
      <trkpt lat="45.7929" lon="6.52292">
        <ele>1494.8</ele>
        <time>2025-08-15T13:09:45Z</time>
      </trkpt>
      <trkpt lat="45.7929" lon="6.52287">
        <ele>1495</ele>
        <time>2025-08-15T13:09:46Z</time>
      </trkpt>
      <trkpt lat="45.7929" lon="6.52282">
        <ele>1495.2</ele>
        <time>2025-08-15T13:09:47Z</time>
      </trkpt>
      <trkpt lat="45.7929" lon="6.52278">
        <ele>1495.4</ele>
        <time>2025-08-15T13:09:48Z</time>
      </trkpt>
      <trkpt lat="45.7929" lon="6.52273">
        <ele>1495.5</ele>
        <time>2025-08-15T13:09:49Z</time>
      </trkpt>
      <trkpt lat="45.79289" lon="6.52268">
        <ele>1495.7</ele>
        <time>2025-08-15T13:09:50Z</time>
      </trkpt>
      <trkpt lat="45.79288" lon="6.52262">
        <ele>1495.9</ele>
        <time>2025-08-15T13:09:51Z</time>
      </trkpt>
      <trkpt lat="45.79288" lon="6.52257">
        <ele>1496.1</ele>
        <time>2025-08-15T13:09:52Z</time>
      </trkpt>
      <trkpt lat="45.79287" lon="6.52252">
        <ele>1496.2</ele>
        <time>2025-08-15T13:09:53Z</time>
      </trkpt>
      <trkpt lat="45.79286" lon="6.52247">
        <ele>1496.4</ele>
        <time>2025-08-15T13:09:54Z</time>
      </trkpt>
      <trkpt lat="45.79285" lon="6.52242">
        <ele>1496.6</ele>
        <time>2025-08-15T13:09:55Z</time>
      </trkpt>
      <trkpt lat="45.79283" lon="6.52236">
        <ele>1496.7</ele>
        <time>2025-08-15T13:09:56Z</time>
      </trkpt>
      <trkpt lat="45.79282" lon="6.52231">
        <ele>1496.8</ele>
        <time>2025-08-15T13:09:57Z</time>
      </trkpt>
      <trkpt lat="45.7928" lon="6.52226">
        <ele>1497</ele>
        <time>2025-08-15T13:09:58Z</time>
      </trkpt>
      <trkpt lat="45.79277" lon="6.52222">
        <ele>1497.1</ele>
        <time>2025-08-15T13:09:59Z</time>
      </trkpt>
      <trkpt lat="45.79274" lon="6.52218">
        <ele>1497.2</ele>
        <time>2025-08-15T13:10:00Z</time>
      </trkpt>
      <trkpt lat="45.79273" lon="6.52212">
        <ele>1497.4</ele>
        <time>2025-08-15T13:10:01Z</time>
      </trkpt>
      <trkpt lat="45.7927" lon="6.52207">
        <ele>1497.5</ele>
        <time>2025-08-15T13:10:02Z</time>
      </trkpt>
      <trkpt lat="45.79267" lon="6.52202">
        <ele>1497.6</ele>
        <time>2025-08-15T13:10:03Z</time>
      </trkpt>
      <trkpt lat="45.79264" lon="6.52197">
        <ele>1497.7</ele>
        <time>2025-08-15T13:10:04Z</time>
      </trkpt>
      <trkpt lat="45.7926" lon="6.52193">
        <ele>1497.8</ele>
        <time>2025-08-15T13:10:05Z</time>
      </trkpt>
      <trkpt lat="45.79257" lon="6.52189">
        <ele>1497.9</ele>
        <time>2025-08-15T13:10:06Z</time>
      </trkpt>
      <trkpt lat="45.79253" lon="6.52185">
        <ele>1498</ele>
        <time>2025-08-15T13:10:07Z</time>
      </trkpt>
      <trkpt lat="45.79251" lon="6.52179">
        <ele>1498.2</ele>
        <time>2025-08-15T13:10:08Z</time>
      </trkpt>
      <trkpt lat="45.79248" lon="6.52174">
        <ele>1498.4</ele>
        <time>2025-08-15T13:10:09Z</time>
      </trkpt>
      <trkpt lat="45.79246" lon="6.52168">
        <ele>1498.6</ele>
        <time>2025-08-15T13:10:10Z</time>
      </trkpt>
      <trkpt lat="45.79244" lon="6.52163">
        <ele>1498.8</ele>
        <time>2025-08-15T13:10:11Z</time>
      </trkpt>
      <trkpt lat="45.79241" lon="6.5216">
        <ele>1499</ele>
        <time>2025-08-15T13:10:12Z</time>
      </trkpt>
      <trkpt lat="45.79238" lon="6.52156">
        <ele>1499.1</ele>
        <time>2025-08-15T13:10:13Z</time>
      </trkpt>
      <trkpt lat="45.79236" lon="6.52152">
        <ele>1499.3</ele>
        <time>2025-08-15T13:10:14Z</time>
      </trkpt>
      <trkpt lat="45.79234" lon="6.52149">
        <ele>1499.4</ele>
        <time>2025-08-15T13:10:15Z</time>
      </trkpt>
      <trkpt lat="45.79231" lon="6.52145">
        <ele>1499.5</ele>
        <time>2025-08-15T13:10:16Z</time>
      </trkpt>
      <trkpt lat="45.79229" lon="6.52141">
        <ele>1499.5</ele>
        <time>2025-08-15T13:10:17Z</time>
      </trkpt>
      <trkpt lat="45.79226" lon="6.52136">
        <ele>1499.5</ele>
        <time>2025-08-15T13:10:18Z</time>
      </trkpt>
      <trkpt lat="45.79223" lon="6.52131">
        <ele>1499.5</ele>
        <time>2025-08-15T13:10:19Z</time>
      </trkpt>
      <trkpt lat="45.7922" lon="6.52127">
        <ele>1499.4</ele>
        <time>2025-08-15T13:10:20Z</time>
      </trkpt>
      <trkpt lat="45.79217" lon="6.52122">
        <ele>1499.3</ele>
        <time>2025-08-15T13:10:21Z</time>
      </trkpt>
      <trkpt lat="45.79213" lon="6.52117">
        <ele>1499.1</ele>
        <time>2025-08-15T13:10:22Z</time>
      </trkpt>
      <trkpt lat="45.7921" lon="6.52113">
        <ele>1499</ele>
        <time>2025-08-15T13:10:23Z</time>
      </trkpt>
      <trkpt lat="45.79206" lon="6.52109">
        <ele>1498.9</ele>
        <time>2025-08-15T13:10:24Z</time>
      </trkpt>
      <trkpt lat="45.79204" lon="6.52107">
        <ele>1498.8</ele>
        <time>2025-08-15T13:10:25Z</time>
      </trkpt>
      <trkpt lat="45.79201" lon="6.52104">
        <ele>1498.8</ele>
        <time>2025-08-15T13:10:26Z</time>
      </trkpt>
      <trkpt lat="45.79197" lon="6.52103">
        <ele>1498.7</ele>
        <time>2025-08-15T13:10:27Z</time>
      </trkpt>
      <trkpt lat="45.79194" lon="6.521">
        <ele>1498.7</ele>
        <time>2025-08-15T13:10:28Z</time>
      </trkpt>
      <trkpt lat="45.7919" lon="6.52098">
        <ele>1498.6</ele>
        <time>2025-08-15T13:10:29Z</time>
      </trkpt>
      <trkpt lat="45.79187" lon="6.52095">
        <ele>1498.5</ele>
        <time>2025-08-15T13:10:30Z</time>
      </trkpt>
      <trkpt lat="45.79183" lon="6.52094">
        <ele>1498.5</ele>
        <time>2025-08-15T13:10:31Z</time>
      </trkpt>
      <trkpt lat="45.79179" lon="6.52093">
        <ele>1498.4</ele>
        <time>2025-08-15T13:10:32Z</time>
      </trkpt>
      <trkpt lat="45.79175" lon="6.52092">
        <ele>1498.3</ele>
        <time>2025-08-15T13:10:33Z</time>
      </trkpt>
      <trkpt lat="45.7917" lon="6.52089">
        <ele>1498.3</ele>
        <time>2025-08-15T13:10:34Z</time>
      </trkpt>
      <trkpt lat="45.79168" lon="6.52086">
        <ele>1498.2</ele>
        <time>2025-08-15T13:10:35Z</time>
      </trkpt>
      <trkpt lat="45.79165" lon="6.52082">
        <ele>1498.2</ele>
        <time>2025-08-15T13:10:36Z</time>
      </trkpt>
      <trkpt lat="45.79162" lon="6.5208">
        <ele>1498.1</ele>
        <time>2025-08-15T13:10:37Z</time>
      </trkpt>
      <trkpt lat="45.7916" lon="6.52078">
        <ele>1498.1</ele>
        <time>2025-08-15T13:10:38Z</time>
      </trkpt>
      <trkpt lat="45.79156" lon="6.52077">
        <ele>1498</ele>
        <time>2025-08-15T13:10:39Z</time>
      </trkpt>
      <trkpt lat="45.79153" lon="6.52075">
        <ele>1497.9</ele>
        <time>2025-08-15T13:10:40Z</time>
      </trkpt>
      <trkpt lat="45.79151" lon="6.52074">
        <ele>1497.9</ele>
        <time>2025-08-15T13:10:41Z</time>
      </trkpt>
      <trkpt lat="45.79147" lon="6.52071">
        <ele>1497.7</ele>
        <time>2025-08-15T13:10:42Z</time>
      </trkpt>
      <trkpt lat="45.79144" lon="6.52069">
        <ele>1497.7</ele>
        <time>2025-08-15T13:10:43Z</time>
      </trkpt>
      <trkpt lat="45.7914" lon="6.52066">
        <ele>1497.5</ele>
        <time>2025-08-15T13:10:44Z</time>
      </trkpt>
      <trkpt lat="45.79137" lon="6.52059">
        <ele>1497.3</ele>
        <time>2025-08-15T13:10:45Z</time>
      </trkpt>
      <trkpt lat="45.79138" lon="6.52053">
        <ele>1497.2</ele>
        <time>2025-08-15T13:10:46Z</time>
      </trkpt>
      <trkpt lat="45.79137" lon="6.52049">
        <ele>1497.2</ele>
        <time>2025-08-15T13:10:47Z</time>
      </trkpt>
      <trkpt lat="45.79135" lon="6.52041">
        <ele>1497.1</ele>
        <time>2025-08-15T13:10:48Z</time>
      </trkpt>
      <trkpt lat="45.7913" lon="6.52035">
        <ele>1497</ele>
        <time>2025-08-15T13:10:49Z</time>
      </trkpt>
      <trkpt lat="45.79129" lon="6.52029">
        <ele>1497</ele>
        <time>2025-08-15T13:10:50Z</time>
      </trkpt>
      <trkpt lat="45.79127" lon="6.52025">
        <ele>1496.9</ele>
        <time>2025-08-15T13:10:51Z</time>
      </trkpt>
      <trkpt lat="45.79124" lon="6.52021">
        <ele>1496.9</ele>
        <time>2025-08-15T13:10:52Z</time>
      </trkpt>
      <trkpt lat="45.79121" lon="6.52016">
        <ele>1496.9</ele>
        <time>2025-08-15T13:10:53Z</time>
      </trkpt>
      <trkpt lat="45.79118" lon="6.52013">
        <ele>1496.9</ele>
        <time>2025-08-15T13:10:54Z</time>
      </trkpt>
      <trkpt lat="45.79116" lon="6.5201">
        <ele>1496.9</ele>
        <time>2025-08-15T13:10:55Z</time>
      </trkpt>
      <trkpt lat="45.79112" lon="6.52005">
        <ele>1496.9</ele>
        <time>2025-08-15T13:10:56Z</time>
      </trkpt>
      <trkpt lat="45.7911" lon="6.52001">
        <ele>1496.8</ele>
        <time>2025-08-15T13:10:57Z</time>
      </trkpt>
      <trkpt lat="45.79107" lon="6.51997">
        <ele>1496.8</ele>
        <time>2025-08-15T13:10:58Z</time>
      </trkpt>
      <trkpt lat="45.79101" lon="6.51993">
        <ele>1496.6</ele>
        <time>2025-08-15T13:10:59Z</time>
      </trkpt>
      <trkpt lat="45.79096" lon="6.5199">
        <ele>1496.4</ele>
        <time>2025-08-15T13:11:00Z</time>
      </trkpt>
      <trkpt lat="45.79092" lon="6.51986">
        <ele>1496.2</ele>
        <time>2025-08-15T13:11:01Z</time>
      </trkpt>
      <trkpt lat="45.79087" lon="6.5198">
        <ele>1495.8</ele>
        <time>2025-08-15T13:11:02Z</time>
      </trkpt>
      <trkpt lat="45.79083" lon="6.51975">
        <ele>1495.5</ele>
        <time>2025-08-15T13:11:03Z</time>
      </trkpt>
      <trkpt lat="45.79077" lon="6.51971">
        <ele>1495.1</ele>
        <time>2025-08-15T13:11:04Z</time>
      </trkpt>
      <trkpt lat="45.79073" lon="6.51966">
        <ele>1494.7</ele>
        <time>2025-08-15T13:11:05Z</time>
      </trkpt>
      <trkpt lat="45.79068" lon="6.5196">
        <ele>1494.3</ele>
        <time>2025-08-15T13:11:06Z</time>
      </trkpt>
      <trkpt lat="45.7906" lon="6.51956">
        <ele>1493.9</ele>
        <time>2025-08-15T13:11:07Z</time>
      </trkpt>
      <trkpt lat="45.79056" lon="6.5195">
        <ele>1493.6</ele>
        <time>2025-08-15T13:11:08Z</time>
      </trkpt>
      <trkpt lat="45.79052" lon="6.51943">
        <ele>1493.3</ele>
        <time>2025-08-15T13:11:09Z</time>
      </trkpt>
      <trkpt lat="45.79049" lon="6.51937">
        <ele>1493.1</ele>
        <time>2025-08-15T13:11:10Z</time>
      </trkpt>
      <trkpt lat="45.79046" lon="6.51931">
        <ele>1492.8</ele>
        <time>2025-08-15T13:11:11Z</time>
      </trkpt>
      <trkpt lat="45.79041" lon="6.51924">
        <ele>1492.5</ele>
        <time>2025-08-15T13:11:12Z</time>
      </trkpt>
      <trkpt lat="45.79037" lon="6.51916">
        <ele>1492.2</ele>
        <time>2025-08-15T13:11:13Z</time>
      </trkpt>
      <trkpt lat="45.79032" lon="6.51911">
        <ele>1491.9</ele>
        <time>2025-08-15T13:11:14Z</time>
      </trkpt>
      <trkpt lat="45.79026" lon="6.51905">
        <ele>1491.6</ele>
        <time>2025-08-15T13:11:15Z</time>
      </trkpt>
      <trkpt lat="45.79021" lon="6.51899">
        <ele>1491.3</ele>
        <time>2025-08-15T13:11:16Z</time>
      </trkpt>
      <trkpt lat="45.79018" lon="6.51892">
        <ele>1491.1</ele>
        <time>2025-08-15T13:11:17Z</time>
      </trkpt>
      <trkpt lat="45.79016" lon="6.51883">
        <ele>1490.8</ele>
        <time>2025-08-15T13:11:18Z</time>
      </trkpt>
      <trkpt lat="45.79016" lon="6.51874">
        <ele>1490.7</ele>
        <time>2025-08-15T13:11:19Z</time>
      </trkpt>
      <trkpt lat="45.79016" lon="6.51864">
        <ele>1490.6</ele>
        <time>2025-08-15T13:11:20Z</time>
      </trkpt>
      <trkpt lat="45.79018" lon="6.51856">
        <ele>1490.7</ele>
        <time>2025-08-15T13:11:21Z</time>
      </trkpt>
      <trkpt lat="45.79021" lon="6.5185">
        <ele>1490.8</ele>
        <time>2025-08-15T13:11:22Z</time>
      </trkpt>
      <trkpt lat="45.79022" lon="6.51843">
        <ele>1490.9</ele>
        <time>2025-08-15T13:11:23Z</time>
      </trkpt>
      <trkpt lat="45.79022" lon="6.51838">
        <ele>1491.1</ele>
        <time>2025-08-15T13:11:24Z</time>
      </trkpt>
      <trkpt lat="45.79021" lon="6.51833">
        <ele>1491.2</ele>
        <time>2025-08-15T13:11:25Z</time>
      </trkpt>
      <trkpt lat="45.79021" lon="6.51829">
        <ele>1491.2</ele>
        <time>2025-08-15T13:11:26Z</time>
      </trkpt>
      <trkpt lat="45.7902" lon="6.51825">
        <ele>1491.3</ele>
        <time>2025-08-15T13:11:27Z</time>
      </trkpt>
      <trkpt lat="45.79018" lon="6.5182">
        <ele>1491.4</ele>
        <time>2025-08-15T13:11:28Z</time>
      </trkpt>
      <trkpt lat="45.79017" lon="6.51818">
        <ele>1491.4</ele>
        <time>2025-08-15T13:11:29Z</time>
      </trkpt>
      <trkpt lat="45.79015" lon="6.51813">
        <ele>1491.4</ele>
        <time>2025-08-15T13:11:30Z</time>
      </trkpt>
      <trkpt lat="45.79012" lon="6.5181">
        <ele>1491.4</ele>
        <time>2025-08-15T13:11:31Z</time>
      </trkpt>
      <trkpt lat="45.79009" lon="6.51806">
        <ele>1491.3</ele>
        <time>2025-08-15T13:11:32Z</time>
      </trkpt>
      <trkpt lat="45.79006" lon="6.51803">
        <ele>1491.2</ele>
        <time>2025-08-15T13:11:33Z</time>
      </trkpt>
      <trkpt lat="45.79001" lon="6.518">
        <ele>1491.1</ele>
        <time>2025-08-15T13:11:34Z</time>
      </trkpt>
      <trkpt lat="45.78996" lon="6.51797">
        <ele>1490.8</ele>
        <time>2025-08-15T13:11:35Z</time>
      </trkpt>
      <trkpt lat="45.7899" lon="6.51795">
        <ele>1490.6</ele>
        <time>2025-08-15T13:11:36Z</time>
      </trkpt>
      <trkpt lat="45.78987" lon="6.51793">
        <ele>1490.5</ele>
        <time>2025-08-15T13:11:37Z</time>
      </trkpt>
      <trkpt lat="45.78981" lon="6.51789">
        <ele>1490.2</ele>
        <time>2025-08-15T13:11:38Z</time>
      </trkpt>
      <trkpt lat="45.78977" lon="6.51785">
        <ele>1490</ele>
        <time>2025-08-15T13:11:39Z</time>
      </trkpt>
      <trkpt lat="45.78972" lon="6.51781">
        <ele>1489.9</ele>
        <time>2025-08-15T13:11:40Z</time>
      </trkpt>
      <trkpt lat="45.78969" lon="6.51774">
        <ele>1489.7</ele>
        <time>2025-08-15T13:11:41Z</time>
      </trkpt>
      <trkpt lat="45.78966" lon="6.51766">
        <ele>1489.5</ele>
        <time>2025-08-15T13:11:42Z</time>
      </trkpt>
      <trkpt lat="45.78963" lon="6.51759">
        <ele>1489.4</ele>
        <time>2025-08-15T13:11:43Z</time>
      </trkpt>
      <trkpt lat="45.78962" lon="6.51752">
        <ele>1489.3</ele>
        <time>2025-08-15T13:11:44Z</time>
      </trkpt>
      <trkpt lat="45.78961" lon="6.51744">
        <ele>1489.3</ele>
        <time>2025-08-15T13:11:45Z</time>
      </trkpt>
      <trkpt lat="45.78962" lon="6.51738">
        <ele>1489.3</ele>
        <time>2025-08-15T13:11:46Z</time>
      </trkpt>
      <trkpt lat="45.7896" lon="6.51734">
        <ele>1489.3</ele>
        <time>2025-08-15T13:11:47Z</time>
      </trkpt>
      <trkpt lat="45.78959" lon="6.51729">
        <ele>1489.3</ele>
        <time>2025-08-15T13:11:48Z</time>
      </trkpt>
      <trkpt lat="45.78958" lon="6.51724">
        <ele>1489.2</ele>
        <time>2025-08-15T13:11:49Z</time>
      </trkpt>
      <trkpt lat="45.78958" lon="6.51718">
        <ele>1489.2</ele>
        <time>2025-08-15T13:11:50Z</time>
      </trkpt>
      <trkpt lat="45.78958" lon="6.51713">
        <ele>1489.2</ele>
        <time>2025-08-15T13:11:51Z</time>
      </trkpt>
      <trkpt lat="45.78958" lon="6.51707">
        <ele>1489.1</ele>
        <time>2025-08-15T13:11:52Z</time>
      </trkpt>
      <trkpt lat="45.78959" lon="6.51702">
        <ele>1489</ele>
        <time>2025-08-15T13:11:53Z</time>
      </trkpt>
      <trkpt lat="45.7896" lon="6.51698">
        <ele>1489</ele>
        <time>2025-08-15T13:11:54Z</time>
      </trkpt>
      <trkpt lat="45.7896" lon="6.51693">
        <ele>1488.9</ele>
        <time>2025-08-15T13:11:55Z</time>
      </trkpt>
      <trkpt lat="45.78961" lon="6.51689">
        <ele>1488.8</ele>
        <time>2025-08-15T13:11:56Z</time>
      </trkpt>
      <trkpt lat="45.78962" lon="6.51683">
        <ele>1488.7</ele>
        <time>2025-08-15T13:11:57Z</time>
      </trkpt>
      <trkpt lat="45.78962" lon="6.51677">
        <ele>1488.6</ele>
        <time>2025-08-15T13:11:58Z</time>
      </trkpt>
      <trkpt lat="45.78962" lon="6.51671">
        <ele>1488.4</ele>
        <time>2025-08-15T13:11:59Z</time>
      </trkpt>
      <trkpt lat="45.78961" lon="6.51665">
        <ele>1488.3</ele>
        <time>2025-08-15T13:12:00Z</time>
      </trkpt>
      <trkpt lat="45.7896" lon="6.51659">
        <ele>1488.2</ele>
        <time>2025-08-15T13:12:01Z</time>
      </trkpt>
      <trkpt lat="45.7896" lon="6.51654">
        <ele>1488.1</ele>
        <time>2025-08-15T13:12:02Z</time>
      </trkpt>
      <trkpt lat="45.78961" lon="6.51648">
        <ele>1488</ele>
        <time>2025-08-15T13:12:03Z</time>
      </trkpt>
      <trkpt lat="45.78961" lon="6.51642">
        <ele>1487.8</ele>
        <time>2025-08-15T13:12:04Z</time>
      </trkpt>
      <trkpt lat="45.7896" lon="6.51637">
        <ele>1487.7</ele>
        <time>2025-08-15T13:12:06Z</time>
      </trkpt>
      <trkpt lat="45.78958" lon="6.51632">
        <ele>1487.6</ele>
        <time>2025-08-15T13:12:07Z</time>
      </trkpt>
      <trkpt lat="45.78956" lon="6.51628">
        <ele>1487.5</ele>
        <time>2025-08-15T13:12:08Z</time>
      </trkpt>
      <trkpt lat="45.78954" lon="6.51623">
        <ele>1487.3</ele>
        <time>2025-08-15T13:12:09Z</time>
      </trkpt>
      <trkpt lat="45.78952" lon="6.51618">
        <ele>1487.2</ele>
        <time>2025-08-15T13:12:10Z</time>
      </trkpt>
      <trkpt lat="45.78949" lon="6.51613">
        <ele>1487</ele>
        <time>2025-08-15T13:12:11Z</time>
      </trkpt>
      <trkpt lat="45.78946" lon="6.51607">
        <ele>1486.7</ele>
        <time>2025-08-15T13:12:12Z</time>
      </trkpt>
      <trkpt lat="45.78944" lon="6.51601">
        <ele>1486.4</ele>
        <time>2025-08-15T13:12:13Z</time>
      </trkpt>
      <trkpt lat="45.78941" lon="6.51594">
        <ele>1486.2</ele>
        <time>2025-08-15T13:12:14Z</time>
      </trkpt>
      <trkpt lat="45.78938" lon="6.51588">
        <ele>1485.9</ele>
        <time>2025-08-15T13:12:15Z</time>
      </trkpt>
      <trkpt lat="45.78934" lon="6.51582">
        <ele>1485.7</ele>
        <time>2025-08-15T13:12:16Z</time>
      </trkpt>
      <trkpt lat="45.78931" lon="6.51577">
        <ele>1485.5</ele>
        <time>2025-08-15T13:12:17Z</time>
      </trkpt>
      <trkpt lat="45.78927" lon="6.51573">
        <ele>1485.5</ele>
        <time>2025-08-15T13:12:18Z</time>
      </trkpt>
      <trkpt lat="45.78923" lon="6.5157">
        <ele>1485.6</ele>
        <time>2025-08-15T13:12:19Z</time>
      </trkpt>
      <trkpt lat="45.78921" lon="6.51567">
        <ele>1485.7</ele>
        <time>2025-08-15T13:12:20Z</time>
      </trkpt>
      <trkpt lat="45.7892" lon="6.51567">
        <ele>1485.7</ele>
        <time>2025-08-15T13:12:21Z</time>
      </trkpt>
      <trkpt lat="45.78919" lon="6.51566">
        <ele>1485.8</ele>
        <time>2025-08-15T13:12:22Z</time>
      </trkpt>
      <trkpt lat="45.78918" lon="6.51564">
        <ele>1485.8</ele>
        <time>2025-08-15T13:12:23Z</time>
      </trkpt>
      <trkpt lat="45.78916" lon="6.51562">
        <ele>1485.9</ele>
        <time>2025-08-15T13:12:24Z</time>
      </trkpt>
      <trkpt lat="45.78915" lon="6.51562">
        <ele>1486</ele>
        <time>2025-08-15T13:12:25Z</time>
      </trkpt>
      <trkpt lat="45.78914" lon="6.51561">
        <ele>1486</ele>
        <time>2025-08-15T13:12:26Z</time>
      </trkpt>
      <trkpt lat="45.78912" lon="6.51559">
        <ele>1486.2</ele>
        <time>2025-08-15T13:12:27Z</time>
      </trkpt>
      <trkpt lat="45.78909" lon="6.51557">
        <ele>1486.3</ele>
        <time>2025-08-15T13:12:28Z</time>
      </trkpt>
      <trkpt lat="45.78908" lon="6.51556">
        <ele>1486.4</ele>
        <time>2025-08-15T13:12:29Z</time>
      </trkpt>
      <trkpt lat="45.78907" lon="6.51555">
        <ele>1486.5</ele>
        <time>2025-08-15T13:12:30Z</time>
      </trkpt>
      <trkpt lat="45.78903" lon="6.51553">
        <ele>1486.8</ele>
        <time>2025-08-15T13:12:31Z</time>
      </trkpt>
      <trkpt lat="45.78902" lon="6.51553">
        <ele>1486.8</ele>
        <time>2025-08-15T13:12:32Z</time>
      </trkpt>
      <trkpt lat="45.78899" lon="6.51552">
        <ele>1487</ele>
        <time>2025-08-15T13:12:33Z</time>
      </trkpt>
      <trkpt lat="45.78896" lon="6.51549">
        <ele>1487.3</ele>
        <time>2025-08-15T13:12:34Z</time>
      </trkpt>
      <trkpt lat="45.78894" lon="6.51549">
        <ele>1487.4</ele>
        <time>2025-08-15T13:12:35Z</time>
      </trkpt>
      <trkpt lat="45.78892" lon="6.51547">
        <ele>1487.6</ele>
        <time>2025-08-15T13:12:36Z</time>
      </trkpt>
      <trkpt lat="45.78886" lon="6.51545">
        <ele>1487.9</ele>
        <time>2025-08-15T13:12:37Z</time>
      </trkpt>
      <trkpt lat="45.78884" lon="6.51543">
        <ele>1488.1</ele>
        <time>2025-08-15T13:12:38Z</time>
      </trkpt>
      <trkpt lat="45.78881" lon="6.51542">
        <ele>1488.3</ele>
        <time>2025-08-15T13:12:39Z</time>
      </trkpt>
      <trkpt lat="45.78878" lon="6.5154">
        <ele>1488.5</ele>
        <time>2025-08-15T13:12:40Z</time>
      </trkpt>
      <trkpt lat="45.78877" lon="6.5154">
        <ele>1488.5</ele>
        <time>2025-08-15T13:12:41Z</time>
      </trkpt>
      <trkpt lat="45.78874" lon="6.51538">
        <ele>1488.7</ele>
        <time>2025-08-15T13:12:42Z</time>
      </trkpt>
      <trkpt lat="45.78873" lon="6.51538">
        <ele>1488.8</ele>
        <time>2025-08-15T13:12:43Z</time>
      </trkpt>
      <trkpt lat="45.7887" lon="6.51536">
        <ele>1489</ele>
        <time>2025-08-15T13:12:44Z</time>
      </trkpt>
      <trkpt lat="45.78869" lon="6.51535">
        <ele>1489.1</ele>
        <time>2025-08-15T13:12:45Z</time>
      </trkpt>
      <trkpt lat="45.78866" lon="6.51532">
        <ele>1489.3</ele>
        <time>2025-08-15T13:12:46Z</time>
      </trkpt>
      <trkpt lat="45.78865" lon="6.51532">
        <ele>1489.4</ele>
        <time>2025-08-15T13:12:47Z</time>
      </trkpt>
      <trkpt lat="45.78862" lon="6.5153">
        <ele>1489.7</ele>
        <time>2025-08-15T13:12:48Z</time>
      </trkpt>
      <trkpt lat="45.78861" lon="6.51529">
        <ele>1489.7</ele>
        <time>2025-08-15T13:12:49Z</time>
      </trkpt>
      <trkpt lat="45.78858" lon="6.51527">
        <ele>1489.9</ele>
        <time>2025-08-15T13:12:50Z</time>
      </trkpt>
      <trkpt lat="45.78857" lon="6.51527">
        <ele>1490</ele>
        <time>2025-08-15T13:12:51Z</time>
      </trkpt>
      <trkpt lat="45.78854" lon="6.51525">
        <ele>1490.3</ele>
        <time>2025-08-15T13:12:52Z</time>
      </trkpt>
      <trkpt lat="45.78853" lon="6.51524">
        <ele>1490.3</ele>
        <time>2025-08-15T13:12:53Z</time>
      </trkpt>
      <trkpt lat="45.78849" lon="6.51522">
        <ele>1490.6</ele>
        <time>2025-08-15T13:12:54Z</time>
      </trkpt>
      <trkpt lat="45.78848" lon="6.51522">
        <ele>1490.7</ele>
        <time>2025-08-15T13:12:55Z</time>
      </trkpt>
      <trkpt lat="45.78845" lon="6.51521">
        <ele>1490.9</ele>
        <time>2025-08-15T13:12:56Z</time>
      </trkpt>
      <trkpt lat="45.78842" lon="6.51521">
        <ele>1491</ele>
        <time>2025-08-15T13:12:57Z</time>
      </trkpt>
      <trkpt lat="45.78839" lon="6.5152">
        <ele>1491.2</ele>
        <time>2025-08-15T13:12:58Z</time>
      </trkpt>
      <trkpt lat="45.78836" lon="6.51518">
        <ele>1491.3</ele>
        <time>2025-08-15T13:12:59Z</time>
      </trkpt>
      <trkpt lat="45.78833" lon="6.51517">
        <ele>1491.4</ele>
        <time>2025-08-15T13:13:00Z</time>
      </trkpt>
      <trkpt lat="45.78832" lon="6.51516">
        <ele>1491.4</ele>
        <time>2025-08-15T13:13:01Z</time>
      </trkpt>
      <trkpt lat="45.78829" lon="6.51516">
        <ele>1491.5</ele>
        <time>2025-08-15T13:13:02Z</time>
      </trkpt>
      <trkpt lat="45.78828" lon="6.51515">
        <ele>1491.6</ele>
        <time>2025-08-15T13:13:03Z</time>
      </trkpt>
      <trkpt lat="45.78825" lon="6.51514">
        <ele>1491.6</ele>
        <time>2025-08-15T13:13:04Z</time>
      </trkpt>
      <trkpt lat="45.78825" lon="6.51514">
        <ele>1491.7</ele>
        <time>2025-08-15T13:13:05Z</time>
      </trkpt>
      <trkpt lat="45.78824" lon="6.51513">
        <ele>1491.7</ele>
        <time>2025-08-15T13:13:06Z</time>
      </trkpt>
      <trkpt lat="45.78823" lon="6.51513">
        <ele>1491.7</ele>
        <time>2025-08-15T13:13:07Z</time>
      </trkpt>
      <trkpt lat="45.78823" lon="6.51514">
        <ele>1491.7</ele>
        <time>2025-08-15T13:13:08Z</time>
      </trkpt>
      <trkpt lat="45.78824" lon="6.51514">
        <ele>1491.7</ele>
        <time>2025-08-15T13:13:09Z</time>
      </trkpt>
      <trkpt lat="45.78824" lon="6.51515">
        <ele>1491.7</ele>
        <time>2025-08-15T13:13:10Z</time>
      </trkpt>
      <trkpt lat="45.78824" lon="6.51515">
        <ele>1491.7</ele>
        <time>2025-08-15T13:13:11Z</time>
      </trkpt>
      <trkpt lat="45.78824" lon="6.51515">
        <ele>1491.7</ele>
        <time>2025-08-15T13:13:12Z</time>
      </trkpt>
      <trkpt lat="45.78823" lon="6.51516">
        <ele>1491.7</ele>
        <time>2025-08-15T13:13:13Z</time>
      </trkpt>
      <trkpt lat="45.78823" lon="6.51514">
        <ele>1491.8</ele>
        <time>2025-08-15T13:13:14Z</time>
      </trkpt>
      <trkpt lat="45.78823" lon="6.51514">
        <ele>1491.8</ele>
        <time>2025-08-15T13:13:15Z</time>
      </trkpt>
      <trkpt lat="45.78823" lon="6.51512">
        <ele>1491.8</ele>
        <time>2025-08-15T13:13:16Z</time>
      </trkpt>
      <trkpt lat="45.78823" lon="6.51512">
        <ele>1491.8</ele>
        <time>2025-08-15T13:13:17Z</time>
      </trkpt>
      <trkpt lat="45.78823" lon="6.51511">
        <ele>1491.8</ele>
        <time>2025-08-15T13:13:18Z</time>
      </trkpt>
      <trkpt lat="45.78823" lon="6.51511">
        <ele>1491.8</ele>
        <time>2025-08-15T13:13:19Z</time>
      </trkpt>
      <trkpt lat="45.78822" lon="6.51511">
        <ele>1491.8</ele>
        <time>2025-08-15T13:13:20Z</time>
      </trkpt>
      <trkpt lat="45.78822" lon="6.51511">
        <ele>1491.8</ele>
        <time>2025-08-15T13:13:21Z</time>
      </trkpt>
      <trkpt lat="45.78821" lon="6.51511">
        <ele>1491.9</ele>
        <time>2025-08-15T13:13:22Z</time>
      </trkpt>
      <trkpt lat="45.7882" lon="6.51511">
        <ele>1491.9</ele>
        <time>2025-08-15T13:13:23Z</time>
      </trkpt>
      <trkpt lat="45.78821" lon="6.51512">
        <ele>1491.9</ele>
        <time>2025-08-15T13:13:24Z</time>
      </trkpt>
      <trkpt lat="45.78822" lon="6.51512">
        <ele>1491.9</ele>
        <time>2025-08-15T13:13:25Z</time>
      </trkpt>
      <trkpt lat="45.78822" lon="6.51512">
        <ele>1491.9</ele>
        <time>2025-08-15T13:13:26Z</time>
      </trkpt>
      <trkpt lat="45.78822" lon="6.51513">
        <ele>1491.9</ele>
        <time>2025-08-15T13:13:27Z</time>
      </trkpt>
      <trkpt lat="45.78822" lon="6.51513">
        <ele>1491.9</ele>
        <time>2025-08-15T13:13:28Z</time>
      </trkpt>
      <trkpt lat="45.78822" lon="6.51513">
        <ele>1491.9</ele>
        <time>2025-08-15T13:13:29Z</time>
      </trkpt>
      <trkpt lat="45.78822" lon="6.51514">
        <ele>1491.9</ele>
        <time>2025-08-15T13:13:30Z</time>
      </trkpt>
      <trkpt lat="45.78823" lon="6.51514">
        <ele>1491.9</ele>
        <time>2025-08-15T13:13:31Z</time>
      </trkpt>
      <trkpt lat="45.78823" lon="6.51514">
        <ele>1491.9</ele>
        <time>2025-08-15T13:13:32Z</time>
      </trkpt>
      <trkpt lat="45.78823" lon="6.51514">
        <ele>1491.9</ele>
        <time>2025-08-15T13:13:33Z</time>
      </trkpt>
      <trkpt lat="45.78823" lon="6.51515">
        <ele>1491.9</ele>
        <time>2025-08-15T13:14:02Z</time>
      </trkpt>
      <trkpt lat="45.78823" lon="6.51515">
        <ele>1491.9</ele>
        <time>2025-08-15T13:14:03Z</time>
      </trkpt>
      <trkpt lat="45.78823" lon="6.51515">
        <ele>1492</ele>
        <time>2025-08-15T13:14:04Z</time>
      </trkpt>
      <trkpt lat="45.78823" lon="6.51515">
        <ele>1492</ele>
        <time>2025-08-15T13:14:05Z</time>
      </trkpt>
      <trkpt lat="45.78824" lon="6.51516">
        <ele>1492</ele>
        <time>2025-08-15T13:14:06Z</time>
      </trkpt>
      <trkpt lat="45.78824" lon="6.51516">
        <ele>1492</ele>
        <time>2025-08-15T13:14:07Z</time>
      </trkpt>
      <trkpt lat="45.78824" lon="6.51516">
        <ele>1492</ele>
        <time>2025-08-15T13:14:08Z</time>
      </trkpt>
      <trkpt lat="45.78824" lon="6.51517">
        <ele>1492</ele>
        <time>2025-08-15T13:14:09Z</time>
      </trkpt>
      <trkpt lat="45.78824" lon="6.51517">
        <ele>1492</ele>
        <time>2025-08-15T13:14:10Z</time>
      </trkpt>
      <trkpt lat="45.78824" lon="6.51517">
        <ele>1492</ele>
        <time>2025-08-15T13:14:11Z</time>
      </trkpt>
      <trkpt lat="45.78824" lon="6.51517">
        <ele>1492</ele>
        <time>2025-08-15T13:14:39Z</time>
      </trkpt>
      <trkpt lat="45.78825" lon="6.51518">
        <ele>1492</ele>
        <time>2025-08-15T13:14:40Z</time>
      </trkpt>
      <trkpt lat="45.78824" lon="6.51521">
        <ele>1492.1</ele>
        <time>2025-08-15T13:14:41Z</time>
      </trkpt>
      <trkpt lat="45.78825" lon="6.51523">
        <ele>1492.1</ele>
        <time>2025-08-15T13:14:42Z</time>
      </trkpt>
      <trkpt lat="45.78829" lon="6.51527">
        <ele>1492.3</ele>
        <time>2025-08-15T13:14:43Z</time>
      </trkpt>
      <trkpt lat="45.78832" lon="6.5153">
        <ele>1492.1</ele>
        <time>2025-08-15T13:14:44Z</time>
      </trkpt>
      <trkpt lat="45.78836" lon="6.51532">
        <ele>1492</ele>
        <time>2025-08-15T13:14:45Z</time>
      </trkpt>
      <trkpt lat="45.7884" lon="6.51534">
        <ele>1491.9</ele>
        <time>2025-08-15T13:14:46Z</time>
      </trkpt>
      <trkpt lat="45.78844" lon="6.51536">
        <ele>1491.8</ele>
        <time>2025-08-15T13:14:47Z</time>
      </trkpt>
      <trkpt lat="45.78847" lon="6.51538">
        <ele>1491.7</ele>
        <time>2025-08-15T13:14:48Z</time>
      </trkpt>
      <trkpt lat="45.78851" lon="6.51538">
        <ele>1491.6</ele>
        <time>2025-08-15T13:14:49Z</time>
      </trkpt>
      <trkpt lat="45.78855" lon="6.5154">
        <ele>1491.4</ele>
        <time>2025-08-15T13:14:50Z</time>
      </trkpt>
      <trkpt lat="45.7886" lon="6.51543">
        <ele>1491.1</ele>
        <time>2025-08-15T13:14:51Z</time>
      </trkpt>
      <trkpt lat="45.78864" lon="6.51546">
        <ele>1490.8</ele>
        <time>2025-08-15T13:14:52Z</time>
      </trkpt>
      <trkpt lat="45.78869" lon="6.51548">
        <ele>1490.4</ele>
        <time>2025-08-15T13:14:53Z</time>
      </trkpt>
      <trkpt lat="45.78874" lon="6.51551">
        <ele>1489.8</ele>
        <time>2025-08-15T13:14:54Z</time>
      </trkpt>
      <trkpt lat="45.78881" lon="6.51553">
        <ele>1489.2</ele>
        <time>2025-08-15T13:14:55Z</time>
      </trkpt>
      <trkpt lat="45.78888" lon="6.51557">
        <ele>1488.6</ele>
        <time>2025-08-15T13:14:56Z</time>
      </trkpt>
      <trkpt lat="45.78894" lon="6.51561">
        <ele>1488</ele>
        <time>2025-08-15T13:14:57Z</time>
      </trkpt>
      <trkpt lat="45.78901" lon="6.51564">
        <ele>1487.4</ele>
        <time>2025-08-15T13:14:58Z</time>
      </trkpt>
      <trkpt lat="45.78908" lon="6.51568">
        <ele>1486.7</ele>
        <time>2025-08-15T13:14:59Z</time>
      </trkpt>
      <trkpt lat="45.78915" lon="6.51572">
        <ele>1486.2</ele>
        <time>2025-08-15T13:15:00Z</time>
      </trkpt>
      <trkpt lat="45.7892" lon="6.51577">
        <ele>1485.8</ele>
        <time>2025-08-15T13:15:01Z</time>
      </trkpt>
      <trkpt lat="45.78925" lon="6.51582">
        <ele>1485.5</ele>
        <time>2025-08-15T13:15:02Z</time>
      </trkpt>
      <trkpt lat="45.78929" lon="6.51589">
        <ele>1485</ele>
        <time>2025-08-15T13:15:03Z</time>
      </trkpt>
      <trkpt lat="45.78933" lon="6.51595">
        <ele>1484</ele>
        <time>2025-08-15T13:15:04Z</time>
      </trkpt>
      <trkpt lat="45.78936" lon="6.51599">
        <ele>1483.4</ele>
        <time>2025-08-15T13:15:05Z</time>
      </trkpt>
      <trkpt lat="45.78937" lon="6.51599">
        <ele>1483.1</ele>
        <time>2025-08-15T13:15:06Z</time>
      </trkpt>
      <trkpt lat="45.78939" lon="6.51598">
        <ele>1482.9</ele>
        <time>2025-08-15T13:15:07Z</time>
      </trkpt>
      <trkpt lat="45.78943" lon="6.51596">
        <ele>1482.2</ele>
        <time>2025-08-15T13:15:08Z</time>
      </trkpt>
      <trkpt lat="45.78948" lon="6.51596">
        <ele>1481.3</ele>
        <time>2025-08-15T13:15:09Z</time>
      </trkpt>
      <trkpt lat="45.78953" lon="6.51595">
        <ele>1480.4</ele>
        <time>2025-08-15T13:15:10Z</time>
      </trkpt>
      <trkpt lat="45.78959" lon="6.51593">
        <ele>1479.4</ele>
        <time>2025-08-15T13:15:11Z</time>
      </trkpt>
      <trkpt lat="45.78965" lon="6.51593">
        <ele>1478.3</ele>
        <time>2025-08-15T13:15:12Z</time>
      </trkpt>
      <trkpt lat="45.78971" lon="6.51592">
        <ele>1477.2</ele>
        <time>2025-08-15T13:15:13Z</time>
      </trkpt>
      <trkpt lat="45.78977" lon="6.51591">
        <ele>1476</ele>
        <time>2025-08-15T13:15:14Z</time>
      </trkpt>
      <trkpt lat="45.78984" lon="6.5159">
        <ele>1474.6</ele>
        <time>2025-08-15T13:15:15Z</time>
      </trkpt>
      <trkpt lat="45.7899" lon="6.51588">
        <ele>1473.3</ele>
        <time>2025-08-15T13:15:16Z</time>
      </trkpt>
      <trkpt lat="45.78996" lon="6.51585">
        <ele>1472</ele>
        <time>2025-08-15T13:15:17Z</time>
      </trkpt>
      <trkpt lat="45.79002" lon="6.51581">
        <ele>1470.6</ele>
        <time>2025-08-15T13:15:18Z</time>
      </trkpt>
      <trkpt lat="45.79008" lon="6.51579">
        <ele>1469.2</ele>
        <time>2025-08-15T13:15:19Z</time>
      </trkpt>
      <trkpt lat="45.79014" lon="6.51578">
        <ele>1467.7</ele>
        <time>2025-08-15T13:15:20Z</time>
      </trkpt>
      <trkpt lat="45.7902" lon="6.51579">
        <ele>1466.1</ele>
        <time>2025-08-15T13:15:21Z</time>
      </trkpt>
      <trkpt lat="45.79024" lon="6.5158">
        <ele>1464.9</ele>
        <time>2025-08-15T13:15:22Z</time>
      </trkpt>
      <trkpt lat="45.79028" lon="6.51581">
        <ele>1463.9</ele>
        <time>2025-08-15T13:15:23Z</time>
      </trkpt>
      <trkpt lat="45.79031" lon="6.51584">
        <ele>1463.1</ele>
        <time>2025-08-15T13:15:24Z</time>
      </trkpt>
      <trkpt lat="45.79033" lon="6.51587">
        <ele>1462.4</ele>
        <time>2025-08-15T13:15:25Z</time>
      </trkpt>
      <trkpt lat="45.79034" lon="6.51592">
        <ele>1461.5</ele>
        <time>2025-08-15T13:15:26Z</time>
      </trkpt>
      <trkpt lat="45.79034" lon="6.51598">
        <ele>1460.5</ele>
        <time>2025-08-15T13:15:27Z</time>
      </trkpt>
      <trkpt lat="45.79034" lon="6.51602">
        <ele>1459.9</ele>
        <time>2025-08-15T13:15:28Z</time>
      </trkpt>
      <trkpt lat="45.79036" lon="6.51606">
        <ele>1458.9</ele>
        <time>2025-08-15T13:15:29Z</time>
      </trkpt>
      <trkpt lat="45.79037" lon="6.51608">
        <ele>1458.6</ele>
        <time>2025-08-15T13:15:30Z</time>
      </trkpt>
      <trkpt lat="45.7904" lon="6.51609">
        <ele>1457.7</ele>
        <time>2025-08-15T13:15:31Z</time>
      </trkpt>
      <trkpt lat="45.79043" lon="6.51607">
        <ele>1456.7</ele>
        <time>2025-08-15T13:15:32Z</time>
      </trkpt>
      <trkpt lat="45.79047" lon="6.51604">
        <ele>1455.5</ele>
        <time>2025-08-15T13:15:33Z</time>
      </trkpt>
      <trkpt lat="45.7905" lon="6.516">
        <ele>1454.3</ele>
        <time>2025-08-15T13:15:34Z</time>
      </trkpt>
      <trkpt lat="45.79052" lon="6.51595">
        <ele>1453.2</ele>
        <time>2025-08-15T13:15:35Z</time>
      </trkpt>
      <trkpt lat="45.79054" lon="6.51592">
        <ele>1452.2</ele>
        <time>2025-08-15T13:15:36Z</time>
      </trkpt>
      <trkpt lat="45.79057" lon="6.51588">
        <ele>1451.8</ele>
        <time>2025-08-15T13:15:37Z</time>
      </trkpt>
      <trkpt lat="45.79059" lon="6.51583">
        <ele>1451.5</ele>
        <time>2025-08-15T13:15:38Z</time>
      </trkpt>
      <trkpt lat="45.7906" lon="6.51578">
        <ele>1451.1</ele>
        <time>2025-08-15T13:15:39Z</time>
      </trkpt>
      <trkpt lat="45.79062" lon="6.51573">
        <ele>1450.7</ele>
        <time>2025-08-15T13:15:40Z</time>
      </trkpt>
      <trkpt lat="45.79063" lon="6.51567">
        <ele>1450.3</ele>
        <time>2025-08-15T13:15:41Z</time>
      </trkpt>
      <trkpt lat="45.79063" lon="6.51562">
        <ele>1450</ele>
        <time>2025-08-15T13:15:42Z</time>
      </trkpt>
      <trkpt lat="45.79062" lon="6.51558">
        <ele>1449.8</ele>
        <time>2025-08-15T13:15:43Z</time>
      </trkpt>
      <trkpt lat="45.79062" lon="6.51552">
        <ele>1449.4</ele>
        <time>2025-08-15T13:15:44Z</time>
      </trkpt>
      <trkpt lat="45.7906" lon="6.51546">
        <ele>1449</ele>
        <time>2025-08-15T13:15:45Z</time>
      </trkpt>
      <trkpt lat="45.79059" lon="6.51542">
        <ele>1448.6</ele>
        <time>2025-08-15T13:15:46Z</time>
      </trkpt>
      <trkpt lat="45.79057" lon="6.51537">
        <ele>1448.1</ele>
        <time>2025-08-15T13:15:47Z</time>
      </trkpt>
      <trkpt lat="45.79055" lon="6.51532">
        <ele>1447.6</ele>
        <time>2025-08-15T13:15:48Z</time>
      </trkpt>
      <trkpt lat="45.79053" lon="6.51526">
        <ele>1447.1</ele>
        <time>2025-08-15T13:15:49Z</time>
      </trkpt>
      <trkpt lat="45.7905" lon="6.51521">
        <ele>1446.5</ele>
        <time>2025-08-15T13:15:50Z</time>
      </trkpt>
      <trkpt lat="45.79048" lon="6.51515">
        <ele>1445.9</ele>
        <time>2025-08-15T13:15:51Z</time>
      </trkpt>
      <trkpt lat="45.79045" lon="6.5151">
        <ele>1445.4</ele>
        <time>2025-08-15T13:15:52Z</time>
      </trkpt>
      <trkpt lat="45.79042" lon="6.51504">
        <ele>1444.9</ele>
        <time>2025-08-15T13:15:53Z</time>
      </trkpt>
      <trkpt lat="45.79039" lon="6.51498">
        <ele>1444.3</ele>
        <time>2025-08-15T13:15:54Z</time>
      </trkpt>
      <trkpt lat="45.79036" lon="6.51492">
        <ele>1443.7</ele>
        <time>2025-08-15T13:15:55Z</time>
      </trkpt>
      <trkpt lat="45.79033" lon="6.51486">
        <ele>1443</ele>
        <time>2025-08-15T13:15:56Z</time>
      </trkpt>
      <trkpt lat="45.7903" lon="6.5148">
        <ele>1442.4</ele>
        <time>2025-08-15T13:15:57Z</time>
      </trkpt>
      <trkpt lat="45.79027" lon="6.51474">
        <ele>1441.7</ele>
        <time>2025-08-15T13:15:58Z</time>
      </trkpt>
      <trkpt lat="45.79025" lon="6.51467">
        <ele>1441.1</ele>
        <time>2025-08-15T13:15:59Z</time>
      </trkpt>
      <trkpt lat="45.79023" lon="6.51461">
        <ele>1440.6</ele>
        <time>2025-08-15T13:16:00Z</time>
      </trkpt>
      <trkpt lat="45.7902" lon="6.51455">
        <ele>1440.1</ele>
        <time>2025-08-15T13:16:01Z</time>
      </trkpt>
      <trkpt lat="45.79018" lon="6.51448">
        <ele>1439.7</ele>
        <time>2025-08-15T13:16:02Z</time>
      </trkpt>
      <trkpt lat="45.79015" lon="6.51442">
        <ele>1439.2</ele>
        <time>2025-08-15T13:16:03Z</time>
      </trkpt>
      <trkpt lat="45.79014" lon="6.51436">
        <ele>1438.8</ele>
        <time>2025-08-15T13:16:04Z</time>
      </trkpt>
      <trkpt lat="45.79014" lon="6.51428">
        <ele>1438.4</ele>
        <time>2025-08-15T13:16:05Z</time>
      </trkpt>
      <trkpt lat="45.79014" lon="6.51422">
        <ele>1438</ele>
        <time>2025-08-15T13:16:06Z</time>
      </trkpt>
      <trkpt lat="45.79015" lon="6.51415">
        <ele>1437.6</ele>
        <time>2025-08-15T13:16:07Z</time>
      </trkpt>
      <trkpt lat="45.79017" lon="6.51409">
        <ele>1437.3</ele>
        <time>2025-08-15T13:16:08Z</time>
      </trkpt>
      <trkpt lat="45.79018" lon="6.51405">
        <ele>1437.1</ele>
        <time>2025-08-15T13:16:09Z</time>
      </trkpt>
      <trkpt lat="45.7902" lon="6.51404">
        <ele>1436.9</ele>
        <time>2025-08-15T13:16:10Z</time>
      </trkpt>
      <trkpt lat="45.79021" lon="6.51402">
        <ele>1436.7</ele>
        <time>2025-08-15T13:16:11Z</time>
      </trkpt>
      <trkpt lat="45.79022" lon="6.514">
        <ele>1436.6</ele>
        <time>2025-08-15T13:16:12Z</time>
      </trkpt>
      <trkpt lat="45.79023" lon="6.514">
        <ele>1436.5</ele>
        <time>2025-08-15T13:16:13Z</time>
      </trkpt>
      <trkpt lat="45.79023" lon="6.51399">
        <ele>1436.5</ele>
        <time>2025-08-15T13:16:14Z</time>
      </trkpt>
      <trkpt lat="45.79023" lon="6.51398">
        <ele>1436.4</ele>
        <time>2025-08-15T13:16:15Z</time>
      </trkpt>
      <trkpt lat="45.79023" lon="6.51398">
        <ele>1436.4</ele>
        <time>2025-08-15T13:16:16Z</time>
      </trkpt>
      <trkpt lat="45.79023" lon="6.51397">
        <ele>1436.3</ele>
        <time>2025-08-15T13:16:17Z</time>
      </trkpt>
      <trkpt lat="45.79023" lon="6.51397">
        <ele>1436.3</ele>
        <time>2025-08-15T13:16:18Z</time>
      </trkpt>
      <trkpt lat="45.79023" lon="6.51396">
        <ele>1436.2</ele>
        <time>2025-08-15T13:16:19Z</time>
      </trkpt>
      <trkpt lat="45.79023" lon="6.51395">
        <ele>1436.1</ele>
        <time>2025-08-15T13:16:20Z</time>
      </trkpt>
      <trkpt lat="45.79024" lon="6.51395">
        <ele>1436</ele>
        <time>2025-08-15T13:16:21Z</time>
      </trkpt>
      <trkpt lat="45.79024" lon="6.51394">
        <ele>1435.9</ele>
        <time>2025-08-15T13:16:22Z</time>
      </trkpt>
      <trkpt lat="45.79024" lon="6.51393">
        <ele>1435.9</ele>
        <time>2025-08-15T13:16:37Z</time>
      </trkpt>
      <trkpt lat="45.79024" lon="6.51393">
        <ele>1435.8</ele>
        <time>2025-08-15T13:16:38Z</time>
      </trkpt>
      <trkpt lat="45.79023" lon="6.51389">
        <ele>1435.2</ele>
        <time>2025-08-15T13:16:39Z</time>
      </trkpt>
      <trkpt lat="45.79022" lon="6.51387">
        <ele>1435</ele>
        <time>2025-08-15T13:16:40Z</time>
      </trkpt>
      <trkpt lat="45.7902" lon="6.51385">
        <ele>1434.5</ele>
        <time>2025-08-15T13:16:41Z</time>
      </trkpt>
      <trkpt lat="45.79017" lon="6.51383">
        <ele>1434</ele>
        <time>2025-08-15T13:16:42Z</time>
      </trkpt>
      <trkpt lat="45.79014" lon="6.51381">
        <ele>1433.3</ele>
        <time>2025-08-15T13:16:43Z</time>
      </trkpt>
      <trkpt lat="45.79011" lon="6.5138">
        <ele>1432.9</ele>
        <time>2025-08-15T13:16:44Z</time>
      </trkpt>
      <trkpt lat="45.79008" lon="6.51379">
        <ele>1433.4</ele>
        <time>2025-08-15T13:16:45Z</time>
      </trkpt>
      <trkpt lat="45.79005" lon="6.5138">
        <ele>1433.9</ele>
        <time>2025-08-15T13:16:46Z</time>
      </trkpt>
      <trkpt lat="45.79004" lon="6.51381">
        <ele>1434.1</ele>
        <time>2025-08-15T13:16:47Z</time>
      </trkpt>
      <trkpt lat="45.79003" lon="6.51386">
        <ele>1434.7</ele>
        <time>2025-08-15T13:16:48Z</time>
      </trkpt>
      <trkpt lat="45.79003" lon="6.51388">
        <ele>1434.9</ele>
        <time>2025-08-15T13:16:49Z</time>
      </trkpt>
      <trkpt lat="45.79005" lon="6.51392">
        <ele>1435.4</ele>
        <time>2025-08-15T13:16:50Z</time>
      </trkpt>
      <trkpt lat="45.79005" lon="6.51393">
        <ele>1435.6</ele>
        <time>2025-08-15T13:16:51Z</time>
      </trkpt>
      <trkpt lat="45.79007" lon="6.51394">
        <ele>1436</ele>
        <time>2025-08-15T13:16:52Z</time>
      </trkpt>
      <trkpt lat="45.79008" lon="6.51395">
        <ele>1436.1</ele>
        <time>2025-08-15T13:16:53Z</time>
      </trkpt>
      <trkpt lat="45.79009" lon="6.51396">
        <ele>1436.3</ele>
        <time>2025-08-15T13:16:54Z</time>
      </trkpt>
      <trkpt lat="45.7901" lon="6.51398">
        <ele>1436.5</ele>
        <time>2025-08-15T13:16:55Z</time>
      </trkpt>
      <trkpt lat="45.7901" lon="6.51399">
        <ele>1436.6</ele>
        <time>2025-08-15T13:16:56Z</time>
      </trkpt>
      <trkpt lat="45.79012" lon="6.51402">
        <ele>1436.8</ele>
        <time>2025-08-15T13:16:57Z</time>
      </trkpt>
      <trkpt lat="45.79012" lon="6.51404">
        <ele>1436.9</ele>
        <time>2025-08-15T13:16:58Z</time>
      </trkpt>
      <trkpt lat="45.79012" lon="6.51407">
        <ele>1437.1</ele>
        <time>2025-08-15T13:16:59Z</time>
      </trkpt>
      <trkpt lat="45.79011" lon="6.51409">
        <ele>1437.2</ele>
        <time>2025-08-15T13:17:00Z</time>
      </trkpt>
      <trkpt lat="45.79011" lon="6.51412">
        <ele>1437.4</ele>
        <time>2025-08-15T13:17:01Z</time>
      </trkpt>
      <trkpt lat="45.79011" lon="6.51414">
        <ele>1437.5</ele>
        <time>2025-08-15T13:17:02Z</time>
      </trkpt>
      <trkpt lat="45.79011" lon="6.51416">
        <ele>1437.6</ele>
        <time>2025-08-15T13:17:03Z</time>
      </trkpt>
      <trkpt lat="45.79011" lon="6.51419">
        <ele>1437.8</ele>
        <time>2025-08-15T13:17:04Z</time>
      </trkpt>
      <trkpt lat="45.79011" lon="6.51422">
        <ele>1437.9</ele>
        <time>2025-08-15T13:17:05Z</time>
      </trkpt>
      <trkpt lat="45.79011" lon="6.51423">
        <ele>1438</ele>
        <time>2025-08-15T13:17:06Z</time>
      </trkpt>
      <trkpt lat="45.79011" lon="6.51424">
        <ele>1438</ele>
        <time>2025-08-15T13:17:07Z</time>
      </trkpt>
      <trkpt lat="45.79011" lon="6.51426">
        <ele>1438.2</ele>
        <time>2025-08-15T13:17:08Z</time>
      </trkpt>
      <trkpt lat="45.79012" lon="6.51429">
        <ele>1438.3</ele>
        <time>2025-08-15T13:17:09Z</time>
      </trkpt>
      <trkpt lat="45.79012" lon="6.51431">
        <ele>1438.5</ele>
        <time>2025-08-15T13:17:10Z</time>
      </trkpt>
      <trkpt lat="45.79012" lon="6.51433">
        <ele>1438.6</ele>
        <time>2025-08-15T13:17:11Z</time>
      </trkpt>
      <trkpt lat="45.79012" lon="6.51435">
        <ele>1438.7</ele>
        <time>2025-08-15T13:17:12Z</time>
      </trkpt>
      <trkpt lat="45.79013" lon="6.51437">
        <ele>1438.8</ele>
        <time>2025-08-15T13:17:13Z</time>
      </trkpt>
      <trkpt lat="45.79015" lon="6.51439">
        <ele>1439</ele>
        <time>2025-08-15T13:17:14Z</time>
      </trkpt>
      <trkpt lat="45.79016" lon="6.5144">
        <ele>1439.1</ele>
        <time>2025-08-15T13:17:15Z</time>
      </trkpt>
      <trkpt lat="45.79017" lon="6.51442">
        <ele>1439.3</ele>
        <time>2025-08-15T13:17:16Z</time>
      </trkpt>
      <trkpt lat="45.79017" lon="6.51444">
        <ele>1439.4</ele>
        <time>2025-08-15T13:17:17Z</time>
      </trkpt>
      <trkpt lat="45.79018" lon="6.51446">
        <ele>1439.5</ele>
        <time>2025-08-15T13:17:18Z</time>
      </trkpt>
      <trkpt lat="45.79019" lon="6.51448">
        <ele>1439.7</ele>
        <time>2025-08-15T13:17:19Z</time>
      </trkpt>
      <trkpt lat="45.79019" lon="6.51451">
        <ele>1439.9</ele>
        <time>2025-08-15T13:17:20Z</time>
      </trkpt>
      <trkpt lat="45.7902" lon="6.51453">
        <ele>1440</ele>
        <time>2025-08-15T13:17:21Z</time>
      </trkpt>
      <trkpt lat="45.7902" lon="6.51454">
        <ele>1440</ele>
        <time>2025-08-15T13:17:22Z</time>
      </trkpt>
      <trkpt lat="45.79021" lon="6.51458">
        <ele>1440.3</ele>
        <time>2025-08-15T13:17:23Z</time>
      </trkpt>
      <trkpt lat="45.79021" lon="6.51459">
        <ele>1440.4</ele>
        <time>2025-08-15T13:17:24Z</time>
      </trkpt>
      <trkpt lat="45.79023" lon="6.51463">
        <ele>1440.7</ele>
        <time>2025-08-15T13:17:25Z</time>
      </trkpt>
      <trkpt lat="45.79023" lon="6.51464">
        <ele>1440.8</ele>
        <time>2025-08-15T13:17:26Z</time>
      </trkpt>
      <trkpt lat="45.79025" lon="6.51468">
        <ele>1441.1</ele>
        <time>2025-08-15T13:17:27Z</time>
      </trkpt>
      <trkpt lat="45.79025" lon="6.51469">
        <ele>1441.3</ele>
        <time>2025-08-15T13:17:28Z</time>
      </trkpt>
      <trkpt lat="45.79027" lon="6.51473">
        <ele>1441.6</ele>
        <time>2025-08-15T13:17:29Z</time>
      </trkpt>
      <trkpt lat="45.79028" lon="6.51475">
        <ele>1441.8</ele>
        <time>2025-08-15T13:17:30Z</time>
      </trkpt>
      <trkpt lat="45.79029" lon="6.51479">
        <ele>1442.2</ele>
        <time>2025-08-15T13:17:31Z</time>
      </trkpt>
      <trkpt lat="45.7903" lon="6.51481">
        <ele>1442.3</ele>
        <time>2025-08-15T13:17:32Z</time>
      </trkpt>
      <trkpt lat="45.79032" lon="6.51485">
        <ele>1442.8</ele>
        <time>2025-08-15T13:17:33Z</time>
      </trkpt>
      <trkpt lat="45.79033" lon="6.51486">
        <ele>1443</ele>
        <time>2025-08-15T13:17:34Z</time>
      </trkpt>
      <trkpt lat="45.79035" lon="6.5149">
        <ele>1443.4</ele>
        <time>2025-08-15T13:17:35Z</time>
      </trkpt>
      <trkpt lat="45.79035" lon="6.51491">
        <ele>1443.6</ele>
        <time>2025-08-15T13:17:36Z</time>
      </trkpt>
      <trkpt lat="45.79036" lon="6.51494">
        <ele>1443.8</ele>
        <time>2025-08-15T13:17:37Z</time>
      </trkpt>
      <trkpt lat="45.79037" lon="6.51495">
        <ele>1444</ele>
        <time>2025-08-15T13:17:38Z</time>
      </trkpt>
      <trkpt lat="45.79039" lon="6.51499">
        <ele>1444.4</ele>
        <time>2025-08-15T13:17:39Z</time>
      </trkpt>
      <trkpt lat="45.7904" lon="6.515">
        <ele>1444.5</ele>
        <time>2025-08-15T13:17:40Z</time>
      </trkpt>
      <trkpt lat="45.79042" lon="6.51503">
        <ele>1444.8</ele>
        <time>2025-08-15T13:17:41Z</time>
      </trkpt>
      <trkpt lat="45.79042" lon="6.51505">
        <ele>1444.9</ele>
        <time>2025-08-15T13:17:42Z</time>
      </trkpt>
      <trkpt lat="45.79044" lon="6.51508">
        <ele>1445.2</ele>
        <time>2025-08-15T13:17:43Z</time>
      </trkpt>
      <trkpt lat="45.79045" lon="6.51509">
        <ele>1445.4</ele>
        <time>2025-08-15T13:17:44Z</time>
      </trkpt>
      <trkpt lat="45.79046" lon="6.51513">
        <ele>1445.7</ele>
        <time>2025-08-15T13:17:45Z</time>
      </trkpt>
      <trkpt lat="45.79047" lon="6.51514">
        <ele>1445.8</ele>
        <time>2025-08-15T13:17:46Z</time>
      </trkpt>
      <trkpt lat="45.79047" lon="6.51516">
        <ele>1446</ele>
        <time>2025-08-15T13:17:47Z</time>
      </trkpt>
      <trkpt lat="45.79048" lon="6.51518">
        <ele>1446.2</ele>
        <time>2025-08-15T13:17:48Z</time>
      </trkpt>
      <trkpt lat="45.79049" lon="6.5152">
        <ele>1446.4</ele>
        <time>2025-08-15T13:17:49Z</time>
      </trkpt>
      <trkpt lat="45.7905" lon="6.51522">
        <ele>1446.6</ele>
        <time>2025-08-15T13:17:50Z</time>
      </trkpt>
      <trkpt lat="45.79052" lon="6.51525">
        <ele>1447</ele>
        <time>2025-08-15T13:17:51Z</time>
      </trkpt>
      <trkpt lat="45.79052" lon="6.51526">
        <ele>1447.1</ele>
        <time>2025-08-15T13:17:52Z</time>
      </trkpt>
      <trkpt lat="45.79054" lon="6.5153">
        <ele>1447.5</ele>
        <time>2025-08-15T13:17:53Z</time>
      </trkpt>
      <trkpt lat="45.79054" lon="6.51531">
        <ele>1447.6</ele>
        <time>2025-08-15T13:17:54Z</time>
      </trkpt>
      <trkpt lat="45.79056" lon="6.51535">
        <ele>1448</ele>
        <time>2025-08-15T13:17:55Z</time>
      </trkpt>
      <trkpt lat="45.79056" lon="6.51536">
        <ele>1448.1</ele>
        <time>2025-08-15T13:17:56Z</time>
      </trkpt>
      <trkpt lat="45.79058" lon="6.51539">
        <ele>1448.5</ele>
        <time>2025-08-15T13:17:57Z</time>
      </trkpt>
      <trkpt lat="45.79059" lon="6.51541">
        <ele>1448.6</ele>
        <time>2025-08-15T13:17:58Z</time>
      </trkpt>
      <trkpt lat="45.7906" lon="6.51543">
        <ele>1448.7</ele>
        <time>2025-08-15T13:17:59Z</time>
      </trkpt>
      <trkpt lat="45.79061" lon="6.51545">
        <ele>1448.9</ele>
        <time>2025-08-15T13:18:00Z</time>
      </trkpt>
      <trkpt lat="45.79062" lon="6.51547">
        <ele>1449.1</ele>
        <time>2025-08-15T13:18:01Z</time>
      </trkpt>
      <trkpt lat="45.79062" lon="6.51549">
        <ele>1449.3</ele>
        <time>2025-08-15T13:18:02Z</time>
      </trkpt>
      <trkpt lat="45.79062" lon="6.51552">
        <ele>1449.5</ele>
        <time>2025-08-15T13:18:03Z</time>
      </trkpt>
      <trkpt lat="45.79062" lon="6.51554">
        <ele>1449.6</ele>
        <time>2025-08-15T13:18:04Z</time>
      </trkpt>
      <trkpt lat="45.79063" lon="6.51556">
        <ele>1449.8</ele>
        <time>2025-08-15T13:18:05Z</time>
      </trkpt>
      <trkpt lat="45.79063" lon="6.51558">
        <ele>1449.9</ele>
        <time>2025-08-15T13:18:06Z</time>
      </trkpt>
      <trkpt lat="45.79063" lon="6.5156">
        <ele>1450</ele>
        <time>2025-08-15T13:18:07Z</time>
      </trkpt>
      <trkpt lat="45.79063" lon="6.51562">
        <ele>1450.1</ele>
        <time>2025-08-15T13:18:08Z</time>
      </trkpt>
      <trkpt lat="45.79062" lon="6.51564">
        <ele>1450.3</ele>
        <time>2025-08-15T13:18:09Z</time>
      </trkpt>
      <trkpt lat="45.79062" lon="6.51567">
        <ele>1450.5</ele>
        <time>2025-08-15T13:18:10Z</time>
      </trkpt>
      <trkpt lat="45.79061" lon="6.5157">
        <ele>1450.6</ele>
        <time>2025-08-15T13:18:11Z</time>
      </trkpt>
      <trkpt lat="45.79061" lon="6.51572">
        <ele>1450.8</ele>
        <time>2025-08-15T13:18:12Z</time>
      </trkpt>
      <trkpt lat="45.7906" lon="6.51576">
        <ele>1451.1</ele>
        <time>2025-08-15T13:18:13Z</time>
      </trkpt>
      <trkpt lat="45.79059" lon="6.51577">
        <ele>1451.2</ele>
        <time>2025-08-15T13:18:14Z</time>
      </trkpt>
      <trkpt lat="45.79058" lon="6.51579">
        <ele>1451.3</ele>
        <time>2025-08-15T13:18:15Z</time>
      </trkpt>
      <trkpt lat="45.79057" lon="6.5158">
        <ele>1451.5</ele>
        <time>2025-08-15T13:18:16Z</time>
      </trkpt>
      <trkpt lat="45.79056" lon="6.51583">
        <ele>1451.7</ele>
        <time>2025-08-15T13:18:17Z</time>
      </trkpt>
      <trkpt lat="45.79056" lon="6.51584">
        <ele>1451.7</ele>
        <time>2025-08-15T13:18:18Z</time>
      </trkpt>
      <trkpt lat="45.79058" lon="6.51589">
        <ele>1452.1</ele>
        <time>2025-08-15T13:18:19Z</time>
      </trkpt>
      <trkpt lat="45.79059" lon="6.5159">
        <ele>1452.2</ele>
        <time>2025-08-15T13:18:20Z</time>
      </trkpt>
      <trkpt lat="45.7906" lon="6.51594">
        <ele>1452.5</ele>
        <time>2025-08-15T13:18:21Z</time>
      </trkpt>
      <trkpt lat="45.79061" lon="6.51601">
        <ele>1452.8</ele>
        <time>2025-08-15T13:18:22Z</time>
      </trkpt>
      <trkpt lat="45.79064" lon="6.51608">
        <ele>1453.2</ele>
        <time>2025-08-15T13:18:24Z</time>
      </trkpt>
      <trkpt lat="45.79067" lon="6.51617">
        <ele>1453.7</ele>
        <time>2025-08-15T13:18:25Z</time>
      </trkpt>
      <trkpt lat="45.79071" lon="6.51622">
        <ele>1453.9</ele>
        <time>2025-08-15T13:18:26Z</time>
      </trkpt>
      <trkpt lat="45.79076" lon="6.51624">
        <ele>1453.7</ele>
        <time>2025-08-15T13:18:27Z</time>
      </trkpt>
      <trkpt lat="45.7908" lon="6.51627">
        <ele>1453.5</ele>
        <time>2025-08-15T13:18:28Z</time>
      </trkpt>
      <trkpt lat="45.79083" lon="6.5163">
        <ele>1453.1</ele>
        <time>2025-08-15T13:18:29Z</time>
      </trkpt>
      <trkpt lat="45.79086" lon="6.51631">
        <ele>1452.9</ele>
        <time>2025-08-15T13:18:30Z</time>
      </trkpt>
      <trkpt lat="45.79089" lon="6.51633">
        <ele>1452.6</ele>
        <time>2025-08-15T13:18:31Z</time>
      </trkpt>
      <trkpt lat="45.7909" lon="6.51633">
        <ele>1452.5</ele>
        <time>2025-08-15T13:18:32Z</time>
      </trkpt>
      <trkpt lat="45.79093" lon="6.51633">
        <ele>1451.2</ele>
        <time>2025-08-15T13:18:33Z</time>
      </trkpt>
      <trkpt lat="45.79097" lon="6.51632">
        <ele>1449.8</ele>
        <time>2025-08-15T13:18:34Z</time>
      </trkpt>
      <trkpt lat="45.79098" lon="6.51631">
        <ele>1449.4</ele>
        <time>2025-08-15T13:18:35Z</time>
      </trkpt>
      <trkpt lat="45.791" lon="6.5163">
        <ele>1448.8</ele>
        <time>2025-08-15T13:18:36Z</time>
      </trkpt>
      <trkpt lat="45.791" lon="6.5163">
        <ele>1448.7</ele>
        <time>2025-08-15T13:18:37Z</time>
      </trkpt>
      <trkpt lat="45.791" lon="6.5163">
        <ele>1448.5</ele>
        <time>2025-08-15T13:18:38Z</time>
      </trkpt>
      <trkpt lat="45.79101" lon="6.51629">
        <ele>1448.4</ele>
        <time>2025-08-15T13:18:39Z</time>
      </trkpt>
      <trkpt lat="45.79101" lon="6.51629">
        <ele>1448.3</ele>
        <time>2025-08-15T13:18:40Z</time>
      </trkpt>
      <trkpt lat="45.79101" lon="6.51629">
        <ele>1448.2</ele>
        <time>2025-08-15T13:18:41Z</time>
      </trkpt>
      <trkpt lat="45.79102" lon="6.51629">
        <ele>1448</ele>
        <time>2025-08-15T13:18:42Z</time>
      </trkpt>
      <trkpt lat="45.79102" lon="6.51629">
        <ele>1447.9</ele>
        <time>2025-08-15T13:18:43Z</time>
      </trkpt>
      <trkpt lat="45.79102" lon="6.51629">
        <ele>1447.8</ele>
        <time>2025-08-15T13:18:44Z</time>
      </trkpt>
      <trkpt lat="45.79106" lon="6.51626">
        <ele>1446.4</ele>
        <time>2025-08-15T13:18:45Z</time>
      </trkpt>
      <trkpt lat="45.79111" lon="6.51625">
        <ele>1444.6</ele>
        <time>2025-08-15T13:18:46Z</time>
      </trkpt>
      <trkpt lat="45.79116" lon="6.51631">
        <ele>1442.1</ele>
        <time>2025-08-15T13:18:47Z</time>
      </trkpt>
      <trkpt lat="45.79124" lon="6.51638">
        <ele>1439.1</ele>
        <time>2025-08-15T13:18:48Z</time>
      </trkpt>
      <trkpt lat="45.7913" lon="6.51643">
        <ele>1436.7</ele>
        <time>2025-08-15T13:18:49Z</time>
      </trkpt>
      <trkpt lat="45.79135" lon="6.51647">
        <ele>1434.9</ele>
        <time>2025-08-15T13:18:50Z</time>
      </trkpt>
      <trkpt lat="45.79139" lon="6.5165">
        <ele>1433.5</ele>
        <time>2025-08-15T13:18:51Z</time>
      </trkpt>
      <trkpt lat="45.79143" lon="6.51653">
        <ele>1432.2</ele>
        <time>2025-08-15T13:18:52Z</time>
      </trkpt>
      <trkpt lat="45.79146" lon="6.51655">
        <ele>1431.3</ele>
        <time>2025-08-15T13:18:53Z</time>
      </trkpt>
      <trkpt lat="45.79148" lon="6.51657">
        <ele>1430.5</ele>
        <time>2025-08-15T13:18:54Z</time>
      </trkpt>
      <trkpt lat="45.79148" lon="6.51657">
        <ele>1430.4</ele>
        <time>2025-08-15T13:18:55Z</time>
      </trkpt>
      <trkpt lat="45.79149" lon="6.51657">
        <ele>1430.2</ele>
        <time>2025-08-15T13:18:56Z</time>
      </trkpt>
      <trkpt lat="45.7915" lon="6.51657">
        <ele>1430</ele>
        <time>2025-08-15T13:18:57Z</time>
      </trkpt>
      <trkpt lat="45.7915" lon="6.51657">
        <ele>1429.8</ele>
        <time>2025-08-15T13:18:58Z</time>
      </trkpt>
      <trkpt lat="45.79151" lon="6.51657">
        <ele>1429.6</ele>
        <time>2025-08-15T13:18:59Z</time>
      </trkpt>
      <trkpt lat="45.79152" lon="6.51657">
        <ele>1429.4</ele>
        <time>2025-08-15T13:19:00Z</time>
      </trkpt>
      <trkpt lat="45.79152" lon="6.51657">
        <ele>1429.3</ele>
        <time>2025-08-15T13:19:01Z</time>
      </trkpt>
      <trkpt lat="45.79153" lon="6.51657">
        <ele>1429.1</ele>
        <time>2025-08-15T13:19:02Z</time>
      </trkpt>
      <trkpt lat="45.79154" lon="6.51657">
        <ele>1428.9</ele>
        <time>2025-08-15T13:19:03Z</time>
      </trkpt>
      <trkpt lat="45.79154" lon="6.51657">
        <ele>1428.7</ele>
        <time>2025-08-15T13:19:04Z</time>
      </trkpt>
      <trkpt lat="45.79155" lon="6.51657">
        <ele>1428.5</ele>
        <time>2025-08-15T13:20:12Z</time>
      </trkpt>
      <trkpt lat="45.79156" lon="6.51657">
        <ele>1428.3</ele>
        <time>2025-08-15T13:20:13Z</time>
      </trkpt>
      <trkpt lat="45.79158" lon="6.51659">
        <ele>1427.6</ele>
        <time>2025-08-15T13:20:14Z</time>
      </trkpt>
      <trkpt lat="45.79161" lon="6.51661">
        <ele>1426.7</ele>
        <time>2025-08-15T13:20:15Z</time>
      </trkpt>
      <trkpt lat="45.79162" lon="6.51661">
        <ele>1426.4</ele>
        <time>2025-08-15T13:20:16Z</time>
      </trkpt>
      <trkpt lat="45.79163" lon="6.51663">
        <ele>1425.9</ele>
        <time>2025-08-15T13:20:17Z</time>
      </trkpt>
      <trkpt lat="45.79164" lon="6.51663">
        <ele>1425.8</ele>
        <time>2025-08-15T13:20:18Z</time>
      </trkpt>
      <trkpt lat="45.79164" lon="6.51664">
        <ele>1425.6</ele>
        <time>2025-08-15T13:20:19Z</time>
      </trkpt>
      <trkpt lat="45.79165" lon="6.51664">
        <ele>1425.5</ele>
        <time>2025-08-15T13:20:20Z</time>
      </trkpt>
      <trkpt lat="45.79165" lon="6.51664">
        <ele>1425.3</ele>
        <time>2025-08-15T13:20:21Z</time>
      </trkpt>
      <trkpt lat="45.79166" lon="6.51665">
        <ele>1425.2</ele>
        <time>2025-08-15T13:20:22Z</time>
      </trkpt>
      <trkpt lat="45.79166" lon="6.51665">
        <ele>1425</ele>
        <time>2025-08-15T13:20:23Z</time>
      </trkpt>
      <trkpt lat="45.79166" lon="6.51666">
        <ele>1424.9</ele>
        <time>2025-08-15T13:20:24Z</time>
      </trkpt>
      <trkpt lat="45.79167" lon="6.51666">
        <ele>1424.7</ele>
        <time>2025-08-15T13:20:25Z</time>
      </trkpt>
      <trkpt lat="45.79167" lon="6.51666">
        <ele>1424.6</ele>
        <time>2025-08-15T13:20:26Z</time>
      </trkpt>
      <trkpt lat="45.79168" lon="6.51667">
        <ele>1424.4</ele>
        <time>2025-08-15T13:20:27Z</time>
      </trkpt>
      <trkpt lat="45.79168" lon="6.51667">
        <ele>1424.3</ele>
        <time>2025-08-15T13:21:12Z</time>
      </trkpt>
      <trkpt lat="45.79169" lon="6.51668">
        <ele>1424.2</ele>
        <time>2025-08-15T13:21:13Z</time>
      </trkpt>
      <trkpt lat="45.7917" lon="6.51665">
        <ele>1423.5</ele>
        <time>2025-08-15T13:21:14Z</time>
      </trkpt>
      <trkpt lat="45.79171" lon="6.51665">
        <ele>1423</ele>
        <time>2025-08-15T13:21:15Z</time>
      </trkpt>
      <trkpt lat="45.79172" lon="6.51667">
        <ele>1422.4</ele>
        <time>2025-08-15T13:21:16Z</time>
      </trkpt>
      <trkpt lat="45.79172" lon="6.51668">
        <ele>1422.4</ele>
        <time>2025-08-15T13:21:17Z</time>
      </trkpt>
      <trkpt lat="45.79172" lon="6.51667">
        <ele>1422.3</ele>
        <time>2025-08-15T13:21:18Z</time>
      </trkpt>
      <trkpt lat="45.79172" lon="6.51667">
        <ele>1422.2</ele>
        <time>2025-08-15T13:21:19Z</time>
      </trkpt>
      <trkpt lat="45.79172" lon="6.51667">
        <ele>1422.1</ele>
        <time>2025-08-15T13:21:20Z</time>
      </trkpt>
      <trkpt lat="45.79172" lon="6.51667">
        <ele>1422.1</ele>
        <time>2025-08-15T13:21:21Z</time>
      </trkpt>
      <trkpt lat="45.79172" lon="6.51667">
        <ele>1422.1</ele>
        <time>2025-08-15T13:21:22Z</time>
      </trkpt>
      <trkpt lat="45.79172" lon="6.51667">
        <ele>1422.1</ele>
        <time>2025-08-15T13:21:23Z</time>
      </trkpt>
      <trkpt lat="45.79172" lon="6.51667">
        <ele>1422.1</ele>
        <time>2025-08-15T13:21:24Z</time>
      </trkpt>
      <trkpt lat="45.79172" lon="6.51667">
        <ele>1422.1</ele>
        <time>2025-08-15T13:21:25Z</time>
      </trkpt>
      <trkpt lat="45.79172" lon="6.51667">
        <ele>1422</ele>
        <time>2025-08-15T13:21:26Z</time>
      </trkpt>
      <trkpt lat="45.79178" lon="6.5164">
        <ele>1415.4</ele>
        <time>2025-08-15T13:21:41Z</time>
      </trkpt>
      <trkpt lat="45.79178" lon="6.51634">
        <ele>1415.1</ele>
        <time>2025-08-15T13:21:42Z</time>
      </trkpt>
      <trkpt lat="45.79177" lon="6.51629">
        <ele>1414.7</ele>
        <time>2025-08-15T13:21:43Z</time>
      </trkpt>
      <trkpt lat="45.79177" lon="6.51624">
        <ele>1414.3</ele>
        <time>2025-08-15T13:21:44Z</time>
      </trkpt>
      <trkpt lat="45.79178" lon="6.5162">
        <ele>1414</ele>
        <time>2025-08-15T13:21:45Z</time>
      </trkpt>
      <trkpt lat="45.79181" lon="6.51619">
        <ele>1413.8</ele>
        <time>2025-08-15T13:21:46Z</time>
      </trkpt>
      <trkpt lat="45.79185" lon="6.51621">
        <ele>1413.6</ele>
        <time>2025-08-15T13:21:47Z</time>
      </trkpt>
      <trkpt lat="45.79186" lon="6.51626">
        <ele>1413.5</ele>
        <time>2025-08-15T13:21:48Z</time>
      </trkpt>
      <trkpt lat="45.79187" lon="6.5163">
        <ele>1413.5</ele>
        <time>2025-08-15T13:21:49Z</time>
      </trkpt>
      <trkpt lat="45.79188" lon="6.51633">
        <ele>1413.4</ele>
        <time>2025-08-15T13:21:50Z</time>
      </trkpt>
      <trkpt lat="45.79188" lon="6.51634">
        <ele>1413.4</ele>
        <time>2025-08-15T13:21:51Z</time>
      </trkpt>
      <trkpt lat="45.79188" lon="6.51635">
        <ele>1413.4</ele>
        <time>2025-08-15T13:21:52Z</time>
      </trkpt>
      <trkpt lat="45.79189" lon="6.51637">
        <ele>1413.3</ele>
        <time>2025-08-15T13:21:53Z</time>
      </trkpt>
      <trkpt lat="45.79188" lon="6.51637">
        <ele>1413.3</ele>
        <time>2025-08-15T13:21:54Z</time>
      </trkpt>
      <trkpt lat="45.79189" lon="6.51639">
        <ele>1413.2</ele>
        <time>2025-08-15T13:21:55Z</time>
      </trkpt>
      <trkpt lat="45.7919" lon="6.51643">
        <ele>1413</ele>
        <time>2025-08-15T13:21:56Z</time>
      </trkpt>
      <trkpt lat="45.7919" lon="6.51644">
        <ele>1412.9</ele>
        <time>2025-08-15T13:21:57Z</time>
      </trkpt>
      <trkpt lat="45.79192" lon="6.51648">
        <ele>1412.6</ele>
        <time>2025-08-15T13:21:58Z</time>
      </trkpt>
      <trkpt lat="45.79195" lon="6.5165">
        <ele>1412.2</ele>
        <time>2025-08-15T13:21:59Z</time>
      </trkpt>
      <trkpt lat="45.79197" lon="6.51654">
        <ele>1411.7</ele>
        <time>2025-08-15T13:22:00Z</time>
      </trkpt>
      <trkpt lat="45.792" lon="6.51658">
        <ele>1411.2</ele>
        <time>2025-08-15T13:22:01Z</time>
      </trkpt>
      <trkpt lat="45.79202" lon="6.51661">
        <ele>1410.7</ele>
        <time>2025-08-15T13:22:02Z</time>
      </trkpt>
      <trkpt lat="45.79204" lon="6.51664">
        <ele>1410.2</ele>
        <time>2025-08-15T13:22:03Z</time>
      </trkpt>
      <trkpt lat="45.79205" lon="6.51664">
        <ele>1410.1</ele>
        <time>2025-08-15T13:22:04Z</time>
      </trkpt>
      <trkpt lat="45.79207" lon="6.51666">
        <ele>1409.7</ele>
        <time>2025-08-15T13:22:05Z</time>
      </trkpt>
      <trkpt lat="45.79209" lon="6.51667">
        <ele>1409.5</ele>
        <time>2025-08-15T13:22:06Z</time>
      </trkpt>
      <trkpt lat="45.79212" lon="6.51667">
        <ele>1409</ele>
        <time>2025-08-15T13:22:07Z</time>
      </trkpt>
      <trkpt lat="45.79213" lon="6.51666">
        <ele>1408.8</ele>
        <time>2025-08-15T13:22:08Z</time>
      </trkpt>
      <trkpt lat="45.79215" lon="6.51665">
        <ele>1408.2</ele>
        <time>2025-08-15T13:22:09Z</time>
      </trkpt>
      <trkpt lat="45.79216" lon="6.51664">
        <ele>1408</ele>
        <time>2025-08-15T13:22:10Z</time>
      </trkpt>
      <trkpt lat="45.79219" lon="6.51661">
        <ele>1407.3</ele>
        <time>2025-08-15T13:22:11Z</time>
      </trkpt>
      <trkpt lat="45.7922" lon="6.5166">
        <ele>1407</ele>
        <time>2025-08-15T13:22:12Z</time>
      </trkpt>
      <trkpt lat="45.79224" lon="6.51659">
        <ele>1406.2</ele>
        <time>2025-08-15T13:22:13Z</time>
      </trkpt>
      <trkpt lat="45.79225" lon="6.51659">
        <ele>1406</ele>
        <time>2025-08-15T13:22:14Z</time>
      </trkpt>
      <trkpt lat="45.79228" lon="6.51659">
        <ele>1405.2</ele>
        <time>2025-08-15T13:22:15Z</time>
      </trkpt>
      <trkpt lat="45.79229" lon="6.51659">
        <ele>1404.9</ele>
        <time>2025-08-15T13:22:16Z</time>
      </trkpt>
      <trkpt lat="45.79231" lon="6.5166">
        <ele>1404.3</ele>
        <time>2025-08-15T13:22:17Z</time>
      </trkpt>
      <trkpt lat="45.79233" lon="6.51659">
        <ele>1403.9</ele>
        <time>2025-08-15T13:22:18Z</time>
      </trkpt>
      <trkpt lat="45.79234" lon="6.51659">
        <ele>1403.5</ele>
        <time>2025-08-15T13:22:19Z</time>
      </trkpt>
      <trkpt lat="45.79236" lon="6.51658">
        <ele>1403</ele>
        <time>2025-08-15T13:22:20Z</time>
      </trkpt>
      <trkpt lat="45.79239" lon="6.5166">
        <ele>1402.2</ele>
        <time>2025-08-15T13:22:21Z</time>
      </trkpt>
      <trkpt lat="45.79243" lon="6.5166">
        <ele>1401.2</ele>
        <time>2025-08-15T13:22:22Z</time>
      </trkpt>
      <trkpt lat="45.79244" lon="6.51661">
        <ele>1400.8</ele>
        <time>2025-08-15T13:22:23Z</time>
      </trkpt>
      <trkpt lat="45.79244" lon="6.5166">
        <ele>1400.7</ele>
        <time>2025-08-15T13:22:24Z</time>
      </trkpt>
      <trkpt lat="45.79245" lon="6.5166">
        <ele>1400.5</ele>
        <time>2025-08-15T13:22:25Z</time>
      </trkpt>
      <trkpt lat="45.79247" lon="6.51659">
        <ele>1399.9</ele>
        <time>2025-08-15T13:22:26Z</time>
      </trkpt>
      <trkpt lat="45.7925" lon="6.51659">
        <ele>1399.1</ele>
        <time>2025-08-15T13:22:27Z</time>
      </trkpt>
      <trkpt lat="45.79251" lon="6.51658">
        <ele>1398.8</ele>
        <time>2025-08-15T13:22:28Z</time>
      </trkpt>
      <trkpt lat="45.79253" lon="6.51658">
        <ele>1398.4</ele>
        <time>2025-08-15T13:22:29Z</time>
      </trkpt>
      <trkpt lat="45.79255" lon="6.51656">
        <ele>1397.7</ele>
        <time>2025-08-15T13:22:30Z</time>
      </trkpt>
      <trkpt lat="45.79259" lon="6.51655">
        <ele>1396.6</ele>
        <time>2025-08-15T13:22:31Z</time>
      </trkpt>
      <trkpt lat="45.79261" lon="6.51655">
        <ele>1396.1</ele>
        <time>2025-08-15T13:22:32Z</time>
      </trkpt>
      <trkpt lat="45.79264" lon="6.51654">
        <ele>1395.4</ele>
        <time>2025-08-15T13:22:33Z</time>
      </trkpt>
      <trkpt lat="45.79265" lon="6.51654">
        <ele>1395.1</ele>
        <time>2025-08-15T13:22:34Z</time>
      </trkpt>
      <trkpt lat="45.79268" lon="6.51651">
        <ele>1394.3</ele>
        <time>2025-08-15T13:22:36Z</time>
      </trkpt>
      <trkpt lat="45.7927" lon="6.51649">
        <ele>1393.7</ele>
        <time>2025-08-15T13:22:37Z</time>
      </trkpt>
      <trkpt lat="45.79273" lon="6.51647">
        <ele>1393.1</ele>
        <time>2025-08-15T13:22:38Z</time>
      </trkpt>
      <trkpt lat="45.79275" lon="6.51645">
        <ele>1392.4</ele>
        <time>2025-08-15T13:22:39Z</time>
      </trkpt>
      <trkpt lat="45.79277" lon="6.51641">
        <ele>1391.8</ele>
        <time>2025-08-15T13:22:40Z</time>
      </trkpt>
      <trkpt lat="45.79278" lon="6.51635">
        <ele>1390.9</ele>
        <time>2025-08-15T13:22:41Z</time>
      </trkpt>
      <trkpt lat="45.79277" lon="6.5163">
        <ele>1390.2</ele>
        <time>2025-08-15T13:22:42Z</time>
      </trkpt>
      <trkpt lat="45.79277" lon="6.51623">
        <ele>1389.1</ele>
        <time>2025-08-15T13:22:43Z</time>
      </trkpt>
      <trkpt lat="45.79275" lon="6.51616">
        <ele>1388</ele>
        <time>2025-08-15T13:22:44Z</time>
      </trkpt>
      <trkpt lat="45.79271" lon="6.51608">
        <ele>1386.3</ele>
        <time>2025-08-15T13:22:45Z</time>
      </trkpt>
      <trkpt lat="45.79266" lon="6.51598">
        <ele>1384.6</ele>
        <time>2025-08-15T13:22:46Z</time>
      </trkpt>
      <trkpt lat="45.79263" lon="6.5159">
        <ele>1383.5</ele>
        <time>2025-08-15T13:22:47Z</time>
      </trkpt>
      <trkpt lat="45.79262" lon="6.51582">
        <ele>1382.5</ele>
        <time>2025-08-15T13:22:48Z</time>
      </trkpt>
      <trkpt lat="45.79264" lon="6.51574">
        <ele>1381.4</ele>
        <time>2025-08-15T13:22:49Z</time>
      </trkpt>
      <trkpt lat="45.79266" lon="6.51564">
        <ele>1379.7</ele>
        <time>2025-08-15T13:22:50Z</time>
      </trkpt>
      <trkpt lat="45.79271" lon="6.51557">
        <ele>1378</ele>
        <time>2025-08-15T13:22:51Z</time>
      </trkpt>
      <trkpt lat="45.79273" lon="6.51548">
        <ele>1376.3</ele>
        <time>2025-08-15T13:22:52Z</time>
      </trkpt>
      <trkpt lat="45.79275" lon="6.51538">
        <ele>1374.5</ele>
        <time>2025-08-15T13:22:53Z</time>
      </trkpt>
      <trkpt lat="45.7928" lon="6.5153">
        <ele>1372.5</ele>
        <time>2025-08-15T13:22:54Z</time>
      </trkpt>
      <trkpt lat="45.79295" lon="6.51517">
        <ele>1368.8</ele>
        <time>2025-08-15T13:22:55Z</time>
      </trkpt>
      <trkpt lat="45.79301" lon="6.51515">
        <ele>1367.5</ele>
        <time>2025-08-15T13:22:56Z</time>
      </trkpt>
      <trkpt lat="45.79308" lon="6.51512">
        <ele>1366</ele>
        <time>2025-08-15T13:22:57Z</time>
      </trkpt>
      <trkpt lat="45.79315" lon="6.51508">
        <ele>1364.6</ele>
        <time>2025-08-15T13:22:58Z</time>
      </trkpt>
      <trkpt lat="45.79323" lon="6.51503">
        <ele>1363.2</ele>
        <time>2025-08-15T13:22:59Z</time>
      </trkpt>
      <trkpt lat="45.79328" lon="6.51495">
        <ele>1362</ele>
        <time>2025-08-15T13:23:00Z</time>
      </trkpt>
      <trkpt lat="45.79332" lon="6.51485">
        <ele>1360.6</ele>
        <time>2025-08-15T13:23:01Z</time>
      </trkpt>
      <trkpt lat="45.79335" lon="6.51474">
        <ele>1359.1</ele>
        <time>2025-08-15T13:23:02Z</time>
      </trkpt>
      <trkpt lat="45.79338" lon="6.51463">
        <ele>1357.7</ele>
        <time>2025-08-15T13:23:03Z</time>
      </trkpt>
      <trkpt lat="45.79341" lon="6.51454">
        <ele>1356.4</ele>
        <time>2025-08-15T13:23:04Z</time>
      </trkpt>
      <trkpt lat="45.79344" lon="6.51447">
        <ele>1355.3</ele>
        <time>2025-08-15T13:23:05Z</time>
      </trkpt>
      <trkpt lat="45.79347" lon="6.5144">
        <ele>1354.4</ele>
        <time>2025-08-15T13:23:06Z</time>
      </trkpt>
      <trkpt lat="45.79348" lon="6.51435">
        <ele>1353.7</ele>
        <time>2025-08-15T13:23:07Z</time>
      </trkpt>
      <trkpt lat="45.79348" lon="6.5143">
        <ele>1353.2</ele>
        <time>2025-08-15T13:23:08Z</time>
      </trkpt>
      <trkpt lat="45.79348" lon="6.51425">
        <ele>1352.7</ele>
        <time>2025-08-15T13:23:09Z</time>
      </trkpt>
      <trkpt lat="45.79347" lon="6.51422">
        <ele>1352.2</ele>
        <time>2025-08-15T13:23:10Z</time>
      </trkpt>
      <trkpt lat="45.79347" lon="6.51419">
        <ele>1352</ele>
        <time>2025-08-15T13:23:11Z</time>
      </trkpt>
      <trkpt lat="45.79347" lon="6.51419">
        <ele>1351.9</ele>
        <time>2025-08-15T13:23:12Z</time>
      </trkpt>
      <trkpt lat="45.79347" lon="6.5142">
        <ele>1351.7</ele>
        <time>2025-08-15T13:23:13Z</time>
      </trkpt>
      <trkpt lat="45.79347" lon="6.5142">
        <ele>1351.7</ele>
        <time>2025-08-15T13:23:14Z</time>
      </trkpt>
      <trkpt lat="45.79346" lon="6.51418">
        <ele>1351.5</ele>
        <time>2025-08-15T13:23:15Z</time>
      </trkpt>
      <trkpt lat="45.79346" lon="6.51418">
        <ele>1351.5</ele>
        <time>2025-08-15T13:23:16Z</time>
      </trkpt>
      <trkpt lat="45.79347" lon="6.51418">
        <ele>1351.5</ele>
        <time>2025-08-15T13:23:17Z</time>
      </trkpt>
      <trkpt lat="45.79347" lon="6.51419">
        <ele>1351.5</ele>
        <time>2025-08-15T13:23:18Z</time>
      </trkpt>
      <trkpt lat="45.79347" lon="6.5142">
        <ele>1351.5</ele>
        <time>2025-08-15T13:23:19Z</time>
      </trkpt>
      <trkpt lat="45.79347" lon="6.51421">
        <ele>1351.6</ele>
        <time>2025-08-15T13:23:20Z</time>
      </trkpt>
      <trkpt lat="45.79347" lon="6.51422">
        <ele>1351.6</ele>
        <time>2025-08-15T13:23:21Z</time>
      </trkpt>
      <trkpt lat="45.79348" lon="6.51422">
        <ele>1351.6</ele>
        <time>2025-08-15T13:23:22Z</time>
      </trkpt>
      <trkpt lat="45.79348" lon="6.51423">
        <ele>1351.6</ele>
        <time>2025-08-15T13:23:23Z</time>
      </trkpt>
      <trkpt lat="45.79348" lon="6.51424">
        <ele>1351.6</ele>
        <time>2025-08-15T13:23:24Z</time>
      </trkpt>
      <trkpt lat="45.79348" lon="6.51425">
        <ele>1351.7</ele>
        <time>2025-08-15T13:23:25Z</time>
      </trkpt>
      <trkpt lat="45.79348" lon="6.51426">
        <ele>1351.7</ele>
        <time>2025-08-15T13:23:26Z</time>
      </trkpt>
      <trkpt lat="45.79348" lon="6.51426">
        <ele>1351.7</ele>
        <time>2025-08-15T13:23:27Z</time>
      </trkpt>
      <trkpt lat="45.79349" lon="6.51427">
        <ele>1351.7</ele>
        <time>2025-08-15T13:23:28Z</time>
      </trkpt>
      <trkpt lat="45.79349" lon="6.51428">
        <ele>1351.8</ele>
        <time>2025-08-15T13:23:35Z</time>
      </trkpt>
      <trkpt lat="45.79349" lon="6.51429">
        <ele>1351.8</ele>
        <time>2025-08-15T13:23:36Z</time>
      </trkpt>
      <trkpt lat="45.7935" lon="6.51431">
        <ele>1351.8</ele>
        <time>2025-08-15T13:23:37Z</time>
      </trkpt>
      <trkpt lat="45.7935" lon="6.51432">
        <ele>1351.9</ele>
        <time>2025-08-15T13:23:38Z</time>
      </trkpt>
      <trkpt lat="45.79351" lon="6.51433">
        <ele>1351.9</ele>
        <time>2025-08-15T13:23:39Z</time>
      </trkpt>
      <trkpt lat="45.79351" lon="6.51435">
        <ele>1352</ele>
        <time>2025-08-15T13:23:40Z</time>
      </trkpt>
      <trkpt lat="45.7935" lon="6.51437">
        <ele>1352</ele>
        <time>2025-08-15T13:23:41Z</time>
      </trkpt>
      <trkpt lat="45.7935" lon="6.51439">
        <ele>1352.1</ele>
        <time>2025-08-15T13:23:42Z</time>
      </trkpt>
      <trkpt lat="45.79349" lon="6.51442">
        <ele>1352.2</ele>
        <time>2025-08-15T13:23:43Z</time>
      </trkpt>
      <trkpt lat="45.79348" lon="6.51441">
        <ele>1352.1</ele>
        <time>2025-08-15T13:23:44Z</time>
      </trkpt>
      <trkpt lat="45.79349" lon="6.51441">
        <ele>1352.1</ele>
        <time>2025-08-15T13:23:45Z</time>
      </trkpt>
      <trkpt lat="45.79349" lon="6.51441">
        <ele>1352.1</ele>
        <time>2025-08-15T13:23:46Z</time>
      </trkpt>
      <trkpt lat="45.79349" lon="6.51441">
        <ele>1352.1</ele>
        <time>2025-08-15T13:23:47Z</time>
      </trkpt>
      <trkpt lat="45.79349" lon="6.51441">
        <ele>1352.1</ele>
        <time>2025-08-15T13:23:48Z</time>
      </trkpt>
      <trkpt lat="45.79349" lon="6.51441">
        <ele>1352.1</ele>
        <time>2025-08-15T13:23:49Z</time>
      </trkpt>
      <trkpt lat="45.79349" lon="6.51441">
        <ele>1352.1</ele>
        <time>2025-08-15T13:23:50Z</time>
      </trkpt>
      <trkpt lat="45.79349" lon="6.5144">
        <ele>1352</ele>
        <time>2025-08-15T13:23:51Z</time>
      </trkpt>
      <trkpt lat="45.79349" lon="6.5144">
        <ele>1352</ele>
        <time>2025-08-15T13:23:52Z</time>
      </trkpt>
      <trkpt lat="45.79349" lon="6.5144">
        <ele>1352</ele>
        <time>2025-08-15T13:23:53Z</time>
      </trkpt>
      <trkpt lat="45.79349" lon="6.51439">
        <ele>1352</ele>
        <time>2025-08-15T13:23:54Z</time>
      </trkpt>
      <trkpt lat="45.7935" lon="6.51423">
        <ele>1351.7</ele>
        <time>2025-08-15T13:24:02Z</time>
      </trkpt>
      <trkpt lat="45.79351" lon="6.5142">
        <ele>1351.3</ele>
        <time>2025-08-15T13:24:03Z</time>
      </trkpt>
      <trkpt lat="45.7935" lon="6.51418">
        <ele>1350.9</ele>
        <time>2025-08-15T13:24:04Z</time>
      </trkpt>
      <trkpt lat="45.79349" lon="6.51417">
        <ele>1350.7</ele>
        <time>2025-08-15T13:24:05Z</time>
      </trkpt>
      <trkpt lat="45.79349" lon="6.51416">
        <ele>1350.5</ele>
        <time>2025-08-15T13:24:06Z</time>
      </trkpt>
      <trkpt lat="45.79349" lon="6.51414">
        <ele>1350.4</ele>
        <time>2025-08-15T13:24:07Z</time>
      </trkpt>
      <trkpt lat="45.79349" lon="6.51413">
        <ele>1350.2</ele>
        <time>2025-08-15T13:24:08Z</time>
      </trkpt>
      <trkpt lat="45.79349" lon="6.51412">
        <ele>1350</ele>
        <time>2025-08-15T13:24:09Z</time>
      </trkpt>
      <trkpt lat="45.79349" lon="6.51411">
        <ele>1349.9</ele>
        <time>2025-08-15T13:24:10Z</time>
      </trkpt>
      <trkpt lat="45.7935" lon="6.5141">
        <ele>1349.7</ele>
        <time>2025-08-15T13:24:11Z</time>
      </trkpt>
      <trkpt lat="45.7935" lon="6.51409">
        <ele>1349.6</ele>
        <time>2025-08-15T13:24:12Z</time>
      </trkpt>
      <trkpt lat="45.7935" lon="6.51407">
        <ele>1349.4</ele>
        <time>2025-08-15T13:24:13Z</time>
      </trkpt>
      <trkpt lat="45.7935" lon="6.51406">
        <ele>1349.3</ele>
        <time>2025-08-15T13:24:14Z</time>
      </trkpt>
      <trkpt lat="45.7935" lon="6.51405">
        <ele>1349.1</ele>
        <time>2025-08-15T13:24:15Z</time>
      </trkpt>
      <trkpt lat="45.79351" lon="6.51404">
        <ele>1348.9</ele>
        <time>2025-08-15T13:24:16Z</time>
      </trkpt>
      <trkpt lat="45.79351" lon="6.51403">
        <ele>1348.8</ele>
        <time>2025-08-15T13:24:17Z</time>
      </trkpt>
      <trkpt lat="45.79351" lon="6.51402">
        <ele>1348.6</ele>
        <time>2025-08-15T13:25:07Z</time>
      </trkpt>
      <trkpt lat="45.79351" lon="6.51401">
        <ele>1348.5</ele>
        <time>2025-08-15T13:25:08Z</time>
      </trkpt>
      <trkpt lat="45.79352" lon="6.51394">
        <ele>1347.6</ele>
        <time>2025-08-15T13:25:09Z</time>
      </trkpt>
      <trkpt lat="45.79352" lon="6.5139">
        <ele>1347.2</ele>
        <time>2025-08-15T13:25:10Z</time>
      </trkpt>
      <trkpt lat="45.79352" lon="6.51389">
        <ele>1347</ele>
        <time>2025-08-15T13:25:11Z</time>
      </trkpt>
      <trkpt lat="45.79351" lon="6.51388">
        <ele>1346.8</ele>
        <time>2025-08-15T13:25:12Z</time>
      </trkpt>
      <trkpt lat="45.79351" lon="6.51387">
        <ele>1346.7</ele>
        <time>2025-08-15T13:25:13Z</time>
      </trkpt>
      <trkpt lat="45.79351" lon="6.51386">
        <ele>1346.6</ele>
        <time>2025-08-15T13:25:14Z</time>
      </trkpt>
      <trkpt lat="45.79351" lon="6.51385">
        <ele>1346.5</ele>
        <time>2025-08-15T13:25:15Z</time>
      </trkpt>
      <trkpt lat="45.79351" lon="6.51384">
        <ele>1346.4</ele>
        <time>2025-08-15T13:25:16Z</time>
      </trkpt>
      <trkpt lat="45.79351" lon="6.51383">
        <ele>1346.2</ele>
        <time>2025-08-15T13:25:17Z</time>
      </trkpt>
      <trkpt lat="45.79351" lon="6.51382">
        <ele>1346.1</ele>
        <time>2025-08-15T13:25:18Z</time>
      </trkpt>
      <trkpt lat="45.79351" lon="6.51381">
        <ele>1346</ele>
        <time>2025-08-15T13:25:19Z</time>
      </trkpt>
      <trkpt lat="45.79349" lon="6.51377">
        <ele>1345.4</ele>
        <time>2025-08-15T13:25:20Z</time>
      </trkpt>
      <trkpt lat="45.79346" lon="6.51373">
        <ele>1345.1</ele>
        <time>2025-08-15T13:25:21Z</time>
      </trkpt>
      <trkpt lat="45.79344" lon="6.51368">
        <ele>1344.8</ele>
        <time>2025-08-15T13:25:22Z</time>
      </trkpt>
      <trkpt lat="45.79341" lon="6.51365">
        <ele>1344.6</ele>
        <time>2025-08-15T13:25:23Z</time>
      </trkpt>
      <trkpt lat="45.79338" lon="6.51362">
        <ele>1344.3</ele>
        <time>2025-08-15T13:25:24Z</time>
      </trkpt>
      <trkpt lat="45.79335" lon="6.51358">
        <ele>1344.1</ele>
        <time>2025-08-15T13:25:25Z</time>
      </trkpt>
      <trkpt lat="45.79332" lon="6.51353">
        <ele>1343.8</ele>
        <time>2025-08-15T13:25:26Z</time>
      </trkpt>
      <trkpt lat="45.7933" lon="6.51347">
        <ele>1343.6</ele>
        <time>2025-08-15T13:25:27Z</time>
      </trkpt>
      <trkpt lat="45.79328" lon="6.5134">
        <ele>1343.3</ele>
        <time>2025-08-15T13:25:28Z</time>
      </trkpt>
      <trkpt lat="45.79327" lon="6.51335">
        <ele>1343.1</ele>
        <time>2025-08-15T13:25:29Z</time>
      </trkpt>
      <trkpt lat="45.79325" lon="6.5133">
        <ele>1343</ele>
        <time>2025-08-15T13:25:30Z</time>
      </trkpt>
      <trkpt lat="45.79324" lon="6.51325">
        <ele>1342.8</ele>
        <time>2025-08-15T13:25:31Z</time>
      </trkpt>
      <trkpt lat="45.79322" lon="6.51319">
        <ele>1342.6</ele>
        <time>2025-08-15T13:25:32Z</time>
      </trkpt>
      <trkpt lat="45.7932" lon="6.51314">
        <ele>1342.5</ele>
        <time>2025-08-15T13:25:33Z</time>
      </trkpt>
      <trkpt lat="45.79318" lon="6.51309">
        <ele>1342.3</ele>
        <time>2025-08-15T13:25:34Z</time>
      </trkpt>
      <trkpt lat="45.79316" lon="6.51304">
        <ele>1342.1</ele>
        <time>2025-08-15T13:25:35Z</time>
      </trkpt>
      <trkpt lat="45.79312" lon="6.513">
        <ele>1341.9</ele>
        <time>2025-08-15T13:25:36Z</time>
      </trkpt>
      <trkpt lat="45.79309" lon="6.51296">
        <ele>1341.7</ele>
        <time>2025-08-15T13:25:37Z</time>
      </trkpt>
      <trkpt lat="45.79306" lon="6.51291">
        <ele>1341.5</ele>
        <time>2025-08-15T13:25:38Z</time>
      </trkpt>
      <trkpt lat="45.79302" lon="6.51287">
        <ele>1341.3</ele>
        <time>2025-08-15T13:25:39Z</time>
      </trkpt>
      <trkpt lat="45.79298" lon="6.51283">
        <ele>1341.1</ele>
        <time>2025-08-15T13:25:40Z</time>
      </trkpt>
      <trkpt lat="45.79294" lon="6.51279">
        <ele>1340.9</ele>
        <time>2025-08-15T13:25:41Z</time>
      </trkpt>
      <trkpt lat="45.7929" lon="6.51274">
        <ele>1340.6</ele>
        <time>2025-08-15T13:25:42Z</time>
      </trkpt>
      <trkpt lat="45.79286" lon="6.5127">
        <ele>1340.5</ele>
        <time>2025-08-15T13:25:43Z</time>
      </trkpt>
      <trkpt lat="45.79282" lon="6.51265">
        <ele>1340.3</ele>
        <time>2025-08-15T13:25:44Z</time>
      </trkpt>
      <trkpt lat="45.79278" lon="6.51261">
        <ele>1340.2</ele>
        <time>2025-08-15T13:25:45Z</time>
      </trkpt>
      <trkpt lat="45.79274" lon="6.51256">
        <ele>1340</ele>
        <time>2025-08-15T13:25:46Z</time>
      </trkpt>
      <trkpt lat="45.7927" lon="6.51251">
        <ele>1339.9</ele>
        <time>2025-08-15T13:25:47Z</time>
      </trkpt>
      <trkpt lat="45.79266" lon="6.51248">
        <ele>1339.9</ele>
        <time>2025-08-15T13:25:48Z</time>
      </trkpt>
      <trkpt lat="45.79262" lon="6.51243">
        <ele>1339.8</ele>
        <time>2025-08-15T13:25:49Z</time>
      </trkpt>
      <trkpt lat="45.79259" lon="6.51239">
        <ele>1339.7</ele>
        <time>2025-08-15T13:25:50Z</time>
      </trkpt>
      <trkpt lat="45.79255" lon="6.51235">
        <ele>1339.6</ele>
        <time>2025-08-15T13:25:51Z</time>
      </trkpt>
      <trkpt lat="45.79251" lon="6.51232">
        <ele>1339.6</ele>
        <time>2025-08-15T13:25:52Z</time>
      </trkpt>
      <trkpt lat="45.79248" lon="6.51228">
        <ele>1339.5</ele>
        <time>2025-08-15T13:25:53Z</time>
      </trkpt>
      <trkpt lat="45.79244" lon="6.51225">
        <ele>1339.4</ele>
        <time>2025-08-15T13:25:54Z</time>
      </trkpt>
      <trkpt lat="45.7924" lon="6.51221">
        <ele>1339.4</ele>
        <time>2025-08-15T13:25:55Z</time>
      </trkpt>
      <trkpt lat="45.79237" lon="6.51217">
        <ele>1339.4</ele>
        <time>2025-08-15T13:25:56Z</time>
      </trkpt>
      <trkpt lat="45.79233" lon="6.51213">
        <ele>1339.4</ele>
        <time>2025-08-15T13:25:57Z</time>
      </trkpt>
      <trkpt lat="45.7923" lon="6.5121">
        <ele>1339.4</ele>
        <time>2025-08-15T13:25:58Z</time>
      </trkpt>
      <trkpt lat="45.79228" lon="6.51205">
        <ele>1339.4</ele>
        <time>2025-08-15T13:25:59Z</time>
      </trkpt>
      <trkpt lat="45.79225" lon="6.51201">
        <ele>1339.4</ele>
        <time>2025-08-15T13:26:00Z</time>
      </trkpt>
      <trkpt lat="45.79224" lon="6.51195">
        <ele>1339.4</ele>
        <time>2025-08-15T13:26:01Z</time>
      </trkpt>
      <trkpt lat="45.79223" lon="6.51189">
        <ele>1339.4</ele>
        <time>2025-08-15T13:26:02Z</time>
      </trkpt>
      <trkpt lat="45.79222" lon="6.51183">
        <ele>1339.4</ele>
        <time>2025-08-15T13:26:03Z</time>
      </trkpt>
      <trkpt lat="45.79221" lon="6.51177">
        <ele>1339.4</ele>
        <time>2025-08-15T13:26:04Z</time>
      </trkpt>
      <trkpt lat="45.7922" lon="6.51171">
        <ele>1339.4</ele>
        <time>2025-08-15T13:26:05Z</time>
      </trkpt>
      <trkpt lat="45.79219" lon="6.51166">
        <ele>1339.5</ele>
        <time>2025-08-15T13:26:06Z</time>
      </trkpt>
      <trkpt lat="45.79217" lon="6.51161">
        <ele>1339.5</ele>
        <time>2025-08-15T13:26:07Z</time>
      </trkpt>
      <trkpt lat="45.79215" lon="6.51156">
        <ele>1339.5</ele>
        <time>2025-08-15T13:26:08Z</time>
      </trkpt>
      <trkpt lat="45.79213" lon="6.51152">
        <ele>1339.6</ele>
        <time>2025-08-15T13:26:09Z</time>
      </trkpt>
      <trkpt lat="45.79211" lon="6.51147">
        <ele>1339.7</ele>
        <time>2025-08-15T13:26:10Z</time>
      </trkpt>
      <trkpt lat="45.79209" lon="6.51143">
        <ele>1339.7</ele>
        <time>2025-08-15T13:26:11Z</time>
      </trkpt>
      <trkpt lat="45.79206" lon="6.51139">
        <ele>1339.8</ele>
        <time>2025-08-15T13:26:12Z</time>
      </trkpt>
      <trkpt lat="45.79204" lon="6.51136">
        <ele>1339.9</ele>
        <time>2025-08-15T13:26:13Z</time>
      </trkpt>
      <trkpt lat="45.79201" lon="6.51132">
        <ele>1339.9</ele>
        <time>2025-08-15T13:26:14Z</time>
      </trkpt>
      <trkpt lat="45.79198" lon="6.51128">
        <ele>1340</ele>
        <time>2025-08-15T13:26:15Z</time>
      </trkpt>
      <trkpt lat="45.79196" lon="6.51125">
        <ele>1340.1</ele>
        <time>2025-08-15T13:26:16Z</time>
      </trkpt>
      <trkpt lat="45.79193" lon="6.51121">
        <ele>1340.2</ele>
        <time>2025-08-15T13:26:17Z</time>
      </trkpt>
      <trkpt lat="45.79191" lon="6.51117">
        <ele>1340.2</ele>
        <time>2025-08-15T13:26:18Z</time>
      </trkpt>
      <trkpt lat="45.79188" lon="6.51114">
        <ele>1340.3</ele>
        <time>2025-08-15T13:26:19Z</time>
      </trkpt>
      <trkpt lat="45.79185" lon="6.51111">
        <ele>1340.4</ele>
        <time>2025-08-15T13:26:20Z</time>
      </trkpt>
      <trkpt lat="45.79182" lon="6.51108">
        <ele>1340.4</ele>
        <time>2025-08-15T13:26:21Z</time>
      </trkpt>
      <trkpt lat="45.7918" lon="6.51106">
        <ele>1340.5</ele>
        <time>2025-08-15T13:26:22Z</time>
      </trkpt>
      <trkpt lat="45.79177" lon="6.51102">
        <ele>1340.6</ele>
        <time>2025-08-15T13:26:23Z</time>
      </trkpt>
      <trkpt lat="45.79175" lon="6.51099">
        <ele>1340.6</ele>
        <time>2025-08-15T13:26:24Z</time>
      </trkpt>
      <trkpt lat="45.79172" lon="6.51097">
        <ele>1340.7</ele>
        <time>2025-08-15T13:26:25Z</time>
      </trkpt>
      <trkpt lat="45.7917" lon="6.51094">
        <ele>1340.7</ele>
        <time>2025-08-15T13:26:26Z</time>
      </trkpt>
      <trkpt lat="45.79167" lon="6.51092">
        <ele>1340.8</ele>
        <time>2025-08-15T13:26:27Z</time>
      </trkpt>
      <trkpt lat="45.79164" lon="6.51089">
        <ele>1340.8</ele>
        <time>2025-08-15T13:26:28Z</time>
      </trkpt>
      <trkpt lat="45.79161" lon="6.51087">
        <ele>1340.9</ele>
        <time>2025-08-15T13:26:29Z</time>
      </trkpt>
      <trkpt lat="45.79158" lon="6.51085">
        <ele>1340.9</ele>
        <time>2025-08-15T13:26:30Z</time>
      </trkpt>
      <trkpt lat="45.79155" lon="6.51082">
        <ele>1341</ele>
        <time>2025-08-15T13:26:31Z</time>
      </trkpt>
      <trkpt lat="45.79151" lon="6.5108">
        <ele>1341</ele>
        <time>2025-08-15T13:26:32Z</time>
      </trkpt>
      <trkpt lat="45.79148" lon="6.51078">
        <ele>1341.1</ele>
        <time>2025-08-15T13:26:33Z</time>
      </trkpt>
      <trkpt lat="45.79145" lon="6.51075">
        <ele>1341.2</ele>
        <time>2025-08-15T13:26:34Z</time>
      </trkpt>
      <trkpt lat="45.79143" lon="6.51073">
        <ele>1341.3</ele>
        <time>2025-08-15T13:26:35Z</time>
      </trkpt>
      <trkpt lat="45.7914" lon="6.51071">
        <ele>1341.3</ele>
        <time>2025-08-15T13:26:36Z</time>
      </trkpt>
      <trkpt lat="45.79137" lon="6.51069">
        <ele>1341.4</ele>
        <time>2025-08-15T13:26:37Z</time>
      </trkpt>
      <trkpt lat="45.79134" lon="6.51068">
        <ele>1341.5</ele>
        <time>2025-08-15T13:26:38Z</time>
      </trkpt>
      <trkpt lat="45.79131" lon="6.51068">
        <ele>1341.6</ele>
        <time>2025-08-15T13:26:39Z</time>
      </trkpt>
      <trkpt lat="45.79128" lon="6.51068">
        <ele>1341.7</ele>
        <time>2025-08-15T13:26:40Z</time>
      </trkpt>
      <trkpt lat="45.79124" lon="6.51066">
        <ele>1341.8</ele>
        <time>2025-08-15T13:26:41Z</time>
      </trkpt>
      <trkpt lat="45.79123" lon="6.51064">
        <ele>1341.8</ele>
        <time>2025-08-15T13:26:42Z</time>
      </trkpt>
      <trkpt lat="45.7912" lon="6.51061">
        <ele>1341.9</ele>
        <time>2025-08-15T13:26:43Z</time>
      </trkpt>
      <trkpt lat="45.79118" lon="6.51058">
        <ele>1341.9</ele>
        <time>2025-08-15T13:26:44Z</time>
      </trkpt>
      <trkpt lat="45.79115" lon="6.51055">
        <ele>1341.8</ele>
        <time>2025-08-15T13:26:45Z</time>
      </trkpt>
      <trkpt lat="45.79113" lon="6.51049">
        <ele>1341.8</ele>
        <time>2025-08-15T13:26:46Z</time>
      </trkpt>
      <trkpt lat="45.79111" lon="6.51044">
        <ele>1341.6</ele>
        <time>2025-08-15T13:26:47Z</time>
      </trkpt>
      <trkpt lat="45.79109" lon="6.51038">
        <ele>1341.5</ele>
        <time>2025-08-15T13:26:48Z</time>
      </trkpt>
      <trkpt lat="45.79107" lon="6.51033">
        <ele>1341.3</ele>
        <time>2025-08-15T13:26:49Z</time>
      </trkpt>
      <trkpt lat="45.79105" lon="6.51027">
        <ele>1341.1</ele>
        <time>2025-08-15T13:26:50Z</time>
      </trkpt>
      <trkpt lat="45.79102" lon="6.51021">
        <ele>1341</ele>
        <time>2025-08-15T13:26:51Z</time>
      </trkpt>
      <trkpt lat="45.79099" lon="6.51015">
        <ele>1340.8</ele>
        <time>2025-08-15T13:26:52Z</time>
      </trkpt>
      <trkpt lat="45.79096" lon="6.5101">
        <ele>1340.6</ele>
        <time>2025-08-15T13:26:53Z</time>
      </trkpt>
      <trkpt lat="45.79093" lon="6.51004">
        <ele>1340.5</ele>
        <time>2025-08-15T13:26:54Z</time>
      </trkpt>
      <trkpt lat="45.7909" lon="6.50999">
        <ele>1340.4</ele>
        <time>2025-08-15T13:26:55Z</time>
      </trkpt>
      <trkpt lat="45.79087" lon="6.50994">
        <ele>1340.3</ele>
        <time>2025-08-15T13:26:56Z</time>
      </trkpt>
      <trkpt lat="45.79084" lon="6.5099">
        <ele>1340.3</ele>
        <time>2025-08-15T13:26:57Z</time>
      </trkpt>
      <trkpt lat="45.79081" lon="6.50985">
        <ele>1340.2</ele>
        <time>2025-08-15T13:26:58Z</time>
      </trkpt>
      <trkpt lat="45.79078" lon="6.50981">
        <ele>1340.2</ele>
        <time>2025-08-15T13:26:59Z</time>
      </trkpt>
      <trkpt lat="45.79075" lon="6.50977">
        <ele>1340.2</ele>
        <time>2025-08-15T13:27:00Z</time>
      </trkpt>
      <trkpt lat="45.79071" lon="6.50973">
        <ele>1340.1</ele>
        <time>2025-08-15T13:27:01Z</time>
      </trkpt>
      <trkpt lat="45.79068" lon="6.50969">
        <ele>1340.1</ele>
        <time>2025-08-15T13:27:02Z</time>
      </trkpt>
      <trkpt lat="45.79065" lon="6.50965">
        <ele>1340</ele>
        <time>2025-08-15T13:27:03Z</time>
      </trkpt>
      <trkpt lat="45.79061" lon="6.50962">
        <ele>1340</ele>
        <time>2025-08-15T13:27:04Z</time>
      </trkpt>
      <trkpt lat="45.79058" lon="6.50958">
        <ele>1339.9</ele>
        <time>2025-08-15T13:27:05Z</time>
      </trkpt>
      <trkpt lat="45.79054" lon="6.50955">
        <ele>1339.8</ele>
        <time>2025-08-15T13:27:06Z</time>
      </trkpt>
      <trkpt lat="45.7905" lon="6.50951">
        <ele>1339.7</ele>
        <time>2025-08-15T13:27:07Z</time>
      </trkpt>
      <trkpt lat="45.79046" lon="6.50948">
        <ele>1339.6</ele>
        <time>2025-08-15T13:27:08Z</time>
      </trkpt>
      <trkpt lat="45.79042" lon="6.50944">
        <ele>1339.5</ele>
        <time>2025-08-15T13:27:09Z</time>
      </trkpt>
      <trkpt lat="45.79039" lon="6.50941">
        <ele>1339.4</ele>
        <time>2025-08-15T13:27:10Z</time>
      </trkpt>
      <trkpt lat="45.79035" lon="6.50938">
        <ele>1339.2</ele>
        <time>2025-08-15T13:27:11Z</time>
      </trkpt>
      <trkpt lat="45.79031" lon="6.50935">
        <ele>1339</ele>
        <time>2025-08-15T13:27:12Z</time>
      </trkpt>
      <trkpt lat="45.79028" lon="6.50931">
        <ele>1338.7</ele>
        <time>2025-08-15T13:27:13Z</time>
      </trkpt>
      <trkpt lat="45.79024" lon="6.50928">
        <ele>1338.5</ele>
        <time>2025-08-15T13:27:14Z</time>
      </trkpt>
      <trkpt lat="45.7902" lon="6.50924">
        <ele>1338.1</ele>
        <time>2025-08-15T13:27:15Z</time>
      </trkpt>
      <trkpt lat="45.79017" lon="6.50921">
        <ele>1337.8</ele>
        <time>2025-08-15T13:27:16Z</time>
      </trkpt>
      <trkpt lat="45.79014" lon="6.50917">
        <ele>1337.4</ele>
        <time>2025-08-15T13:27:17Z</time>
      </trkpt>
      <trkpt lat="45.79012" lon="6.50913">
        <ele>1337</ele>
        <time>2025-08-15T13:27:18Z</time>
      </trkpt>
      <trkpt lat="45.79011" lon="6.50908">
        <ele>1336.6</ele>
        <time>2025-08-15T13:27:19Z</time>
      </trkpt>
      <trkpt lat="45.7901" lon="6.50903">
        <ele>1336.2</ele>
        <time>2025-08-15T13:27:20Z</time>
      </trkpt>
      <trkpt lat="45.7901" lon="6.50898">
        <ele>1335.9</ele>
        <time>2025-08-15T13:27:21Z</time>
      </trkpt>
      <trkpt lat="45.7901" lon="6.50896">
        <ele>1335.8</ele>
        <time>2025-08-15T13:27:22Z</time>
      </trkpt>
      <trkpt lat="45.79012" lon="6.50895">
        <ele>1335.5</ele>
        <time>2025-08-15T13:27:23Z</time>
      </trkpt>
      <trkpt lat="45.79015" lon="6.50896">
        <ele>1335.2</ele>
        <time>2025-08-15T13:27:24Z</time>
      </trkpt>
      <trkpt lat="45.79018" lon="6.50897">
        <ele>1334.8</ele>
        <time>2025-08-15T13:27:25Z</time>
      </trkpt>
      <trkpt lat="45.7902" lon="6.50897">
        <ele>1334.5</ele>
        <time>2025-08-15T13:27:26Z</time>
      </trkpt>
      <trkpt lat="45.79023" lon="6.50898">
        <ele>1334.1</ele>
        <time>2025-08-15T13:27:27Z</time>
      </trkpt>
      <trkpt lat="45.79026" lon="6.50899">
        <ele>1333.7</ele>
        <time>2025-08-15T13:27:28Z</time>
      </trkpt>
      <trkpt lat="45.79029" lon="6.509">
        <ele>1333.4</ele>
        <time>2025-08-15T13:27:29Z</time>
      </trkpt>
      <trkpt lat="45.79031" lon="6.50901">
        <ele>1333</ele>
        <time>2025-08-15T13:27:30Z</time>
      </trkpt>
      <trkpt lat="45.79034" lon="6.50902">
        <ele>1332.6</ele>
        <time>2025-08-15T13:27:31Z</time>
      </trkpt>
      <trkpt lat="45.79037" lon="6.50903">
        <ele>1332.2</ele>
        <time>2025-08-15T13:27:32Z</time>
      </trkpt>
      <trkpt lat="45.7904" lon="6.50904">
        <ele>1331.8</ele>
        <time>2025-08-15T13:27:33Z</time>
      </trkpt>
      <trkpt lat="45.79042" lon="6.50904">
        <ele>1331.5</ele>
        <time>2025-08-15T13:27:34Z</time>
      </trkpt>
      <trkpt lat="45.79045" lon="6.50905">
        <ele>1331.1</ele>
        <time>2025-08-15T13:27:49Z</time>
      </trkpt>
      <trkpt lat="45.79048" lon="6.50906">
        <ele>1330.7</ele>
        <time>2025-08-15T13:27:50Z</time>
      </trkpt>
      <trkpt lat="45.79057" lon="6.50909">
        <ele>1329.5</ele>
        <time>2025-08-15T13:27:51Z</time>
      </trkpt>
      <trkpt lat="45.79066" lon="6.50909">
        <ele>1328.3</ele>
        <time>2025-08-15T13:27:52Z</time>
      </trkpt>
      <trkpt lat="45.79076" lon="6.50909">
        <ele>1327.2</ele>
        <time>2025-08-15T13:27:53Z</time>
      </trkpt>
      <trkpt lat="45.79087" lon="6.50911">
        <ele>1325.9</ele>
        <time>2025-08-15T13:27:54Z</time>
      </trkpt>
      <trkpt lat="45.79097" lon="6.50914">
        <ele>1324.6</ele>
        <time>2025-08-15T13:27:55Z</time>
      </trkpt>
      <trkpt lat="45.79105" lon="6.50919">
        <ele>1323.2</ele>
        <time>2025-08-15T13:27:56Z</time>
      </trkpt>
      <trkpt lat="45.79114" lon="6.50922">
        <ele>1321.8</ele>
        <time>2025-08-15T13:27:57Z</time>
      </trkpt>
      <trkpt lat="45.79122" lon="6.50924">
        <ele>1320.4</ele>
        <time>2025-08-15T13:27:58Z</time>
      </trkpt>
      <trkpt lat="45.7913" lon="6.50923">
        <ele>1318.8</ele>
        <time>2025-08-15T13:27:59Z</time>
      </trkpt>
      <trkpt lat="45.79138" lon="6.50921">
        <ele>1317.4</ele>
        <time>2025-08-15T13:28:00Z</time>
      </trkpt>
      <trkpt lat="45.79144" lon="6.50917">
        <ele>1316.2</ele>
        <time>2025-08-15T13:28:01Z</time>
      </trkpt>
      <trkpt lat="45.79149" lon="6.50913">
        <ele>1315.2</ele>
        <time>2025-08-15T13:28:02Z</time>
      </trkpt>
      <trkpt lat="45.79153" lon="6.50908">
        <ele>1314.3</ele>
        <time>2025-08-15T13:28:03Z</time>
      </trkpt>
      <trkpt lat="45.79157" lon="6.50903">
        <ele>1313.5</ele>
        <time>2025-08-15T13:28:04Z</time>
      </trkpt>
      <trkpt lat="45.79161" lon="6.509">
        <ele>1312.7</ele>
        <time>2025-08-15T13:28:05Z</time>
      </trkpt>
      <trkpt lat="45.79166" lon="6.509">
        <ele>1312.1</ele>
        <time>2025-08-15T13:28:06Z</time>
      </trkpt>
      <trkpt lat="45.79172" lon="6.50904">
        <ele>1311.3</ele>
        <time>2025-08-15T13:28:07Z</time>
      </trkpt>
      <trkpt lat="45.79177" lon="6.5091">
        <ele>1310.6</ele>
        <time>2025-08-15T13:28:08Z</time>
      </trkpt>
      <trkpt lat="45.79182" lon="6.50917">
        <ele>1309.9</ele>
        <time>2025-08-15T13:28:09Z</time>
      </trkpt>
      <trkpt lat="45.79187" lon="6.50923">
        <ele>1309.3</ele>
        <time>2025-08-15T13:28:10Z</time>
      </trkpt>
      <trkpt lat="45.79193" lon="6.50931">
        <ele>1308.6</ele>
        <time>2025-08-15T13:28:11Z</time>
      </trkpt>
      <trkpt lat="45.79198" lon="6.50938">
        <ele>1308</ele>
        <time>2025-08-15T13:28:12Z</time>
      </trkpt>
      <trkpt lat="45.79203" lon="6.50944">
        <ele>1307.5</ele>
        <time>2025-08-15T13:28:13Z</time>
      </trkpt>
      <trkpt lat="45.79208" lon="6.50951">
        <ele>1306.9</ele>
        <time>2025-08-15T13:28:14Z</time>
      </trkpt>
      <trkpt lat="45.79214" lon="6.50957">
        <ele>1306.3</ele>
        <time>2025-08-15T13:28:15Z</time>
      </trkpt>
      <trkpt lat="45.7922" lon="6.50964">
        <ele>1305.6</ele>
        <time>2025-08-15T13:28:16Z</time>
      </trkpt>
      <trkpt lat="45.79227" lon="6.5097">
        <ele>1304.9</ele>
        <time>2025-08-15T13:28:17Z</time>
      </trkpt>
      <trkpt lat="45.79234" lon="6.50976">
        <ele>1304.2</ele>
        <time>2025-08-15T13:28:18Z</time>
      </trkpt>
      <trkpt lat="45.79241" lon="6.50981">
        <ele>1303.5</ele>
        <time>2025-08-15T13:28:19Z</time>
      </trkpt>
      <trkpt lat="45.79248" lon="6.50985">
        <ele>1302.8</ele>
        <time>2025-08-15T13:28:20Z</time>
      </trkpt>
      <trkpt lat="45.79256" lon="6.50989">
        <ele>1302</ele>
        <time>2025-08-15T13:28:21Z</time>
      </trkpt>
      <trkpt lat="45.79264" lon="6.50993">
        <ele>1301.1</ele>
        <time>2025-08-15T13:28:22Z</time>
      </trkpt>
      <trkpt lat="45.7927" lon="6.50998">
        <ele>1300.3</ele>
        <time>2025-08-15T13:28:23Z</time>
      </trkpt>
      <trkpt lat="45.79277" lon="6.51001">
        <ele>1299.5</ele>
        <time>2025-08-15T13:28:24Z</time>
      </trkpt>
      <trkpt lat="45.79284" lon="6.51003">
        <ele>1298.7</ele>
        <time>2025-08-15T13:28:25Z</time>
      </trkpt>
      <trkpt lat="45.79292" lon="6.51003">
        <ele>1297.9</ele>
        <time>2025-08-15T13:28:26Z</time>
      </trkpt>
      <trkpt lat="45.793" lon="6.51002">
        <ele>1297</ele>
        <time>2025-08-15T13:28:27Z</time>
      </trkpt>
      <trkpt lat="45.79308" lon="6.51003">
        <ele>1296.3</ele>
        <time>2025-08-15T13:28:28Z</time>
      </trkpt>
      <trkpt lat="45.79315" lon="6.51006">
        <ele>1295.5</ele>
        <time>2025-08-15T13:28:29Z</time>
      </trkpt>
      <trkpt lat="45.79323" lon="6.51012">
        <ele>1294.6</ele>
        <time>2025-08-15T13:28:30Z</time>
      </trkpt>
      <trkpt lat="45.7933" lon="6.51019">
        <ele>1293.9</ele>
        <time>2025-08-15T13:28:31Z</time>
      </trkpt>
      <trkpt lat="45.79338" lon="6.51026">
        <ele>1293</ele>
        <time>2025-08-15T13:28:32Z</time>
      </trkpt>
      <trkpt lat="45.79346" lon="6.51034">
        <ele>1292.1</ele>
        <time>2025-08-15T13:28:33Z</time>
      </trkpt>
      <trkpt lat="45.79356" lon="6.51039">
        <ele>1291.2</ele>
        <time>2025-08-15T13:28:34Z</time>
      </trkpt>
      <trkpt lat="45.79366" lon="6.51043">
        <ele>1290.2</ele>
        <time>2025-08-15T13:28:35Z</time>
      </trkpt>
      <trkpt lat="45.79377" lon="6.51045">
        <ele>1289.3</ele>
        <time>2025-08-15T13:28:36Z</time>
      </trkpt>
      <trkpt lat="45.79388" lon="6.51047">
        <ele>1288.4</ele>
        <time>2025-08-15T13:28:37Z</time>
      </trkpt>
      <trkpt lat="45.79399" lon="6.51049">
        <ele>1287.5</ele>
        <time>2025-08-15T13:28:38Z</time>
      </trkpt>
      <trkpt lat="45.79409" lon="6.51051">
        <ele>1286.7</ele>
        <time>2025-08-15T13:28:39Z</time>
      </trkpt>
      <trkpt lat="45.79418" lon="6.51053">
        <ele>1286.1</ele>
        <time>2025-08-15T13:28:40Z</time>
      </trkpt>
      <trkpt lat="45.79425" lon="6.51055">
        <ele>1285.5</ele>
        <time>2025-08-15T13:28:41Z</time>
      </trkpt>
      <trkpt lat="45.7943" lon="6.51056">
        <ele>1285</ele>
        <time>2025-08-15T13:28:42Z</time>
      </trkpt>
      <trkpt lat="45.79435" lon="6.51057">
        <ele>1284.6</ele>
        <time>2025-08-15T13:28:43Z</time>
      </trkpt>
      <trkpt lat="45.79439" lon="6.51058">
        <ele>1284.3</ele>
        <time>2025-08-15T13:28:44Z</time>
      </trkpt>
      <trkpt lat="45.79442" lon="6.51058">
        <ele>1284.1</ele>
        <time>2025-08-15T13:28:45Z</time>
      </trkpt>
      <trkpt lat="45.79443" lon="6.51058">
        <ele>1284</ele>
        <time>2025-08-15T13:28:46Z</time>
      </trkpt>
      <trkpt lat="45.79446" lon="6.51059">
        <ele>1283.8</ele>
        <time>2025-08-15T13:28:47Z</time>
      </trkpt>
      <trkpt lat="45.79447" lon="6.5106">
        <ele>1283.7</ele>
        <time>2025-08-15T13:28:48Z</time>
      </trkpt>
      <trkpt lat="45.79449" lon="6.51057">
        <ele>1283.5</ele>
        <time>2025-08-15T13:28:49Z</time>
      </trkpt>
      <trkpt lat="45.7945" lon="6.51052">
        <ele>1283.2</ele>
        <time>2025-08-15T13:28:50Z</time>
      </trkpt>
      <trkpt lat="45.79448" lon="6.51045">
        <ele>1282.8</ele>
        <time>2025-08-15T13:28:51Z</time>
      </trkpt>
      <trkpt lat="45.79445" lon="6.5104">
        <ele>1282.5</ele>
        <time>2025-08-15T13:28:52Z</time>
      </trkpt>
      <trkpt lat="45.79442" lon="6.51035">
        <ele>1282.1</ele>
        <time>2025-08-15T13:28:54Z</time>
      </trkpt>
      <trkpt lat="45.7944" lon="6.51029">
        <ele>1281.8</ele>
        <time>2025-08-15T13:28:55Z</time>
      </trkpt>
      <trkpt lat="45.79437" lon="6.51023">
        <ele>1281.5</ele>
        <time>2025-08-15T13:28:56Z</time>
      </trkpt>
      <trkpt lat="45.79435" lon="6.51017">
        <ele>1281.2</ele>
        <time>2025-08-15T13:28:57Z</time>
      </trkpt>
      <trkpt lat="45.79433" lon="6.51011">
        <ele>1280.8</ele>
        <time>2025-08-15T13:28:58Z</time>
      </trkpt>
      <trkpt lat="45.79431" lon="6.51006">
        <ele>1280.5</ele>
        <time>2025-08-15T13:28:59Z</time>
      </trkpt>
      <trkpt lat="45.79429" lon="6.51">
        <ele>1280.2</ele>
        <time>2025-08-15T13:29:00Z</time>
      </trkpt>
      <trkpt lat="45.79425" lon="6.50995">
        <ele>1279.9</ele>
        <time>2025-08-15T13:29:01Z</time>
      </trkpt>
      <trkpt lat="45.79422" lon="6.5099">
        <ele>1279.5</ele>
        <time>2025-08-15T13:29:02Z</time>
      </trkpt>
      <trkpt lat="45.7942" lon="6.50985">
        <ele>1279.2</ele>
        <time>2025-08-15T13:29:03Z</time>
      </trkpt>
      <trkpt lat="45.79417" lon="6.50979">
        <ele>1278.8</ele>
        <time>2025-08-15T13:29:04Z</time>
      </trkpt>
      <trkpt lat="45.79415" lon="6.50973">
        <ele>1278.4</ele>
        <time>2025-08-15T13:29:05Z</time>
      </trkpt>
      <trkpt lat="45.79411" lon="6.50966">
        <ele>1277.9</ele>
        <time>2025-08-15T13:29:06Z</time>
      </trkpt>
      <trkpt lat="45.79407" lon="6.5096">
        <ele>1277.4</ele>
        <time>2025-08-15T13:29:07Z</time>
      </trkpt>
      <trkpt lat="45.79403" lon="6.50953">
        <ele>1276.9</ele>
        <time>2025-08-15T13:29:08Z</time>
      </trkpt>
      <trkpt lat="45.794" lon="6.50946">
        <ele>1276.5</ele>
        <time>2025-08-15T13:29:09Z</time>
      </trkpt>
      <trkpt lat="45.79395" lon="6.50938">
        <ele>1276</ele>
        <time>2025-08-15T13:29:10Z</time>
      </trkpt>
      <trkpt lat="45.7939" lon="6.50931">
        <ele>1275.5</ele>
        <time>2025-08-15T13:29:11Z</time>
      </trkpt>
      <trkpt lat="45.79385" lon="6.50923">
        <ele>1275.2</ele>
        <time>2025-08-15T13:29:12Z</time>
      </trkpt>
      <trkpt lat="45.7938" lon="6.50916">
        <ele>1274.9</ele>
        <time>2025-08-15T13:29:13Z</time>
      </trkpt>
      <trkpt lat="45.79375" lon="6.50908">
        <ele>1274.7</ele>
        <time>2025-08-15T13:29:14Z</time>
      </trkpt>
      <trkpt lat="45.7937" lon="6.509">
        <ele>1274.7</ele>
        <time>2025-08-15T13:29:15Z</time>
      </trkpt>
      <trkpt lat="45.79366" lon="6.50894">
        <ele>1274.6</ele>
        <time>2025-08-15T13:29:16Z</time>
      </trkpt>
      <trkpt lat="45.79362" lon="6.50888">
        <ele>1274.6</ele>
        <time>2025-08-15T13:29:17Z</time>
      </trkpt>
      <trkpt lat="45.79358" lon="6.50882">
        <ele>1274.6</ele>
        <time>2025-08-15T13:29:18Z</time>
      </trkpt>
      <trkpt lat="45.79355" lon="6.50879">
        <ele>1274.5</ele>
        <time>2025-08-15T13:29:19Z</time>
      </trkpt>
      <trkpt lat="45.79351" lon="6.50877">
        <ele>1274.5</ele>
        <time>2025-08-15T13:29:20Z</time>
      </trkpt>
      <trkpt lat="45.79348" lon="6.50875">
        <ele>1274.4</ele>
        <time>2025-08-15T13:29:21Z</time>
      </trkpt>
      <trkpt lat="45.79347" lon="6.50875">
        <ele>1274.4</ele>
        <time>2025-08-15T13:29:22Z</time>
      </trkpt>
      <trkpt lat="45.79346" lon="6.5087">
        <ele>1273.9</ele>
        <time>2025-08-15T13:29:23Z</time>
      </trkpt>
      <trkpt lat="45.79346" lon="6.50868">
        <ele>1273.6</ele>
        <time>2025-08-15T13:29:24Z</time>
      </trkpt>
      <trkpt lat="45.79347" lon="6.50865">
        <ele>1273.1</ele>
        <time>2025-08-15T13:29:25Z</time>
      </trkpt>
      <trkpt lat="45.7935" lon="6.5086">
        <ele>1272.2</ele>
        <time>2025-08-15T13:29:26Z</time>
      </trkpt>
      <trkpt lat="45.79353" lon="6.50855">
        <ele>1271.3</ele>
        <time>2025-08-15T13:29:27Z</time>
      </trkpt>
      <trkpt lat="45.79355" lon="6.5085">
        <ele>1270.3</ele>
        <time>2025-08-15T13:29:28Z</time>
      </trkpt>
      <trkpt lat="45.79357" lon="6.50845">
        <ele>1269.3</ele>
        <time>2025-08-15T13:29:29Z</time>
      </trkpt>
      <trkpt lat="45.79358" lon="6.5084">
        <ele>1268.6</ele>
        <time>2025-08-15T13:29:30Z</time>
      </trkpt>
      <trkpt lat="45.7936" lon="6.50834">
        <ele>1267.5</ele>
        <time>2025-08-15T13:29:31Z</time>
      </trkpt>
      <trkpt lat="45.79362" lon="6.50831">
        <ele>1266.9</ele>
        <time>2025-08-15T13:29:32Z</time>
      </trkpt>
      <trkpt lat="45.79363" lon="6.50827">
        <ele>1266.3</ele>
        <time>2025-08-15T13:29:33Z</time>
      </trkpt>
      <trkpt lat="45.79364" lon="6.50823">
        <ele>1265.7</ele>
        <time>2025-08-15T13:29:34Z</time>
      </trkpt>
      <trkpt lat="45.79365" lon="6.50818">
        <ele>1264.8</ele>
        <time>2025-08-15T13:29:35Z</time>
      </trkpt>
      <trkpt lat="45.79366" lon="6.50816">
        <ele>1264.4</ele>
        <time>2025-08-15T13:29:36Z</time>
      </trkpt>
      <trkpt lat="45.79367" lon="6.50811">
        <ele>1263.7</ele>
        <time>2025-08-15T13:29:37Z</time>
      </trkpt>
      <trkpt lat="45.79369" lon="6.50807">
        <ele>1262.8</ele>
        <time>2025-08-15T13:29:38Z</time>
      </trkpt>
      <trkpt lat="45.79374" lon="6.508">
        <ele>1261.5</ele>
        <time>2025-08-15T13:29:39Z</time>
      </trkpt>
      <trkpt lat="45.79378" lon="6.5079">
        <ele>1259.9</ele>
        <time>2025-08-15T13:29:40Z</time>
      </trkpt>
      <trkpt lat="45.79382" lon="6.50779">
        <ele>1258.3</ele>
        <time>2025-08-15T13:29:41Z</time>
      </trkpt>
      <trkpt lat="45.79387" lon="6.50767">
        <ele>1256.6</ele>
        <time>2025-08-15T13:29:42Z</time>
      </trkpt>
      <trkpt lat="45.79392" lon="6.50754">
        <ele>1254.8</ele>
        <time>2025-08-15T13:29:43Z</time>
      </trkpt>
      <trkpt lat="45.79397" lon="6.50741">
        <ele>1253</ele>
        <time>2025-08-15T13:29:44Z</time>
      </trkpt>
      <trkpt lat="45.79402" lon="6.50728">
        <ele>1250.9</ele>
        <time>2025-08-15T13:29:45Z</time>
      </trkpt>
      <trkpt lat="45.79406" lon="6.50715">
        <ele>1248.5</ele>
        <time>2025-08-15T13:29:46Z</time>
      </trkpt>
      <trkpt lat="45.79412" lon="6.50702">
        <ele>1245.8</ele>
        <time>2025-08-15T13:29:47Z</time>
      </trkpt>
      <trkpt lat="45.79418" lon="6.50689">
        <ele>1242.9</ele>
        <time>2025-08-15T13:29:48Z</time>
      </trkpt>
      <trkpt lat="45.79423" lon="6.50675">
        <ele>1239.8</ele>
        <time>2025-08-15T13:29:49Z</time>
      </trkpt>
      <trkpt lat="45.79429" lon="6.50661">
        <ele>1236.8</ele>
        <time>2025-08-15T13:29:50Z</time>
      </trkpt>
      <trkpt lat="45.79434" lon="6.50648">
        <ele>1234.2</ele>
        <time>2025-08-15T13:29:51Z</time>
      </trkpt>
      <trkpt lat="45.79438" lon="6.50635">
        <ele>1231.9</ele>
        <time>2025-08-15T13:29:52Z</time>
      </trkpt>
      <trkpt lat="45.79442" lon="6.50625">
        <ele>1230.2</ele>
        <time>2025-08-15T13:29:53Z</time>
      </trkpt>
      <trkpt lat="45.79444" lon="6.50617">
        <ele>1229</ele>
        <time>2025-08-15T13:29:54Z</time>
      </trkpt>
      <trkpt lat="45.79445" lon="6.50611">
        <ele>1228.2</ele>
        <time>2025-08-15T13:29:55Z</time>
      </trkpt>
      <trkpt lat="45.79445" lon="6.50606">
        <ele>1227.4</ele>
        <time>2025-08-15T13:29:56Z</time>
      </trkpt>
      <trkpt lat="45.79443" lon="6.50602">
        <ele>1226.8</ele>
        <time>2025-08-15T13:29:57Z</time>
      </trkpt>
      <trkpt lat="45.79441" lon="6.50599">
        <ele>1226.2</ele>
        <time>2025-08-15T13:29:58Z</time>
      </trkpt>
      <trkpt lat="45.79441" lon="6.50597">
        <ele>1226</ele>
        <time>2025-08-15T13:29:59Z</time>
      </trkpt>
      <trkpt lat="45.79443" lon="6.50594">
        <ele>1225.5</ele>
        <time>2025-08-15T13:30:00Z</time>
      </trkpt>
      <trkpt lat="45.79444" lon="6.50593">
        <ele>1225.3</ele>
        <time>2025-08-15T13:30:01Z</time>
      </trkpt>
      <trkpt lat="45.79446" lon="6.50591">
        <ele>1224.9</ele>
        <time>2025-08-15T13:30:02Z</time>
      </trkpt>
      <trkpt lat="45.79446" lon="6.5059">
        <ele>1224.8</ele>
        <time>2025-08-15T13:30:03Z</time>
      </trkpt>
      <trkpt lat="45.79447" lon="6.50589">
        <ele>1224.6</ele>
        <time>2025-08-15T13:30:04Z</time>
      </trkpt>
      <trkpt lat="45.79447" lon="6.50588">
        <ele>1224.5</ele>
        <time>2025-08-15T13:30:05Z</time>
      </trkpt>
      <trkpt lat="45.79448" lon="6.50587">
        <ele>1224.4</ele>
        <time>2025-08-15T13:30:06Z</time>
      </trkpt>
      <trkpt lat="45.79448" lon="6.50586">
        <ele>1224.3</ele>
        <time>2025-08-15T13:30:07Z</time>
      </trkpt>
      <trkpt lat="45.79448" lon="6.50585">
        <ele>1224.2</ele>
        <time>2025-08-15T13:30:08Z</time>
      </trkpt>
      <trkpt lat="45.79449" lon="6.50584">
        <ele>1224.1</ele>
        <time>2025-08-15T13:30:09Z</time>
      </trkpt>
      <trkpt lat="45.79449" lon="6.50584">
        <ele>1224</ele>
        <time>2025-08-15T13:30:10Z</time>
      </trkpt>
      <trkpt lat="45.7945" lon="6.50583">
        <ele>1223.8</ele>
        <time>2025-08-15T13:30:11Z</time>
      </trkpt>
      <trkpt lat="45.7945" lon="6.50582">
        <ele>1223.7</ele>
        <time>2025-08-15T13:30:12Z</time>
      </trkpt>
      <trkpt lat="45.79451" lon="6.50581">
        <ele>1223.6</ele>
        <time>2025-08-15T13:30:13Z</time>
      </trkpt>
      <trkpt lat="45.79451" lon="6.5058">
        <ele>1223.5</ele>
        <time>2025-08-15T13:30:20Z</time>
      </trkpt>
      <trkpt lat="45.79452" lon="6.50579">
        <ele>1223.4</ele>
        <time>2025-08-15T13:30:21Z</time>
      </trkpt>
      <trkpt lat="45.79455" lon="6.50574">
        <ele>1222.9</ele>
        <time>2025-08-15T13:30:22Z</time>
      </trkpt>
      <trkpt lat="45.79459" lon="6.50571">
        <ele>1222.4</ele>
        <time>2025-08-15T13:30:23Z</time>
      </trkpt>
      <trkpt lat="45.79463" lon="6.50569">
        <ele>1221.8</ele>
        <time>2025-08-15T13:30:24Z</time>
      </trkpt>
      <trkpt lat="45.79467" lon="6.5057">
        <ele>1221.6</ele>
        <time>2025-08-15T13:30:25Z</time>
      </trkpt>
      <trkpt lat="45.79472" lon="6.50572">
        <ele>1221.5</ele>
        <time>2025-08-15T13:30:26Z</time>
      </trkpt>
      <trkpt lat="45.79475" lon="6.50577">
        <ele>1221.3</ele>
        <time>2025-08-15T13:30:27Z</time>
      </trkpt>
      <trkpt lat="45.79478" lon="6.50582">
        <ele>1221.2</ele>
        <time>2025-08-15T13:30:28Z</time>
      </trkpt>
      <trkpt lat="45.79482" lon="6.50586">
        <ele>1221</ele>
        <time>2025-08-15T13:30:29Z</time>
      </trkpt>
      <trkpt lat="45.79485" lon="6.5059">
        <ele>1220.9</ele>
        <time>2025-08-15T13:30:30Z</time>
      </trkpt>
      <trkpt lat="45.79486" lon="6.50594">
        <ele>1220.8</ele>
        <time>2025-08-15T13:30:31Z</time>
      </trkpt>
      <trkpt lat="45.79489" lon="6.50595">
        <ele>1220.7</ele>
        <time>2025-08-15T13:30:32Z</time>
      </trkpt>
      <trkpt lat="45.79492" lon="6.50594">
        <ele>1220.6</ele>
        <time>2025-08-15T13:30:33Z</time>
      </trkpt>
      <trkpt lat="45.79494" lon="6.50589">
        <ele>1220.4</ele>
        <time>2025-08-15T13:30:34Z</time>
      </trkpt>
      <trkpt lat="45.79495" lon="6.50585">
        <ele>1220.2</ele>
        <time>2025-08-15T13:30:35Z</time>
      </trkpt>
      <trkpt lat="45.79498" lon="6.50581">
        <ele>1220.1</ele>
        <time>2025-08-15T13:30:36Z</time>
      </trkpt>
      <trkpt lat="45.795" lon="6.50578">
        <ele>1219.9</ele>
        <time>2025-08-15T13:30:37Z</time>
      </trkpt>
      <trkpt lat="45.79503" lon="6.50575">
        <ele>1219.8</ele>
        <time>2025-08-15T13:30:38Z</time>
      </trkpt>
      <trkpt lat="45.79506" lon="6.50572">
        <ele>1219.6</ele>
        <time>2025-08-15T13:30:39Z</time>
      </trkpt>
      <trkpt lat="45.79507" lon="6.50571">
        <ele>1219.5</ele>
        <time>2025-08-15T13:30:40Z</time>
      </trkpt>
      <trkpt lat="45.79509" lon="6.50568">
        <ele>1219.3</ele>
        <time>2025-08-15T13:30:41Z</time>
      </trkpt>
      <trkpt lat="45.7951" lon="6.50568">
        <ele>1219.3</ele>
        <time>2025-08-15T13:30:42Z</time>
      </trkpt>
      <trkpt lat="45.79513" lon="6.50566">
        <ele>1219.2</ele>
        <time>2025-08-15T13:30:43Z</time>
      </trkpt>
      <trkpt lat="45.79514" lon="6.50566">
        <ele>1219.1</ele>
        <time>2025-08-15T13:30:44Z</time>
      </trkpt>
      <trkpt lat="45.79515" lon="6.50566">
        <ele>1219.1</ele>
        <time>2025-08-15T13:30:45Z</time>
      </trkpt>
      <trkpt lat="45.79516" lon="6.50565">
        <ele>1219.1</ele>
        <time>2025-08-15T13:30:46Z</time>
      </trkpt>
      <trkpt lat="45.79516" lon="6.50563">
        <ele>1219</ele>
        <time>2025-08-15T13:30:47Z</time>
      </trkpt>
      <trkpt lat="45.79516" lon="6.50558">
        <ele>1218.9</ele>
        <time>2025-08-15T13:30:48Z</time>
      </trkpt>
      <trkpt lat="45.79516" lon="6.50557">
        <ele>1218.9</ele>
        <time>2025-08-15T13:30:49Z</time>
      </trkpt>
      <trkpt lat="45.79516" lon="6.50553">
        <ele>1218.8</ele>
        <time>2025-08-15T13:30:50Z</time>
      </trkpt>
      <trkpt lat="45.79516" lon="6.50552">
        <ele>1218.7</ele>
        <time>2025-08-15T13:30:51Z</time>
      </trkpt>
      <trkpt lat="45.79517" lon="6.50546">
        <ele>1218.5</ele>
        <time>2025-08-15T13:30:52Z</time>
      </trkpt>
      <trkpt lat="45.79516" lon="6.50544">
        <ele>1218.5</ele>
        <time>2025-08-15T13:30:53Z</time>
      </trkpt>
      <trkpt lat="45.79515" lon="6.50541">
        <ele>1218.3</ele>
        <time>2025-08-15T13:30:54Z</time>
      </trkpt>
      <trkpt lat="45.79513" lon="6.50536">
        <ele>1218.2</ele>
        <time>2025-08-15T13:30:55Z</time>
      </trkpt>
      <trkpt lat="45.79512" lon="6.50535">
        <ele>1218.1</ele>
        <time>2025-08-15T13:30:56Z</time>
      </trkpt>
      <trkpt lat="45.79511" lon="6.50531">
        <ele>1218</ele>
        <time>2025-08-15T13:30:57Z</time>
      </trkpt>
      <trkpt lat="45.7951" lon="6.50528">
        <ele>1217.9</ele>
        <time>2025-08-15T13:30:58Z</time>
      </trkpt>
      <trkpt lat="45.79507" lon="6.50524">
        <ele>1217.8</ele>
        <time>2025-08-15T13:31:00Z</time>
      </trkpt>
      <trkpt lat="45.79506" lon="6.50523">
        <ele>1217.7</ele>
        <time>2025-08-15T13:31:01Z</time>
      </trkpt>
      <trkpt lat="45.79505" lon="6.50519">
        <ele>1217.6</ele>
        <time>2025-08-15T13:31:02Z</time>
      </trkpt>
      <trkpt lat="45.79505" lon="6.50517">
        <ele>1217.6</ele>
        <time>2025-08-15T13:31:03Z</time>
      </trkpt>
      <trkpt lat="45.79504" lon="6.50516">
        <ele>1217.5</ele>
        <time>2025-08-15T13:31:04Z</time>
      </trkpt>
      <trkpt lat="45.79503" lon="6.50514">
        <ele>1217.4</ele>
        <time>2025-08-15T13:31:05Z</time>
      </trkpt>
      <trkpt lat="45.79502" lon="6.50515">
        <ele>1217.4</ele>
        <time>2025-08-15T13:31:06Z</time>
      </trkpt>
      <trkpt lat="45.79502" lon="6.50515">
        <ele>1217.4</ele>
        <time>2025-08-15T13:31:07Z</time>
      </trkpt>
      <trkpt lat="45.79502" lon="6.50515">
        <ele>1217.3</ele>
        <time>2025-08-15T13:31:08Z</time>
      </trkpt>
      <trkpt lat="45.79502" lon="6.50516">
        <ele>1217.3</ele>
        <time>2025-08-15T13:31:09Z</time>
      </trkpt>
      <trkpt lat="45.79502" lon="6.50516">
        <ele>1217.3</ele>
        <time>2025-08-15T13:31:10Z</time>
      </trkpt>
      <trkpt lat="45.79503" lon="6.50516">
        <ele>1217.3</ele>
        <time>2025-08-15T13:31:11Z</time>
      </trkpt>
      <trkpt lat="45.79502" lon="6.50516">
        <ele>1217.3</ele>
        <time>2025-08-15T13:31:12Z</time>
      </trkpt>
      <trkpt lat="45.79502" lon="6.50516">
        <ele>1217.3</ele>
        <time>2025-08-15T13:31:13Z</time>
      </trkpt>
      <trkpt lat="45.79502" lon="6.50516">
        <ele>1217.3</ele>
        <time>2025-08-15T13:31:14Z</time>
      </trkpt>
      <trkpt lat="45.79503" lon="6.50516">
        <ele>1217.3</ele>
        <time>2025-08-15T13:31:15Z</time>
      </trkpt>
      <trkpt lat="45.79501" lon="6.50511">
        <ele>1217.1</ele>
        <time>2025-08-15T13:31:24Z</time>
      </trkpt>
      <trkpt lat="45.795" lon="6.50509">
        <ele>1217.1</ele>
        <time>2025-08-15T13:31:25Z</time>
      </trkpt>
      <trkpt lat="45.79499" lon="6.50507">
        <ele>1217</ele>
        <time>2025-08-15T13:31:26Z</time>
      </trkpt>
      <trkpt lat="45.79498" lon="6.50502">
        <ele>1216.8</ele>
        <time>2025-08-15T13:31:27Z</time>
      </trkpt>
      <trkpt lat="45.79497" lon="6.505">
        <ele>1216.8</ele>
        <time>2025-08-15T13:31:28Z</time>
      </trkpt>
      <trkpt lat="45.79496" lon="6.50496">
        <ele>1216.7</ele>
        <time>2025-08-15T13:31:29Z</time>
      </trkpt>
      <trkpt lat="45.79493" lon="6.50493">
        <ele>1216.5</ele>
        <time>2025-08-15T13:31:30Z</time>
      </trkpt>
      <trkpt lat="45.79491" lon="6.5049">
        <ele>1216.5</ele>
        <time>2025-08-15T13:31:31Z</time>
      </trkpt>
      <trkpt lat="45.79489" lon="6.50484">
        <ele>1216.4</ele>
        <time>2025-08-15T13:31:32Z</time>
      </trkpt>
      <trkpt lat="45.79488" lon="6.50481">
        <ele>1216.3</ele>
        <time>2025-08-15T13:31:33Z</time>
      </trkpt>
      <trkpt lat="45.79488" lon="6.5048">
        <ele>1216.3</ele>
        <time>2025-08-15T13:31:34Z</time>
      </trkpt>
      <trkpt lat="45.79487" lon="6.50479">
        <ele>1216.3</ele>
        <time>2025-08-15T13:31:35Z</time>
      </trkpt>
      <trkpt lat="45.79486" lon="6.50478">
        <ele>1216.3</ele>
        <time>2025-08-15T13:31:36Z</time>
      </trkpt>
      <trkpt lat="45.79486" lon="6.50478">
        <ele>1216.2</ele>
        <time>2025-08-15T13:31:37Z</time>
      </trkpt>
      <trkpt lat="45.79485" lon="6.50478">
        <ele>1216.2</ele>
        <time>2025-08-15T13:31:38Z</time>
      </trkpt>
      <trkpt lat="45.79485" lon="6.50478">
        <ele>1216.2</ele>
        <time>2025-08-15T13:31:39Z</time>
      </trkpt>
      <trkpt lat="45.79485" lon="6.50477">
        <ele>1216.2</ele>
        <time>2025-08-15T13:31:40Z</time>
      </trkpt>
      <trkpt lat="45.79484" lon="6.50477">
        <ele>1216.2</ele>
        <time>2025-08-15T13:31:41Z</time>
      </trkpt>
      <trkpt lat="45.79484" lon="6.50477">
        <ele>1216.2</ele>
        <time>2025-08-15T13:31:42Z</time>
      </trkpt>
      <trkpt lat="45.79483" lon="6.50476">
        <ele>1216.2</ele>
        <time>2025-08-15T13:31:43Z</time>
      </trkpt>
      <trkpt lat="45.79483" lon="6.50476">
        <ele>1216.2</ele>
        <time>2025-08-15T13:31:44Z</time>
      </trkpt>
      <trkpt lat="45.79483" lon="6.50476">
        <ele>1216.2</ele>
        <time>2025-08-15T13:31:45Z</time>
      </trkpt>
      <trkpt lat="45.79482" lon="6.50475">
        <ele>1216.1</ele>
        <time>2025-08-15T13:31:53Z</time>
      </trkpt>
      <trkpt lat="45.79482" lon="6.50475">
        <ele>1216.1</ele>
        <time>2025-08-15T13:31:54Z</time>
      </trkpt>
      <trkpt lat="45.79479" lon="6.50476">
        <ele>1216.1</ele>
        <time>2025-08-15T13:31:55Z</time>
      </trkpt>
      <trkpt lat="45.79476" lon="6.50478">
        <ele>1216</ele>
        <time>2025-08-15T13:31:56Z</time>
      </trkpt>
      <trkpt lat="45.79475" lon="6.50479">
        <ele>1216</ele>
        <time>2025-08-15T13:31:57Z</time>
      </trkpt>
      <trkpt lat="45.79474" lon="6.50481">
        <ele>1216</ele>
        <time>2025-08-15T13:31:58Z</time>
      </trkpt>
      <trkpt lat="45.79476" lon="6.50483">
        <ele>1216</ele>
        <time>2025-08-15T13:31:59Z</time>
      </trkpt>
      <trkpt lat="45.79477" lon="6.50483">
        <ele>1216.1</ele>
        <time>2025-08-15T13:32:00Z</time>
      </trkpt>
      <trkpt lat="45.7948" lon="6.50483">
        <ele>1216.1</ele>
        <time>2025-08-15T13:32:01Z</time>
      </trkpt>
      <trkpt lat="45.7948" lon="6.50484">
        <ele>1216.1</ele>
        <time>2025-08-15T13:32:02Z</time>
      </trkpt>
      <trkpt lat="45.7948" lon="6.50485">
        <ele>1216.2</ele>
        <time>2025-08-15T13:32:03Z</time>
      </trkpt>
      <trkpt lat="45.79482" lon="6.50488">
        <ele>1216.2</ele>
        <time>2025-08-15T13:32:04Z</time>
      </trkpt>
      <trkpt lat="45.79483" lon="6.50489">
        <ele>1216.3</ele>
        <time>2025-08-15T13:32:05Z</time>
      </trkpt>
      <trkpt lat="45.79485" lon="6.50492">
        <ele>1216.4</ele>
        <time>2025-08-15T13:32:06Z</time>
      </trkpt>
      <trkpt lat="45.79486" lon="6.50493">
        <ele>1216.4</ele>
        <time>2025-08-15T13:32:07Z</time>
      </trkpt>
      <trkpt lat="45.79488" lon="6.50496">
        <ele>1216.5</ele>
        <time>2025-08-15T13:32:08Z</time>
      </trkpt>
      <trkpt lat="45.79489" lon="6.50497">
        <ele>1216.5</ele>
        <time>2025-08-15T13:32:09Z</time>
      </trkpt>
      <trkpt lat="45.79491" lon="6.505">
        <ele>1216.6</ele>
        <time>2025-08-15T13:32:10Z</time>
      </trkpt>
      <trkpt lat="45.79492" lon="6.50501">
        <ele>1216.7</ele>
        <time>2025-08-15T13:32:11Z</time>
      </trkpt>
      <trkpt lat="45.79493" lon="6.50503">
        <ele>1216.7</ele>
        <time>2025-08-15T13:32:12Z</time>
      </trkpt>
      <trkpt lat="45.79494" lon="6.50504">
        <ele>1216.8</ele>
        <time>2025-08-15T13:32:13Z</time>
      </trkpt>
      <trkpt lat="45.79495" lon="6.50506">
        <ele>1216.9</ele>
        <time>2025-08-15T13:32:14Z</time>
      </trkpt>
      <trkpt lat="45.79496" lon="6.50508">
        <ele>1217</ele>
        <time>2025-08-15T13:32:15Z</time>
      </trkpt>
      <trkpt lat="45.79497" lon="6.50511">
        <ele>1217.1</ele>
        <time>2025-08-15T13:32:16Z</time>
      </trkpt>
      <trkpt lat="45.79498" lon="6.50511">
        <ele>1217.1</ele>
        <time>2025-08-15T13:32:17Z</time>
      </trkpt>
      <trkpt lat="45.79499" lon="6.50512">
        <ele>1217.2</ele>
        <time>2025-08-15T13:32:18Z</time>
      </trkpt>
      <trkpt lat="45.795" lon="6.50515">
        <ele>1217.2</ele>
        <time>2025-08-15T13:32:19Z</time>
      </trkpt>
      <trkpt lat="45.79501" lon="6.50516">
        <ele>1217.3</ele>
        <time>2025-08-15T13:32:20Z</time>
      </trkpt>
      <trkpt lat="45.79502" lon="6.50519">
        <ele>1217.4</ele>
        <time>2025-08-15T13:32:21Z</time>
      </trkpt>
      <trkpt lat="45.79503" lon="6.50521">
        <ele>1217.5</ele>
        <time>2025-08-15T13:32:22Z</time>
      </trkpt>
      <trkpt lat="45.79505" lon="6.50524">
        <ele>1217.6</ele>
        <time>2025-08-15T13:32:23Z</time>
      </trkpt>
      <trkpt lat="45.79505" lon="6.50526">
        <ele>1217.7</ele>
        <time>2025-08-15T13:32:24Z</time>
      </trkpt>
      <trkpt lat="45.79507" lon="6.50529">
        <ele>1217.8</ele>
        <time>2025-08-15T13:32:25Z</time>
      </trkpt>
      <trkpt lat="45.79507" lon="6.5053">
        <ele>1217.8</ele>
        <time>2025-08-15T13:32:26Z</time>
      </trkpt>
      <trkpt lat="45.79508" lon="6.50534">
        <ele>1218</ele>
        <time>2025-08-15T13:32:27Z</time>
      </trkpt>
      <trkpt lat="45.79509" lon="6.50535">
        <ele>1218</ele>
        <time>2025-08-15T13:32:28Z</time>
      </trkpt>
      <trkpt lat="45.7951" lon="6.50537">
        <ele>1218.1</ele>
        <time>2025-08-15T13:32:29Z</time>
      </trkpt>
      <trkpt lat="45.7951" lon="6.50539">
        <ele>1218.2</ele>
        <time>2025-08-15T13:32:30Z</time>
      </trkpt>
      <trkpt lat="45.79511" lon="6.50542">
        <ele>1218.2</ele>
        <time>2025-08-15T13:32:31Z</time>
      </trkpt>
      <trkpt lat="45.79511" lon="6.50543">
        <ele>1218.2</ele>
        <time>2025-08-15T13:32:32Z</time>
      </trkpt>
      <trkpt lat="45.79511" lon="6.50547">
        <ele>1218.3</ele>
        <time>2025-08-15T13:32:33Z</time>
      </trkpt>
      <trkpt lat="45.79512" lon="6.50548">
        <ele>1218.4</ele>
        <time>2025-08-15T13:32:34Z</time>
      </trkpt>
      <trkpt lat="45.79511" lon="6.5055">
        <ele>1218.4</ele>
        <time>2025-08-15T13:32:35Z</time>
      </trkpt>
      <trkpt lat="45.79511" lon="6.50553">
        <ele>1218.5</ele>
        <time>2025-08-15T13:32:36Z</time>
      </trkpt>
      <trkpt lat="45.79511" lon="6.50555">
        <ele>1218.5</ele>
        <time>2025-08-15T13:32:37Z</time>
      </trkpt>
      <trkpt lat="45.7951" lon="6.50557">
        <ele>1218.6</ele>
        <time>2025-08-15T13:32:38Z</time>
      </trkpt>
      <trkpt lat="45.79511" lon="6.50559">
        <ele>1218.6</ele>
        <time>2025-08-15T13:32:39Z</time>
      </trkpt>
      <trkpt lat="45.79513" lon="6.50559">
        <ele>1218.7</ele>
        <time>2025-08-15T13:32:40Z</time>
      </trkpt>
      <trkpt lat="45.79516" lon="6.50557">
        <ele>1218.7</ele>
        <time>2025-08-15T13:32:41Z</time>
      </trkpt>
      <trkpt lat="45.79517" lon="6.50552">
        <ele>1218.6</ele>
        <time>2025-08-15T13:32:42Z</time>
      </trkpt>
      <trkpt lat="45.79517" lon="6.50549">
        <ele>1218.5</ele>
        <time>2025-08-15T13:32:43Z</time>
      </trkpt>
      <trkpt lat="45.79516" lon="6.50545">
        <ele>1218.4</ele>
        <time>2025-08-15T13:32:44Z</time>
      </trkpt>
      <trkpt lat="45.79514" lon="6.50541">
        <ele>1218.3</ele>
        <time>2025-08-15T13:32:45Z</time>
      </trkpt>
      <trkpt lat="45.79513" lon="6.50537">
        <ele>1218.2</ele>
        <time>2025-08-15T13:32:46Z</time>
      </trkpt>
      <trkpt lat="45.79512" lon="6.50533">
        <ele>1218</ele>
        <time>2025-08-15T13:32:47Z</time>
      </trkpt>
      <trkpt lat="45.79511" lon="6.50528">
        <ele>1217.9</ele>
        <time>2025-08-15T13:32:48Z</time>
      </trkpt>
      <trkpt lat="45.7951" lon="6.50526">
        <ele>1217.8</ele>
        <time>2025-08-15T13:32:49Z</time>
      </trkpt>
      <trkpt lat="45.79507" lon="6.50522">
        <ele>1217.6</ele>
        <time>2025-08-15T13:32:50Z</time>
      </trkpt>
      <trkpt lat="45.79505" lon="6.50519">
        <ele>1217.5</ele>
        <time>2025-08-15T13:32:51Z</time>
      </trkpt>
      <trkpt lat="45.79503" lon="6.50516">
        <ele>1217.4</ele>
        <time>2025-08-15T13:32:52Z</time>
      </trkpt>
      <trkpt lat="45.79502" lon="6.50511">
        <ele>1217.2</ele>
        <time>2025-08-15T13:32:53Z</time>
      </trkpt>
      <trkpt lat="45.79501" lon="6.5051">
        <ele>1217.1</ele>
        <time>2025-08-15T13:32:54Z</time>
      </trkpt>
      <trkpt lat="45.79499" lon="6.50507">
        <ele>1217</ele>
        <time>2025-08-15T13:32:55Z</time>
      </trkpt>
      <trkpt lat="45.79497" lon="6.50503">
        <ele>1216.9</ele>
        <time>2025-08-15T13:32:56Z</time>
      </trkpt>
      <trkpt lat="45.79495" lon="6.50499">
        <ele>1216.7</ele>
        <time>2025-08-15T13:32:57Z</time>
      </trkpt>
      <trkpt lat="45.79493" lon="6.50495">
        <ele>1216.6</ele>
        <time>2025-08-15T13:32:58Z</time>
      </trkpt>
      <trkpt lat="45.7949" lon="6.50491">
        <ele>1216.5</ele>
        <time>2025-08-15T13:32:59Z</time>
      </trkpt>
      <trkpt lat="45.79488" lon="6.50487">
        <ele>1216.3</ele>
        <time>2025-08-15T13:33:00Z</time>
      </trkpt>
      <trkpt lat="45.79485" lon="6.50482">
        <ele>1216.2</ele>
        <time>2025-08-15T13:33:01Z</time>
      </trkpt>
      <trkpt lat="45.79482" lon="6.50478">
        <ele>1216.1</ele>
        <time>2025-08-15T13:33:02Z</time>
      </trkpt>
      <trkpt lat="45.79479" lon="6.50473">
        <ele>1215.9</ele>
        <time>2025-08-15T13:33:03Z</time>
      </trkpt>
      <trkpt lat="45.79476" lon="6.50468">
        <ele>1215.8</ele>
        <time>2025-08-15T13:33:04Z</time>
      </trkpt>
      <trkpt lat="45.79472" lon="6.50462">
        <ele>1215.6</ele>
        <time>2025-08-15T13:33:06Z</time>
      </trkpt>
      <trkpt lat="45.79468" lon="6.50457">
        <ele>1215.3</ele>
        <time>2025-08-15T13:33:07Z</time>
      </trkpt>
      <trkpt lat="45.79463" lon="6.50452">
        <ele>1215.1</ele>
        <time>2025-08-15T13:33:08Z</time>
      </trkpt>
      <trkpt lat="45.7946" lon="6.50446">
        <ele>1215</ele>
        <time>2025-08-15T13:33:09Z</time>
      </trkpt>
      <trkpt lat="45.79456" lon="6.50442">
        <ele>1214.9</ele>
        <time>2025-08-15T13:33:10Z</time>
      </trkpt>
      <trkpt lat="45.79453" lon="6.50436">
        <ele>1214.7</ele>
        <time>2025-08-15T13:33:11Z</time>
      </trkpt>
      <trkpt lat="45.7945" lon="6.5043">
        <ele>1214.6</ele>
        <time>2025-08-15T13:33:12Z</time>
      </trkpt>
      <trkpt lat="45.79447" lon="6.50424">
        <ele>1214.6</ele>
        <time>2025-08-15T13:33:13Z</time>
      </trkpt>
      <trkpt lat="45.79444" lon="6.50419">
        <ele>1214.5</ele>
        <time>2025-08-15T13:33:14Z</time>
      </trkpt>
      <trkpt lat="45.79441" lon="6.50415">
        <ele>1214.5</ele>
        <time>2025-08-15T13:33:15Z</time>
      </trkpt>
      <trkpt lat="45.79439" lon="6.50411">
        <ele>1214.4</ele>
        <time>2025-08-15T13:33:16Z</time>
      </trkpt>
      <trkpt lat="45.79437" lon="6.50406">
        <ele>1214.4</ele>
        <time>2025-08-15T13:33:17Z</time>
      </trkpt>
      <trkpt lat="45.79436" lon="6.50402">
        <ele>1214.3</ele>
        <time>2025-08-15T13:33:18Z</time>
      </trkpt>
      <trkpt lat="45.79433" lon="6.50398">
        <ele>1214.3</ele>
        <time>2025-08-15T13:33:19Z</time>
      </trkpt>
      <trkpt lat="45.7943" lon="6.50401">
        <ele>1214.2</ele>
        <time>2025-08-15T13:33:20Z</time>
      </trkpt>
      <trkpt lat="45.79429" lon="6.50403">
        <ele>1214.3</ele>
        <time>2025-08-15T13:33:21Z</time>
      </trkpt>
      <trkpt lat="45.79431" lon="6.50407">
        <ele>1214.3</ele>
        <time>2025-08-15T13:33:22Z</time>
      </trkpt>
      <trkpt lat="45.79432" lon="6.50408">
        <ele>1214.3</ele>
        <time>2025-08-15T13:33:23Z</time>
      </trkpt>
      <trkpt lat="45.79435" lon="6.50411">
        <ele>1214.4</ele>
        <time>2025-08-15T13:33:24Z</time>
      </trkpt>
      <trkpt lat="45.79436" lon="6.50412">
        <ele>1214.4</ele>
        <time>2025-08-15T13:33:25Z</time>
      </trkpt>
      <trkpt lat="45.79438" lon="6.50416">
        <ele>1214.4</ele>
        <time>2025-08-15T13:33:26Z</time>
      </trkpt>
      <trkpt lat="45.7944" lon="6.50419">
        <ele>1214.5</ele>
        <time>2025-08-15T13:33:27Z</time>
      </trkpt>
      <trkpt lat="45.79442" lon="6.50423">
        <ele>1214.5</ele>
        <time>2025-08-15T13:33:28Z</time>
      </trkpt>
      <trkpt lat="45.79443" lon="6.50428">
        <ele>1214.6</ele>
        <time>2025-08-15T13:33:29Z</time>
      </trkpt>
      <trkpt lat="45.79445" lon="6.50433">
        <ele>1214.6</ele>
        <time>2025-08-15T13:33:30Z</time>
      </trkpt>
      <trkpt lat="45.79447" lon="6.50437">
        <ele>1214.7</ele>
        <time>2025-08-15T13:33:31Z</time>
      </trkpt>
      <trkpt lat="45.79448" lon="6.50442">
        <ele>1214.7</ele>
        <time>2025-08-15T13:33:32Z</time>
      </trkpt>
      <trkpt lat="45.7945" lon="6.50446">
        <ele>1214.8</ele>
        <time>2025-08-15T13:33:33Z</time>
      </trkpt>
      <trkpt lat="45.79452" lon="6.5045">
        <ele>1214.9</ele>
        <time>2025-08-15T13:33:34Z</time>
      </trkpt>
      <trkpt lat="45.79454" lon="6.50454">
        <ele>1215</ele>
        <time>2025-08-15T13:33:35Z</time>
      </trkpt>
      <trkpt lat="45.79457" lon="6.50458">
        <ele>1215.1</ele>
        <time>2025-08-15T13:33:36Z</time>
      </trkpt>
      <trkpt lat="45.7946" lon="6.50461">
        <ele>1215.2</ele>
        <time>2025-08-15T13:33:37Z</time>
      </trkpt>
      <trkpt lat="45.79462" lon="6.50464">
        <ele>1215.3</ele>
        <time>2025-08-15T13:33:38Z</time>
      </trkpt>
      <trkpt lat="45.79465" lon="6.50467">
        <ele>1215.5</ele>
        <time>2025-08-15T13:33:39Z</time>
      </trkpt>
      <trkpt lat="45.79468" lon="6.5047">
        <ele>1215.6</ele>
        <time>2025-08-15T13:33:40Z</time>
      </trkpt>
      <trkpt lat="45.79471" lon="6.50473">
        <ele>1215.7</ele>
        <time>2025-08-15T13:33:41Z</time>
      </trkpt>
      <trkpt lat="45.79474" lon="6.50475">
        <ele>1215.8</ele>
        <time>2025-08-15T13:33:42Z</time>
      </trkpt>
      <trkpt lat="45.79476" lon="6.50479">
        <ele>1216</ele>
        <time>2025-08-15T13:33:43Z</time>
      </trkpt>
      <trkpt lat="45.79479" lon="6.50482">
        <ele>1216.1</ele>
        <time>2025-08-15T13:33:44Z</time>
      </trkpt>
      <trkpt lat="45.79481" lon="6.50486">
        <ele>1216.2</ele>
        <time>2025-08-15T13:33:45Z</time>
      </trkpt>
      <trkpt lat="45.79486" lon="6.50494">
        <ele>1216.4</ele>
        <time>2025-08-15T13:33:46Z</time>
      </trkpt>
      <trkpt lat="45.79488" lon="6.50498">
        <ele>1216.5</ele>
        <time>2025-08-15T13:33:47Z</time>
      </trkpt>
      <trkpt lat="45.79489" lon="6.50501">
        <ele>1216.6</ele>
        <time>2025-08-15T13:33:48Z</time>
      </trkpt>
      <trkpt lat="45.79492" lon="6.50505">
        <ele>1216.8</ele>
        <time>2025-08-15T13:33:49Z</time>
      </trkpt>
      <trkpt lat="45.79492" lon="6.50507">
        <ele>1216.8</ele>
        <time>2025-08-15T13:33:50Z</time>
      </trkpt>
      <trkpt lat="45.79494" lon="6.50508">
        <ele>1216.9</ele>
        <time>2025-08-15T13:33:51Z</time>
      </trkpt>
      <trkpt lat="45.79495" lon="6.5051">
        <ele>1216.9</ele>
        <time>2025-08-15T13:33:52Z</time>
      </trkpt>
      <trkpt lat="45.79496" lon="6.50511">
        <ele>1217</ele>
        <time>2025-08-15T13:33:53Z</time>
      </trkpt>
      <trkpt lat="45.79497" lon="6.5051">
        <ele>1217.1</ele>
        <time>2025-08-15T13:33:54Z</time>
      </trkpt>
      <trkpt lat="45.79498" lon="6.5051">
        <ele>1217.1</ele>
        <time>2025-08-15T13:33:55Z</time>
      </trkpt>
      <trkpt lat="45.79499" lon="6.50508">
        <ele>1217</ele>
        <time>2025-08-15T13:33:56Z</time>
      </trkpt>
      <trkpt lat="45.79498" lon="6.50505">
        <ele>1216.9</ele>
        <time>2025-08-15T13:33:57Z</time>
      </trkpt>
      <trkpt lat="45.79496" lon="6.50502">
        <ele>1216.8</ele>
        <time>2025-08-15T13:33:58Z</time>
      </trkpt>
      <trkpt lat="45.79495" lon="6.50501">
        <ele>1216.7</ele>
        <time>2025-08-15T13:33:59Z</time>
      </trkpt>
      <trkpt lat="45.79494" lon="6.50498">
        <ele>1216.7</ele>
        <time>2025-08-15T13:34:00Z</time>
      </trkpt>
      <trkpt lat="45.79493" lon="6.50496">
        <ele>1216.6</ele>
        <time>2025-08-15T13:34:01Z</time>
      </trkpt>
      <trkpt lat="45.79492" lon="6.50494">
        <ele>1216.5</ele>
        <time>2025-08-15T13:34:02Z</time>
      </trkpt>
      <trkpt lat="45.79492" lon="6.50492">
        <ele>1216.5</ele>
        <time>2025-08-15T13:34:03Z</time>
      </trkpt>
      <trkpt lat="45.79491" lon="6.5049">
        <ele>1216.4</ele>
        <time>2025-08-15T13:34:04Z</time>
      </trkpt>
      <trkpt lat="45.7949" lon="6.50488">
        <ele>1216.4</ele>
        <time>2025-08-15T13:34:05Z</time>
      </trkpt>
      <trkpt lat="45.79489" lon="6.50486">
        <ele>1216.4</ele>
        <time>2025-08-15T13:34:06Z</time>
      </trkpt>
      <trkpt lat="45.79488" lon="6.50484">
        <ele>1216.3</ele>
        <time>2025-08-15T13:34:07Z</time>
      </trkpt>
      <trkpt lat="45.79487" lon="6.50481">
        <ele>1216.2</ele>
        <time>2025-08-15T13:34:08Z</time>
      </trkpt>
      <trkpt lat="45.79487" lon="6.50479">
        <ele>1216.2</ele>
        <time>2025-08-15T13:34:09Z</time>
      </trkpt>
      <trkpt lat="45.79486" lon="6.50477">
        <ele>1216.1</ele>
        <time>2025-08-15T13:34:10Z</time>
      </trkpt>
      <trkpt lat="45.79485" lon="6.50475">
        <ele>1216.1</ele>
        <time>2025-08-15T13:34:11Z</time>
      </trkpt>
      <trkpt lat="45.79483" lon="6.50471">
        <ele>1216</ele>
        <time>2025-08-15T13:34:12Z</time>
      </trkpt>
      <trkpt lat="45.79482" lon="6.5047">
        <ele>1216</ele>
        <time>2025-08-15T13:34:13Z</time>
      </trkpt>
      <trkpt lat="45.7948" lon="6.50467">
        <ele>1215.9</ele>
        <time>2025-08-15T13:34:14Z</time>
      </trkpt>
      <trkpt lat="45.79479" lon="6.50466">
        <ele>1215.8</ele>
        <time>2025-08-15T13:34:15Z</time>
      </trkpt>
      <trkpt lat="45.79476" lon="6.50463">
        <ele>1215.7</ele>
        <time>2025-08-15T13:34:16Z</time>
      </trkpt>
      <trkpt lat="45.79474" lon="6.50463">
        <ele>1215.6</ele>
        <time>2025-08-15T13:34:17Z</time>
      </trkpt>
      <trkpt lat="45.79472" lon="6.5046">
        <ele>1215.5</ele>
        <time>2025-08-15T13:34:18Z</time>
      </trkpt>
      <trkpt lat="45.79469" lon="6.50458">
        <ele>1215.4</ele>
        <time>2025-08-15T13:34:19Z</time>
      </trkpt>
      <trkpt lat="45.79466" lon="6.50455">
        <ele>1215.3</ele>
        <time>2025-08-15T13:34:20Z</time>
      </trkpt>
      <trkpt lat="45.79464" lon="6.50452">
        <ele>1215.1</ele>
        <time>2025-08-15T13:34:21Z</time>
      </trkpt>
      <trkpt lat="45.79461" lon="6.50449">
        <ele>1215</ele>
        <time>2025-08-15T13:34:22Z</time>
      </trkpt>
      <trkpt lat="45.79458" lon="6.50443">
        <ele>1214.9</ele>
        <time>2025-08-15T13:34:23Z</time>
      </trkpt>
      <trkpt lat="45.79456" lon="6.50441">
        <ele>1214.9</ele>
        <time>2025-08-15T13:34:24Z</time>
      </trkpt>
      <trkpt lat="45.79453" lon="6.50437">
        <ele>1214.8</ele>
        <time>2025-08-15T13:34:25Z</time>
      </trkpt>
      <trkpt lat="45.79452" lon="6.50434">
        <ele>1214.7</ele>
        <time>2025-08-15T13:34:26Z</time>
      </trkpt>
      <trkpt lat="45.79451" lon="6.5043">
        <ele>1214.6</ele>
        <time>2025-08-15T13:34:27Z</time>
      </trkpt>
      <trkpt lat="45.7945" lon="6.50426">
        <ele>1214.6</ele>
        <time>2025-08-15T13:34:28Z</time>
      </trkpt>
      <trkpt lat="45.79448" lon="6.50423">
        <ele>1214.6</ele>
        <time>2025-08-15T13:34:29Z</time>
      </trkpt>
      <trkpt lat="45.79446" lon="6.50419">
        <ele>1214.5</ele>
        <time>2025-08-15T13:34:30Z</time>
      </trkpt>
      <trkpt lat="45.79444" lon="6.50416">
        <ele>1214.5</ele>
        <time>2025-08-15T13:34:31Z</time>
      </trkpt>
      <trkpt lat="45.79442" lon="6.50413">
        <ele>1214.4</ele>
        <time>2025-08-15T13:34:32Z</time>
      </trkpt>
      <trkpt lat="45.7944" lon="6.50409">
        <ele>1214.4</ele>
        <time>2025-08-15T13:34:33Z</time>
      </trkpt>
      <trkpt lat="45.79438" lon="6.50406">
        <ele>1214.3</ele>
        <time>2025-08-15T13:34:34Z</time>
      </trkpt>
      <trkpt lat="45.79437" lon="6.50405">
        <ele>1214.3</ele>
        <time>2025-08-15T13:34:35Z</time>
      </trkpt>
      <trkpt lat="45.79434" lon="6.504">
        <ele>1214.3</ele>
        <time>2025-08-15T13:34:36Z</time>
      </trkpt>
      <trkpt lat="45.79433" lon="6.50399">
        <ele>1214.2</ele>
        <time>2025-08-15T13:34:37Z</time>
      </trkpt>
      <trkpt lat="45.7943" lon="6.50395">
        <ele>1214.2</ele>
        <time>2025-08-15T13:34:38Z</time>
      </trkpt>
      <trkpt lat="45.79428" lon="6.50392">
        <ele>1214.2</ele>
        <time>2025-08-15T13:34:39Z</time>
      </trkpt>
      <trkpt lat="45.79425" lon="6.50388">
        <ele>1214.1</ele>
        <time>2025-08-15T13:34:40Z</time>
      </trkpt>
      <trkpt lat="45.79422" lon="6.50385">
        <ele>1214</ele>
        <time>2025-08-15T13:34:41Z</time>
      </trkpt>
      <trkpt lat="45.79419" lon="6.50382">
        <ele>1214</ele>
        <time>2025-08-15T13:34:42Z</time>
      </trkpt>
      <trkpt lat="45.79416" lon="6.50379">
        <ele>1213.9</ele>
        <time>2025-08-15T13:34:43Z</time>
      </trkpt>
      <trkpt lat="45.79413" lon="6.50376">
        <ele>1213.9</ele>
        <time>2025-08-15T13:34:44Z</time>
      </trkpt>
      <trkpt lat="45.7941" lon="6.50373">
        <ele>1213.9</ele>
        <time>2025-08-15T13:34:45Z</time>
      </trkpt>
      <trkpt lat="45.79408" lon="6.5037">
        <ele>1213.8</ele>
        <time>2025-08-15T13:34:46Z</time>
      </trkpt>
      <trkpt lat="45.79406" lon="6.50367">
        <ele>1213.8</ele>
        <time>2025-08-15T13:34:47Z</time>
      </trkpt>
      <trkpt lat="45.79405" lon="6.50366">
        <ele>1213.8</ele>
        <time>2025-08-15T13:34:48Z</time>
      </trkpt>
      <trkpt lat="45.79404" lon="6.50364">
        <ele>1213.8</ele>
        <time>2025-08-15T13:34:49Z</time>
      </trkpt>
      <trkpt lat="45.79404" lon="6.50365">
        <ele>1213.8</ele>
        <time>2025-08-15T13:34:50Z</time>
      </trkpt>
      <trkpt lat="45.79404" lon="6.50366">
        <ele>1213.8</ele>
        <time>2025-08-15T13:34:51Z</time>
      </trkpt>
      <trkpt lat="45.79404" lon="6.50366">
        <ele>1213.8</ele>
        <time>2025-08-15T13:34:52Z</time>
      </trkpt>
      <trkpt lat="45.79404" lon="6.50366">
        <ele>1213.8</ele>
        <time>2025-08-15T13:34:53Z</time>
      </trkpt>
      <trkpt lat="45.79403" lon="6.50366">
        <ele>1213.8</ele>
        <time>2025-08-15T13:34:54Z</time>
      </trkpt>
      <trkpt lat="45.79403" lon="6.50366">
        <ele>1213.8</ele>
        <time>2025-08-15T13:34:55Z</time>
      </trkpt>
      <trkpt lat="45.79405" lon="6.50371">
        <ele>1213.9</ele>
        <time>2025-08-15T13:34:56Z</time>
      </trkpt>
      <trkpt lat="45.79409" lon="6.50376">
        <ele>1213.9</ele>
        <time>2025-08-15T13:34:57Z</time>
      </trkpt>
      <trkpt lat="45.79412" lon="6.50382">
        <ele>1214</ele>
        <time>2025-08-15T13:34:58Z</time>
      </trkpt>
      <trkpt lat="45.79415" lon="6.50387">
        <ele>1214</ele>
        <time>2025-08-15T13:34:59Z</time>
      </trkpt>
      <trkpt lat="45.79418" lon="6.50392">
        <ele>1214.1</ele>
        <time>2025-08-15T13:35:00Z</time>
      </trkpt>
      <trkpt lat="45.79421" lon="6.50398">
        <ele>1214.2</ele>
        <time>2025-08-15T13:35:45Z</time>
      </trkpt>
      <trkpt lat="45.79424" lon="6.50403">
        <ele>1214.2</ele>
        <time>2025-08-15T13:35:46Z</time>
      </trkpt>
      <trkpt lat="45.79427" lon="6.50408">
        <ele>1214.3</ele>
        <time>2025-08-15T13:35:47Z</time>
      </trkpt>
      <trkpt lat="45.7943" lon="6.50411">
        <ele>1214.3</ele>
        <time>2025-08-15T13:35:48Z</time>
      </trkpt>
      <trkpt lat="45.79431" lon="6.50412">
        <ele>1214.3</ele>
        <time>2025-08-15T13:35:49Z</time>
      </trkpt>
      <trkpt lat="45.79433" lon="6.50415">
        <ele>1214.4</ele>
        <time>2025-08-15T13:35:50Z</time>
      </trkpt>
      <trkpt lat="45.79434" lon="6.50416">
        <ele>1214.4</ele>
        <time>2025-08-15T13:35:51Z</time>
      </trkpt>
      <trkpt lat="45.79436" lon="6.5042">
        <ele>1214.4</ele>
        <time>2025-08-15T13:35:52Z</time>
      </trkpt>
      <trkpt lat="45.79436" lon="6.50421">
        <ele>1214.5</ele>
        <time>2025-08-15T13:35:53Z</time>
      </trkpt>
      <trkpt lat="45.79438" lon="6.50425">
        <ele>1214.5</ele>
        <time>2025-08-15T13:35:54Z</time>
      </trkpt>
      <trkpt lat="45.79438" lon="6.50426">
        <ele>1214.5</ele>
        <time>2025-08-15T13:35:55Z</time>
      </trkpt>
      <trkpt lat="45.7944" lon="6.5043">
        <ele>1214.5</ele>
        <time>2025-08-15T13:35:56Z</time>
      </trkpt>
      <trkpt lat="45.7944" lon="6.50432">
        <ele>1214.6</ele>
        <time>2025-08-15T13:35:57Z</time>
      </trkpt>
      <trkpt lat="45.79442" lon="6.50436">
        <ele>1214.6</ele>
        <time>2025-08-15T13:35:58Z</time>
      </trkpt>
      <trkpt lat="45.79442" lon="6.50437">
        <ele>1214.6</ele>
        <time>2025-08-15T13:35:59Z</time>
      </trkpt>
      <trkpt lat="45.79444" lon="6.5044">
        <ele>1214.7</ele>
        <time>2025-08-15T13:36:00Z</time>
      </trkpt>
      <trkpt lat="45.79445" lon="6.50442">
        <ele>1214.7</ele>
        <time>2025-08-15T13:36:01Z</time>
      </trkpt>
      <trkpt lat="45.79447" lon="6.50446">
        <ele>1214.9</ele>
        <time>2025-08-15T13:36:02Z</time>
      </trkpt>
      <trkpt lat="45.79447" lon="6.50447">
        <ele>1214.9</ele>
        <time>2025-08-15T13:36:03Z</time>
      </trkpt>
      <trkpt lat="45.79449" lon="6.50451">
        <ele>1215</ele>
        <time>2025-08-15T13:36:04Z</time>
      </trkpt>
      <trkpt lat="45.7945" lon="6.50451">
        <ele>1215.1</ele>
        <time>2025-08-15T13:36:05Z</time>
      </trkpt>
      <trkpt lat="45.79452" lon="6.50454">
        <ele>1215.2</ele>
        <time>2025-08-15T13:36:06Z</time>
      </trkpt>
      <trkpt lat="45.79453" lon="6.50455">
        <ele>1215.3</ele>
        <time>2025-08-15T13:36:07Z</time>
      </trkpt>
      <trkpt lat="45.79456" lon="6.50459">
        <ele>1215.5</ele>
        <time>2025-08-15T13:36:08Z</time>
      </trkpt>
      <trkpt lat="45.79457" lon="6.50461">
        <ele>1215.5</ele>
        <time>2025-08-15T13:36:09Z</time>
      </trkpt>
      <trkpt lat="45.7946" lon="6.50464">
        <ele>1215.7</ele>
        <time>2025-08-15T13:36:10Z</time>
      </trkpt>
      <trkpt lat="45.79461" lon="6.50465">
        <ele>1215.8</ele>
        <time>2025-08-15T13:36:11Z</time>
      </trkpt>
      <trkpt lat="45.79463" lon="6.50468">
        <ele>1216.1</ele>
        <time>2025-08-15T13:36:12Z</time>
      </trkpt>
      <trkpt lat="45.79465" lon="6.50473">
        <ele>1216.6</ele>
        <time>2025-08-15T13:36:13Z</time>
      </trkpt>
      <trkpt lat="45.79465" lon="6.50475">
        <ele>1216.8</ele>
        <time>2025-08-15T13:36:14Z</time>
      </trkpt>
      <trkpt lat="45.79463" lon="6.50479">
        <ele>1217.2</ele>
        <time>2025-08-15T13:36:15Z</time>
      </trkpt>
      <trkpt lat="45.79463" lon="6.5048">
        <ele>1217.3</ele>
        <time>2025-08-15T13:36:16Z</time>
      </trkpt>
      <trkpt lat="45.79461" lon="6.50481">
        <ele>1217.5</ele>
        <time>2025-08-15T13:36:17Z</time>
      </trkpt>
      <trkpt lat="45.7946" lon="6.50482">
        <ele>1217.7</ele>
        <time>2025-08-15T13:36:18Z</time>
      </trkpt>
      <trkpt lat="45.79458" lon="6.50485">
        <ele>1218.1</ele>
        <time>2025-08-15T13:36:19Z</time>
      </trkpt>
      <trkpt lat="45.79457" lon="6.50486">
        <ele>1218.2</ele>
        <time>2025-08-15T13:36:20Z</time>
      </trkpt>
      <trkpt lat="45.79455" lon="6.50489">
        <ele>1218.4</ele>
        <time>2025-08-15T13:36:21Z</time>
      </trkpt>
      <trkpt lat="45.79455" lon="6.5049">
        <ele>1218.4</ele>
        <time>2025-08-15T13:36:22Z</time>
      </trkpt>
      <trkpt lat="45.79453" lon="6.50492">
        <ele>1218.4</ele>
        <time>2025-08-15T13:36:23Z</time>
      </trkpt>
      <trkpt lat="45.79452" lon="6.50494">
        <ele>1218.4</ele>
        <time>2025-08-15T13:36:24Z</time>
      </trkpt>
      <trkpt lat="45.79451" lon="6.50496">
        <ele>1218.4</ele>
        <time>2025-08-15T13:36:25Z</time>
      </trkpt>
      <trkpt lat="45.7945" lon="6.50497">
        <ele>1218.4</ele>
        <time>2025-08-15T13:36:26Z</time>
      </trkpt>
      <trkpt lat="45.7945" lon="6.50497">
        <ele>1218.4</ele>
        <time>2025-08-15T13:36:27Z</time>
      </trkpt>
      <trkpt lat="45.79449" lon="6.50497">
        <ele>1218.4</ele>
        <time>2025-08-15T13:36:28Z</time>
      </trkpt>
      <trkpt lat="45.79449" lon="6.50497">
        <ele>1218.4</ele>
        <time>2025-08-15T13:36:29Z</time>
      </trkpt>
      <trkpt lat="45.79448" lon="6.50498">
        <ele>1218.4</ele>
        <time>2025-08-15T13:36:30Z</time>
      </trkpt>
      <trkpt lat="45.79447" lon="6.50497">
        <ele>1218.4</ele>
        <time>2025-08-15T13:36:31Z</time>
      </trkpt>
      <trkpt lat="45.79446" lon="6.50497">
        <ele>1218.4</ele>
        <time>2025-08-15T13:36:32Z</time>
      </trkpt>
      <trkpt lat="45.79445" lon="6.50496">
        <ele>1218.4</ele>
        <time>2025-08-15T13:36:33Z</time>
      </trkpt>
      <trkpt lat="45.79444" lon="6.50495">
        <ele>1218.4</ele>
        <time>2025-08-15T13:36:34Z</time>
      </trkpt>
      <trkpt lat="45.79444" lon="6.50494">
        <ele>1218.4</ele>
        <time>2025-08-15T13:36:35Z</time>
      </trkpt>
      <trkpt lat="45.79442" lon="6.50494">
        <ele>1218.4</ele>
        <time>2025-08-15T13:36:36Z</time>
      </trkpt>
      <trkpt lat="45.79441" lon="6.50492">
        <ele>1218.4</ele>
        <time>2025-08-15T13:36:37Z</time>
      </trkpt>
      <trkpt lat="45.7944" lon="6.50489">
        <ele>1218.4</ele>
        <time>2025-08-15T13:36:38Z</time>
      </trkpt>
      <trkpt lat="45.79439" lon="6.50485">
        <ele>1218.4</ele>
        <time>2025-08-15T13:36:39Z</time>
      </trkpt>
      <trkpt lat="45.79438" lon="6.50483">
        <ele>1218.3</ele>
        <time>2025-08-15T13:36:40Z</time>
      </trkpt>
      <trkpt lat="45.79437" lon="6.50481">
        <ele>1218.3</ele>
        <time>2025-08-15T13:36:41Z</time>
      </trkpt>
      <trkpt lat="45.79436" lon="6.50479">
        <ele>1218.3</ele>
        <time>2025-08-15T13:36:42Z</time>
      </trkpt>
      <trkpt lat="45.79436" lon="6.50478">
        <ele>1218.3</ele>
        <time>2025-08-15T13:36:43Z</time>
      </trkpt>
      <trkpt lat="45.79435" lon="6.50477">
        <ele>1218.3</ele>
        <time>2025-08-15T13:36:44Z</time>
      </trkpt>
      <trkpt lat="45.79435" lon="6.50478">
        <ele>1218.3</ele>
        <time>2025-08-15T13:36:45Z</time>
      </trkpt>
      <trkpt lat="45.79435" lon="6.50478">
        <ele>1218.3</ele>
        <time>2025-08-15T13:36:46Z</time>
      </trkpt>
      <trkpt lat="45.79435" lon="6.50479">
        <ele>1218.3</ele>
        <time>2025-08-15T13:36:47Z</time>
      </trkpt>
      <trkpt lat="45.79435" lon="6.50479">
        <ele>1218.3</ele>
        <time>2025-08-15T13:36:48Z</time>
      </trkpt>
      <trkpt lat="45.79435" lon="6.50479">
        <ele>1218.3</ele>
        <time>2025-08-15T13:36:49Z</time>
      </trkpt>
      <trkpt lat="45.79434" lon="6.5048">
        <ele>1218.3</ele>
        <time>2025-08-15T13:36:50Z</time>
      </trkpt>
      <trkpt lat="45.79434" lon="6.5048">
        <ele>1218.3</ele>
        <time>2025-08-15T13:36:51Z</time>
      </trkpt>
      <trkpt lat="45.79433" lon="6.5048">
        <ele>1218.3</ele>
        <time>2025-08-15T13:36:52Z</time>
      </trkpt>
      <trkpt lat="45.79434" lon="6.50479">
        <ele>1218.3</ele>
        <time>2025-08-15T13:36:53Z</time>
      </trkpt>
      <trkpt lat="45.79432" lon="6.50479">
        <ele>1218.3</ele>
        <time>2025-08-15T13:36:54Z</time>
      </trkpt>
      <trkpt lat="45.79439" lon="6.50476">
        <ele>1218.3</ele>
        <time>2025-08-15T13:37:18Z</time>
      </trkpt>
      <trkpt lat="45.79439" lon="6.50475">
        <ele>1218.3</ele>
        <time>2025-08-15T13:37:19Z</time>
      </trkpt>
      <trkpt lat="45.79439" lon="6.50475">
        <ele>1218.3</ele>
        <time>2025-08-15T13:37:20Z</time>
      </trkpt>
      <trkpt lat="45.79439" lon="6.50474">
        <ele>1218.3</ele>
        <time>2025-08-15T13:37:21Z</time>
      </trkpt>
      <trkpt lat="45.79439" lon="6.50474">
        <ele>1218.3</ele>
        <time>2025-08-15T13:37:22Z</time>
      </trkpt>
      <trkpt lat="45.7944" lon="6.50473">
        <ele>1218.3</ele>
        <time>2025-08-15T13:37:23Z</time>
      </trkpt>
      <trkpt lat="45.7944" lon="6.50473">
        <ele>1218.3</ele>
        <time>2025-08-15T13:37:24Z</time>
      </trkpt>
      <trkpt lat="45.79441" lon="6.50473">
        <ele>1218.3</ele>
        <time>2025-08-15T13:37:25Z</time>
      </trkpt>
      <trkpt lat="45.79441" lon="6.50473">
        <ele>1218.3</ele>
        <time>2025-08-15T13:37:26Z</time>
      </trkpt>
      <trkpt lat="45.79442" lon="6.50473">
        <ele>1218.3</ele>
        <time>2025-08-15T13:37:27Z</time>
      </trkpt>
      <trkpt lat="45.79444" lon="6.50472">
        <ele>1218.3</ele>
        <time>2025-08-15T13:37:28Z</time>
      </trkpt>
      <trkpt lat="45.79444" lon="6.50472">
        <ele>1218.3</ele>
        <time>2025-08-15T13:37:29Z</time>
      </trkpt>
      <trkpt lat="45.79444" lon="6.50473">
        <ele>1218.3</ele>
        <time>2025-08-15T13:37:30Z</time>
      </trkpt>
      <trkpt lat="45.79445" lon="6.50473">
        <ele>1218.3</ele>
        <time>2025-08-15T13:37:31Z</time>
      </trkpt>
      <trkpt lat="45.79445" lon="6.50473">
        <ele>1218.3</ele>
        <time>2025-08-15T13:37:32Z</time>
      </trkpt>
      <trkpt lat="45.79446" lon="6.50473">
        <ele>1218.3</ele>
        <time>2025-08-15T13:37:33Z</time>
      </trkpt>
      <trkpt lat="45.79446" lon="6.50473">
        <ele>1218.3</ele>
        <time>2025-08-15T13:37:34Z</time>
      </trkpt>
      <trkpt lat="45.79446" lon="6.50473">
        <ele>1218.3</ele>
        <time>2025-08-15T13:37:35Z</time>
      </trkpt>
      <trkpt lat="45.79446" lon="6.50471">
        <ele>1218.3</ele>
        <time>2025-08-15T13:37:36Z</time>
      </trkpt>
      <trkpt lat="45.79447" lon="6.5047">
        <ele>1218.3</ele>
        <time>2025-08-15T13:37:37Z</time>
      </trkpt>
      <trkpt lat="45.79441" lon="6.50464">
        <ele>1218.2</ele>
        <time>2025-08-15T13:39:15Z</time>
      </trkpt>
      <trkpt lat="45.79441" lon="6.50465">
        <ele>1218.2</ele>
        <time>2025-08-15T13:39:16Z</time>
      </trkpt>
      <trkpt lat="45.7944" lon="6.50466">
        <ele>1218.2</ele>
        <time>2025-08-15T13:39:17Z</time>
      </trkpt>
      <trkpt lat="45.79438" lon="6.50467">
        <ele>1218.2</ele>
        <time>2025-08-15T13:39:18Z</time>
      </trkpt>
      <trkpt lat="45.79437" lon="6.50468">
        <ele>1218.2</ele>
        <time>2025-08-15T13:39:19Z</time>
      </trkpt>
      <trkpt lat="45.79437" lon="6.50468">
        <ele>1218.2</ele>
        <time>2025-08-15T13:39:20Z</time>
      </trkpt>
      <trkpt lat="45.79435" lon="6.5047">
        <ele>1218.2</ele>
        <time>2025-08-15T13:39:21Z</time>
      </trkpt>
      <trkpt lat="45.79435" lon="6.50471">
        <ele>1218.2</ele>
        <time>2025-08-15T13:39:22Z</time>
      </trkpt>
      <trkpt lat="45.79434" lon="6.50472">
        <ele>1218.2</ele>
        <time>2025-08-15T13:39:23Z</time>
      </trkpt>
      <trkpt lat="45.79433" lon="6.50473">
        <ele>1218.2</ele>
        <time>2025-08-15T13:39:24Z</time>
      </trkpt>
      <trkpt lat="45.79432" lon="6.50474">
        <ele>1218.2</ele>
        <time>2025-08-15T13:39:25Z</time>
      </trkpt>
      <trkpt lat="45.79431" lon="6.50475">
        <ele>1218.2</ele>
        <time>2025-08-15T13:39:26Z</time>
      </trkpt>
      <trkpt lat="45.79431" lon="6.50476">
        <ele>1218.2</ele>
        <time>2025-08-15T13:39:27Z</time>
      </trkpt>
      <trkpt lat="45.79431" lon="6.50477">
        <ele>1218.2</ele>
        <time>2025-08-15T13:39:28Z</time>
      </trkpt>
      <trkpt lat="45.79431" lon="6.50478">
        <ele>1218.2</ele>
        <time>2025-08-15T13:39:29Z</time>
      </trkpt>
      <trkpt lat="45.79431" lon="6.50479">
        <ele>1218.2</ele>
        <time>2025-08-15T13:39:30Z</time>
      </trkpt>
      <trkpt lat="45.79431" lon="6.50479">
        <ele>1218.2</ele>
        <time>2025-08-15T13:39:31Z</time>
      </trkpt>
      <trkpt lat="45.79431" lon="6.50479">
        <ele>1218.2</ele>
        <time>2025-08-15T13:39:32Z</time>
      </trkpt>
      <trkpt lat="45.79431" lon="6.50479">
        <ele>1218.2</ele>
        <time>2025-08-15T13:39:33Z</time>
      </trkpt>
      <trkpt lat="45.79431" lon="6.5048">
        <ele>1218.2</ele>
        <time>2025-08-15T13:39:34Z</time>
      </trkpt>
      <trkpt lat="45.79431" lon="6.50481">
        <ele>1218.2</ele>
        <time>2025-08-15T13:39:35Z</time>
      </trkpt>
      <trkpt lat="45.79431" lon="6.50481">
        <ele>1218.2</ele>
        <time>2025-08-15T13:39:36Z</time>
      </trkpt>
      <trkpt lat="45.7943" lon="6.5048">
        <ele>1218.2</ele>
        <time>2025-08-15T13:39:37Z</time>
      </trkpt>
      <trkpt lat="45.79432" lon="6.5047">
        <ele>1218.1</ele>
        <time>2025-08-15T13:40:35Z</time>
      </trkpt>
      <trkpt lat="45.79431" lon="6.50469">
        <ele>1218.1</ele>
        <time>2025-08-15T13:40:36Z</time>
      </trkpt>
      <trkpt lat="45.7943" lon="6.50468">
        <ele>1218.1</ele>
        <time>2025-08-15T13:40:37Z</time>
      </trkpt>
      <trkpt lat="45.79429" lon="6.50468">
        <ele>1218.1</ele>
        <time>2025-08-15T13:40:38Z</time>
      </trkpt>
      <trkpt lat="45.79429" lon="6.50467">
        <ele>1218.1</ele>
        <time>2025-08-15T13:40:39Z</time>
      </trkpt>
      <trkpt lat="45.79427" lon="6.50464">
        <ele>1218.1</ele>
        <time>2025-08-15T13:40:40Z</time>
      </trkpt>
      <trkpt lat="45.79426" lon="6.50464">
        <ele>1218.1</ele>
        <time>2025-08-15T13:40:41Z</time>
      </trkpt>
      <trkpt lat="45.79427" lon="6.50465">
        <ele>1218.1</ele>
        <time>2025-08-15T13:40:42Z</time>
      </trkpt>
      <trkpt lat="45.79427" lon="6.50465">
        <ele>1218.1</ele>
        <time>2025-08-15T13:40:43Z</time>
      </trkpt>
      <trkpt lat="45.79427" lon="6.50465">
        <ele>1218.1</ele>
        <time>2025-08-15T13:40:44Z</time>
      </trkpt>
      <trkpt lat="45.79427" lon="6.50465">
        <ele>1218.1</ele>
        <time>2025-08-15T13:40:45Z</time>
      </trkpt>
      <trkpt lat="45.79427" lon="6.50466">
        <ele>1218.1</ele>
        <time>2025-08-15T13:40:46Z</time>
      </trkpt>
      <trkpt lat="45.79427" lon="6.50466">
        <ele>1218.1</ele>
        <time>2025-08-15T13:40:47Z</time>
      </trkpt>
      <trkpt lat="45.79427" lon="6.50467">
        <ele>1218.1</ele>
        <time>2025-08-15T13:40:48Z</time>
      </trkpt>
      <trkpt lat="45.79427" lon="6.50467">
        <ele>1218.1</ele>
        <time>2025-08-15T13:40:49Z</time>
      </trkpt>
      <trkpt lat="45.79427" lon="6.50467">
        <ele>1218.1</ele>
        <time>2025-08-15T13:40:50Z</time>
      </trkpt>
      <trkpt lat="45.79427" lon="6.50467">
        <ele>1218.1</ele>
        <time>2025-08-15T13:40:51Z</time>
      </trkpt>
      <trkpt lat="45.79423" lon="6.50482">
        <ele>1218.1</ele>
        <time>2025-08-15T14:13:18Z</time>
      </trkpt>
      <trkpt lat="45.79422" lon="6.50483">
        <ele>1218.1</ele>
        <time>2025-08-15T14:13:19Z</time>
      </trkpt>
      <trkpt lat="45.79422" lon="6.50482">
        <ele>1218.1</ele>
        <time>2025-08-15T14:13:20Z</time>
      </trkpt>
      <trkpt lat="45.79421" lon="6.50483">
        <ele>1218.1</ele>
        <time>2025-08-15T14:13:21Z</time>
      </trkpt>
      <trkpt lat="45.79422" lon="6.50482">
        <ele>1218.1</ele>
        <time>2025-08-15T14:13:22Z</time>
      </trkpt>
      <trkpt lat="45.79422" lon="6.50483">
        <ele>1218.1</ele>
        <time>2025-08-15T14:13:23Z</time>
      </trkpt>
      <trkpt lat="45.79422" lon="6.50483">
        <ele>1218.1</ele>
        <time>2025-08-15T14:13:24Z</time>
      </trkpt>
      <trkpt lat="45.79422" lon="6.50483">
        <ele>1218.1</ele>
        <time>2025-08-15T14:13:25Z</time>
      </trkpt>
      <trkpt lat="45.79422" lon="6.50484">
        <ele>1218.1</ele>
        <time>2025-08-15T14:13:26Z</time>
      </trkpt>
      <trkpt lat="45.79422" lon="6.50483">
        <ele>1218.1</ele>
        <time>2025-08-15T14:13:27Z</time>
      </trkpt>
      <trkpt lat="45.79422" lon="6.50483">
        <ele>1218.1</ele>
        <time>2025-08-15T14:13:28Z</time>
      </trkpt>
      <trkpt lat="45.79427" lon="6.50478">
        <ele>1218.2</ele>
        <time>2025-08-15T14:15:56Z</time>
      </trkpt>
      <trkpt lat="45.79427" lon="6.50476">
        <ele>1218.2</ele>
        <time>2025-08-15T14:15:57Z</time>
      </trkpt>
      <trkpt lat="45.79427" lon="6.50474">
        <ele>1218.2</ele>
        <time>2025-08-15T14:15:58Z</time>
      </trkpt>
      <trkpt lat="45.79427" lon="6.50476">
        <ele>1218.2</ele>
        <time>2025-08-15T14:15:59Z</time>
      </trkpt>
      <trkpt lat="45.79427" lon="6.50476">
        <ele>1218.2</ele>
        <time>2025-08-15T14:16:00Z</time>
      </trkpt>
      <trkpt lat="45.79427" lon="6.50476">
        <ele>1218.2</ele>
        <time>2025-08-15T14:16:01Z</time>
      </trkpt>
      <trkpt lat="45.79428" lon="6.50477">
        <ele>1218.2</ele>
        <time>2025-08-15T14:16:02Z</time>
      </trkpt>
      <trkpt lat="45.79428" lon="6.50478">
        <ele>1218.2</ele>
        <time>2025-08-15T14:16:03Z</time>
      </trkpt>
      <trkpt lat="45.79428" lon="6.5048">
        <ele>1218.2</ele>
        <time>2025-08-15T14:16:04Z</time>
      </trkpt>
      <trkpt lat="45.79429" lon="6.50482">
        <ele>1218.2</ele>
        <time>2025-08-15T14:16:05Z</time>
      </trkpt>
      <trkpt lat="45.7943" lon="6.50483">
        <ele>1218.2</ele>
        <time>2025-08-15T14:16:06Z</time>
      </trkpt>
      <trkpt lat="45.7943" lon="6.50484">
        <ele>1218.2</ele>
        <time>2025-08-15T14:16:07Z</time>
      </trkpt>
      <trkpt lat="45.79432" lon="6.50487">
        <ele>1218.3</ele>
        <time>2025-08-15T14:16:08Z</time>
      </trkpt>
      <trkpt lat="45.79432" lon="6.50488">
        <ele>1218.3</ele>
        <time>2025-08-15T14:16:09Z</time>
      </trkpt>
      <trkpt lat="45.79433" lon="6.50489">
        <ele>1218.3</ele>
        <time>2025-08-15T14:16:10Z</time>
      </trkpt>
      <trkpt lat="45.79434" lon="6.50491">
        <ele>1218.3</ele>
        <time>2025-08-15T14:16:11Z</time>
      </trkpt>
      <trkpt lat="45.79435" lon="6.50492">
        <ele>1218.3</ele>
        <time>2025-08-15T14:16:12Z</time>
      </trkpt>
      <trkpt lat="45.79436" lon="6.50493">
        <ele>1218.3</ele>
        <time>2025-08-15T14:16:13Z</time>
      </trkpt>
      <trkpt lat="45.79437" lon="6.50494">
        <ele>1218.3</ele>
        <time>2025-08-15T14:16:14Z</time>
      </trkpt>
      <trkpt lat="45.79438" lon="6.50496">
        <ele>1218.3</ele>
        <time>2025-08-15T14:16:15Z</time>
      </trkpt>
      <trkpt lat="45.79439" lon="6.50497">
        <ele>1218.3</ele>
        <time>2025-08-15T14:16:16Z</time>
      </trkpt>
      <trkpt lat="45.79441" lon="6.505">
        <ele>1218.3</ele>
        <time>2025-08-15T14:16:17Z</time>
      </trkpt>
      <trkpt lat="45.79444" lon="6.50501">
        <ele>1218.3</ele>
        <time>2025-08-15T14:16:18Z</time>
      </trkpt>
      <trkpt lat="45.79445" lon="6.50501">
        <ele>1218.4</ele>
        <time>2025-08-15T14:16:19Z</time>
      </trkpt>
      <trkpt lat="45.79448" lon="6.50501">
        <ele>1218.4</ele>
        <time>2025-08-15T14:16:20Z</time>
      </trkpt>
      <trkpt lat="45.79452" lon="6.505">
        <ele>1218.4</ele>
        <time>2025-08-15T14:16:21Z</time>
      </trkpt>
      <trkpt lat="45.79454" lon="6.50499">
        <ele>1218.4</ele>
        <time>2025-08-15T14:16:22Z</time>
      </trkpt>
      <trkpt lat="45.79457" lon="6.50497">
        <ele>1218.4</ele>
        <time>2025-08-15T14:16:23Z</time>
      </trkpt>
      <trkpt lat="45.79461" lon="6.50493">
        <ele>1218.1</ele>
        <time>2025-08-15T14:16:24Z</time>
      </trkpt>
      <trkpt lat="45.79464" lon="6.50488">
        <ele>1217.6</ele>
        <time>2025-08-15T14:16:25Z</time>
      </trkpt>
      <trkpt lat="45.79467" lon="6.50483">
        <ele>1217.1</ele>
        <time>2025-08-15T14:16:26Z</time>
      </trkpt>
      <trkpt lat="45.7947" lon="6.5048">
        <ele>1216.7</ele>
        <time>2025-08-15T14:16:27Z</time>
      </trkpt>
      <trkpt lat="45.79471" lon="6.50479">
        <ele>1216.6</ele>
        <time>2025-08-15T14:16:28Z</time>
      </trkpt>
      <trkpt lat="45.79474" lon="6.50478">
        <ele>1216.3</ele>
        <time>2025-08-15T14:16:29Z</time>
      </trkpt>
      <trkpt lat="45.79477" lon="6.50476">
        <ele>1215.9</ele>
        <time>2025-08-15T14:16:30Z</time>
      </trkpt>
      <trkpt lat="45.79481" lon="6.50478">
        <ele>1216</ele>
        <time>2025-08-15T14:16:31Z</time>
      </trkpt>
      <trkpt lat="45.79484" lon="6.50482">
        <ele>1216.1</ele>
        <time>2025-08-15T14:16:32Z</time>
      </trkpt>
      <trkpt lat="45.79485" lon="6.50485">
        <ele>1216.2</ele>
        <time>2025-08-15T14:16:33Z</time>
      </trkpt>
      <trkpt lat="45.79487" lon="6.5049">
        <ele>1216.3</ele>
        <time>2025-08-15T14:16:34Z</time>
      </trkpt>
      <trkpt lat="45.79488" lon="6.50491">
        <ele>1216.4</ele>
        <time>2025-08-15T14:16:35Z</time>
      </trkpt>
      <trkpt lat="45.79489" lon="6.50494">
        <ele>1216.5</ele>
        <time>2025-08-15T14:16:36Z</time>
      </trkpt>
      <trkpt lat="45.79491" lon="6.50497">
        <ele>1216.6</ele>
        <time>2025-08-15T14:16:37Z</time>
      </trkpt>
      <trkpt lat="45.79493" lon="6.505">
        <ele>1216.7</ele>
        <time>2025-08-15T14:16:38Z</time>
      </trkpt>
      <trkpt lat="45.79496" lon="6.50504">
        <ele>1216.8</ele>
        <time>2025-08-15T14:16:39Z</time>
      </trkpt>
      <trkpt lat="45.79498" lon="6.50508">
        <ele>1217</ele>
        <time>2025-08-15T14:16:40Z</time>
      </trkpt>
      <trkpt lat="45.79499" lon="6.5051">
        <ele>1217.1</ele>
        <time>2025-08-15T14:16:41Z</time>
      </trkpt>
      <trkpt lat="45.79501" lon="6.50514">
        <ele>1217.3</ele>
        <time>2025-08-15T14:16:42Z</time>
      </trkpt>
      <trkpt lat="45.79502" lon="6.50515">
        <ele>1217.3</ele>
        <time>2025-08-15T14:16:43Z</time>
      </trkpt>
      <trkpt lat="45.79504" lon="6.50519">
        <ele>1217.5</ele>
        <time>2025-08-15T14:16:44Z</time>
      </trkpt>
      <trkpt lat="45.79505" lon="6.50519">
        <ele>1217.5</ele>
        <time>2025-08-15T14:16:45Z</time>
      </trkpt>
      <trkpt lat="45.79508" lon="6.50523">
        <ele>1217.7</ele>
        <time>2025-08-15T14:16:46Z</time>
      </trkpt>
      <trkpt lat="45.79508" lon="6.50524">
        <ele>1217.7</ele>
        <time>2025-08-15T14:16:47Z</time>
      </trkpt>
      <trkpt lat="45.7951" lon="6.50529">
        <ele>1217.9</ele>
        <time>2025-08-15T14:16:48Z</time>
      </trkpt>
      <trkpt lat="45.79511" lon="6.50531">
        <ele>1218</ele>
        <time>2025-08-15T14:16:49Z</time>
      </trkpt>
      <trkpt lat="45.79512" lon="6.50534">
        <ele>1218.1</ele>
        <time>2025-08-15T14:16:50Z</time>
      </trkpt>
      <trkpt lat="45.79514" lon="6.50537">
        <ele>1218.2</ele>
        <time>2025-08-15T14:16:51Z</time>
      </trkpt>
      <trkpt lat="45.79515" lon="6.50541">
        <ele>1218.3</ele>
        <time>2025-08-15T14:16:52Z</time>
      </trkpt>
      <trkpt lat="45.79516" lon="6.50545">
        <ele>1218.5</ele>
        <time>2025-08-15T14:16:53Z</time>
      </trkpt>
      <trkpt lat="45.79517" lon="6.50549">
        <ele>1218.6</ele>
        <time>2025-08-15T14:16:54Z</time>
      </trkpt>
      <trkpt lat="45.79516" lon="6.50553">
        <ele>1218.8</ele>
        <time>2025-08-15T14:16:55Z</time>
      </trkpt>
      <trkpt lat="45.79516" lon="6.50557">
        <ele>1218.9</ele>
        <time>2025-08-15T14:16:56Z</time>
      </trkpt>
      <trkpt lat="45.79516" lon="6.50561">
        <ele>1218.9</ele>
        <time>2025-08-15T14:16:57Z</time>
      </trkpt>
      <trkpt lat="45.79517" lon="6.50565">
        <ele>1219</ele>
        <time>2025-08-15T14:16:58Z</time>
      </trkpt>
      <trkpt lat="45.79518" lon="6.50569">
        <ele>1219.1</ele>
        <time>2025-08-15T14:16:59Z</time>
      </trkpt>
      <trkpt lat="45.79519" lon="6.50574">
        <ele>1219.2</ele>
        <time>2025-08-15T14:17:00Z</time>
      </trkpt>
      <trkpt lat="45.79519" lon="6.50575">
        <ele>1219.2</ele>
        <time>2025-08-15T14:17:01Z</time>
      </trkpt>
      <trkpt lat="45.7952" lon="6.50581">
        <ele>1219.4</ele>
        <time>2025-08-15T14:17:02Z</time>
      </trkpt>
      <trkpt lat="45.7952" lon="6.50583">
        <ele>1219.4</ele>
        <time>2025-08-15T14:17:03Z</time>
      </trkpt>
      <trkpt lat="45.79521" lon="6.50589">
        <ele>1219.6</ele>
        <time>2025-08-15T14:17:04Z</time>
      </trkpt>
      <trkpt lat="45.79522" lon="6.5059">
        <ele>1219.6</ele>
        <time>2025-08-15T14:17:05Z</time>
      </trkpt>
      <trkpt lat="45.79522" lon="6.50595">
        <ele>1219.8</ele>
        <time>2025-08-15T14:17:06Z</time>
      </trkpt>
      <trkpt lat="45.79523" lon="6.50599">
        <ele>1219.9</ele>
        <time>2025-08-15T14:17:07Z</time>
      </trkpt>
      <trkpt lat="45.79524" lon="6.50603">
        <ele>1220</ele>
        <time>2025-08-15T14:17:08Z</time>
      </trkpt>
      <trkpt lat="45.79525" lon="6.50607">
        <ele>1220.2</ele>
        <time>2025-08-15T14:17:09Z</time>
      </trkpt>
      <trkpt lat="45.79525" lon="6.50612">
        <ele>1220.3</ele>
        <time>2025-08-15T14:17:10Z</time>
      </trkpt>
      <trkpt lat="45.79527" lon="6.50617">
        <ele>1220.5</ele>
        <time>2025-08-15T14:17:11Z</time>
      </trkpt>
      <trkpt lat="45.79527" lon="6.50621">
        <ele>1220.7</ele>
        <time>2025-08-15T14:17:12Z</time>
      </trkpt>
      <trkpt lat="45.79528" lon="6.50625">
        <ele>1220.8</ele>
        <time>2025-08-15T14:17:13Z</time>
      </trkpt>
      <trkpt lat="45.79529" lon="6.50631">
        <ele>1221.1</ele>
        <time>2025-08-15T14:17:14Z</time>
      </trkpt>
      <trkpt lat="45.7953" lon="6.50634">
        <ele>1221.1</ele>
        <time>2025-08-15T14:17:15Z</time>
      </trkpt>
      <trkpt lat="45.79531" lon="6.50639">
        <ele>1221.4</ele>
        <time>2025-08-15T14:17:16Z</time>
      </trkpt>
      <trkpt lat="45.79531" lon="6.5064">
        <ele>1221.4</ele>
        <time>2025-08-15T14:17:17Z</time>
      </trkpt>
      <trkpt lat="45.79532" lon="6.50645">
        <ele>1221.6</ele>
        <time>2025-08-15T14:17:18Z</time>
      </trkpt>
      <trkpt lat="45.79532" lon="6.50647">
        <ele>1221.7</ele>
        <time>2025-08-15T14:17:19Z</time>
      </trkpt>
      <trkpt lat="45.79533" lon="6.50651">
        <ele>1221.9</ele>
        <time>2025-08-15T14:17:20Z</time>
      </trkpt>
      <trkpt lat="45.79534" lon="6.50655">
        <ele>1222.1</ele>
        <time>2025-08-15T14:17:21Z</time>
      </trkpt>
      <trkpt lat="45.79535" lon="6.50659">
        <ele>1222.3</ele>
        <time>2025-08-15T14:17:22Z</time>
      </trkpt>
      <trkpt lat="45.79536" lon="6.50663">
        <ele>1222.5</ele>
        <time>2025-08-15T14:17:23Z</time>
      </trkpt>
      <trkpt lat="45.79536" lon="6.50667">
        <ele>1222.8</ele>
        <time>2025-08-15T14:17:24Z</time>
      </trkpt>
      <trkpt lat="45.79537" lon="6.50671">
        <ele>1223</ele>
        <time>2025-08-15T14:17:25Z</time>
      </trkpt>
      <trkpt lat="45.79537" lon="6.50676">
        <ele>1223.2</ele>
        <time>2025-08-15T14:17:26Z</time>
      </trkpt>
      <trkpt lat="45.79538" lon="6.5068">
        <ele>1223.4</ele>
        <time>2025-08-15T14:17:27Z</time>
      </trkpt>
      <trkpt lat="45.79539" lon="6.50683">
        <ele>1223.6</ele>
        <time>2025-08-15T14:17:28Z</time>
      </trkpt>
      <trkpt lat="45.79539" lon="6.50687">
        <ele>1223.9</ele>
        <time>2025-08-15T14:17:29Z</time>
      </trkpt>
      <trkpt lat="45.7954" lon="6.50692">
        <ele>1224.1</ele>
        <time>2025-08-15T14:17:30Z</time>
      </trkpt>
      <trkpt lat="45.79541" lon="6.50696">
        <ele>1224.3</ele>
        <time>2025-08-15T14:17:31Z</time>
      </trkpt>
      <trkpt lat="45.79542" lon="6.507">
        <ele>1224.5</ele>
        <time>2025-08-15T14:17:32Z</time>
      </trkpt>
      <trkpt lat="45.79542" lon="6.50703">
        <ele>1224.7</ele>
        <time>2025-08-15T14:17:33Z</time>
      </trkpt>
      <trkpt lat="45.79543" lon="6.50708">
        <ele>1224.9</ele>
        <time>2025-08-15T14:17:34Z</time>
      </trkpt>
      <trkpt lat="45.79543" lon="6.50711">
        <ele>1225.1</ele>
        <time>2025-08-15T14:17:35Z</time>
      </trkpt>
      <trkpt lat="45.79544" lon="6.50715">
        <ele>1225.3</ele>
        <time>2025-08-15T14:17:36Z</time>
      </trkpt>
      <trkpt lat="45.79545" lon="6.5072">
        <ele>1225.6</ele>
        <time>2025-08-15T14:17:37Z</time>
      </trkpt>
      <trkpt lat="45.79546" lon="6.50724">
        <ele>1225.8</ele>
        <time>2025-08-15T14:17:38Z</time>
      </trkpt>
      <trkpt lat="45.79547" lon="6.50728">
        <ele>1226</ele>
        <time>2025-08-15T14:17:39Z</time>
      </trkpt>
      <trkpt lat="45.79548" lon="6.50732">
        <ele>1226.2</ele>
        <time>2025-08-15T14:17:40Z</time>
      </trkpt>
      <trkpt lat="45.79548" lon="6.50736">
        <ele>1226.4</ele>
        <time>2025-08-15T14:17:41Z</time>
      </trkpt>
      <trkpt lat="45.79549" lon="6.5074">
        <ele>1226.6</ele>
        <time>2025-08-15T14:17:42Z</time>
      </trkpt>
      <trkpt lat="45.7955" lon="6.50744">
        <ele>1226.9</ele>
        <time>2025-08-15T14:17:43Z</time>
      </trkpt>
      <trkpt lat="45.7955" lon="6.50748">
        <ele>1227.1</ele>
        <time>2025-08-15T14:17:44Z</time>
      </trkpt>
      <trkpt lat="45.79551" lon="6.50752">
        <ele>1227.3</ele>
        <time>2025-08-15T14:17:45Z</time>
      </trkpt>
      <trkpt lat="45.79552" lon="6.50757">
        <ele>1227.5</ele>
        <time>2025-08-15T14:17:46Z</time>
      </trkpt>
      <trkpt lat="45.79553" lon="6.50761">
        <ele>1227.8</ele>
        <time>2025-08-15T14:17:47Z</time>
      </trkpt>
      <trkpt lat="45.79553" lon="6.50766">
        <ele>1228</ele>
        <time>2025-08-15T14:17:48Z</time>
      </trkpt>
      <trkpt lat="45.79554" lon="6.50771">
        <ele>1228.2</ele>
        <time>2025-08-15T14:17:49Z</time>
      </trkpt>
      <trkpt lat="45.79555" lon="6.50775">
        <ele>1228.5</ele>
        <time>2025-08-15T14:17:50Z</time>
      </trkpt>
      <trkpt lat="45.79555" lon="6.5078">
        <ele>1228.7</ele>
        <time>2025-08-15T14:17:51Z</time>
      </trkpt>
      <trkpt lat="45.79556" lon="6.50784">
        <ele>1228.9</ele>
        <time>2025-08-15T14:17:52Z</time>
      </trkpt>
      <trkpt lat="45.79558" lon="6.50788">
        <ele>1229.1</ele>
        <time>2025-08-15T14:17:53Z</time>
      </trkpt>
      <trkpt lat="45.79558" lon="6.50792">
        <ele>1229.3</ele>
        <time>2025-08-15T14:17:54Z</time>
      </trkpt>
      <trkpt lat="45.79559" lon="6.50797">
        <ele>1229.6</ele>
        <time>2025-08-15T14:17:55Z</time>
      </trkpt>
      <trkpt lat="45.7956" lon="6.50801">
        <ele>1229.8</ele>
        <time>2025-08-15T14:17:56Z</time>
      </trkpt>
      <trkpt lat="45.79561" lon="6.50805">
        <ele>1230</ele>
        <time>2025-08-15T14:17:57Z</time>
      </trkpt>
      <trkpt lat="45.79563" lon="6.50809">
        <ele>1230.2</ele>
        <time>2025-08-15T14:17:58Z</time>
      </trkpt>
      <trkpt lat="45.79564" lon="6.50814">
        <ele>1230.5</ele>
        <time>2025-08-15T14:17:59Z</time>
      </trkpt>
      <trkpt lat="45.79565" lon="6.50818">
        <ele>1230.7</ele>
        <time>2025-08-15T14:18:00Z</time>
      </trkpt>
      <trkpt lat="45.79566" lon="6.50822">
        <ele>1231</ele>
        <time>2025-08-15T14:18:01Z</time>
      </trkpt>
      <trkpt lat="45.79567" lon="6.50826">
        <ele>1231.2</ele>
        <time>2025-08-15T14:18:02Z</time>
      </trkpt>
      <trkpt lat="45.79568" lon="6.50831">
        <ele>1231.4</ele>
        <time>2025-08-15T14:18:03Z</time>
      </trkpt>
      <trkpt lat="45.79569" lon="6.50834">
        <ele>1231.6</ele>
        <time>2025-08-15T14:18:04Z</time>
      </trkpt>
      <trkpt lat="45.7957" lon="6.50839">
        <ele>1231.9</ele>
        <time>2025-08-15T14:18:05Z</time>
      </trkpt>
      <trkpt lat="45.79572" lon="6.50843">
        <ele>1232.1</ele>
        <time>2025-08-15T14:18:06Z</time>
      </trkpt>
      <trkpt lat="45.79573" lon="6.50847">
        <ele>1232.4</ele>
        <time>2025-08-15T14:18:07Z</time>
      </trkpt>
      <trkpt lat="45.79575" lon="6.50851">
        <ele>1232.6</ele>
        <time>2025-08-15T14:18:08Z</time>
      </trkpt>
      <trkpt lat="45.79577" lon="6.50855">
        <ele>1232.9</ele>
        <time>2025-08-15T14:18:09Z</time>
      </trkpt>
      <trkpt lat="45.79578" lon="6.50858">
        <ele>1233.1</ele>
        <time>2025-08-15T14:18:10Z</time>
      </trkpt>
      <trkpt lat="45.7958" lon="6.50862">
        <ele>1233.3</ele>
        <time>2025-08-15T14:18:11Z</time>
      </trkpt>
      <trkpt lat="45.79581" lon="6.50866">
        <ele>1233.6</ele>
        <time>2025-08-15T14:18:12Z</time>
      </trkpt>
      <trkpt lat="45.79583" lon="6.5087">
        <ele>1233.8</ele>
        <time>2025-08-15T14:18:13Z</time>
      </trkpt>
      <trkpt lat="45.79584" lon="6.50873">
        <ele>1234</ele>
        <time>2025-08-15T14:18:14Z</time>
      </trkpt>
      <trkpt lat="45.79586" lon="6.50877">
        <ele>1234.3</ele>
        <time>2025-08-15T14:18:15Z</time>
      </trkpt>
      <trkpt lat="45.79587" lon="6.50881">
        <ele>1234.5</ele>
        <time>2025-08-15T14:18:16Z</time>
      </trkpt>
      <trkpt lat="45.79589" lon="6.50885">
        <ele>1234.7</ele>
        <time>2025-08-15T14:18:17Z</time>
      </trkpt>
      <trkpt lat="45.7959" lon="6.50888">
        <ele>1234.9</ele>
        <time>2025-08-15T14:18:18Z</time>
      </trkpt>
      <trkpt lat="45.79592" lon="6.50892">
        <ele>1235.2</ele>
        <time>2025-08-15T14:18:19Z</time>
      </trkpt>
      <trkpt lat="45.79593" lon="6.50895">
        <ele>1235.4</ele>
        <time>2025-08-15T14:18:20Z</time>
      </trkpt>
      <trkpt lat="45.79594" lon="6.50899">
        <ele>1235.6</ele>
        <time>2025-08-15T14:18:21Z</time>
      </trkpt>
      <trkpt lat="45.79596" lon="6.50903">
        <ele>1235.8</ele>
        <time>2025-08-15T14:18:22Z</time>
      </trkpt>
      <trkpt lat="45.79597" lon="6.50906">
        <ele>1236</ele>
        <time>2025-08-15T14:18:23Z</time>
      </trkpt>
      <trkpt lat="45.79599" lon="6.50911">
        <ele>1236.3</ele>
        <time>2025-08-15T14:18:24Z</time>
      </trkpt>
      <trkpt lat="45.79599" lon="6.50913">
        <ele>1236.5</ele>
        <time>2025-08-15T14:18:25Z</time>
      </trkpt>
      <trkpt lat="45.79601" lon="6.50917">
        <ele>1236.7</ele>
        <time>2025-08-15T14:18:26Z</time>
      </trkpt>
      <trkpt lat="45.79603" lon="6.50922">
        <ele>1237</ele>
        <time>2025-08-15T14:18:27Z</time>
      </trkpt>
      <trkpt lat="45.79603" lon="6.50923">
        <ele>1237.1</ele>
        <time>2025-08-15T14:18:28Z</time>
      </trkpt>
      <trkpt lat="45.79605" lon="6.50928">
        <ele>1237.4</ele>
        <time>2025-08-15T14:18:29Z</time>
      </trkpt>
      <trkpt lat="45.79605" lon="6.5093">
        <ele>1237.5</ele>
        <time>2025-08-15T14:18:30Z</time>
      </trkpt>
      <trkpt lat="45.79607" lon="6.50934">
        <ele>1237.8</ele>
        <time>2025-08-15T14:18:31Z</time>
      </trkpt>
      <trkpt lat="45.79607" lon="6.50935">
        <ele>1237.9</ele>
        <time>2025-08-15T14:18:32Z</time>
      </trkpt>
      <trkpt lat="45.79609" lon="6.5094">
        <ele>1238.2</ele>
        <time>2025-08-15T14:18:33Z</time>
      </trkpt>
      <trkpt lat="45.79609" lon="6.50941">
        <ele>1238.3</ele>
        <time>2025-08-15T14:18:34Z</time>
      </trkpt>
      <trkpt lat="45.79611" lon="6.50946">
        <ele>1238.6</ele>
        <time>2025-08-15T14:18:35Z</time>
      </trkpt>
      <trkpt lat="45.79612" lon="6.50947">
        <ele>1238.7</ele>
        <time>2025-08-15T14:18:36Z</time>
      </trkpt>
      <trkpt lat="45.79614" lon="6.50952">
        <ele>1239</ele>
        <time>2025-08-15T14:18:37Z</time>
      </trkpt>
      <trkpt lat="45.79614" lon="6.50953">
        <ele>1239.1</ele>
        <time>2025-08-15T14:18:38Z</time>
      </trkpt>
      <trkpt lat="45.79616" lon="6.50957">
        <ele>1239.3</ele>
        <time>2025-08-15T14:18:39Z</time>
      </trkpt>
      <trkpt lat="45.79616" lon="6.50959">
        <ele>1239.4</ele>
        <time>2025-08-15T14:18:40Z</time>
      </trkpt>
      <trkpt lat="45.79617" lon="6.50963">
        <ele>1239.7</ele>
        <time>2025-08-15T14:18:41Z</time>
      </trkpt>
      <trkpt lat="45.79618" lon="6.50965">
        <ele>1239.8</ele>
        <time>2025-08-15T14:18:42Z</time>
      </trkpt>
      <trkpt lat="45.79618" lon="6.5097">
        <ele>1240.1</ele>
        <time>2025-08-15T14:18:43Z</time>
      </trkpt>
      <trkpt lat="45.79618" lon="6.50972">
        <ele>1240.2</ele>
        <time>2025-08-15T14:18:44Z</time>
      </trkpt>
      <trkpt lat="45.79617" lon="6.50977">
        <ele>1240.5</ele>
        <time>2025-08-15T14:18:45Z</time>
      </trkpt>
      <trkpt lat="45.79617" lon="6.50978">
        <ele>1240.5</ele>
        <time>2025-08-15T14:18:46Z</time>
      </trkpt>
      <trkpt lat="45.79616" lon="6.50983">
        <ele>1240.8</ele>
        <time>2025-08-15T14:18:47Z</time>
      </trkpt>
      <trkpt lat="45.79615" lon="6.50984">
        <ele>1240.9</ele>
        <time>2025-08-15T14:18:48Z</time>
      </trkpt>
      <trkpt lat="45.79613" lon="6.50989">
        <ele>1241.1</ele>
        <time>2025-08-15T14:18:49Z</time>
      </trkpt>
      <trkpt lat="45.79613" lon="6.50991">
        <ele>1241.2</ele>
        <time>2025-08-15T14:18:50Z</time>
      </trkpt>
      <trkpt lat="45.79611" lon="6.50995">
        <ele>1241.5</ele>
        <time>2025-08-15T14:18:51Z</time>
      </trkpt>
      <trkpt lat="45.7961" lon="6.50997">
        <ele>1241.6</ele>
        <time>2025-08-15T14:18:52Z</time>
      </trkpt>
      <trkpt lat="45.79609" lon="6.51">
        <ele>1241.7</ele>
        <time>2025-08-15T14:18:53Z</time>
      </trkpt>
      <trkpt lat="45.79607" lon="6.51005">
        <ele>1242</ele>
        <time>2025-08-15T14:18:54Z</time>
      </trkpt>
      <trkpt lat="45.79606" lon="6.51007">
        <ele>1242.1</ele>
        <time>2025-08-15T14:18:55Z</time>
      </trkpt>
      <trkpt lat="45.79604" lon="6.51012">
        <ele>1242.3</ele>
        <time>2025-08-15T14:18:56Z</time>
      </trkpt>
      <trkpt lat="45.79604" lon="6.51013">
        <ele>1242.4</ele>
        <time>2025-08-15T14:18:57Z</time>
      </trkpt>
      <trkpt lat="45.79602" lon="6.51019">
        <ele>1242.7</ele>
        <time>2025-08-15T14:18:58Z</time>
      </trkpt>
      <trkpt lat="45.79602" lon="6.5102">
        <ele>1242.7</ele>
        <time>2025-08-15T14:18:59Z</time>
      </trkpt>
      <trkpt lat="45.79601" lon="6.51026">
        <ele>1243</ele>
        <time>2025-08-15T14:19:00Z</time>
      </trkpt>
      <trkpt lat="45.796" lon="6.51027">
        <ele>1243.1</ele>
        <time>2025-08-15T14:19:01Z</time>
      </trkpt>
      <trkpt lat="45.79599" lon="6.51032">
        <ele>1243.4</ele>
        <time>2025-08-15T14:19:02Z</time>
      </trkpt>
      <trkpt lat="45.79599" lon="6.51034">
        <ele>1243.5</ele>
        <time>2025-08-15T14:19:03Z</time>
      </trkpt>
      <trkpt lat="45.79598" lon="6.51039">
        <ele>1243.8</ele>
        <time>2025-08-15T14:19:04Z</time>
      </trkpt>
      <trkpt lat="45.79598" lon="6.51041">
        <ele>1243.9</ele>
        <time>2025-08-15T14:19:05Z</time>
      </trkpt>
      <trkpt lat="45.79598" lon="6.51046">
        <ele>1244.2</ele>
        <time>2025-08-15T14:19:06Z</time>
      </trkpt>
      <trkpt lat="45.79597" lon="6.51048">
        <ele>1244.3</ele>
        <time>2025-08-15T14:19:07Z</time>
      </trkpt>
      <trkpt lat="45.79597" lon="6.51053">
        <ele>1244.6</ele>
        <time>2025-08-15T14:19:08Z</time>
      </trkpt>
      <trkpt lat="45.79597" lon="6.51055">
        <ele>1244.7</ele>
        <time>2025-08-15T14:19:09Z</time>
      </trkpt>
      <trkpt lat="45.79597" lon="6.5106">
        <ele>1245</ele>
        <time>2025-08-15T14:19:10Z</time>
      </trkpt>
      <trkpt lat="45.79597" lon="6.51062">
        <ele>1245.1</ele>
        <time>2025-08-15T14:19:11Z</time>
      </trkpt>
      <trkpt lat="45.79597" lon="6.51068">
        <ele>1245.4</ele>
        <time>2025-08-15T14:19:12Z</time>
      </trkpt>
      <trkpt lat="45.79597" lon="6.5107">
        <ele>1245.5</ele>
        <time>2025-08-15T14:19:13Z</time>
      </trkpt>
      <trkpt lat="45.79597" lon="6.51075">
        <ele>1245.8</ele>
        <time>2025-08-15T14:19:14Z</time>
      </trkpt>
      <trkpt lat="45.79597" lon="6.51076">
        <ele>1245.9</ele>
        <time>2025-08-15T14:19:15Z</time>
      </trkpt>
      <trkpt lat="45.79597" lon="6.51082">
        <ele>1246.1</ele>
        <time>2025-08-15T14:19:16Z</time>
      </trkpt>
      <trkpt lat="45.79597" lon="6.51084">
        <ele>1246.2</ele>
        <time>2025-08-15T14:19:17Z</time>
      </trkpt>
      <trkpt lat="45.79597" lon="6.51089">
        <ele>1246.5</ele>
        <time>2025-08-15T14:19:18Z</time>
      </trkpt>
      <trkpt lat="45.79597" lon="6.51091">
        <ele>1246.6</ele>
        <time>2025-08-15T14:19:19Z</time>
      </trkpt>
      <trkpt lat="45.79597" lon="6.51096">
        <ele>1246.9</ele>
        <time>2025-08-15T14:19:20Z</time>
      </trkpt>
      <trkpt lat="45.79597" lon="6.51098">
        <ele>1247</ele>
        <time>2025-08-15T14:19:21Z</time>
      </trkpt>
      <trkpt lat="45.79597" lon="6.51103">
        <ele>1247.4</ele>
        <time>2025-08-15T14:19:22Z</time>
      </trkpt>
      <trkpt lat="45.79598" lon="6.51105">
        <ele>1247.5</ele>
        <time>2025-08-15T14:19:23Z</time>
      </trkpt>
      <trkpt lat="45.79598" lon="6.5111">
        <ele>1247.8</ele>
        <time>2025-08-15T14:19:24Z</time>
      </trkpt>
      <trkpt lat="45.79598" lon="6.51111">
        <ele>1247.9</ele>
        <time>2025-08-15T14:19:25Z</time>
      </trkpt>
      <trkpt lat="45.79598" lon="6.51117">
        <ele>1248.2</ele>
        <time>2025-08-15T14:19:26Z</time>
      </trkpt>
      <trkpt lat="45.79598" lon="6.51118">
        <ele>1248.3</ele>
        <time>2025-08-15T14:19:27Z</time>
      </trkpt>
      <trkpt lat="45.79599" lon="6.51124">
        <ele>1248.6</ele>
        <time>2025-08-15T14:19:28Z</time>
      </trkpt>
      <trkpt lat="45.79599" lon="6.51125">
        <ele>1248.7</ele>
        <time>2025-08-15T14:19:29Z</time>
      </trkpt>
      <trkpt lat="45.796" lon="6.51131">
        <ele>1249.1</ele>
        <time>2025-08-15T14:19:30Z</time>
      </trkpt>
      <trkpt lat="45.796" lon="6.51132">
        <ele>1249.2</ele>
        <time>2025-08-15T14:19:31Z</time>
      </trkpt>
      <trkpt lat="45.79601" lon="6.51137">
        <ele>1249.5</ele>
        <time>2025-08-15T14:19:32Z</time>
      </trkpt>
      <trkpt lat="45.79602" lon="6.51138">
        <ele>1249.6</ele>
        <time>2025-08-15T14:19:33Z</time>
      </trkpt>
      <trkpt lat="45.79603" lon="6.51142">
        <ele>1249.9</ele>
        <time>2025-08-15T14:19:34Z</time>
      </trkpt>
      <trkpt lat="45.79604" lon="6.51144">
        <ele>1250</ele>
        <time>2025-08-15T14:19:35Z</time>
      </trkpt>
      <trkpt lat="45.79606" lon="6.51148">
        <ele>1250.3</ele>
        <time>2025-08-15T14:19:36Z</time>
      </trkpt>
      <trkpt lat="45.79606" lon="6.51149">
        <ele>1250.5</ele>
        <time>2025-08-15T14:19:37Z</time>
      </trkpt>
      <trkpt lat="45.79609" lon="6.51152">
        <ele>1250.8</ele>
        <time>2025-08-15T14:19:38Z</time>
      </trkpt>
      <trkpt lat="45.7961" lon="6.51153">
        <ele>1250.9</ele>
        <time>2025-08-15T14:19:39Z</time>
      </trkpt>
      <trkpt lat="45.79613" lon="6.51155">
        <ele>1251.3</ele>
        <time>2025-08-15T14:19:40Z</time>
      </trkpt>
      <trkpt lat="45.79614" lon="6.51156">
        <ele>1251.4</ele>
        <time>2025-08-15T14:19:41Z</time>
      </trkpt>
      <trkpt lat="45.79617" lon="6.51158">
        <ele>1251.8</ele>
        <time>2025-08-15T14:19:42Z</time>
      </trkpt>
      <trkpt lat="45.79618" lon="6.51159">
        <ele>1251.9</ele>
        <time>2025-08-15T14:19:43Z</time>
      </trkpt>
      <trkpt lat="45.79621" lon="6.51162">
        <ele>1252.3</ele>
        <time>2025-08-15T14:19:44Z</time>
      </trkpt>
      <trkpt lat="45.79622" lon="6.51163">
        <ele>1252.4</ele>
        <time>2025-08-15T14:19:45Z</time>
      </trkpt>
      <trkpt lat="45.79625" lon="6.51165">
        <ele>1252.8</ele>
        <time>2025-08-15T14:19:46Z</time>
      </trkpt>
      <trkpt lat="45.79626" lon="6.51166">
        <ele>1252.9</ele>
        <time>2025-08-15T14:19:47Z</time>
      </trkpt>
      <trkpt lat="45.79629" lon="6.51169">
        <ele>1253.3</ele>
        <time>2025-08-15T14:19:48Z</time>
      </trkpt>
      <trkpt lat="45.7963" lon="6.5117">
        <ele>1253.4</ele>
        <time>2025-08-15T14:19:49Z</time>
      </trkpt>
      <trkpt lat="45.79633" lon="6.51173">
        <ele>1253.8</ele>
        <time>2025-08-15T14:19:50Z</time>
      </trkpt>
      <trkpt lat="45.79634" lon="6.51173">
        <ele>1253.9</ele>
        <time>2025-08-15T14:19:51Z</time>
      </trkpt>
      <trkpt lat="45.79636" lon="6.51177">
        <ele>1254.3</ele>
        <time>2025-08-15T14:19:52Z</time>
      </trkpt>
      <trkpt lat="45.79637" lon="6.51179">
        <ele>1254.4</ele>
        <time>2025-08-15T14:19:53Z</time>
      </trkpt>
      <trkpt lat="45.79639" lon="6.51183">
        <ele>1254.8</ele>
        <time>2025-08-15T14:19:54Z</time>
      </trkpt>
      <trkpt lat="45.7964" lon="6.51184">
        <ele>1254.9</ele>
        <time>2025-08-15T14:19:55Z</time>
      </trkpt>
      <trkpt lat="45.79642" lon="6.51188">
        <ele>1255.3</ele>
        <time>2025-08-15T14:19:56Z</time>
      </trkpt>
      <trkpt lat="45.79643" lon="6.5119">
        <ele>1255.4</ele>
        <time>2025-08-15T14:19:57Z</time>
      </trkpt>
      <trkpt lat="45.79645" lon="6.51194">
        <ele>1255.8</ele>
        <time>2025-08-15T14:19:58Z</time>
      </trkpt>
      <trkpt lat="45.79646" lon="6.51195">
        <ele>1255.9</ele>
        <time>2025-08-15T14:19:59Z</time>
      </trkpt>
      <trkpt lat="45.79648" lon="6.51199">
        <ele>1256.3</ele>
        <time>2025-08-15T14:20:00Z</time>
      </trkpt>
      <trkpt lat="45.79649" lon="6.512">
        <ele>1256.4</ele>
        <time>2025-08-15T14:20:01Z</time>
      </trkpt>
      <trkpt lat="45.7965" lon="6.51205">
        <ele>1256.8</ele>
        <time>2025-08-15T14:20:02Z</time>
      </trkpt>
      <trkpt lat="45.79651" lon="6.51206">
        <ele>1256.9</ele>
        <time>2025-08-15T14:20:03Z</time>
      </trkpt>
      <trkpt lat="45.79652" lon="6.51211">
        <ele>1257.3</ele>
        <time>2025-08-15T14:20:04Z</time>
      </trkpt>
      <trkpt lat="45.79653" lon="6.51213">
        <ele>1257.5</ele>
        <time>2025-08-15T14:20:05Z</time>
      </trkpt>
      <trkpt lat="45.79655" lon="6.51217">
        <ele>1257.9</ele>
        <time>2025-08-15T14:20:06Z</time>
      </trkpt>
      <trkpt lat="45.79655" lon="6.51219">
        <ele>1258</ele>
        <time>2025-08-15T14:20:07Z</time>
      </trkpt>
      <trkpt lat="45.79657" lon="6.51223">
        <ele>1258.4</ele>
        <time>2025-08-15T14:20:08Z</time>
      </trkpt>
      <trkpt lat="45.79658" lon="6.51225">
        <ele>1258.5</ele>
        <time>2025-08-15T14:20:09Z</time>
      </trkpt>
      <trkpt lat="45.7966" lon="6.5123">
        <ele>1258.8</ele>
        <time>2025-08-15T14:20:10Z</time>
      </trkpt>
      <trkpt lat="45.7966" lon="6.51231">
        <ele>1258.9</ele>
        <time>2025-08-15T14:20:11Z</time>
      </trkpt>
      <trkpt lat="45.79662" lon="6.51236">
        <ele>1259.1</ele>
        <time>2025-08-15T14:20:12Z</time>
      </trkpt>
      <trkpt lat="45.79663" lon="6.51238">
        <ele>1259.2</ele>
        <time>2025-08-15T14:20:13Z</time>
      </trkpt>
      <trkpt lat="45.79664" lon="6.51241">
        <ele>1259.4</ele>
        <time>2025-08-15T14:20:14Z</time>
      </trkpt>
      <trkpt lat="45.79666" lon="6.51246">
        <ele>1259.6</ele>
        <time>2025-08-15T14:20:15Z</time>
      </trkpt>
      <trkpt lat="45.79667" lon="6.51248">
        <ele>1259.7</ele>
        <time>2025-08-15T14:20:16Z</time>
      </trkpt>
      <trkpt lat="45.79669" lon="6.51252">
        <ele>1259.9</ele>
        <time>2025-08-15T14:20:17Z</time>
      </trkpt>
      <trkpt lat="45.7967" lon="6.51254">
        <ele>1260</ele>
        <time>2025-08-15T14:20:18Z</time>
      </trkpt>
      <trkpt lat="45.79672" lon="6.51258">
        <ele>1260.4</ele>
        <time>2025-08-15T14:20:19Z</time>
      </trkpt>
      <trkpt lat="45.79673" lon="6.5126">
        <ele>1260.5</ele>
        <time>2025-08-15T14:20:20Z</time>
      </trkpt>
      <trkpt lat="45.79674" lon="6.51263">
        <ele>1260.8</ele>
        <time>2025-08-15T14:20:21Z</time>
      </trkpt>
      <trkpt lat="45.79675" lon="6.51267">
        <ele>1261</ele>
        <time>2025-08-15T14:20:22Z</time>
      </trkpt>
      <trkpt lat="45.79677" lon="6.5127">
        <ele>1261.3</ele>
        <time>2025-08-15T14:20:23Z</time>
      </trkpt>
      <trkpt lat="45.79679" lon="6.51275">
        <ele>1261.7</ele>
        <time>2025-08-15T14:20:24Z</time>
      </trkpt>
      <trkpt lat="45.79679" lon="6.51277">
        <ele>1261.8</ele>
        <time>2025-08-15T14:20:25Z</time>
      </trkpt>
      <trkpt lat="45.79681" lon="6.5128">
        <ele>1262.1</ele>
        <time>2025-08-15T14:20:26Z</time>
      </trkpt>
      <trkpt lat="45.79682" lon="6.51284">
        <ele>1262.4</ele>
        <time>2025-08-15T14:20:27Z</time>
      </trkpt>
      <trkpt lat="45.79684" lon="6.51287">
        <ele>1262.7</ele>
        <time>2025-08-15T14:20:28Z</time>
      </trkpt>
      <trkpt lat="45.79686" lon="6.5129">
        <ele>1263</ele>
        <time>2025-08-15T14:20:29Z</time>
      </trkpt>
      <trkpt lat="45.79688" lon="6.51295">
        <ele>1263.4</ele>
        <time>2025-08-15T14:20:30Z</time>
      </trkpt>
      <trkpt lat="45.79688" lon="6.51296">
        <ele>1263.5</ele>
        <time>2025-08-15T14:20:31Z</time>
      </trkpt>
      <trkpt lat="45.7969" lon="6.513">
        <ele>1263.8</ele>
        <time>2025-08-15T14:20:32Z</time>
      </trkpt>
      <trkpt lat="45.79691" lon="6.51303">
        <ele>1264.1</ele>
        <time>2025-08-15T14:20:33Z</time>
      </trkpt>
      <trkpt lat="45.79693" lon="6.51307">
        <ele>1264.4</ele>
        <time>2025-08-15T14:20:34Z</time>
      </trkpt>
      <trkpt lat="45.79694" lon="6.5131">
        <ele>1264.7</ele>
        <time>2025-08-15T14:20:35Z</time>
      </trkpt>
      <trkpt lat="45.79696" lon="6.51313">
        <ele>1265</ele>
        <time>2025-08-15T14:20:36Z</time>
      </trkpt>
      <trkpt lat="45.79698" lon="6.51316">
        <ele>1265.2</ele>
        <time>2025-08-15T14:20:37Z</time>
      </trkpt>
      <trkpt lat="45.797" lon="6.51321">
        <ele>1265.6</ele>
        <time>2025-08-15T14:20:38Z</time>
      </trkpt>
      <trkpt lat="45.79701" lon="6.51323">
        <ele>1265.8</ele>
        <time>2025-08-15T14:20:39Z</time>
      </trkpt>
      <trkpt lat="45.79703" lon="6.51328">
        <ele>1266.1</ele>
        <time>2025-08-15T14:20:40Z</time>
      </trkpt>
      <trkpt lat="45.79703" lon="6.5133">
        <ele>1266.3</ele>
        <time>2025-08-15T14:20:41Z</time>
      </trkpt>
      <trkpt lat="45.79705" lon="6.51333">
        <ele>1266.5</ele>
        <time>2025-08-15T14:20:42Z</time>
      </trkpt>
      <trkpt lat="45.79706" lon="6.51336">
        <ele>1266.8</ele>
        <time>2025-08-15T14:20:43Z</time>
      </trkpt>
      <trkpt lat="45.79708" lon="6.51341">
        <ele>1267.2</ele>
        <time>2025-08-15T14:20:44Z</time>
      </trkpt>
      <trkpt lat="45.79709" lon="6.51343">
        <ele>1267.3</ele>
        <time>2025-08-15T14:20:45Z</time>
      </trkpt>
      <trkpt lat="45.79711" lon="6.51347">
        <ele>1267.7</ele>
        <time>2025-08-15T14:20:46Z</time>
      </trkpt>
      <trkpt lat="45.79712" lon="6.51349">
        <ele>1267.8</ele>
        <time>2025-08-15T14:20:47Z</time>
      </trkpt>
      <trkpt lat="45.79714" lon="6.51354">
        <ele>1268.2</ele>
        <time>2025-08-15T14:20:48Z</time>
      </trkpt>
      <trkpt lat="45.79715" lon="6.51355">
        <ele>1268.3</ele>
        <time>2025-08-15T14:20:49Z</time>
      </trkpt>
      <trkpt lat="45.79717" lon="6.5136">
        <ele>1268.7</ele>
        <time>2025-08-15T14:20:50Z</time>
      </trkpt>
      <trkpt lat="45.79718" lon="6.51361">
        <ele>1268.8</ele>
        <time>2025-08-15T14:20:51Z</time>
      </trkpt>
      <trkpt lat="45.7972" lon="6.51366">
        <ele>1269.1</ele>
        <time>2025-08-15T14:20:52Z</time>
      </trkpt>
      <trkpt lat="45.7972" lon="6.51368">
        <ele>1269.3</ele>
        <time>2025-08-15T14:20:53Z</time>
      </trkpt>
      <trkpt lat="45.79722" lon="6.51372">
        <ele>1269.6</ele>
        <time>2025-08-15T14:20:54Z</time>
      </trkpt>
      <trkpt lat="45.79723" lon="6.51374">
        <ele>1269.7</ele>
        <time>2025-08-15T14:20:55Z</time>
      </trkpt>
      <trkpt lat="45.79725" lon="6.51377">
        <ele>1270</ele>
        <time>2025-08-15T14:20:56Z</time>
      </trkpt>
      <trkpt lat="45.79727" lon="6.51382">
        <ele>1270.4</ele>
        <time>2025-08-15T14:20:57Z</time>
      </trkpt>
      <trkpt lat="45.79727" lon="6.51383">
        <ele>1270.5</ele>
        <time>2025-08-15T14:20:58Z</time>
      </trkpt>
      <trkpt lat="45.7973" lon="6.51388">
        <ele>1270.9</ele>
        <time>2025-08-15T14:20:59Z</time>
      </trkpt>
      <trkpt lat="45.7973" lon="6.51389">
        <ele>1271</ele>
        <time>2025-08-15T14:21:00Z</time>
      </trkpt>
      <trkpt lat="45.79732" lon="6.51394">
        <ele>1271.4</ele>
        <time>2025-08-15T14:21:01Z</time>
      </trkpt>
      <trkpt lat="45.79733" lon="6.51396">
        <ele>1271.5</ele>
        <time>2025-08-15T14:21:02Z</time>
      </trkpt>
      <trkpt lat="45.79735" lon="6.51401">
        <ele>1271.9</ele>
        <time>2025-08-15T14:21:03Z</time>
      </trkpt>
      <trkpt lat="45.79736" lon="6.51402">
        <ele>1272</ele>
        <time>2025-08-15T14:21:04Z</time>
      </trkpt>
      <trkpt lat="45.79737" lon="6.51406">
        <ele>1272.3</ele>
        <time>2025-08-15T14:21:05Z</time>
      </trkpt>
      <trkpt lat="45.79738" lon="6.51409">
        <ele>1272.5</ele>
        <time>2025-08-15T14:21:06Z</time>
      </trkpt>
      <trkpt lat="45.79741" lon="6.51414">
        <ele>1272.9</ele>
        <time>2025-08-15T14:21:07Z</time>
      </trkpt>
      <trkpt lat="45.79741" lon="6.51416">
        <ele>1273</ele>
        <time>2025-08-15T14:21:08Z</time>
      </trkpt>
      <trkpt lat="45.79743" lon="6.51419">
        <ele>1273.3</ele>
        <time>2025-08-15T14:21:09Z</time>
      </trkpt>
      <trkpt lat="45.79744" lon="6.51422">
        <ele>1273.6</ele>
        <time>2025-08-15T14:21:10Z</time>
      </trkpt>
      <trkpt lat="45.79747" lon="6.51427">
        <ele>1274</ele>
        <time>2025-08-15T14:21:11Z</time>
      </trkpt>
      <trkpt lat="45.79747" lon="6.51428">
        <ele>1274.1</ele>
        <time>2025-08-15T14:21:12Z</time>
      </trkpt>
      <trkpt lat="45.79749" lon="6.51432">
        <ele>1274.4</ele>
        <time>2025-08-15T14:21:13Z</time>
      </trkpt>
      <trkpt lat="45.79751" lon="6.51436">
        <ele>1274.8</ele>
        <time>2025-08-15T14:21:14Z</time>
      </trkpt>
      <trkpt lat="45.79752" lon="6.51438">
        <ele>1274.9</ele>
        <time>2025-08-15T14:21:15Z</time>
      </trkpt>
      <trkpt lat="45.79754" lon="6.51443">
        <ele>1275.3</ele>
        <time>2025-08-15T14:21:16Z</time>
      </trkpt>
      <trkpt lat="45.79754" lon="6.51444">
        <ele>1275.4</ele>
        <time>2025-08-15T14:21:17Z</time>
      </trkpt>
      <trkpt lat="45.79757" lon="6.51449">
        <ele>1275.8</ele>
        <time>2025-08-15T14:21:18Z</time>
      </trkpt>
      <trkpt lat="45.79757" lon="6.5145">
        <ele>1275.9</ele>
        <time>2025-08-15T14:21:19Z</time>
      </trkpt>
      <trkpt lat="45.79759" lon="6.51455">
        <ele>1276.3</ele>
        <time>2025-08-15T14:21:20Z</time>
      </trkpt>
      <trkpt lat="45.7976" lon="6.51457">
        <ele>1276.4</ele>
        <time>2025-08-15T14:21:21Z</time>
      </trkpt>
      <trkpt lat="45.79762" lon="6.51461">
        <ele>1276.8</ele>
        <time>2025-08-15T14:21:22Z</time>
      </trkpt>
      <trkpt lat="45.79763" lon="6.51463">
        <ele>1277</ele>
        <time>2025-08-15T14:21:23Z</time>
      </trkpt>
      <trkpt lat="45.79765" lon="6.51467">
        <ele>1277.3</ele>
        <time>2025-08-15T14:21:24Z</time>
      </trkpt>
      <trkpt lat="45.79765" lon="6.51469">
        <ele>1277.5</ele>
        <time>2025-08-15T14:21:25Z</time>
      </trkpt>
      <trkpt lat="45.79767" lon="6.51474">
        <ele>1277.9</ele>
        <time>2025-08-15T14:21:26Z</time>
      </trkpt>
      <trkpt lat="45.79768" lon="6.51475">
        <ele>1278</ele>
        <time>2025-08-15T14:21:27Z</time>
      </trkpt>
      <trkpt lat="45.7977" lon="6.5148">
        <ele>1278.4</ele>
        <time>2025-08-15T14:21:28Z</time>
      </trkpt>
      <trkpt lat="45.79771" lon="6.51482">
        <ele>1278.5</ele>
        <time>2025-08-15T14:21:29Z</time>
      </trkpt>
      <trkpt lat="45.79773" lon="6.51487">
        <ele>1278.9</ele>
        <time>2025-08-15T14:21:30Z</time>
      </trkpt>
      <trkpt lat="45.79773" lon="6.51488">
        <ele>1279</ele>
        <time>2025-08-15T14:21:31Z</time>
      </trkpt>
      <trkpt lat="45.79775" lon="6.51491">
        <ele>1279.3</ele>
        <time>2025-08-15T14:21:32Z</time>
      </trkpt>
      <trkpt lat="45.79777" lon="6.51496">
        <ele>1279.7</ele>
        <time>2025-08-15T14:21:33Z</time>
      </trkpt>
      <trkpt lat="45.79778" lon="6.51498">
        <ele>1279.8</ele>
        <time>2025-08-15T14:21:34Z</time>
      </trkpt>
      <trkpt lat="45.7978" lon="6.51503">
        <ele>1280.2</ele>
        <time>2025-08-15T14:21:35Z</time>
      </trkpt>
      <trkpt lat="45.79781" lon="6.51504">
        <ele>1280.3</ele>
        <time>2025-08-15T14:21:36Z</time>
      </trkpt>
      <trkpt lat="45.79783" lon="6.51509">
        <ele>1280.7</ele>
        <time>2025-08-15T14:21:37Z</time>
      </trkpt>
      <trkpt lat="45.79783" lon="6.51511">
        <ele>1280.8</ele>
        <time>2025-08-15T14:21:38Z</time>
      </trkpt>
      <trkpt lat="45.79785" lon="6.51515">
        <ele>1281.1</ele>
        <time>2025-08-15T14:21:39Z</time>
      </trkpt>
      <trkpt lat="45.79786" lon="6.51517">
        <ele>1281.3</ele>
        <time>2025-08-15T14:21:40Z</time>
      </trkpt>
      <trkpt lat="45.79788" lon="6.51521">
        <ele>1281.6</ele>
        <time>2025-08-15T14:21:41Z</time>
      </trkpt>
      <trkpt lat="45.79789" lon="6.51522">
        <ele>1281.7</ele>
        <time>2025-08-15T14:21:42Z</time>
      </trkpt>
      <trkpt lat="45.7979" lon="6.51527">
        <ele>1282.1</ele>
        <time>2025-08-15T14:21:43Z</time>
      </trkpt>
      <trkpt lat="45.79791" lon="6.51529">
        <ele>1282.2</ele>
        <time>2025-08-15T14:21:44Z</time>
      </trkpt>
      <trkpt lat="45.79793" lon="6.51533">
        <ele>1282.6</ele>
        <time>2025-08-15T14:21:45Z</time>
      </trkpt>
      <trkpt lat="45.79794" lon="6.51535">
        <ele>1282.8</ele>
        <time>2025-08-15T14:21:46Z</time>
      </trkpt>
      <trkpt lat="45.79795" lon="6.5154">
        <ele>1283.1</ele>
        <time>2025-08-15T14:21:47Z</time>
      </trkpt>
      <trkpt lat="45.79796" lon="6.51541">
        <ele>1283.2</ele>
        <time>2025-08-15T14:21:48Z</time>
      </trkpt>
      <trkpt lat="45.79797" lon="6.51545">
        <ele>1283.5</ele>
        <time>2025-08-15T14:21:49Z</time>
      </trkpt>
      <trkpt lat="45.79798" lon="6.51551">
        <ele>1283.9</ele>
        <time>2025-08-15T14:21:50Z</time>
      </trkpt>
      <trkpt lat="45.79799" lon="6.51553">
        <ele>1284</ele>
        <time>2025-08-15T14:21:51Z</time>
      </trkpt>
      <trkpt lat="45.798" lon="6.51556">
        <ele>1284.3</ele>
        <time>2025-08-15T14:21:52Z</time>
      </trkpt>
      <trkpt lat="45.79801" lon="6.5156">
        <ele>1284.5</ele>
        <time>2025-08-15T14:21:53Z</time>
      </trkpt>
      <trkpt lat="45.79802" lon="6.51564">
        <ele>1284.8</ele>
        <time>2025-08-15T14:21:54Z</time>
      </trkpt>
      <trkpt lat="45.79804" lon="6.51568">
        <ele>1285</ele>
        <time>2025-08-15T14:21:55Z</time>
      </trkpt>
      <trkpt lat="45.79805" lon="6.51572">
        <ele>1285.3</ele>
        <time>2025-08-15T14:21:56Z</time>
      </trkpt>
      <trkpt lat="45.79806" lon="6.51576">
        <ele>1285.5</ele>
        <time>2025-08-15T14:21:57Z</time>
      </trkpt>
      <trkpt lat="45.79807" lon="6.51579">
        <ele>1285.7</ele>
        <time>2025-08-15T14:21:58Z</time>
      </trkpt>
      <trkpt lat="45.79809" lon="6.51583">
        <ele>1286</ele>
        <time>2025-08-15T14:21:59Z</time>
      </trkpt>
      <trkpt lat="45.7981" lon="6.51587">
        <ele>1286.2</ele>
        <time>2025-08-15T14:22:00Z</time>
      </trkpt>
      <trkpt lat="45.79811" lon="6.51591">
        <ele>1286.4</ele>
        <time>2025-08-15T14:22:01Z</time>
      </trkpt>
      <trkpt lat="45.79812" lon="6.51594">
        <ele>1286.7</ele>
        <time>2025-08-15T14:22:02Z</time>
      </trkpt>
      <trkpt lat="45.79814" lon="6.51598">
        <ele>1286.9</ele>
        <time>2025-08-15T14:22:03Z</time>
      </trkpt>
      <trkpt lat="45.79815" lon="6.51602">
        <ele>1287.1</ele>
        <time>2025-08-15T14:22:04Z</time>
      </trkpt>
      <trkpt lat="45.79816" lon="6.51606">
        <ele>1287.4</ele>
        <time>2025-08-15T14:22:05Z</time>
      </trkpt>
      <trkpt lat="45.79817" lon="6.51609">
        <ele>1287.6</ele>
        <time>2025-08-15T14:22:06Z</time>
      </trkpt>
      <trkpt lat="45.79819" lon="6.51613">
        <ele>1287.8</ele>
        <time>2025-08-15T14:22:07Z</time>
      </trkpt>
      <trkpt lat="45.7982" lon="6.51617">
        <ele>1288.1</ele>
        <time>2025-08-15T14:22:08Z</time>
      </trkpt>
      <trkpt lat="45.79821" lon="6.51621">
        <ele>1288.3</ele>
        <time>2025-08-15T14:22:09Z</time>
      </trkpt>
      <trkpt lat="45.79822" lon="6.51624">
        <ele>1288.5</ele>
        <time>2025-08-15T14:22:10Z</time>
      </trkpt>
      <trkpt lat="45.79824" lon="6.51628">
        <ele>1288.8</ele>
        <time>2025-08-15T14:22:11Z</time>
      </trkpt>
      <trkpt lat="45.79825" lon="6.51632">
        <ele>1289</ele>
        <time>2025-08-15T14:22:12Z</time>
      </trkpt>
      <trkpt lat="45.79826" lon="6.51636">
        <ele>1289.2</ele>
        <time>2025-08-15T14:22:13Z</time>
      </trkpt>
      <trkpt lat="45.79827" lon="6.5164">
        <ele>1289.4</ele>
        <time>2025-08-15T14:22:14Z</time>
      </trkpt>
      <trkpt lat="45.79828" lon="6.51644">
        <ele>1289.7</ele>
        <time>2025-08-15T14:22:15Z</time>
      </trkpt>
      <trkpt lat="45.7983" lon="6.51648">
        <ele>1289.9</ele>
        <time>2025-08-15T14:22:16Z</time>
      </trkpt>
      <trkpt lat="45.79831" lon="6.51652">
        <ele>1290.2</ele>
        <time>2025-08-15T14:22:17Z</time>
      </trkpt>
      <trkpt lat="45.79832" lon="6.51655">
        <ele>1290.4</ele>
        <time>2025-08-15T14:22:18Z</time>
      </trkpt>
      <trkpt lat="45.79834" lon="6.5166">
        <ele>1290.7</ele>
        <time>2025-08-15T14:22:19Z</time>
      </trkpt>
      <trkpt lat="45.79835" lon="6.51664">
        <ele>1290.9</ele>
        <time>2025-08-15T14:22:20Z</time>
      </trkpt>
      <trkpt lat="45.79836" lon="6.51668">
        <ele>1291.2</ele>
        <time>2025-08-15T14:22:21Z</time>
      </trkpt>
      <trkpt lat="45.79837" lon="6.51672">
        <ele>1291.4</ele>
        <time>2025-08-15T14:22:22Z</time>
      </trkpt>
      <trkpt lat="45.79839" lon="6.51677">
        <ele>1291.6</ele>
        <time>2025-08-15T14:22:23Z</time>
      </trkpt>
      <trkpt lat="45.7984" lon="6.51681">
        <ele>1291.9</ele>
        <time>2025-08-15T14:22:24Z</time>
      </trkpt>
      <trkpt lat="45.79841" lon="6.51686">
        <ele>1292.1</ele>
        <time>2025-08-15T14:22:25Z</time>
      </trkpt>
      <trkpt lat="45.79842" lon="6.51691">
        <ele>1292.4</ele>
        <time>2025-08-15T14:22:26Z</time>
      </trkpt>
      <trkpt lat="45.79844" lon="6.51695">
        <ele>1292.6</ele>
        <time>2025-08-15T14:22:27Z</time>
      </trkpt>
      <trkpt lat="45.79845" lon="6.517">
        <ele>1292.8</ele>
        <time>2025-08-15T14:22:28Z</time>
      </trkpt>
      <trkpt lat="45.79846" lon="6.51705">
        <ele>1292.9</ele>
        <time>2025-08-15T14:22:29Z</time>
      </trkpt>
      <trkpt lat="45.79847" lon="6.5171">
        <ele>1293.1</ele>
        <time>2025-08-15T14:22:30Z</time>
      </trkpt>
      <trkpt lat="45.79848" lon="6.51714">
        <ele>1293.3</ele>
        <time>2025-08-15T14:22:31Z</time>
      </trkpt>
      <trkpt lat="45.79848" lon="6.51718">
        <ele>1293.5</ele>
        <time>2025-08-15T14:22:32Z</time>
      </trkpt>
      <trkpt lat="45.7985" lon="6.51723">
        <ele>1293.7</ele>
        <time>2025-08-15T14:22:33Z</time>
      </trkpt>
      <trkpt lat="45.79851" lon="6.51728">
        <ele>1293.9</ele>
        <time>2025-08-15T14:22:34Z</time>
      </trkpt>
      <trkpt lat="45.79852" lon="6.51733">
        <ele>1294.1</ele>
        <time>2025-08-15T14:22:35Z</time>
      </trkpt>
      <trkpt lat="45.79853" lon="6.51737">
        <ele>1294.3</ele>
        <time>2025-08-15T14:22:36Z</time>
      </trkpt>
      <trkpt lat="45.79854" lon="6.51743">
        <ele>1294.5</ele>
        <time>2025-08-15T14:22:37Z</time>
      </trkpt>
      <trkpt lat="45.79855" lon="6.51748">
        <ele>1294.8</ele>
        <time>2025-08-15T14:22:38Z</time>
      </trkpt>
      <trkpt lat="45.79855" lon="6.51753">
        <ele>1295</ele>
        <time>2025-08-15T14:22:39Z</time>
      </trkpt>
      <trkpt lat="45.79856" lon="6.51758">
        <ele>1295.3</ele>
        <time>2025-08-15T14:22:40Z</time>
      </trkpt>
      <trkpt lat="45.79857" lon="6.51764">
        <ele>1295.5</ele>
        <time>2025-08-15T14:22:41Z</time>
      </trkpt>
      <trkpt lat="45.79859" lon="6.51768">
        <ele>1295.7</ele>
        <time>2025-08-15T14:22:42Z</time>
      </trkpt>
      <trkpt lat="45.7986" lon="6.51773">
        <ele>1296</ele>
        <time>2025-08-15T14:22:43Z</time>
      </trkpt>
      <trkpt lat="45.7986" lon="6.51778">
        <ele>1296.2</ele>
        <time>2025-08-15T14:22:44Z</time>
      </trkpt>
      <trkpt lat="45.79861" lon="6.51783">
        <ele>1296.4</ele>
        <time>2025-08-15T14:22:45Z</time>
      </trkpt>
      <trkpt lat="45.79862" lon="6.51787">
        <ele>1296.7</ele>
        <time>2025-08-15T14:22:46Z</time>
      </trkpt>
      <trkpt lat="45.79862" lon="6.51792">
        <ele>1296.9</ele>
        <time>2025-08-15T14:22:47Z</time>
      </trkpt>
      <trkpt lat="45.79863" lon="6.51797">
        <ele>1297.2</ele>
        <time>2025-08-15T14:22:48Z</time>
      </trkpt>
      <trkpt lat="45.79863" lon="6.51802">
        <ele>1297.4</ele>
        <time>2025-08-15T14:22:49Z</time>
      </trkpt>
      <trkpt lat="45.79863" lon="6.51807">
        <ele>1297.6</ele>
        <time>2025-08-15T14:22:50Z</time>
      </trkpt>
      <trkpt lat="45.79863" lon="6.51811">
        <ele>1297.8</ele>
        <time>2025-08-15T14:22:51Z</time>
      </trkpt>
      <trkpt lat="45.79863" lon="6.51816">
        <ele>1298.1</ele>
        <time>2025-08-15T14:22:52Z</time>
      </trkpt>
      <trkpt lat="45.79864" lon="6.5182">
        <ele>1298.3</ele>
        <time>2025-08-15T14:22:53Z</time>
      </trkpt>
      <trkpt lat="45.79864" lon="6.51825">
        <ele>1298.6</ele>
        <time>2025-08-15T14:22:54Z</time>
      </trkpt>
      <trkpt lat="45.79864" lon="6.5183">
        <ele>1298.8</ele>
        <time>2025-08-15T14:22:55Z</time>
      </trkpt>
      <trkpt lat="45.79865" lon="6.51835">
        <ele>1299.1</ele>
        <time>2025-08-15T14:22:56Z</time>
      </trkpt>
      <trkpt lat="45.79865" lon="6.51841">
        <ele>1299.4</ele>
        <time>2025-08-15T14:22:57Z</time>
      </trkpt>
      <trkpt lat="45.79865" lon="6.51846">
        <ele>1299.6</ele>
        <time>2025-08-15T14:22:58Z</time>
      </trkpt>
      <trkpt lat="45.79866" lon="6.51851">
        <ele>1299.9</ele>
        <time>2025-08-15T14:22:59Z</time>
      </trkpt>
      <trkpt lat="45.79866" lon="6.51856">
        <ele>1300.1</ele>
        <time>2025-08-15T14:23:00Z</time>
      </trkpt>
      <trkpt lat="45.79867" lon="6.51861">
        <ele>1300.4</ele>
        <time>2025-08-15T14:23:01Z</time>
      </trkpt>
      <trkpt lat="45.79867" lon="6.51866">
        <ele>1300.6</ele>
        <time>2025-08-15T14:23:02Z</time>
      </trkpt>
      <trkpt lat="45.79868" lon="6.5187">
        <ele>1300.9</ele>
        <time>2025-08-15T14:23:03Z</time>
      </trkpt>
      <trkpt lat="45.79868" lon="6.51876">
        <ele>1301.2</ele>
        <time>2025-08-15T14:23:04Z</time>
      </trkpt>
      <trkpt lat="45.79869" lon="6.5188">
        <ele>1301.4</ele>
        <time>2025-08-15T14:23:05Z</time>
      </trkpt>
      <trkpt lat="45.7987" lon="6.51885">
        <ele>1301.7</ele>
        <time>2025-08-15T14:23:06Z</time>
      </trkpt>
      <trkpt lat="45.79871" lon="6.5189">
        <ele>1301.9</ele>
        <time>2025-08-15T14:23:07Z</time>
      </trkpt>
      <trkpt lat="45.79871" lon="6.51895">
        <ele>1302.2</ele>
        <time>2025-08-15T14:23:08Z</time>
      </trkpt>
      <trkpt lat="45.79872" lon="6.51899">
        <ele>1302.3</ele>
        <time>2025-08-15T14:23:09Z</time>
      </trkpt>
      <trkpt lat="45.79873" lon="6.51905">
        <ele>1302.3</ele>
        <time>2025-08-15T14:23:10Z</time>
      </trkpt>
      <trkpt lat="45.79873" lon="6.51909">
        <ele>1302.3</ele>
        <time>2025-08-15T14:23:11Z</time>
      </trkpt>
      <trkpt lat="45.79874" lon="6.51914">
        <ele>1302.4</ele>
        <time>2025-08-15T14:23:12Z</time>
      </trkpt>
      <trkpt lat="45.79875" lon="6.51919">
        <ele>1302.6</ele>
        <time>2025-08-15T14:23:13Z</time>
      </trkpt>
      <trkpt lat="45.79876" lon="6.51923">
        <ele>1302.8</ele>
        <time>2025-08-15T14:23:14Z</time>
      </trkpt>
      <trkpt lat="45.79877" lon="6.51928">
        <ele>1303</ele>
        <time>2025-08-15T14:23:15Z</time>
      </trkpt>
      <trkpt lat="45.79878" lon="6.51932">
        <ele>1303.2</ele>
        <time>2025-08-15T14:23:16Z</time>
      </trkpt>
      <trkpt lat="45.79878" lon="6.51937">
        <ele>1303.4</ele>
        <time>2025-08-15T14:23:17Z</time>
      </trkpt>
      <trkpt lat="45.79879" lon="6.51942">
        <ele>1303.6</ele>
        <time>2025-08-15T14:23:18Z</time>
      </trkpt>
      <trkpt lat="45.79879" lon="6.51946">
        <ele>1303.7</ele>
        <time>2025-08-15T14:23:19Z</time>
      </trkpt>
      <trkpt lat="45.7988" lon="6.5195">
        <ele>1303.9</ele>
        <time>2025-08-15T14:23:20Z</time>
      </trkpt>
      <trkpt lat="45.7988" lon="6.51954">
        <ele>1304.1</ele>
        <time>2025-08-15T14:23:21Z</time>
      </trkpt>
      <trkpt lat="45.79881" lon="6.5196">
        <ele>1304.3</ele>
        <time>2025-08-15T14:23:22Z</time>
      </trkpt>
      <trkpt lat="45.79882" lon="6.51961">
        <ele>1304.4</ele>
        <time>2025-08-15T14:23:23Z</time>
      </trkpt>
      <trkpt lat="45.79883" lon="6.51967">
        <ele>1304.7</ele>
        <time>2025-08-15T14:23:24Z</time>
      </trkpt>
      <trkpt lat="45.79883" lon="6.51969">
        <ele>1304.7</ele>
        <time>2025-08-15T14:23:25Z</time>
      </trkpt>
      <trkpt lat="45.79884" lon="6.51974">
        <ele>1305</ele>
        <time>2025-08-15T14:23:26Z</time>
      </trkpt>
      <trkpt lat="45.79884" lon="6.51976">
        <ele>1305.1</ele>
        <time>2025-08-15T14:23:27Z</time>
      </trkpt>
      <trkpt lat="45.79885" lon="6.51981">
        <ele>1305.3</ele>
        <time>2025-08-15T14:23:28Z</time>
      </trkpt>
      <trkpt lat="45.79885" lon="6.51983">
        <ele>1305.4</ele>
        <time>2025-08-15T14:23:29Z</time>
      </trkpt>
      <trkpt lat="45.79886" lon="6.51987">
        <ele>1305.6</ele>
        <time>2025-08-15T14:23:30Z</time>
      </trkpt>
      <trkpt lat="45.79887" lon="6.51991">
        <ele>1305.8</ele>
        <time>2025-08-15T14:23:31Z</time>
      </trkpt>
      <trkpt lat="45.79887" lon="6.51995">
        <ele>1306</ele>
        <time>2025-08-15T14:23:32Z</time>
      </trkpt>
      <trkpt lat="45.79888" lon="6.51999">
        <ele>1306.2</ele>
        <time>2025-08-15T14:23:33Z</time>
      </trkpt>
      <trkpt lat="45.79889" lon="6.52004">
        <ele>1306.4</ele>
        <time>2025-08-15T14:23:34Z</time>
      </trkpt>
      <trkpt lat="45.79889" lon="6.52008">
        <ele>1306.7</ele>
        <time>2025-08-15T14:23:35Z</time>
      </trkpt>
      <trkpt lat="45.7989" lon="6.52012">
        <ele>1306.9</ele>
        <time>2025-08-15T14:23:36Z</time>
      </trkpt>
      <trkpt lat="45.7989" lon="6.52017">
        <ele>1307.2</ele>
        <time>2025-08-15T14:23:37Z</time>
      </trkpt>
      <trkpt lat="45.79891" lon="6.52021">
        <ele>1307.4</ele>
        <time>2025-08-15T14:23:38Z</time>
      </trkpt>
      <trkpt lat="45.79891" lon="6.52026">
        <ele>1307.7</ele>
        <time>2025-08-15T14:23:39Z</time>
      </trkpt>
      <trkpt lat="45.79892" lon="6.5203">
        <ele>1308</ele>
        <time>2025-08-15T14:23:40Z</time>
      </trkpt>
      <trkpt lat="45.79892" lon="6.52035">
        <ele>1308.2</ele>
        <time>2025-08-15T14:23:41Z</time>
      </trkpt>
      <trkpt lat="45.79893" lon="6.5204">
        <ele>1308.6</ele>
        <time>2025-08-15T14:23:42Z</time>
      </trkpt>
      <trkpt lat="45.79893" lon="6.52042">
        <ele>1308.7</ele>
        <time>2025-08-15T14:23:43Z</time>
      </trkpt>
      <trkpt lat="45.79894" lon="6.52047">
        <ele>1309.1</ele>
        <time>2025-08-15T14:23:44Z</time>
      </trkpt>
      <trkpt lat="45.79894" lon="6.52048">
        <ele>1309.2</ele>
        <time>2025-08-15T14:23:45Z</time>
      </trkpt>
      <trkpt lat="45.79895" lon="6.52053">
        <ele>1309.5</ele>
        <time>2025-08-15T14:23:46Z</time>
      </trkpt>
      <trkpt lat="45.79895" lon="6.52055">
        <ele>1309.6</ele>
        <time>2025-08-15T14:23:47Z</time>
      </trkpt>
      <trkpt lat="45.79895" lon="6.52059">
        <ele>1309.9</ele>
        <time>2025-08-15T14:23:48Z</time>
      </trkpt>
      <trkpt lat="45.79896" lon="6.52063">
        <ele>1310.2</ele>
        <time>2025-08-15T14:23:49Z</time>
      </trkpt>
      <trkpt lat="45.79897" lon="6.52067">
        <ele>1310.5</ele>
        <time>2025-08-15T14:23:50Z</time>
      </trkpt>
      <trkpt lat="45.79898" lon="6.52072">
        <ele>1310.9</ele>
        <time>2025-08-15T14:23:51Z</time>
      </trkpt>
      <trkpt lat="45.79898" lon="6.52074">
        <ele>1311.1</ele>
        <time>2025-08-15T14:23:52Z</time>
      </trkpt>
      <trkpt lat="45.79899" lon="6.52078">
        <ele>1311.4</ele>
        <time>2025-08-15T14:23:53Z</time>
      </trkpt>
      <trkpt lat="45.79899" lon="6.52082">
        <ele>1311.7</ele>
        <time>2025-08-15T14:23:54Z</time>
      </trkpt>
      <trkpt lat="45.799" lon="6.52087">
        <ele>1312</ele>
        <time>2025-08-15T14:23:55Z</time>
      </trkpt>
      <trkpt lat="45.799" lon="6.52091">
        <ele>1312.3</ele>
        <time>2025-08-15T14:23:56Z</time>
      </trkpt>
      <trkpt lat="45.79901" lon="6.52095">
        <ele>1312.6</ele>
        <time>2025-08-15T14:23:57Z</time>
      </trkpt>
      <trkpt lat="45.79901" lon="6.52099">
        <ele>1313</ele>
        <time>2025-08-15T14:23:58Z</time>
      </trkpt>
      <trkpt lat="45.79902" lon="6.52103">
        <ele>1313.3</ele>
        <time>2025-08-15T14:23:59Z</time>
      </trkpt>
      <trkpt lat="45.79903" lon="6.52108">
        <ele>1313.6</ele>
        <time>2025-08-15T14:24:00Z</time>
      </trkpt>
      <trkpt lat="45.79903" lon="6.52112">
        <ele>1313.9</ele>
        <time>2025-08-15T14:24:01Z</time>
      </trkpt>
      <trkpt lat="45.79904" lon="6.52116">
        <ele>1314.3</ele>
        <time>2025-08-15T14:24:02Z</time>
      </trkpt>
      <trkpt lat="45.79904" lon="6.52121">
        <ele>1314.6</ele>
        <time>2025-08-15T14:24:03Z</time>
      </trkpt>
      <trkpt lat="45.79905" lon="6.52126">
        <ele>1314.9</ele>
        <time>2025-08-15T14:24:04Z</time>
      </trkpt>
      <trkpt lat="45.79905" lon="6.5213">
        <ele>1315.2</ele>
        <time>2025-08-15T14:24:05Z</time>
      </trkpt>
      <trkpt lat="45.79905" lon="6.52135">
        <ele>1315.6</ele>
        <time>2025-08-15T14:24:06Z</time>
      </trkpt>
      <trkpt lat="45.79906" lon="6.52139">
        <ele>1315.9</ele>
        <time>2025-08-15T14:24:07Z</time>
      </trkpt>
      <trkpt lat="45.79907" lon="6.52144">
        <ele>1316.2</ele>
        <time>2025-08-15T14:24:08Z</time>
      </trkpt>
      <trkpt lat="45.79907" lon="6.52149">
        <ele>1316.6</ele>
        <time>2025-08-15T14:24:09Z</time>
      </trkpt>
      <trkpt lat="45.79908" lon="6.52153">
        <ele>1316.9</ele>
        <time>2025-08-15T14:24:10Z</time>
      </trkpt>
      <trkpt lat="45.79908" lon="6.52158">
        <ele>1317.3</ele>
        <time>2025-08-15T14:24:11Z</time>
      </trkpt>
      <trkpt lat="45.79909" lon="6.52163">
        <ele>1317.6</ele>
        <time>2025-08-15T14:24:12Z</time>
      </trkpt>
      <trkpt lat="45.79909" lon="6.52168">
        <ele>1318</ele>
        <time>2025-08-15T14:24:13Z</time>
      </trkpt>
      <trkpt lat="45.79909" lon="6.52173">
        <ele>1318.3</ele>
        <time>2025-08-15T14:24:14Z</time>
      </trkpt>
      <trkpt lat="45.7991" lon="6.52178">
        <ele>1318.7</ele>
        <time>2025-08-15T14:24:15Z</time>
      </trkpt>
      <trkpt lat="45.7991" lon="6.52183">
        <ele>1319.1</ele>
        <time>2025-08-15T14:24:16Z</time>
      </trkpt>
      <trkpt lat="45.7991" lon="6.52187">
        <ele>1319.5</ele>
        <time>2025-08-15T14:24:17Z</time>
      </trkpt>
      <trkpt lat="45.79911" lon="6.52192">
        <ele>1319.8</ele>
        <time>2025-08-15T14:24:18Z</time>
      </trkpt>
      <trkpt lat="45.79911" lon="6.52197">
        <ele>1320.2</ele>
        <time>2025-08-15T14:24:19Z</time>
      </trkpt>
      <trkpt lat="45.79911" lon="6.52202">
        <ele>1320.6</ele>
        <time>2025-08-15T14:24:20Z</time>
      </trkpt>
      <trkpt lat="45.79911" lon="6.52207">
        <ele>1321</ele>
        <time>2025-08-15T14:24:21Z</time>
      </trkpt>
      <trkpt lat="45.79911" lon="6.52213">
        <ele>1321.4</ele>
        <time>2025-08-15T14:24:22Z</time>
      </trkpt>
      <trkpt lat="45.79911" lon="6.52218">
        <ele>1321.8</ele>
        <time>2025-08-15T14:24:23Z</time>
      </trkpt>
      <trkpt lat="45.79911" lon="6.52224">
        <ele>1322.2</ele>
        <time>2025-08-15T14:24:24Z</time>
      </trkpt>
      <trkpt lat="45.79911" lon="6.52229">
        <ele>1322.6</ele>
        <time>2025-08-15T14:24:25Z</time>
      </trkpt>
      <trkpt lat="45.79911" lon="6.52234">
        <ele>1322.9</ele>
        <time>2025-08-15T14:24:26Z</time>
      </trkpt>
      <trkpt lat="45.79911" lon="6.5224">
        <ele>1323.3</ele>
        <time>2025-08-15T14:24:27Z</time>
      </trkpt>
      <trkpt lat="45.79911" lon="6.52246">
        <ele>1323.7</ele>
        <time>2025-08-15T14:24:28Z</time>
      </trkpt>
      <trkpt lat="45.7991" lon="6.52252">
        <ele>1324</ele>
        <time>2025-08-15T14:24:29Z</time>
      </trkpt>
      <trkpt lat="45.7991" lon="6.52257">
        <ele>1324.4</ele>
        <time>2025-08-15T14:24:30Z</time>
      </trkpt>
      <trkpt lat="45.79909" lon="6.52263">
        <ele>1324.7</ele>
        <time>2025-08-15T14:24:31Z</time>
      </trkpt>
      <trkpt lat="45.79909" lon="6.52268">
        <ele>1325</ele>
        <time>2025-08-15T14:24:32Z</time>
      </trkpt>
      <trkpt lat="45.79908" lon="6.52273">
        <ele>1325.3</ele>
        <time>2025-08-15T14:24:33Z</time>
      </trkpt>
      <trkpt lat="45.79907" lon="6.52278">
        <ele>1325.6</ele>
        <time>2025-08-15T14:24:34Z</time>
      </trkpt>
      <trkpt lat="45.79906" lon="6.52284">
        <ele>1325.9</ele>
        <time>2025-08-15T14:24:35Z</time>
      </trkpt>
      <trkpt lat="45.79906" lon="6.52289">
        <ele>1326.2</ele>
        <time>2025-08-15T14:24:36Z</time>
      </trkpt>
      <trkpt lat="45.79905" lon="6.52294">
        <ele>1326.5</ele>
        <time>2025-08-15T14:24:37Z</time>
      </trkpt>
      <trkpt lat="45.79905" lon="6.52299">
        <ele>1326.8</ele>
        <time>2025-08-15T14:24:38Z</time>
      </trkpt>
      <trkpt lat="45.79904" lon="6.52304">
        <ele>1327.1</ele>
        <time>2025-08-15T14:24:39Z</time>
      </trkpt>
      <trkpt lat="45.79903" lon="6.52309">
        <ele>1327.3</ele>
        <time>2025-08-15T14:24:40Z</time>
      </trkpt>
      <trkpt lat="45.79903" lon="6.52315">
        <ele>1327.6</ele>
        <time>2025-08-15T14:24:41Z</time>
      </trkpt>
      <trkpt lat="45.79902" lon="6.5232">
        <ele>1327.9</ele>
        <time>2025-08-15T14:24:42Z</time>
      </trkpt>
      <trkpt lat="45.79901" lon="6.52325">
        <ele>1328.2</ele>
        <time>2025-08-15T14:24:43Z</time>
      </trkpt>
      <trkpt lat="45.79901" lon="6.52331">
        <ele>1328.5</ele>
        <time>2025-08-15T14:24:44Z</time>
      </trkpt>
      <trkpt lat="45.799" lon="6.52336">
        <ele>1328.8</ele>
        <time>2025-08-15T14:24:45Z</time>
      </trkpt>
      <trkpt lat="45.79899" lon="6.52342">
        <ele>1329.1</ele>
        <time>2025-08-15T14:24:46Z</time>
      </trkpt>
      <trkpt lat="45.79898" lon="6.52347">
        <ele>1329.4</ele>
        <time>2025-08-15T14:24:47Z</time>
      </trkpt>
      <trkpt lat="45.79897" lon="6.52353">
        <ele>1329.7</ele>
        <time>2025-08-15T14:24:48Z</time>
      </trkpt>
      <trkpt lat="45.79897" lon="6.52358">
        <ele>1329.9</ele>
        <time>2025-08-15T14:24:49Z</time>
      </trkpt>
      <trkpt lat="45.79896" lon="6.52364">
        <ele>1330.2</ele>
        <time>2025-08-15T14:24:50Z</time>
      </trkpt>
      <trkpt lat="45.79895" lon="6.52369">
        <ele>1330.5</ele>
        <time>2025-08-15T14:24:51Z</time>
      </trkpt>
      <trkpt lat="45.79895" lon="6.52375">
        <ele>1330.7</ele>
        <time>2025-08-15T14:24:52Z</time>
      </trkpt>
      <trkpt lat="45.79894" lon="6.5238">
        <ele>1331</ele>
        <time>2025-08-15T14:24:53Z</time>
      </trkpt>
      <trkpt lat="45.79892" lon="6.52385">
        <ele>1331.3</ele>
        <time>2025-08-15T14:24:54Z</time>
      </trkpt>
      <trkpt lat="45.79891" lon="6.5239">
        <ele>1331.6</ele>
        <time>2025-08-15T14:24:55Z</time>
      </trkpt>
      <trkpt lat="45.7989" lon="6.52396">
        <ele>1331.8</ele>
        <time>2025-08-15T14:24:56Z</time>
      </trkpt>
      <trkpt lat="45.79889" lon="6.52401">
        <ele>1332.1</ele>
        <time>2025-08-15T14:24:57Z</time>
      </trkpt>
      <trkpt lat="45.79888" lon="6.52407">
        <ele>1332.4</ele>
        <time>2025-08-15T14:24:58Z</time>
      </trkpt>
      <trkpt lat="45.79887" lon="6.52412">
        <ele>1332.7</ele>
        <time>2025-08-15T14:24:59Z</time>
      </trkpt>
      <trkpt lat="45.79886" lon="6.52418">
        <ele>1333</ele>
        <time>2025-08-15T14:25:00Z</time>
      </trkpt>
      <trkpt lat="45.79884" lon="6.52423">
        <ele>1333.3</ele>
        <time>2025-08-15T14:25:01Z</time>
      </trkpt>
      <trkpt lat="45.79883" lon="6.52429">
        <ele>1333.7</ele>
        <time>2025-08-15T14:25:02Z</time>
      </trkpt>
      <trkpt lat="45.79881" lon="6.52434">
        <ele>1334.1</ele>
        <time>2025-08-15T14:25:03Z</time>
      </trkpt>
      <trkpt lat="45.7988" lon="6.5244">
        <ele>1334.4</ele>
        <time>2025-08-15T14:25:04Z</time>
      </trkpt>
      <trkpt lat="45.79878" lon="6.52445">
        <ele>1334.8</ele>
        <time>2025-08-15T14:25:05Z</time>
      </trkpt>
      <trkpt lat="45.79877" lon="6.52451">
        <ele>1335.2</ele>
        <time>2025-08-15T14:25:06Z</time>
      </trkpt>
      <trkpt lat="45.79875" lon="6.52456">
        <ele>1335.5</ele>
        <time>2025-08-15T14:25:07Z</time>
      </trkpt>
      <trkpt lat="45.79874" lon="6.52462">
        <ele>1335.9</ele>
        <time>2025-08-15T14:25:08Z</time>
      </trkpt>
      <trkpt lat="45.79873" lon="6.52468">
        <ele>1336.2</ele>
        <time>2025-08-15T14:25:09Z</time>
      </trkpt>
      <trkpt lat="45.79871" lon="6.52473">
        <ele>1336.6</ele>
        <time>2025-08-15T14:25:10Z</time>
      </trkpt>
      <trkpt lat="45.7987" lon="6.52479">
        <ele>1336.9</ele>
        <time>2025-08-15T14:25:11Z</time>
      </trkpt>
      <trkpt lat="45.79868" lon="6.52484">
        <ele>1337.3</ele>
        <time>2025-08-15T14:25:12Z</time>
      </trkpt>
      <trkpt lat="45.79866" lon="6.52489">
        <ele>1337.7</ele>
        <time>2025-08-15T14:25:13Z</time>
      </trkpt>
      <trkpt lat="45.79864" lon="6.52494">
        <ele>1338</ele>
        <time>2025-08-15T14:25:14Z</time>
      </trkpt>
      <trkpt lat="45.79862" lon="6.52499">
        <ele>1338.4</ele>
        <time>2025-08-15T14:25:15Z</time>
      </trkpt>
      <trkpt lat="45.79859" lon="6.52504">
        <ele>1338.7</ele>
        <time>2025-08-15T14:25:16Z</time>
      </trkpt>
      <trkpt lat="45.79857" lon="6.52508">
        <ele>1339.1</ele>
        <time>2025-08-15T14:25:17Z</time>
      </trkpt>
      <trkpt lat="45.79855" lon="6.52513">
        <ele>1339.5</ele>
        <time>2025-08-15T14:25:18Z</time>
      </trkpt>
      <trkpt lat="45.79852" lon="6.52518">
        <ele>1339.8</ele>
        <time>2025-08-15T14:25:19Z</time>
      </trkpt>
      <trkpt lat="45.7985" lon="6.52522">
        <ele>1340.2</ele>
        <time>2025-08-15T14:25:20Z</time>
      </trkpt>
      <trkpt lat="45.79848" lon="6.52527">
        <ele>1340.5</ele>
        <time>2025-08-15T14:25:21Z</time>
      </trkpt>
      <trkpt lat="45.79846" lon="6.52531">
        <ele>1340.9</ele>
        <time>2025-08-15T14:25:22Z</time>
      </trkpt>
      <trkpt lat="45.79844" lon="6.52536">
        <ele>1341.3</ele>
        <time>2025-08-15T14:25:23Z</time>
      </trkpt>
      <trkpt lat="45.79841" lon="6.52541">
        <ele>1341.6</ele>
        <time>2025-08-15T14:25:24Z</time>
      </trkpt>
      <trkpt lat="45.79839" lon="6.52545">
        <ele>1342</ele>
        <time>2025-08-15T14:25:25Z</time>
      </trkpt>
      <trkpt lat="45.79837" lon="6.52549">
        <ele>1342.4</ele>
        <time>2025-08-15T14:25:26Z</time>
      </trkpt>
      <trkpt lat="45.79834" lon="6.52554">
        <ele>1342.9</ele>
        <time>2025-08-15T14:25:27Z</time>
      </trkpt>
      <trkpt lat="45.79832" lon="6.52558">
        <ele>1343.2</ele>
        <time>2025-08-15T14:25:28Z</time>
      </trkpt>
      <trkpt lat="45.7983" lon="6.52562">
        <ele>1343.6</ele>
        <time>2025-08-15T14:25:29Z</time>
      </trkpt>
      <trkpt lat="45.79828" lon="6.52566">
        <ele>1344</ele>
        <time>2025-08-15T14:25:30Z</time>
      </trkpt>
      <trkpt lat="45.79826" lon="6.52569">
        <ele>1344.4</ele>
        <time>2025-08-15T14:25:31Z</time>
      </trkpt>
      <trkpt lat="45.79824" lon="6.52573">
        <ele>1344.7</ele>
        <time>2025-08-15T14:25:32Z</time>
      </trkpt>
      <trkpt lat="45.79822" lon="6.52576">
        <ele>1345.1</ele>
        <time>2025-08-15T14:25:33Z</time>
      </trkpt>
      <trkpt lat="45.79819" lon="6.52579">
        <ele>1345.4</ele>
        <time>2025-08-15T14:25:34Z</time>
      </trkpt>
      <trkpt lat="45.79818" lon="6.52582">
        <ele>1345.7</ele>
        <time>2025-08-15T14:25:35Z</time>
      </trkpt>
      <trkpt lat="45.79818" lon="6.52584">
        <ele>1345.8</ele>
        <time>2025-08-15T14:25:36Z</time>
      </trkpt>
      <trkpt lat="45.79818" lon="6.52589">
        <ele>1346.2</ele>
        <time>2025-08-15T14:25:37Z</time>
      </trkpt>
      <trkpt lat="45.79818" lon="6.52591">
        <ele>1346.3</ele>
        <time>2025-08-15T14:25:38Z</time>
      </trkpt>
      <trkpt lat="45.79813" lon="6.52594">
        <ele>1346.9</ele>
        <time>2025-08-15T14:25:39Z</time>
      </trkpt>
      <trkpt lat="45.79809" lon="6.52597">
        <ele>1347.4</ele>
        <time>2025-08-15T14:25:40Z</time>
      </trkpt>
      <trkpt lat="45.79806" lon="6.52599">
        <ele>1347.7</ele>
        <time>2025-08-15T14:25:41Z</time>
      </trkpt>
      <trkpt lat="45.79804" lon="6.52603">
        <ele>1348</ele>
        <time>2025-08-15T14:25:42Z</time>
      </trkpt>
      <trkpt lat="45.79803" lon="6.52604">
        <ele>1348.2</ele>
        <time>2025-08-15T14:25:43Z</time>
      </trkpt>
      <trkpt lat="45.798" lon="6.52607">
        <ele>1348.5</ele>
        <time>2025-08-15T14:25:44Z</time>
      </trkpt>
      <trkpt lat="45.79797" lon="6.5261">
        <ele>1348.9</ele>
        <time>2025-08-15T14:25:45Z</time>
      </trkpt>
      <trkpt lat="45.79795" lon="6.52612">
        <ele>1349.2</ele>
        <time>2025-08-15T14:25:46Z</time>
      </trkpt>
      <trkpt lat="45.79793" lon="6.52615">
        <ele>1349.5</ele>
        <time>2025-08-15T14:25:47Z</time>
      </trkpt>
      <trkpt lat="45.7979" lon="6.52619">
        <ele>1349.9</ele>
        <time>2025-08-15T14:25:48Z</time>
      </trkpt>
      <trkpt lat="45.7979" lon="6.5262">
        <ele>1350</ele>
        <time>2025-08-15T14:25:49Z</time>
      </trkpt>
      <trkpt lat="45.79787" lon="6.52622">
        <ele>1350.3</ele>
        <time>2025-08-15T14:25:50Z</time>
      </trkpt>
      <trkpt lat="45.79785" lon="6.52625">
        <ele>1350.6</ele>
        <time>2025-08-15T14:25:51Z</time>
      </trkpt>
      <trkpt lat="45.79782" lon="6.52627">
        <ele>1351</ele>
        <time>2025-08-15T14:25:52Z</time>
      </trkpt>
      <trkpt lat="45.7978" lon="6.52629">
        <ele>1351.2</ele>
        <time>2025-08-15T14:25:53Z</time>
      </trkpt>
      <trkpt lat="45.79778" lon="6.52631">
        <ele>1351.5</ele>
        <time>2025-08-15T14:25:54Z</time>
      </trkpt>
      <trkpt lat="45.79775" lon="6.52633">
        <ele>1351.8</ele>
        <time>2025-08-15T14:25:55Z</time>
      </trkpt>
      <trkpt lat="45.79773" lon="6.52636">
        <ele>1352.1</ele>
        <time>2025-08-15T14:25:56Z</time>
      </trkpt>
      <trkpt lat="45.79773" lon="6.52638">
        <ele>1352.2</ele>
        <time>2025-08-15T14:25:57Z</time>
      </trkpt>
      <trkpt lat="45.7977" lon="6.52639">
        <ele>1352.6</ele>
        <time>2025-08-15T14:25:58Z</time>
      </trkpt>
      <trkpt lat="45.79766" lon="6.52642">
        <ele>1353</ele>
        <time>2025-08-15T14:25:59Z</time>
      </trkpt>
      <trkpt lat="45.79765" lon="6.52643">
        <ele>1353.1</ele>
        <time>2025-08-15T14:26:00Z</time>
      </trkpt>
      <trkpt lat="45.79762" lon="6.52645">
        <ele>1353.5</ele>
        <time>2025-08-15T14:26:01Z</time>
      </trkpt>
      <trkpt lat="45.79758" lon="6.52648">
        <ele>1353.9</ele>
        <time>2025-08-15T14:26:02Z</time>
      </trkpt>
      <trkpt lat="45.79757" lon="6.52649">
        <ele>1354</ele>
        <time>2025-08-15T14:26:03Z</time>
      </trkpt>
      <trkpt lat="45.79754" lon="6.52652">
        <ele>1354.4</ele>
        <time>2025-08-15T14:26:04Z</time>
      </trkpt>
      <trkpt lat="45.79752" lon="6.52653">
        <ele>1354.6</ele>
        <time>2025-08-15T14:26:05Z</time>
      </trkpt>
      <trkpt lat="45.79749" lon="6.52657">
        <ele>1355</ele>
        <time>2025-08-15T14:26:06Z</time>
      </trkpt>
      <trkpt lat="45.79748" lon="6.52658">
        <ele>1355.1</ele>
        <time>2025-08-15T14:26:07Z</time>
      </trkpt>
      <trkpt lat="45.79744" lon="6.5266">
        <ele>1355.5</ele>
        <time>2025-08-15T14:26:08Z</time>
      </trkpt>
      <trkpt lat="45.79743" lon="6.52661">
        <ele>1355.7</ele>
        <time>2025-08-15T14:26:09Z</time>
      </trkpt>
      <trkpt lat="45.7974" lon="6.52663">
        <ele>1356</ele>
        <time>2025-08-15T14:26:10Z</time>
      </trkpt>
      <trkpt lat="45.79738" lon="6.52665">
        <ele>1356.3</ele>
        <time>2025-08-15T14:26:11Z</time>
      </trkpt>
      <trkpt lat="45.79735" lon="6.52669">
        <ele>1356.6</ele>
        <time>2025-08-15T14:26:12Z</time>
      </trkpt>
      <trkpt lat="45.79734" lon="6.5267">
        <ele>1356.8</ele>
        <time>2025-08-15T14:26:13Z</time>
      </trkpt>
      <trkpt lat="45.79731" lon="6.52672">
        <ele>1357.1</ele>
        <time>2025-08-15T14:26:14Z</time>
      </trkpt>
      <trkpt lat="45.79727" lon="6.52674">
        <ele>1357.6</ele>
        <time>2025-08-15T14:26:15Z</time>
      </trkpt>
      <trkpt lat="45.79725" lon="6.52676">
        <ele>1357.7</ele>
        <time>2025-08-15T14:26:16Z</time>
      </trkpt>
      <trkpt lat="45.79723" lon="6.52678">
        <ele>1358</ele>
        <time>2025-08-15T14:26:17Z</time>
      </trkpt>
      <trkpt lat="45.79721" lon="6.5268">
        <ele>1358.3</ele>
        <time>2025-08-15T14:26:18Z</time>
      </trkpt>
      <trkpt lat="45.79718" lon="6.52682">
        <ele>1358.6</ele>
        <time>2025-08-15T14:26:19Z</time>
      </trkpt>
      <trkpt lat="45.79715" lon="6.52685">
        <ele>1358.9</ele>
        <time>2025-08-15T14:26:20Z</time>
      </trkpt>
      <trkpt lat="45.79713" lon="6.52687">
        <ele>1359.2</ele>
        <time>2025-08-15T14:26:21Z</time>
      </trkpt>
      <trkpt lat="45.7971" lon="6.5269">
        <ele>1359.5</ele>
        <time>2025-08-15T14:26:22Z</time>
      </trkpt>
      <trkpt lat="45.79708" lon="6.52691">
        <ele>1359.8</ele>
        <time>2025-08-15T14:26:23Z</time>
      </trkpt>
      <trkpt lat="45.79705" lon="6.52693">
        <ele>1360.1</ele>
        <time>2025-08-15T14:26:24Z</time>
      </trkpt>
      <trkpt lat="45.79702" lon="6.52695">
        <ele>1360.4</ele>
        <time>2025-08-15T14:26:25Z</time>
      </trkpt>
      <trkpt lat="45.79699" lon="6.52696">
        <ele>1360.7</ele>
        <time>2025-08-15T14:26:26Z</time>
      </trkpt>
      <trkpt lat="45.79696" lon="6.52698">
        <ele>1361</ele>
        <time>2025-08-15T14:26:27Z</time>
      </trkpt>
      <trkpt lat="45.79694" lon="6.527">
        <ele>1361.2</ele>
        <time>2025-08-15T14:26:28Z</time>
      </trkpt>
      <trkpt lat="45.79691" lon="6.52702">
        <ele>1361.5</ele>
        <time>2025-08-15T14:26:29Z</time>
      </trkpt>
      <trkpt lat="45.79688" lon="6.52704">
        <ele>1361.8</ele>
        <time>2025-08-15T14:26:30Z</time>
      </trkpt>
      <trkpt lat="45.79685" lon="6.52705">
        <ele>1362</ele>
        <time>2025-08-15T14:26:31Z</time>
      </trkpt>
      <trkpt lat="45.79683" lon="6.52708">
        <ele>1362.3</ele>
        <time>2025-08-15T14:26:32Z</time>
      </trkpt>
      <trkpt lat="45.7968" lon="6.5271">
        <ele>1362.5</ele>
        <time>2025-08-15T14:26:33Z</time>
      </trkpt>
      <trkpt lat="45.79678" lon="6.52713">
        <ele>1362.8</ele>
        <time>2025-08-15T14:26:34Z</time>
      </trkpt>
      <trkpt lat="45.79676" lon="6.52716">
        <ele>1363.1</ele>
        <time>2025-08-15T14:26:35Z</time>
      </trkpt>
      <trkpt lat="45.79674" lon="6.52719">
        <ele>1363.3</ele>
        <time>2025-08-15T14:26:36Z</time>
      </trkpt>
      <trkpt lat="45.79672" lon="6.52722">
        <ele>1363.6</ele>
        <time>2025-08-15T14:26:37Z</time>
      </trkpt>
      <trkpt lat="45.7967" lon="6.52726">
        <ele>1363.9</ele>
        <time>2025-08-15T14:26:38Z</time>
      </trkpt>
      <trkpt lat="45.79669" lon="6.5273">
        <ele>1364.2</ele>
        <time>2025-08-15T14:26:39Z</time>
      </trkpt>
      <trkpt lat="45.79667" lon="6.52733">
        <ele>1364.4</ele>
        <time>2025-08-15T14:26:40Z</time>
      </trkpt>
      <trkpt lat="45.79666" lon="6.52737">
        <ele>1364.7</ele>
        <time>2025-08-15T14:26:41Z</time>
      </trkpt>
      <trkpt lat="45.79665" lon="6.52741">
        <ele>1365</ele>
        <time>2025-08-15T14:26:42Z</time>
      </trkpt>
      <trkpt lat="45.79664" lon="6.52745">
        <ele>1365.3</ele>
        <time>2025-08-15T14:26:43Z</time>
      </trkpt>
      <trkpt lat="45.79664" lon="6.52749">
        <ele>1365.6</ele>
        <time>2025-08-15T14:26:44Z</time>
      </trkpt>
      <trkpt lat="45.79663" lon="6.52753">
        <ele>1365.8</ele>
        <time>2025-08-15T14:26:45Z</time>
      </trkpt>
      <trkpt lat="45.79663" lon="6.52757">
        <ele>1366.1</ele>
        <time>2025-08-15T14:26:46Z</time>
      </trkpt>
      <trkpt lat="45.79662" lon="6.52761">
        <ele>1366.4</ele>
        <time>2025-08-15T14:26:47Z</time>
      </trkpt>
      <trkpt lat="45.79662" lon="6.52765">
        <ele>1366.7</ele>
        <time>2025-08-15T14:26:48Z</time>
      </trkpt>
      <trkpt lat="45.79662" lon="6.52769">
        <ele>1367</ele>
        <time>2025-08-15T14:26:49Z</time>
      </trkpt>
      <trkpt lat="45.79661" lon="6.52775">
        <ele>1367.4</ele>
        <time>2025-08-15T14:26:50Z</time>
      </trkpt>
      <trkpt lat="45.79661" lon="6.52777">
        <ele>1367.6</ele>
        <time>2025-08-15T14:26:51Z</time>
      </trkpt>
      <trkpt lat="45.7966" lon="6.52782">
        <ele>1367.9</ele>
        <time>2025-08-15T14:26:52Z</time>
      </trkpt>
      <trkpt lat="45.79659" lon="6.52785">
        <ele>1368.2</ele>
        <time>2025-08-15T14:26:53Z</time>
      </trkpt>
      <trkpt lat="45.79658" lon="6.52789">
        <ele>1368.5</ele>
        <time>2025-08-15T14:26:54Z</time>
      </trkpt>
      <trkpt lat="45.79656" lon="6.52793">
        <ele>1368.7</ele>
        <time>2025-08-15T14:26:55Z</time>
      </trkpt>
      <trkpt lat="45.79655" lon="6.52796">
        <ele>1369</ele>
        <time>2025-08-15T14:26:56Z</time>
      </trkpt>
      <trkpt lat="45.79652" lon="6.52799">
        <ele>1369.3</ele>
        <time>2025-08-15T14:26:57Z</time>
      </trkpt>
      <trkpt lat="45.7965" lon="6.52801">
        <ele>1369.6</ele>
        <time>2025-08-15T14:26:58Z</time>
      </trkpt>
      <trkpt lat="45.79647" lon="6.52804">
        <ele>1369.9</ele>
        <time>2025-08-15T14:26:59Z</time>
      </trkpt>
      <trkpt lat="45.79645" lon="6.52806">
        <ele>1370.2</ele>
        <time>2025-08-15T14:27:00Z</time>
      </trkpt>
      <trkpt lat="45.79643" lon="6.52809">
        <ele>1370.5</ele>
        <time>2025-08-15T14:27:01Z</time>
      </trkpt>
      <trkpt lat="45.7964" lon="6.52811">
        <ele>1370.8</ele>
        <time>2025-08-15T14:27:02Z</time>
      </trkpt>
      <trkpt lat="45.79637" lon="6.52813">
        <ele>1371.1</ele>
        <time>2025-08-15T14:27:03Z</time>
      </trkpt>
      <trkpt lat="45.79635" lon="6.52815">
        <ele>1371.4</ele>
        <time>2025-08-15T14:27:04Z</time>
      </trkpt>
      <trkpt lat="45.79632" lon="6.52818">
        <ele>1371.7</ele>
        <time>2025-08-15T14:27:05Z</time>
      </trkpt>
      <trkpt lat="45.79629" lon="6.52821">
        <ele>1372.1</ele>
        <time>2025-08-15T14:27:06Z</time>
      </trkpt>
      <trkpt lat="45.79628" lon="6.52821">
        <ele>1372.2</ele>
        <time>2025-08-15T14:27:07Z</time>
      </trkpt>
      <trkpt lat="45.79624" lon="6.52824">
        <ele>1372.5</ele>
        <time>2025-08-15T14:27:08Z</time>
      </trkpt>
      <trkpt lat="45.79623" lon="6.52825">
        <ele>1372.7</ele>
        <time>2025-08-15T14:27:09Z</time>
      </trkpt>
      <trkpt lat="45.79621" lon="6.52827">
        <ele>1372.9</ele>
        <time>2025-08-15T14:27:10Z</time>
      </trkpt>
      <trkpt lat="45.79618" lon="6.52831">
        <ele>1373.3</ele>
        <time>2025-08-15T14:27:11Z</time>
      </trkpt>
      <trkpt lat="45.79617" lon="6.52832">
        <ele>1373.4</ele>
        <time>2025-08-15T14:27:12Z</time>
      </trkpt>
      <trkpt lat="45.79615" lon="6.52837">
        <ele>1373.8</ele>
        <time>2025-08-15T14:27:13Z</time>
      </trkpt>
      <trkpt lat="45.79614" lon="6.52839">
        <ele>1373.9</ele>
        <time>2025-08-15T14:27:14Z</time>
      </trkpt>
      <trkpt lat="45.79613" lon="6.52843">
        <ele>1374.2</ele>
        <time>2025-08-15T14:27:15Z</time>
      </trkpt>
      <trkpt lat="45.79613" lon="6.52847">
        <ele>1374.4</ele>
        <time>2025-08-15T14:27:16Z</time>
      </trkpt>
      <trkpt lat="45.79612" lon="6.52851">
        <ele>1374.7</ele>
        <time>2025-08-15T14:27:17Z</time>
      </trkpt>
      <trkpt lat="45.79612" lon="6.52856">
        <ele>1375</ele>
        <time>2025-08-15T14:27:18Z</time>
      </trkpt>
      <trkpt lat="45.79612" lon="6.52857">
        <ele>1375.1</ele>
        <time>2025-08-15T14:27:19Z</time>
      </trkpt>
      <trkpt lat="45.79613" lon="6.52863">
        <ele>1375.4</ele>
        <time>2025-08-15T14:27:20Z</time>
      </trkpt>
      <trkpt lat="45.79612" lon="6.52865">
        <ele>1375.6</ele>
        <time>2025-08-15T14:27:21Z</time>
      </trkpt>
      <trkpt lat="45.79611" lon="6.52869">
        <ele>1375.8</ele>
        <time>2025-08-15T14:27:22Z</time>
      </trkpt>
      <trkpt lat="45.79611" lon="6.52874">
        <ele>1376.2</ele>
        <time>2025-08-15T14:27:23Z</time>
      </trkpt>
      <trkpt lat="45.7961" lon="6.52876">
        <ele>1376.3</ele>
        <time>2025-08-15T14:27:24Z</time>
      </trkpt>
      <trkpt lat="45.7961" lon="6.5288">
        <ele>1376.5</ele>
        <time>2025-08-15T14:27:25Z</time>
      </trkpt>
      <trkpt lat="45.79609" lon="6.52884">
        <ele>1376.8</ele>
        <time>2025-08-15T14:27:26Z</time>
      </trkpt>
      <trkpt lat="45.79609" lon="6.52888">
        <ele>1377.1</ele>
        <time>2025-08-15T14:27:27Z</time>
      </trkpt>
      <trkpt lat="45.79608" lon="6.52892">
        <ele>1377.3</ele>
        <time>2025-08-15T14:27:28Z</time>
      </trkpt>
      <trkpt lat="45.79607" lon="6.52895">
        <ele>1377.6</ele>
        <time>2025-08-15T14:27:29Z</time>
      </trkpt>
      <trkpt lat="45.79606" lon="6.52899">
        <ele>1377.9</ele>
        <time>2025-08-15T14:27:30Z</time>
      </trkpt>
      <trkpt lat="45.79605" lon="6.52903">
        <ele>1378.1</ele>
        <time>2025-08-15T14:27:31Z</time>
      </trkpt>
      <trkpt lat="45.79604" lon="6.52906">
        <ele>1378.4</ele>
        <time>2025-08-15T14:27:32Z</time>
      </trkpt>
      <trkpt lat="45.79603" lon="6.5291">
        <ele>1378.7</ele>
        <time>2025-08-15T14:27:33Z</time>
      </trkpt>
      <trkpt lat="45.79602" lon="6.52913">
        <ele>1378.9</ele>
        <time>2025-08-15T14:27:34Z</time>
      </trkpt>
      <trkpt lat="45.796" lon="6.52917">
        <ele>1379.2</ele>
        <time>2025-08-15T14:27:35Z</time>
      </trkpt>
      <trkpt lat="45.79599" lon="6.52921">
        <ele>1379.5</ele>
        <time>2025-08-15T14:27:36Z</time>
      </trkpt>
      <trkpt lat="45.79598" lon="6.52924">
        <ele>1379.7</ele>
        <time>2025-08-15T14:27:37Z</time>
      </trkpt>
      <trkpt lat="45.79597" lon="6.5293">
        <ele>1380.1</ele>
        <time>2025-08-15T14:27:38Z</time>
      </trkpt>
      <trkpt lat="45.79597" lon="6.52932">
        <ele>1380.2</ele>
        <time>2025-08-15T14:27:39Z</time>
      </trkpt>
      <trkpt lat="45.79597" lon="6.52936">
        <ele>1380.5</ele>
        <time>2025-08-15T14:27:40Z</time>
      </trkpt>
      <trkpt lat="45.79596" lon="6.5294">
        <ele>1380.8</ele>
        <time>2025-08-15T14:27:41Z</time>
      </trkpt>
      <trkpt lat="45.79595" lon="6.52944">
        <ele>1381.1</ele>
        <time>2025-08-15T14:27:42Z</time>
      </trkpt>
      <trkpt lat="45.79595" lon="6.52948">
        <ele>1381.4</ele>
        <time>2025-08-15T14:27:43Z</time>
      </trkpt>
      <trkpt lat="45.79594" lon="6.52952">
        <ele>1381.7</ele>
        <time>2025-08-15T14:27:44Z</time>
      </trkpt>
      <trkpt lat="45.79594" lon="6.52956">
        <ele>1382.1</ele>
        <time>2025-08-15T14:27:45Z</time>
      </trkpt>
      <trkpt lat="45.79595" lon="6.52961">
        <ele>1382.5</ele>
        <time>2025-08-15T14:27:46Z</time>
      </trkpt>
      <trkpt lat="45.79595" lon="6.52963">
        <ele>1382.6</ele>
        <time>2025-08-15T14:27:47Z</time>
      </trkpt>
      <trkpt lat="45.79595" lon="6.52967">
        <ele>1382.9</ele>
        <time>2025-08-15T14:27:48Z</time>
      </trkpt>
      <trkpt lat="45.79595" lon="6.52971">
        <ele>1383.2</ele>
        <time>2025-08-15T14:27:49Z</time>
      </trkpt>
      <trkpt lat="45.79596" lon="6.52976">
        <ele>1383.6</ele>
        <time>2025-08-15T14:27:50Z</time>
      </trkpt>
      <trkpt lat="45.79596" lon="6.52981">
        <ele>1384</ele>
        <time>2025-08-15T14:27:51Z</time>
      </trkpt>
      <trkpt lat="45.79596" lon="6.52983">
        <ele>1384.1</ele>
        <time>2025-08-15T14:27:52Z</time>
      </trkpt>
      <trkpt lat="45.79595" lon="6.52988">
        <ele>1384.5</ele>
        <time>2025-08-15T14:27:53Z</time>
      </trkpt>
      <trkpt lat="45.79595" lon="6.52992">
        <ele>1384.8</ele>
        <time>2025-08-15T14:27:54Z</time>
      </trkpt>
      <trkpt lat="45.79593" lon="6.52996">
        <ele>1385.1</ele>
        <time>2025-08-15T14:27:55Z</time>
      </trkpt>
      <trkpt lat="45.79592" lon="6.52999">
        <ele>1385.3</ele>
        <time>2025-08-15T14:27:56Z</time>
      </trkpt>
      <trkpt lat="45.7959" lon="6.53003">
        <ele>1385.6</ele>
        <time>2025-08-15T14:27:57Z</time>
      </trkpt>
      <trkpt lat="45.7959" lon="6.53004">
        <ele>1385.7</ele>
        <time>2025-08-15T14:27:58Z</time>
      </trkpt>
      <trkpt lat="45.79587" lon="6.53009">
        <ele>1386.1</ele>
        <time>2025-08-15T14:27:59Z</time>
      </trkpt>
      <trkpt lat="45.79586" lon="6.53011">
        <ele>1386.2</ele>
        <time>2025-08-15T14:28:00Z</time>
      </trkpt>
      <trkpt lat="45.79585" lon="6.53015">
        <ele>1386.5</ele>
        <time>2025-08-15T14:28:01Z</time>
      </trkpt>
      <trkpt lat="45.79583" lon="6.53019">
        <ele>1386.8</ele>
        <time>2025-08-15T14:28:02Z</time>
      </trkpt>
      <trkpt lat="45.79582" lon="6.53022">
        <ele>1387.1</ele>
        <time>2025-08-15T14:28:03Z</time>
      </trkpt>
      <trkpt lat="45.7958" lon="6.53026">
        <ele>1387.3</ele>
        <time>2025-08-15T14:28:04Z</time>
      </trkpt>
      <trkpt lat="45.79579" lon="6.5303">
        <ele>1387.6</ele>
        <time>2025-08-15T14:28:05Z</time>
      </trkpt>
      <trkpt lat="45.79577" lon="6.53033">
        <ele>1387.8</ele>
        <time>2025-08-15T14:28:06Z</time>
      </trkpt>
      <trkpt lat="45.79576" lon="6.53037">
        <ele>1388.1</ele>
        <time>2025-08-15T14:28:07Z</time>
      </trkpt>
      <trkpt lat="45.79574" lon="6.53042">
        <ele>1388.5</ele>
        <time>2025-08-15T14:28:08Z</time>
      </trkpt>
      <trkpt lat="45.79574" lon="6.53044">
        <ele>1388.6</ele>
        <time>2025-08-15T14:28:09Z</time>
      </trkpt>
      <trkpt lat="45.79572" lon="6.53047">
        <ele>1388.9</ele>
        <time>2025-08-15T14:28:10Z</time>
      </trkpt>
      <trkpt lat="45.79571" lon="6.53051">
        <ele>1389.1</ele>
        <time>2025-08-15T14:28:11Z</time>
      </trkpt>
      <trkpt lat="45.79569" lon="6.53054">
        <ele>1389.4</ele>
        <time>2025-08-15T14:28:12Z</time>
      </trkpt>
      <trkpt lat="45.79567" lon="6.53057">
        <ele>1389.7</ele>
        <time>2025-08-15T14:28:13Z</time>
      </trkpt>
      <trkpt lat="45.79565" lon="6.5306">
        <ele>1390</ele>
        <time>2025-08-15T14:28:14Z</time>
      </trkpt>
      <trkpt lat="45.79563" lon="6.53062">
        <ele>1390.3</ele>
        <time>2025-08-15T14:28:15Z</time>
      </trkpt>
      <trkpt lat="45.79561" lon="6.53065">
        <ele>1390.5</ele>
        <time>2025-08-15T14:28:16Z</time>
      </trkpt>
      <trkpt lat="45.79558" lon="6.53066">
        <ele>1390.8</ele>
        <time>2025-08-15T14:28:17Z</time>
      </trkpt>
      <trkpt lat="45.79555" lon="6.53068">
        <ele>1391.1</ele>
        <time>2025-08-15T14:28:18Z</time>
      </trkpt>
      <trkpt lat="45.79552" lon="6.53068">
        <ele>1391.3</ele>
        <time>2025-08-15T14:28:19Z</time>
      </trkpt>
      <trkpt lat="45.79549" lon="6.53068">
        <ele>1391.6</ele>
        <time>2025-08-15T14:28:20Z</time>
      </trkpt>
      <trkpt lat="45.79546" lon="6.53069">
        <ele>1391.8</ele>
        <time>2025-08-15T14:28:21Z</time>
      </trkpt>
      <trkpt lat="45.79543" lon="6.53069">
        <ele>1392</ele>
        <time>2025-08-15T14:28:22Z</time>
      </trkpt>
      <trkpt lat="45.79539" lon="6.53068">
        <ele>1392.2</ele>
        <time>2025-08-15T14:28:23Z</time>
      </trkpt>
      <trkpt lat="45.79536" lon="6.53068">
        <ele>1392.4</ele>
        <time>2025-08-15T14:28:24Z</time>
      </trkpt>
      <trkpt lat="45.79533" lon="6.53067">
        <ele>1392.6</ele>
        <time>2025-08-15T14:28:25Z</time>
      </trkpt>
      <trkpt lat="45.79529" lon="6.53067">
        <ele>1392.8</ele>
        <time>2025-08-15T14:28:26Z</time>
      </trkpt>
      <trkpt lat="45.79526" lon="6.53067">
        <ele>1393</ele>
        <time>2025-08-15T14:28:27Z</time>
      </trkpt>
      <trkpt lat="45.79522" lon="6.53068">
        <ele>1393.1</ele>
        <time>2025-08-15T14:28:28Z</time>
      </trkpt>
      <trkpt lat="45.79519" lon="6.5307">
        <ele>1393.3</ele>
        <time>2025-08-15T14:28:29Z</time>
      </trkpt>
      <trkpt lat="45.79516" lon="6.53072">
        <ele>1393.5</ele>
        <time>2025-08-15T14:28:30Z</time>
      </trkpt>
      <trkpt lat="45.79513" lon="6.53076">
        <ele>1393.6</ele>
        <time>2025-08-15T14:28:31Z</time>
      </trkpt>
      <trkpt lat="45.79511" lon="6.5308">
        <ele>1393.8</ele>
        <time>2025-08-15T14:28:32Z</time>
      </trkpt>
      <trkpt lat="45.79509" lon="6.53084">
        <ele>1394</ele>
        <time>2025-08-15T14:28:33Z</time>
      </trkpt>
      <trkpt lat="45.79508" lon="6.53089">
        <ele>1394.2</ele>
        <time>2025-08-15T14:28:34Z</time>
      </trkpt>
      <trkpt lat="45.79508" lon="6.53094">
        <ele>1394.4</ele>
        <time>2025-08-15T14:28:35Z</time>
      </trkpt>
      <trkpt lat="45.79505" lon="6.53098">
        <ele>1394.6</ele>
        <time>2025-08-15T14:28:36Z</time>
      </trkpt>
      <trkpt lat="45.79504" lon="6.53103">
        <ele>1394.8</ele>
        <time>2025-08-15T14:28:37Z</time>
      </trkpt>
      <trkpt lat="45.79504" lon="6.53108">
        <ele>1395</ele>
        <time>2025-08-15T14:28:38Z</time>
      </trkpt>
      <trkpt lat="45.79503" lon="6.53113">
        <ele>1395.3</ele>
        <time>2025-08-15T14:28:39Z</time>
      </trkpt>
      <trkpt lat="45.79502" lon="6.53118">
        <ele>1395.6</ele>
        <time>2025-08-15T14:28:40Z</time>
      </trkpt>
      <trkpt lat="45.79501" lon="6.53122">
        <ele>1395.9</ele>
        <time>2025-08-15T14:28:41Z</time>
      </trkpt>
      <trkpt lat="45.79501" lon="6.53127">
        <ele>1396.1</ele>
        <time>2025-08-15T14:28:42Z</time>
      </trkpt>
      <trkpt lat="45.795" lon="6.53131">
        <ele>1396.4</ele>
        <time>2025-08-15T14:28:43Z</time>
      </trkpt>
      <trkpt lat="45.795" lon="6.53135">
        <ele>1396.7</ele>
        <time>2025-08-15T14:28:44Z</time>
      </trkpt>
      <trkpt lat="45.79499" lon="6.53139">
        <ele>1397</ele>
        <time>2025-08-15T14:28:45Z</time>
      </trkpt>
      <trkpt lat="45.79499" lon="6.53143">
        <ele>1397.3</ele>
        <time>2025-08-15T14:28:46Z</time>
      </trkpt>
      <trkpt lat="45.79498" lon="6.53147">
        <ele>1397.6</ele>
        <time>2025-08-15T14:28:47Z</time>
      </trkpt>
      <trkpt lat="45.79498" lon="6.53152">
        <ele>1398</ele>
        <time>2025-08-15T14:28:48Z</time>
      </trkpt>
      <trkpt lat="45.79497" lon="6.53156">
        <ele>1398.3</ele>
        <time>2025-08-15T14:28:49Z</time>
      </trkpt>
      <trkpt lat="45.79496" lon="6.5316">
        <ele>1398.7</ele>
        <time>2025-08-15T14:28:50Z</time>
      </trkpt>
      <trkpt lat="45.79495" lon="6.53164">
        <ele>1399</ele>
        <time>2025-08-15T14:28:51Z</time>
      </trkpt>
      <trkpt lat="45.79493" lon="6.53168">
        <ele>1399.4</ele>
        <time>2025-08-15T14:28:52Z</time>
      </trkpt>
      <trkpt lat="45.79491" lon="6.53172">
        <ele>1399.7</ele>
        <time>2025-08-15T14:28:53Z</time>
      </trkpt>
      <trkpt lat="45.7949" lon="6.53176">
        <ele>1400.1</ele>
        <time>2025-08-15T14:28:54Z</time>
      </trkpt>
      <trkpt lat="45.79488" lon="6.5318">
        <ele>1400.4</ele>
        <time>2025-08-15T14:28:55Z</time>
      </trkpt>
      <trkpt lat="45.79485" lon="6.53183">
        <ele>1400.7</ele>
        <time>2025-08-15T14:28:56Z</time>
      </trkpt>
      <trkpt lat="45.79483" lon="6.53187">
        <ele>1401.1</ele>
        <time>2025-08-15T14:28:57Z</time>
      </trkpt>
      <trkpt lat="45.79481" lon="6.5319">
        <ele>1401.4</ele>
        <time>2025-08-15T14:28:58Z</time>
      </trkpt>
      <trkpt lat="45.79479" lon="6.53193">
        <ele>1401.7</ele>
        <time>2025-08-15T14:28:59Z</time>
      </trkpt>
      <trkpt lat="45.79476" lon="6.53195">
        <ele>1402</ele>
        <time>2025-08-15T14:29:00Z</time>
      </trkpt>
      <trkpt lat="45.79474" lon="6.53198">
        <ele>1402.4</ele>
        <time>2025-08-15T14:29:01Z</time>
      </trkpt>
      <trkpt lat="45.79471" lon="6.532">
        <ele>1402.7</ele>
        <time>2025-08-15T14:29:02Z</time>
      </trkpt>
      <trkpt lat="45.79468" lon="6.53202">
        <ele>1403</ele>
        <time>2025-08-15T14:29:03Z</time>
      </trkpt>
      <trkpt lat="45.79466" lon="6.53204">
        <ele>1403.4</ele>
        <time>2025-08-15T14:29:04Z</time>
      </trkpt>
      <trkpt lat="45.79463" lon="6.53207">
        <ele>1403.7</ele>
        <time>2025-08-15T14:29:05Z</time>
      </trkpt>
      <trkpt lat="45.7946" lon="6.53208">
        <ele>1404</ele>
        <time>2025-08-15T14:29:06Z</time>
      </trkpt>
      <trkpt lat="45.79457" lon="6.5321">
        <ele>1404.4</ele>
        <time>2025-08-15T14:29:07Z</time>
      </trkpt>
      <trkpt lat="45.79454" lon="6.53211">
        <ele>1404.7</ele>
        <time>2025-08-15T14:29:08Z</time>
      </trkpt>
      <trkpt lat="45.79452" lon="6.53213">
        <ele>1405</ele>
        <time>2025-08-15T14:29:09Z</time>
      </trkpt>
      <trkpt lat="45.79449" lon="6.53214">
        <ele>1405.3</ele>
        <time>2025-08-15T14:29:10Z</time>
      </trkpt>
      <trkpt lat="45.79446" lon="6.53215">
        <ele>1405.6</ele>
        <time>2025-08-15T14:29:11Z</time>
      </trkpt>
      <trkpt lat="45.79443" lon="6.53217">
        <ele>1406</ele>
        <time>2025-08-15T14:29:12Z</time>
      </trkpt>
      <trkpt lat="45.79442" lon="6.53217">
        <ele>1406.1</ele>
        <time>2025-08-15T14:29:13Z</time>
      </trkpt>
      <trkpt lat="45.79439" lon="6.5322">
        <ele>1406.4</ele>
        <time>2025-08-15T14:29:14Z</time>
      </trkpt>
      <trkpt lat="45.79438" lon="6.53221">
        <ele>1406.5</ele>
        <time>2025-08-15T14:29:15Z</time>
      </trkpt>
      <trkpt lat="45.79434" lon="6.53223">
        <ele>1406.9</ele>
        <time>2025-08-15T14:29:16Z</time>
      </trkpt>
      <trkpt lat="45.79433" lon="6.53223">
        <ele>1407</ele>
        <time>2025-08-15T14:29:17Z</time>
      </trkpt>
      <trkpt lat="45.7943" lon="6.53225">
        <ele>1407.4</ele>
        <time>2025-08-15T14:29:18Z</time>
      </trkpt>
      <trkpt lat="45.79429" lon="6.53226">
        <ele>1407.5</ele>
        <time>2025-08-15T14:29:19Z</time>
      </trkpt>
      <trkpt lat="45.79426" lon="6.5323">
        <ele>1407.9</ele>
        <time>2025-08-15T14:29:20Z</time>
      </trkpt>
      <trkpt lat="45.79426" lon="6.53231">
        <ele>1408</ele>
        <time>2025-08-15T14:29:21Z</time>
      </trkpt>
      <trkpt lat="45.79423" lon="6.53234">
        <ele>1408.4</ele>
        <time>2025-08-15T14:29:22Z</time>
      </trkpt>
      <trkpt lat="45.79422" lon="6.53235">
        <ele>1408.5</ele>
        <time>2025-08-15T14:29:23Z</time>
      </trkpt>
      <trkpt lat="45.79419" lon="6.53238">
        <ele>1408.8</ele>
        <time>2025-08-15T14:29:24Z</time>
      </trkpt>
      <trkpt lat="45.79418" lon="6.53239">
        <ele>1409</ele>
        <time>2025-08-15T14:29:25Z</time>
      </trkpt>
      <trkpt lat="45.79416" lon="6.53242">
        <ele>1409.3</ele>
        <time>2025-08-15T14:29:26Z</time>
      </trkpt>
      <trkpt lat="45.79415" lon="6.53243">
        <ele>1409.4</ele>
        <time>2025-08-15T14:29:27Z</time>
      </trkpt>
      <trkpt lat="45.79413" lon="6.53246">
        <ele>1409.7</ele>
        <time>2025-08-15T14:29:28Z</time>
      </trkpt>
      <trkpt lat="45.79412" lon="6.53247">
        <ele>1409.8</ele>
        <time>2025-08-15T14:29:29Z</time>
      </trkpt>
      <trkpt lat="45.79409" lon="6.5325">
        <ele>1410.2</ele>
        <time>2025-08-15T14:29:30Z</time>
      </trkpt>
      <trkpt lat="45.79408" lon="6.53251">
        <ele>1410.3</ele>
        <time>2025-08-15T14:29:31Z</time>
      </trkpt>
      <trkpt lat="45.79406" lon="6.53254">
        <ele>1410.6</ele>
        <time>2025-08-15T14:29:32Z</time>
      </trkpt>
      <trkpt lat="45.79405" lon="6.53254">
        <ele>1410.8</ele>
        <time>2025-08-15T14:29:33Z</time>
      </trkpt>
      <trkpt lat="45.79402" lon="6.53257">
        <ele>1411.1</ele>
        <time>2025-08-15T14:29:34Z</time>
      </trkpt>
      <trkpt lat="45.79401" lon="6.53257">
        <ele>1411.2</ele>
        <time>2025-08-15T14:29:35Z</time>
      </trkpt>
      <trkpt lat="45.79398" lon="6.5326">
        <ele>1411.6</ele>
        <time>2025-08-15T14:29:36Z</time>
      </trkpt>
      <trkpt lat="45.79397" lon="6.5326">
        <ele>1411.7</ele>
        <time>2025-08-15T14:29:37Z</time>
      </trkpt>
      <trkpt lat="45.79394" lon="6.53261">
        <ele>1412</ele>
        <time>2025-08-15T14:29:38Z</time>
      </trkpt>
      <trkpt lat="45.79393" lon="6.53261">
        <ele>1412.2</ele>
        <time>2025-08-15T14:29:39Z</time>
      </trkpt>
      <trkpt lat="45.7939" lon="6.53262">
        <ele>1412.5</ele>
        <time>2025-08-15T14:29:40Z</time>
      </trkpt>
      <trkpt lat="45.79389" lon="6.53262">
        <ele>1412.6</ele>
        <time>2025-08-15T14:29:41Z</time>
      </trkpt>
      <trkpt lat="45.79386" lon="6.53263">
        <ele>1413</ele>
        <time>2025-08-15T14:29:42Z</time>
      </trkpt>
      <trkpt lat="45.79385" lon="6.53263">
        <ele>1413.1</ele>
        <time>2025-08-15T14:29:43Z</time>
      </trkpt>
      <trkpt lat="45.79382" lon="6.53261">
        <ele>1413.4</ele>
        <time>2025-08-15T14:29:44Z</time>
      </trkpt>
      <trkpt lat="45.79381" lon="6.53261">
        <ele>1413.5</ele>
        <time>2025-08-15T14:29:45Z</time>
      </trkpt>
      <trkpt lat="45.79378" lon="6.53259">
        <ele>1413.9</ele>
        <time>2025-08-15T14:29:46Z</time>
      </trkpt>
      <trkpt lat="45.79377" lon="6.53259">
        <ele>1414</ele>
        <time>2025-08-15T14:29:47Z</time>
      </trkpt>
      <trkpt lat="45.79374" lon="6.53257">
        <ele>1414.3</ele>
        <time>2025-08-15T14:29:48Z</time>
      </trkpt>
      <trkpt lat="45.79373" lon="6.53256">
        <ele>1414.4</ele>
        <time>2025-08-15T14:29:49Z</time>
      </trkpt>
      <trkpt lat="45.7937" lon="6.53254">
        <ele>1414.8</ele>
        <time>2025-08-15T14:29:50Z</time>
      </trkpt>
      <trkpt lat="45.79369" lon="6.53253">
        <ele>1414.9</ele>
        <time>2025-08-15T14:29:51Z</time>
      </trkpt>
      <trkpt lat="45.79366" lon="6.5325">
        <ele>1415.2</ele>
        <time>2025-08-15T14:29:52Z</time>
      </trkpt>
      <trkpt lat="45.79366" lon="6.53248">
        <ele>1415.3</ele>
        <time>2025-08-15T14:29:53Z</time>
      </trkpt>
      <trkpt lat="45.79363" lon="6.53245">
        <ele>1415.6</ele>
        <time>2025-08-15T14:29:54Z</time>
      </trkpt>
      <trkpt lat="45.79362" lon="6.53244">
        <ele>1415.7</ele>
        <time>2025-08-15T14:29:55Z</time>
      </trkpt>
      <trkpt lat="45.7936" lon="6.5324">
        <ele>1416</ele>
        <time>2025-08-15T14:29:56Z</time>
      </trkpt>
      <trkpt lat="45.79359" lon="6.53239">
        <ele>1416.1</ele>
        <time>2025-08-15T14:29:57Z</time>
      </trkpt>
      <trkpt lat="45.79357" lon="6.53236">
        <ele>1416.4</ele>
        <time>2025-08-15T14:29:58Z</time>
      </trkpt>
      <trkpt lat="45.79356" lon="6.53234">
        <ele>1416.5</ele>
        <time>2025-08-15T14:29:59Z</time>
      </trkpt>
      <trkpt lat="45.79353" lon="6.53231">
        <ele>1416.8</ele>
        <time>2025-08-15T14:30:00Z</time>
      </trkpt>
      <trkpt lat="45.79353" lon="6.5323">
        <ele>1416.9</ele>
        <time>2025-08-15T14:30:01Z</time>
      </trkpt>
      <trkpt lat="45.7935" lon="6.53226">
        <ele>1417.2</ele>
        <time>2025-08-15T14:30:02Z</time>
      </trkpt>
      <trkpt lat="45.7935" lon="6.53225">
        <ele>1417.3</ele>
        <time>2025-08-15T14:30:03Z</time>
      </trkpt>
      <trkpt lat="45.79348" lon="6.53221">
        <ele>1417.6</ele>
        <time>2025-08-15T14:30:04Z</time>
      </trkpt>
      <trkpt lat="45.79347" lon="6.5322">
        <ele>1417.7</ele>
        <time>2025-08-15T14:30:05Z</time>
      </trkpt>
      <trkpt lat="45.79345" lon="6.53216">
        <ele>1418</ele>
        <time>2025-08-15T14:30:06Z</time>
      </trkpt>
      <trkpt lat="45.79345" lon="6.53215">
        <ele>1418.1</ele>
        <time>2025-08-15T14:30:07Z</time>
      </trkpt>
      <trkpt lat="45.79342" lon="6.53211">
        <ele>1418.4</ele>
        <time>2025-08-15T14:30:08Z</time>
      </trkpt>
      <trkpt lat="45.79341" lon="6.5321">
        <ele>1418.5</ele>
        <time>2025-08-15T14:30:09Z</time>
      </trkpt>
      <trkpt lat="45.79339" lon="6.53207">
        <ele>1418.8</ele>
        <time>2025-08-15T14:30:10Z</time>
      </trkpt>
      <trkpt lat="45.79338" lon="6.53206">
        <ele>1418.9</ele>
        <time>2025-08-15T14:30:11Z</time>
      </trkpt>
      <trkpt lat="45.79335" lon="6.53203">
        <ele>1419.2</ele>
        <time>2025-08-15T14:30:12Z</time>
      </trkpt>
      <trkpt lat="45.79334" lon="6.53202">
        <ele>1419.3</ele>
        <time>2025-08-15T14:30:13Z</time>
      </trkpt>
      <trkpt lat="45.79331" lon="6.532">
        <ele>1419.6</ele>
        <time>2025-08-15T14:30:14Z</time>
      </trkpt>
      <trkpt lat="45.7933" lon="6.53199">
        <ele>1419.7</ele>
        <time>2025-08-15T14:30:15Z</time>
      </trkpt>
      <trkpt lat="45.79327" lon="6.53196">
        <ele>1420</ele>
        <time>2025-08-15T14:30:16Z</time>
      </trkpt>
      <trkpt lat="45.79326" lon="6.53195">
        <ele>1420.1</ele>
        <time>2025-08-15T14:30:17Z</time>
      </trkpt>
      <trkpt lat="45.79323" lon="6.53193">
        <ele>1420.5</ele>
        <time>2025-08-15T14:30:18Z</time>
      </trkpt>
      <trkpt lat="45.79321" lon="6.53192">
        <ele>1420.6</ele>
        <time>2025-08-15T14:30:19Z</time>
      </trkpt>
      <trkpt lat="45.79318" lon="6.53192">
        <ele>1420.9</ele>
        <time>2025-08-15T14:30:20Z</time>
      </trkpt>
      <trkpt lat="45.79317" lon="6.53192">
        <ele>1421</ele>
        <time>2025-08-15T14:30:21Z</time>
      </trkpt>
      <trkpt lat="45.79313" lon="6.53192">
        <ele>1421.3</ele>
        <time>2025-08-15T14:30:22Z</time>
      </trkpt>
      <trkpt lat="45.79312" lon="6.53192">
        <ele>1421.4</ele>
        <time>2025-08-15T14:30:23Z</time>
      </trkpt>
      <trkpt lat="45.79308" lon="6.53192">
        <ele>1421.7</ele>
        <time>2025-08-15T14:30:24Z</time>
      </trkpt>
      <trkpt lat="45.79307" lon="6.53192">
        <ele>1421.8</ele>
        <time>2025-08-15T14:30:25Z</time>
      </trkpt>
      <trkpt lat="45.79304" lon="6.53194">
        <ele>1422.1</ele>
        <time>2025-08-15T14:30:26Z</time>
      </trkpt>
      <trkpt lat="45.79302" lon="6.53195">
        <ele>1422.3</ele>
        <time>2025-08-15T14:30:27Z</time>
      </trkpt>
      <trkpt lat="45.79299" lon="6.53196">
        <ele>1422.6</ele>
        <time>2025-08-15T14:30:28Z</time>
      </trkpt>
      <trkpt lat="45.79298" lon="6.53196">
        <ele>1422.7</ele>
        <time>2025-08-15T14:30:29Z</time>
      </trkpt>
      <trkpt lat="45.79294" lon="6.53197">
        <ele>1423</ele>
        <time>2025-08-15T14:30:30Z</time>
      </trkpt>
      <trkpt lat="45.79293" lon="6.53197">
        <ele>1423.1</ele>
        <time>2025-08-15T14:30:31Z</time>
      </trkpt>
      <trkpt lat="45.7929" lon="6.53198">
        <ele>1423.4</ele>
        <time>2025-08-15T14:30:32Z</time>
      </trkpt>
      <trkpt lat="45.79288" lon="6.53198">
        <ele>1423.5</ele>
        <time>2025-08-15T14:30:33Z</time>
      </trkpt>
      <trkpt lat="45.79285" lon="6.53198">
        <ele>1423.8</ele>
        <time>2025-08-15T14:30:34Z</time>
      </trkpt>
      <trkpt lat="45.79284" lon="6.53198">
        <ele>1423.9</ele>
        <time>2025-08-15T14:30:35Z</time>
      </trkpt>
      <trkpt lat="45.7928" lon="6.53198">
        <ele>1424.1</ele>
        <time>2025-08-15T14:30:36Z</time>
      </trkpt>
      <trkpt lat="45.79279" lon="6.53198">
        <ele>1424.2</ele>
        <time>2025-08-15T14:30:37Z</time>
      </trkpt>
      <trkpt lat="45.79276" lon="6.53197">
        <ele>1424.5</ele>
        <time>2025-08-15T14:30:38Z</time>
      </trkpt>
      <trkpt lat="45.79274" lon="6.53197">
        <ele>1424.6</ele>
        <time>2025-08-15T14:30:39Z</time>
      </trkpt>
      <trkpt lat="45.79271" lon="6.53196">
        <ele>1424.8</ele>
        <time>2025-08-15T14:30:40Z</time>
      </trkpt>
      <trkpt lat="45.7927" lon="6.53195">
        <ele>1424.9</ele>
        <time>2025-08-15T14:30:41Z</time>
      </trkpt>
      <trkpt lat="45.79267" lon="6.53193">
        <ele>1425.1</ele>
        <time>2025-08-15T14:30:42Z</time>
      </trkpt>
      <trkpt lat="45.79265" lon="6.53193">
        <ele>1425.2</ele>
        <time>2025-08-15T14:30:43Z</time>
      </trkpt>
      <trkpt lat="45.79262" lon="6.53191">
        <ele>1425.5</ele>
        <time>2025-08-15T14:30:44Z</time>
      </trkpt>
      <trkpt lat="45.7926" lon="6.53191">
        <ele>1425.5</ele>
        <time>2025-08-15T14:30:45Z</time>
      </trkpt>
      <trkpt lat="45.79257" lon="6.53189">
        <ele>1425.8</ele>
        <time>2025-08-15T14:30:46Z</time>
      </trkpt>
      <trkpt lat="45.79255" lon="6.53188">
        <ele>1425.9</ele>
        <time>2025-08-15T14:30:47Z</time>
      </trkpt>
      <trkpt lat="45.79252" lon="6.53187">
        <ele>1426.2</ele>
        <time>2025-08-15T14:30:48Z</time>
      </trkpt>
      <trkpt lat="45.7925" lon="6.53186">
        <ele>1426.3</ele>
        <time>2025-08-15T14:30:49Z</time>
      </trkpt>
      <trkpt lat="45.79248" lon="6.53184">
        <ele>1426.4</ele>
        <time>2025-08-15T14:30:50Z</time>
      </trkpt>
      <trkpt lat="45.79245" lon="6.53183">
        <ele>1426.6</ele>
        <time>2025-08-15T14:30:51Z</time>
      </trkpt>
      <trkpt lat="45.79243" lon="6.53182">
        <ele>1426.8</ele>
        <time>2025-08-15T14:30:52Z</time>
      </trkpt>
      <trkpt lat="45.79239" lon="6.5318">
        <ele>1427.1</ele>
        <time>2025-08-15T14:30:53Z</time>
      </trkpt>
      <trkpt lat="45.79238" lon="6.53179">
        <ele>1427.2</ele>
        <time>2025-08-15T14:30:54Z</time>
      </trkpt>
      <trkpt lat="45.79235" lon="6.53178">
        <ele>1427.4</ele>
        <time>2025-08-15T14:30:55Z</time>
      </trkpt>
      <trkpt lat="45.79232" lon="6.53177">
        <ele>1427.6</ele>
        <time>2025-08-15T14:30:56Z</time>
      </trkpt>
      <trkpt lat="45.79228" lon="6.53175">
        <ele>1427.8</ele>
        <time>2025-08-15T14:30:57Z</time>
      </trkpt>
      <trkpt lat="45.79227" lon="6.53175">
        <ele>1427.9</ele>
        <time>2025-08-15T14:30:58Z</time>
      </trkpt>
      <trkpt lat="45.79224" lon="6.53174">
        <ele>1428.2</ele>
        <time>2025-08-15T14:30:59Z</time>
      </trkpt>
      <trkpt lat="45.79221" lon="6.53173">
        <ele>1428.4</ele>
        <time>2025-08-15T14:31:00Z</time>
      </trkpt>
      <trkpt lat="45.79218" lon="6.53172">
        <ele>1428.6</ele>
        <time>2025-08-15T14:31:01Z</time>
      </trkpt>
      <trkpt lat="45.79215" lon="6.53172">
        <ele>1428.8</ele>
        <time>2025-08-15T14:31:02Z</time>
      </trkpt>
      <trkpt lat="45.79212" lon="6.5317">
        <ele>1429</ele>
        <time>2025-08-15T14:31:03Z</time>
      </trkpt>
      <trkpt lat="45.79209" lon="6.53169">
        <ele>1429.2</ele>
        <time>2025-08-15T14:31:04Z</time>
      </trkpt>
      <trkpt lat="45.79206" lon="6.53168">
        <ele>1429.4</ele>
        <time>2025-08-15T14:31:05Z</time>
      </trkpt>
      <trkpt lat="45.79203" lon="6.53167">
        <ele>1429.7</ele>
        <time>2025-08-15T14:31:06Z</time>
      </trkpt>
      <trkpt lat="45.792" lon="6.53166">
        <ele>1429.9</ele>
        <time>2025-08-15T14:31:07Z</time>
      </trkpt>
      <trkpt lat="45.79197" lon="6.53165">
        <ele>1430.1</ele>
        <time>2025-08-15T14:31:08Z</time>
      </trkpt>
      <trkpt lat="45.79194" lon="6.53163">
        <ele>1430.4</ele>
        <time>2025-08-15T14:31:09Z</time>
      </trkpt>
      <trkpt lat="45.79191" lon="6.53161">
        <ele>1430.6</ele>
        <time>2025-08-15T14:31:10Z</time>
      </trkpt>
      <trkpt lat="45.79188" lon="6.5316">
        <ele>1430.9</ele>
        <time>2025-08-15T14:31:11Z</time>
      </trkpt>
      <trkpt lat="45.79185" lon="6.53158">
        <ele>1431.2</ele>
        <time>2025-08-15T14:31:12Z</time>
      </trkpt>
      <trkpt lat="45.79182" lon="6.53156">
        <ele>1431.4</ele>
        <time>2025-08-15T14:31:13Z</time>
      </trkpt>
      <trkpt lat="45.79179" lon="6.53155">
        <ele>1431.7</ele>
        <time>2025-08-15T14:31:14Z</time>
      </trkpt>
      <trkpt lat="45.79176" lon="6.53153">
        <ele>1432</ele>
        <time>2025-08-15T14:31:15Z</time>
      </trkpt>
      <trkpt lat="45.79173" lon="6.53153">
        <ele>1432.3</ele>
        <time>2025-08-15T14:31:16Z</time>
      </trkpt>
      <trkpt lat="45.7917" lon="6.53152">
        <ele>1432.5</ele>
        <time>2025-08-15T14:31:17Z</time>
      </trkpt>
      <trkpt lat="45.79167" lon="6.5315">
        <ele>1432.9</ele>
        <time>2025-08-15T14:31:18Z</time>
      </trkpt>
      <trkpt lat="45.79164" lon="6.53149">
        <ele>1433.2</ele>
        <time>2025-08-15T14:31:19Z</time>
      </trkpt>
      <trkpt lat="45.79161" lon="6.53148">
        <ele>1433.5</ele>
        <time>2025-08-15T14:31:20Z</time>
      </trkpt>
      <trkpt lat="45.79158" lon="6.53147">
        <ele>1433.8</ele>
        <time>2025-08-15T14:31:21Z</time>
      </trkpt>
      <trkpt lat="45.79155" lon="6.53146">
        <ele>1434.1</ele>
        <time>2025-08-15T14:31:22Z</time>
      </trkpt>
      <trkpt lat="45.79152" lon="6.53145">
        <ele>1434.4</ele>
        <time>2025-08-15T14:31:23Z</time>
      </trkpt>
      <trkpt lat="45.79149" lon="6.53144">
        <ele>1434.8</ele>
        <time>2025-08-15T14:31:24Z</time>
      </trkpt>
      <trkpt lat="45.79146" lon="6.53144">
        <ele>1435.1</ele>
        <time>2025-08-15T14:31:25Z</time>
      </trkpt>
      <trkpt lat="45.79143" lon="6.53144">
        <ele>1435.4</ele>
        <time>2025-08-15T14:31:26Z</time>
      </trkpt>
      <trkpt lat="45.7914" lon="6.53144">
        <ele>1435.8</ele>
        <time>2025-08-15T14:31:27Z</time>
      </trkpt>
      <trkpt lat="45.79137" lon="6.53144">
        <ele>1436.1</ele>
        <time>2025-08-15T14:31:28Z</time>
      </trkpt>
      <trkpt lat="45.79133" lon="6.53144">
        <ele>1436.4</ele>
        <time>2025-08-15T14:31:29Z</time>
      </trkpt>
      <trkpt lat="45.79131" lon="6.53143">
        <ele>1436.7</ele>
        <time>2025-08-15T14:31:30Z</time>
      </trkpt>
      <trkpt lat="45.79128" lon="6.53143">
        <ele>1437.1</ele>
        <time>2025-08-15T14:31:31Z</time>
      </trkpt>
      <trkpt lat="45.79125" lon="6.53143">
        <ele>1437.4</ele>
        <time>2025-08-15T14:31:32Z</time>
      </trkpt>
      <trkpt lat="45.79122" lon="6.53142">
        <ele>1437.7</ele>
        <time>2025-08-15T14:31:33Z</time>
      </trkpt>
      <trkpt lat="45.79119" lon="6.53142">
        <ele>1438.1</ele>
        <time>2025-08-15T14:31:34Z</time>
      </trkpt>
      <trkpt lat="45.79116" lon="6.53142">
        <ele>1438.4</ele>
        <time>2025-08-15T14:31:35Z</time>
      </trkpt>
      <trkpt lat="45.79113" lon="6.53142">
        <ele>1438.7</ele>
        <time>2025-08-15T14:31:36Z</time>
      </trkpt>
      <trkpt lat="45.79109" lon="6.53142">
        <ele>1439.1</ele>
        <time>2025-08-15T14:31:37Z</time>
      </trkpt>
      <trkpt lat="45.79108" lon="6.53142">
        <ele>1439.2</ele>
        <time>2025-08-15T14:31:38Z</time>
      </trkpt>
      <trkpt lat="45.79104" lon="6.53143">
        <ele>1439.6</ele>
        <time>2025-08-15T14:31:39Z</time>
      </trkpt>
      <trkpt lat="45.79103" lon="6.53143">
        <ele>1439.7</ele>
        <time>2025-08-15T14:31:40Z</time>
      </trkpt>
      <trkpt lat="45.79099" lon="6.53143">
        <ele>1440.1</ele>
        <time>2025-08-15T14:31:41Z</time>
      </trkpt>
      <trkpt lat="45.79098" lon="6.53143">
        <ele>1440.2</ele>
        <time>2025-08-15T14:31:42Z</time>
      </trkpt>
      <trkpt lat="45.79096" lon="6.53143">
        <ele>1440.4</ele>
        <time>2025-08-15T14:31:43Z</time>
      </trkpt>
      <trkpt lat="45.79095" lon="6.53144">
        <ele>1440.5</ele>
        <time>2025-08-15T14:31:44Z</time>
      </trkpt>
      <trkpt lat="45.79093" lon="6.53143">
        <ele>1440.7</ele>
        <time>2025-08-15T14:31:45Z</time>
      </trkpt>
      <trkpt lat="45.79092" lon="6.53142">
        <ele>1440.8</ele>
        <time>2025-08-15T14:31:46Z</time>
      </trkpt>
      <trkpt lat="45.79088" lon="6.53143">
        <ele>1441.1</ele>
        <time>2025-08-15T14:31:47Z</time>
      </trkpt>
      <trkpt lat="45.79086" lon="6.53145">
        <ele>1441.4</ele>
        <time>2025-08-15T14:31:48Z</time>
      </trkpt>
      <trkpt lat="45.79084" lon="6.53146">
        <ele>1441.6</ele>
        <time>2025-08-15T14:31:49Z</time>
      </trkpt>
      <trkpt lat="45.79082" lon="6.53148">
        <ele>1441.8</ele>
        <time>2025-08-15T14:31:50Z</time>
      </trkpt>
      <trkpt lat="45.7908" lon="6.53149">
        <ele>1442.1</ele>
        <time>2025-08-15T14:31:51Z</time>
      </trkpt>
      <trkpt lat="45.79078" lon="6.53151">
        <ele>1442.3</ele>
        <time>2025-08-15T14:31:52Z</time>
      </trkpt>
      <trkpt lat="45.79076" lon="6.53152">
        <ele>1442.5</ele>
        <time>2025-08-15T14:31:53Z</time>
      </trkpt>
      <trkpt lat="45.79073" lon="6.53154">
        <ele>1442.8</ele>
        <time>2025-08-15T14:31:54Z</time>
      </trkpt>
      <trkpt lat="45.79071" lon="6.53155">
        <ele>1443</ele>
        <time>2025-08-15T14:31:55Z</time>
      </trkpt>
      <trkpt lat="45.79069" lon="6.53157">
        <ele>1443.2</ele>
        <time>2025-08-15T14:31:56Z</time>
      </trkpt>
      <trkpt lat="45.79067" lon="6.53158">
        <ele>1443.5</ele>
        <time>2025-08-15T14:31:57Z</time>
      </trkpt>
      <trkpt lat="45.79065" lon="6.5316">
        <ele>1443.7</ele>
        <time>2025-08-15T14:31:58Z</time>
      </trkpt>
      <trkpt lat="45.79063" lon="6.53161">
        <ele>1443.9</ele>
        <time>2025-08-15T14:39:39Z</time>
      </trkpt>
      <trkpt lat="45.79061" lon="6.53163">
        <ele>1444.2</ele>
        <time>2025-08-15T14:39:40Z</time>
      </trkpt>
      <trkpt lat="45.79059" lon="6.53164">
        <ele>1444.4</ele>
        <time>2025-08-15T14:39:41Z</time>
      </trkpt>
      <trkpt lat="45.79056" lon="6.53166">
        <ele>1444.8</ele>
        <time>2025-08-15T14:39:42Z</time>
      </trkpt>
      <trkpt lat="45.79055" lon="6.53167">
        <ele>1444.9</ele>
        <time>2025-08-15T14:39:43Z</time>
      </trkpt>
      <trkpt lat="45.79052" lon="6.5317">
        <ele>1445.2</ele>
        <time>2025-08-15T14:39:44Z</time>
      </trkpt>
      <trkpt lat="45.79051" lon="6.53171">
        <ele>1445.3</ele>
        <time>2025-08-15T14:39:45Z</time>
      </trkpt>
      <trkpt lat="45.79049" lon="6.53174">
        <ele>1445.7</ele>
        <time>2025-08-15T14:39:46Z</time>
      </trkpt>
      <trkpt lat="45.79048" lon="6.53175">
        <ele>1445.8</ele>
        <time>2025-08-15T14:39:47Z</time>
      </trkpt>
      <trkpt lat="45.79046" lon="6.53178">
        <ele>1446.1</ele>
        <time>2025-08-15T14:39:48Z</time>
      </trkpt>
      <trkpt lat="45.79045" lon="6.53179">
        <ele>1446.2</ele>
        <time>2025-08-15T14:39:49Z</time>
      </trkpt>
      <trkpt lat="45.79043" lon="6.53182">
        <ele>1446.5</ele>
        <time>2025-08-15T14:39:50Z</time>
      </trkpt>
      <trkpt lat="45.79042" lon="6.53182">
        <ele>1446.6</ele>
        <time>2025-08-15T14:39:51Z</time>
      </trkpt>
      <trkpt lat="45.79039" lon="6.53185">
        <ele>1446.9</ele>
        <time>2025-08-15T14:39:52Z</time>
      </trkpt>
      <trkpt lat="45.79038" lon="6.53187">
        <ele>1447</ele>
        <time>2025-08-15T14:39:53Z</time>
      </trkpt>
      <trkpt lat="45.79036" lon="6.53189">
        <ele>1447.4</ele>
        <time>2025-08-15T14:39:54Z</time>
      </trkpt>
      <trkpt lat="45.79035" lon="6.5319">
        <ele>1447.5</ele>
        <time>2025-08-15T14:39:55Z</time>
      </trkpt>
      <trkpt lat="45.79031" lon="6.53194">
        <ele>1447.9</ele>
        <time>2025-08-15T14:39:57Z</time>
      </trkpt>
      <trkpt lat="45.7903" lon="6.53196">
        <ele>1448.1</ele>
        <time>2025-08-15T14:39:58Z</time>
      </trkpt>
      <trkpt lat="45.79027" lon="6.53201">
        <ele>1448.5</ele>
        <time>2025-08-15T14:40:00Z</time>
      </trkpt>
      <trkpt lat="45.79026" lon="6.53203">
        <ele>1448.8</ele>
        <time>2025-08-15T14:40:01Z</time>
      </trkpt>
      <trkpt lat="45.79023" lon="6.53206">
        <ele>1449.1</ele>
        <time>2025-08-15T14:40:02Z</time>
      </trkpt>
      <trkpt lat="45.79022" lon="6.53207">
        <ele>1449.2</ele>
        <time>2025-08-15T14:40:03Z</time>
      </trkpt>
      <trkpt lat="45.7902" lon="6.5321">
        <ele>1449.6</ele>
        <time>2025-08-15T14:40:04Z</time>
      </trkpt>
      <trkpt lat="45.79019" lon="6.53212">
        <ele>1449.7</ele>
        <time>2025-08-15T14:40:05Z</time>
      </trkpt>
      <trkpt lat="45.79017" lon="6.53215">
        <ele>1450</ele>
        <time>2025-08-15T14:40:06Z</time>
      </trkpt>
      <trkpt lat="45.79016" lon="6.53216">
        <ele>1450.1</ele>
        <time>2025-08-15T14:40:07Z</time>
      </trkpt>
      <trkpt lat="45.79014" lon="6.5322">
        <ele>1450.5</ele>
        <time>2025-08-15T14:40:08Z</time>
      </trkpt>
      <trkpt lat="45.79013" lon="6.53221">
        <ele>1450.6</ele>
        <time>2025-08-15T14:40:09Z</time>
      </trkpt>
      <trkpt lat="45.79012" lon="6.53225">
        <ele>1450.9</ele>
        <time>2025-08-15T14:40:10Z</time>
      </trkpt>
      <trkpt lat="45.79011" lon="6.53226">
        <ele>1451</ele>
        <time>2025-08-15T14:40:11Z</time>
      </trkpt>
      <trkpt lat="45.79009" lon="6.53229">
        <ele>1451.3</ele>
        <time>2025-08-15T14:40:12Z</time>
      </trkpt>
      <trkpt lat="45.79008" lon="6.5323">
        <ele>1451.4</ele>
        <time>2025-08-15T14:40:13Z</time>
      </trkpt>
      <trkpt lat="45.79006" lon="6.53234">
        <ele>1451.8</ele>
        <time>2025-08-15T14:40:14Z</time>
      </trkpt>
      <trkpt lat="45.79005" lon="6.53236">
        <ele>1451.9</ele>
        <time>2025-08-15T14:40:15Z</time>
      </trkpt>
      <trkpt lat="45.79003" lon="6.5324">
        <ele>1452.3</ele>
        <time>2025-08-15T14:40:16Z</time>
      </trkpt>
      <trkpt lat="45.79002" lon="6.53241">
        <ele>1452.4</ele>
        <time>2025-08-15T14:40:17Z</time>
      </trkpt>
      <trkpt lat="45.78999" lon="6.53246">
        <ele>1452.8</ele>
        <time>2025-08-15T14:40:18Z</time>
      </trkpt>
      <trkpt lat="45.78999" lon="6.53247">
        <ele>1452.9</ele>
        <time>2025-08-15T14:40:19Z</time>
      </trkpt>
      <trkpt lat="45.78997" lon="6.53251">
        <ele>1453.2</ele>
        <time>2025-08-15T14:40:20Z</time>
      </trkpt>
      <trkpt lat="45.78996" lon="6.53252">
        <ele>1453.4</ele>
        <time>2025-08-15T14:40:21Z</time>
      </trkpt>
      <trkpt lat="45.78994" lon="6.53256">
        <ele>1453.7</ele>
        <time>2025-08-15T14:40:22Z</time>
      </trkpt>
      <trkpt lat="45.78993" lon="6.53258">
        <ele>1453.8</ele>
        <time>2025-08-15T14:40:23Z</time>
      </trkpt>
      <trkpt lat="45.78991" lon="6.53262">
        <ele>1454.2</ele>
        <time>2025-08-15T14:40:24Z</time>
      </trkpt>
      <trkpt lat="45.7899" lon="6.53263">
        <ele>1454.3</ele>
        <time>2025-08-15T14:40:25Z</time>
      </trkpt>
      <trkpt lat="45.78988" lon="6.53267">
        <ele>1454.6</ele>
        <time>2025-08-15T14:40:26Z</time>
      </trkpt>
      <trkpt lat="45.78987" lon="6.53268">
        <ele>1454.8</ele>
        <time>2025-08-15T14:40:27Z</time>
      </trkpt>
      <trkpt lat="45.78985" lon="6.53272">
        <ele>1455.1</ele>
        <time>2025-08-15T14:40:28Z</time>
      </trkpt>
      <trkpt lat="45.78984" lon="6.53273">
        <ele>1455.2</ele>
        <time>2025-08-15T14:40:29Z</time>
      </trkpt>
      <trkpt lat="45.78982" lon="6.53277">
        <ele>1455.6</ele>
        <time>2025-08-15T14:40:30Z</time>
      </trkpt>
      <trkpt lat="45.78982" lon="6.53279">
        <ele>1455.7</ele>
        <time>2025-08-15T14:40:31Z</time>
      </trkpt>
      <trkpt lat="45.7898" lon="6.53283">
        <ele>1456</ele>
        <time>2025-08-15T14:40:32Z</time>
      </trkpt>
      <trkpt lat="45.78979" lon="6.53284">
        <ele>1456.1</ele>
        <time>2025-08-15T14:40:33Z</time>
      </trkpt>
      <trkpt lat="45.78976" lon="6.53288">
        <ele>1456.5</ele>
        <time>2025-08-15T14:40:34Z</time>
      </trkpt>
      <trkpt lat="45.78976" lon="6.5329">
        <ele>1456.6</ele>
        <time>2025-08-15T14:40:35Z</time>
      </trkpt>
      <trkpt lat="45.78973" lon="6.53293">
        <ele>1456.9</ele>
        <time>2025-08-15T14:40:36Z</time>
      </trkpt>
      <trkpt lat="45.78973" lon="6.53294">
        <ele>1457</ele>
        <time>2025-08-15T14:40:37Z</time>
      </trkpt>
      <trkpt lat="45.78971" lon="6.53298">
        <ele>1457.4</ele>
        <time>2025-08-15T14:40:38Z</time>
      </trkpt>
      <trkpt lat="45.7897" lon="6.53299">
        <ele>1457.5</ele>
        <time>2025-08-15T14:40:39Z</time>
      </trkpt>
      <trkpt lat="45.78967" lon="6.53303">
        <ele>1457.8</ele>
        <time>2025-08-15T14:40:40Z</time>
      </trkpt>
      <trkpt lat="45.78967" lon="6.53304">
        <ele>1457.9</ele>
        <time>2025-08-15T14:40:41Z</time>
      </trkpt>
      <trkpt lat="45.78964" lon="6.53308">
        <ele>1458.2</ele>
        <time>2025-08-15T14:40:42Z</time>
      </trkpt>
      <trkpt lat="45.78964" lon="6.53309">
        <ele>1458.4</ele>
        <time>2025-08-15T14:40:43Z</time>
      </trkpt>
      <trkpt lat="45.78961" lon="6.53313">
        <ele>1458.7</ele>
        <time>2025-08-15T14:40:44Z</time>
      </trkpt>
      <trkpt lat="45.78961" lon="6.53314">
        <ele>1458.8</ele>
        <time>2025-08-15T14:40:45Z</time>
      </trkpt>
      <trkpt lat="45.78958" lon="6.53318">
        <ele>1459.2</ele>
        <time>2025-08-15T14:40:46Z</time>
      </trkpt>
      <trkpt lat="45.78957" lon="6.53319">
        <ele>1459.3</ele>
        <time>2025-08-15T14:40:47Z</time>
      </trkpt>
      <trkpt lat="45.78955" lon="6.53323">
        <ele>1459.6</ele>
        <time>2025-08-15T14:40:48Z</time>
      </trkpt>
      <trkpt lat="45.78954" lon="6.53324">
        <ele>1459.7</ele>
        <time>2025-08-15T14:40:49Z</time>
      </trkpt>
      <trkpt lat="45.78952" lon="6.53327">
        <ele>1460.1</ele>
        <time>2025-08-15T14:40:50Z</time>
      </trkpt>
      <trkpt lat="45.78951" lon="6.53328">
        <ele>1460.2</ele>
        <time>2025-08-15T14:40:51Z</time>
      </trkpt>
      <trkpt lat="45.78949" lon="6.53332">
        <ele>1460.5</ele>
        <time>2025-08-15T14:40:52Z</time>
      </trkpt>
      <trkpt lat="45.78948" lon="6.53333">
        <ele>1460.7</ele>
        <time>2025-08-15T14:40:53Z</time>
      </trkpt>
      <trkpt lat="45.78945" lon="6.53336">
        <ele>1461</ele>
        <time>2025-08-15T14:40:54Z</time>
      </trkpt>
      <trkpt lat="45.78944" lon="6.53337">
        <ele>1461.1</ele>
        <time>2025-08-15T14:40:55Z</time>
      </trkpt>
      <trkpt lat="45.78941" lon="6.53339">
        <ele>1461.5</ele>
        <time>2025-08-15T14:40:56Z</time>
      </trkpt>
      <trkpt lat="45.7894" lon="6.5334">
        <ele>1461.6</ele>
        <time>2025-08-15T14:40:57Z</time>
      </trkpt>
      <trkpt lat="45.78936" lon="6.53341">
        <ele>1462</ele>
        <time>2025-08-15T14:40:58Z</time>
      </trkpt>
      <trkpt lat="45.78935" lon="6.53342">
        <ele>1462.1</ele>
        <time>2025-08-15T14:40:59Z</time>
      </trkpt>
      <trkpt lat="45.78932" lon="6.53345">
        <ele>1462.4</ele>
        <time>2025-08-15T14:41:00Z</time>
      </trkpt>
      <trkpt lat="45.78931" lon="6.53345">
        <ele>1462.6</ele>
        <time>2025-08-15T14:41:01Z</time>
      </trkpt>
      <trkpt lat="45.78928" lon="6.53347">
        <ele>1462.9</ele>
        <time>2025-08-15T14:41:02Z</time>
      </trkpt>
      <trkpt lat="45.78927" lon="6.53348">
        <ele>1463</ele>
        <time>2025-08-15T14:41:03Z</time>
      </trkpt>
      <trkpt lat="45.78923" lon="6.53349">
        <ele>1463.4</ele>
        <time>2025-08-15T14:41:04Z</time>
      </trkpt>
      <trkpt lat="45.78922" lon="6.53349">
        <ele>1463.5</ele>
        <time>2025-08-15T14:41:05Z</time>
      </trkpt>
      <trkpt lat="45.78919" lon="6.53351">
        <ele>1463.8</ele>
        <time>2025-08-15T14:41:06Z</time>
      </trkpt>
      <trkpt lat="45.78918" lon="6.53351">
        <ele>1464</ele>
        <time>2025-08-15T14:41:07Z</time>
      </trkpt>
      <trkpt lat="45.78914" lon="6.53353">
        <ele>1464.3</ele>
        <time>2025-08-15T14:41:08Z</time>
      </trkpt>
      <trkpt lat="45.78913" lon="6.53353">
        <ele>1464.4</ele>
        <time>2025-08-15T14:41:09Z</time>
      </trkpt>
      <trkpt lat="45.7891" lon="6.53355">
        <ele>1464.7</ele>
        <time>2025-08-15T14:41:10Z</time>
      </trkpt>
      <trkpt lat="45.78909" lon="6.53355">
        <ele>1464.8</ele>
        <time>2025-08-15T14:41:11Z</time>
      </trkpt>
      <trkpt lat="45.78906" lon="6.53356">
        <ele>1465.1</ele>
        <time>2025-08-15T14:41:12Z</time>
      </trkpt>
      <trkpt lat="45.78905" lon="6.53356">
        <ele>1465.3</ele>
        <time>2025-08-15T14:41:13Z</time>
      </trkpt>
      <trkpt lat="45.78901" lon="6.53357">
        <ele>1465.6</ele>
        <time>2025-08-15T14:41:14Z</time>
      </trkpt>
      <trkpt lat="45.789" lon="6.53357">
        <ele>1465.7</ele>
        <time>2025-08-15T14:41:15Z</time>
      </trkpt>
      <trkpt lat="45.78897" lon="6.53358">
        <ele>1466</ele>
        <time>2025-08-15T14:41:16Z</time>
      </trkpt>
      <trkpt lat="45.78896" lon="6.53358">
        <ele>1466.1</ele>
        <time>2025-08-15T14:41:17Z</time>
      </trkpt>
      <trkpt lat="45.78893" lon="6.53359">
        <ele>1466.5</ele>
        <time>2025-08-15T14:41:18Z</time>
      </trkpt>
      <trkpt lat="45.78892" lon="6.53359">
        <ele>1466.6</ele>
        <time>2025-08-15T14:41:19Z</time>
      </trkpt>
      <trkpt lat="45.78888" lon="6.5336">
        <ele>1466.9</ele>
        <time>2025-08-15T14:41:20Z</time>
      </trkpt>
      <trkpt lat="45.78887" lon="6.5336">
        <ele>1467</ele>
        <time>2025-08-15T14:41:21Z</time>
      </trkpt>
      <trkpt lat="45.78884" lon="6.53361">
        <ele>1467.4</ele>
        <time>2025-08-15T14:41:22Z</time>
      </trkpt>
      <trkpt lat="45.78883" lon="6.53361">
        <ele>1467.5</ele>
        <time>2025-08-15T14:41:23Z</time>
      </trkpt>
      <trkpt lat="45.7888" lon="6.53362">
        <ele>1467.8</ele>
        <time>2025-08-15T14:41:24Z</time>
      </trkpt>
      <trkpt lat="45.78879" lon="6.53362">
        <ele>1468</ele>
        <time>2025-08-15T14:41:25Z</time>
      </trkpt>
      <trkpt lat="45.78875" lon="6.53362">
        <ele>1468.3</ele>
        <time>2025-08-15T14:41:26Z</time>
      </trkpt>
      <trkpt lat="45.78874" lon="6.53362">
        <ele>1468.4</ele>
        <time>2025-08-15T14:41:27Z</time>
      </trkpt>
      <trkpt lat="45.78871" lon="6.53362">
        <ele>1468.8</ele>
        <time>2025-08-15T14:41:28Z</time>
      </trkpt>
      <trkpt lat="45.78869" lon="6.53362">
        <ele>1468.9</ele>
        <time>2025-08-15T14:41:29Z</time>
      </trkpt>
      <trkpt lat="45.78866" lon="6.53362">
        <ele>1469.2</ele>
        <time>2025-08-15T14:41:30Z</time>
      </trkpt>
      <trkpt lat="45.78865" lon="6.53362">
        <ele>1469.3</ele>
        <time>2025-08-15T14:41:31Z</time>
      </trkpt>
      <trkpt lat="45.78862" lon="6.53363">
        <ele>1469.7</ele>
        <time>2025-08-15T14:41:32Z</time>
      </trkpt>
      <trkpt lat="45.78861" lon="6.53363">
        <ele>1469.8</ele>
        <time>2025-08-15T14:41:33Z</time>
      </trkpt>
      <trkpt lat="45.78858" lon="6.53363">
        <ele>1470.1</ele>
        <time>2025-08-15T14:41:34Z</time>
      </trkpt>
      <trkpt lat="45.78856" lon="6.53363">
        <ele>1470.2</ele>
        <time>2025-08-15T14:41:35Z</time>
      </trkpt>
      <trkpt lat="45.78853" lon="6.53363">
        <ele>1470.6</ele>
        <time>2025-08-15T14:41:36Z</time>
      </trkpt>
      <trkpt lat="45.78852" lon="6.53363">
        <ele>1470.7</ele>
        <time>2025-08-15T14:41:37Z</time>
      </trkpt>
      <trkpt lat="45.78849" lon="6.53364">
        <ele>1471</ele>
        <time>2025-08-15T14:41:38Z</time>
      </trkpt>
      <trkpt lat="45.78848" lon="6.53364">
        <ele>1471.1</ele>
        <time>2025-08-15T14:41:39Z</time>
      </trkpt>
      <trkpt lat="45.78844" lon="6.53366">
        <ele>1471.5</ele>
        <time>2025-08-15T14:41:40Z</time>
      </trkpt>
      <trkpt lat="45.78843" lon="6.53366">
        <ele>1471.6</ele>
        <time>2025-08-15T14:41:41Z</time>
      </trkpt>
      <trkpt lat="45.7884" lon="6.53369">
        <ele>1471.9</ele>
        <time>2025-08-15T14:41:42Z</time>
      </trkpt>
      <trkpt lat="45.78839" lon="6.53369">
        <ele>1472</ele>
        <time>2025-08-15T14:41:43Z</time>
      </trkpt>
      <trkpt lat="45.78836" lon="6.53372">
        <ele>1472.4</ele>
        <time>2025-08-15T14:41:44Z</time>
      </trkpt>
      <trkpt lat="45.78835" lon="6.53373">
        <ele>1472.5</ele>
        <time>2025-08-15T14:41:45Z</time>
      </trkpt>
      <trkpt lat="45.78832" lon="6.53375">
        <ele>1472.9</ele>
        <time>2025-08-15T14:41:46Z</time>
      </trkpt>
      <trkpt lat="45.78831" lon="6.53375">
        <ele>1473</ele>
        <time>2025-08-15T14:41:47Z</time>
      </trkpt>
      <trkpt lat="45.78827" lon="6.53376">
        <ele>1473.3</ele>
        <time>2025-08-15T14:41:48Z</time>
      </trkpt>
      <trkpt lat="45.78826" lon="6.53377">
        <ele>1473.4</ele>
        <time>2025-08-15T14:41:49Z</time>
      </trkpt>
      <trkpt lat="45.78823" lon="6.53376">
        <ele>1473.9</ele>
        <time>2025-08-15T14:41:50Z</time>
      </trkpt>
      <trkpt lat="45.78822" lon="6.53376">
        <ele>1474</ele>
        <time>2025-08-15T14:41:51Z</time>
      </trkpt>
      <trkpt lat="45.78819" lon="6.53375">
        <ele>1474.4</ele>
        <time>2025-08-15T14:41:52Z</time>
      </trkpt>
      <trkpt lat="45.78818" lon="6.53375">
        <ele>1474.5</ele>
        <time>2025-08-15T14:41:53Z</time>
      </trkpt>
      <trkpt lat="45.78815" lon="6.53372">
        <ele>1474.8</ele>
        <time>2025-08-15T14:41:54Z</time>
      </trkpt>
      <trkpt lat="45.78814" lon="6.53371">
        <ele>1475</ele>
        <time>2025-08-15T14:41:55Z</time>
      </trkpt>
      <trkpt lat="45.78812" lon="6.53367">
        <ele>1475.3</ele>
        <time>2025-08-15T14:41:56Z</time>
      </trkpt>
      <trkpt lat="45.78811" lon="6.53366">
        <ele>1475.5</ele>
        <time>2025-08-15T14:41:57Z</time>
      </trkpt>
      <trkpt lat="45.7881" lon="6.53362">
        <ele>1475.8</ele>
        <time>2025-08-15T14:41:59Z</time>
      </trkpt>
      <trkpt lat="45.7881" lon="6.5336">
        <ele>1476</ele>
        <time>2025-08-15T14:42:00Z</time>
      </trkpt>
      <trkpt lat="45.78811" lon="6.53355">
        <ele>1476.3</ele>
        <time>2025-08-15T14:42:01Z</time>
      </trkpt>
      <trkpt lat="45.78812" lon="6.53354">
        <ele>1476.5</ele>
        <time>2025-08-15T14:42:02Z</time>
      </trkpt>
      <trkpt lat="45.78813" lon="6.5335">
        <ele>1476.8</ele>
        <time>2025-08-15T14:42:03Z</time>
      </trkpt>
      <trkpt lat="45.78814" lon="6.53349">
        <ele>1476.9</ele>
        <time>2025-08-15T14:42:04Z</time>
      </trkpt>
      <trkpt lat="45.78817" lon="6.53346">
        <ele>1477.3</ele>
        <time>2025-08-15T14:42:05Z</time>
      </trkpt>
      <trkpt lat="45.78818" lon="6.53345">
        <ele>1477.4</ele>
        <time>2025-08-15T14:42:06Z</time>
      </trkpt>
      <trkpt lat="45.78821" lon="6.53343">
        <ele>1477.7</ele>
        <time>2025-08-15T14:42:07Z</time>
      </trkpt>
      <trkpt lat="45.78823" lon="6.53342">
        <ele>1477.8</ele>
        <time>2025-08-15T14:42:08Z</time>
      </trkpt>
      <trkpt lat="45.78826" lon="6.5334">
        <ele>1478.2</ele>
        <time>2025-08-15T14:42:09Z</time>
      </trkpt>
      <trkpt lat="45.78827" lon="6.53339">
        <ele>1478.3</ele>
        <time>2025-08-15T14:42:10Z</time>
      </trkpt>
      <trkpt lat="45.78829" lon="6.53338">
        <ele>1478.5</ele>
        <time>2025-08-15T14:42:11Z</time>
      </trkpt>
      <trkpt lat="45.78832" lon="6.53336">
        <ele>1478.8</ele>
        <time>2025-08-15T14:42:12Z</time>
      </trkpt>
      <trkpt lat="45.78833" lon="6.53335">
        <ele>1478.9</ele>
        <time>2025-08-15T14:42:13Z</time>
      </trkpt>
      <trkpt lat="45.78837" lon="6.53333">
        <ele>1479.2</ele>
        <time>2025-08-15T14:42:14Z</time>
      </trkpt>
      <trkpt lat="45.78838" lon="6.53332">
        <ele>1479.3</ele>
        <time>2025-08-15T14:42:15Z</time>
      </trkpt>
      <trkpt lat="45.78841" lon="6.5333">
        <ele>1479.6</ele>
        <time>2025-08-15T14:42:16Z</time>
      </trkpt>
      <trkpt lat="45.78842" lon="6.53329">
        <ele>1479.7</ele>
        <time>2025-08-15T14:42:17Z</time>
      </trkpt>
      <trkpt lat="45.78845" lon="6.53327">
        <ele>1480</ele>
        <time>2025-08-15T14:42:18Z</time>
      </trkpt>
      <trkpt lat="45.78846" lon="6.53326">
        <ele>1480.1</ele>
        <time>2025-08-15T14:42:19Z</time>
      </trkpt>
      <trkpt lat="45.78849" lon="6.53321">
        <ele>1480.6</ele>
        <time>2025-08-15T14:42:20Z</time>
      </trkpt>
      <trkpt lat="45.78851" lon="6.53319">
        <ele>1480.8</ele>
        <time>2025-08-15T14:42:21Z</time>
      </trkpt>
      <trkpt lat="45.78853" lon="6.53316">
        <ele>1481</ele>
        <time>2025-08-15T14:42:22Z</time>
      </trkpt>
      <trkpt lat="45.78854" lon="6.53312">
        <ele>1481.3</ele>
        <time>2025-08-15T14:42:23Z</time>
      </trkpt>
      <trkpt lat="45.78855" lon="6.5331">
        <ele>1481.4</ele>
        <time>2025-08-15T14:42:24Z</time>
      </trkpt>
      <trkpt lat="45.78856" lon="6.53305">
        <ele>1481.7</ele>
        <time>2025-08-15T14:42:25Z</time>
      </trkpt>
      <trkpt lat="45.78856" lon="6.53304">
        <ele>1481.8</ele>
        <time>2025-08-15T14:42:26Z</time>
      </trkpt>
      <trkpt lat="45.78856" lon="6.53299">
        <ele>1482.1</ele>
        <time>2025-08-15T14:42:27Z</time>
      </trkpt>
      <trkpt lat="45.78856" lon="6.53297">
        <ele>1482.2</ele>
        <time>2025-08-15T14:42:28Z</time>
      </trkpt>
      <trkpt lat="45.78857" lon="6.53292">
        <ele>1482.5</ele>
        <time>2025-08-15T14:42:29Z</time>
      </trkpt>
      <trkpt lat="45.78858" lon="6.5329">
        <ele>1482.6</ele>
        <time>2025-08-15T14:42:30Z</time>
      </trkpt>
      <trkpt lat="45.78858" lon="6.53285">
        <ele>1483</ele>
        <time>2025-08-15T14:42:31Z</time>
      </trkpt>
      <trkpt lat="45.78858" lon="6.53283">
        <ele>1483.1</ele>
        <time>2025-08-15T14:42:32Z</time>
      </trkpt>
      <trkpt lat="45.78859" lon="6.53278">
        <ele>1483.4</ele>
        <time>2025-08-15T14:42:33Z</time>
      </trkpt>
      <trkpt lat="45.78859" lon="6.53277">
        <ele>1483.5</ele>
        <time>2025-08-15T14:42:34Z</time>
      </trkpt>
      <trkpt lat="45.7886" lon="6.53272">
        <ele>1483.9</ele>
        <time>2025-08-15T14:42:35Z</time>
      </trkpt>
      <trkpt lat="45.78861" lon="6.5327">
        <ele>1484</ele>
        <time>2025-08-15T14:42:36Z</time>
      </trkpt>
      <trkpt lat="45.78863" lon="6.53266">
        <ele>1484.3</ele>
        <time>2025-08-15T14:42:37Z</time>
      </trkpt>
      <trkpt lat="45.78864" lon="6.53265">
        <ele>1484.4</ele>
        <time>2025-08-15T14:42:38Z</time>
      </trkpt>
      <trkpt lat="45.78867" lon="6.53262">
        <ele>1484.8</ele>
        <time>2025-08-15T14:42:39Z</time>
      </trkpt>
      <trkpt lat="45.78868" lon="6.53261">
        <ele>1484.9</ele>
        <time>2025-08-15T14:42:40Z</time>
      </trkpt>
      <trkpt lat="45.78871" lon="6.53259">
        <ele>1485.2</ele>
        <time>2025-08-15T14:42:41Z</time>
      </trkpt>
      <trkpt lat="45.78872" lon="6.53258">
        <ele>1485.3</ele>
        <time>2025-08-15T14:42:42Z</time>
      </trkpt>
      <trkpt lat="45.78875" lon="6.53256">
        <ele>1485.6</ele>
        <time>2025-08-15T14:42:43Z</time>
      </trkpt>
      <trkpt lat="45.78876" lon="6.53255">
        <ele>1485.8</ele>
        <time>2025-08-15T14:42:44Z</time>
      </trkpt>
      <trkpt lat="45.78879" lon="6.53253">
        <ele>1486.1</ele>
        <time>2025-08-15T14:42:45Z</time>
      </trkpt>
      <trkpt lat="45.7888" lon="6.53252">
        <ele>1486.2</ele>
        <time>2025-08-15T14:42:46Z</time>
      </trkpt>
      <trkpt lat="45.78883" lon="6.53249">
        <ele>1486.5</ele>
        <time>2025-08-15T14:42:47Z</time>
      </trkpt>
      <trkpt lat="45.78884" lon="6.53248">
        <ele>1486.7</ele>
        <time>2025-08-15T14:42:48Z</time>
      </trkpt>
      <trkpt lat="45.78886" lon="6.53245">
        <ele>1487</ele>
        <time>2025-08-15T14:42:49Z</time>
      </trkpt>
      <trkpt lat="45.78887" lon="6.53243">
        <ele>1487.1</ele>
        <time>2025-08-15T14:42:50Z</time>
      </trkpt>
      <trkpt lat="45.7889" lon="6.5324">
        <ele>1487.4</ele>
        <time>2025-08-15T14:42:51Z</time>
      </trkpt>
      <trkpt lat="45.7889" lon="6.53239">
        <ele>1487.5</ele>
        <time>2025-08-15T14:42:52Z</time>
      </trkpt>
      <trkpt lat="45.78893" lon="6.53236">
        <ele>1487.9</ele>
        <time>2025-08-15T14:42:53Z</time>
      </trkpt>
      <trkpt lat="45.78893" lon="6.53234">
        <ele>1488</ele>
        <time>2025-08-15T14:42:54Z</time>
      </trkpt>
      <trkpt lat="45.78894" lon="6.5323">
        <ele>1488.3</ele>
        <time>2025-08-15T14:42:55Z</time>
      </trkpt>
      <trkpt lat="45.78895" lon="6.53229">
        <ele>1488.4</ele>
        <time>2025-08-15T14:42:56Z</time>
      </trkpt>
      <trkpt lat="45.78895" lon="6.53224">
        <ele>1488.7</ele>
        <time>2025-08-15T14:42:57Z</time>
      </trkpt>
      <trkpt lat="45.78895" lon="6.53222">
        <ele>1488.9</ele>
        <time>2025-08-15T14:42:58Z</time>
      </trkpt>
      <trkpt lat="45.78896" lon="6.53217">
        <ele>1489.2</ele>
        <time>2025-08-15T14:42:59Z</time>
      </trkpt>
      <trkpt lat="45.78896" lon="6.53216">
        <ele>1489.3</ele>
        <time>2025-08-15T14:43:00Z</time>
      </trkpt>
      <trkpt lat="45.78895" lon="6.53211">
        <ele>1489.6</ele>
        <time>2025-08-15T14:43:01Z</time>
      </trkpt>
      <trkpt lat="45.78895" lon="6.5321">
        <ele>1489.8</ele>
        <time>2025-08-15T14:43:02Z</time>
      </trkpt>
      <trkpt lat="45.78894" lon="6.53205">
        <ele>1490.1</ele>
        <time>2025-08-15T14:43:03Z</time>
      </trkpt>
      <trkpt lat="45.78894" lon="6.53203">
        <ele>1490.2</ele>
        <time>2025-08-15T14:43:04Z</time>
      </trkpt>
      <trkpt lat="45.78893" lon="6.53199">
        <ele>1490.5</ele>
        <time>2025-08-15T14:43:05Z</time>
      </trkpt>
      <trkpt lat="45.78893" lon="6.53197">
        <ele>1490.6</ele>
        <time>2025-08-15T14:43:06Z</time>
      </trkpt>
      <trkpt lat="45.78892" lon="6.53192">
        <ele>1491</ele>
        <time>2025-08-15T14:43:07Z</time>
      </trkpt>
      <trkpt lat="45.78891" lon="6.53191">
        <ele>1491.1</ele>
        <time>2025-08-15T14:43:08Z</time>
      </trkpt>
      <trkpt lat="45.7889" lon="6.53186">
        <ele>1491.4</ele>
        <time>2025-08-15T14:43:09Z</time>
      </trkpt>
      <trkpt lat="45.78889" lon="6.53185">
        <ele>1491.5</ele>
        <time>2025-08-15T14:43:10Z</time>
      </trkpt>
      <trkpt lat="45.78887" lon="6.5318">
        <ele>1491.9</ele>
        <time>2025-08-15T14:43:11Z</time>
      </trkpt>
      <trkpt lat="45.78886" lon="6.53179">
        <ele>1492</ele>
        <time>2025-08-15T14:43:12Z</time>
      </trkpt>
      <trkpt lat="45.78884" lon="6.53176">
        <ele>1492.3</ele>
        <time>2025-08-15T14:43:13Z</time>
      </trkpt>
      <trkpt lat="45.78883" lon="6.53174">
        <ele>1492.4</ele>
        <time>2025-08-15T14:43:14Z</time>
      </trkpt>
      <trkpt lat="45.7888" lon="6.53172">
        <ele>1492.7</ele>
        <time>2025-08-15T14:43:15Z</time>
      </trkpt>
      <trkpt lat="45.78879" lon="6.53171">
        <ele>1492.8</ele>
        <time>2025-08-15T14:43:16Z</time>
      </trkpt>
      <trkpt lat="45.78875" lon="6.53168">
        <ele>1493.2</ele>
        <time>2025-08-15T14:43:17Z</time>
      </trkpt>
      <trkpt lat="45.78874" lon="6.53167">
        <ele>1493.3</ele>
        <time>2025-08-15T14:43:18Z</time>
      </trkpt>
      <trkpt lat="45.78871" lon="6.53166">
        <ele>1493.5</ele>
        <time>2025-08-15T14:43:19Z</time>
      </trkpt>
      <trkpt lat="45.7887" lon="6.53165">
        <ele>1493.6</ele>
        <time>2025-08-15T14:43:20Z</time>
      </trkpt>
      <trkpt lat="45.78866" lon="6.53165">
        <ele>1493.9</ele>
        <time>2025-08-15T14:43:21Z</time>
      </trkpt>
      <trkpt lat="45.78865" lon="6.53165">
        <ele>1494</ele>
        <time>2025-08-15T14:43:22Z</time>
      </trkpt>
      <trkpt lat="45.78862" lon="6.53166">
        <ele>1494.2</ele>
        <time>2025-08-15T14:43:23Z</time>
      </trkpt>
      <trkpt lat="45.7886" lon="6.53166">
        <ele>1494.3</ele>
        <time>2025-08-15T14:43:24Z</time>
      </trkpt>
      <trkpt lat="45.78857" lon="6.53166">
        <ele>1494.5</ele>
        <time>2025-08-15T14:43:25Z</time>
      </trkpt>
      <trkpt lat="45.78856" lon="6.53166">
        <ele>1494.6</ele>
        <time>2025-08-15T14:43:26Z</time>
      </trkpt>
      <trkpt lat="45.78852" lon="6.53166">
        <ele>1494.9</ele>
        <time>2025-08-15T14:43:27Z</time>
      </trkpt>
      <trkpt lat="45.78851" lon="6.53166">
        <ele>1494.9</ele>
        <time>2025-08-15T14:43:28Z</time>
      </trkpt>
      <trkpt lat="45.78848" lon="6.53167">
        <ele>1495.2</ele>
        <time>2025-08-15T14:43:29Z</time>
      </trkpt>
      <trkpt lat="45.78847" lon="6.53168">
        <ele>1495.3</ele>
        <time>2025-08-15T14:43:30Z</time>
      </trkpt>
      <trkpt lat="45.78843" lon="6.53169">
        <ele>1495.5</ele>
        <time>2025-08-15T14:43:31Z</time>
      </trkpt>
      <trkpt lat="45.78842" lon="6.5317">
        <ele>1495.6</ele>
        <time>2025-08-15T14:43:32Z</time>
      </trkpt>
      <trkpt lat="45.78838" lon="6.53171">
        <ele>1495.9</ele>
        <time>2025-08-15T14:43:33Z</time>
      </trkpt>
      <trkpt lat="45.78837" lon="6.53172">
        <ele>1496</ele>
        <time>2025-08-15T14:43:34Z</time>
      </trkpt>
      <trkpt lat="45.78834" lon="6.53172">
        <ele>1496.2</ele>
        <time>2025-08-15T14:43:35Z</time>
      </trkpt>
      <trkpt lat="45.78831" lon="6.53173">
        <ele>1496.5</ele>
        <time>2025-08-15T14:43:36Z</time>
      </trkpt>
      <trkpt lat="45.78829" lon="6.53174">
        <ele>1496.7</ele>
        <time>2025-08-15T14:43:37Z</time>
      </trkpt>
      <trkpt lat="45.78825" lon="6.53174">
        <ele>1497</ele>
        <time>2025-08-15T14:43:38Z</time>
      </trkpt>
      <trkpt lat="45.78824" lon="6.53174">
        <ele>1497.1</ele>
        <time>2025-08-15T14:43:39Z</time>
      </trkpt>
      <trkpt lat="45.7882" lon="6.53174">
        <ele>1497.4</ele>
        <time>2025-08-15T14:43:40Z</time>
      </trkpt>
      <trkpt lat="45.78819" lon="6.53174">
        <ele>1497.5</ele>
        <time>2025-08-15T14:43:41Z</time>
      </trkpt>
      <trkpt lat="45.78816" lon="6.53174">
        <ele>1497.8</ele>
        <time>2025-08-15T14:43:42Z</time>
      </trkpt>
      <trkpt lat="45.78812" lon="6.53173">
        <ele>1498.1</ele>
        <time>2025-08-15T14:43:43Z</time>
      </trkpt>
      <trkpt lat="45.78811" lon="6.53173">
        <ele>1498.2</ele>
        <time>2025-08-15T14:43:44Z</time>
      </trkpt>
      <trkpt lat="45.78807" lon="6.53172">
        <ele>1498.5</ele>
        <time>2025-08-15T14:43:45Z</time>
      </trkpt>
      <trkpt lat="45.78805" lon="6.53172">
        <ele>1498.7</ele>
        <time>2025-08-15T14:43:46Z</time>
      </trkpt>
      <trkpt lat="45.78801" lon="6.53171">
        <ele>1499</ele>
        <time>2025-08-15T14:43:47Z</time>
      </trkpt>
      <trkpt lat="45.788" lon="6.53171">
        <ele>1499.1</ele>
        <time>2025-08-15T14:43:48Z</time>
      </trkpt>
      <trkpt lat="45.78796" lon="6.53171">
        <ele>1499.5</ele>
        <time>2025-08-15T14:43:49Z</time>
      </trkpt>
      <trkpt lat="45.78795" lon="6.53171">
        <ele>1499.6</ele>
        <time>2025-08-15T14:43:50Z</time>
      </trkpt>
      <trkpt lat="45.78791" lon="6.5317">
        <ele>1500</ele>
        <time>2025-08-15T14:43:51Z</time>
      </trkpt>
      <trkpt lat="45.7879" lon="6.5317">
        <ele>1500.1</ele>
        <time>2025-08-15T14:43:52Z</time>
      </trkpt>
      <trkpt lat="45.78786" lon="6.5317">
        <ele>1500.6</ele>
        <time>2025-08-15T14:43:53Z</time>
      </trkpt>
      <trkpt lat="45.78785" lon="6.5317">
        <ele>1500.7</ele>
        <time>2025-08-15T14:43:54Z</time>
      </trkpt>
      <trkpt lat="45.78781" lon="6.5317">
        <ele>1501</ele>
        <time>2025-08-15T14:43:55Z</time>
      </trkpt>
      <trkpt lat="45.78778" lon="6.5317">
        <ele>1501.4</ele>
        <time>2025-08-15T14:43:56Z</time>
      </trkpt>
      <trkpt lat="45.78777" lon="6.5317">
        <ele>1501.6</ele>
        <time>2025-08-15T14:43:57Z</time>
      </trkpt>
      <trkpt lat="45.78773" lon="6.53169">
        <ele>1502</ele>
        <time>2025-08-15T14:43:58Z</time>
      </trkpt>
      <trkpt lat="45.78772" lon="6.53169">
        <ele>1502.2</ele>
        <time>2025-08-15T14:43:59Z</time>
      </trkpt>
      <trkpt lat="45.78768" lon="6.53169">
        <ele>1502.6</ele>
        <time>2025-08-15T14:44:00Z</time>
      </trkpt>
      <trkpt lat="45.78766" lon="6.53169">
        <ele>1502.8</ele>
        <time>2025-08-15T14:44:01Z</time>
      </trkpt>
      <trkpt lat="45.78763" lon="6.5317">
        <ele>1503.2</ele>
        <time>2025-08-15T14:44:02Z</time>
      </trkpt>
      <trkpt lat="45.78761" lon="6.5317">
        <ele>1503.4</ele>
        <time>2025-08-15T14:44:03Z</time>
      </trkpt>
      <trkpt lat="45.78757" lon="6.5317">
        <ele>1503.9</ele>
        <time>2025-08-15T14:44:05Z</time>
      </trkpt>
      <trkpt lat="45.78756" lon="6.5317">
        <ele>1504.1</ele>
        <time>2025-08-15T14:44:06Z</time>
      </trkpt>
      <trkpt lat="45.78753" lon="6.5317">
        <ele>1504.5</ele>
        <time>2025-08-15T14:44:07Z</time>
      </trkpt>
      <trkpt lat="45.78749" lon="6.5317">
        <ele>1505</ele>
        <time>2025-08-15T14:44:08Z</time>
      </trkpt>
      <trkpt lat="45.78748" lon="6.53169">
        <ele>1505.2</ele>
        <time>2025-08-15T14:44:09Z</time>
      </trkpt>
      <trkpt lat="45.78745" lon="6.53171">
        <ele>1505.5</ele>
        <time>2025-08-15T14:44:10Z</time>
      </trkpt>
      <trkpt lat="45.78742" lon="6.5317">
        <ele>1505.9</ele>
        <time>2025-08-15T14:44:11Z</time>
      </trkpt>
      <trkpt lat="45.78739" lon="6.5317">
        <ele>1506.2</ele>
        <time>2025-08-15T14:44:12Z</time>
      </trkpt>
      <trkpt lat="45.78738" lon="6.5317">
        <ele>1506.5</ele>
        <time>2025-08-15T14:44:13Z</time>
      </trkpt>
      <trkpt lat="45.78735" lon="6.5317">
        <ele>1506.8</ele>
        <time>2025-08-15T14:44:14Z</time>
      </trkpt>
      <trkpt lat="45.78732" lon="6.53171">
        <ele>1507.1</ele>
        <time>2025-08-15T14:44:15Z</time>
      </trkpt>
      <trkpt lat="45.78729" lon="6.5317">
        <ele>1507.4</ele>
        <time>2025-08-15T14:44:16Z</time>
      </trkpt>
      <trkpt lat="45.78725" lon="6.5317">
        <ele>1507.8</ele>
        <time>2025-08-15T14:44:17Z</time>
      </trkpt>
      <trkpt lat="45.78723" lon="6.5317">
        <ele>1508</ele>
        <time>2025-08-15T14:44:18Z</time>
      </trkpt>
      <trkpt lat="45.78719" lon="6.53169">
        <ele>1508.4</ele>
        <time>2025-08-15T14:44:19Z</time>
      </trkpt>
      <trkpt lat="45.78718" lon="6.53169">
        <ele>1508.5</ele>
        <time>2025-08-15T14:44:20Z</time>
      </trkpt>
      <trkpt lat="45.78715" lon="6.53169">
        <ele>1508.8</ele>
        <time>2025-08-15T14:44:21Z</time>
      </trkpt>
      <trkpt lat="45.78712" lon="6.53168">
        <ele>1509.1</ele>
        <time>2025-08-15T14:44:22Z</time>
      </trkpt>
      <trkpt lat="45.78709" lon="6.53167">
        <ele>1509.3</ele>
        <time>2025-08-15T14:44:23Z</time>
      </trkpt>
      <trkpt lat="45.78706" lon="6.53167">
        <ele>1509.6</ele>
        <time>2025-08-15T14:44:24Z</time>
      </trkpt>
      <trkpt lat="45.78703" lon="6.53166">
        <ele>1509.9</ele>
        <time>2025-08-15T14:44:25Z</time>
      </trkpt>
      <trkpt lat="45.787" lon="6.53165">
        <ele>1510.1</ele>
        <time>2025-08-15T14:44:26Z</time>
      </trkpt>
      <trkpt lat="45.78697" lon="6.53164">
        <ele>1510.4</ele>
        <time>2025-08-15T14:44:27Z</time>
      </trkpt>
      <trkpt lat="45.78694" lon="6.53163">
        <ele>1510.7</ele>
        <time>2025-08-15T14:44:28Z</time>
      </trkpt>
      <trkpt lat="45.78688" lon="6.53159">
        <ele>1511.3</ele>
        <time>2025-08-15T14:44:29Z</time>
      </trkpt>
      <trkpt lat="45.78686" lon="6.53158">
        <ele>1511.5</ele>
        <time>2025-08-15T14:44:30Z</time>
      </trkpt>
      <trkpt lat="45.78683" lon="6.53156">
        <ele>1511.8</ele>
        <time>2025-08-15T14:44:31Z</time>
      </trkpt>
      <trkpt lat="45.7868" lon="6.53155">
        <ele>1512.1</ele>
        <time>2025-08-15T14:44:32Z</time>
      </trkpt>
      <trkpt lat="45.78677" lon="6.53153">
        <ele>1512.3</ele>
        <time>2025-08-15T14:44:33Z</time>
      </trkpt>
      <trkpt lat="45.78675" lon="6.53151">
        <ele>1512.6</ele>
        <time>2025-08-15T14:44:34Z</time>
      </trkpt>
      <trkpt lat="45.78672" lon="6.53148">
        <ele>1512.9</ele>
        <time>2025-08-15T14:44:35Z</time>
      </trkpt>
      <trkpt lat="45.78669" lon="6.53147">
        <ele>1513.1</ele>
        <time>2025-08-15T14:44:36Z</time>
      </trkpt>
      <trkpt lat="45.78666" lon="6.53145">
        <ele>1513.4</ele>
        <time>2025-08-15T14:44:37Z</time>
      </trkpt>
      <trkpt lat="45.78663" lon="6.53144">
        <ele>1513.7</ele>
        <time>2025-08-15T14:44:38Z</time>
      </trkpt>
      <trkpt lat="45.7866" lon="6.53142">
        <ele>1514</ele>
        <time>2025-08-15T14:44:39Z</time>
      </trkpt>
      <trkpt lat="45.78657" lon="6.5314">
        <ele>1514.2</ele>
        <time>2025-08-15T14:44:40Z</time>
      </trkpt>
      <trkpt lat="45.78654" lon="6.53139">
        <ele>1514.5</ele>
        <time>2025-08-15T14:44:41Z</time>
      </trkpt>
      <trkpt lat="45.78651" lon="6.53141">
        <ele>1514.7</ele>
        <time>2025-08-15T14:44:42Z</time>
      </trkpt>
      <trkpt lat="45.78649" lon="6.53141">
        <ele>1515</ele>
        <time>2025-08-15T14:44:43Z</time>
      </trkpt>
      <trkpt lat="45.78645" lon="6.53139">
        <ele>1515.3</ele>
        <time>2025-08-15T14:44:44Z</time>
      </trkpt>
      <trkpt lat="45.78642" lon="6.53139">
        <ele>1515.5</ele>
        <time>2025-08-15T14:44:45Z</time>
      </trkpt>
      <trkpt lat="45.78641" lon="6.53139">
        <ele>1515.6</ele>
        <time>2025-08-15T14:44:46Z</time>
      </trkpt>
      <trkpt lat="45.78638" lon="6.53139">
        <ele>1515.9</ele>
        <time>2025-08-15T14:44:47Z</time>
      </trkpt>
      <trkpt lat="45.78635" lon="6.53138">
        <ele>1516.2</ele>
        <time>2025-08-15T14:44:48Z</time>
      </trkpt>
      <trkpt lat="45.78633" lon="6.53138">
        <ele>1516.3</ele>
        <time>2025-08-15T14:44:49Z</time>
      </trkpt>
      <trkpt lat="45.7863" lon="6.53137">
        <ele>1516.6</ele>
        <time>2025-08-15T14:44:50Z</time>
      </trkpt>
      <trkpt lat="45.78629" lon="6.53137">
        <ele>1516.7</ele>
        <time>2025-08-15T14:44:51Z</time>
      </trkpt>
      <trkpt lat="45.78625" lon="6.53137">
        <ele>1517</ele>
        <time>2025-08-15T14:44:52Z</time>
      </trkpt>
      <trkpt lat="45.78624" lon="6.53136">
        <ele>1517.1</ele>
        <time>2025-08-15T14:44:53Z</time>
      </trkpt>
      <trkpt lat="45.78621" lon="6.53136">
        <ele>1517.3</ele>
        <time>2025-08-15T14:44:54Z</time>
      </trkpt>
      <trkpt lat="45.78619" lon="6.53136">
        <ele>1517.4</ele>
        <time>2025-08-15T14:44:55Z</time>
      </trkpt>
      <trkpt lat="45.78616" lon="6.53135">
        <ele>1517.7</ele>
        <time>2025-08-15T14:44:56Z</time>
      </trkpt>
      <trkpt lat="45.78615" lon="6.53135">
        <ele>1517.8</ele>
        <time>2025-08-15T14:44:57Z</time>
      </trkpt>
      <trkpt lat="45.78611" lon="6.53135">
        <ele>1518.1</ele>
        <time>2025-08-15T14:44:58Z</time>
      </trkpt>
      <trkpt lat="45.7861" lon="6.53135">
        <ele>1518.2</ele>
        <time>2025-08-15T14:44:59Z</time>
      </trkpt>
      <trkpt lat="45.78607" lon="6.53135">
        <ele>1518.5</ele>
        <time>2025-08-15T14:45:00Z</time>
      </trkpt>
      <trkpt lat="45.78605" lon="6.53135">
        <ele>1518.5</ele>
        <time>2025-08-15T14:45:01Z</time>
      </trkpt>
      <trkpt lat="45.78602" lon="6.53135">
        <ele>1518.8</ele>
        <time>2025-08-15T14:45:02Z</time>
      </trkpt>
      <trkpt lat="45.78601" lon="6.53135">
        <ele>1518.9</ele>
        <time>2025-08-15T14:45:03Z</time>
      </trkpt>
      <trkpt lat="45.78597" lon="6.53137">
        <ele>1519.2</ele>
        <time>2025-08-15T14:45:04Z</time>
      </trkpt>
      <trkpt lat="45.78596" lon="6.53137">
        <ele>1519.3</ele>
        <time>2025-08-15T14:45:05Z</time>
      </trkpt>
      <trkpt lat="45.78593" lon="6.53138">
        <ele>1519.6</ele>
        <time>2025-08-15T14:45:06Z</time>
      </trkpt>
      <trkpt lat="45.78591" lon="6.53139">
        <ele>1519.7</ele>
        <time>2025-08-15T14:45:07Z</time>
      </trkpt>
      <trkpt lat="45.78589" lon="6.53142">
        <ele>1520</ele>
        <time>2025-08-15T14:45:08Z</time>
      </trkpt>
      <trkpt lat="45.78588" lon="6.53143">
        <ele>1520.1</ele>
        <time>2025-08-15T14:45:09Z</time>
      </trkpt>
      <trkpt lat="45.78584" lon="6.53146">
        <ele>1520.5</ele>
        <time>2025-08-15T14:45:10Z</time>
      </trkpt>
      <trkpt lat="45.78583" lon="6.53147">
        <ele>1520.6</ele>
        <time>2025-08-15T14:45:11Z</time>
      </trkpt>
      <trkpt lat="45.7858" lon="6.5315">
        <ele>1520.9</ele>
        <time>2025-08-15T14:45:12Z</time>
      </trkpt>
      <trkpt lat="45.78579" lon="6.53151">
        <ele>1521</ele>
        <time>2025-08-15T14:45:13Z</time>
      </trkpt>
      <trkpt lat="45.78577" lon="6.53154">
        <ele>1521.4</ele>
        <time>2025-08-15T14:45:14Z</time>
      </trkpt>
      <trkpt lat="45.78576" lon="6.53155">
        <ele>1521.5</ele>
        <time>2025-08-15T14:45:15Z</time>
      </trkpt>
      <trkpt lat="45.78572" lon="6.53157">
        <ele>1521.9</ele>
        <time>2025-08-15T14:45:16Z</time>
      </trkpt>
      <trkpt lat="45.78571" lon="6.53158">
        <ele>1522</ele>
        <time>2025-08-15T14:45:17Z</time>
      </trkpt>
      <trkpt lat="45.78568" lon="6.53161">
        <ele>1522.4</ele>
        <time>2025-08-15T14:45:18Z</time>
      </trkpt>
      <trkpt lat="45.78567" lon="6.53162">
        <ele>1522.5</ele>
        <time>2025-08-15T14:45:19Z</time>
      </trkpt>
      <trkpt lat="45.78565" lon="6.53163">
        <ele>1522.8</ele>
        <time>2025-08-15T14:45:20Z</time>
      </trkpt>
      <trkpt lat="45.78561" lon="6.53166">
        <ele>1523.2</ele>
        <time>2025-08-15T14:45:21Z</time>
      </trkpt>
      <trkpt lat="45.7856" lon="6.53166">
        <ele>1523.3</ele>
        <time>2025-08-15T14:45:22Z</time>
      </trkpt>
      <trkpt lat="45.78557" lon="6.53168">
        <ele>1523.7</ele>
        <time>2025-08-15T14:45:23Z</time>
      </trkpt>
      <trkpt lat="45.78556" lon="6.53168">
        <ele>1523.8</ele>
        <time>2025-08-15T14:45:24Z</time>
      </trkpt>
      <trkpt lat="45.78553" lon="6.53169">
        <ele>1524.2</ele>
        <time>2025-08-15T14:45:25Z</time>
      </trkpt>
      <trkpt lat="45.78549" lon="6.5317">
        <ele>1524.5</ele>
        <time>2025-08-15T14:45:26Z</time>
      </trkpt>
      <trkpt lat="45.78548" lon="6.5317">
        <ele>1524.7</ele>
        <time>2025-08-15T14:45:27Z</time>
      </trkpt>
      <trkpt lat="45.78544" lon="6.53171">
        <ele>1525.1</ele>
        <time>2025-08-15T14:45:28Z</time>
      </trkpt>
      <trkpt lat="45.78543" lon="6.5317">
        <ele>1525.2</ele>
        <time>2025-08-15T14:45:29Z</time>
      </trkpt>
      <trkpt lat="45.7854" lon="6.53171">
        <ele>1525.5</ele>
        <time>2025-08-15T14:45:30Z</time>
      </trkpt>
      <trkpt lat="45.78536" lon="6.53171">
        <ele>1525.9</ele>
        <time>2025-08-15T14:45:31Z</time>
      </trkpt>
      <trkpt lat="45.78535" lon="6.5317">
        <ele>1526</ele>
        <time>2025-08-15T14:45:32Z</time>
      </trkpt>
      <trkpt lat="45.78531" lon="6.53171">
        <ele>1526.3</ele>
        <time>2025-08-15T14:45:33Z</time>
      </trkpt>
      <trkpt lat="45.7853" lon="6.5317">
        <ele>1526.5</ele>
        <time>2025-08-15T14:45:34Z</time>
      </trkpt>
      <trkpt lat="45.78527" lon="6.53171">
        <ele>1526.8</ele>
        <time>2025-08-15T14:45:35Z</time>
      </trkpt>
      <trkpt lat="45.78523" lon="6.5317">
        <ele>1527.1</ele>
        <time>2025-08-15T14:45:36Z</time>
      </trkpt>
      <trkpt lat="45.78522" lon="6.5317">
        <ele>1527.3</ele>
        <time>2025-08-15T14:45:37Z</time>
      </trkpt>
      <trkpt lat="45.78519" lon="6.53169">
        <ele>1527.5</ele>
        <time>2025-08-15T14:45:38Z</time>
      </trkpt>
      <trkpt lat="45.78515" lon="6.53168">
        <ele>1527.9</ele>
        <time>2025-08-15T14:45:39Z</time>
      </trkpt>
      <trkpt lat="45.78514" lon="6.53167">
        <ele>1528</ele>
        <time>2025-08-15T14:45:40Z</time>
      </trkpt>
      <trkpt lat="45.78511" lon="6.53168">
        <ele>1528.2</ele>
        <time>2025-08-15T14:45:41Z</time>
      </trkpt>
      <trkpt lat="45.78507" lon="6.53165">
        <ele>1528.6</ele>
        <time>2025-08-15T14:45:42Z</time>
      </trkpt>
      <trkpt lat="45.78506" lon="6.53165">
        <ele>1528.7</ele>
        <time>2025-08-15T14:45:43Z</time>
      </trkpt>
      <trkpt lat="45.78503" lon="6.53163">
        <ele>1528.9</ele>
        <time>2025-08-15T14:45:44Z</time>
      </trkpt>
      <trkpt lat="45.785" lon="6.5316">
        <ele>1529.2</ele>
        <time>2025-08-15T14:45:45Z</time>
      </trkpt>
      <trkpt lat="45.78499" lon="6.53159">
        <ele>1529.3</ele>
        <time>2025-08-15T14:45:46Z</time>
      </trkpt>
      <trkpt lat="45.78496" lon="6.53157">
        <ele>1529.6</ele>
        <time>2025-08-15T14:45:47Z</time>
      </trkpt>
      <trkpt lat="45.78493" lon="6.53154">
        <ele>1529.9</ele>
        <time>2025-08-15T14:45:48Z</time>
      </trkpt>
      <trkpt lat="45.78492" lon="6.53154">
        <ele>1530</ele>
        <time>2025-08-15T14:45:49Z</time>
      </trkpt>
      <trkpt lat="45.78488" lon="6.53151">
        <ele>1530.3</ele>
        <time>2025-08-15T14:45:50Z</time>
      </trkpt>
      <trkpt lat="45.78487" lon="6.53149">
        <ele>1530.4</ele>
        <time>2025-08-15T14:45:51Z</time>
      </trkpt>
      <trkpt lat="45.78484" lon="6.53146">
        <ele>1530.7</ele>
        <time>2025-08-15T14:45:52Z</time>
      </trkpt>
      <trkpt lat="45.78482" lon="6.53145">
        <ele>1530.8</ele>
        <time>2025-08-15T14:45:53Z</time>
      </trkpt>
      <trkpt lat="45.7848" lon="6.53142">
        <ele>1531</ele>
        <time>2025-08-15T14:45:54Z</time>
      </trkpt>
      <trkpt lat="45.78478" lon="6.5314">
        <ele>1531.2</ele>
        <time>2025-08-15T14:45:55Z</time>
      </trkpt>
      <trkpt lat="45.78475" lon="6.53136">
        <ele>1531.5</ele>
        <time>2025-08-15T14:45:56Z</time>
      </trkpt>
      <trkpt lat="45.78474" lon="6.53135">
        <ele>1531.6</ele>
        <time>2025-08-15T14:45:57Z</time>
      </trkpt>
      <trkpt lat="45.78471" lon="6.53131">
        <ele>1531.9</ele>
        <time>2025-08-15T14:45:58Z</time>
      </trkpt>
      <trkpt lat="45.7847" lon="6.53129">
        <ele>1532</ele>
        <time>2025-08-15T14:45:59Z</time>
      </trkpt>
      <trkpt lat="45.78468" lon="6.53127">
        <ele>1532.2</ele>
        <time>2025-08-15T14:46:00Z</time>
      </trkpt>
      <trkpt lat="45.78466" lon="6.53124">
        <ele>1532.4</ele>
        <time>2025-08-15T14:46:01Z</time>
      </trkpt>
      <trkpt lat="45.78464" lon="6.5312">
        <ele>1532.7</ele>
        <time>2025-08-15T14:46:02Z</time>
      </trkpt>
      <trkpt lat="45.78463" lon="6.53119">
        <ele>1532.8</ele>
        <time>2025-08-15T14:46:03Z</time>
      </trkpt>
      <trkpt lat="45.78461" lon="6.53116">
        <ele>1533</ele>
        <time>2025-08-15T14:46:04Z</time>
      </trkpt>
      <trkpt lat="45.78458" lon="6.53112">
        <ele>1533.4</ele>
        <time>2025-08-15T14:46:05Z</time>
      </trkpt>
      <trkpt lat="45.78457" lon="6.5311">
        <ele>1533.5</ele>
        <time>2025-08-15T14:46:06Z</time>
      </trkpt>
      <trkpt lat="45.78455" lon="6.53106">
        <ele>1533.8</ele>
        <time>2025-08-15T14:46:07Z</time>
      </trkpt>
      <trkpt lat="45.78453" lon="6.53105">
        <ele>1533.9</ele>
        <time>2025-08-15T14:46:08Z</time>
      </trkpt>
      <trkpt lat="45.78451" lon="6.53101">
        <ele>1534.3</ele>
        <time>2025-08-15T14:46:09Z</time>
      </trkpt>
      <trkpt lat="45.7845" lon="6.53099">
        <ele>1534.4</ele>
        <time>2025-08-15T14:46:10Z</time>
      </trkpt>
      <trkpt lat="45.78447" lon="6.53095">
        <ele>1534.7</ele>
        <time>2025-08-15T14:46:11Z</time>
      </trkpt>
      <trkpt lat="45.78446" lon="6.53094">
        <ele>1534.8</ele>
        <time>2025-08-15T14:46:12Z</time>
      </trkpt>
      <trkpt lat="45.78444" lon="6.5309">
        <ele>1535.1</ele>
        <time>2025-08-15T14:46:13Z</time>
      </trkpt>
      <trkpt lat="45.78443" lon="6.53087">
        <ele>1535.3</ele>
        <time>2025-08-15T14:46:14Z</time>
      </trkpt>
      <trkpt lat="45.7844" lon="6.53083">
        <ele>1535.6</ele>
        <time>2025-08-15T14:46:15Z</time>
      </trkpt>
      <trkpt lat="45.78439" lon="6.53082">
        <ele>1535.7</ele>
        <time>2025-08-15T14:46:16Z</time>
      </trkpt>
      <trkpt lat="45.78437" lon="6.53079">
        <ele>1536</ele>
        <time>2025-08-15T14:46:17Z</time>
      </trkpt>
      <trkpt lat="45.78435" lon="6.53076">
        <ele>1536.2</ele>
        <time>2025-08-15T14:46:18Z</time>
      </trkpt>
      <trkpt lat="45.78434" lon="6.53072">
        <ele>1536.5</ele>
        <time>2025-08-15T14:46:19Z</time>
      </trkpt>
      <trkpt lat="45.7843" lon="6.53066">
        <ele>1536.9</ele>
        <time>2025-08-15T14:46:21Z</time>
      </trkpt>
      <trkpt lat="45.78425" lon="6.5306">
        <ele>1537.3</ele>
        <time>2025-08-15T14:46:23Z</time>
      </trkpt>
      <trkpt lat="45.78423" lon="6.53057">
        <ele>1537.5</ele>
        <time>2025-08-15T14:46:24Z</time>
      </trkpt>
      <trkpt lat="45.7842" lon="6.53053">
        <ele>1537.8</ele>
        <time>2025-08-15T14:46:25Z</time>
      </trkpt>
      <trkpt lat="45.78419" lon="6.53052">
        <ele>1537.9</ele>
        <time>2025-08-15T14:46:26Z</time>
      </trkpt>
      <trkpt lat="45.78417" lon="6.53049">
        <ele>1538</ele>
        <time>2025-08-15T14:46:27Z</time>
      </trkpt>
      <trkpt lat="45.78416" lon="6.53045">
        <ele>1538.2</ele>
        <time>2025-08-15T14:46:28Z</time>
      </trkpt>
      <trkpt lat="45.78414" lon="6.53042">
        <ele>1538.4</ele>
        <time>2025-08-15T14:46:29Z</time>
      </trkpt>
      <trkpt lat="45.78411" lon="6.53039">
        <ele>1538.5</ele>
        <time>2025-08-15T14:46:30Z</time>
      </trkpt>
      <trkpt lat="45.78409" lon="6.53037">
        <ele>1538.6</ele>
        <time>2025-08-15T14:46:31Z</time>
      </trkpt>
      <trkpt lat="45.78407" lon="6.53034">
        <ele>1538.6</ele>
        <time>2025-08-15T14:46:32Z</time>
      </trkpt>
      <trkpt lat="45.78405" lon="6.53031">
        <ele>1538.6</ele>
        <time>2025-08-15T14:46:33Z</time>
      </trkpt>
      <trkpt lat="45.78403" lon="6.53028">
        <ele>1538.6</ele>
        <time>2025-08-15T14:46:34Z</time>
      </trkpt>
      <trkpt lat="45.78401" lon="6.53026">
        <ele>1538.7</ele>
        <time>2025-08-15T14:46:35Z</time>
      </trkpt>
      <trkpt lat="45.78398" lon="6.53023">
        <ele>1538.8</ele>
        <time>2025-08-15T14:46:36Z</time>
      </trkpt>
      <trkpt lat="45.78396" lon="6.5302">
        <ele>1538.9</ele>
        <time>2025-08-15T14:46:37Z</time>
      </trkpt>
      <trkpt lat="45.78394" lon="6.53017">
        <ele>1539</ele>
        <time>2025-08-15T14:46:38Z</time>
      </trkpt>
      <trkpt lat="45.78392" lon="6.53013">
        <ele>1539.1</ele>
        <time>2025-08-15T14:46:39Z</time>
      </trkpt>
      <trkpt lat="45.7839" lon="6.5301">
        <ele>1539.3</ele>
        <time>2025-08-15T14:46:40Z</time>
      </trkpt>
      <trkpt lat="45.78387" lon="6.53006">
        <ele>1539.4</ele>
        <time>2025-08-15T14:46:41Z</time>
      </trkpt>
      <trkpt lat="45.78386" lon="6.53003">
        <ele>1539.5</ele>
        <time>2025-08-15T14:46:42Z</time>
      </trkpt>
      <trkpt lat="45.78383" lon="6.53">
        <ele>1539.6</ele>
        <time>2025-08-15T14:46:43Z</time>
      </trkpt>
      <trkpt lat="45.78381" lon="6.52997">
        <ele>1539.7</ele>
        <time>2025-08-15T14:46:44Z</time>
      </trkpt>
      <trkpt lat="45.78379" lon="6.52994">
        <ele>1539.7</ele>
        <time>2025-08-15T14:46:45Z</time>
      </trkpt>
      <trkpt lat="45.78377" lon="6.5299">
        <ele>1539.8</ele>
        <time>2025-08-15T14:46:46Z</time>
      </trkpt>
      <trkpt lat="45.78375" lon="6.52987">
        <ele>1539.9</ele>
        <time>2025-08-15T14:46:47Z</time>
      </trkpt>
      <trkpt lat="45.78373" lon="6.52984">
        <ele>1540</ele>
        <time>2025-08-15T14:46:48Z</time>
      </trkpt>
      <trkpt lat="45.78371" lon="6.5298">
        <ele>1540.1</ele>
        <time>2025-08-15T14:46:49Z</time>
      </trkpt>
      <trkpt lat="45.78369" lon="6.52976">
        <ele>1540.2</ele>
        <time>2025-08-15T14:46:50Z</time>
      </trkpt>
      <trkpt lat="45.78367" lon="6.52973">
        <ele>1540.3</ele>
        <time>2025-08-15T14:46:51Z</time>
      </trkpt>
      <trkpt lat="45.78365" lon="6.5297">
        <ele>1540.4</ele>
        <time>2025-08-15T14:46:52Z</time>
      </trkpt>
      <trkpt lat="45.78364" lon="6.52967">
        <ele>1540.4</ele>
        <time>2025-08-15T14:46:53Z</time>
      </trkpt>
      <trkpt lat="45.78361" lon="6.52964">
        <ele>1540.5</ele>
        <time>2025-08-15T14:46:54Z</time>
      </trkpt>
      <trkpt lat="45.78359" lon="6.52961">
        <ele>1540.6</ele>
        <time>2025-08-15T14:46:55Z</time>
      </trkpt>
      <trkpt lat="45.78357" lon="6.52958">
        <ele>1540.7</ele>
        <time>2025-08-15T14:46:56Z</time>
      </trkpt>
      <trkpt lat="45.78355" lon="6.52954">
        <ele>1540.7</ele>
        <time>2025-08-15T14:46:57Z</time>
      </trkpt>
      <trkpt lat="45.78353" lon="6.52951">
        <ele>1540.8</ele>
        <time>2025-08-15T14:46:58Z</time>
      </trkpt>
      <trkpt lat="45.78351" lon="6.52948">
        <ele>1540.9</ele>
        <time>2025-08-15T14:46:59Z</time>
      </trkpt>
      <trkpt lat="45.78348" lon="6.52945">
        <ele>1541</ele>
        <time>2025-08-15T14:47:00Z</time>
      </trkpt>
      <trkpt lat="45.78346" lon="6.52943">
        <ele>1541</ele>
        <time>2025-08-15T14:47:01Z</time>
      </trkpt>
      <trkpt lat="45.78344" lon="6.5294">
        <ele>1541.1</ele>
        <time>2025-08-15T14:47:02Z</time>
      </trkpt>
      <trkpt lat="45.78341" lon="6.52938">
        <ele>1541.2</ele>
        <time>2025-08-15T14:47:03Z</time>
      </trkpt>
      <trkpt lat="45.78339" lon="6.52935">
        <ele>1541.3</ele>
        <time>2025-08-15T14:47:04Z</time>
      </trkpt>
      <trkpt lat="45.78336" lon="6.52932">
        <ele>1541.3</ele>
        <time>2025-08-15T14:47:05Z</time>
      </trkpt>
      <trkpt lat="45.78334" lon="6.52931">
        <ele>1541.4</ele>
        <time>2025-08-15T14:47:06Z</time>
      </trkpt>
      <trkpt lat="45.78331" lon="6.52929">
        <ele>1541.4</ele>
        <time>2025-08-15T14:47:07Z</time>
      </trkpt>
      <trkpt lat="45.78328" lon="6.52927">
        <ele>1541.5</ele>
        <time>2025-08-15T14:47:08Z</time>
      </trkpt>
      <trkpt lat="45.78325" lon="6.52925">
        <ele>1541.5</ele>
        <time>2025-08-15T14:47:09Z</time>
      </trkpt>
      <trkpt lat="45.78323" lon="6.52922">
        <ele>1541.6</ele>
        <time>2025-08-15T14:47:10Z</time>
      </trkpt>
      <trkpt lat="45.7832" lon="6.5292">
        <ele>1541.6</ele>
        <time>2025-08-15T14:47:11Z</time>
      </trkpt>
      <trkpt lat="45.78317" lon="6.52917">
        <ele>1541.7</ele>
        <time>2025-08-15T14:47:12Z</time>
      </trkpt>
      <trkpt lat="45.78315" lon="6.52916">
        <ele>1541.7</ele>
        <time>2025-08-15T14:47:13Z</time>
      </trkpt>
      <trkpt lat="45.78312" lon="6.52913">
        <ele>1541.8</ele>
        <time>2025-08-15T14:47:14Z</time>
      </trkpt>
      <trkpt lat="45.7831" lon="6.52911">
        <ele>1541.8</ele>
        <time>2025-08-15T14:47:15Z</time>
      </trkpt>
      <trkpt lat="45.78308" lon="6.52908">
        <ele>1541.9</ele>
        <time>2025-08-15T14:47:16Z</time>
      </trkpt>
      <trkpt lat="45.78305" lon="6.52905">
        <ele>1541.9</ele>
        <time>2025-08-15T14:47:17Z</time>
      </trkpt>
      <trkpt lat="45.78303" lon="6.52902">
        <ele>1542</ele>
        <time>2025-08-15T14:47:18Z</time>
      </trkpt>
      <trkpt lat="45.783" lon="6.529">
        <ele>1542</ele>
        <time>2025-08-15T14:47:19Z</time>
      </trkpt>
      <trkpt lat="45.78298" lon="6.52897">
        <ele>1542.1</ele>
        <time>2025-08-15T14:47:20Z</time>
      </trkpt>
      <trkpt lat="45.78295" lon="6.52894">
        <ele>1542.1</ele>
        <time>2025-08-15T14:47:21Z</time>
      </trkpt>
      <trkpt lat="45.78293" lon="6.52892">
        <ele>1542.2</ele>
        <time>2025-08-15T14:47:22Z</time>
      </trkpt>
      <trkpt lat="45.7829" lon="6.52889">
        <ele>1542.2</ele>
        <time>2025-08-15T14:47:23Z</time>
      </trkpt>
      <trkpt lat="45.78288" lon="6.52887">
        <ele>1542.3</ele>
        <time>2025-08-15T14:47:24Z</time>
      </trkpt>
      <trkpt lat="45.78285" lon="6.52884">
        <ele>1542.3</ele>
        <time>2025-08-15T14:47:25Z</time>
      </trkpt>
      <trkpt lat="45.78282" lon="6.52881">
        <ele>1542.3</ele>
        <time>2025-08-15T14:47:26Z</time>
      </trkpt>
      <trkpt lat="45.7828" lon="6.52879">
        <ele>1542.4</ele>
        <time>2025-08-15T14:47:27Z</time>
      </trkpt>
      <trkpt lat="45.78277" lon="6.52876">
        <ele>1542.4</ele>
        <time>2025-08-15T14:47:28Z</time>
      </trkpt>
      <trkpt lat="45.78275" lon="6.52873">
        <ele>1542.4</ele>
        <time>2025-08-15T14:47:29Z</time>
      </trkpt>
      <trkpt lat="45.78272" lon="6.52871">
        <ele>1542.5</ele>
        <time>2025-08-15T14:47:30Z</time>
      </trkpt>
      <trkpt lat="45.7827" lon="6.52868">
        <ele>1542.5</ele>
        <time>2025-08-15T14:47:31Z</time>
      </trkpt>
      <trkpt lat="45.78267" lon="6.52865">
        <ele>1542.5</ele>
        <time>2025-08-15T14:47:32Z</time>
      </trkpt>
      <trkpt lat="45.78265" lon="6.52862">
        <ele>1542.5</ele>
        <time>2025-08-15T14:47:33Z</time>
      </trkpt>
      <trkpt lat="45.78262" lon="6.52858">
        <ele>1542.5</ele>
        <time>2025-08-15T14:47:34Z</time>
      </trkpt>
      <trkpt lat="45.7826" lon="6.52855">
        <ele>1542.6</ele>
        <time>2025-08-15T14:47:35Z</time>
      </trkpt>
      <trkpt lat="45.78257" lon="6.52851">
        <ele>1542.6</ele>
        <time>2025-08-15T14:47:36Z</time>
      </trkpt>
      <trkpt lat="45.78255" lon="6.52848">
        <ele>1542.6</ele>
        <time>2025-08-15T14:47:37Z</time>
      </trkpt>
      <trkpt lat="45.78252" lon="6.52844">
        <ele>1542.6</ele>
        <time>2025-08-15T14:47:38Z</time>
      </trkpt>
      <trkpt lat="45.7825" lon="6.52841">
        <ele>1542.7</ele>
        <time>2025-08-15T14:47:39Z</time>
      </trkpt>
      <trkpt lat="45.78247" lon="6.52837">
        <ele>1542.7</ele>
        <time>2025-08-15T14:47:40Z</time>
      </trkpt>
      <trkpt lat="45.78244" lon="6.52834">
        <ele>1542.7</ele>
        <time>2025-08-15T14:47:41Z</time>
      </trkpt>
      <trkpt lat="45.78242" lon="6.52831">
        <ele>1542.8</ele>
        <time>2025-08-15T14:47:42Z</time>
      </trkpt>
      <trkpt lat="45.7824" lon="6.52827">
        <ele>1542.8</ele>
        <time>2025-08-15T14:47:43Z</time>
      </trkpt>
      <trkpt lat="45.78237" lon="6.52824">
        <ele>1542.8</ele>
        <time>2025-08-15T14:47:44Z</time>
      </trkpt>
      <trkpt lat="45.78234" lon="6.52822">
        <ele>1542.9</ele>
        <time>2025-08-15T14:47:45Z</time>
      </trkpt>
      <trkpt lat="45.78232" lon="6.52818">
        <ele>1542.9</ele>
        <time>2025-08-15T14:47:46Z</time>
      </trkpt>
      <trkpt lat="45.7823" lon="6.52815">
        <ele>1543</ele>
        <time>2025-08-15T14:47:47Z</time>
      </trkpt>
      <trkpt lat="45.78227" lon="6.52812">
        <ele>1543</ele>
        <time>2025-08-15T14:47:48Z</time>
      </trkpt>
      <trkpt lat="45.78224" lon="6.52809">
        <ele>1543.1</ele>
        <time>2025-08-15T14:47:49Z</time>
      </trkpt>
      <trkpt lat="45.78222" lon="6.52805">
        <ele>1543.1</ele>
        <time>2025-08-15T14:47:50Z</time>
      </trkpt>
      <trkpt lat="45.7822" lon="6.52801">
        <ele>1543.2</ele>
        <time>2025-08-15T14:47:51Z</time>
      </trkpt>
      <trkpt lat="45.78217" lon="6.52798">
        <ele>1543.2</ele>
        <time>2025-08-15T14:47:52Z</time>
      </trkpt>
      <trkpt lat="45.78214" lon="6.52794">
        <ele>1543.3</ele>
        <time>2025-08-15T14:47:53Z</time>
      </trkpt>
      <trkpt lat="45.78211" lon="6.5279">
        <ele>1543.3</ele>
        <time>2025-08-15T14:47:54Z</time>
      </trkpt>
      <trkpt lat="45.78209" lon="6.52788">
        <ele>1543.4</ele>
        <time>2025-08-15T14:47:55Z</time>
      </trkpt>
      <trkpt lat="45.78204" lon="6.52784">
        <ele>1543.5</ele>
        <time>2025-08-15T14:47:56Z</time>
      </trkpt>
      <trkpt lat="45.782" lon="6.52779">
        <ele>1543.5</ele>
        <time>2025-08-15T14:47:57Z</time>
      </trkpt>
      <trkpt lat="45.78196" lon="6.52775">
        <ele>1543.6</ele>
        <time>2025-08-15T14:47:58Z</time>
      </trkpt>
      <trkpt lat="45.78193" lon="6.52772">
        <ele>1543.6</ele>
        <time>2025-08-15T14:47:59Z</time>
      </trkpt>
      <trkpt lat="45.78195" lon="6.52779">
        <ele>1543.7</ele>
        <time>2025-08-15T14:48:00Z</time>
      </trkpt>
      <trkpt lat="45.78194" lon="6.52773">
        <ele>1543.7</ele>
        <time>2025-08-15T14:48:01Z</time>
      </trkpt>
      <trkpt lat="45.78189" lon="6.52765">
        <ele>1543.8</ele>
        <time>2025-08-15T14:48:02Z</time>
      </trkpt>
      <trkpt lat="45.78187" lon="6.52761">
        <ele>1543.9</ele>
        <time>2025-08-15T14:48:03Z</time>
      </trkpt>
      <trkpt lat="45.78184" lon="6.52758">
        <ele>1543.9</ele>
        <time>2025-08-15T14:48:04Z</time>
      </trkpt>
      <trkpt lat="45.7818" lon="6.52756">
        <ele>1544.1</ele>
        <time>2025-08-15T14:48:05Z</time>
      </trkpt>
      <trkpt lat="45.78177" lon="6.52754">
        <ele>1544.3</ele>
        <time>2025-08-15T14:48:06Z</time>
      </trkpt>
      <trkpt lat="45.78174" lon="6.52753">
        <ele>1544.5</ele>
        <time>2025-08-15T14:48:07Z</time>
      </trkpt>
      <trkpt lat="45.78171" lon="6.52751">
        <ele>1544.7</ele>
        <time>2025-08-15T14:48:08Z</time>
      </trkpt>
      <trkpt lat="45.78168" lon="6.52751">
        <ele>1544.9</ele>
        <time>2025-08-15T14:48:09Z</time>
      </trkpt>
      <trkpt lat="45.78164" lon="6.52751">
        <ele>1545</ele>
        <time>2025-08-15T14:48:10Z</time>
      </trkpt>
      <trkpt lat="45.78161" lon="6.52751">
        <ele>1545.2</ele>
        <time>2025-08-15T14:48:11Z</time>
      </trkpt>
      <trkpt lat="45.78158" lon="6.52751">
        <ele>1545.4</ele>
        <time>2025-08-15T14:48:12Z</time>
      </trkpt>
      <trkpt lat="45.78155" lon="6.52751">
        <ele>1545.6</ele>
        <time>2025-08-15T14:48:13Z</time>
      </trkpt>
      <trkpt lat="45.78152" lon="6.52752">
        <ele>1545.8</ele>
        <time>2025-08-15T14:48:14Z</time>
      </trkpt>
      <trkpt lat="45.78149" lon="6.52752">
        <ele>1546</ele>
        <time>2025-08-15T14:48:15Z</time>
      </trkpt>
      <trkpt lat="45.78146" lon="6.52752">
        <ele>1546.2</ele>
        <time>2025-08-15T14:48:17Z</time>
      </trkpt>
      <trkpt lat="45.78143" lon="6.52752">
        <ele>1546.4</ele>
        <time>2025-08-15T14:48:18Z</time>
      </trkpt>
      <trkpt lat="45.7814" lon="6.52751">
        <ele>1546.6</ele>
        <time>2025-08-15T14:48:19Z</time>
      </trkpt>
      <trkpt lat="45.78137" lon="6.5275">
        <ele>1546.8</ele>
        <time>2025-08-15T14:48:20Z</time>
      </trkpt>
      <trkpt lat="45.78134" lon="6.5275">
        <ele>1547</ele>
        <time>2025-08-15T14:48:21Z</time>
      </trkpt>
      <trkpt lat="45.78131" lon="6.52748">
        <ele>1547.2</ele>
        <time>2025-08-15T14:48:22Z</time>
      </trkpt>
      <trkpt lat="45.78128" lon="6.52747">
        <ele>1547.4</ele>
        <time>2025-08-15T14:48:23Z</time>
      </trkpt>
      <trkpt lat="45.78125" lon="6.52746">
        <ele>1547.6</ele>
        <time>2025-08-15T14:48:24Z</time>
      </trkpt>
      <trkpt lat="45.78122" lon="6.52745">
        <ele>1547.8</ele>
        <time>2025-08-15T14:48:25Z</time>
      </trkpt>
      <trkpt lat="45.78119" lon="6.52743">
        <ele>1548</ele>
        <time>2025-08-15T14:48:26Z</time>
      </trkpt>
      <trkpt lat="45.78116" lon="6.52741">
        <ele>1548.2</ele>
        <time>2025-08-15T14:48:27Z</time>
      </trkpt>
      <trkpt lat="45.78113" lon="6.52739">
        <ele>1548.4</ele>
        <time>2025-08-15T14:48:28Z</time>
      </trkpt>
      <trkpt lat="45.7811" lon="6.52737">
        <ele>1548.5</ele>
        <time>2025-08-15T14:48:29Z</time>
      </trkpt>
      <trkpt lat="45.78108" lon="6.52735">
        <ele>1548.7</ele>
        <time>2025-08-15T14:48:30Z</time>
      </trkpt>
      <trkpt lat="45.78105" lon="6.52734">
        <ele>1548.8</ele>
        <time>2025-08-15T14:48:31Z</time>
      </trkpt>
      <trkpt lat="45.78102" lon="6.52731">
        <ele>1549</ele>
        <time>2025-08-15T14:48:32Z</time>
      </trkpt>
      <trkpt lat="45.781" lon="6.52728">
        <ele>1549.2</ele>
        <time>2025-08-15T14:48:33Z</time>
      </trkpt>
      <trkpt lat="45.78097" lon="6.52725">
        <ele>1549.3</ele>
        <time>2025-08-15T14:48:34Z</time>
      </trkpt>
      <trkpt lat="45.78095" lon="6.52722">
        <ele>1549.4</ele>
        <time>2025-08-15T14:48:35Z</time>
      </trkpt>
      <trkpt lat="45.78093" lon="6.5272">
        <ele>1549.5</ele>
        <time>2025-08-15T14:48:36Z</time>
      </trkpt>
      <trkpt lat="45.7809" lon="6.52717">
        <ele>1549.7</ele>
        <time>2025-08-15T14:48:37Z</time>
      </trkpt>
      <trkpt lat="45.78088" lon="6.52714">
        <ele>1549.8</ele>
        <time>2025-08-15T14:48:38Z</time>
      </trkpt>
      <trkpt lat="45.78084" lon="6.52707">
        <ele>1549.9</ele>
        <time>2025-08-15T14:48:39Z</time>
      </trkpt>
      <trkpt lat="45.78082" lon="6.52704">
        <ele>1550</ele>
        <time>2025-08-15T14:48:40Z</time>
      </trkpt>
      <trkpt lat="45.78079" lon="6.527">
        <ele>1550.1</ele>
        <time>2025-08-15T14:48:41Z</time>
      </trkpt>
      <trkpt lat="45.78078" lon="6.52699">
        <ele>1550.1</ele>
        <time>2025-08-15T14:48:42Z</time>
      </trkpt>
      <trkpt lat="45.78076" lon="6.52696">
        <ele>1550.2</ele>
        <time>2025-08-15T14:48:43Z</time>
      </trkpt>
      <trkpt lat="45.78073" lon="6.52693">
        <ele>1550.3</ele>
        <time>2025-08-15T14:48:44Z</time>
      </trkpt>
      <trkpt lat="45.78071" lon="6.52691">
        <ele>1550.3</ele>
        <time>2025-08-15T14:48:45Z</time>
      </trkpt>
      <trkpt lat="45.78068" lon="6.52688">
        <ele>1550.3</ele>
        <time>2025-08-15T14:48:46Z</time>
      </trkpt>
      <trkpt lat="45.78065" lon="6.52685">
        <ele>1550.4</ele>
        <time>2025-08-15T14:48:47Z</time>
      </trkpt>
      <trkpt lat="45.78062" lon="6.52683">
        <ele>1550.4</ele>
        <time>2025-08-15T14:48:48Z</time>
      </trkpt>
      <trkpt lat="45.78059" lon="6.5268">
        <ele>1550.5</ele>
        <time>2025-08-15T14:48:49Z</time>
      </trkpt>
      <trkpt lat="45.78055" lon="6.52677">
        <ele>1550.6</ele>
        <time>2025-08-15T14:48:50Z</time>
      </trkpt>
      <trkpt lat="45.78052" lon="6.52675">
        <ele>1550.6</ele>
        <time>2025-08-15T14:48:51Z</time>
      </trkpt>
      <trkpt lat="45.78049" lon="6.52673">
        <ele>1550.6</ele>
        <time>2025-08-15T14:48:52Z</time>
      </trkpt>
      <trkpt lat="45.78046" lon="6.52672">
        <ele>1550.6</ele>
        <time>2025-08-15T14:48:53Z</time>
      </trkpt>
      <trkpt lat="45.78043" lon="6.5267">
        <ele>1550.6</ele>
        <time>2025-08-15T14:48:54Z</time>
      </trkpt>
      <trkpt lat="45.78039" lon="6.5267">
        <ele>1550.6</ele>
        <time>2025-08-15T14:48:55Z</time>
      </trkpt>
      <trkpt lat="45.78036" lon="6.52668">
        <ele>1550.6</ele>
        <time>2025-08-15T14:48:56Z</time>
      </trkpt>
      <trkpt lat="45.78033" lon="6.52668">
        <ele>1550.6</ele>
        <time>2025-08-15T14:48:57Z</time>
      </trkpt>
      <trkpt lat="45.7803" lon="6.52667">
        <ele>1550.7</ele>
        <time>2025-08-15T14:48:58Z</time>
      </trkpt>
      <trkpt lat="45.78027" lon="6.52667">
        <ele>1550.7</ele>
        <time>2025-08-15T14:48:59Z</time>
      </trkpt>
      <trkpt lat="45.78024" lon="6.52666">
        <ele>1550.7</ele>
        <time>2025-08-15T14:49:00Z</time>
      </trkpt>
      <trkpt lat="45.78022" lon="6.52666">
        <ele>1550.7</ele>
        <time>2025-08-15T14:49:01Z</time>
      </trkpt>
      <trkpt lat="45.78018" lon="6.52666">
        <ele>1550.7</ele>
        <time>2025-08-15T14:49:02Z</time>
      </trkpt>
      <trkpt lat="45.78016" lon="6.52666">
        <ele>1550.7</ele>
        <time>2025-08-15T14:49:03Z</time>
      </trkpt>
      <trkpt lat="45.78013" lon="6.52666">
        <ele>1550.7</ele>
        <time>2025-08-15T14:49:04Z</time>
      </trkpt>
      <trkpt lat="45.7801" lon="6.52667">
        <ele>1550.7</ele>
        <time>2025-08-15T14:49:05Z</time>
      </trkpt>
      <trkpt lat="45.78007" lon="6.52666">
        <ele>1550.7</ele>
        <time>2025-08-15T14:49:06Z</time>
      </trkpt>
      <trkpt lat="45.78003" lon="6.52666">
        <ele>1550.7</ele>
        <time>2025-08-15T14:49:07Z</time>
      </trkpt>
      <trkpt lat="45.78" lon="6.52666">
        <ele>1550.7</ele>
        <time>2025-08-15T14:49:08Z</time>
      </trkpt>
      <trkpt lat="45.77996" lon="6.52667">
        <ele>1550.7</ele>
        <time>2025-08-15T14:49:09Z</time>
      </trkpt>
      <trkpt lat="45.77993" lon="6.52668">
        <ele>1550.7</ele>
        <time>2025-08-15T14:49:10Z</time>
      </trkpt>
      <trkpt lat="45.77989" lon="6.52668">
        <ele>1550.7</ele>
        <time>2025-08-15T14:49:11Z</time>
      </trkpt>
      <trkpt lat="45.77985" lon="6.52669">
        <ele>1550.7</ele>
        <time>2025-08-15T14:49:12Z</time>
      </trkpt>
      <trkpt lat="45.77982" lon="6.5267">
        <ele>1550.7</ele>
        <time>2025-08-15T14:49:13Z</time>
      </trkpt>
      <trkpt lat="45.77977" lon="6.5267">
        <ele>1550.8</ele>
        <time>2025-08-15T14:49:14Z</time>
      </trkpt>
      <trkpt lat="45.77974" lon="6.5267">
        <ele>1550.8</ele>
        <time>2025-08-15T14:49:15Z</time>
      </trkpt>
      <trkpt lat="45.7797" lon="6.52671">
        <ele>1550.8</ele>
        <time>2025-08-15T14:49:16Z</time>
      </trkpt>
      <trkpt lat="45.77967" lon="6.52673">
        <ele>1550.8</ele>
        <time>2025-08-15T14:49:17Z</time>
      </trkpt>
      <trkpt lat="45.77963" lon="6.52674">
        <ele>1550.8</ele>
        <time>2025-08-15T14:49:18Z</time>
      </trkpt>
      <trkpt lat="45.7796" lon="6.52674">
        <ele>1550.8</ele>
        <time>2025-08-15T14:49:19Z</time>
      </trkpt>
      <trkpt lat="45.77956" lon="6.52675">
        <ele>1550.8</ele>
        <time>2025-08-15T14:49:20Z</time>
      </trkpt>
      <trkpt lat="45.77952" lon="6.52677">
        <ele>1550.9</ele>
        <time>2025-08-15T14:49:21Z</time>
      </trkpt>
      <trkpt lat="45.77948" lon="6.52678">
        <ele>1550.9</ele>
        <time>2025-08-15T14:49:22Z</time>
      </trkpt>
      <trkpt lat="45.77945" lon="6.52679">
        <ele>1550.9</ele>
        <time>2025-08-15T14:49:23Z</time>
      </trkpt>
      <trkpt lat="45.77941" lon="6.52679">
        <ele>1550.9</ele>
        <time>2025-08-15T14:49:24Z</time>
      </trkpt>
      <trkpt lat="45.77937" lon="6.5268">
        <ele>1550.9</ele>
        <time>2025-08-15T14:49:25Z</time>
      </trkpt>
      <trkpt lat="45.77933" lon="6.52681">
        <ele>1550.9</ele>
        <time>2025-08-15T14:49:26Z</time>
      </trkpt>
      <trkpt lat="45.77929" lon="6.52682">
        <ele>1550.9</ele>
        <time>2025-08-15T14:49:27Z</time>
      </trkpt>
      <trkpt lat="45.77925" lon="6.52681">
        <ele>1550.9</ele>
        <time>2025-08-15T14:49:28Z</time>
      </trkpt>
      <trkpt lat="45.77921" lon="6.52681">
        <ele>1550.9</ele>
        <time>2025-08-15T14:49:29Z</time>
      </trkpt>
      <trkpt lat="45.77917" lon="6.52682">
        <ele>1550.9</ele>
        <time>2025-08-15T14:49:30Z</time>
      </trkpt>
      <trkpt lat="45.77913" lon="6.52682">
        <ele>1550.9</ele>
        <time>2025-08-15T14:49:31Z</time>
      </trkpt>
      <trkpt lat="45.77909" lon="6.52681">
        <ele>1550.9</ele>
        <time>2025-08-15T14:49:32Z</time>
      </trkpt>
      <trkpt lat="45.77905" lon="6.5268">
        <ele>1550.8</ele>
        <time>2025-08-15T14:49:33Z</time>
      </trkpt>
      <trkpt lat="45.77901" lon="6.52681">
        <ele>1550.8</ele>
        <time>2025-08-15T14:49:34Z</time>
      </trkpt>
      <trkpt lat="45.77897" lon="6.5268">
        <ele>1550.8</ele>
        <time>2025-08-15T14:49:35Z</time>
      </trkpt>
      <trkpt lat="45.77893" lon="6.5268">
        <ele>1550.7</ele>
        <time>2025-08-15T14:49:36Z</time>
      </trkpt>
      <trkpt lat="45.77889" lon="6.5268">
        <ele>1550.6</ele>
        <time>2025-08-15T14:49:37Z</time>
      </trkpt>
      <trkpt lat="45.77885" lon="6.52679">
        <ele>1550.6</ele>
        <time>2025-08-15T14:49:38Z</time>
      </trkpt>
      <trkpt lat="45.7788" lon="6.52678">
        <ele>1550.5</ele>
        <time>2025-08-15T14:49:39Z</time>
      </trkpt>
      <trkpt lat="45.77876" lon="6.52678">
        <ele>1550.3</ele>
        <time>2025-08-15T14:49:40Z</time>
      </trkpt>
      <trkpt lat="45.77873" lon="6.52677">
        <ele>1550.2</ele>
        <time>2025-08-15T14:49:41Z</time>
      </trkpt>
      <trkpt lat="45.77868" lon="6.52675">
        <ele>1550.1</ele>
        <time>2025-08-15T14:49:42Z</time>
      </trkpt>
      <trkpt lat="45.77864" lon="6.52675">
        <ele>1549.9</ele>
        <time>2025-08-15T14:49:43Z</time>
      </trkpt>
      <trkpt lat="45.77859" lon="6.52674">
        <ele>1549.7</ele>
        <time>2025-08-15T14:49:44Z</time>
      </trkpt>
      <trkpt lat="45.77854" lon="6.52673">
        <ele>1549.5</ele>
        <time>2025-08-15T14:49:45Z</time>
      </trkpt>
      <trkpt lat="45.77849" lon="6.52672">
        <ele>1549.3</ele>
        <time>2025-08-15T14:49:46Z</time>
      </trkpt>
      <trkpt lat="45.77844" lon="6.52671">
        <ele>1549.1</ele>
        <time>2025-08-15T14:49:47Z</time>
      </trkpt>
      <trkpt lat="45.77839" lon="6.52671">
        <ele>1548.9</ele>
        <time>2025-08-15T14:49:48Z</time>
      </trkpt>
      <trkpt lat="45.77834" lon="6.5267">
        <ele>1548.7</ele>
        <time>2025-08-15T14:49:49Z</time>
      </trkpt>
      <trkpt lat="45.77829" lon="6.5267">
        <ele>1548.5</ele>
        <time>2025-08-15T14:49:50Z</time>
      </trkpt>
      <trkpt lat="45.77823" lon="6.52668">
        <ele>1548.2</ele>
        <time>2025-08-15T14:49:51Z</time>
      </trkpt>
      <trkpt lat="45.77817" lon="6.52667">
        <ele>1548.1</ele>
        <time>2025-08-15T14:49:52Z</time>
      </trkpt>
      <trkpt lat="45.77812" lon="6.52666">
        <ele>1548</ele>
        <time>2025-08-15T14:49:53Z</time>
      </trkpt>
      <trkpt lat="45.77807" lon="6.52665">
        <ele>1547.9</ele>
        <time>2025-08-15T14:49:54Z</time>
      </trkpt>
      <trkpt lat="45.77802" lon="6.52664">
        <ele>1547.8</ele>
        <time>2025-08-15T14:49:55Z</time>
      </trkpt>
      <trkpt lat="45.77796" lon="6.52663">
        <ele>1547.8</ele>
        <time>2025-08-15T14:49:56Z</time>
      </trkpt>
      <trkpt lat="45.77792" lon="6.52662">
        <ele>1547.8</ele>
        <time>2025-08-15T14:49:57Z</time>
      </trkpt>
      <trkpt lat="45.77787" lon="6.52661">
        <ele>1547.7</ele>
        <time>2025-08-15T14:49:58Z</time>
      </trkpt>
      <trkpt lat="45.77782" lon="6.52661">
        <ele>1547.7</ele>
        <time>2025-08-15T14:49:59Z</time>
      </trkpt>
      <trkpt lat="45.77777" lon="6.52661">
        <ele>1547.7</ele>
        <time>2025-08-15T14:50:00Z</time>
      </trkpt>
      <trkpt lat="45.77772" lon="6.52661">
        <ele>1547.6</ele>
        <time>2025-08-15T14:50:01Z</time>
      </trkpt>
      <trkpt lat="45.77767" lon="6.52662">
        <ele>1547.5</ele>
        <time>2025-08-15T14:50:02Z</time>
      </trkpt>
      <trkpt lat="45.77763" lon="6.52663">
        <ele>1547.4</ele>
        <time>2025-08-15T14:50:03Z</time>
      </trkpt>
      <trkpt lat="45.77761" lon="6.52667">
        <ele>1547.3</ele>
        <time>2025-08-15T14:50:04Z</time>
      </trkpt>
      <trkpt lat="45.77759" lon="6.52668">
        <ele>1547.2</ele>
        <time>2025-08-15T14:50:05Z</time>
      </trkpt>
      <trkpt lat="45.7775" lon="6.52667">
        <ele>1546.9</ele>
        <time>2025-08-15T14:50:06Z</time>
      </trkpt>
      <trkpt lat="45.77745" lon="6.52668">
        <ele>1546.6</ele>
        <time>2025-08-15T14:50:07Z</time>
      </trkpt>
      <trkpt lat="45.77738" lon="6.52669">
        <ele>1546.2</ele>
        <time>2025-08-15T14:50:08Z</time>
      </trkpt>
      <trkpt lat="45.77732" lon="6.52668">
        <ele>1546</ele>
        <time>2025-08-15T14:50:09Z</time>
      </trkpt>
      <trkpt lat="45.77726" lon="6.5267">
        <ele>1545.7</ele>
        <time>2025-08-15T14:50:10Z</time>
      </trkpt>
      <trkpt lat="45.77719" lon="6.52669">
        <ele>1545.4</ele>
        <time>2025-08-15T14:50:11Z</time>
      </trkpt>
      <trkpt lat="45.77713" lon="6.52668">
        <ele>1545.1</ele>
        <time>2025-08-15T14:50:12Z</time>
      </trkpt>
      <trkpt lat="45.77706" lon="6.52668">
        <ele>1544.9</ele>
        <time>2025-08-15T14:50:13Z</time>
      </trkpt>
      <trkpt lat="45.777" lon="6.52667">
        <ele>1544.8</ele>
        <time>2025-08-15T14:50:14Z</time>
      </trkpt>
      <trkpt lat="45.77694" lon="6.52666">
        <ele>1544.7</ele>
        <time>2025-08-15T14:50:15Z</time>
      </trkpt>
      <trkpt lat="45.77688" lon="6.52664">
        <ele>1544.6</ele>
        <time>2025-08-15T14:50:16Z</time>
      </trkpt>
      <trkpt lat="45.77683" lon="6.52663">
        <ele>1544.6</ele>
        <time>2025-08-15T14:50:17Z</time>
      </trkpt>
      <trkpt lat="45.77677" lon="6.52662">
        <ele>1544.6</ele>
        <time>2025-08-15T14:50:18Z</time>
      </trkpt>
      <trkpt lat="45.77672" lon="6.52661">
        <ele>1544.6</ele>
        <time>2025-08-15T14:50:19Z</time>
      </trkpt>
      <trkpt lat="45.77666" lon="6.52661">
        <ele>1544.6</ele>
        <time>2025-08-15T14:50:20Z</time>
      </trkpt>
      <trkpt lat="45.77661" lon="6.5266">
        <ele>1544.6</ele>
        <time>2025-08-15T14:50:21Z</time>
      </trkpt>
      <trkpt lat="45.77655" lon="6.5266">
        <ele>1544.6</ele>
        <time>2025-08-15T14:50:23Z</time>
      </trkpt>
      <trkpt lat="45.77649" lon="6.52662">
        <ele>1544.6</ele>
        <time>2025-08-15T14:50:24Z</time>
      </trkpt>
      <trkpt lat="45.77643" lon="6.52664">
        <ele>1544.7</ele>
        <time>2025-08-15T14:50:25Z</time>
      </trkpt>
      <trkpt lat="45.77637" lon="6.52665">
        <ele>1544.7</ele>
        <time>2025-08-15T14:50:26Z</time>
      </trkpt>
      <trkpt lat="45.77632" lon="6.52667">
        <ele>1544.7</ele>
        <time>2025-08-15T14:50:27Z</time>
      </trkpt>
      <trkpt lat="45.77626" lon="6.52669">
        <ele>1544.7</ele>
        <time>2025-08-15T14:50:28Z</time>
      </trkpt>
      <trkpt lat="45.77621" lon="6.52672">
        <ele>1544.7</ele>
        <time>2025-08-15T14:50:29Z</time>
      </trkpt>
      <trkpt lat="45.77616" lon="6.52676">
        <ele>1544.6</ele>
        <time>2025-08-15T14:50:30Z</time>
      </trkpt>
      <trkpt lat="45.77611" lon="6.52679">
        <ele>1544.6</ele>
        <time>2025-08-15T14:50:31Z</time>
      </trkpt>
      <trkpt lat="45.77606" lon="6.52684">
        <ele>1544.6</ele>
        <time>2025-08-15T14:50:32Z</time>
      </trkpt>
      <trkpt lat="45.77602" lon="6.52688">
        <ele>1544.5</ele>
        <time>2025-08-15T14:50:33Z</time>
      </trkpt>
      <trkpt lat="45.77598" lon="6.52693">
        <ele>1544.5</ele>
        <time>2025-08-15T14:50:34Z</time>
      </trkpt>
      <trkpt lat="45.77594" lon="6.52698">
        <ele>1544.4</ele>
        <time>2025-08-15T14:50:35Z</time>
      </trkpt>
      <trkpt lat="45.7759" lon="6.52704">
        <ele>1544.2</ele>
        <time>2025-08-15T14:50:36Z</time>
      </trkpt>
      <trkpt lat="45.77585" lon="6.52709">
        <ele>1544.1</ele>
        <time>2025-08-15T14:50:37Z</time>
      </trkpt>
      <trkpt lat="45.77582" lon="6.52715">
        <ele>1544</ele>
        <time>2025-08-15T14:50:38Z</time>
      </trkpt>
      <trkpt lat="45.7758" lon="6.52719">
        <ele>1543.9</ele>
        <time>2025-08-15T14:50:39Z</time>
      </trkpt>
      <trkpt lat="45.77575" lon="6.52725">
        <ele>1543.8</ele>
        <time>2025-08-15T14:50:40Z</time>
      </trkpt>
      <trkpt lat="45.7757" lon="6.52729">
        <ele>1543.7</ele>
        <time>2025-08-15T14:50:41Z</time>
      </trkpt>
      <trkpt lat="45.77567" lon="6.52735">
        <ele>1543.6</ele>
        <time>2025-08-15T14:50:42Z</time>
      </trkpt>
      <trkpt lat="45.77563" lon="6.5274">
        <ele>1543.5</ele>
        <time>2025-08-15T14:50:43Z</time>
      </trkpt>
      <trkpt lat="45.77558" lon="6.52745">
        <ele>1543.5</ele>
        <time>2025-08-15T14:50:44Z</time>
      </trkpt>
      <trkpt lat="45.77549" lon="6.52754">
        <ele>1543.4</ele>
        <time>2025-08-15T14:50:45Z</time>
      </trkpt>
      <trkpt lat="45.77545" lon="6.52754">
        <ele>1543.3</ele>
        <time>2025-08-15T14:50:46Z</time>
      </trkpt>
      <trkpt lat="45.77539" lon="6.52756">
        <ele>1543.3</ele>
        <time>2025-08-15T14:50:47Z</time>
      </trkpt>
      <trkpt lat="45.77534" lon="6.52758">
        <ele>1543.2</ele>
        <time>2025-08-15T14:50:48Z</time>
      </trkpt>
      <trkpt lat="45.7753" lon="6.52758">
        <ele>1543.2</ele>
        <time>2025-08-15T14:50:49Z</time>
      </trkpt>
      <trkpt lat="45.77525" lon="6.52755">
        <ele>1543.1</ele>
        <time>2025-08-15T14:50:50Z</time>
      </trkpt>
      <trkpt lat="45.77519" lon="6.52753">
        <ele>1543.1</ele>
        <time>2025-08-15T14:50:51Z</time>
      </trkpt>
      <trkpt lat="45.77514" lon="6.52751">
        <ele>1543</ele>
        <time>2025-08-15T14:50:52Z</time>
      </trkpt>
      <trkpt lat="45.77509" lon="6.52749">
        <ele>1543</ele>
        <time>2025-08-15T14:50:53Z</time>
      </trkpt>
      <trkpt lat="45.77505" lon="6.52747">
        <ele>1543</ele>
        <time>2025-08-15T14:50:54Z</time>
      </trkpt>
      <trkpt lat="45.775" lon="6.52744">
        <ele>1542.9</ele>
        <time>2025-08-15T14:50:55Z</time>
      </trkpt>
      <trkpt lat="45.77496" lon="6.52742">
        <ele>1542.9</ele>
        <time>2025-08-15T14:50:56Z</time>
      </trkpt>
      <trkpt lat="45.77492" lon="6.5274">
        <ele>1542.9</ele>
        <time>2025-08-15T14:50:57Z</time>
      </trkpt>
      <trkpt lat="45.77488" lon="6.52738">
        <ele>1542.9</ele>
        <time>2025-08-15T14:50:58Z</time>
      </trkpt>
      <trkpt lat="45.77483" lon="6.52736">
        <ele>1542.9</ele>
        <time>2025-08-15T14:50:59Z</time>
      </trkpt>
      <trkpt lat="45.77479" lon="6.52733">
        <ele>1542.9</ele>
        <time>2025-08-15T14:51:00Z</time>
      </trkpt>
      <trkpt lat="45.77474" lon="6.52731">
        <ele>1542.9</ele>
        <time>2025-08-15T14:51:01Z</time>
      </trkpt>
      <trkpt lat="45.7747" lon="6.52729">
        <ele>1542.9</ele>
        <time>2025-08-15T14:51:02Z</time>
      </trkpt>
      <trkpt lat="45.77465" lon="6.52726">
        <ele>1542.9</ele>
        <time>2025-08-15T14:51:03Z</time>
      </trkpt>
      <trkpt lat="45.77461" lon="6.52724">
        <ele>1542.9</ele>
        <time>2025-08-15T14:51:04Z</time>
      </trkpt>
      <trkpt lat="45.77456" lon="6.52721">
        <ele>1542.9</ele>
        <time>2025-08-15T14:51:05Z</time>
      </trkpt>
      <trkpt lat="45.77452" lon="6.52718">
        <ele>1542.8</ele>
        <time>2025-08-15T14:51:06Z</time>
      </trkpt>
      <trkpt lat="45.77448" lon="6.52716">
        <ele>1542.8</ele>
        <time>2025-08-15T14:51:07Z</time>
      </trkpt>
      <trkpt lat="45.77443" lon="6.52713">
        <ele>1542.7</ele>
        <time>2025-08-15T14:51:08Z</time>
      </trkpt>
      <trkpt lat="45.77439" lon="6.52711">
        <ele>1542.6</ele>
        <time>2025-08-15T14:51:09Z</time>
      </trkpt>
      <trkpt lat="45.77434" lon="6.52709">
        <ele>1542.5</ele>
        <time>2025-08-15T14:51:10Z</time>
      </trkpt>
      <trkpt lat="45.77429" lon="6.52707">
        <ele>1542.4</ele>
        <time>2025-08-15T14:51:11Z</time>
      </trkpt>
      <trkpt lat="45.77424" lon="6.52706">
        <ele>1542.2</ele>
        <time>2025-08-15T14:51:12Z</time>
      </trkpt>
      <trkpt lat="45.77419" lon="6.52706">
        <ele>1542.1</ele>
        <time>2025-08-15T14:51:13Z</time>
      </trkpt>
      <trkpt lat="45.77414" lon="6.52708">
        <ele>1542</ele>
        <time>2025-08-15T14:51:14Z</time>
      </trkpt>
      <trkpt lat="45.77409" lon="6.52708">
        <ele>1541.8</ele>
        <time>2025-08-15T14:51:15Z</time>
      </trkpt>
      <trkpt lat="45.77404" lon="6.52709">
        <ele>1541.7</ele>
        <time>2025-08-15T14:51:16Z</time>
      </trkpt>
      <trkpt lat="45.77398" lon="6.52709">
        <ele>1541.5</ele>
        <time>2025-08-15T14:51:17Z</time>
      </trkpt>
      <trkpt lat="45.77393" lon="6.52709">
        <ele>1541.4</ele>
        <time>2025-08-15T14:51:18Z</time>
      </trkpt>
      <trkpt lat="45.77387" lon="6.5271">
        <ele>1541.2</ele>
        <time>2025-08-15T14:51:19Z</time>
      </trkpt>
      <trkpt lat="45.77381" lon="6.52709">
        <ele>1541</ele>
        <time>2025-08-15T14:51:20Z</time>
      </trkpt>
      <trkpt lat="45.77375" lon="6.52709">
        <ele>1540.9</ele>
        <time>2025-08-15T14:51:21Z</time>
      </trkpt>
      <trkpt lat="45.7737" lon="6.52708">
        <ele>1540.7</ele>
        <time>2025-08-15T14:51:22Z</time>
      </trkpt>
      <trkpt lat="45.77364" lon="6.52705">
        <ele>1540.5</ele>
        <time>2025-08-15T14:51:23Z</time>
      </trkpt>
      <trkpt lat="45.77358" lon="6.52702">
        <ele>1540.3</ele>
        <time>2025-08-15T14:51:24Z</time>
      </trkpt>
      <trkpt lat="45.77353" lon="6.52701">
        <ele>1540.1</ele>
        <time>2025-08-15T14:51:25Z</time>
      </trkpt>
      <trkpt lat="45.77347" lon="6.52699">
        <ele>1539.9</ele>
        <time>2025-08-15T14:51:26Z</time>
      </trkpt>
      <trkpt lat="45.77342" lon="6.52703">
        <ele>1539.7</ele>
        <time>2025-08-15T14:51:27Z</time>
      </trkpt>
      <trkpt lat="45.77337" lon="6.52699">
        <ele>1539.6</ele>
        <time>2025-08-15T14:51:28Z</time>
      </trkpt>
      <trkpt lat="45.77331" lon="6.52696">
        <ele>1539.4</ele>
        <time>2025-08-15T14:51:29Z</time>
      </trkpt>
      <trkpt lat="45.77326" lon="6.52694">
        <ele>1539.3</ele>
        <time>2025-08-15T14:51:30Z</time>
      </trkpt>
      <trkpt lat="45.77321" lon="6.52693">
        <ele>1539.2</ele>
        <time>2025-08-15T14:51:31Z</time>
      </trkpt>
      <trkpt lat="45.77315" lon="6.52693">
        <ele>1539.1</ele>
        <time>2025-08-15T14:51:32Z</time>
      </trkpt>
      <trkpt lat="45.7731" lon="6.52691">
        <ele>1539</ele>
        <time>2025-08-15T14:51:33Z</time>
      </trkpt>
      <trkpt lat="45.77305" lon="6.5269">
        <ele>1538.9</ele>
        <time>2025-08-15T14:51:34Z</time>
      </trkpt>
      <trkpt lat="45.773" lon="6.52689">
        <ele>1538.8</ele>
        <time>2025-08-15T14:51:35Z</time>
      </trkpt>
      <trkpt lat="45.77295" lon="6.52687">
        <ele>1538.7</ele>
        <time>2025-08-15T14:51:36Z</time>
      </trkpt>
      <trkpt lat="45.7729" lon="6.52685">
        <ele>1538.5</ele>
        <time>2025-08-15T14:51:37Z</time>
      </trkpt>
      <trkpt lat="45.77284" lon="6.52683">
        <ele>1538.4</ele>
        <time>2025-08-15T14:51:38Z</time>
      </trkpt>
      <trkpt lat="45.77279" lon="6.52682">
        <ele>1538.2</ele>
        <time>2025-08-15T14:51:39Z</time>
      </trkpt>
      <trkpt lat="45.77273" lon="6.52681">
        <ele>1538</ele>
        <time>2025-08-15T14:51:40Z</time>
      </trkpt>
      <trkpt lat="45.77267" lon="6.52681">
        <ele>1537.8</ele>
        <time>2025-08-15T14:51:41Z</time>
      </trkpt>
      <trkpt lat="45.77261" lon="6.52684">
        <ele>1537.6</ele>
        <time>2025-08-15T14:51:42Z</time>
      </trkpt>
      <trkpt lat="45.77256" lon="6.52691">
        <ele>1537.4</ele>
        <time>2025-08-15T14:51:43Z</time>
      </trkpt>
      <trkpt lat="45.77252" lon="6.52699">
        <ele>1537.3</ele>
        <time>2025-08-15T14:51:44Z</time>
      </trkpt>
      <trkpt lat="45.77248" lon="6.52705">
        <ele>1537.2</ele>
        <time>2025-08-15T14:51:45Z</time>
      </trkpt>
      <trkpt lat="45.77246" lon="6.52712">
        <ele>1537.1</ele>
        <time>2025-08-15T14:51:46Z</time>
      </trkpt>
      <trkpt lat="45.77241" lon="6.52717">
        <ele>1537</ele>
        <time>2025-08-15T14:51:47Z</time>
      </trkpt>
      <trkpt lat="45.77236" lon="6.52721">
        <ele>1536.9</ele>
        <time>2025-08-15T14:51:48Z</time>
      </trkpt>
      <trkpt lat="45.77231" lon="6.52723">
        <ele>1536.9</ele>
        <time>2025-08-15T14:51:49Z</time>
      </trkpt>
      <trkpt lat="45.77226" lon="6.52724">
        <ele>1536.8</ele>
        <time>2025-08-15T14:51:50Z</time>
      </trkpt>
      <trkpt lat="45.77221" lon="6.52725">
        <ele>1536.7</ele>
        <time>2025-08-15T14:51:51Z</time>
      </trkpt>
      <trkpt lat="45.77216" lon="6.52726">
        <ele>1536.6</ele>
        <time>2025-08-15T14:51:52Z</time>
      </trkpt>
      <trkpt lat="45.77211" lon="6.52726">
        <ele>1536.5</ele>
        <time>2025-08-15T14:51:53Z</time>
      </trkpt>
      <trkpt lat="45.77207" lon="6.52728">
        <ele>1536.4</ele>
        <time>2025-08-15T14:51:54Z</time>
      </trkpt>
      <trkpt lat="45.77202" lon="6.52729">
        <ele>1536.2</ele>
        <time>2025-08-15T14:51:55Z</time>
      </trkpt>
      <trkpt lat="45.77197" lon="6.52731">
        <ele>1536</ele>
        <time>2025-08-15T14:51:56Z</time>
      </trkpt>
      <trkpt lat="45.77193" lon="6.52734">
        <ele>1535.9</ele>
        <time>2025-08-15T14:51:57Z</time>
      </trkpt>
      <trkpt lat="45.77188" lon="6.52737">
        <ele>1535.8</ele>
        <time>2025-08-15T14:51:58Z</time>
      </trkpt>
      <trkpt lat="45.77183" lon="6.5274">
        <ele>1535.7</ele>
        <time>2025-08-15T14:51:59Z</time>
      </trkpt>
      <trkpt lat="45.77178" lon="6.52744">
        <ele>1535.7</ele>
        <time>2025-08-15T14:52:00Z</time>
      </trkpt>
      <trkpt lat="45.77173" lon="6.52748">
        <ele>1535.6</ele>
        <time>2025-08-15T14:52:01Z</time>
      </trkpt>
      <trkpt lat="45.77168" lon="6.52752">
        <ele>1535.6</ele>
        <time>2025-08-15T14:52:02Z</time>
      </trkpt>
      <trkpt lat="45.77163" lon="6.52756">
        <ele>1535.6</ele>
        <time>2025-08-15T14:52:03Z</time>
      </trkpt>
      <trkpt lat="45.77159" lon="6.5276">
        <ele>1535.6</ele>
        <time>2025-08-15T14:52:04Z</time>
      </trkpt>
      <trkpt lat="45.77154" lon="6.52763">
        <ele>1535.6</ele>
        <time>2025-08-15T14:52:05Z</time>
      </trkpt>
      <trkpt lat="45.77149" lon="6.52767">
        <ele>1535.5</ele>
        <time>2025-08-15T14:52:06Z</time>
      </trkpt>
      <trkpt lat="45.77144" lon="6.52771">
        <ele>1535.5</ele>
        <time>2025-08-15T14:52:07Z</time>
      </trkpt>
      <trkpt lat="45.77139" lon="6.52774">
        <ele>1535.5</ele>
        <time>2025-08-15T14:52:08Z</time>
      </trkpt>
      <trkpt lat="45.77135" lon="6.52777">
        <ele>1535.5</ele>
        <time>2025-08-15T14:52:09Z</time>
      </trkpt>
      <trkpt lat="45.77132" lon="6.52779">
        <ele>1535.5</ele>
        <time>2025-08-15T14:52:10Z</time>
      </trkpt>
      <trkpt lat="45.77129" lon="6.52782">
        <ele>1535.4</ele>
        <time>2025-08-15T14:52:11Z</time>
      </trkpt>
      <trkpt lat="45.77126" lon="6.52784">
        <ele>1535.4</ele>
        <time>2025-08-15T14:52:12Z</time>
      </trkpt>
      <trkpt lat="45.77123" lon="6.52785">
        <ele>1535.4</ele>
        <time>2025-08-15T14:52:13Z</time>
      </trkpt>
      <trkpt lat="45.7712" lon="6.52786">
        <ele>1535.4</ele>
        <time>2025-08-15T14:52:14Z</time>
      </trkpt>
      <trkpt lat="45.77117" lon="6.52787">
        <ele>1535.4</ele>
        <time>2025-08-15T14:52:15Z</time>
      </trkpt>
      <trkpt lat="45.77114" lon="6.52788">
        <ele>1535.4</ele>
        <time>2025-08-15T14:52:16Z</time>
      </trkpt>
      <trkpt lat="45.77111" lon="6.52789">
        <ele>1535.4</ele>
        <time>2025-08-15T14:52:17Z</time>
      </trkpt>
      <trkpt lat="45.77109" lon="6.52791">
        <ele>1535.3</ele>
        <time>2025-08-15T14:52:18Z</time>
      </trkpt>
      <trkpt lat="45.77106" lon="6.52793">
        <ele>1535.3</ele>
        <time>2025-08-15T14:52:19Z</time>
      </trkpt>
      <trkpt lat="45.77103" lon="6.52794">
        <ele>1535.3</ele>
        <time>2025-08-15T14:52:20Z</time>
      </trkpt>
      <trkpt lat="45.771" lon="6.52795">
        <ele>1535.3</ele>
        <time>2025-08-15T14:52:21Z</time>
      </trkpt>
      <trkpt lat="45.77097" lon="6.52797">
        <ele>1535.3</ele>
        <time>2025-08-15T14:52:22Z</time>
      </trkpt>
      <trkpt lat="45.77094" lon="6.52798">
        <ele>1535.3</ele>
        <time>2025-08-15T14:52:23Z</time>
      </trkpt>
      <trkpt lat="45.77091" lon="6.528">
        <ele>1535.3</ele>
        <time>2025-08-15T14:52:24Z</time>
      </trkpt>
      <trkpt lat="45.77088" lon="6.52802">
        <ele>1535.3</ele>
        <time>2025-08-15T14:52:25Z</time>
      </trkpt>
      <trkpt lat="45.77085" lon="6.52804">
        <ele>1535.3</ele>
        <time>2025-08-15T14:52:26Z</time>
      </trkpt>
      <trkpt lat="45.77082" lon="6.52805">
        <ele>1535.3</ele>
        <time>2025-08-15T14:52:27Z</time>
      </trkpt>
      <trkpt lat="45.77079" lon="6.52807">
        <ele>1535.3</ele>
        <time>2025-08-15T14:52:28Z</time>
      </trkpt>
      <trkpt lat="45.77076" lon="6.52808">
        <ele>1535.3</ele>
        <time>2025-08-15T14:52:29Z</time>
      </trkpt>
      <trkpt lat="45.77073" lon="6.5281">
        <ele>1535.4</ele>
        <time>2025-08-15T14:52:30Z</time>
      </trkpt>
      <trkpt lat="45.77071" lon="6.52811">
        <ele>1535.4</ele>
        <time>2025-08-15T14:52:31Z</time>
      </trkpt>
      <trkpt lat="45.77068" lon="6.52812">
        <ele>1535.4</ele>
        <time>2025-08-15T14:52:32Z</time>
      </trkpt>
      <trkpt lat="45.77064" lon="6.52814">
        <ele>1535.4</ele>
        <time>2025-08-15T14:52:33Z</time>
      </trkpt>
      <trkpt lat="45.77061" lon="6.52814">
        <ele>1535.5</ele>
        <time>2025-08-15T14:52:34Z</time>
      </trkpt>
      <trkpt lat="45.77059" lon="6.52815">
        <ele>1535.5</ele>
        <time>2025-08-15T14:52:35Z</time>
      </trkpt>
      <trkpt lat="45.77056" lon="6.52815">
        <ele>1535.7</ele>
        <time>2025-08-15T14:52:36Z</time>
      </trkpt>
      <trkpt lat="45.77052" lon="6.52815">
        <ele>1535.9</ele>
        <time>2025-08-15T14:52:37Z</time>
      </trkpt>
      <trkpt lat="45.77049" lon="6.52815">
        <ele>1536.1</ele>
        <time>2025-08-15T14:52:38Z</time>
      </trkpt>
      <trkpt lat="45.77046" lon="6.52815">
        <ele>1536.4</ele>
        <time>2025-08-15T14:52:39Z</time>
      </trkpt>
      <trkpt lat="45.77043" lon="6.52815">
        <ele>1536.6</ele>
        <time>2025-08-15T14:52:40Z</time>
      </trkpt>
      <trkpt lat="45.77037" lon="6.52814">
        <ele>1537.1</ele>
        <time>2025-08-15T14:52:42Z</time>
      </trkpt>
      <trkpt lat="45.77034" lon="6.52813">
        <ele>1537.4</ele>
        <time>2025-08-15T14:52:43Z</time>
      </trkpt>
      <trkpt lat="45.77031" lon="6.52813">
        <ele>1537.6</ele>
        <time>2025-08-15T14:52:44Z</time>
      </trkpt>
      <trkpt lat="45.77027" lon="6.52812">
        <ele>1538</ele>
        <time>2025-08-15T14:52:45Z</time>
      </trkpt>
      <trkpt lat="45.77026" lon="6.52811">
        <ele>1538.1</ele>
        <time>2025-08-15T14:52:46Z</time>
      </trkpt>
      <trkpt lat="45.77023" lon="6.52811">
        <ele>1538.4</ele>
        <time>2025-08-15T14:52:47Z</time>
      </trkpt>
      <trkpt lat="45.77021" lon="6.52811">
        <ele>1538.7</ele>
        <time>2025-08-15T14:52:48Z</time>
      </trkpt>
      <trkpt lat="45.77018" lon="6.5281">
        <ele>1538.9</ele>
        <time>2025-08-15T14:52:49Z</time>
      </trkpt>
      <trkpt lat="45.77015" lon="6.5281">
        <ele>1539.2</ele>
        <time>2025-08-15T14:52:50Z</time>
      </trkpt>
      <trkpt lat="45.77012" lon="6.52809">
        <ele>1539.6</ele>
        <time>2025-08-15T14:52:51Z</time>
      </trkpt>
      <trkpt lat="45.7701" lon="6.52809">
        <ele>1539.7</ele>
        <time>2025-08-15T14:52:52Z</time>
      </trkpt>
      <trkpt lat="45.77006" lon="6.52809">
        <ele>1540.1</ele>
        <time>2025-08-15T14:52:53Z</time>
      </trkpt>
      <trkpt lat="45.77005" lon="6.52809">
        <ele>1540.2</ele>
        <time>2025-08-15T14:52:54Z</time>
      </trkpt>
      <trkpt lat="45.77002" lon="6.52808">
        <ele>1540.5</ele>
        <time>2025-08-15T14:52:55Z</time>
      </trkpt>
      <trkpt lat="45.76998" lon="6.52807">
        <ele>1540.9</ele>
        <time>2025-08-15T14:52:56Z</time>
      </trkpt>
      <trkpt lat="45.76997" lon="6.52807">
        <ele>1541.1</ele>
        <time>2025-08-15T14:52:57Z</time>
      </trkpt>
      <trkpt lat="45.76993" lon="6.52807">
        <ele>1541.4</ele>
        <time>2025-08-15T14:52:58Z</time>
      </trkpt>
      <trkpt lat="45.76992" lon="6.52807">
        <ele>1541.6</ele>
        <time>2025-08-15T14:52:59Z</time>
      </trkpt>
      <trkpt lat="45.76988" lon="6.52807">
        <ele>1542</ele>
        <time>2025-08-15T14:53:00Z</time>
      </trkpt>
      <trkpt lat="45.76987" lon="6.52806">
        <ele>1542.1</ele>
        <time>2025-08-15T14:53:01Z</time>
      </trkpt>
      <trkpt lat="45.76983" lon="6.52807">
        <ele>1542.5</ele>
        <time>2025-08-15T14:53:02Z</time>
      </trkpt>
      <trkpt lat="45.76982" lon="6.52807">
        <ele>1542.6</ele>
        <time>2025-08-15T14:53:03Z</time>
      </trkpt>
      <trkpt lat="45.76979" lon="6.52807">
        <ele>1543</ele>
        <time>2025-08-15T14:53:04Z</time>
      </trkpt>
      <trkpt lat="45.76978" lon="6.52807">
        <ele>1543.1</ele>
        <time>2025-08-15T14:53:05Z</time>
      </trkpt>
      <trkpt lat="45.76975" lon="6.52807">
        <ele>1543.4</ele>
        <time>2025-08-15T14:53:06Z</time>
      </trkpt>
      <trkpt lat="45.76974" lon="6.52807">
        <ele>1543.5</ele>
        <time>2025-08-15T14:53:07Z</time>
      </trkpt>
      <trkpt lat="45.7697" lon="6.52807">
        <ele>1543.9</ele>
        <time>2025-08-15T14:53:08Z</time>
      </trkpt>
      <trkpt lat="45.76969" lon="6.52807">
        <ele>1544</ele>
        <time>2025-08-15T14:53:09Z</time>
      </trkpt>
      <trkpt lat="45.76966" lon="6.52808">
        <ele>1544.3</ele>
        <time>2025-08-15T14:53:10Z</time>
      </trkpt>
      <trkpt lat="45.76965" lon="6.52808">
        <ele>1544.4</ele>
        <time>2025-08-15T14:53:11Z</time>
      </trkpt>
      <trkpt lat="45.76962" lon="6.52809">
        <ele>1544.7</ele>
        <time>2025-08-15T14:53:12Z</time>
      </trkpt>
      <trkpt lat="45.76961" lon="6.52809">
        <ele>1544.8</ele>
        <time>2025-08-15T14:53:13Z</time>
      </trkpt>
      <trkpt lat="45.76958" lon="6.52809">
        <ele>1545.2</ele>
        <time>2025-08-15T14:53:14Z</time>
      </trkpt>
      <trkpt lat="45.76957" lon="6.52809">
        <ele>1545.3</ele>
        <time>2025-08-15T14:53:15Z</time>
      </trkpt>
      <trkpt lat="45.76954" lon="6.5281">
        <ele>1545.6</ele>
        <time>2025-08-15T14:53:16Z</time>
      </trkpt>
      <trkpt lat="45.76953" lon="6.5281">
        <ele>1545.7</ele>
        <time>2025-08-15T14:53:17Z</time>
      </trkpt>
      <trkpt lat="45.76949" lon="6.52809">
        <ele>1546.1</ele>
        <time>2025-08-15T14:53:18Z</time>
      </trkpt>
      <trkpt lat="45.76948" lon="6.52809">
        <ele>1546.2</ele>
        <time>2025-08-15T14:53:19Z</time>
      </trkpt>
      <trkpt lat="45.76945" lon="6.52809">
        <ele>1546.5</ele>
        <time>2025-08-15T14:53:20Z</time>
      </trkpt>
      <trkpt lat="45.76944" lon="6.52809">
        <ele>1546.6</ele>
        <time>2025-08-15T14:53:21Z</time>
      </trkpt>
      <trkpt lat="45.76941" lon="6.52809">
        <ele>1546.9</ele>
        <time>2025-08-15T14:53:22Z</time>
      </trkpt>
      <trkpt lat="45.7694" lon="6.52809">
        <ele>1547</ele>
        <time>2025-08-15T14:53:23Z</time>
      </trkpt>
      <trkpt lat="45.76937" lon="6.52809">
        <ele>1547.3</ele>
        <time>2025-08-15T14:53:24Z</time>
      </trkpt>
      <trkpt lat="45.76936" lon="6.52809">
        <ele>1547.4</ele>
        <time>2025-08-15T14:53:25Z</time>
      </trkpt>
      <trkpt lat="45.76933" lon="6.52809">
        <ele>1547.7</ele>
        <time>2025-08-15T14:53:26Z</time>
      </trkpt>
      <trkpt lat="45.76932" lon="6.52809">
        <ele>1547.8</ele>
        <time>2025-08-15T14:53:27Z</time>
      </trkpt>
      <trkpt lat="45.76929" lon="6.52808">
        <ele>1548.2</ele>
        <time>2025-08-15T14:53:28Z</time>
      </trkpt>
      <trkpt lat="45.76928" lon="6.52808">
        <ele>1548.3</ele>
        <time>2025-08-15T14:53:29Z</time>
      </trkpt>
      <trkpt lat="45.76925" lon="6.52807">
        <ele>1548.6</ele>
        <time>2025-08-15T14:53:30Z</time>
      </trkpt>
      <trkpt lat="45.76924" lon="6.52807">
        <ele>1548.7</ele>
        <time>2025-08-15T14:53:31Z</time>
      </trkpt>
      <trkpt lat="45.7692" lon="6.52807">
        <ele>1549</ele>
        <time>2025-08-15T14:53:32Z</time>
      </trkpt>
      <trkpt lat="45.76919" lon="6.52807">
        <ele>1549.1</ele>
        <time>2025-08-15T14:53:33Z</time>
      </trkpt>
      <trkpt lat="45.76916" lon="6.52807">
        <ele>1549.5</ele>
        <time>2025-08-15T14:53:34Z</time>
      </trkpt>
      <trkpt lat="45.76915" lon="6.52807">
        <ele>1549.6</ele>
        <time>2025-08-15T14:53:35Z</time>
      </trkpt>
      <trkpt lat="45.76912" lon="6.52806">
        <ele>1549.8</ele>
        <time>2025-08-15T14:53:36Z</time>
      </trkpt>
      <trkpt lat="45.76908" lon="6.52806">
        <ele>1550.1</ele>
        <time>2025-08-15T14:53:37Z</time>
      </trkpt>
      <trkpt lat="45.76907" lon="6.52806">
        <ele>1550.3</ele>
        <time>2025-08-15T14:53:38Z</time>
      </trkpt>
      <trkpt lat="45.76904" lon="6.52805">
        <ele>1550.5</ele>
        <time>2025-08-15T14:53:39Z</time>
      </trkpt>
      <trkpt lat="45.76901" lon="6.52805">
        <ele>1550.8</ele>
        <time>2025-08-15T14:53:40Z</time>
      </trkpt>
      <trkpt lat="45.76899" lon="6.52805">
        <ele>1551</ele>
        <time>2025-08-15T14:53:41Z</time>
      </trkpt>
      <trkpt lat="45.76896" lon="6.52805">
        <ele>1551.2</ele>
        <time>2025-08-15T14:53:42Z</time>
      </trkpt>
      <trkpt lat="45.76893" lon="6.52805">
        <ele>1551.5</ele>
        <time>2025-08-15T14:53:43Z</time>
      </trkpt>
      <trkpt lat="45.7689" lon="6.52804">
        <ele>1551.7</ele>
        <time>2025-08-15T14:53:44Z</time>
      </trkpt>
      <trkpt lat="45.76887" lon="6.52804">
        <ele>1552</ele>
        <time>2025-08-15T14:53:45Z</time>
      </trkpt>
      <trkpt lat="45.76884" lon="6.52803">
        <ele>1552.3</ele>
        <time>2025-08-15T14:53:46Z</time>
      </trkpt>
      <trkpt lat="45.76881" lon="6.52802">
        <ele>1552.5</ele>
        <time>2025-08-15T14:53:47Z</time>
      </trkpt>
      <trkpt lat="45.76878" lon="6.528">
        <ele>1552.8</ele>
        <time>2025-08-15T14:53:48Z</time>
      </trkpt>
      <trkpt lat="45.76875" lon="6.52798">
        <ele>1553.1</ele>
        <time>2025-08-15T14:53:49Z</time>
      </trkpt>
      <trkpt lat="45.76871" lon="6.52797">
        <ele>1553.5</ele>
        <time>2025-08-15T14:53:50Z</time>
      </trkpt>
      <trkpt lat="45.7687" lon="6.52796">
        <ele>1553.6</ele>
        <time>2025-08-15T14:53:51Z</time>
      </trkpt>
      <trkpt lat="45.76867" lon="6.52796">
        <ele>1553.9</ele>
        <time>2025-08-15T14:53:52Z</time>
      </trkpt>
      <trkpt lat="45.76864" lon="6.52797">
        <ele>1554.1</ele>
        <time>2025-08-15T14:53:53Z</time>
      </trkpt>
      <trkpt lat="45.76862" lon="6.528">
        <ele>1554.4</ele>
        <time>2025-08-15T14:53:54Z</time>
      </trkpt>
      <trkpt lat="45.7686" lon="6.52804">
        <ele>1554.7</ele>
        <time>2025-08-15T14:53:55Z</time>
      </trkpt>
      <trkpt lat="45.76859" lon="6.52809">
        <ele>1555</ele>
        <time>2025-08-15T14:53:56Z</time>
      </trkpt>
      <trkpt lat="45.7686" lon="6.52811">
        <ele>1555.1</ele>
        <time>2025-08-15T14:53:57Z</time>
      </trkpt>
      <trkpt lat="45.76861" lon="6.52816">
        <ele>1555.4</ele>
        <time>2025-08-15T14:53:58Z</time>
      </trkpt>
      <trkpt lat="45.76864" lon="6.52819">
        <ele>1555.6</ele>
        <time>2025-08-15T14:53:59Z</time>
      </trkpt>
      <trkpt lat="45.76866" lon="6.52822">
        <ele>1555.7</ele>
        <time>2025-08-15T14:54:00Z</time>
      </trkpt>
      <trkpt lat="45.76869" lon="6.52824">
        <ele>1555.8</ele>
        <time>2025-08-15T14:54:01Z</time>
      </trkpt>
      <trkpt lat="45.76872" lon="6.52826">
        <ele>1555.9</ele>
        <time>2025-08-15T14:54:02Z</time>
      </trkpt>
      <trkpt lat="45.76875" lon="6.52828">
        <ele>1556</ele>
        <time>2025-08-15T14:54:03Z</time>
      </trkpt>
      <trkpt lat="45.76878" lon="6.5283">
        <ele>1556.1</ele>
        <time>2025-08-15T14:54:04Z</time>
      </trkpt>
      <trkpt lat="45.76881" lon="6.52832">
        <ele>1556.2</ele>
        <time>2025-08-15T14:54:05Z</time>
      </trkpt>
      <trkpt lat="45.76884" lon="6.52834">
        <ele>1556.4</ele>
        <time>2025-08-15T14:54:06Z</time>
      </trkpt>
      <trkpt lat="45.76887" lon="6.52836">
        <ele>1556.5</ele>
        <time>2025-08-15T14:54:07Z</time>
      </trkpt>
      <trkpt lat="45.7689" lon="6.52839">
        <ele>1556.7</ele>
        <time>2025-08-15T14:54:08Z</time>
      </trkpt>
      <trkpt lat="45.76892" lon="6.52842">
        <ele>1556.9</ele>
        <time>2025-08-15T14:54:09Z</time>
      </trkpt>
      <trkpt lat="45.76894" lon="6.52846">
        <ele>1557.1</ele>
        <time>2025-08-15T14:54:10Z</time>
      </trkpt>
      <trkpt lat="45.76896" lon="6.52849">
        <ele>1557.3</ele>
        <time>2025-08-15T14:54:11Z</time>
      </trkpt>
      <trkpt lat="45.76898" lon="6.52853">
        <ele>1557.5</ele>
        <time>2025-08-15T14:54:12Z</time>
      </trkpt>
      <trkpt lat="45.769" lon="6.52857">
        <ele>1557.7</ele>
        <time>2025-08-15T14:54:13Z</time>
      </trkpt>
      <trkpt lat="45.76903" lon="6.52861">
        <ele>1558</ele>
        <time>2025-08-15T14:54:14Z</time>
      </trkpt>
      <trkpt lat="45.76905" lon="6.52864">
        <ele>1558.3</ele>
        <time>2025-08-15T14:54:15Z</time>
      </trkpt>
      <trkpt lat="45.76908" lon="6.52868">
        <ele>1558.6</ele>
        <time>2025-08-15T14:54:16Z</time>
      </trkpt>
      <trkpt lat="45.7691" lon="6.52872">
        <ele>1558.9</ele>
        <time>2025-08-15T14:54:17Z</time>
      </trkpt>
      <trkpt lat="45.76912" lon="6.52875">
        <ele>1559.1</ele>
        <time>2025-08-15T14:54:18Z</time>
      </trkpt>
      <trkpt lat="45.76914" lon="6.52878">
        <ele>1559.5</ele>
        <time>2025-08-15T14:54:19Z</time>
      </trkpt>
      <trkpt lat="45.76916" lon="6.52882">
        <ele>1559.8</ele>
        <time>2025-08-15T14:54:20Z</time>
      </trkpt>
      <trkpt lat="45.76918" lon="6.52886">
        <ele>1560.1</ele>
        <time>2025-08-15T14:54:21Z</time>
      </trkpt>
      <trkpt lat="45.76919" lon="6.5289">
        <ele>1560.4</ele>
        <time>2025-08-15T14:54:22Z</time>
      </trkpt>
      <trkpt lat="45.76917" lon="6.52895">
        <ele>1560.8</ele>
        <time>2025-08-15T14:54:23Z</time>
      </trkpt>
      <trkpt lat="45.76915" lon="6.52898">
        <ele>1561.1</ele>
        <time>2025-08-15T14:54:24Z</time>
      </trkpt>
      <trkpt lat="45.76911" lon="6.52898">
        <ele>1561.5</ele>
        <time>2025-08-15T14:54:25Z</time>
      </trkpt>
      <trkpt lat="45.76908" lon="6.52895">
        <ele>1561.8</ele>
        <time>2025-08-15T14:54:26Z</time>
      </trkpt>
      <trkpt lat="45.76905" lon="6.52891">
        <ele>1562.2</ele>
        <time>2025-08-15T14:54:27Z</time>
      </trkpt>
      <trkpt lat="45.76902" lon="6.52887">
        <ele>1562.5</ele>
        <time>2025-08-15T14:54:28Z</time>
      </trkpt>
      <trkpt lat="45.76899" lon="6.52884">
        <ele>1562.8</ele>
        <time>2025-08-15T14:54:29Z</time>
      </trkpt>
      <trkpt lat="45.76896" lon="6.52881">
        <ele>1563.1</ele>
        <time>2025-08-15T14:54:30Z</time>
      </trkpt>
      <trkpt lat="45.76893" lon="6.52879">
        <ele>1563.4</ele>
        <time>2025-08-15T14:54:31Z</time>
      </trkpt>
      <trkpt lat="45.76889" lon="6.52877">
        <ele>1563.6</ele>
        <time>2025-08-15T14:54:32Z</time>
      </trkpt>
      <trkpt lat="45.76886" lon="6.52874">
        <ele>1563.9</ele>
        <time>2025-08-15T14:54:33Z</time>
      </trkpt>
      <trkpt lat="45.76883" lon="6.52872">
        <ele>1564.2</ele>
        <time>2025-08-15T14:54:35Z</time>
      </trkpt>
      <trkpt lat="45.7688" lon="6.52869">
        <ele>1564.5</ele>
        <time>2025-08-15T14:54:36Z</time>
      </trkpt>
      <trkpt lat="45.76877" lon="6.52868">
        <ele>1564.8</ele>
        <time>2025-08-15T14:54:37Z</time>
      </trkpt>
      <trkpt lat="45.76873" lon="6.52866">
        <ele>1565.1</ele>
        <time>2025-08-15T14:54:38Z</time>
      </trkpt>
      <trkpt lat="45.7687" lon="6.52865">
        <ele>1565.4</ele>
        <time>2025-08-15T14:54:39Z</time>
      </trkpt>
      <trkpt lat="45.76867" lon="6.52863">
        <ele>1565.7</ele>
        <time>2025-08-15T14:54:40Z</time>
      </trkpt>
      <trkpt lat="45.76864" lon="6.52862">
        <ele>1566</ele>
        <time>2025-08-15T14:54:41Z</time>
      </trkpt>
      <trkpt lat="45.7686" lon="6.52861">
        <ele>1566.3</ele>
        <time>2025-08-15T14:54:42Z</time>
      </trkpt>
      <trkpt lat="45.76857" lon="6.5286">
        <ele>1566.7</ele>
        <time>2025-08-15T14:54:43Z</time>
      </trkpt>
      <trkpt lat="45.76853" lon="6.5286">
        <ele>1567</ele>
        <time>2025-08-15T14:54:44Z</time>
      </trkpt>
      <trkpt lat="45.76849" lon="6.52859">
        <ele>1567.4</ele>
        <time>2025-08-15T14:54:45Z</time>
      </trkpt>
      <trkpt lat="45.76846" lon="6.5286">
        <ele>1567.7</ele>
        <time>2025-08-15T14:54:46Z</time>
      </trkpt>
      <trkpt lat="45.76843" lon="6.5286">
        <ele>1568.1</ele>
        <time>2025-08-15T14:54:47Z</time>
      </trkpt>
      <trkpt lat="45.76839" lon="6.52861">
        <ele>1568.4</ele>
        <time>2025-08-15T14:54:48Z</time>
      </trkpt>
      <trkpt lat="45.76835" lon="6.52861">
        <ele>1568.8</ele>
        <time>2025-08-15T14:54:49Z</time>
      </trkpt>
      <trkpt lat="45.76832" lon="6.52862">
        <ele>1569.1</ele>
        <time>2025-08-15T14:54:50Z</time>
      </trkpt>
      <trkpt lat="45.76828" lon="6.52862">
        <ele>1569.5</ele>
        <time>2025-08-15T14:54:51Z</time>
      </trkpt>
      <trkpt lat="45.76821" lon="6.52862">
        <ele>1570.2</ele>
        <time>2025-08-15T14:54:52Z</time>
      </trkpt>
      <trkpt lat="45.76817" lon="6.52863">
        <ele>1570.6</ele>
        <time>2025-08-15T14:54:53Z</time>
      </trkpt>
      <trkpt lat="45.76814" lon="6.52863">
        <ele>1571</ele>
        <time>2025-08-15T14:54:54Z</time>
      </trkpt>
      <trkpt lat="45.7681" lon="6.52863">
        <ele>1571.4</ele>
        <time>2025-08-15T14:54:55Z</time>
      </trkpt>
      <trkpt lat="45.76806" lon="6.52863">
        <ele>1571.8</ele>
        <time>2025-08-15T14:54:56Z</time>
      </trkpt>
      <trkpt lat="45.76803" lon="6.52863">
        <ele>1572.2</ele>
        <time>2025-08-15T14:54:57Z</time>
      </trkpt>
      <trkpt lat="45.76799" lon="6.52863">
        <ele>1572.6</ele>
        <time>2025-08-15T14:54:58Z</time>
      </trkpt>
      <trkpt lat="45.76796" lon="6.52863">
        <ele>1573</ele>
        <time>2025-08-15T14:54:59Z</time>
      </trkpt>
      <trkpt lat="45.76792" lon="6.52863">
        <ele>1573.4</ele>
        <time>2025-08-15T14:55:00Z</time>
      </trkpt>
      <trkpt lat="45.76789" lon="6.52863">
        <ele>1573.9</ele>
        <time>2025-08-15T14:55:01Z</time>
      </trkpt>
      <trkpt lat="45.76785" lon="6.52864">
        <ele>1574.3</ele>
        <time>2025-08-15T14:55:02Z</time>
      </trkpt>
      <trkpt lat="45.76783" lon="6.52867">
        <ele>1574.6</ele>
        <time>2025-08-15T14:55:03Z</time>
      </trkpt>
      <trkpt lat="45.76781" lon="6.5287">
        <ele>1574.9</ele>
        <time>2025-08-15T14:55:04Z</time>
      </trkpt>
      <trkpt lat="45.76781" lon="6.52874">
        <ele>1575.2</ele>
        <time>2025-08-15T14:55:05Z</time>
      </trkpt>
      <trkpt lat="45.76781" lon="6.52878">
        <ele>1575.5</ele>
        <time>2025-08-15T14:55:06Z</time>
      </trkpt>
      <trkpt lat="45.76784" lon="6.52882">
        <ele>1575.8</ele>
        <time>2025-08-15T14:55:07Z</time>
      </trkpt>
      <trkpt lat="45.76785" lon="6.52883">
        <ele>1575.9</ele>
        <time>2025-08-15T14:55:08Z</time>
      </trkpt>
      <trkpt lat="45.76787" lon="6.52885">
        <ele>1576.2</ele>
        <time>2025-08-15T14:55:09Z</time>
      </trkpt>
      <trkpt lat="45.7679" lon="6.52886">
        <ele>1576.3</ele>
        <time>2025-08-15T14:55:10Z</time>
      </trkpt>
      <trkpt lat="45.76793" lon="6.52888">
        <ele>1576.5</ele>
        <time>2025-08-15T14:55:11Z</time>
      </trkpt>
      <trkpt lat="45.76796" lon="6.52889">
        <ele>1576.7</ele>
        <time>2025-08-15T14:55:12Z</time>
      </trkpt>
      <trkpt lat="45.76799" lon="6.52891">
        <ele>1576.9</ele>
        <time>2025-08-15T14:55:13Z</time>
      </trkpt>
      <trkpt lat="45.76802" lon="6.52893">
        <ele>1577.1</ele>
        <time>2025-08-15T14:55:14Z</time>
      </trkpt>
      <trkpt lat="45.76805" lon="6.52895">
        <ele>1577.3</ele>
        <time>2025-08-15T14:55:15Z</time>
      </trkpt>
      <trkpt lat="45.76808" lon="6.52897">
        <ele>1577.5</ele>
        <time>2025-08-15T14:55:16Z</time>
      </trkpt>
      <trkpt lat="45.76811" lon="6.52899">
        <ele>1577.8</ele>
        <time>2025-08-15T14:55:17Z</time>
      </trkpt>
      <trkpt lat="45.76814" lon="6.52902">
        <ele>1578</ele>
        <time>2025-08-15T14:55:18Z</time>
      </trkpt>
      <trkpt lat="45.76817" lon="6.52905">
        <ele>1578.2</ele>
        <time>2025-08-15T14:55:19Z</time>
      </trkpt>
      <trkpt lat="45.7682" lon="6.52907">
        <ele>1578.5</ele>
        <time>2025-08-15T14:55:20Z</time>
      </trkpt>
      <trkpt lat="45.76823" lon="6.5291">
        <ele>1578.8</ele>
        <time>2025-08-15T14:55:21Z</time>
      </trkpt>
      <trkpt lat="45.76826" lon="6.52913">
        <ele>1579</ele>
        <time>2025-08-15T14:55:22Z</time>
      </trkpt>
      <trkpt lat="45.76828" lon="6.52916">
        <ele>1579.3</ele>
        <time>2025-08-15T14:55:23Z</time>
      </trkpt>
      <trkpt lat="45.76831" lon="6.52919">
        <ele>1579.5</ele>
        <time>2025-08-15T14:55:24Z</time>
      </trkpt>
      <trkpt lat="45.76833" lon="6.52922">
        <ele>1579.8</ele>
        <time>2025-08-15T14:55:25Z</time>
      </trkpt>
      <trkpt lat="45.76836" lon="6.52926">
        <ele>1580.1</ele>
        <time>2025-08-15T14:55:26Z</time>
      </trkpt>
      <trkpt lat="45.76839" lon="6.52929">
        <ele>1580.4</ele>
        <time>2025-08-15T14:55:27Z</time>
      </trkpt>
      <trkpt lat="45.76841" lon="6.52933">
        <ele>1580.7</ele>
        <time>2025-08-15T14:55:28Z</time>
      </trkpt>
      <trkpt lat="45.76843" lon="6.52936">
        <ele>1581</ele>
        <time>2025-08-15T14:55:29Z</time>
      </trkpt>
      <trkpt lat="45.76845" lon="6.52941">
        <ele>1581.3</ele>
        <time>2025-08-15T14:55:30Z</time>
      </trkpt>
      <trkpt lat="45.76846" lon="6.52945">
        <ele>1581.6</ele>
        <time>2025-08-15T14:55:31Z</time>
      </trkpt>
      <trkpt lat="45.76848" lon="6.5295">
        <ele>1581.9</ele>
        <time>2025-08-15T14:55:32Z</time>
      </trkpt>
      <trkpt lat="45.7685" lon="6.52953">
        <ele>1582.2</ele>
        <time>2025-08-15T14:55:33Z</time>
      </trkpt>
      <trkpt lat="45.76851" lon="6.52958">
        <ele>1582.5</ele>
        <time>2025-08-15T14:55:34Z</time>
      </trkpt>
      <trkpt lat="45.76852" lon="6.52963">
        <ele>1582.9</ele>
        <time>2025-08-15T14:55:35Z</time>
      </trkpt>
      <trkpt lat="45.76853" lon="6.52969">
        <ele>1583.2</ele>
        <time>2025-08-15T14:55:36Z</time>
      </trkpt>
      <trkpt lat="45.76854" lon="6.52974">
        <ele>1583.5</ele>
        <time>2025-08-15T14:55:37Z</time>
      </trkpt>
      <trkpt lat="45.76855" lon="6.52979">
        <ele>1583.8</ele>
        <time>2025-08-15T14:55:38Z</time>
      </trkpt>
      <trkpt lat="45.76856" lon="6.52984">
        <ele>1584.2</ele>
        <time>2025-08-15T14:55:39Z</time>
      </trkpt>
      <trkpt lat="45.76857" lon="6.52989">
        <ele>1584.5</ele>
        <time>2025-08-15T14:55:40Z</time>
      </trkpt>
      <trkpt lat="45.76858" lon="6.52994">
        <ele>1584.8</ele>
        <time>2025-08-15T14:55:41Z</time>
      </trkpt>
      <trkpt lat="45.76859" lon="6.52999">
        <ele>1585.2</ele>
        <time>2025-08-15T14:55:42Z</time>
      </trkpt>
      <trkpt lat="45.76861" lon="6.53005">
        <ele>1585.5</ele>
        <time>2025-08-15T14:55:43Z</time>
      </trkpt>
      <trkpt lat="45.76862" lon="6.5301">
        <ele>1585.8</ele>
        <time>2025-08-15T14:55:44Z</time>
      </trkpt>
      <trkpt lat="45.76864" lon="6.53015">
        <ele>1586.1</ele>
        <time>2025-08-15T14:55:45Z</time>
      </trkpt>
      <trkpt lat="45.76865" lon="6.53021">
        <ele>1586.5</ele>
        <time>2025-08-15T14:55:46Z</time>
      </trkpt>
      <trkpt lat="45.76867" lon="6.53027">
        <ele>1586.8</ele>
        <time>2025-08-15T14:55:47Z</time>
      </trkpt>
      <trkpt lat="45.76869" lon="6.53032">
        <ele>1587.1</ele>
        <time>2025-08-15T14:55:48Z</time>
      </trkpt>
      <trkpt lat="45.76872" lon="6.53037">
        <ele>1587.4</ele>
        <time>2025-08-15T14:55:49Z</time>
      </trkpt>
      <trkpt lat="45.76874" lon="6.53042">
        <ele>1587.6</ele>
        <time>2025-08-15T14:55:50Z</time>
      </trkpt>
      <trkpt lat="45.76877" lon="6.53046">
        <ele>1587.8</ele>
        <time>2025-08-15T14:55:51Z</time>
      </trkpt>
      <trkpt lat="45.7688" lon="6.5305">
        <ele>1588.1</ele>
        <time>2025-08-15T14:55:52Z</time>
      </trkpt>
      <trkpt lat="45.76883" lon="6.53054">
        <ele>1588.2</ele>
        <time>2025-08-15T14:55:53Z</time>
      </trkpt>
      <trkpt lat="45.76886" lon="6.53057">
        <ele>1588.4</ele>
        <time>2025-08-15T14:55:54Z</time>
      </trkpt>
      <trkpt lat="45.76889" lon="6.5306">
        <ele>1588.6</ele>
        <time>2025-08-15T14:55:55Z</time>
      </trkpt>
      <trkpt lat="45.76892" lon="6.53063">
        <ele>1588.8</ele>
        <time>2025-08-15T14:55:56Z</time>
      </trkpt>
      <trkpt lat="45.76895" lon="6.53066">
        <ele>1589</ele>
        <time>2025-08-15T14:55:57Z</time>
      </trkpt>
      <trkpt lat="45.76898" lon="6.5307">
        <ele>1589.2</ele>
        <time>2025-08-15T14:55:58Z</time>
      </trkpt>
      <trkpt lat="45.76901" lon="6.53075">
        <ele>1589.4</ele>
        <time>2025-08-15T14:55:59Z</time>
      </trkpt>
      <trkpt lat="45.76904" lon="6.53078">
        <ele>1589.5</ele>
        <time>2025-08-15T14:56:00Z</time>
      </trkpt>
      <trkpt lat="45.76908" lon="6.53081">
        <ele>1589.7</ele>
        <time>2025-08-15T14:56:01Z</time>
      </trkpt>
      <trkpt lat="45.76911" lon="6.53085">
        <ele>1589.9</ele>
        <time>2025-08-15T14:56:02Z</time>
      </trkpt>
      <trkpt lat="45.76914" lon="6.5309">
        <ele>1590.1</ele>
        <time>2025-08-15T14:56:03Z</time>
      </trkpt>
      <trkpt lat="45.76917" lon="6.53094">
        <ele>1590.4</ele>
        <time>2025-08-15T14:56:04Z</time>
      </trkpt>
      <trkpt lat="45.7692" lon="6.53098">
        <ele>1590.6</ele>
        <time>2025-08-15T14:56:05Z</time>
      </trkpt>
      <trkpt lat="45.76923" lon="6.53101">
        <ele>1590.8</ele>
        <time>2025-08-15T14:56:06Z</time>
      </trkpt>
      <trkpt lat="45.76926" lon="6.53105">
        <ele>1591</ele>
        <time>2025-08-15T14:56:07Z</time>
      </trkpt>
      <trkpt lat="45.76929" lon="6.5311">
        <ele>1591.2</ele>
        <time>2025-08-15T14:56:08Z</time>
      </trkpt>
      <trkpt lat="45.76932" lon="6.53114">
        <ele>1591.4</ele>
        <time>2025-08-15T14:56:09Z</time>
      </trkpt>
      <trkpt lat="45.76935" lon="6.53118">
        <ele>1591.7</ele>
        <time>2025-08-15T14:56:10Z</time>
      </trkpt>
      <trkpt lat="45.76938" lon="6.53121">
        <ele>1591.9</ele>
        <time>2025-08-15T14:56:11Z</time>
      </trkpt>
      <trkpt lat="45.76941" lon="6.53125">
        <ele>1592.1</ele>
        <time>2025-08-15T14:56:12Z</time>
      </trkpt>
      <trkpt lat="45.76943" lon="6.53129">
        <ele>1592.3</ele>
        <time>2025-08-15T14:56:13Z</time>
      </trkpt>
      <trkpt lat="45.76946" lon="6.53133">
        <ele>1592.6</ele>
        <time>2025-08-15T14:56:14Z</time>
      </trkpt>
      <trkpt lat="45.76949" lon="6.53137">
        <ele>1592.8</ele>
        <time>2025-08-15T14:56:15Z</time>
      </trkpt>
      <trkpt lat="45.76952" lon="6.53141">
        <ele>1593</ele>
        <time>2025-08-15T14:56:16Z</time>
      </trkpt>
      <trkpt lat="45.76954" lon="6.53146">
        <ele>1593.3</ele>
        <time>2025-08-15T14:56:17Z</time>
      </trkpt>
      <trkpt lat="45.76956" lon="6.53151">
        <ele>1593.6</ele>
        <time>2025-08-15T14:56:18Z</time>
      </trkpt>
      <trkpt lat="45.76959" lon="6.53156">
        <ele>1593.8</ele>
        <time>2025-08-15T14:56:19Z</time>
      </trkpt>
      <trkpt lat="45.76961" lon="6.5316">
        <ele>1594.1</ele>
        <time>2025-08-15T14:56:20Z</time>
      </trkpt>
      <trkpt lat="45.76963" lon="6.53165">
        <ele>1594.4</ele>
        <time>2025-08-15T14:56:21Z</time>
      </trkpt>
      <trkpt lat="45.76964" lon="6.5317">
        <ele>1594.7</ele>
        <time>2025-08-15T14:56:22Z</time>
      </trkpt>
      <trkpt lat="45.76966" lon="6.53175">
        <ele>1595</ele>
        <time>2025-08-15T14:56:23Z</time>
      </trkpt>
      <trkpt lat="45.76968" lon="6.5318">
        <ele>1595.3</ele>
        <time>2025-08-15T14:56:24Z</time>
      </trkpt>
      <trkpt lat="45.7697" lon="6.53185">
        <ele>1595.6</ele>
        <time>2025-08-15T14:56:25Z</time>
      </trkpt>
      <trkpt lat="45.76971" lon="6.53191">
        <ele>1595.9</ele>
        <time>2025-08-15T14:56:26Z</time>
      </trkpt>
      <trkpt lat="45.76973" lon="6.53196">
        <ele>1596.2</ele>
        <time>2025-08-15T14:56:27Z</time>
      </trkpt>
      <trkpt lat="45.76974" lon="6.53201">
        <ele>1596.5</ele>
        <time>2025-08-15T14:56:28Z</time>
      </trkpt>
      <trkpt lat="45.76976" lon="6.53207">
        <ele>1596.8</ele>
        <time>2025-08-15T14:56:29Z</time>
      </trkpt>
      <trkpt lat="45.76977" lon="6.53212">
        <ele>1597</ele>
        <time>2025-08-15T14:56:30Z</time>
      </trkpt>
      <trkpt lat="45.76978" lon="6.53217">
        <ele>1597.3</ele>
        <time>2025-08-15T14:56:31Z</time>
      </trkpt>
      <trkpt lat="45.76979" lon="6.53222">
        <ele>1597.6</ele>
        <time>2025-08-15T14:56:32Z</time>
      </trkpt>
      <trkpt lat="45.76981" lon="6.53228">
        <ele>1597.9</ele>
        <time>2025-08-15T14:56:33Z</time>
      </trkpt>
      <trkpt lat="45.76982" lon="6.53233">
        <ele>1598.2</ele>
        <time>2025-08-15T14:56:34Z</time>
      </trkpt>
      <trkpt lat="45.76984" lon="6.53238">
        <ele>1598.4</ele>
        <time>2025-08-15T14:56:35Z</time>
      </trkpt>
      <trkpt lat="45.76986" lon="6.53242">
        <ele>1598.7</ele>
        <time>2025-08-15T14:56:36Z</time>
      </trkpt>
      <trkpt lat="45.76988" lon="6.53247">
        <ele>1599</ele>
        <time>2025-08-15T14:56:37Z</time>
      </trkpt>
      <trkpt lat="45.7699" lon="6.53253">
        <ele>1599.2</ele>
        <time>2025-08-15T14:56:38Z</time>
      </trkpt>
      <trkpt lat="45.76992" lon="6.53257">
        <ele>1599.5</ele>
        <time>2025-08-15T14:56:39Z</time>
      </trkpt>
      <trkpt lat="45.76995" lon="6.53261">
        <ele>1599.7</ele>
        <time>2025-08-15T14:56:41Z</time>
      </trkpt>
      <trkpt lat="45.76998" lon="6.53265">
        <ele>1600</ele>
        <time>2025-08-15T14:56:42Z</time>
      </trkpt>
      <trkpt lat="45.77" lon="6.53268">
        <ele>1600.2</ele>
        <time>2025-08-15T14:56:43Z</time>
      </trkpt>
      <trkpt lat="45.77004" lon="6.53271">
        <ele>1600.4</ele>
        <time>2025-08-15T14:56:44Z</time>
      </trkpt>
      <trkpt lat="45.77007" lon="6.53274">
        <ele>1600.7</ele>
        <time>2025-08-15T14:56:45Z</time>
      </trkpt>
      <trkpt lat="45.7701" lon="6.53277">
        <ele>1600.9</ele>
        <time>2025-08-15T14:56:46Z</time>
      </trkpt>
      <trkpt lat="45.77012" lon="6.5328">
        <ele>1601.1</ele>
        <time>2025-08-15T14:56:47Z</time>
      </trkpt>
      <trkpt lat="45.77016" lon="6.53282">
        <ele>1601.4</ele>
        <time>2025-08-15T14:56:48Z</time>
      </trkpt>
      <trkpt lat="45.77019" lon="6.53285">
        <ele>1601.6</ele>
        <time>2025-08-15T14:56:49Z</time>
      </trkpt>
      <trkpt lat="45.77021" lon="6.53287">
        <ele>1601.8</ele>
        <time>2025-08-15T14:56:50Z</time>
      </trkpt>
      <trkpt lat="45.77023" lon="6.53291">
        <ele>1602</ele>
        <time>2025-08-15T14:56:51Z</time>
      </trkpt>
      <trkpt lat="45.77025" lon="6.53294">
        <ele>1602.2</ele>
        <time>2025-08-15T14:56:52Z</time>
      </trkpt>
      <trkpt lat="45.77026" lon="6.53298">
        <ele>1602.4</ele>
        <time>2025-08-15T14:56:53Z</time>
      </trkpt>
      <trkpt lat="45.77025" lon="6.53303">
        <ele>1602.7</ele>
        <time>2025-08-15T14:56:54Z</time>
      </trkpt>
      <trkpt lat="45.77025" lon="6.53304">
        <ele>1602.8</ele>
        <time>2025-08-15T14:56:55Z</time>
      </trkpt>
      <trkpt lat="45.77025" lon="6.53306">
        <ele>1602.9</ele>
        <time>2025-08-15T14:56:56Z</time>
      </trkpt>
      <trkpt lat="45.77023" lon="6.53307">
        <ele>1603</ele>
        <time>2025-08-15T14:56:57Z</time>
      </trkpt>
      <trkpt lat="45.77021" lon="6.53306">
        <ele>1603.2</ele>
        <time>2025-08-15T14:56:58Z</time>
      </trkpt>
      <trkpt lat="45.7702" lon="6.53305">
        <ele>1603.4</ele>
        <time>2025-08-15T14:56:59Z</time>
      </trkpt>
      <trkpt lat="45.77018" lon="6.53301">
        <ele>1603.6</ele>
        <time>2025-08-15T14:57:00Z</time>
      </trkpt>
      <trkpt lat="45.77015" lon="6.53297">
        <ele>1603.9</ele>
        <time>2025-08-15T14:57:01Z</time>
      </trkpt>
      <trkpt lat="45.77011" lon="6.53292">
        <ele>1604.3</ele>
        <time>2025-08-15T14:57:02Z</time>
      </trkpt>
      <trkpt lat="45.77009" lon="6.5329">
        <ele>1604.5</ele>
        <time>2025-08-15T14:57:03Z</time>
      </trkpt>
      <trkpt lat="45.77006" lon="6.53288">
        <ele>1604.8</ele>
        <time>2025-08-15T14:57:04Z</time>
      </trkpt>
      <trkpt lat="45.77003" lon="6.53285">
        <ele>1605</ele>
        <time>2025-08-15T14:57:05Z</time>
      </trkpt>
      <trkpt lat="45.77" lon="6.53284">
        <ele>1605.3</ele>
        <time>2025-08-15T14:57:06Z</time>
      </trkpt>
      <trkpt lat="45.76997" lon="6.53282">
        <ele>1605.6</ele>
        <time>2025-08-15T14:57:07Z</time>
      </trkpt>
      <trkpt lat="45.76994" lon="6.5328">
        <ele>1605.9</ele>
        <time>2025-08-15T14:57:08Z</time>
      </trkpt>
      <trkpt lat="45.76991" lon="6.53277">
        <ele>1606.2</ele>
        <time>2025-08-15T14:57:09Z</time>
      </trkpt>
      <trkpt lat="45.76988" lon="6.53275">
        <ele>1606.5</ele>
        <time>2025-08-15T14:57:10Z</time>
      </trkpt>
      <trkpt lat="45.76985" lon="6.53273">
        <ele>1606.7</ele>
        <time>2025-08-15T14:57:11Z</time>
      </trkpt>
      <trkpt lat="45.76982" lon="6.5327">
        <ele>1607.1</ele>
        <time>2025-08-15T14:57:12Z</time>
      </trkpt>
      <trkpt lat="45.76978" lon="6.53268">
        <ele>1607.4</ele>
        <time>2025-08-15T14:57:13Z</time>
      </trkpt>
      <trkpt lat="45.76976" lon="6.53265">
        <ele>1607.6</ele>
        <time>2025-08-15T14:57:14Z</time>
      </trkpt>
      <trkpt lat="45.76972" lon="6.53262">
        <ele>1608</ele>
        <time>2025-08-15T14:57:15Z</time>
      </trkpt>
      <trkpt lat="45.76969" lon="6.53259">
        <ele>1608.2</ele>
        <time>2025-08-15T14:57:16Z</time>
      </trkpt>
      <trkpt lat="45.76966" lon="6.53257">
        <ele>1608.5</ele>
        <time>2025-08-15T14:57:17Z</time>
      </trkpt>
      <trkpt lat="45.76963" lon="6.53254">
        <ele>1608.8</ele>
        <time>2025-08-15T14:57:18Z</time>
      </trkpt>
      <trkpt lat="45.76961" lon="6.5325">
        <ele>1609.1</ele>
        <time>2025-08-15T14:57:19Z</time>
      </trkpt>
      <trkpt lat="45.76958" lon="6.53247">
        <ele>1609.4</ele>
        <time>2025-08-15T14:57:20Z</time>
      </trkpt>
      <trkpt lat="45.76956" lon="6.53243">
        <ele>1609.6</ele>
        <time>2025-08-15T14:57:21Z</time>
      </trkpt>
      <trkpt lat="45.76953" lon="6.5324">
        <ele>1609.9</ele>
        <time>2025-08-15T14:57:22Z</time>
      </trkpt>
      <trkpt lat="45.7695" lon="6.53237">
        <ele>1610.2</ele>
        <time>2025-08-15T14:57:23Z</time>
      </trkpt>
      <trkpt lat="45.76947" lon="6.53234">
        <ele>1610.5</ele>
        <time>2025-08-15T14:57:24Z</time>
      </trkpt>
      <trkpt lat="45.76944" lon="6.53231">
        <ele>1610.9</ele>
        <time>2025-08-15T14:57:25Z</time>
      </trkpt>
      <trkpt lat="45.76942" lon="6.53228">
        <ele>1611.2</ele>
        <time>2025-08-15T14:57:26Z</time>
      </trkpt>
      <trkpt lat="45.76939" lon="6.53224">
        <ele>1611.5</ele>
        <time>2025-08-15T14:57:27Z</time>
      </trkpt>
      <trkpt lat="45.76936" lon="6.53222">
        <ele>1611.8</ele>
        <time>2025-08-15T14:57:28Z</time>
      </trkpt>
      <trkpt lat="45.76933" lon="6.53219">
        <ele>1612.2</ele>
        <time>2025-08-15T14:57:29Z</time>
      </trkpt>
      <trkpt lat="45.76929" lon="6.53216">
        <ele>1612.5</ele>
        <time>2025-08-15T14:57:30Z</time>
      </trkpt>
      <trkpt lat="45.76926" lon="6.53214">
        <ele>1612.8</ele>
        <time>2025-08-15T14:57:31Z</time>
      </trkpt>
      <trkpt lat="45.76923" lon="6.53212">
        <ele>1613.1</ele>
        <time>2025-08-15T14:57:32Z</time>
      </trkpt>
      <trkpt lat="45.7692" lon="6.5321">
        <ele>1613.4</ele>
        <time>2025-08-15T14:57:33Z</time>
      </trkpt>
      <trkpt lat="45.76917" lon="6.53208">
        <ele>1613.7</ele>
        <time>2025-08-15T14:57:34Z</time>
      </trkpt>
      <trkpt lat="45.76913" lon="6.53206">
        <ele>1614</ele>
        <time>2025-08-15T14:57:35Z</time>
      </trkpt>
      <trkpt lat="45.7691" lon="6.53204">
        <ele>1614.3</ele>
        <time>2025-08-15T14:57:36Z</time>
      </trkpt>
      <trkpt lat="45.76906" lon="6.53202">
        <ele>1614.6</ele>
        <time>2025-08-15T14:57:37Z</time>
      </trkpt>
      <trkpt lat="45.76903" lon="6.532">
        <ele>1614.9</ele>
        <time>2025-08-15T14:57:38Z</time>
      </trkpt>
      <trkpt lat="45.76899" lon="6.53198">
        <ele>1615.3</ele>
        <time>2025-08-15T14:57:39Z</time>
      </trkpt>
      <trkpt lat="45.76895" lon="6.53197">
        <ele>1615.5</ele>
        <time>2025-08-15T14:57:40Z</time>
      </trkpt>
      <trkpt lat="45.76892" lon="6.53195">
        <ele>1615.9</ele>
        <time>2025-08-15T14:57:41Z</time>
      </trkpt>
      <trkpt lat="45.76888" lon="6.53193">
        <ele>1616.2</ele>
        <time>2025-08-15T14:57:42Z</time>
      </trkpt>
      <trkpt lat="45.76884" lon="6.53191">
        <ele>1616.5</ele>
        <time>2025-08-15T14:57:43Z</time>
      </trkpt>
      <trkpt lat="45.76881" lon="6.53189">
        <ele>1616.8</ele>
        <time>2025-08-15T14:57:44Z</time>
      </trkpt>
      <trkpt lat="45.76877" lon="6.53188">
        <ele>1617.1</ele>
        <time>2025-08-15T14:57:45Z</time>
      </trkpt>
      <trkpt lat="45.76873" lon="6.53186">
        <ele>1617.5</ele>
        <time>2025-08-15T14:57:46Z</time>
      </trkpt>
      <trkpt lat="45.7687" lon="6.53184">
        <ele>1617.8</ele>
        <time>2025-08-15T14:57:47Z</time>
      </trkpt>
      <trkpt lat="45.76866" lon="6.53184">
        <ele>1618.2</ele>
        <time>2025-08-15T14:57:48Z</time>
      </trkpt>
      <trkpt lat="45.76863" lon="6.53183">
        <ele>1618.5</ele>
        <time>2025-08-15T14:57:49Z</time>
      </trkpt>
      <trkpt lat="45.76859" lon="6.53182">
        <ele>1618.8</ele>
        <time>2025-08-15T14:57:50Z</time>
      </trkpt>
      <trkpt lat="45.76855" lon="6.53181">
        <ele>1619.2</ele>
        <time>2025-08-15T14:57:51Z</time>
      </trkpt>
      <trkpt lat="45.76851" lon="6.5318">
        <ele>1619.5</ele>
        <time>2025-08-15T14:57:52Z</time>
      </trkpt>
      <trkpt lat="45.76847" lon="6.5318">
        <ele>1619.8</ele>
        <time>2025-08-15T14:57:53Z</time>
      </trkpt>
      <trkpt lat="45.76843" lon="6.53179">
        <ele>1620.1</ele>
        <time>2025-08-15T14:57:54Z</time>
      </trkpt>
      <trkpt lat="45.76839" lon="6.53179">
        <ele>1620.4</ele>
        <time>2025-08-15T14:57:55Z</time>
      </trkpt>
      <trkpt lat="45.76835" lon="6.5318">
        <ele>1620.7</ele>
        <time>2025-08-15T14:57:56Z</time>
      </trkpt>
      <trkpt lat="45.76832" lon="6.5318">
        <ele>1621</ele>
        <time>2025-08-15T14:57:57Z</time>
      </trkpt>
      <trkpt lat="45.76828" lon="6.53181">
        <ele>1621.3</ele>
        <time>2025-08-15T14:57:58Z</time>
      </trkpt>
      <trkpt lat="45.76824" lon="6.53182">
        <ele>1621.6</ele>
        <time>2025-08-15T14:57:59Z</time>
      </trkpt>
      <trkpt lat="45.76821" lon="6.53183">
        <ele>1621.9</ele>
        <time>2025-08-15T14:58:00Z</time>
      </trkpt>
      <trkpt lat="45.76817" lon="6.53184">
        <ele>1622.1</ele>
        <time>2025-08-15T14:58:01Z</time>
      </trkpt>
      <trkpt lat="45.76813" lon="6.53185">
        <ele>1622.5</ele>
        <time>2025-08-15T14:58:02Z</time>
      </trkpt>
      <trkpt lat="45.76809" lon="6.53186">
        <ele>1622.8</ele>
        <time>2025-08-15T14:58:03Z</time>
      </trkpt>
      <trkpt lat="45.76806" lon="6.53187">
        <ele>1623</ele>
        <time>2025-08-15T14:58:04Z</time>
      </trkpt>
      <trkpt lat="45.76802" lon="6.53188">
        <ele>1623.4</ele>
        <time>2025-08-15T14:58:05Z</time>
      </trkpt>
      <trkpt lat="45.76798" lon="6.53189">
        <ele>1623.7</ele>
        <time>2025-08-15T14:58:06Z</time>
      </trkpt>
      <trkpt lat="45.76794" lon="6.5319">
        <ele>1624</ele>
        <time>2025-08-15T14:58:07Z</time>
      </trkpt>
      <trkpt lat="45.7679" lon="6.53192">
        <ele>1624.3</ele>
        <time>2025-08-15T14:58:08Z</time>
      </trkpt>
      <trkpt lat="45.76787" lon="6.53193">
        <ele>1624.6</ele>
        <time>2025-08-15T14:58:09Z</time>
      </trkpt>
      <trkpt lat="45.76782" lon="6.53194">
        <ele>1625</ele>
        <time>2025-08-15T14:58:10Z</time>
      </trkpt>
      <trkpt lat="45.76779" lon="6.53196">
        <ele>1625.3</ele>
        <time>2025-08-15T14:58:11Z</time>
      </trkpt>
      <trkpt lat="45.76775" lon="6.53197">
        <ele>1625.6</ele>
        <time>2025-08-15T14:58:12Z</time>
      </trkpt>
      <trkpt lat="45.76771" lon="6.53199">
        <ele>1626</ele>
        <time>2025-08-15T14:58:13Z</time>
      </trkpt>
      <trkpt lat="45.76768" lon="6.532">
        <ele>1626.3</ele>
        <time>2025-08-15T14:58:14Z</time>
      </trkpt>
      <trkpt lat="45.76764" lon="6.53201">
        <ele>1626.6</ele>
        <time>2025-08-15T14:58:15Z</time>
      </trkpt>
      <trkpt lat="45.76761" lon="6.53202">
        <ele>1627</ele>
        <time>2025-08-15T14:58:16Z</time>
      </trkpt>
      <trkpt lat="45.76757" lon="6.53203">
        <ele>1627.3</ele>
        <time>2025-08-15T14:58:17Z</time>
      </trkpt>
      <trkpt lat="45.76753" lon="6.53204">
        <ele>1627.7</ele>
        <time>2025-08-15T14:58:18Z</time>
      </trkpt>
      <trkpt lat="45.76749" lon="6.53206">
        <ele>1628.1</ele>
        <time>2025-08-15T14:58:19Z</time>
      </trkpt>
      <trkpt lat="45.76745" lon="6.53207">
        <ele>1628.4</ele>
        <time>2025-08-15T14:58:20Z</time>
      </trkpt>
      <trkpt lat="45.76741" lon="6.53208">
        <ele>1628.8</ele>
        <time>2025-08-15T14:58:21Z</time>
      </trkpt>
      <trkpt lat="45.76738" lon="6.53209">
        <ele>1629.2</ele>
        <time>2025-08-15T14:58:22Z</time>
      </trkpt>
      <trkpt lat="45.76734" lon="6.53211">
        <ele>1629.5</ele>
        <time>2025-08-15T14:58:23Z</time>
      </trkpt>
      <trkpt lat="45.76731" lon="6.53213">
        <ele>1629.9</ele>
        <time>2025-08-15T14:58:24Z</time>
      </trkpt>
      <trkpt lat="45.76726" lon="6.53214">
        <ele>1630.2</ele>
        <time>2025-08-15T14:58:25Z</time>
      </trkpt>
      <trkpt lat="45.76722" lon="6.53215">
        <ele>1630.6</ele>
        <time>2025-08-15T14:58:26Z</time>
      </trkpt>
      <trkpt lat="45.76718" lon="6.53217">
        <ele>1631</ele>
        <time>2025-08-15T14:58:27Z</time>
      </trkpt>
      <trkpt lat="45.76714" lon="6.53218">
        <ele>1631.3</ele>
        <time>2025-08-15T14:58:28Z</time>
      </trkpt>
      <trkpt lat="45.7671" lon="6.53219">
        <ele>1631.7</ele>
        <time>2025-08-15T14:58:29Z</time>
      </trkpt>
      <trkpt lat="45.76706" lon="6.5322">
        <ele>1632.1</ele>
        <time>2025-08-15T14:58:30Z</time>
      </trkpt>
      <trkpt lat="45.76702" lon="6.53222">
        <ele>1632.4</ele>
        <time>2025-08-15T14:58:31Z</time>
      </trkpt>
      <trkpt lat="45.76698" lon="6.53223">
        <ele>1632.8</ele>
        <time>2025-08-15T14:58:32Z</time>
      </trkpt>
      <trkpt lat="45.76695" lon="6.53225">
        <ele>1633.1</ele>
        <time>2025-08-15T14:58:33Z</time>
      </trkpt>
      <trkpt lat="45.76691" lon="6.53226">
        <ele>1633.5</ele>
        <time>2025-08-15T14:58:34Z</time>
      </trkpt>
      <trkpt lat="45.76687" lon="6.53228">
        <ele>1633.8</ele>
        <time>2025-08-15T14:58:35Z</time>
      </trkpt>
      <trkpt lat="45.76683" lon="6.53229">
        <ele>1634.2</ele>
        <time>2025-08-15T14:58:36Z</time>
      </trkpt>
      <trkpt lat="45.76679" lon="6.53231">
        <ele>1634.5</ele>
        <time>2025-08-15T14:58:37Z</time>
      </trkpt>
      <trkpt lat="45.76675" lon="6.53232">
        <ele>1634.9</ele>
        <time>2025-08-15T14:58:38Z</time>
      </trkpt>
      <trkpt lat="45.76672" lon="6.53234">
        <ele>1635.2</ele>
        <time>2025-08-15T14:58:39Z</time>
      </trkpt>
      <trkpt lat="45.76668" lon="6.53236">
        <ele>1635.6</ele>
        <time>2025-08-15T14:58:40Z</time>
      </trkpt>
      <trkpt lat="45.76664" lon="6.53238">
        <ele>1635.9</ele>
        <time>2025-08-15T14:58:41Z</time>
      </trkpt>
      <trkpt lat="45.76661" lon="6.53239">
        <ele>1636.2</ele>
        <time>2025-08-15T14:58:42Z</time>
      </trkpt>
      <trkpt lat="45.76657" lon="6.53241">
        <ele>1636.6</ele>
        <time>2025-08-15T14:58:43Z</time>
      </trkpt>
      <trkpt lat="45.76653" lon="6.53243">
        <ele>1636.9</ele>
        <time>2025-08-15T14:58:44Z</time>
      </trkpt>
      <trkpt lat="45.76649" lon="6.53244">
        <ele>1637.3</ele>
        <time>2025-08-15T14:58:45Z</time>
      </trkpt>
      <trkpt lat="45.76645" lon="6.53246">
        <ele>1637.6</ele>
        <time>2025-08-15T14:58:47Z</time>
      </trkpt>
      <trkpt lat="45.76641" lon="6.53248">
        <ele>1638</ele>
        <time>2025-08-15T14:58:48Z</time>
      </trkpt>
      <trkpt lat="45.76637" lon="6.5325">
        <ele>1638.2</ele>
        <time>2025-08-15T14:58:49Z</time>
      </trkpt>
      <trkpt lat="45.76634" lon="6.53252">
        <ele>1638.6</ele>
        <time>2025-08-15T14:58:50Z</time>
      </trkpt>
      <trkpt lat="45.7663" lon="6.53254">
        <ele>1638.9</ele>
        <time>2025-08-15T14:58:51Z</time>
      </trkpt>
      <trkpt lat="45.76627" lon="6.53256">
        <ele>1639.2</ele>
        <time>2025-08-15T14:58:52Z</time>
      </trkpt>
      <trkpt lat="45.76623" lon="6.53257">
        <ele>1639.5</ele>
        <time>2025-08-15T14:58:53Z</time>
      </trkpt>
      <trkpt lat="45.76619" lon="6.53258">
        <ele>1639.9</ele>
        <time>2025-08-15T14:58:54Z</time>
      </trkpt>
      <trkpt lat="45.76615" lon="6.5326">
        <ele>1640.2</ele>
        <time>2025-08-15T14:58:55Z</time>
      </trkpt>
      <trkpt lat="45.76611" lon="6.53262">
        <ele>1640.5</ele>
        <time>2025-08-15T14:58:56Z</time>
      </trkpt>
      <trkpt lat="45.76607" lon="6.53264">
        <ele>1640.8</ele>
        <time>2025-08-15T14:58:57Z</time>
      </trkpt>
      <trkpt lat="45.76604" lon="6.53266">
        <ele>1641.1</ele>
        <time>2025-08-15T14:58:58Z</time>
      </trkpt>
      <trkpt lat="45.766" lon="6.53269">
        <ele>1641.3</ele>
        <time>2025-08-15T14:58:59Z</time>
      </trkpt>
      <trkpt lat="45.76596" lon="6.53272">
        <ele>1641.5</ele>
        <time>2025-08-15T14:59:00Z</time>
      </trkpt>
      <trkpt lat="45.76593" lon="6.53275">
        <ele>1641.7</ele>
        <time>2025-08-15T14:59:01Z</time>
      </trkpt>
      <trkpt lat="45.76589" lon="6.53278">
        <ele>1641.9</ele>
        <time>2025-08-15T14:59:02Z</time>
      </trkpt>
      <trkpt lat="45.76585" lon="6.53281">
        <ele>1642.1</ele>
        <time>2025-08-15T14:59:03Z</time>
      </trkpt>
      <trkpt lat="45.76582" lon="6.53284">
        <ele>1642.3</ele>
        <time>2025-08-15T14:59:04Z</time>
      </trkpt>
      <trkpt lat="45.76578" lon="6.53287">
        <ele>1642.4</ele>
        <time>2025-08-15T14:59:05Z</time>
      </trkpt>
      <trkpt lat="45.76574" lon="6.53291">
        <ele>1642.6</ele>
        <time>2025-08-15T14:59:06Z</time>
      </trkpt>
      <trkpt lat="45.7657" lon="6.53294">
        <ele>1642.8</ele>
        <time>2025-08-15T14:59:07Z</time>
      </trkpt>
      <trkpt lat="45.76566" lon="6.53297">
        <ele>1643</ele>
        <time>2025-08-15T14:59:08Z</time>
      </trkpt>
      <trkpt lat="45.76562" lon="6.533">
        <ele>1643.2</ele>
        <time>2025-08-15T14:59:09Z</time>
      </trkpt>
      <trkpt lat="45.76558" lon="6.53303">
        <ele>1643.4</ele>
        <time>2025-08-15T14:59:10Z</time>
      </trkpt>
      <trkpt lat="45.76553" lon="6.53309">
        <ele>1643.8</ele>
        <time>2025-08-15T14:59:11Z</time>
      </trkpt>
      <trkpt lat="45.76549" lon="6.53312">
        <ele>1644</ele>
        <time>2025-08-15T14:59:12Z</time>
      </trkpt>
      <trkpt lat="45.76545" lon="6.53315">
        <ele>1644.2</ele>
        <time>2025-08-15T14:59:13Z</time>
      </trkpt>
      <trkpt lat="45.76542" lon="6.53319">
        <ele>1644.5</ele>
        <time>2025-08-15T14:59:14Z</time>
      </trkpt>
      <trkpt lat="45.76537" lon="6.53322">
        <ele>1644.8</ele>
        <time>2025-08-15T14:59:15Z</time>
      </trkpt>
      <trkpt lat="45.76534" lon="6.53325">
        <ele>1645</ele>
        <time>2025-08-15T14:59:16Z</time>
      </trkpt>
      <trkpt lat="45.7653" lon="6.53328">
        <ele>1645.3</ele>
        <time>2025-08-15T14:59:17Z</time>
      </trkpt>
      <trkpt lat="45.76526" lon="6.53331">
        <ele>1645.6</ele>
        <time>2025-08-15T14:59:18Z</time>
      </trkpt>
      <trkpt lat="45.76522" lon="6.53334">
        <ele>1645.8</ele>
        <time>2025-08-15T14:59:19Z</time>
      </trkpt>
      <trkpt lat="45.76518" lon="6.53336">
        <ele>1646.1</ele>
        <time>2025-08-15T14:59:20Z</time>
      </trkpt>
      <trkpt lat="45.76513" lon="6.53339">
        <ele>1646.4</ele>
        <time>2025-08-15T14:59:21Z</time>
      </trkpt>
      <trkpt lat="45.76509" lon="6.53341">
        <ele>1646.7</ele>
        <time>2025-08-15T14:59:22Z</time>
      </trkpt>
      <trkpt lat="45.76505" lon="6.53343">
        <ele>1647</ele>
        <time>2025-08-15T14:59:23Z</time>
      </trkpt>
      <trkpt lat="45.765" lon="6.53344">
        <ele>1647.3</ele>
        <time>2025-08-15T14:59:24Z</time>
      </trkpt>
      <trkpt lat="45.76496" lon="6.53346">
        <ele>1647.7</ele>
        <time>2025-08-15T14:59:25Z</time>
      </trkpt>
      <trkpt lat="45.76492" lon="6.53348">
        <ele>1648</ele>
        <time>2025-08-15T14:59:26Z</time>
      </trkpt>
      <trkpt lat="45.76487" lon="6.53349">
        <ele>1648.3</ele>
        <time>2025-08-15T14:59:27Z</time>
      </trkpt>
      <trkpt lat="45.76482" lon="6.5335">
        <ele>1648.7</ele>
        <time>2025-08-15T14:59:28Z</time>
      </trkpt>
      <trkpt lat="45.76478" lon="6.53352">
        <ele>1648.9</ele>
        <time>2025-08-15T14:59:29Z</time>
      </trkpt>
      <trkpt lat="45.76474" lon="6.53354">
        <ele>1649.3</ele>
        <time>2025-08-15T14:59:30Z</time>
      </trkpt>
      <trkpt lat="45.76469" lon="6.53355">
        <ele>1649.6</ele>
        <time>2025-08-15T14:59:31Z</time>
      </trkpt>
      <trkpt lat="45.76464" lon="6.53357">
        <ele>1649.9</ele>
        <time>2025-08-15T14:59:32Z</time>
      </trkpt>
      <trkpt lat="45.7646" lon="6.53358">
        <ele>1650.1</ele>
        <time>2025-08-15T14:59:33Z</time>
      </trkpt>
      <trkpt lat="45.76455" lon="6.5336">
        <ele>1650.4</ele>
        <time>2025-08-15T14:59:34Z</time>
      </trkpt>
      <trkpt lat="45.76451" lon="6.53361">
        <ele>1650.6</ele>
        <time>2025-08-15T14:59:35Z</time>
      </trkpt>
      <trkpt lat="45.76447" lon="6.53362">
        <ele>1650.8</ele>
        <time>2025-08-15T14:59:36Z</time>
      </trkpt>
      <trkpt lat="45.76443" lon="6.53364">
        <ele>1651.1</ele>
        <time>2025-08-15T14:59:37Z</time>
      </trkpt>
      <trkpt lat="45.76439" lon="6.53365">
        <ele>1651.3</ele>
        <time>2025-08-15T14:59:38Z</time>
      </trkpt>
      <trkpt lat="45.76435" lon="6.53367">
        <ele>1651.5</ele>
        <time>2025-08-15T14:59:39Z</time>
      </trkpt>
      <trkpt lat="45.7643" lon="6.53369">
        <ele>1651.7</ele>
        <time>2025-08-15T14:59:40Z</time>
      </trkpt>
      <trkpt lat="45.76426" lon="6.5337">
        <ele>1651.9</ele>
        <time>2025-08-15T14:59:41Z</time>
      </trkpt>
      <trkpt lat="45.76421" lon="6.53372">
        <ele>1652.1</ele>
        <time>2025-08-15T14:59:42Z</time>
      </trkpt>
      <trkpt lat="45.76417" lon="6.53373">
        <ele>1652.3</ele>
        <time>2025-08-15T14:59:43Z</time>
      </trkpt>
      <trkpt lat="45.76412" lon="6.53375">
        <ele>1652.5</ele>
        <time>2025-08-15T14:59:44Z</time>
      </trkpt>
      <trkpt lat="45.76408" lon="6.53377">
        <ele>1652.7</ele>
        <time>2025-08-15T14:59:45Z</time>
      </trkpt>
      <trkpt lat="45.76404" lon="6.53379">
        <ele>1652.9</ele>
        <time>2025-08-15T14:59:46Z</time>
      </trkpt>
      <trkpt lat="45.764" lon="6.5338">
        <ele>1653.1</ele>
        <time>2025-08-15T14:59:47Z</time>
      </trkpt>
      <trkpt lat="45.76396" lon="6.53381">
        <ele>1653.3</ele>
        <time>2025-08-15T14:59:48Z</time>
      </trkpt>
      <trkpt lat="45.76392" lon="6.53382">
        <ele>1653.5</ele>
        <time>2025-08-15T14:59:49Z</time>
      </trkpt>
      <trkpt lat="45.76389" lon="6.53383">
        <ele>1653.7</ele>
        <time>2025-08-15T14:59:50Z</time>
      </trkpt>
      <trkpt lat="45.76386" lon="6.53384">
        <ele>1653.8</ele>
        <time>2025-08-15T14:59:51Z</time>
      </trkpt>
      <trkpt lat="45.76383" lon="6.53384">
        <ele>1654</ele>
        <time>2025-08-15T14:59:52Z</time>
      </trkpt>
      <trkpt lat="45.76379" lon="6.53385">
        <ele>1654</ele>
        <time>2025-08-15T14:59:53Z</time>
      </trkpt>
      <trkpt lat="45.76376" lon="6.53384">
        <ele>1654.1</ele>
        <time>2025-08-15T14:59:54Z</time>
      </trkpt>
      <trkpt lat="45.76375" lon="6.53383">
        <ele>1654.2</ele>
        <time>2025-08-15T14:59:55Z</time>
      </trkpt>
      <trkpt lat="45.76372" lon="6.53381">
        <ele>1654.2</ele>
        <time>2025-08-15T14:59:56Z</time>
      </trkpt>
      <trkpt lat="45.76371" lon="6.53381">
        <ele>1654.3</ele>
        <time>2025-08-15T14:59:57Z</time>
      </trkpt>
      <trkpt lat="45.76369" lon="6.53381">
        <ele>1654.3</ele>
        <time>2025-08-15T14:59:58Z</time>
      </trkpt>
      <trkpt lat="45.76368" lon="6.53381">
        <ele>1654.3</ele>
        <time>2025-08-15T14:59:59Z</time>
      </trkpt>
      <trkpt lat="45.76366" lon="6.53381">
        <ele>1654.4</ele>
        <time>2025-08-15T15:00:00Z</time>
      </trkpt>
      <trkpt lat="45.76365" lon="6.53381">
        <ele>1654.4</ele>
        <time>2025-08-15T15:00:01Z</time>
      </trkpt>
      <trkpt lat="45.76362" lon="6.53381">
        <ele>1654.5</ele>
        <time>2025-08-15T15:00:02Z</time>
      </trkpt>
      <trkpt lat="45.76362" lon="6.53382">
        <ele>1654.5</ele>
        <time>2025-08-15T15:00:03Z</time>
      </trkpt>
      <trkpt lat="45.76361" lon="6.53382">
        <ele>1654.5</ele>
        <time>2025-08-15T15:00:04Z</time>
      </trkpt>
      <trkpt lat="45.7636" lon="6.53383">
        <ele>1654.5</ele>
        <time>2025-08-15T15:00:05Z</time>
      </trkpt>
      <trkpt lat="45.7636" lon="6.53383">
        <ele>1654.5</ele>
        <time>2025-08-15T15:00:06Z</time>
      </trkpt>
      <trkpt lat="45.7636" lon="6.53383">
        <ele>1654.5</ele>
        <time>2025-08-15T15:00:07Z</time>
      </trkpt>
      <trkpt lat="45.7636" lon="6.53383">
        <ele>1654.5</ele>
        <time>2025-08-15T15:00:08Z</time>
      </trkpt>
      <trkpt lat="45.76359" lon="6.53383">
        <ele>1654.5</ele>
        <time>2025-08-15T15:00:09Z</time>
      </trkpt>
      <trkpt lat="45.76359" lon="6.53384">
        <ele>1654.6</ele>
        <time>2025-08-15T15:00:10Z</time>
      </trkpt>
      <trkpt lat="45.76359" lon="6.53384">
        <ele>1654.6</ele>
        <time>2025-08-15T15:00:11Z</time>
      </trkpt>
      <trkpt lat="45.76359" lon="6.53384">
        <ele>1654.6</ele>
        <time>2025-08-15T15:00:12Z</time>
      </trkpt>
      <trkpt lat="45.76359" lon="6.53384">
        <ele>1654.6</ele>
        <time>2025-08-15T15:00:13Z</time>
      </trkpt>
      <trkpt lat="45.7636" lon="6.53383">
        <ele>1654.6</ele>
        <time>2025-08-15T15:00:14Z</time>
      </trkpt>
      <trkpt lat="45.7636" lon="6.53383">
        <ele>1654.6</ele>
        <time>2025-08-15T15:00:15Z</time>
      </trkpt>
      <trkpt lat="45.7636" lon="6.53384">
        <ele>1654.6</ele>
        <time>2025-08-15T15:01:12Z</time>
      </trkpt>
      <trkpt lat="45.76361" lon="6.53384">
        <ele>1654.6</ele>
        <time>2025-08-15T15:01:13Z</time>
      </trkpt>
      <trkpt lat="45.76361" lon="6.53384">
        <ele>1654.6</ele>
        <time>2025-08-15T15:01:14Z</time>
      </trkpt>
      <trkpt lat="45.76361" lon="6.53384">
        <ele>1654.6</ele>
        <time>2025-08-15T15:01:15Z</time>
      </trkpt>
      <trkpt lat="45.76361" lon="6.53384">
        <ele>1654.6</ele>
        <time>2025-08-15T15:01:16Z</time>
      </trkpt>
      <trkpt lat="45.76361" lon="6.53384">
        <ele>1654.6</ele>
        <time>2025-08-15T15:01:17Z</time>
      </trkpt>
      <trkpt lat="45.76361" lon="6.53383">
        <ele>1654.6</ele>
        <time>2025-08-15T15:01:18Z</time>
      </trkpt>
      <trkpt lat="45.76361" lon="6.53383">
        <ele>1654.6</ele>
        <time>2025-08-15T15:01:19Z</time>
      </trkpt>
      <trkpt lat="45.76361" lon="6.53384">
        <ele>1654.7</ele>
        <time>2025-08-15T15:01:20Z</time>
      </trkpt>
      <trkpt lat="45.76361" lon="6.53383">
        <ele>1654.7</ele>
        <time>2025-08-15T15:01:21Z</time>
      </trkpt>
      <trkpt lat="45.76357" lon="6.53382">
        <ele>1654.7</ele>
        <time>2025-08-15T15:05:08Z</time>
      </trkpt>
      <trkpt lat="45.76357" lon="6.53382">
        <ele>1654.8</ele>
        <time>2025-08-15T15:05:09Z</time>
      </trkpt>
      <trkpt lat="45.76357" lon="6.53381">
        <ele>1654.8</ele>
        <time>2025-08-15T15:05:10Z</time>
      </trkpt>
      <trkpt lat="45.76357" lon="6.53381">
        <ele>1654.8</ele>
        <time>2025-08-15T15:05:11Z</time>
      </trkpt>
      <trkpt lat="45.76357" lon="6.53381">
        <ele>1654.8</ele>
        <time>2025-08-15T15:05:12Z</time>
      </trkpt>
      <trkpt lat="45.76357" lon="6.53382">
        <ele>1654.8</ele>
        <time>2025-08-15T15:05:13Z</time>
      </trkpt>
      <trkpt lat="45.76358" lon="6.53382">
        <ele>1654.8</ele>
        <time>2025-08-15T15:05:14Z</time>
      </trkpt>
      <trkpt lat="45.76358" lon="6.53382">
        <ele>1654.8</ele>
        <time>2025-08-15T15:05:15Z</time>
      </trkpt>
      <trkpt lat="45.76358" lon="6.53382">
        <ele>1654.8</ele>
        <time>2025-08-15T15:05:16Z</time>
      </trkpt>
      <trkpt lat="45.76354" lon="6.53376">
        <ele>1655.1</ele>
        <time>2025-08-15T15:05:27Z</time>
      </trkpt>
      <trkpt lat="45.76352" lon="6.53375">
        <ele>1655.1</ele>
        <time>2025-08-15T15:05:28Z</time>
      </trkpt>
      <trkpt lat="45.76351" lon="6.53373">
        <ele>1655.2</ele>
        <time>2025-08-15T15:05:29Z</time>
      </trkpt>
      <trkpt lat="45.7635" lon="6.53372">
        <ele>1655.3</ele>
        <time>2025-08-15T15:05:30Z</time>
      </trkpt>
      <trkpt lat="45.76348" lon="6.53369">
        <ele>1655.4</ele>
        <time>2025-08-15T15:05:31Z</time>
      </trkpt>
      <trkpt lat="45.76347" lon="6.53368">
        <ele>1655.4</ele>
        <time>2025-08-15T15:05:32Z</time>
      </trkpt>
      <trkpt lat="45.76345" lon="6.53365">
        <ele>1655.5</ele>
        <time>2025-08-15T15:05:33Z</time>
      </trkpt>
      <trkpt lat="45.76345" lon="6.53364">
        <ele>1655.5</ele>
        <time>2025-08-15T15:05:34Z</time>
      </trkpt>
      <trkpt lat="45.76343" lon="6.53363">
        <ele>1655.5</ele>
        <time>2025-08-15T15:05:35Z</time>
      </trkpt>
      <trkpt lat="45.76342" lon="6.53362">
        <ele>1655.6</ele>
        <time>2025-08-15T15:05:36Z</time>
      </trkpt>
      <trkpt lat="45.7634" lon="6.53361">
        <ele>1655.6</ele>
        <time>2025-08-15T15:05:37Z</time>
      </trkpt>
      <trkpt lat="45.76339" lon="6.53361">
        <ele>1655.6</ele>
        <time>2025-08-15T15:05:38Z</time>
      </trkpt>
      <trkpt lat="45.76337" lon="6.53361">
        <ele>1655.7</ele>
        <time>2025-08-15T15:05:39Z</time>
      </trkpt>
      <trkpt lat="45.76336" lon="6.5336">
        <ele>1655.7</ele>
        <time>2025-08-15T15:05:40Z</time>
      </trkpt>
      <trkpt lat="45.76335" lon="6.5336">
        <ele>1655.7</ele>
        <time>2025-08-15T15:05:41Z</time>
      </trkpt>
      <trkpt lat="45.76333" lon="6.53359">
        <ele>1655.8</ele>
        <time>2025-08-15T15:05:42Z</time>
      </trkpt>
      <trkpt lat="45.76332" lon="6.53357">
        <ele>1655.8</ele>
        <time>2025-08-15T15:05:43Z</time>
      </trkpt>
      <trkpt lat="45.7633" lon="6.53356">
        <ele>1655.8</ele>
        <time>2025-08-15T15:05:44Z</time>
      </trkpt>
      <trkpt lat="45.76328" lon="6.53355">
        <ele>1655.8</ele>
        <time>2025-08-15T15:05:45Z</time>
      </trkpt>
      <trkpt lat="45.76327" lon="6.53354">
        <ele>1655.9</ele>
        <time>2025-08-15T15:05:46Z</time>
      </trkpt>
      <trkpt lat="45.76325" lon="6.53352">
        <ele>1655.9</ele>
        <time>2025-08-15T15:05:47Z</time>
      </trkpt>
      <trkpt lat="45.76324" lon="6.53352">
        <ele>1655.9</ele>
        <time>2025-08-15T15:05:48Z</time>
      </trkpt>
      <trkpt lat="45.76324" lon="6.53351">
        <ele>1655.9</ele>
        <time>2025-08-15T15:05:49Z</time>
      </trkpt>
      <trkpt lat="45.76321" lon="6.53347">
        <ele>1656</ele>
        <time>2025-08-15T15:05:50Z</time>
      </trkpt>
      <trkpt lat="45.7632" lon="6.53346">
        <ele>1656</ele>
        <time>2025-08-15T15:05:51Z</time>
      </trkpt>
      <trkpt lat="45.76317" lon="6.53345">
        <ele>1656</ele>
        <time>2025-08-15T15:05:52Z</time>
      </trkpt>
      <trkpt lat="45.76316" lon="6.53344">
        <ele>1656.1</ele>
        <time>2025-08-15T15:05:53Z</time>
      </trkpt>
      <trkpt lat="45.76313" lon="6.53343">
        <ele>1656.1</ele>
        <time>2025-08-15T15:05:54Z</time>
      </trkpt>
      <trkpt lat="45.76312" lon="6.53342">
        <ele>1656.1</ele>
        <time>2025-08-15T15:05:55Z</time>
      </trkpt>
      <trkpt lat="45.76309" lon="6.53339">
        <ele>1656.2</ele>
        <time>2025-08-15T15:05:56Z</time>
      </trkpt>
      <trkpt lat="45.76308" lon="6.53338">
        <ele>1656.2</ele>
        <time>2025-08-15T15:05:57Z</time>
      </trkpt>
      <trkpt lat="45.76305" lon="6.53335">
        <ele>1656.3</ele>
        <time>2025-08-15T15:05:58Z</time>
      </trkpt>
      <trkpt lat="45.76304" lon="6.53334">
        <ele>1656.3</ele>
        <time>2025-08-15T15:05:59Z</time>
      </trkpt>
      <trkpt lat="45.76301" lon="6.53332">
        <ele>1656.4</ele>
        <time>2025-08-15T15:06:00Z</time>
      </trkpt>
      <trkpt lat="45.76299" lon="6.53332">
        <ele>1656.4</ele>
        <time>2025-08-15T15:06:01Z</time>
      </trkpt>
      <trkpt lat="45.76296" lon="6.53328">
        <ele>1656.5</ele>
        <time>2025-08-15T15:06:02Z</time>
      </trkpt>
      <trkpt lat="45.76295" lon="6.53327">
        <ele>1656.5</ele>
        <time>2025-08-15T15:06:03Z</time>
      </trkpt>
      <trkpt lat="45.76293" lon="6.53326">
        <ele>1656.5</ele>
        <time>2025-08-15T15:06:04Z</time>
      </trkpt>
      <trkpt lat="45.7629" lon="6.53324">
        <ele>1656.6</ele>
        <time>2025-08-15T15:06:05Z</time>
      </trkpt>
      <trkpt lat="45.76287" lon="6.53322">
        <ele>1656.6</ele>
        <time>2025-08-15T15:06:06Z</time>
      </trkpt>
      <trkpt lat="45.76285" lon="6.53321">
        <ele>1656.7</ele>
        <time>2025-08-15T15:06:07Z</time>
      </trkpt>
      <trkpt lat="45.76281" lon="6.5332">
        <ele>1656.7</ele>
        <time>2025-08-15T15:06:08Z</time>
      </trkpt>
      <trkpt lat="45.76279" lon="6.53319">
        <ele>1656.8</ele>
        <time>2025-08-15T15:06:09Z</time>
      </trkpt>
      <trkpt lat="45.76276" lon="6.53318">
        <ele>1656.8</ele>
        <time>2025-08-15T15:06:10Z</time>
      </trkpt>
      <trkpt lat="45.76273" lon="6.53317">
        <ele>1656.8</ele>
        <time>2025-08-15T15:06:11Z</time>
      </trkpt>
      <trkpt lat="45.76269" lon="6.53316">
        <ele>1656.9</ele>
        <time>2025-08-15T15:06:12Z</time>
      </trkpt>
      <trkpt lat="45.76268" lon="6.53316">
        <ele>1656.9</ele>
        <time>2025-08-15T15:06:13Z</time>
      </trkpt>
      <trkpt lat="45.76265" lon="6.53316">
        <ele>1656.9</ele>
        <time>2025-08-15T15:06:14Z</time>
      </trkpt>
      <trkpt lat="45.76262" lon="6.53315">
        <ele>1657</ele>
        <time>2025-08-15T15:06:15Z</time>
      </trkpt>
      <trkpt lat="45.76259" lon="6.53314">
        <ele>1657</ele>
        <time>2025-08-15T15:06:16Z</time>
      </trkpt>
      <trkpt lat="45.76256" lon="6.53313">
        <ele>1657</ele>
        <time>2025-08-15T15:06:17Z</time>
      </trkpt>
      <trkpt lat="45.76252" lon="6.53312">
        <ele>1657</ele>
        <time>2025-08-15T15:06:18Z</time>
      </trkpt>
      <trkpt lat="45.76251" lon="6.53312">
        <ele>1657</ele>
        <time>2025-08-15T15:06:19Z</time>
      </trkpt>
      <trkpt lat="45.76247" lon="6.53311">
        <ele>1657.1</ele>
        <time>2025-08-15T15:06:20Z</time>
      </trkpt>
      <trkpt lat="45.76246" lon="6.53311">
        <ele>1657.1</ele>
        <time>2025-08-15T15:06:21Z</time>
      </trkpt>
      <trkpt lat="45.76243" lon="6.5331">
        <ele>1657.1</ele>
        <time>2025-08-15T15:06:22Z</time>
      </trkpt>
      <trkpt lat="45.7624" lon="6.5331">
        <ele>1657.1</ele>
        <time>2025-08-15T15:06:23Z</time>
      </trkpt>
      <trkpt lat="45.76236" lon="6.53309">
        <ele>1657.2</ele>
        <time>2025-08-15T15:06:24Z</time>
      </trkpt>
      <trkpt lat="45.76235" lon="6.53309">
        <ele>1657.2</ele>
        <time>2025-08-15T15:06:25Z</time>
      </trkpt>
      <trkpt lat="45.76231" lon="6.53308">
        <ele>1657.2</ele>
        <time>2025-08-15T15:06:26Z</time>
      </trkpt>
      <trkpt lat="45.7623" lon="6.53308">
        <ele>1657.2</ele>
        <time>2025-08-15T15:06:27Z</time>
      </trkpt>
      <trkpt lat="45.76227" lon="6.53308">
        <ele>1657.3</ele>
        <time>2025-08-15T15:06:28Z</time>
      </trkpt>
      <trkpt lat="45.76223" lon="6.53308">
        <ele>1657.3</ele>
        <time>2025-08-15T15:06:29Z</time>
      </trkpt>
      <trkpt lat="45.76222" lon="6.53308">
        <ele>1657.3</ele>
        <time>2025-08-15T15:06:30Z</time>
      </trkpt>
      <trkpt lat="45.76219" lon="6.53307">
        <ele>1657.3</ele>
        <time>2025-08-15T15:06:31Z</time>
      </trkpt>
      <trkpt lat="45.76218" lon="6.53307">
        <ele>1657.4</ele>
        <time>2025-08-15T15:06:32Z</time>
      </trkpt>
      <trkpt lat="45.76214" lon="6.53306">
        <ele>1657.4</ele>
        <time>2025-08-15T15:06:33Z</time>
      </trkpt>
      <trkpt lat="45.76212" lon="6.53306">
        <ele>1657.4</ele>
        <time>2025-08-15T15:06:34Z</time>
      </trkpt>
      <trkpt lat="45.76209" lon="6.53306">
        <ele>1657.4</ele>
        <time>2025-08-15T15:06:35Z</time>
      </trkpt>
      <trkpt lat="45.76207" lon="6.53306">
        <ele>1657.4</ele>
        <time>2025-08-15T15:06:36Z</time>
      </trkpt>
      <trkpt lat="45.76203" lon="6.53305">
        <ele>1657.5</ele>
        <time>2025-08-15T15:06:37Z</time>
      </trkpt>
      <trkpt lat="45.76202" lon="6.53305">
        <ele>1657.5</ele>
        <time>2025-08-15T15:06:38Z</time>
      </trkpt>
      <trkpt lat="45.762" lon="6.53303">
        <ele>1657.5</ele>
        <time>2025-08-15T15:06:39Z</time>
      </trkpt>
      <trkpt lat="45.76197" lon="6.53299">
        <ele>1657.5</ele>
        <time>2025-08-15T15:06:40Z</time>
      </trkpt>
      <trkpt lat="45.76197" lon="6.53298">
        <ele>1657.5</ele>
        <time>2025-08-15T15:06:41Z</time>
      </trkpt>
      <trkpt lat="45.76197" lon="6.53293">
        <ele>1657.5</ele>
        <time>2025-08-15T15:06:42Z</time>
      </trkpt>
      <trkpt lat="45.76197" lon="6.53292">
        <ele>1657.5</ele>
        <time>2025-08-15T15:06:43Z</time>
      </trkpt>
      <trkpt lat="45.76195" lon="6.53287">
        <ele>1657.5</ele>
        <time>2025-08-15T15:06:44Z</time>
      </trkpt>
      <trkpt lat="45.76194" lon="6.53286">
        <ele>1657.5</ele>
        <time>2025-08-15T15:06:45Z</time>
      </trkpt>
      <trkpt lat="45.76192" lon="6.53283">
        <ele>1657.5</ele>
        <time>2025-08-15T15:06:46Z</time>
      </trkpt>
      <trkpt lat="45.76191" lon="6.53282">
        <ele>1657.5</ele>
        <time>2025-08-15T15:06:47Z</time>
      </trkpt>
      <trkpt lat="45.76188" lon="6.53282">
        <ele>1657.4</ele>
        <time>2025-08-15T15:06:48Z</time>
      </trkpt>
      <trkpt lat="45.76185" lon="6.53282">
        <ele>1657.4</ele>
        <time>2025-08-15T15:06:49Z</time>
      </trkpt>
      <trkpt lat="45.76182" lon="6.53282">
        <ele>1657.4</ele>
        <time>2025-08-15T15:06:50Z</time>
      </trkpt>
      <trkpt lat="45.76179" lon="6.53281">
        <ele>1657.4</ele>
        <time>2025-08-15T15:06:51Z</time>
      </trkpt>
      <trkpt lat="45.76176" lon="6.53281">
        <ele>1657.3</ele>
        <time>2025-08-15T15:06:52Z</time>
      </trkpt>
      <trkpt lat="45.76173" lon="6.53281">
        <ele>1657.3</ele>
        <time>2025-08-15T15:06:53Z</time>
      </trkpt>
      <trkpt lat="45.7617" lon="6.53281">
        <ele>1657.2</ele>
        <time>2025-08-15T15:06:54Z</time>
      </trkpt>
      <trkpt lat="45.76166" lon="6.53281">
        <ele>1657.1</ele>
        <time>2025-08-15T15:06:55Z</time>
      </trkpt>
      <trkpt lat="45.76163" lon="6.53281">
        <ele>1657.1</ele>
        <time>2025-08-15T15:06:56Z</time>
      </trkpt>
      <trkpt lat="45.76159" lon="6.53281">
        <ele>1657</ele>
        <time>2025-08-15T15:06:57Z</time>
      </trkpt>
      <trkpt lat="45.76156" lon="6.53281">
        <ele>1656.9</ele>
        <time>2025-08-15T15:06:58Z</time>
      </trkpt>
      <trkpt lat="45.76153" lon="6.53281">
        <ele>1656.9</ele>
        <time>2025-08-15T15:06:59Z</time>
      </trkpt>
      <trkpt lat="45.76149" lon="6.53281">
        <ele>1656.8</ele>
        <time>2025-08-15T15:07:00Z</time>
      </trkpt>
      <trkpt lat="45.76146" lon="6.53282">
        <ele>1656.8</ele>
        <time>2025-08-15T15:07:01Z</time>
      </trkpt>
      <trkpt lat="45.76143" lon="6.53282">
        <ele>1656.7</ele>
        <time>2025-08-15T15:07:02Z</time>
      </trkpt>
      <trkpt lat="45.7614" lon="6.53282">
        <ele>1656.7</ele>
        <time>2025-08-15T15:07:03Z</time>
      </trkpt>
      <trkpt lat="45.76136" lon="6.53282">
        <ele>1656.7</ele>
        <time>2025-08-15T15:07:04Z</time>
      </trkpt>
      <trkpt lat="45.76134" lon="6.53282">
        <ele>1656.6</ele>
        <time>2025-08-15T15:07:05Z</time>
      </trkpt>
      <trkpt lat="45.76131" lon="6.53283">
        <ele>1656.6</ele>
        <time>2025-08-15T15:07:06Z</time>
      </trkpt>
      <trkpt lat="45.7613" lon="6.53283">
        <ele>1656.6</ele>
        <time>2025-08-15T15:07:07Z</time>
      </trkpt>
      <trkpt lat="45.76127" lon="6.53283">
        <ele>1656.6</ele>
        <time>2025-08-15T15:07:08Z</time>
      </trkpt>
      <trkpt lat="45.76126" lon="6.53283">
        <ele>1656.6</ele>
        <time>2025-08-15T15:07:09Z</time>
      </trkpt>
      <trkpt lat="45.76123" lon="6.53284">
        <ele>1656.5</ele>
        <time>2025-08-15T15:07:11Z</time>
      </trkpt>
      <trkpt lat="45.76122" lon="6.53285">
        <ele>1656.5</ele>
        <time>2025-08-15T15:07:12Z</time>
      </trkpt>
      <trkpt lat="45.76119" lon="6.53285">
        <ele>1656.5</ele>
        <time>2025-08-15T15:07:13Z</time>
      </trkpt>
      <trkpt lat="45.76118" lon="6.53285">
        <ele>1656.5</ele>
        <time>2025-08-15T15:07:14Z</time>
      </trkpt>
      <trkpt lat="45.76114" lon="6.53285">
        <ele>1656.4</ele>
        <time>2025-08-15T15:07:15Z</time>
      </trkpt>
      <trkpt lat="45.76113" lon="6.53285">
        <ele>1656.4</ele>
        <time>2025-08-15T15:07:16Z</time>
      </trkpt>
      <trkpt lat="45.7611" lon="6.53286">
        <ele>1656.4</ele>
        <time>2025-08-15T15:07:17Z</time>
      </trkpt>
      <trkpt lat="45.76109" lon="6.53286">
        <ele>1656.4</ele>
        <time>2025-08-15T15:07:18Z</time>
      </trkpt>
      <trkpt lat="45.76107" lon="6.53286">
        <ele>1656.4</ele>
        <time>2025-08-15T15:07:19Z</time>
      </trkpt>
      <trkpt lat="45.76106" lon="6.53287">
        <ele>1656.4</ele>
        <time>2025-08-15T15:07:20Z</time>
      </trkpt>
      <trkpt lat="45.76102" lon="6.53287">
        <ele>1656.3</ele>
        <time>2025-08-15T15:07:21Z</time>
      </trkpt>
      <trkpt lat="45.76101" lon="6.53287">
        <ele>1656.3</ele>
        <time>2025-08-15T15:07:22Z</time>
      </trkpt>
      <trkpt lat="45.76098" lon="6.53287">
        <ele>1656.3</ele>
        <time>2025-08-15T15:07:23Z</time>
      </trkpt>
      <trkpt lat="45.76097" lon="6.53288">
        <ele>1656.3</ele>
        <time>2025-08-15T15:07:24Z</time>
      </trkpt>
      <trkpt lat="45.76093" lon="6.53289">
        <ele>1656.3</ele>
        <time>2025-08-15T15:07:25Z</time>
      </trkpt>
      <trkpt lat="45.76092" lon="6.53289">
        <ele>1656.3</ele>
        <time>2025-08-15T15:07:26Z</time>
      </trkpt>
      <trkpt lat="45.76089" lon="6.5329">
        <ele>1656.2</ele>
        <time>2025-08-15T15:07:27Z</time>
      </trkpt>
      <trkpt lat="45.76088" lon="6.5329">
        <ele>1656.2</ele>
        <time>2025-08-15T15:07:28Z</time>
      </trkpt>
      <trkpt lat="45.76085" lon="6.53291">
        <ele>1656.2</ele>
        <time>2025-08-15T15:07:29Z</time>
      </trkpt>
      <trkpt lat="45.76083" lon="6.53291">
        <ele>1656.2</ele>
        <time>2025-08-15T15:07:30Z</time>
      </trkpt>
      <trkpt lat="45.7608" lon="6.53291">
        <ele>1656.2</ele>
        <time>2025-08-15T15:07:31Z</time>
      </trkpt>
      <trkpt lat="45.76079" lon="6.53291">
        <ele>1656.2</ele>
        <time>2025-08-15T15:07:32Z</time>
      </trkpt>
      <trkpt lat="45.76078" lon="6.53291">
        <ele>1656.2</ele>
        <time>2025-08-15T15:07:33Z</time>
      </trkpt>
      <trkpt lat="45.76076" lon="6.53291">
        <ele>1656.2</ele>
        <time>2025-08-15T15:07:34Z</time>
      </trkpt>
      <trkpt lat="45.76073" lon="6.5329">
        <ele>1656.2</ele>
        <time>2025-08-15T15:07:35Z</time>
      </trkpt>
      <trkpt lat="45.76072" lon="6.5329">
        <ele>1656.2</ele>
        <time>2025-08-15T15:07:36Z</time>
      </trkpt>
      <trkpt lat="45.76069" lon="6.53291">
        <ele>1656.2</ele>
        <time>2025-08-15T15:07:37Z</time>
      </trkpt>
      <trkpt lat="45.76068" lon="6.53291">
        <ele>1656.2</ele>
        <time>2025-08-15T15:07:38Z</time>
      </trkpt>
      <trkpt lat="45.76065" lon="6.53291">
        <ele>1656.2</ele>
        <time>2025-08-15T15:07:39Z</time>
      </trkpt>
      <trkpt lat="45.76063" lon="6.53291">
        <ele>1656.2</ele>
        <time>2025-08-15T15:07:40Z</time>
      </trkpt>
      <trkpt lat="45.76059" lon="6.53292">
        <ele>1656.2</ele>
        <time>2025-08-15T15:07:41Z</time>
      </trkpt>
      <trkpt lat="45.76058" lon="6.53293">
        <ele>1656.2</ele>
        <time>2025-08-15T15:07:42Z</time>
      </trkpt>
      <trkpt lat="45.76055" lon="6.53293">
        <ele>1656.2</ele>
        <time>2025-08-15T15:07:43Z</time>
      </trkpt>
      <trkpt lat="45.76052" lon="6.53293">
        <ele>1656.2</ele>
        <time>2025-08-15T15:07:44Z</time>
      </trkpt>
      <trkpt lat="45.76049" lon="6.53293">
        <ele>1656.2</ele>
        <time>2025-08-15T15:07:45Z</time>
      </trkpt>
      <trkpt lat="45.76044" lon="6.53294">
        <ele>1656.2</ele>
        <time>2025-08-15T15:07:46Z</time>
      </trkpt>
      <trkpt lat="45.76041" lon="6.53295">
        <ele>1656.2</ele>
        <time>2025-08-15T15:07:47Z</time>
      </trkpt>
      <trkpt lat="45.76039" lon="6.53295">
        <ele>1656.2</ele>
        <time>2025-08-15T15:07:48Z</time>
      </trkpt>
      <trkpt lat="45.76037" lon="6.53295">
        <ele>1656.2</ele>
        <time>2025-08-15T15:07:49Z</time>
      </trkpt>
      <trkpt lat="45.76033" lon="6.53296">
        <ele>1656.2</ele>
        <time>2025-08-15T15:07:50Z</time>
      </trkpt>
      <trkpt lat="45.7603" lon="6.53297">
        <ele>1656.3</ele>
        <time>2025-08-15T15:07:51Z</time>
      </trkpt>
      <trkpt lat="45.76028" lon="6.53298">
        <ele>1656.3</ele>
        <time>2025-08-15T15:07:52Z</time>
      </trkpt>
      <trkpt lat="45.76025" lon="6.53297">
        <ele>1656.3</ele>
        <time>2025-08-15T15:07:53Z</time>
      </trkpt>
      <trkpt lat="45.76024" lon="6.53298">
        <ele>1656.3</ele>
        <time>2025-08-15T15:07:54Z</time>
      </trkpt>
      <trkpt lat="45.76021" lon="6.53298">
        <ele>1656.3</ele>
        <time>2025-08-15T15:07:55Z</time>
      </trkpt>
      <trkpt lat="45.76019" lon="6.53298">
        <ele>1656.3</ele>
        <time>2025-08-15T15:07:56Z</time>
      </trkpt>
      <trkpt lat="45.76016" lon="6.53298">
        <ele>1656.3</ele>
        <time>2025-08-15T15:07:57Z</time>
      </trkpt>
      <trkpt lat="45.76014" lon="6.53298">
        <ele>1656.3</ele>
        <time>2025-08-15T15:07:58Z</time>
      </trkpt>
      <trkpt lat="45.76012" lon="6.53298">
        <ele>1656.3</ele>
        <time>2025-08-15T15:07:59Z</time>
      </trkpt>
      <trkpt lat="45.76009" lon="6.53299">
        <ele>1656.3</ele>
        <time>2025-08-15T15:08:00Z</time>
      </trkpt>
      <trkpt lat="45.76005" lon="6.53301">
        <ele>1656.4</ele>
        <time>2025-08-15T15:08:01Z</time>
      </trkpt>
      <trkpt lat="45.76004" lon="6.53302">
        <ele>1656.4</ele>
        <time>2025-08-15T15:08:02Z</time>
      </trkpt>
      <trkpt lat="45.76001" lon="6.53304">
        <ele>1656.4</ele>
        <time>2025-08-15T15:08:03Z</time>
      </trkpt>
      <trkpt lat="45.76" lon="6.53305">
        <ele>1656.4</ele>
        <time>2025-08-15T15:08:04Z</time>
      </trkpt>
      <trkpt lat="45.75997" lon="6.53308">
        <ele>1656.4</ele>
        <time>2025-08-15T15:08:05Z</time>
      </trkpt>
      <trkpt lat="45.75996" lon="6.53308">
        <ele>1656.4</ele>
        <time>2025-08-15T15:08:06Z</time>
      </trkpt>
      <trkpt lat="45.75995" lon="6.53309">
        <ele>1656.4</ele>
        <time>2025-08-15T15:08:07Z</time>
      </trkpt>
      <trkpt lat="45.75993" lon="6.53309">
        <ele>1656.5</ele>
        <time>2025-08-15T15:08:08Z</time>
      </trkpt>
      <trkpt lat="45.7599" lon="6.53306">
        <ele>1656.5</ele>
        <time>2025-08-15T15:08:09Z</time>
      </trkpt>
      <trkpt lat="45.75989" lon="6.53305">
        <ele>1656.5</ele>
        <time>2025-08-15T15:08:10Z</time>
      </trkpt>
      <trkpt lat="45.75986" lon="6.53304">
        <ele>1656.5</ele>
        <time>2025-08-15T15:08:11Z</time>
      </trkpt>
      <trkpt lat="45.75984" lon="6.53302">
        <ele>1656.5</ele>
        <time>2025-08-15T15:08:12Z</time>
      </trkpt>
      <trkpt lat="45.75981" lon="6.53299">
        <ele>1656.5</ele>
        <time>2025-08-15T15:08:13Z</time>
      </trkpt>
      <trkpt lat="45.75977" lon="6.53297">
        <ele>1656.5</ele>
        <time>2025-08-15T15:08:14Z</time>
      </trkpt>
      <trkpt lat="45.75974" lon="6.53294">
        <ele>1656.4</ele>
        <time>2025-08-15T15:08:15Z</time>
      </trkpt>
      <trkpt lat="45.75971" lon="6.5329">
        <ele>1656.2</ele>
        <time>2025-08-15T15:08:16Z</time>
      </trkpt>
      <trkpt lat="45.75969" lon="6.53286">
        <ele>1656.1</ele>
        <time>2025-08-15T15:08:17Z</time>
      </trkpt>
      <trkpt lat="45.75966" lon="6.53282">
        <ele>1656</ele>
        <time>2025-08-15T15:08:18Z</time>
      </trkpt>
      <trkpt lat="45.75962" lon="6.53277">
        <ele>1655.9</ele>
        <time>2025-08-15T15:08:19Z</time>
      </trkpt>
      <trkpt lat="45.75961" lon="6.53271">
        <ele>1655.7</ele>
        <time>2025-08-15T15:08:20Z</time>
      </trkpt>
      <trkpt lat="45.75959" lon="6.53266">
        <ele>1655.6</ele>
        <time>2025-08-15T15:08:21Z</time>
      </trkpt>
      <trkpt lat="45.75958" lon="6.53259">
        <ele>1655.5</ele>
        <time>2025-08-15T15:08:22Z</time>
      </trkpt>
      <trkpt lat="45.75956" lon="6.53254">
        <ele>1655.4</ele>
        <time>2025-08-15T15:08:23Z</time>
      </trkpt>
      <trkpt lat="45.75954" lon="6.53248">
        <ele>1655.2</ele>
        <time>2025-08-15T15:08:24Z</time>
      </trkpt>
      <trkpt lat="45.75952" lon="6.53242">
        <ele>1655.1</ele>
        <time>2025-08-15T15:08:25Z</time>
      </trkpt>
      <trkpt lat="45.7595" lon="6.53236">
        <ele>1655</ele>
        <time>2025-08-15T15:08:26Z</time>
      </trkpt>
      <trkpt lat="45.75949" lon="6.53229">
        <ele>1654.9</ele>
        <time>2025-08-15T15:08:27Z</time>
      </trkpt>
      <trkpt lat="45.75947" lon="6.53222">
        <ele>1654.7</ele>
        <time>2025-08-15T15:08:28Z</time>
      </trkpt>
      <trkpt lat="45.75946" lon="6.53216">
        <ele>1654.6</ele>
        <time>2025-08-15T15:08:29Z</time>
      </trkpt>
      <trkpt lat="45.75944" lon="6.5321">
        <ele>1654.5</ele>
        <time>2025-08-15T15:08:30Z</time>
      </trkpt>
      <trkpt lat="45.75941" lon="6.53205">
        <ele>1654.4</ele>
        <time>2025-08-15T15:08:31Z</time>
      </trkpt>
      <trkpt lat="45.75939" lon="6.53201">
        <ele>1654.3</ele>
        <time>2025-08-15T15:08:32Z</time>
      </trkpt>
      <trkpt lat="45.75935" lon="6.53198">
        <ele>1654.2</ele>
        <time>2025-08-15T15:08:33Z</time>
      </trkpt>
      <trkpt lat="45.75931" lon="6.53195">
        <ele>1654.1</ele>
        <time>2025-08-15T15:08:34Z</time>
      </trkpt>
      <trkpt lat="45.75927" lon="6.5319">
        <ele>1653.9</ele>
        <time>2025-08-15T15:08:35Z</time>
      </trkpt>
      <trkpt lat="45.75924" lon="6.53186">
        <ele>1653.8</ele>
        <time>2025-08-15T15:08:36Z</time>
      </trkpt>
      <trkpt lat="45.7592" lon="6.53181">
        <ele>1653.5</ele>
        <time>2025-08-15T15:08:37Z</time>
      </trkpt>
      <trkpt lat="45.75917" lon="6.53176">
        <ele>1653.3</ele>
        <time>2025-08-15T15:08:38Z</time>
      </trkpt>
      <trkpt lat="45.75913" lon="6.53171">
        <ele>1653.1</ele>
        <time>2025-08-15T15:08:39Z</time>
      </trkpt>
      <trkpt lat="45.75909" lon="6.53166">
        <ele>1652.8</ele>
        <time>2025-08-15T15:08:40Z</time>
      </trkpt>
      <trkpt lat="45.75905" lon="6.53161">
        <ele>1652.6</ele>
        <time>2025-08-15T15:08:41Z</time>
      </trkpt>
      <trkpt lat="45.75902" lon="6.53155">
        <ele>1652.4</ele>
        <time>2025-08-15T15:08:42Z</time>
      </trkpt>
      <trkpt lat="45.75898" lon="6.53149">
        <ele>1652.1</ele>
        <time>2025-08-15T15:08:43Z</time>
      </trkpt>
      <trkpt lat="45.75894" lon="6.53144">
        <ele>1651.8</ele>
        <time>2025-08-15T15:08:44Z</time>
      </trkpt>
      <trkpt lat="45.75888" lon="6.53141">
        <ele>1651.5</ele>
        <time>2025-08-15T15:08:45Z</time>
      </trkpt>
      <trkpt lat="45.75882" lon="6.53139">
        <ele>1651.2</ele>
        <time>2025-08-15T15:08:46Z</time>
      </trkpt>
      <trkpt lat="45.75877" lon="6.53136">
        <ele>1650.9</ele>
        <time>2025-08-15T15:08:47Z</time>
      </trkpt>
      <trkpt lat="45.75871" lon="6.53133">
        <ele>1650.5</ele>
        <time>2025-08-15T15:08:48Z</time>
      </trkpt>
      <trkpt lat="45.75867" lon="6.53129">
        <ele>1650.2</ele>
        <time>2025-08-15T15:08:49Z</time>
      </trkpt>
      <trkpt lat="45.75862" lon="6.53124">
        <ele>1649.7</ele>
        <time>2025-08-15T15:08:50Z</time>
      </trkpt>
      <trkpt lat="45.75857" lon="6.53118">
        <ele>1649.3</ele>
        <time>2025-08-15T15:08:51Z</time>
      </trkpt>
      <trkpt lat="45.75852" lon="6.53114">
        <ele>1648.8</ele>
        <time>2025-08-15T15:08:52Z</time>
      </trkpt>
      <trkpt lat="45.75847" lon="6.53109">
        <ele>1648.2</ele>
        <time>2025-08-15T15:08:53Z</time>
      </trkpt>
      <trkpt lat="45.75843" lon="6.53105">
        <ele>1647.7</ele>
        <time>2025-08-15T15:08:54Z</time>
      </trkpt>
      <trkpt lat="45.75839" lon="6.53099">
        <ele>1647.2</ele>
        <time>2025-08-15T15:08:55Z</time>
      </trkpt>
      <trkpt lat="45.75837" lon="6.53092">
        <ele>1646.6</ele>
        <time>2025-08-15T15:08:56Z</time>
      </trkpt>
      <trkpt lat="45.75835" lon="6.53086">
        <ele>1646</ele>
        <time>2025-08-15T15:08:57Z</time>
      </trkpt>
      <trkpt lat="45.75834" lon="6.5308">
        <ele>1645.5</ele>
        <time>2025-08-15T15:08:58Z</time>
      </trkpt>
      <trkpt lat="45.75832" lon="6.53075">
        <ele>1645</ele>
        <time>2025-08-15T15:08:59Z</time>
      </trkpt>
      <trkpt lat="45.7583" lon="6.53072">
        <ele>1644.6</ele>
        <time>2025-08-15T15:09:00Z</time>
      </trkpt>
      <trkpt lat="45.75828" lon="6.53068">
        <ele>1644.2</ele>
        <time>2025-08-15T15:09:01Z</time>
      </trkpt>
      <trkpt lat="45.75828" lon="6.53066">
        <ele>1644.1</ele>
        <time>2025-08-15T15:09:02Z</time>
      </trkpt>
      <trkpt lat="45.75828" lon="6.53061">
        <ele>1643.6</ele>
        <time>2025-08-15T15:09:03Z</time>
      </trkpt>
      <trkpt lat="45.75829" lon="6.53057">
        <ele>1643.4</ele>
        <time>2025-08-15T15:09:04Z</time>
      </trkpt>
      <trkpt lat="45.75832" lon="6.53055">
        <ele>1643.2</ele>
        <time>2025-08-15T15:09:05Z</time>
      </trkpt>
      <trkpt lat="45.75835" lon="6.53053">
        <ele>1642.9</ele>
        <time>2025-08-15T15:09:06Z</time>
      </trkpt>
      <trkpt lat="45.75838" lon="6.53051">
        <ele>1642.7</ele>
        <time>2025-08-15T15:09:07Z</time>
      </trkpt>
      <trkpt lat="45.75842" lon="6.53049">
        <ele>1642.5</ele>
        <time>2025-08-15T15:09:08Z</time>
      </trkpt>
      <trkpt lat="45.75845" lon="6.53045">
        <ele>1642.1</ele>
        <time>2025-08-15T15:09:09Z</time>
      </trkpt>
      <trkpt lat="45.75848" lon="6.53041">
        <ele>1641.8</ele>
        <time>2025-08-15T15:09:10Z</time>
      </trkpt>
      <trkpt lat="45.75851" lon="6.53036">
        <ele>1641.5</ele>
        <time>2025-08-15T15:09:11Z</time>
      </trkpt>
      <trkpt lat="45.75854" lon="6.5303">
        <ele>1641.1</ele>
        <time>2025-08-15T15:09:12Z</time>
      </trkpt>
      <trkpt lat="45.75856" lon="6.53024">
        <ele>1640.7</ele>
        <time>2025-08-15T15:09:13Z</time>
      </trkpt>
      <trkpt lat="45.75856" lon="6.53016">
        <ele>1640.2</ele>
        <time>2025-08-15T15:09:14Z</time>
      </trkpt>
      <trkpt lat="45.75855" lon="6.53007">
        <ele>1639.8</ele>
        <time>2025-08-15T15:09:15Z</time>
      </trkpt>
      <trkpt lat="45.75853" lon="6.52999">
        <ele>1639.3</ele>
        <time>2025-08-15T15:09:17Z</time>
      </trkpt>
      <trkpt lat="45.75851" lon="6.5299">
        <ele>1638.8</ele>
        <time>2025-08-15T15:09:18Z</time>
      </trkpt>
      <trkpt lat="45.75849" lon="6.52983">
        <ele>1638.4</ele>
        <time>2025-08-15T15:09:19Z</time>
      </trkpt>
      <trkpt lat="45.75847" lon="6.52977">
        <ele>1638.2</ele>
        <time>2025-08-15T15:09:20Z</time>
      </trkpt>
      <trkpt lat="45.75845" lon="6.5297">
        <ele>1637.9</ele>
        <time>2025-08-15T15:09:21Z</time>
      </trkpt>
      <trkpt lat="45.75843" lon="6.52964">
        <ele>1637.7</ele>
        <time>2025-08-15T15:09:22Z</time>
      </trkpt>
      <trkpt lat="45.7584" lon="6.52961">
        <ele>1637.5</ele>
        <time>2025-08-15T15:09:23Z</time>
      </trkpt>
      <trkpt lat="45.75838" lon="6.52959">
        <ele>1637.4</ele>
        <time>2025-08-15T15:09:24Z</time>
      </trkpt>
      <trkpt lat="45.75836" lon="6.52954">
        <ele>1637.2</ele>
        <time>2025-08-15T15:09:25Z</time>
      </trkpt>
      <trkpt lat="45.75836" lon="6.52952">
        <ele>1637.1</ele>
        <time>2025-08-15T15:09:26Z</time>
      </trkpt>
      <trkpt lat="45.75836" lon="6.52948">
        <ele>1637</ele>
        <time>2025-08-15T15:09:27Z</time>
      </trkpt>
      <trkpt lat="45.75836" lon="6.52943">
        <ele>1636.8</ele>
        <time>2025-08-15T15:09:28Z</time>
      </trkpt>
      <trkpt lat="45.75836" lon="6.52941">
        <ele>1636.8</ele>
        <time>2025-08-15T15:09:29Z</time>
      </trkpt>
      <trkpt lat="45.75835" lon="6.52937">
        <ele>1636.8</ele>
        <time>2025-08-15T15:09:30Z</time>
      </trkpt>
      <trkpt lat="45.75834" lon="6.52936">
        <ele>1636.7</ele>
        <time>2025-08-15T15:09:31Z</time>
      </trkpt>
      <trkpt lat="45.75834" lon="6.52933">
        <ele>1636.7</ele>
        <time>2025-08-15T15:09:32Z</time>
      </trkpt>
      <trkpt lat="45.75834" lon="6.52931">
        <ele>1636.7</ele>
        <time>2025-08-15T15:09:33Z</time>
      </trkpt>
      <trkpt lat="45.75834" lon="6.52928">
        <ele>1636.7</ele>
        <time>2025-08-15T15:09:34Z</time>
      </trkpt>
      <trkpt lat="45.75833" lon="6.52926">
        <ele>1636.6</ele>
        <time>2025-08-15T15:09:35Z</time>
      </trkpt>
      <trkpt lat="45.75832" lon="6.52925">
        <ele>1636.6</ele>
        <time>2025-08-15T15:09:36Z</time>
      </trkpt>
      <trkpt lat="45.75831" lon="6.52923">
        <ele>1636.6</ele>
        <time>2025-08-15T15:09:37Z</time>
      </trkpt>
      <trkpt lat="45.75832" lon="6.52921">
        <ele>1636.6</ele>
        <time>2025-08-15T15:09:38Z</time>
      </trkpt>
      <trkpt lat="45.75834" lon="6.5292">
        <ele>1636.5</ele>
        <time>2025-08-15T15:09:39Z</time>
      </trkpt>
      <trkpt lat="45.75837" lon="6.52921">
        <ele>1636.5</ele>
        <time>2025-08-15T15:09:40Z</time>
      </trkpt>
      <trkpt lat="45.75838" lon="6.52922">
        <ele>1636.5</ele>
        <time>2025-08-15T15:09:41Z</time>
      </trkpt>
      <trkpt lat="45.75838" lon="6.52924">
        <ele>1636.5</ele>
        <time>2025-08-15T15:09:42Z</time>
      </trkpt>
      <trkpt lat="45.75838" lon="6.52926">
        <ele>1636.4</ele>
        <time>2025-08-15T15:09:43Z</time>
      </trkpt>
      <trkpt lat="45.75837" lon="6.52928">
        <ele>1636.4</ele>
        <time>2025-08-15T15:09:44Z</time>
      </trkpt>
      <trkpt lat="45.75834" lon="6.52928">
        <ele>1636.4</ele>
        <time>2025-08-15T15:09:45Z</time>
      </trkpt>
      <trkpt lat="45.75833" lon="6.52929">
        <ele>1636.4</ele>
        <time>2025-08-15T15:09:46Z</time>
      </trkpt>
      <trkpt lat="45.75833" lon="6.52932">
        <ele>1636.3</ele>
        <time>2025-08-15T15:09:47Z</time>
      </trkpt>
      <trkpt lat="45.75833" lon="6.52933">
        <ele>1636.3</ele>
        <time>2025-08-15T15:09:48Z</time>
      </trkpt>
      <trkpt lat="45.75834" lon="6.52934">
        <ele>1636.3</ele>
        <time>2025-08-15T15:09:49Z</time>
      </trkpt>
      <trkpt lat="45.75835" lon="6.52935">
        <ele>1636.3</ele>
        <time>2025-08-15T15:09:50Z</time>
      </trkpt>
      <trkpt lat="45.75836" lon="6.52936">
        <ele>1636.3</ele>
        <time>2025-08-15T15:09:51Z</time>
      </trkpt>
      <trkpt lat="45.75837" lon="6.52937">
        <ele>1636.3</ele>
        <time>2025-08-15T15:09:52Z</time>
      </trkpt>
      <trkpt lat="45.75838" lon="6.52937">
        <ele>1636.3</ele>
        <time>2025-08-15T15:09:53Z</time>
      </trkpt>
      <trkpt lat="45.75839" lon="6.52936">
        <ele>1636.3</ele>
        <time>2025-08-15T15:09:54Z</time>
      </trkpt>
      <trkpt lat="45.7584" lon="6.52935">
        <ele>1636.3</ele>
        <time>2025-08-15T15:09:55Z</time>
      </trkpt>
      <trkpt lat="45.75839" lon="6.52931">
        <ele>1636.2</ele>
        <time>2025-08-15T15:09:56Z</time>
      </trkpt>
      <trkpt lat="45.75838" lon="6.52929">
        <ele>1636.2</ele>
        <time>2025-08-15T15:09:57Z</time>
      </trkpt>
      <trkpt lat="45.75836" lon="6.52929">
        <ele>1636.2</ele>
        <time>2025-08-15T15:09:58Z</time>
      </trkpt>
      <trkpt lat="45.75836" lon="6.52929">
        <ele>1636.2</ele>
        <time>2025-08-15T15:09:59Z</time>
      </trkpt>
      <trkpt lat="45.75835" lon="6.52928">
        <ele>1636.2</ele>
        <time>2025-08-15T15:10:00Z</time>
      </trkpt>
      <trkpt lat="45.75835" lon="6.52928">
        <ele>1636.2</ele>
        <time>2025-08-15T15:10:01Z</time>
      </trkpt>
      <trkpt lat="45.75835" lon="6.52927">
        <ele>1636.2</ele>
        <time>2025-08-15T15:10:02Z</time>
      </trkpt>
      <trkpt lat="45.75834" lon="6.52926">
        <ele>1636.2</ele>
        <time>2025-08-15T15:10:03Z</time>
      </trkpt>
      <trkpt lat="45.75834" lon="6.52925">
        <ele>1636.2</ele>
        <time>2025-08-15T15:10:04Z</time>
      </trkpt>
      <trkpt lat="45.75834" lon="6.52924">
        <ele>1636.2</ele>
        <time>2025-08-15T15:10:05Z</time>
      </trkpt>
      <trkpt lat="45.75834" lon="6.52923">
        <ele>1636.2</ele>
        <time>2025-08-15T15:10:06Z</time>
      </trkpt>
      <trkpt lat="45.75834" lon="6.52922">
        <ele>1636.2</ele>
        <time>2025-08-15T15:10:07Z</time>
      </trkpt>
      <trkpt lat="45.75833" lon="6.52921">
        <ele>1636.2</ele>
        <time>2025-08-15T15:10:08Z</time>
      </trkpt>
      <trkpt lat="45.75833" lon="6.52919">
        <ele>1636.2</ele>
        <time>2025-08-15T15:10:09Z</time>
      </trkpt>
      <trkpt lat="45.75833" lon="6.52918">
        <ele>1636.2</ele>
        <time>2025-08-15T15:10:10Z</time>
      </trkpt>
      <trkpt lat="45.75833" lon="6.52917">
        <ele>1636.2</ele>
        <time>2025-08-15T15:10:29Z</time>
      </trkpt>
      <trkpt lat="45.75833" lon="6.52916">
        <ele>1636.2</ele>
        <time>2025-08-15T15:10:30Z</time>
      </trkpt>
      <trkpt lat="45.75833" lon="6.52911">
        <ele>1636.2</ele>
        <time>2025-08-15T15:10:31Z</time>
      </trkpt>
      <trkpt lat="45.75833" lon="6.52906">
        <ele>1636.2</ele>
        <time>2025-08-15T15:10:32Z</time>
      </trkpt>
      <trkpt lat="45.75833" lon="6.52902">
        <ele>1636.2</ele>
        <time>2025-08-15T15:10:33Z</time>
      </trkpt>
      <trkpt lat="45.75833" lon="6.52897">
        <ele>1636.2</ele>
        <time>2025-08-15T15:10:34Z</time>
      </trkpt>
      <trkpt lat="45.75832" lon="6.52892">
        <ele>1636.1</ele>
        <time>2025-08-15T15:10:35Z</time>
      </trkpt>
      <trkpt lat="45.75832" lon="6.52887">
        <ele>1636.1</ele>
        <time>2025-08-15T15:10:36Z</time>
      </trkpt>
      <trkpt lat="45.75832" lon="6.52882">
        <ele>1636.1</ele>
        <time>2025-08-15T15:10:37Z</time>
      </trkpt>
      <trkpt lat="45.75832" lon="6.52877">
        <ele>1636.1</ele>
        <time>2025-08-15T15:10:38Z</time>
      </trkpt>
      <trkpt lat="45.75832" lon="6.52871">
        <ele>1636.1</ele>
        <time>2025-08-15T15:10:39Z</time>
      </trkpt>
      <trkpt lat="45.75831" lon="6.52866">
        <ele>1636.1</ele>
        <time>2025-08-15T15:10:40Z</time>
      </trkpt>
      <trkpt lat="45.75831" lon="6.52861">
        <ele>1635.9</ele>
        <time>2025-08-15T15:10:41Z</time>
      </trkpt>
      <trkpt lat="45.7583" lon="6.52857">
        <ele>1635.7</ele>
        <time>2025-08-15T15:10:42Z</time>
      </trkpt>
      <trkpt lat="45.7583" lon="6.52852">
        <ele>1635.6</ele>
        <time>2025-08-15T15:10:43Z</time>
      </trkpt>
      <trkpt lat="45.7583" lon="6.52848">
        <ele>1635.4</ele>
        <time>2025-08-15T15:10:44Z</time>
      </trkpt>
      <trkpt lat="45.7583" lon="6.52843">
        <ele>1635.3</ele>
        <time>2025-08-15T15:10:45Z</time>
      </trkpt>
      <trkpt lat="45.75829" lon="6.52839">
        <ele>1635.3</ele>
        <time>2025-08-15T15:10:46Z</time>
      </trkpt>
      <trkpt lat="45.75828" lon="6.52833">
        <ele>1635.3</ele>
        <time>2025-08-15T15:10:47Z</time>
      </trkpt>
      <trkpt lat="45.75828" lon="6.52831">
        <ele>1635.4</ele>
        <time>2025-08-15T15:10:48Z</time>
      </trkpt>
      <trkpt lat="45.75828" lon="6.52827">
        <ele>1635.4</ele>
        <time>2025-08-15T15:10:49Z</time>
      </trkpt>
      <trkpt lat="45.75828" lon="6.52822">
        <ele>1635.5</ele>
        <time>2025-08-15T15:10:50Z</time>
      </trkpt>
      <trkpt lat="45.75828" lon="6.5282">
        <ele>1635.5</ele>
        <time>2025-08-15T15:10:51Z</time>
      </trkpt>
      <trkpt lat="45.75828" lon="6.52815">
        <ele>1635.6</ele>
        <time>2025-08-15T15:10:52Z</time>
      </trkpt>
      <trkpt lat="45.75828" lon="6.52813">
        <ele>1635.6</ele>
        <time>2025-08-15T15:10:53Z</time>
      </trkpt>
      <trkpt lat="45.75827" lon="6.52808">
        <ele>1635.7</ele>
        <time>2025-08-15T15:10:54Z</time>
      </trkpt>
      <trkpt lat="45.75827" lon="6.52807">
        <ele>1635.8</ele>
        <time>2025-08-15T15:10:55Z</time>
      </trkpt>
      <trkpt lat="45.75827" lon="6.52804">
        <ele>1635.8</ele>
        <time>2025-08-15T15:10:56Z</time>
      </trkpt>
      <trkpt lat="45.75827" lon="6.52803">
        <ele>1635.9</ele>
        <time>2025-08-15T15:10:57Z</time>
      </trkpt>
      <trkpt lat="45.75827" lon="6.528">
        <ele>1635.9</ele>
        <time>2025-08-15T15:10:58Z</time>
      </trkpt>
      <trkpt lat="45.75827" lon="6.52798">
        <ele>1636</ele>
        <time>2025-08-15T15:10:59Z</time>
      </trkpt>
      <trkpt lat="45.75827" lon="6.52797">
        <ele>1636</ele>
        <time>2025-08-15T15:11:00Z</time>
      </trkpt>
      <trkpt lat="45.75826" lon="6.52793">
        <ele>1636.2</ele>
        <time>2025-08-15T15:11:01Z</time>
      </trkpt>
      <trkpt lat="45.75826" lon="6.52791">
        <ele>1636.2</ele>
        <time>2025-08-15T15:11:02Z</time>
      </trkpt>
      <trkpt lat="45.75826" lon="6.52786">
        <ele>1636.4</ele>
        <time>2025-08-15T15:11:03Z</time>
      </trkpt>
      <trkpt lat="45.75826" lon="6.52785">
        <ele>1636.5</ele>
        <time>2025-08-15T15:11:04Z</time>
      </trkpt>
      <trkpt lat="45.75825" lon="6.5278">
        <ele>1636.7</ele>
        <time>2025-08-15T15:11:05Z</time>
      </trkpt>
      <trkpt lat="45.75824" lon="6.52779">
        <ele>1636.7</ele>
        <time>2025-08-15T15:11:06Z</time>
      </trkpt>
      <trkpt lat="45.75823" lon="6.52775">
        <ele>1636.9</ele>
        <time>2025-08-15T15:11:07Z</time>
      </trkpt>
      <trkpt lat="45.75823" lon="6.52774">
        <ele>1637</ele>
        <time>2025-08-15T15:11:08Z</time>
      </trkpt>
      <trkpt lat="45.75822" lon="6.52769">
        <ele>1637.3</ele>
        <time>2025-08-15T15:11:09Z</time>
      </trkpt>
      <trkpt lat="45.75821" lon="6.52767">
        <ele>1637.4</ele>
        <time>2025-08-15T15:11:10Z</time>
      </trkpt>
      <trkpt lat="45.75821" lon="6.52762">
        <ele>1637.7</ele>
        <time>2025-08-15T15:11:11Z</time>
      </trkpt>
      <trkpt lat="45.75821" lon="6.52761">
        <ele>1637.8</ele>
        <time>2025-08-15T15:11:12Z</time>
      </trkpt>
      <trkpt lat="45.75819" lon="6.52756">
        <ele>1638.1</ele>
        <time>2025-08-15T15:11:13Z</time>
      </trkpt>
      <trkpt lat="45.75819" lon="6.52754">
        <ele>1638.2</ele>
        <time>2025-08-15T15:11:14Z</time>
      </trkpt>
      <trkpt lat="45.75817" lon="6.52749">
        <ele>1638.5</ele>
        <time>2025-08-15T15:11:15Z</time>
      </trkpt>
      <trkpt lat="45.75817" lon="6.52747">
        <ele>1638.6</ele>
        <time>2025-08-15T15:11:16Z</time>
      </trkpt>
      <trkpt lat="45.75817" lon="6.52742">
        <ele>1638.8</ele>
        <time>2025-08-15T15:11:17Z</time>
      </trkpt>
      <trkpt lat="45.75817" lon="6.5274">
        <ele>1638.9</ele>
        <time>2025-08-15T15:11:18Z</time>
      </trkpt>
      <trkpt lat="45.75817" lon="6.52736">
        <ele>1639.1</ele>
        <time>2025-08-15T15:11:19Z</time>
      </trkpt>
      <trkpt lat="45.75817" lon="6.52734">
        <ele>1639.2</ele>
        <time>2025-08-15T15:11:20Z</time>
      </trkpt>
      <trkpt lat="45.75818" lon="6.52732">
        <ele>1639.3</ele>
        <time>2025-08-15T15:11:21Z</time>
      </trkpt>
      <trkpt lat="45.75818" lon="6.52729">
        <ele>1639.4</ele>
        <time>2025-08-15T15:11:23Z</time>
      </trkpt>
      <trkpt lat="45.75819" lon="6.52724">
        <ele>1639.6</ele>
        <time>2025-08-15T15:11:24Z</time>
      </trkpt>
      <trkpt lat="45.7582" lon="6.52723">
        <ele>1639.6</ele>
        <time>2025-08-15T15:11:25Z</time>
      </trkpt>
      <trkpt lat="45.7582" lon="6.52717">
        <ele>1639.8</ele>
        <time>2025-08-15T15:11:26Z</time>
      </trkpt>
      <trkpt lat="45.75821" lon="6.52716">
        <ele>1639.8</ele>
        <time>2025-08-15T15:11:27Z</time>
      </trkpt>
      <trkpt lat="45.75822" lon="6.5271">
        <ele>1640</ele>
        <time>2025-08-15T15:11:28Z</time>
      </trkpt>
      <trkpt lat="45.75822" lon="6.52709">
        <ele>1640.1</ele>
        <time>2025-08-15T15:11:29Z</time>
      </trkpt>
      <trkpt lat="45.75823" lon="6.52704">
        <ele>1640.2</ele>
        <time>2025-08-15T15:11:30Z</time>
      </trkpt>
      <trkpt lat="45.75823" lon="6.52702">
        <ele>1640.3</ele>
        <time>2025-08-15T15:11:31Z</time>
      </trkpt>
      <trkpt lat="45.75825" lon="6.52697">
        <ele>1640.5</ele>
        <time>2025-08-15T15:11:32Z</time>
      </trkpt>
      <trkpt lat="45.75825" lon="6.52695">
        <ele>1640.6</ele>
        <time>2025-08-15T15:11:33Z</time>
      </trkpt>
      <trkpt lat="45.75826" lon="6.5269">
        <ele>1640.7</ele>
        <time>2025-08-15T15:11:34Z</time>
      </trkpt>
      <trkpt lat="45.75827" lon="6.52689">
        <ele>1640.8</ele>
        <time>2025-08-15T15:11:35Z</time>
      </trkpt>
      <trkpt lat="45.75828" lon="6.52684">
        <ele>1641</ele>
        <time>2025-08-15T15:11:36Z</time>
      </trkpt>
      <trkpt lat="45.75828" lon="6.52683">
        <ele>1641.1</ele>
        <time>2025-08-15T15:11:37Z</time>
      </trkpt>
      <trkpt lat="45.7583" lon="6.52679">
        <ele>1641.3</ele>
        <time>2025-08-15T15:11:38Z</time>
      </trkpt>
      <trkpt lat="45.7583" lon="6.52678">
        <ele>1641.3</ele>
        <time>2025-08-15T15:11:39Z</time>
      </trkpt>
      <trkpt lat="45.75832" lon="6.52673">
        <ele>1641.6</ele>
        <time>2025-08-15T15:11:40Z</time>
      </trkpt>
      <trkpt lat="45.75833" lon="6.52672">
        <ele>1641.6</ele>
        <time>2025-08-15T15:11:41Z</time>
      </trkpt>
      <trkpt lat="45.75832" lon="6.52667">
        <ele>1641.9</ele>
        <time>2025-08-15T15:11:42Z</time>
      </trkpt>
      <trkpt lat="45.75832" lon="6.52665">
        <ele>1642</ele>
        <time>2025-08-15T15:11:43Z</time>
      </trkpt>
      <trkpt lat="45.75832" lon="6.5266">
        <ele>1642.2</ele>
        <time>2025-08-15T15:11:44Z</time>
      </trkpt>
      <trkpt lat="45.75833" lon="6.52658">
        <ele>1642.3</ele>
        <time>2025-08-15T15:11:45Z</time>
      </trkpt>
      <trkpt lat="45.75834" lon="6.52655">
        <ele>1642.5</ele>
        <time>2025-08-15T15:11:46Z</time>
      </trkpt>
      <trkpt lat="45.75836" lon="6.52651">
        <ele>1642.8</ele>
        <time>2025-08-15T15:11:47Z</time>
      </trkpt>
      <trkpt lat="45.75837" lon="6.52646">
        <ele>1643</ele>
        <time>2025-08-15T15:11:48Z</time>
      </trkpt>
      <trkpt lat="45.75837" lon="6.52645">
        <ele>1643.2</ele>
        <time>2025-08-15T15:11:49Z</time>
      </trkpt>
      <trkpt lat="45.75837" lon="6.52639">
        <ele>1643.8</ele>
        <time>2025-08-15T15:11:50Z</time>
      </trkpt>
      <trkpt lat="45.75837" lon="6.52637">
        <ele>1644</ele>
        <time>2025-08-15T15:11:51Z</time>
      </trkpt>
      <trkpt lat="45.75837" lon="6.52632">
        <ele>1644.5</ele>
        <time>2025-08-15T15:11:52Z</time>
      </trkpt>
      <trkpt lat="45.75838" lon="6.5263">
        <ele>1644.7</ele>
        <time>2025-08-15T15:11:53Z</time>
      </trkpt>
      <trkpt lat="45.7584" lon="6.52624">
        <ele>1645.5</ele>
        <time>2025-08-15T15:11:54Z</time>
      </trkpt>
      <trkpt lat="45.75841" lon="6.52621">
        <ele>1645.9</ele>
        <time>2025-08-15T15:11:55Z</time>
      </trkpt>
      <trkpt lat="45.75841" lon="6.52618">
        <ele>1646.2</ele>
        <time>2025-08-15T15:11:56Z</time>
      </trkpt>
      <trkpt lat="45.75841" lon="6.52616">
        <ele>1646.5</ele>
        <time>2025-08-15T15:11:57Z</time>
      </trkpt>
      <trkpt lat="45.75841" lon="6.52613">
        <ele>1646.7</ele>
        <time>2025-08-15T15:11:58Z</time>
      </trkpt>
      <trkpt lat="45.75841" lon="6.52612">
        <ele>1646.9</ele>
        <time>2025-08-15T15:11:59Z</time>
      </trkpt>
      <trkpt lat="45.75842" lon="6.5261">
        <ele>1647.1</ele>
        <time>2025-08-15T15:12:00Z</time>
      </trkpt>
      <trkpt lat="45.75842" lon="6.52609">
        <ele>1647.2</ele>
        <time>2025-08-15T15:12:01Z</time>
      </trkpt>
      <trkpt lat="45.75841" lon="6.52608">
        <ele>1647.4</ele>
        <time>2025-08-15T15:12:02Z</time>
      </trkpt>
      <trkpt lat="45.75841" lon="6.52608">
        <ele>1647.5</ele>
        <time>2025-08-15T15:12:03Z</time>
      </trkpt>
      <trkpt lat="45.7584" lon="6.52608">
        <ele>1647.5</ele>
        <time>2025-08-15T15:12:04Z</time>
      </trkpt>
      <trkpt lat="45.7584" lon="6.52607">
        <ele>1647.6</ele>
        <time>2025-08-15T15:12:05Z</time>
      </trkpt>
      <trkpt lat="45.7584" lon="6.52607">
        <ele>1647.7</ele>
        <time>2025-08-15T15:12:06Z</time>
      </trkpt>
      <trkpt lat="45.75839" lon="6.52607">
        <ele>1647.7</ele>
        <time>2025-08-15T15:12:07Z</time>
      </trkpt>
      <trkpt lat="45.75839" lon="6.52607">
        <ele>1647.8</ele>
        <time>2025-08-15T15:12:08Z</time>
      </trkpt>
      <trkpt lat="45.75839" lon="6.52607">
        <ele>1647.8</ele>
        <time>2025-08-15T15:12:09Z</time>
      </trkpt>
      <trkpt lat="45.75838" lon="6.52607">
        <ele>1647.9</ele>
        <time>2025-08-15T15:12:10Z</time>
      </trkpt>
      <trkpt lat="45.75838" lon="6.52607">
        <ele>1647.9</ele>
        <time>2025-08-15T15:12:11Z</time>
      </trkpt>
      <trkpt lat="45.75838" lon="6.52607">
        <ele>1647.9</ele>
        <time>2025-08-15T15:12:12Z</time>
      </trkpt>
      <trkpt lat="45.75837" lon="6.52607">
        <ele>1647.9</ele>
        <time>2025-08-15T15:13:44Z</time>
      </trkpt>
      <trkpt lat="45.75837" lon="6.52606">
        <ele>1648</ele>
        <time>2025-08-15T15:13:45Z</time>
      </trkpt>
      <trkpt lat="45.75837" lon="6.52606">
        <ele>1648</ele>
        <time>2025-08-15T15:13:46Z</time>
      </trkpt>
      <trkpt lat="45.75835" lon="6.52608">
        <ele>1648.1</ele>
        <time>2025-08-15T15:13:47Z</time>
      </trkpt>
      <trkpt lat="45.75834" lon="6.5261">
        <ele>1648.3</ele>
        <time>2025-08-15T15:13:48Z</time>
      </trkpt>
      <trkpt lat="45.75832" lon="6.52612">
        <ele>1648.4</ele>
        <time>2025-08-15T15:13:49Z</time>
      </trkpt>
      <trkpt lat="45.75831" lon="6.52612">
        <ele>1648.5</ele>
        <time>2025-08-15T15:13:50Z</time>
      </trkpt>
      <trkpt lat="45.75829" lon="6.52615">
        <ele>1648.7</ele>
        <time>2025-08-15T15:13:51Z</time>
      </trkpt>
      <trkpt lat="45.75828" lon="6.52616">
        <ele>1648.7</ele>
        <time>2025-08-15T15:13:52Z</time>
      </trkpt>
      <trkpt lat="45.75826" lon="6.5262">
        <ele>1648.9</ele>
        <time>2025-08-15T15:13:53Z</time>
      </trkpt>
      <trkpt lat="45.75826" lon="6.52621">
        <ele>1648.9</ele>
        <time>2025-08-15T15:13:54Z</time>
      </trkpt>
      <trkpt lat="45.75823" lon="6.52624">
        <ele>1649</ele>
        <time>2025-08-15T15:13:55Z</time>
      </trkpt>
      <trkpt lat="45.75822" lon="6.52626">
        <ele>1649.1</ele>
        <time>2025-08-15T15:13:56Z</time>
      </trkpt>
      <trkpt lat="45.7582" lon="6.52628">
        <ele>1649.2</ele>
        <time>2025-08-15T15:13:57Z</time>
      </trkpt>
      <trkpt lat="45.75816" lon="6.52629">
        <ele>1649.3</ele>
        <time>2025-08-15T15:13:58Z</time>
      </trkpt>
      <trkpt lat="45.75813" lon="6.52629">
        <ele>1649.4</ele>
        <time>2025-08-15T15:13:59Z</time>
      </trkpt>
      <trkpt lat="45.75812" lon="6.5263">
        <ele>1649.4</ele>
        <time>2025-08-15T15:14:00Z</time>
      </trkpt>
      <trkpt lat="45.75809" lon="6.5263">
        <ele>1649.6</ele>
        <time>2025-08-15T15:14:01Z</time>
      </trkpt>
      <trkpt lat="45.75808" lon="6.5263">
        <ele>1649.6</ele>
        <time>2025-08-15T15:14:02Z</time>
      </trkpt>
      <trkpt lat="45.75806" lon="6.5263">
        <ele>1649.7</ele>
        <time>2025-08-15T15:14:03Z</time>
      </trkpt>
      <trkpt lat="45.75805" lon="6.5263">
        <ele>1649.8</ele>
        <time>2025-08-15T15:14:04Z</time>
      </trkpt>
      <trkpt lat="45.75802" lon="6.5263">
        <ele>1649.9</ele>
        <time>2025-08-15T15:14:05Z</time>
      </trkpt>
      <trkpt lat="45.75801" lon="6.52631">
        <ele>1650</ele>
        <time>2025-08-15T15:14:06Z</time>
      </trkpt>
      <trkpt lat="45.75798" lon="6.52632">
        <ele>1650.1</ele>
        <time>2025-08-15T15:14:07Z</time>
      </trkpt>
      <trkpt lat="45.75797" lon="6.52632">
        <ele>1650.1</ele>
        <time>2025-08-15T15:14:08Z</time>
      </trkpt>
      <trkpt lat="45.75794" lon="6.52634">
        <ele>1650.3</ele>
        <time>2025-08-15T15:14:09Z</time>
      </trkpt>
      <trkpt lat="45.75794" lon="6.52635">
        <ele>1650.3</ele>
        <time>2025-08-15T15:14:10Z</time>
      </trkpt>
      <trkpt lat="45.7579" lon="6.52637">
        <ele>1650.4</ele>
        <time>2025-08-15T15:14:11Z</time>
      </trkpt>
      <trkpt lat="45.75789" lon="6.52639">
        <ele>1650.4</ele>
        <time>2025-08-15T15:14:12Z</time>
      </trkpt>
      <trkpt lat="45.75786" lon="6.52641">
        <ele>1650.4</ele>
        <time>2025-08-15T15:14:13Z</time>
      </trkpt>
      <trkpt lat="45.75781" lon="6.52644">
        <ele>1650.4</ele>
        <time>2025-08-15T15:14:14Z</time>
      </trkpt>
      <trkpt lat="45.75778" lon="6.52646">
        <ele>1650.5</ele>
        <time>2025-08-15T15:14:15Z</time>
      </trkpt>
      <trkpt lat="45.75775" lon="6.52646">
        <ele>1650.5</ele>
        <time>2025-08-15T15:14:16Z</time>
      </trkpt>
      <trkpt lat="45.75774" lon="6.52646">
        <ele>1650.5</ele>
        <time>2025-08-15T15:14:17Z</time>
      </trkpt>
      <trkpt lat="45.75771" lon="6.52649">
        <ele>1650.6</ele>
        <time>2025-08-15T15:14:18Z</time>
      </trkpt>
      <trkpt lat="45.7577" lon="6.52649">
        <ele>1650.7</ele>
        <time>2025-08-15T15:14:19Z</time>
      </trkpt>
      <trkpt lat="45.75769" lon="6.5265">
        <ele>1650.8</ele>
        <time>2025-08-15T15:14:20Z</time>
      </trkpt>
      <trkpt lat="45.75767" lon="6.52651">
        <ele>1650.8</ele>
        <time>2025-08-15T15:14:21Z</time>
      </trkpt>
      <trkpt lat="45.75766" lon="6.52652">
        <ele>1650.9</ele>
        <time>2025-08-15T15:14:22Z</time>
      </trkpt>
      <trkpt lat="45.75765" lon="6.52651">
        <ele>1650.9</ele>
        <time>2025-08-15T15:14:23Z</time>
      </trkpt>
      <trkpt lat="45.75765" lon="6.52652">
        <ele>1651</ele>
        <time>2025-08-15T15:14:24Z</time>
      </trkpt>
      <trkpt lat="45.75765" lon="6.52653">
        <ele>1651</ele>
        <time>2025-08-15T15:14:25Z</time>
      </trkpt>
      <trkpt lat="45.75764" lon="6.52653">
        <ele>1651</ele>
        <time>2025-08-15T15:14:26Z</time>
      </trkpt>
      <trkpt lat="45.75763" lon="6.52654">
        <ele>1651.1</ele>
        <time>2025-08-15T15:14:27Z</time>
      </trkpt>
      <trkpt lat="45.75762" lon="6.52654">
        <ele>1651.1</ele>
        <time>2025-08-15T15:14:28Z</time>
      </trkpt>
      <trkpt lat="45.75762" lon="6.52654">
        <ele>1651.2</ele>
        <time>2025-08-15T15:14:29Z</time>
      </trkpt>
      <trkpt lat="45.75761" lon="6.52655">
        <ele>1651.2</ele>
        <time>2025-08-15T15:14:30Z</time>
      </trkpt>
      <trkpt lat="45.7576" lon="6.52655">
        <ele>1651.2</ele>
        <time>2025-08-15T15:14:31Z</time>
      </trkpt>
      <trkpt lat="45.75759" lon="6.52656">
        <ele>1651.3</ele>
        <time>2025-08-15T15:14:32Z</time>
      </trkpt>
      <trkpt lat="45.75759" lon="6.52656">
        <ele>1651.3</ele>
        <time>2025-08-15T15:14:33Z</time>
      </trkpt>
      <trkpt lat="45.75758" lon="6.52656">
        <ele>1651.3</ele>
        <time>2025-08-15T15:14:34Z</time>
      </trkpt>
      <trkpt lat="45.75757" lon="6.52657">
        <ele>1651.4</ele>
        <time>2025-08-15T15:14:53Z</time>
      </trkpt>
      <trkpt lat="45.75756" lon="6.52657">
        <ele>1651.4</ele>
        <time>2025-08-15T15:14:54Z</time>
      </trkpt>
      <trkpt lat="45.75754" lon="6.5266">
        <ele>1651.5</ele>
        <time>2025-08-15T15:14:55Z</time>
      </trkpt>
      <trkpt lat="45.75752" lon="6.52663">
        <ele>1651.6</ele>
        <time>2025-08-15T15:14:56Z</time>
      </trkpt>
      <trkpt lat="45.75748" lon="6.52663">
        <ele>1651.7</ele>
        <time>2025-08-15T15:14:57Z</time>
      </trkpt>
      <trkpt lat="45.75747" lon="6.52663">
        <ele>1651.8</ele>
        <time>2025-08-15T15:14:58Z</time>
      </trkpt>
      <trkpt lat="45.75744" lon="6.52665">
        <ele>1651.9</ele>
        <time>2025-08-15T15:14:59Z</time>
      </trkpt>
      <trkpt lat="45.75744" lon="6.52665">
        <ele>1651.9</ele>
        <time>2025-08-15T15:15:00Z</time>
      </trkpt>
      <trkpt lat="45.75742" lon="6.52666">
        <ele>1651.9</ele>
        <time>2025-08-15T15:15:01Z</time>
      </trkpt>
      <trkpt lat="45.75741" lon="6.52666">
        <ele>1652</ele>
        <time>2025-08-15T15:15:02Z</time>
      </trkpt>
      <trkpt lat="45.75739" lon="6.52666">
        <ele>1652</ele>
        <time>2025-08-15T15:15:03Z</time>
      </trkpt>
      <trkpt lat="45.75738" lon="6.52666">
        <ele>1652.1</ele>
        <time>2025-08-15T15:15:04Z</time>
      </trkpt>
      <trkpt lat="45.75735" lon="6.52667">
        <ele>1652.2</ele>
        <time>2025-08-15T15:15:05Z</time>
      </trkpt>
      <trkpt lat="45.75734" lon="6.52667">
        <ele>1652.2</ele>
        <time>2025-08-15T15:15:06Z</time>
      </trkpt>
      <trkpt lat="45.75732" lon="6.52667">
        <ele>1652.3</ele>
        <time>2025-08-15T15:15:07Z</time>
      </trkpt>
      <trkpt lat="45.75732" lon="6.52667">
        <ele>1652.3</ele>
        <time>2025-08-15T15:15:08Z</time>
      </trkpt>
      <trkpt lat="45.75732" lon="6.52667">
        <ele>1652.3</ele>
        <time>2025-08-15T15:15:09Z</time>
      </trkpt>
      <trkpt lat="45.75732" lon="6.52667">
        <ele>1652.3</ele>
        <time>2025-08-15T15:15:10Z</time>
      </trkpt>
      <trkpt lat="45.75732" lon="6.52667">
        <ele>1652.3</ele>
        <time>2025-08-15T15:15:11Z</time>
      </trkpt>
      <trkpt lat="45.75732" lon="6.52667">
        <ele>1652.3</ele>
        <time>2025-08-15T15:15:12Z</time>
      </trkpt>
      <trkpt lat="45.75731" lon="6.52668">
        <ele>1652.4</ele>
        <time>2025-08-15T15:15:13Z</time>
      </trkpt>
      <trkpt lat="45.75728" lon="6.52669">
        <ele>1652.5</ele>
        <time>2025-08-15T15:15:14Z</time>
      </trkpt>
      <trkpt lat="45.75727" lon="6.52669">
        <ele>1652.5</ele>
        <time>2025-08-15T15:15:15Z</time>
      </trkpt>
      <trkpt lat="45.75723" lon="6.52668">
        <ele>1652.5</ele>
        <time>2025-08-15T15:15:16Z</time>
      </trkpt>
      <trkpt lat="45.75722" lon="6.52668">
        <ele>1652.6</ele>
        <time>2025-08-15T15:15:17Z</time>
      </trkpt>
      <trkpt lat="45.75718" lon="6.52668">
        <ele>1652.6</ele>
        <time>2025-08-15T15:15:18Z</time>
      </trkpt>
      <trkpt lat="45.75717" lon="6.52669">
        <ele>1652.7</ele>
        <time>2025-08-15T15:15:19Z</time>
      </trkpt>
      <trkpt lat="45.75714" lon="6.52669">
        <ele>1652.8</ele>
        <time>2025-08-15T15:15:20Z</time>
      </trkpt>
      <trkpt lat="45.75712" lon="6.52669">
        <ele>1652.8</ele>
        <time>2025-08-15T15:15:21Z</time>
      </trkpt>
      <trkpt lat="45.7571" lon="6.52669">
        <ele>1652.9</ele>
        <time>2025-08-15T15:15:22Z</time>
      </trkpt>
      <trkpt lat="45.75707" lon="6.52669">
        <ele>1653</ele>
        <time>2025-08-15T15:15:23Z</time>
      </trkpt>
      <trkpt lat="45.75706" lon="6.52669">
        <ele>1653.1</ele>
        <time>2025-08-15T15:15:24Z</time>
      </trkpt>
      <trkpt lat="45.75703" lon="6.52668">
        <ele>1653.3</ele>
        <time>2025-08-15T15:15:25Z</time>
      </trkpt>
      <trkpt lat="45.75702" lon="6.52668">
        <ele>1653.4</ele>
        <time>2025-08-15T15:15:26Z</time>
      </trkpt>
      <trkpt lat="45.75701" lon="6.52668">
        <ele>1653.5</ele>
        <time>2025-08-15T15:15:27Z</time>
      </trkpt>
      <trkpt lat="45.75699" lon="6.52668">
        <ele>1653.6</ele>
        <time>2025-08-15T15:15:28Z</time>
      </trkpt>
      <trkpt lat="45.75699" lon="6.52669">
        <ele>1653.7</ele>
        <time>2025-08-15T15:15:29Z</time>
      </trkpt>
      <trkpt lat="45.75697" lon="6.52669">
        <ele>1653.8</ele>
        <time>2025-08-15T15:15:30Z</time>
      </trkpt>
      <trkpt lat="45.75697" lon="6.5267">
        <ele>1653.9</ele>
        <time>2025-08-15T15:15:31Z</time>
      </trkpt>
      <trkpt lat="45.75696" lon="6.5267">
        <ele>1654</ele>
        <time>2025-08-15T15:15:32Z</time>
      </trkpt>
      <trkpt lat="45.75695" lon="6.5267">
        <ele>1654.1</ele>
        <time>2025-08-15T15:15:33Z</time>
      </trkpt>
      <trkpt lat="45.75694" lon="6.5267">
        <ele>1654.2</ele>
        <time>2025-08-15T15:15:35Z</time>
      </trkpt>
      <trkpt lat="45.75693" lon="6.5267">
        <ele>1654.3</ele>
        <time>2025-08-15T15:15:36Z</time>
      </trkpt>
      <trkpt lat="45.75692" lon="6.52671">
        <ele>1654.4</ele>
        <time>2025-08-15T15:15:37Z</time>
      </trkpt>
      <trkpt lat="45.75691" lon="6.52671">
        <ele>1654.5</ele>
        <time>2025-08-15T15:15:38Z</time>
      </trkpt>
      <trkpt lat="45.7569" lon="6.52671">
        <ele>1654.6</ele>
        <time>2025-08-15T15:15:39Z</time>
      </trkpt>
      <trkpt lat="45.75689" lon="6.52672">
        <ele>1654.7</ele>
        <time>2025-08-15T15:15:40Z</time>
      </trkpt>
      <trkpt lat="45.75688" lon="6.52673">
        <ele>1654.8</ele>
        <time>2025-08-15T15:15:41Z</time>
      </trkpt>
      <trkpt lat="45.75687" lon="6.52673">
        <ele>1654.9</ele>
        <time>2025-08-15T15:15:42Z</time>
      </trkpt>
      <trkpt lat="45.75686" lon="6.52673">
        <ele>1655</ele>
        <time>2025-08-15T15:15:43Z</time>
      </trkpt>
      <trkpt lat="45.75685" lon="6.52673">
        <ele>1655.1</ele>
        <time>2025-08-15T15:15:44Z</time>
      </trkpt>
      <trkpt lat="45.75685" lon="6.52673">
        <ele>1655.2</ele>
        <time>2025-08-15T15:15:45Z</time>
      </trkpt>
      <trkpt lat="45.75684" lon="6.52673">
        <ele>1655.3</ele>
        <time>2025-08-15T15:15:46Z</time>
      </trkpt>
      <trkpt lat="45.75683" lon="6.52673">
        <ele>1655.4</ele>
        <time>2025-08-15T15:15:47Z</time>
      </trkpt>
      <trkpt lat="45.75682" lon="6.52673">
        <ele>1655.5</ele>
        <time>2025-08-15T15:15:48Z</time>
      </trkpt>
      <trkpt lat="45.7568" lon="6.52672">
        <ele>1655.7</ele>
        <time>2025-08-15T15:15:49Z</time>
      </trkpt>
      <trkpt lat="45.7568" lon="6.52672">
        <ele>1655.7</ele>
        <time>2025-08-15T15:15:50Z</time>
      </trkpt>
      <trkpt lat="45.75679" lon="6.52671">
        <ele>1655.8</ele>
        <time>2025-08-15T15:15:51Z</time>
      </trkpt>
      <trkpt lat="45.75679" lon="6.52671">
        <ele>1655.8</ele>
        <time>2025-08-15T15:15:52Z</time>
      </trkpt>
      <trkpt lat="45.75678" lon="6.52671">
        <ele>1655.9</ele>
        <time>2025-08-15T15:15:53Z</time>
      </trkpt>
      <trkpt lat="45.75678" lon="6.52671">
        <ele>1656</ele>
        <time>2025-08-15T15:15:54Z</time>
      </trkpt>
      <trkpt lat="45.75676" lon="6.5267">
        <ele>1656.1</ele>
        <time>2025-08-15T15:15:55Z</time>
      </trkpt>
      <trkpt lat="45.75676" lon="6.52671">
        <ele>1656.2</ele>
        <time>2025-08-15T15:15:56Z</time>
      </trkpt>
      <trkpt lat="45.75676" lon="6.52671">
        <ele>1656.2</ele>
        <time>2025-08-15T15:15:57Z</time>
      </trkpt>
      <trkpt lat="45.75676" lon="6.52671">
        <ele>1656.2</ele>
        <time>2025-08-15T15:15:58Z</time>
      </trkpt>
      <trkpt lat="45.75676" lon="6.52671">
        <ele>1656.3</ele>
        <time>2025-08-15T15:15:59Z</time>
      </trkpt>
      <trkpt lat="45.75675" lon="6.52671">
        <ele>1656.4</ele>
        <time>2025-08-15T15:16:00Z</time>
      </trkpt>
      <trkpt lat="45.75674" lon="6.52671">
        <ele>1656.4</ele>
        <time>2025-08-15T15:16:01Z</time>
      </trkpt>
      <trkpt lat="45.75674" lon="6.52671">
        <ele>1656.5</ele>
        <time>2025-08-15T15:16:02Z</time>
      </trkpt>
      <trkpt lat="45.75673" lon="6.52671">
        <ele>1656.5</ele>
        <time>2025-08-15T15:16:03Z</time>
      </trkpt>
      <trkpt lat="45.75673" lon="6.52671">
        <ele>1656.6</ele>
        <time>2025-08-15T15:16:04Z</time>
      </trkpt>
      <trkpt lat="45.75673" lon="6.52671">
        <ele>1656.6</ele>
        <time>2025-08-15T15:16:21Z</time>
      </trkpt>
      <trkpt lat="45.75672" lon="6.52671">
        <ele>1656.6</ele>
        <time>2025-08-15T15:16:22Z</time>
      </trkpt>
      <trkpt lat="45.75672" lon="6.52671">
        <ele>1656.7</ele>
        <time>2025-08-15T15:16:23Z</time>
      </trkpt>
      <trkpt lat="45.75672" lon="6.52672">
        <ele>1656.7</ele>
        <time>2025-08-15T15:16:24Z</time>
      </trkpt>
      <trkpt lat="45.75671" lon="6.52672">
        <ele>1656.8</ele>
        <time>2025-08-15T15:16:25Z</time>
      </trkpt>
      <trkpt lat="45.75671" lon="6.52672">
        <ele>1656.8</ele>
        <time>2025-08-15T15:16:26Z</time>
      </trkpt>
      <trkpt lat="45.75671" lon="6.52672">
        <ele>1656.8</ele>
        <time>2025-08-15T15:16:27Z</time>
      </trkpt>
      <trkpt lat="45.7567" lon="6.52672">
        <ele>1656.9</ele>
        <time>2025-08-15T15:16:28Z</time>
      </trkpt>
      <trkpt lat="45.7567" lon="6.52672">
        <ele>1656.9</ele>
        <time>2025-08-15T15:16:29Z</time>
      </trkpt>
      <trkpt lat="45.75669" lon="6.52672">
        <ele>1657</ele>
        <time>2025-08-15T15:16:30Z</time>
      </trkpt>
      <trkpt lat="45.75669" lon="6.52672">
        <ele>1657</ele>
        <time>2025-08-15T15:16:31Z</time>
      </trkpt>
      <trkpt lat="45.75669" lon="6.52672">
        <ele>1657</ele>
        <time>2025-08-15T15:17:55Z</time>
      </trkpt>
      <trkpt lat="45.75668" lon="6.52672">
        <ele>1657.1</ele>
        <time>2025-08-15T15:17:56Z</time>
      </trkpt>
      <trkpt lat="45.75668" lon="6.52672">
        <ele>1657.1</ele>
        <time>2025-08-15T15:17:57Z</time>
      </trkpt>
      <trkpt lat="45.75665" lon="6.52672">
        <ele>1657.4</ele>
        <time>2025-08-15T15:17:58Z</time>
      </trkpt>
      <trkpt lat="45.75664" lon="6.52672">
        <ele>1657.5</ele>
        <time>2025-08-15T15:17:59Z</time>
      </trkpt>
      <trkpt lat="45.75662" lon="6.52672">
        <ele>1657.8</ele>
        <time>2025-08-15T15:18:00Z</time>
      </trkpt>
      <trkpt lat="45.75661" lon="6.52673">
        <ele>1657.9</ele>
        <time>2025-08-15T15:18:01Z</time>
      </trkpt>
      <trkpt lat="45.75657" lon="6.52672">
        <ele>1658.2</ele>
        <time>2025-08-15T15:18:02Z</time>
      </trkpt>
      <trkpt lat="45.75656" lon="6.52671">
        <ele>1658.3</ele>
        <time>2025-08-15T15:18:03Z</time>
      </trkpt>
      <trkpt lat="45.75653" lon="6.5267">
        <ele>1658.5</ele>
        <time>2025-08-15T15:18:04Z</time>
      </trkpt>
      <trkpt lat="45.75652" lon="6.5267">
        <ele>1658.6</ele>
        <time>2025-08-15T15:18:05Z</time>
      </trkpt>
      <trkpt lat="45.75649" lon="6.5267">
        <ele>1658.9</ele>
        <time>2025-08-15T15:18:06Z</time>
      </trkpt>
      <trkpt lat="45.75646" lon="6.5267">
        <ele>1659.1</ele>
        <time>2025-08-15T15:18:07Z</time>
      </trkpt>
      <trkpt lat="45.75643" lon="6.52671">
        <ele>1659.3</ele>
        <time>2025-08-15T15:18:08Z</time>
      </trkpt>
      <trkpt lat="45.75642" lon="6.52671">
        <ele>1659.4</ele>
        <time>2025-08-15T15:18:09Z</time>
      </trkpt>
      <trkpt lat="45.75638" lon="6.52673">
        <ele>1659.6</ele>
        <time>2025-08-15T15:18:10Z</time>
      </trkpt>
      <trkpt lat="45.75636" lon="6.52673">
        <ele>1659.7</ele>
        <time>2025-08-15T15:18:11Z</time>
      </trkpt>
      <trkpt lat="45.75634" lon="6.52675">
        <ele>1659.9</ele>
        <time>2025-08-15T15:18:12Z</time>
      </trkpt>
      <trkpt lat="45.75631" lon="6.52676">
        <ele>1660.1</ele>
        <time>2025-08-15T15:18:13Z</time>
      </trkpt>
      <trkpt lat="45.75628" lon="6.52677">
        <ele>1660.3</ele>
        <time>2025-08-15T15:18:14Z</time>
      </trkpt>
      <trkpt lat="45.75624" lon="6.52678">
        <ele>1660.5</ele>
        <time>2025-08-15T15:18:15Z</time>
      </trkpt>
      <trkpt lat="45.75623" lon="6.52678">
        <ele>1660.6</ele>
        <time>2025-08-15T15:18:16Z</time>
      </trkpt>
      <trkpt lat="45.75619" lon="6.52679">
        <ele>1660.9</ele>
        <time>2025-08-15T15:18:17Z</time>
      </trkpt>
      <trkpt lat="45.75618" lon="6.5268">
        <ele>1661</ele>
        <time>2025-08-15T15:18:18Z</time>
      </trkpt>
      <trkpt lat="45.75615" lon="6.5268">
        <ele>1661.1</ele>
        <time>2025-08-15T15:18:19Z</time>
      </trkpt>
      <trkpt lat="45.75612" lon="6.5268">
        <ele>1661.3</ele>
        <time>2025-08-15T15:18:20Z</time>
      </trkpt>
      <trkpt lat="45.75609" lon="6.5268">
        <ele>1661.5</ele>
        <time>2025-08-15T15:18:21Z</time>
      </trkpt>
      <trkpt lat="45.75608" lon="6.52681">
        <ele>1661.6</ele>
        <time>2025-08-15T15:18:22Z</time>
      </trkpt>
      <trkpt lat="45.75606" lon="6.52681">
        <ele>1661.7</ele>
        <time>2025-08-15T15:18:23Z</time>
      </trkpt>
      <trkpt lat="45.75604" lon="6.52682">
        <ele>1661.9</ele>
        <time>2025-08-15T15:18:24Z</time>
      </trkpt>
      <trkpt lat="45.75602" lon="6.52681">
        <ele>1662</ele>
        <time>2025-08-15T15:18:25Z</time>
      </trkpt>
      <trkpt lat="45.756" lon="6.5268">
        <ele>1662.2</ele>
        <time>2025-08-15T15:18:26Z</time>
      </trkpt>
      <trkpt lat="45.75599" lon="6.52679">
        <ele>1662.3</ele>
        <time>2025-08-15T15:18:27Z</time>
      </trkpt>
      <trkpt lat="45.75596" lon="6.52679">
        <ele>1662.5</ele>
        <time>2025-08-15T15:18:28Z</time>
      </trkpt>
      <trkpt lat="45.75595" lon="6.52679">
        <ele>1662.6</ele>
        <time>2025-08-15T15:18:29Z</time>
      </trkpt>
      <trkpt lat="45.75593" lon="6.52679">
        <ele>1662.8</ele>
        <time>2025-08-15T15:18:30Z</time>
      </trkpt>
      <trkpt lat="45.75591" lon="6.52679">
        <ele>1662.9</ele>
        <time>2025-08-15T15:18:31Z</time>
      </trkpt>
      <trkpt lat="45.7559" lon="6.52678">
        <ele>1663</ele>
        <time>2025-08-15T15:18:32Z</time>
      </trkpt>
      <trkpt lat="45.7559" lon="6.52677">
        <ele>1663.7</ele>
        <time>2025-08-15T15:18:33Z</time>
      </trkpt>
      <trkpt lat="45.75589" lon="6.52676">
        <ele>1663.8</ele>
        <time>2025-08-15T15:18:34Z</time>
      </trkpt>
      <trkpt lat="45.75588" lon="6.52674">
        <ele>1663.8</ele>
        <time>2025-08-15T15:18:35Z</time>
      </trkpt>
      <trkpt lat="45.75589" lon="6.52672">
        <ele>1664.4</ele>
        <time>2025-08-15T15:18:36Z</time>
      </trkpt>
      <trkpt lat="45.75589" lon="6.5267">
        <ele>1664.4</ele>
        <time>2025-08-15T15:18:37Z</time>
      </trkpt>
      <trkpt lat="45.75591" lon="6.52669">
        <ele>1665.1</ele>
        <time>2025-08-15T15:18:38Z</time>
      </trkpt>
      <trkpt lat="45.75593" lon="6.52667">
        <ele>1664.8</ele>
        <time>2025-08-15T15:18:39Z</time>
      </trkpt>
      <trkpt lat="45.75594" lon="6.52666">
        <ele>1664.4</ele>
        <time>2025-08-15T15:18:40Z</time>
      </trkpt>
      <trkpt lat="45.75595" lon="6.52666">
        <ele>1664.4</ele>
        <time>2025-08-15T15:18:41Z</time>
      </trkpt>
      <trkpt lat="45.75597" lon="6.52666">
        <ele>1664.1</ele>
        <time>2025-08-15T15:18:42Z</time>
      </trkpt>
      <trkpt lat="45.75597" lon="6.52665">
        <ele>1664.1</ele>
        <time>2025-08-15T15:18:43Z</time>
      </trkpt>
      <trkpt lat="45.75598" lon="6.52665">
        <ele>1664.1</ele>
        <time>2025-08-15T15:18:44Z</time>
      </trkpt>
      <trkpt lat="45.75597" lon="6.52665">
        <ele>1664.1</ele>
        <time>2025-08-15T15:18:45Z</time>
      </trkpt>
      <trkpt lat="45.75597" lon="6.52666">
        <ele>1664.2</ele>
        <time>2025-08-15T15:18:46Z</time>
      </trkpt>
      <trkpt lat="45.75597" lon="6.52666">
        <ele>1664.2</ele>
        <time>2025-08-15T15:18:47Z</time>
      </trkpt>
      <trkpt lat="45.75597" lon="6.52666">
        <ele>1664.2</ele>
        <time>2025-08-15T15:18:48Z</time>
      </trkpt>
      <trkpt lat="45.75597" lon="6.52666">
        <ele>1664.2</ele>
        <time>2025-08-15T15:18:49Z</time>
      </trkpt>
      <trkpt lat="45.75597" lon="6.52666">
        <ele>1664.6</ele>
        <time>2025-08-15T15:18:50Z</time>
      </trkpt>
      <trkpt lat="45.75597" lon="6.52666">
        <ele>1664.2</ele>
        <time>2025-08-15T15:18:51Z</time>
      </trkpt>
      <trkpt lat="45.75597" lon="6.52666">
        <ele>1664.2</ele>
        <time>2025-08-15T15:18:52Z</time>
      </trkpt>
      <trkpt lat="45.75599" lon="6.52664">
        <ele>1664.8</ele>
        <time>2025-08-15T15:18:53Z</time>
      </trkpt>
      <trkpt lat="45.756" lon="6.52663">
        <ele>1664.4</ele>
        <time>2025-08-15T15:18:54Z</time>
      </trkpt>
      <trkpt lat="45.756" lon="6.52663">
        <ele>1664.4</ele>
        <time>2025-08-15T15:18:55Z</time>
      </trkpt>
      <trkpt lat="45.756" lon="6.52663">
        <ele>1664.5</ele>
        <time>2025-08-15T15:18:56Z</time>
      </trkpt>
      <trkpt lat="45.756" lon="6.52663">
        <ele>1664.5</ele>
        <time>2025-08-15T15:18:57Z</time>
      </trkpt>
      <trkpt lat="45.756" lon="6.52663">
        <ele>1664.5</ele>
        <time>2025-08-15T15:18:58Z</time>
      </trkpt>
      <trkpt lat="45.756" lon="6.52663">
        <ele>1664.5</ele>
        <time>2025-08-15T15:18:59Z</time>
      </trkpt>
      <trkpt lat="45.756" lon="6.52663">
        <ele>1664.5</ele>
        <time>2025-08-15T15:19:00Z</time>
      </trkpt>
      <trkpt lat="45.756" lon="6.52663">
        <ele>1664.5</ele>
        <time>2025-08-15T15:19:01Z</time>
      </trkpt>
      <trkpt lat="45.756" lon="6.52663">
        <ele>1664.5</ele>
        <time>2025-08-15T15:19:02Z</time>
      </trkpt>
      <trkpt lat="45.756" lon="6.52664">
        <ele>1664.6</ele>
        <time>2025-08-15T15:19:03Z</time>
      </trkpt>
      <trkpt lat="45.756" lon="6.52663">
        <ele>1664.6</ele>
        <time>2025-08-15T15:19:04Z</time>
      </trkpt>
      <trkpt lat="45.75604" lon="6.52657">
        <ele>1664.7</ele>
        <time>2025-08-15T15:19:08Z</time>
      </trkpt>
      <trkpt lat="45.75605" lon="6.52656">
        <ele>1665.1</ele>
        <time>2025-08-15T15:19:09Z</time>
      </trkpt>
      <trkpt lat="45.75605" lon="6.52656">
        <ele>1665.2</ele>
        <time>2025-08-15T15:19:10Z</time>
      </trkpt>
      <trkpt lat="45.75605" lon="6.52651">
        <ele>1665.6</ele>
        <time>2025-08-15T15:19:11Z</time>
      </trkpt>
      <trkpt lat="45.75602" lon="6.52648">
        <ele>1666.5</ele>
        <time>2025-08-15T15:19:12Z</time>
      </trkpt>
      <trkpt lat="45.75601" lon="6.52647">
        <ele>1666.6</ele>
        <time>2025-08-15T15:19:13Z</time>
      </trkpt>
      <trkpt lat="45.75599" lon="6.52646">
        <ele>1667</ele>
        <time>2025-08-15T15:19:14Z</time>
      </trkpt>
      <trkpt lat="45.75598" lon="6.52646">
        <ele>1667</ele>
        <time>2025-08-15T15:19:15Z</time>
      </trkpt>
      <trkpt lat="45.75596" lon="6.52644">
        <ele>1667.4</ele>
        <time>2025-08-15T15:19:16Z</time>
      </trkpt>
      <trkpt lat="45.75595" lon="6.52644">
        <ele>1667.9</ele>
        <time>2025-08-15T15:19:17Z</time>
      </trkpt>
      <trkpt lat="45.75593" lon="6.52639">
        <ele>1668.9</ele>
        <time>2025-08-15T15:19:18Z</time>
      </trkpt>
      <trkpt lat="45.75593" lon="6.52638">
        <ele>1668.9</ele>
        <time>2025-08-15T15:19:19Z</time>
      </trkpt>
      <trkpt lat="45.75592" lon="6.52636">
        <ele>1668.9</ele>
        <time>2025-08-15T15:19:20Z</time>
      </trkpt>
      <trkpt lat="45.7559" lon="6.52635">
        <ele>1669.8</ele>
        <time>2025-08-15T15:19:21Z</time>
      </trkpt>
      <trkpt lat="45.75588" lon="6.52632">
        <ele>1670.3</ele>
        <time>2025-08-15T15:19:22Z</time>
      </trkpt>
      <trkpt lat="45.75587" lon="6.52631">
        <ele>1670.3</ele>
        <time>2025-08-15T15:19:23Z</time>
      </trkpt>
      <trkpt lat="45.75585" lon="6.52628">
        <ele>1670.8</ele>
        <time>2025-08-15T15:19:24Z</time>
      </trkpt>
      <trkpt lat="45.75584" lon="6.52626">
        <ele>1671.7</ele>
        <time>2025-08-15T15:19:25Z</time>
      </trkpt>
      <trkpt lat="45.75582" lon="6.52623">
        <ele>1672.2</ele>
        <time>2025-08-15T15:19:26Z</time>
      </trkpt>
      <trkpt lat="45.7558" lon="6.52622">
        <ele>1672.7</ele>
        <time>2025-08-15T15:19:27Z</time>
      </trkpt>
      <trkpt lat="45.75578" lon="6.5262">
        <ele>1673.2</ele>
        <time>2025-08-15T15:19:28Z</time>
      </trkpt>
      <trkpt lat="45.75577" lon="6.5262">
        <ele>1673.2</ele>
        <time>2025-08-15T15:19:29Z</time>
      </trkpt>
      <trkpt lat="45.75575" lon="6.52618">
        <ele>1673.8</ele>
        <time>2025-08-15T15:19:30Z</time>
      </trkpt>
      <trkpt lat="45.75574" lon="6.52617">
        <ele>1674.2</ele>
        <time>2025-08-15T15:19:31Z</time>
      </trkpt>
      <trkpt lat="45.75571" lon="6.52616">
        <ele>1674.8</ele>
        <time>2025-08-15T15:19:32Z</time>
      </trkpt>
      <trkpt lat="45.7557" lon="6.52615">
        <ele>1674.8</ele>
        <time>2025-08-15T15:19:33Z</time>
      </trkpt>
      <trkpt lat="45.75568" lon="6.52611">
        <ele>1675.7</ele>
        <time>2025-08-15T15:19:34Z</time>
      </trkpt>
      <trkpt lat="45.75568" lon="6.52609">
        <ele>1676.2</ele>
        <time>2025-08-15T15:19:35Z</time>
      </trkpt>
      <trkpt lat="45.75568" lon="6.52605">
        <ele>1676.7</ele>
        <time>2025-08-15T15:19:36Z</time>
      </trkpt>
      <trkpt lat="45.75567" lon="6.52604">
        <ele>1676.7</ele>
        <time>2025-08-15T15:19:37Z</time>
      </trkpt>
      <trkpt lat="45.75565" lon="6.52601">
        <ele>1677.6</ele>
        <time>2025-08-15T15:19:38Z</time>
      </trkpt>
      <trkpt lat="45.75564" lon="6.52599">
        <ele>1677.6</ele>
        <time>2025-08-15T15:19:39Z</time>
      </trkpt>
      <trkpt lat="45.75564" lon="6.52597">
        <ele>1677.7</ele>
        <time>2025-08-15T15:19:40Z</time>
      </trkpt>
      <trkpt lat="45.75563" lon="6.52596">
        <ele>1678.6</ele>
        <time>2025-08-15T15:19:41Z</time>
      </trkpt>
      <trkpt lat="45.75562" lon="6.52594">
        <ele>1678.6</ele>
        <time>2025-08-15T15:19:42Z</time>
      </trkpt>
      <trkpt lat="45.75561" lon="6.52594">
        <ele>1678.6</ele>
        <time>2025-08-15T15:19:43Z</time>
      </trkpt>
      <trkpt lat="45.7556" lon="6.52594">
        <ele>1679.1</ele>
        <time>2025-08-15T15:19:44Z</time>
      </trkpt>
      <trkpt lat="45.75558" lon="6.52594">
        <ele>1679.1</ele>
        <time>2025-08-15T15:19:45Z</time>
      </trkpt>
      <trkpt lat="45.75557" lon="6.52594">
        <ele>1679.6</ele>
        <time>2025-08-15T15:19:47Z</time>
      </trkpt>
      <trkpt lat="45.75556" lon="6.52594">
        <ele>1679.6</ele>
        <time>2025-08-15T15:19:48Z</time>
      </trkpt>
      <trkpt lat="45.75556" lon="6.52594">
        <ele>1679.6</ele>
        <time>2025-08-15T15:19:49Z</time>
      </trkpt>
      <trkpt lat="45.75556" lon="6.52595">
        <ele>1679.6</ele>
        <time>2025-08-15T15:19:50Z</time>
      </trkpt>
      <trkpt lat="45.75556" lon="6.52595">
        <ele>1679.7</ele>
        <time>2025-08-15T15:19:51Z</time>
      </trkpt>
      <trkpt lat="45.75556" lon="6.52595">
        <ele>1679.7</ele>
        <time>2025-08-15T15:19:52Z</time>
      </trkpt>
      <trkpt lat="45.75556" lon="6.52594">
        <ele>1679.7</ele>
        <time>2025-08-15T15:19:53Z</time>
      </trkpt>
      <trkpt lat="45.75556" lon="6.52593">
        <ele>1679.7</ele>
        <time>2025-08-15T15:19:54Z</time>
      </trkpt>
      <trkpt lat="45.75556" lon="6.52593">
        <ele>1679.7</ele>
        <time>2025-08-15T15:19:55Z</time>
      </trkpt>
      <trkpt lat="45.75556" lon="6.52593">
        <ele>1679.7</ele>
        <time>2025-08-15T15:19:56Z</time>
      </trkpt>
      <trkpt lat="45.75556" lon="6.52593">
        <ele>1679.7</ele>
        <time>2025-08-15T15:19:57Z</time>
      </trkpt>
      <trkpt lat="45.75563" lon="6.52607">
        <ele>1677.4</ele>
        <time>2025-08-15T15:20:18Z</time>
      </trkpt>
      <trkpt lat="45.75563" lon="6.52609">
        <ele>1677.4</ele>
        <time>2025-08-15T15:20:19Z</time>
      </trkpt>
      <trkpt lat="45.75565" lon="6.5261">
        <ele>1676.5</ele>
        <time>2025-08-15T15:20:20Z</time>
      </trkpt>
      <trkpt lat="45.75565" lon="6.52613">
        <ele>1676.6</ele>
        <time>2025-08-15T15:20:21Z</time>
      </trkpt>
      <trkpt lat="45.75568" lon="6.52615">
        <ele>1675.7</ele>
        <time>2025-08-15T15:20:22Z</time>
      </trkpt>
      <trkpt lat="45.75571" lon="6.52617">
        <ele>1675.2</ele>
        <time>2025-08-15T15:20:23Z</time>
      </trkpt>
      <trkpt lat="45.75572" lon="6.52617">
        <ele>1675.2</ele>
        <time>2025-08-15T15:20:24Z</time>
      </trkpt>
      <trkpt lat="45.75569" lon="6.52615">
        <ele>1675.7</ele>
        <time>2025-08-15T15:20:25Z</time>
      </trkpt>
      <trkpt lat="45.75566" lon="6.52613">
        <ele>1676.6</ele>
        <time>2025-08-15T15:20:26Z</time>
      </trkpt>
      <trkpt lat="45.75564" lon="6.5261">
        <ele>1677.1</ele>
        <time>2025-08-15T15:20:27Z</time>
      </trkpt>
      <trkpt lat="45.75561" lon="6.52608">
        <ele>1677.6</ele>
        <time>2025-08-15T15:20:28Z</time>
      </trkpt>
      <trkpt lat="45.75558" lon="6.52606">
        <ele>1678</ele>
        <time>2025-08-15T15:20:29Z</time>
      </trkpt>
      <trkpt lat="45.75556" lon="6.52603">
        <ele>1679</ele>
        <time>2025-08-15T15:20:30Z</time>
      </trkpt>
      <trkpt lat="45.75553" lon="6.52601">
        <ele>1679.5</ele>
        <time>2025-08-15T15:20:31Z</time>
      </trkpt>
      <trkpt lat="45.7555" lon="6.52599">
        <ele>1680.4</ele>
        <time>2025-08-15T15:20:32Z</time>
      </trkpt>
      <trkpt lat="45.75548" lon="6.52597">
        <ele>1680.8</ele>
        <time>2025-08-15T15:20:33Z</time>
      </trkpt>
      <trkpt lat="45.75545" lon="6.52594">
        <ele>1681.7</ele>
        <time>2025-08-15T15:20:34Z</time>
      </trkpt>
      <trkpt lat="45.75542" lon="6.52592">
        <ele>1682.7</ele>
        <time>2025-08-15T15:22:50Z</time>
      </trkpt>
      <trkpt lat="45.7554" lon="6.5259">
        <ele>1683.1</ele>
        <time>2025-08-15T15:22:51Z</time>
      </trkpt>
      <trkpt lat="45.75539" lon="6.52588">
        <ele>1683.1</ele>
        <time>2025-08-15T15:22:52Z</time>
      </trkpt>
      <trkpt lat="45.75538" lon="6.52586">
        <ele>1683.9</ele>
        <time>2025-08-15T15:22:53Z</time>
      </trkpt>
      <trkpt lat="45.75538" lon="6.52584">
        <ele>1684.1</ele>
        <time>2025-08-15T15:22:54Z</time>
      </trkpt>
      <trkpt lat="45.75537" lon="6.52582">
        <ele>1684.3</ele>
        <time>2025-08-15T15:22:55Z</time>
      </trkpt>
      <trkpt lat="45.75538" lon="6.5258">
        <ele>1684.5</ele>
        <time>2025-08-15T15:22:56Z</time>
      </trkpt>
      <trkpt lat="45.75538" lon="6.52578">
        <ele>1684.6</ele>
        <time>2025-08-15T15:22:57Z</time>
      </trkpt>
      <trkpt lat="45.75538" lon="6.52577">
        <ele>1684.7</ele>
        <time>2025-08-15T15:22:58Z</time>
      </trkpt>
      <trkpt lat="45.75539" lon="6.52576">
        <ele>1684.9</ele>
        <time>2025-08-15T15:22:59Z</time>
      </trkpt>
      <trkpt lat="45.75539" lon="6.52575">
        <ele>1685</ele>
        <time>2025-08-15T15:23:00Z</time>
      </trkpt>
      <trkpt lat="45.7554" lon="6.52574">
        <ele>1685.1</ele>
        <time>2025-08-15T15:23:01Z</time>
      </trkpt>
      <trkpt lat="45.75541" lon="6.52572">
        <ele>1685.3</ele>
        <time>2025-08-15T15:23:02Z</time>
      </trkpt>
      <trkpt lat="45.75542" lon="6.52571">
        <ele>1685.4</ele>
        <time>2025-08-15T15:23:03Z</time>
      </trkpt>
      <trkpt lat="45.75542" lon="6.5257">
        <ele>1685.4</ele>
        <time>2025-08-15T15:23:04Z</time>
      </trkpt>
      <trkpt lat="45.75542" lon="6.52569">
        <ele>1685.5</ele>
        <time>2025-08-15T15:23:05Z</time>
      </trkpt>
      <trkpt lat="45.75543" lon="6.52568">
        <ele>1685.7</ele>
        <time>2025-08-15T15:23:06Z</time>
      </trkpt>
      <trkpt lat="45.75544" lon="6.52567">
        <ele>1685.8</ele>
        <time>2025-08-15T15:23:07Z</time>
      </trkpt>
      <trkpt lat="45.75544" lon="6.52566">
        <ele>1685.9</ele>
        <time>2025-08-15T15:23:08Z</time>
      </trkpt>
      <trkpt lat="45.75545" lon="6.52565">
        <ele>1685.9</ele>
        <time>2025-08-15T15:23:09Z</time>
      </trkpt>
      <trkpt lat="45.75546" lon="6.52563">
        <ele>1686.1</ele>
        <time>2025-08-15T15:23:10Z</time>
      </trkpt>
      <trkpt lat="45.75546" lon="6.52563">
        <ele>1686.1</ele>
        <time>2025-08-15T15:23:11Z</time>
      </trkpt>
      <trkpt lat="45.75546" lon="6.52563">
        <ele>1686.1</ele>
        <time>2025-08-15T15:23:12Z</time>
      </trkpt>
      <trkpt lat="45.75547" lon="6.52562">
        <ele>1686.2</ele>
        <time>2025-08-15T15:23:13Z</time>
      </trkpt>
      <trkpt lat="45.75548" lon="6.5256">
        <ele>1686.3</ele>
        <time>2025-08-15T15:23:14Z</time>
      </trkpt>
      <trkpt lat="45.75549" lon="6.52559">
        <ele>1686.4</ele>
        <time>2025-08-15T15:23:15Z</time>
      </trkpt>
      <trkpt lat="45.7555" lon="6.52558">
        <ele>1686.5</ele>
        <time>2025-08-15T15:23:16Z</time>
      </trkpt>
      <trkpt lat="45.7555" lon="6.52557">
        <ele>1686.6</ele>
        <time>2025-08-15T15:23:17Z</time>
      </trkpt>
      <trkpt lat="45.75551" lon="6.52556">
        <ele>1686.7</ele>
        <time>2025-08-15T15:23:18Z</time>
      </trkpt>
      <trkpt lat="45.75552" lon="6.52555">
        <ele>1686.8</ele>
        <time>2025-08-15T15:23:19Z</time>
      </trkpt>
      <trkpt lat="45.75553" lon="6.52553">
        <ele>1687</ele>
        <time>2025-08-15T15:23:20Z</time>
      </trkpt>
      <trkpt lat="45.75554" lon="6.52552">
        <ele>1687</ele>
        <time>2025-08-15T15:23:21Z</time>
      </trkpt>
      <trkpt lat="45.75555" lon="6.52551">
        <ele>1687.1</ele>
        <time>2025-08-15T15:23:22Z</time>
      </trkpt>
      <trkpt lat="45.75555" lon="6.5255">
        <ele>1687.2</ele>
        <time>2025-08-15T15:23:23Z</time>
      </trkpt>
      <trkpt lat="45.75556" lon="6.52548">
        <ele>1687.3</ele>
        <time>2025-08-15T15:23:24Z</time>
      </trkpt>
      <trkpt lat="45.75556" lon="6.52547">
        <ele>1687.3</ele>
        <time>2025-08-15T15:23:25Z</time>
      </trkpt>
      <trkpt lat="45.75557" lon="6.52546">
        <ele>1687.4</ele>
        <time>2025-08-15T15:23:26Z</time>
      </trkpt>
      <trkpt lat="45.75557" lon="6.52545">
        <ele>1687.4</ele>
        <time>2025-08-15T15:23:27Z</time>
      </trkpt>
      <trkpt lat="45.75557" lon="6.52544">
        <ele>1687.5</ele>
        <time>2025-08-15T15:23:28Z</time>
      </trkpt>
      <trkpt lat="45.75557" lon="6.52544">
        <ele>1687.5</ele>
        <time>2025-08-15T15:23:29Z</time>
      </trkpt>
      <trkpt lat="45.75557" lon="6.52545">
        <ele>1687.5</ele>
        <time>2025-08-15T15:23:30Z</time>
      </trkpt>
      <trkpt lat="45.75557" lon="6.52545">
        <ele>1687.5</ele>
        <time>2025-08-15T15:23:31Z</time>
      </trkpt>
      <trkpt lat="45.75557" lon="6.52545">
        <ele>1687.5</ele>
        <time>2025-08-15T15:23:32Z</time>
      </trkpt>
      <trkpt lat="45.75557" lon="6.52545">
        <ele>1687.5</ele>
        <time>2025-08-15T15:23:33Z</time>
      </trkpt>
      <trkpt lat="45.75558" lon="6.52543">
        <ele>1687.6</ele>
        <time>2025-08-15T15:23:34Z</time>
      </trkpt>
      <trkpt lat="45.75558" lon="6.52542">
        <ele>1687.7</ele>
        <time>2025-08-15T15:23:35Z</time>
      </trkpt>
      <trkpt lat="45.75558" lon="6.5254">
        <ele>1687.7</ele>
        <time>2025-08-15T15:23:36Z</time>
      </trkpt>
      <trkpt lat="45.75558" lon="6.52539">
        <ele>1687.7</ele>
        <time>2025-08-15T15:23:37Z</time>
      </trkpt>
      <trkpt lat="45.75558" lon="6.52539">
        <ele>1687.8</ele>
        <time>2025-08-15T15:23:38Z</time>
      </trkpt>
      <trkpt lat="45.75558" lon="6.52539">
        <ele>1687.8</ele>
        <time>2025-08-15T15:23:39Z</time>
      </trkpt>
      <trkpt lat="45.75558" lon="6.52538">
        <ele>1687.8</ele>
        <time>2025-08-15T15:23:40Z</time>
      </trkpt>
      <trkpt lat="45.75558" lon="6.52538">
        <ele>1687.8</ele>
        <time>2025-08-15T15:23:41Z</time>
      </trkpt>
      <trkpt lat="45.75558" lon="6.52538">
        <ele>1687.8</ele>
        <time>2025-08-15T15:23:42Z</time>
      </trkpt>
      <trkpt lat="45.75558" lon="6.52537">
        <ele>1687.8</ele>
        <time>2025-08-15T15:23:43Z</time>
      </trkpt>
      <trkpt lat="45.75558" lon="6.52537">
        <ele>1687.8</ele>
        <time>2025-08-15T15:23:44Z</time>
      </trkpt>
      <trkpt lat="45.75558" lon="6.52537">
        <ele>1687.8</ele>
        <time>2025-08-15T15:23:45Z</time>
      </trkpt>
      <trkpt lat="45.75558" lon="6.52537">
        <ele>1687.8</ele>
        <time>2025-08-15T15:23:46Z</time>
      </trkpt>
      <trkpt lat="45.75558" lon="6.52537">
        <ele>1687.8</ele>
        <time>2025-08-15T15:23:47Z</time>
      </trkpt>
      <trkpt lat="45.7556" lon="6.52525">
        <ele>1688.2</ele>
        <time>2025-08-15T15:24:55Z</time>
      </trkpt>
      <trkpt lat="45.7556" lon="6.52522">
        <ele>1688.3</ele>
        <time>2025-08-15T15:24:56Z</time>
      </trkpt>
      <trkpt lat="45.75562" lon="6.5252">
        <ele>1688.4</ele>
        <time>2025-08-15T15:24:57Z</time>
      </trkpt>
      <trkpt lat="45.75562" lon="6.52519">
        <ele>1688.4</ele>
        <time>2025-08-15T15:24:58Z</time>
      </trkpt>
      <trkpt lat="45.75563" lon="6.52518">
        <ele>1688.4</ele>
        <time>2025-08-15T15:24:59Z</time>
      </trkpt>
      <trkpt lat="45.75564" lon="6.52516">
        <ele>1688.5</ele>
        <time>2025-08-15T15:25:00Z</time>
      </trkpt>
      <trkpt lat="45.75564" lon="6.52514">
        <ele>1688.6</ele>
        <time>2025-08-15T15:25:01Z</time>
      </trkpt>
      <trkpt lat="45.75565" lon="6.52514">
        <ele>1688.6</ele>
        <time>2025-08-15T15:25:02Z</time>
      </trkpt>
      <trkpt lat="45.75565" lon="6.52512">
        <ele>1688.7</ele>
        <time>2025-08-15T15:25:03Z</time>
      </trkpt>
      <trkpt lat="45.75566" lon="6.5251">
        <ele>1688.8</ele>
        <time>2025-08-15T15:25:04Z</time>
      </trkpt>
      <trkpt lat="45.75566" lon="6.52506">
        <ele>1689</ele>
        <time>2025-08-15T15:25:05Z</time>
      </trkpt>
      <trkpt lat="45.75565" lon="6.52505">
        <ele>1689.1</ele>
        <time>2025-08-15T15:25:06Z</time>
      </trkpt>
      <trkpt lat="45.75562" lon="6.52503">
        <ele>1689.3</ele>
        <time>2025-08-15T15:25:07Z</time>
      </trkpt>
      <trkpt lat="45.75561" lon="6.52503">
        <ele>1689.4</ele>
        <time>2025-08-15T15:25:08Z</time>
      </trkpt>
      <trkpt lat="45.75559" lon="6.52504">
        <ele>1689.6</ele>
        <time>2025-08-15T15:25:09Z</time>
      </trkpt>
      <trkpt lat="45.75558" lon="6.52505">
        <ele>1689.7</ele>
        <time>2025-08-15T15:25:10Z</time>
      </trkpt>
      <trkpt lat="45.75556" lon="6.52506">
        <ele>1689.9</ele>
        <time>2025-08-15T15:25:11Z</time>
      </trkpt>
      <trkpt lat="45.75555" lon="6.52507">
        <ele>1690</ele>
        <time>2025-08-15T15:25:12Z</time>
      </trkpt>
      <trkpt lat="45.75554" lon="6.52507">
        <ele>1690.1</ele>
        <time>2025-08-15T15:25:13Z</time>
      </trkpt>
      <trkpt lat="45.75553" lon="6.52508">
        <ele>1690.3</ele>
        <time>2025-08-15T15:25:14Z</time>
      </trkpt>
      <trkpt lat="45.75552" lon="6.5251">
        <ele>1690.4</ele>
        <time>2025-08-15T15:25:15Z</time>
      </trkpt>
      <trkpt lat="45.75551" lon="6.52511">
        <ele>1690.6</ele>
        <time>2025-08-15T15:25:16Z</time>
      </trkpt>
      <trkpt lat="45.7555" lon="6.52513">
        <ele>1690.7</ele>
        <time>2025-08-15T15:25:17Z</time>
      </trkpt>
      <trkpt lat="45.75549" lon="6.52514">
        <ele>1690.9</ele>
        <time>2025-08-15T15:25:18Z</time>
      </trkpt>
      <trkpt lat="45.75549" lon="6.52515">
        <ele>1691</ele>
        <time>2025-08-15T15:25:19Z</time>
      </trkpt>
      <trkpt lat="45.75548" lon="6.52516">
        <ele>1691.1</ele>
        <time>2025-08-15T15:25:20Z</time>
      </trkpt>
      <trkpt lat="45.75547" lon="6.52518">
        <ele>1691.2</ele>
        <time>2025-08-15T15:25:21Z</time>
      </trkpt>
      <trkpt lat="45.75546" lon="6.52518">
        <ele>1691.3</ele>
        <time>2025-08-15T15:25:22Z</time>
      </trkpt>
      <trkpt lat="45.75545" lon="6.52519">
        <ele>1691.4</ele>
        <time>2025-08-15T15:25:23Z</time>
      </trkpt>
      <trkpt lat="45.75544" lon="6.52519">
        <ele>1691.5</ele>
        <time>2025-08-15T15:25:24Z</time>
      </trkpt>
      <trkpt lat="45.75543" lon="6.5252">
        <ele>1691.6</ele>
        <time>2025-08-15T15:25:25Z</time>
      </trkpt>
      <trkpt lat="45.75542" lon="6.5252">
        <ele>1691.6</ele>
        <time>2025-08-15T15:25:26Z</time>
      </trkpt>
      <trkpt lat="45.75541" lon="6.5252">
        <ele>1691.8</ele>
        <time>2025-08-15T15:25:27Z</time>
      </trkpt>
      <trkpt lat="45.75539" lon="6.52521">
        <ele>1691.9</ele>
        <time>2025-08-15T15:25:28Z</time>
      </trkpt>
      <trkpt lat="45.75538" lon="6.52521">
        <ele>1692</ele>
        <time>2025-08-15T15:25:29Z</time>
      </trkpt>
      <trkpt lat="45.75537" lon="6.52522">
        <ele>1692.1</ele>
        <time>2025-08-15T15:25:30Z</time>
      </trkpt>
      <trkpt lat="45.75535" lon="6.52523">
        <ele>1692.3</ele>
        <time>2025-08-15T15:25:31Z</time>
      </trkpt>
      <trkpt lat="45.75534" lon="6.52523">
        <ele>1692.4</ele>
        <time>2025-08-15T15:25:32Z</time>
      </trkpt>
      <trkpt lat="45.75533" lon="6.52523">
        <ele>1692.5</ele>
        <time>2025-08-15T15:25:33Z</time>
      </trkpt>
      <trkpt lat="45.75531" lon="6.52522">
        <ele>1692.7</ele>
        <time>2025-08-15T15:25:34Z</time>
      </trkpt>
      <trkpt lat="45.75531" lon="6.52521">
        <ele>1692.7</ele>
        <time>2025-08-15T15:25:35Z</time>
      </trkpt>
      <trkpt lat="45.75531" lon="6.5252">
        <ele>1692.8</ele>
        <time>2025-08-15T15:25:36Z</time>
      </trkpt>
      <trkpt lat="45.7553" lon="6.5252">
        <ele>1692.9</ele>
        <time>2025-08-15T15:25:37Z</time>
      </trkpt>
      <trkpt lat="45.75528" lon="6.52521">
        <ele>1693.1</ele>
        <time>2025-08-15T15:25:38Z</time>
      </trkpt>
      <trkpt lat="45.75527" lon="6.52521">
        <ele>1693.2</ele>
        <time>2025-08-15T15:25:39Z</time>
      </trkpt>
      <trkpt lat="45.75526" lon="6.52523">
        <ele>1693.3</ele>
        <time>2025-08-15T15:25:40Z</time>
      </trkpt>
      <trkpt lat="45.75524" lon="6.52524">
        <ele>1693.4</ele>
        <time>2025-08-15T15:25:41Z</time>
      </trkpt>
      <trkpt lat="45.75524" lon="6.52524">
        <ele>1693.5</ele>
        <time>2025-08-15T15:25:42Z</time>
      </trkpt>
      <trkpt lat="45.75524" lon="6.52523">
        <ele>1693.6</ele>
        <time>2025-08-15T15:25:43Z</time>
      </trkpt>
      <trkpt lat="45.75525" lon="6.52523">
        <ele>1693.6</ele>
        <time>2025-08-15T15:25:44Z</time>
      </trkpt>
      <trkpt lat="45.75524" lon="6.52523">
        <ele>1693.7</ele>
        <time>2025-08-15T15:25:45Z</time>
      </trkpt>
      <trkpt lat="45.75524" lon="6.52523">
        <ele>1693.7</ele>
        <time>2025-08-15T15:25:46Z</time>
      </trkpt>
      <trkpt lat="45.75524" lon="6.52523">
        <ele>1693.7</ele>
        <time>2025-08-15T15:25:47Z</time>
      </trkpt>
      <trkpt lat="45.75524" lon="6.52523">
        <ele>1693.7</ele>
        <time>2025-08-15T15:25:48Z</time>
      </trkpt>
      <trkpt lat="45.75524" lon="6.52523">
        <ele>1693.8</ele>
        <time>2025-08-15T15:25:49Z</time>
      </trkpt>
      <trkpt lat="45.75524" lon="6.52523">
        <ele>1693.8</ele>
        <time>2025-08-15T15:25:50Z</time>
      </trkpt>
      <trkpt lat="45.75523" lon="6.52524">
        <ele>1693.8</ele>
        <time>2025-08-15T15:25:51Z</time>
      </trkpt>
      <trkpt lat="45.75523" lon="6.52524">
        <ele>1693.8</ele>
        <time>2025-08-15T15:25:52Z</time>
      </trkpt>
      <trkpt lat="45.75518" lon="6.52524">
        <ele>1694.1</ele>
        <time>2025-08-15T15:26:22Z</time>
      </trkpt>
      <trkpt lat="45.75517" lon="6.52525">
        <ele>1694.2</ele>
        <time>2025-08-15T15:26:23Z</time>
      </trkpt>
      <trkpt lat="45.75516" lon="6.52525">
        <ele>1694.2</ele>
        <time>2025-08-15T15:26:24Z</time>
      </trkpt>
      <trkpt lat="45.75515" lon="6.52525">
        <ele>1694.3</ele>
        <time>2025-08-15T15:26:25Z</time>
      </trkpt>
      <trkpt lat="45.75514" lon="6.52525">
        <ele>1694.4</ele>
        <time>2025-08-15T15:26:26Z</time>
      </trkpt>
      <trkpt lat="45.75513" lon="6.52526">
        <ele>1694.4</ele>
        <time>2025-08-15T15:26:27Z</time>
      </trkpt>
      <trkpt lat="45.75512" lon="6.52526">
        <ele>1694.5</ele>
        <time>2025-08-15T15:26:28Z</time>
      </trkpt>
      <trkpt lat="45.75511" lon="6.52526">
        <ele>1694.6</ele>
        <time>2025-08-15T15:26:29Z</time>
      </trkpt>
      <trkpt lat="45.7551" lon="6.52526">
        <ele>1694.6</ele>
        <time>2025-08-15T15:26:30Z</time>
      </trkpt>
      <trkpt lat="45.75509" lon="6.52526">
        <ele>1694.7</ele>
        <time>2025-08-15T15:26:31Z</time>
      </trkpt>
      <trkpt lat="45.75508" lon="6.52526">
        <ele>1694.8</ele>
        <time>2025-08-15T15:26:32Z</time>
      </trkpt>
      <trkpt lat="45.75507" lon="6.52526">
        <ele>1694.8</ele>
        <time>2025-08-15T15:26:33Z</time>
      </trkpt>
      <trkpt lat="45.75506" lon="6.52526">
        <ele>1694.9</ele>
        <time>2025-08-15T15:26:34Z</time>
      </trkpt>
      <trkpt lat="45.75506" lon="6.52526">
        <ele>1694.9</ele>
        <time>2025-08-15T15:26:35Z</time>
      </trkpt>
      <trkpt lat="45.75505" lon="6.52526">
        <ele>1695</ele>
        <time>2025-08-15T15:26:36Z</time>
      </trkpt>
      <trkpt lat="45.75505" lon="6.52527">
        <ele>1695</ele>
        <time>2025-08-15T15:26:37Z</time>
      </trkpt>
      <trkpt lat="45.75504" lon="6.52527">
        <ele>1695</ele>
        <time>2025-08-15T15:26:38Z</time>
      </trkpt>
      <trkpt lat="45.75504" lon="6.52527">
        <ele>1695.1</ele>
        <time>2025-08-15T15:26:39Z</time>
      </trkpt>
      <trkpt lat="45.75504" lon="6.52527">
        <ele>1695.1</ele>
        <time>2025-08-15T15:26:40Z</time>
      </trkpt>
      <trkpt lat="45.75503" lon="6.52527">
        <ele>1695.1</ele>
        <time>2025-08-15T15:26:41Z</time>
      </trkpt>
      <trkpt lat="45.75503" lon="6.52528">
        <ele>1695.1</ele>
        <time>2025-08-15T15:26:42Z</time>
      </trkpt>
      <trkpt lat="45.75503" lon="6.52528">
        <ele>1695.2</ele>
        <time>2025-08-15T15:26:43Z</time>
      </trkpt>
      <trkpt lat="45.75502" lon="6.52528">
        <ele>1695.2</ele>
        <time>2025-08-15T15:26:44Z</time>
      </trkpt>
      <trkpt lat="45.75502" lon="6.52528">
        <ele>1695.2</ele>
        <time>2025-08-15T15:27:20Z</time>
      </trkpt>
      <trkpt lat="45.75502" lon="6.52528">
        <ele>1695.3</ele>
        <time>2025-08-15T15:27:21Z</time>
      </trkpt>
      <trkpt lat="45.755" lon="6.52528">
        <ele>1695.4</ele>
        <time>2025-08-15T15:27:22Z</time>
      </trkpt>
      <trkpt lat="45.75498" lon="6.52528">
        <ele>1695.6</ele>
        <time>2025-08-15T15:27:23Z</time>
      </trkpt>
      <trkpt lat="45.75495" lon="6.52527">
        <ele>1695.8</ele>
        <time>2025-08-15T15:27:24Z</time>
      </trkpt>
      <trkpt lat="45.75494" lon="6.52527">
        <ele>1695.9</ele>
        <time>2025-08-15T15:27:25Z</time>
      </trkpt>
      <trkpt lat="45.75491" lon="6.52527">
        <ele>1696.2</ele>
        <time>2025-08-15T15:27:26Z</time>
      </trkpt>
      <trkpt lat="45.7549" lon="6.52527">
        <ele>1696.3</ele>
        <time>2025-08-15T15:27:27Z</time>
      </trkpt>
      <trkpt lat="45.75488" lon="6.52526">
        <ele>1696.5</ele>
        <time>2025-08-15T15:27:28Z</time>
      </trkpt>
      <trkpt lat="45.75487" lon="6.52526">
        <ele>1696.7</ele>
        <time>2025-08-15T15:27:29Z</time>
      </trkpt>
      <trkpt lat="45.75484" lon="6.52526">
        <ele>1697</ele>
        <time>2025-08-15T15:27:30Z</time>
      </trkpt>
      <trkpt lat="45.75483" lon="6.52526">
        <ele>1697.1</ele>
        <time>2025-08-15T15:27:31Z</time>
      </trkpt>
      <trkpt lat="45.75481" lon="6.52526">
        <ele>1697.3</ele>
        <time>2025-08-15T15:27:32Z</time>
      </trkpt>
      <trkpt lat="45.7548" lon="6.52525">
        <ele>1697.4</ele>
        <time>2025-08-15T15:27:33Z</time>
      </trkpt>
      <trkpt lat="45.75479" lon="6.52524">
        <ele>1697.6</ele>
        <time>2025-08-15T15:27:34Z</time>
      </trkpt>
      <trkpt lat="45.75477" lon="6.52523">
        <ele>1697.8</ele>
        <time>2025-08-15T15:27:35Z</time>
      </trkpt>
      <trkpt lat="45.75476" lon="6.52522">
        <ele>1698</ele>
        <time>2025-08-15T15:27:36Z</time>
      </trkpt>
      <trkpt lat="45.75474" lon="6.52521">
        <ele>1698.2</ele>
        <time>2025-08-15T15:27:37Z</time>
      </trkpt>
      <trkpt lat="45.75473" lon="6.52519">
        <ele>1698.5</ele>
        <time>2025-08-15T15:27:38Z</time>
      </trkpt>
      <trkpt lat="45.75471" lon="6.52519">
        <ele>1698.7</ele>
        <time>2025-08-15T15:27:39Z</time>
      </trkpt>
      <trkpt lat="45.7547" lon="6.52518">
        <ele>1698.9</ele>
        <time>2025-08-15T15:27:40Z</time>
      </trkpt>
      <trkpt lat="45.75469" lon="6.52518">
        <ele>1699</ele>
        <time>2025-08-15T15:27:41Z</time>
      </trkpt>
      <trkpt lat="45.75467" lon="6.52519">
        <ele>1699.2</ele>
        <time>2025-08-15T15:27:42Z</time>
      </trkpt>
      <trkpt lat="45.75467" lon="6.52519">
        <ele>1699.3</ele>
        <time>2025-08-15T15:27:43Z</time>
      </trkpt>
      <trkpt lat="45.75465" lon="6.52518">
        <ele>1699.5</ele>
        <time>2025-08-15T15:27:44Z</time>
      </trkpt>
      <trkpt lat="45.75464" lon="6.52517">
        <ele>1699.7</ele>
        <time>2025-08-15T15:27:45Z</time>
      </trkpt>
      <trkpt lat="45.75462" lon="6.52516">
        <ele>1699.8</ele>
        <time>2025-08-15T15:27:46Z</time>
      </trkpt>
      <trkpt lat="45.75461" lon="6.52515">
        <ele>1700</ele>
        <time>2025-08-15T15:27:47Z</time>
      </trkpt>
      <trkpt lat="45.75459" lon="6.52515">
        <ele>1700.2</ele>
        <time>2025-08-15T15:27:48Z</time>
      </trkpt>
      <trkpt lat="45.75456" lon="6.52514">
        <ele>1700.5</ele>
        <time>2025-08-15T15:27:49Z</time>
      </trkpt>
      <trkpt lat="45.75455" lon="6.52514">
        <ele>1700.6</ele>
        <time>2025-08-15T15:27:50Z</time>
      </trkpt>
      <trkpt lat="45.75453" lon="6.52513">
        <ele>1700.8</ele>
        <time>2025-08-15T15:27:51Z</time>
      </trkpt>
      <trkpt lat="45.75452" lon="6.52513">
        <ele>1700.9</ele>
        <time>2025-08-15T15:27:52Z</time>
      </trkpt>
      <trkpt lat="45.7545" lon="6.52512">
        <ele>1701.1</ele>
        <time>2025-08-15T15:27:53Z</time>
      </trkpt>
      <trkpt lat="45.75448" lon="6.52512">
        <ele>1701.2</ele>
        <time>2025-08-15T15:27:54Z</time>
      </trkpt>
      <trkpt lat="45.75447" lon="6.52511">
        <ele>1701.4</ele>
        <time>2025-08-15T15:27:55Z</time>
      </trkpt>
      <trkpt lat="45.75446" lon="6.5251">
        <ele>1701.5</ele>
        <time>2025-08-15T15:27:56Z</time>
      </trkpt>
      <trkpt lat="45.75445" lon="6.52509">
        <ele>1701.6</ele>
        <time>2025-08-15T15:27:57Z</time>
      </trkpt>
      <trkpt lat="45.75445" lon="6.52507">
        <ele>1701.7</ele>
        <time>2025-08-15T15:27:58Z</time>
      </trkpt>
      <trkpt lat="45.75445" lon="6.52508">
        <ele>1701.8</ele>
        <time>2025-08-15T15:27:59Z</time>
      </trkpt>
      <trkpt lat="45.75444" lon="6.52509">
        <ele>1701.8</ele>
        <time>2025-08-15T15:28:00Z</time>
      </trkpt>
      <trkpt lat="45.75444" lon="6.52509">
        <ele>1701.8</ele>
        <time>2025-08-15T15:28:01Z</time>
      </trkpt>
      <trkpt lat="45.75444" lon="6.52508">
        <ele>1701.9</ele>
        <time>2025-08-15T15:28:02Z</time>
      </trkpt>
      <trkpt lat="45.75445" lon="6.52507">
        <ele>1702</ele>
        <time>2025-08-15T15:28:03Z</time>
      </trkpt>
      <trkpt lat="45.75446" lon="6.52506">
        <ele>1702.1</ele>
        <time>2025-08-15T15:28:04Z</time>
      </trkpt>
      <trkpt lat="45.75447" lon="6.52505">
        <ele>1702.2</ele>
        <time>2025-08-15T15:28:05Z</time>
      </trkpt>
      <trkpt lat="45.7545" lon="6.52503">
        <ele>1702.6</ele>
        <time>2025-08-15T15:28:06Z</time>
      </trkpt>
      <trkpt lat="45.7545" lon="6.52503">
        <ele>1702.7</ele>
        <time>2025-08-15T15:28:07Z</time>
      </trkpt>
      <trkpt lat="45.75452" lon="6.52501">
        <ele>1702.9</ele>
        <time>2025-08-15T15:28:08Z</time>
      </trkpt>
      <trkpt lat="45.75452" lon="6.525">
        <ele>1703</ele>
        <time>2025-08-15T15:28:09Z</time>
      </trkpt>
      <trkpt lat="45.75453" lon="6.52499">
        <ele>1703.2</ele>
        <time>2025-08-15T15:28:11Z</time>
      </trkpt>
      <trkpt lat="45.75454" lon="6.52497">
        <ele>1703.3</ele>
        <time>2025-08-15T15:28:12Z</time>
      </trkpt>
      <trkpt lat="45.75454" lon="6.52496">
        <ele>1703.5</ele>
        <time>2025-08-15T15:28:13Z</time>
      </trkpt>
      <trkpt lat="45.75456" lon="6.52494">
        <ele>1703.7</ele>
        <time>2025-08-15T15:28:14Z</time>
      </trkpt>
      <trkpt lat="45.75457" lon="6.52494">
        <ele>1703.9</ele>
        <time>2025-08-15T15:28:15Z</time>
      </trkpt>
      <trkpt lat="45.75457" lon="6.52494">
        <ele>1703.9</ele>
        <time>2025-08-15T15:28:16Z</time>
      </trkpt>
      <trkpt lat="45.75456" lon="6.52494">
        <ele>1704</ele>
        <time>2025-08-15T15:28:17Z</time>
      </trkpt>
      <trkpt lat="45.75457" lon="6.52494">
        <ele>1704</ele>
        <time>2025-08-15T15:28:18Z</time>
      </trkpt>
      <trkpt lat="45.75457" lon="6.52493">
        <ele>1704.1</ele>
        <time>2025-08-15T15:28:19Z</time>
      </trkpt>
      <trkpt lat="45.75457" lon="6.52493">
        <ele>1704.2</ele>
        <time>2025-08-15T15:28:20Z</time>
      </trkpt>
      <trkpt lat="45.75458" lon="6.52493">
        <ele>1704.3</ele>
        <time>2025-08-15T15:28:21Z</time>
      </trkpt>
      <trkpt lat="45.75458" lon="6.52493">
        <ele>1704.3</ele>
        <time>2025-08-15T15:28:22Z</time>
      </trkpt>
      <trkpt lat="45.75459" lon="6.52492">
        <ele>1704.4</ele>
        <time>2025-08-15T15:28:23Z</time>
      </trkpt>
      <trkpt lat="45.75459" lon="6.52491">
        <ele>1704.5</ele>
        <time>2025-08-15T15:28:24Z</time>
      </trkpt>
      <trkpt lat="45.75459" lon="6.5249">
        <ele>1704.6</ele>
        <time>2025-08-15T15:28:25Z</time>
      </trkpt>
      <trkpt lat="45.75458" lon="6.52489">
        <ele>1704.7</ele>
        <time>2025-08-15T15:28:26Z</time>
      </trkpt>
      <trkpt lat="45.75458" lon="6.52487">
        <ele>1704.9</ele>
        <time>2025-08-15T15:28:27Z</time>
      </trkpt>
      <trkpt lat="45.75458" lon="6.52487">
        <ele>1704.9</ele>
        <time>2025-08-15T15:28:28Z</time>
      </trkpt>
      <trkpt lat="45.75458" lon="6.52486">
        <ele>1705</ele>
        <time>2025-08-15T15:28:29Z</time>
      </trkpt>
      <trkpt lat="45.75459" lon="6.52487">
        <ele>1705.1</ele>
        <time>2025-08-15T15:28:30Z</time>
      </trkpt>
      <trkpt lat="45.75459" lon="6.52487">
        <ele>1705.1</ele>
        <time>2025-08-15T15:28:31Z</time>
      </trkpt>
      <trkpt lat="45.75459" lon="6.52487">
        <ele>1705.1</ele>
        <time>2025-08-15T15:28:32Z</time>
      </trkpt>
      <trkpt lat="45.75459" lon="6.52486">
        <ele>1705.1</ele>
        <time>2025-08-15T15:28:33Z</time>
      </trkpt>
      <trkpt lat="45.75459" lon="6.52487">
        <ele>1705.2</ele>
        <time>2025-08-15T15:28:34Z</time>
      </trkpt>
      <trkpt lat="45.75459" lon="6.52487">
        <ele>1705.2</ele>
        <time>2025-08-15T15:28:35Z</time>
      </trkpt>
      <trkpt lat="45.75459" lon="6.52487">
        <ele>1705.2</ele>
        <time>2025-08-15T15:28:36Z</time>
      </trkpt>
      <trkpt lat="45.75461" lon="6.52474">
        <ele>1706.4</ele>
        <time>2025-08-15T15:29:50Z</time>
      </trkpt>
      <trkpt lat="45.75461" lon="6.52472">
        <ele>1706.6</ele>
        <time>2025-08-15T15:29:51Z</time>
      </trkpt>
      <trkpt lat="45.7546" lon="6.52471">
        <ele>1706.8</ele>
        <time>2025-08-15T15:29:52Z</time>
      </trkpt>
      <trkpt lat="45.7546" lon="6.52469">
        <ele>1707</ele>
        <time>2025-08-15T15:29:53Z</time>
      </trkpt>
      <trkpt lat="45.7546" lon="6.52468">
        <ele>1707.1</ele>
        <time>2025-08-15T15:29:54Z</time>
      </trkpt>
      <trkpt lat="45.75459" lon="6.52466">
        <ele>1707.3</ele>
        <time>2025-08-15T15:29:55Z</time>
      </trkpt>
      <trkpt lat="45.75459" lon="6.52465">
        <ele>1707.5</ele>
        <time>2025-08-15T15:29:56Z</time>
      </trkpt>
      <trkpt lat="45.75458" lon="6.52463">
        <ele>1707.6</ele>
        <time>2025-08-15T15:29:57Z</time>
      </trkpt>
      <trkpt lat="45.75458" lon="6.52462">
        <ele>1707.8</ele>
        <time>2025-08-15T15:29:58Z</time>
      </trkpt>
      <trkpt lat="45.75458" lon="6.5246">
        <ele>1708</ele>
        <time>2025-08-15T15:29:59Z</time>
      </trkpt>
      <trkpt lat="45.75457" lon="6.52459">
        <ele>1708.1</ele>
        <time>2025-08-15T15:30:00Z</time>
      </trkpt>
      <trkpt lat="45.75457" lon="6.52458">
        <ele>1708.2</ele>
        <time>2025-08-15T15:30:01Z</time>
      </trkpt>
      <trkpt lat="45.75457" lon="6.52456">
        <ele>1708.4</ele>
        <time>2025-08-15T15:30:02Z</time>
      </trkpt>
      <trkpt lat="45.75456" lon="6.52455">
        <ele>1708.5</ele>
        <time>2025-08-15T15:30:03Z</time>
      </trkpt>
      <trkpt lat="45.75455" lon="6.52453">
        <ele>1708.7</ele>
        <time>2025-08-15T15:30:04Z</time>
      </trkpt>
      <trkpt lat="45.75454" lon="6.52452">
        <ele>1708.8</ele>
        <time>2025-08-15T15:30:05Z</time>
      </trkpt>
      <trkpt lat="45.75454" lon="6.52451">
        <ele>1708.9</ele>
        <time>2025-08-15T15:30:06Z</time>
      </trkpt>
      <trkpt lat="45.75453" lon="6.52449">
        <ele>1709.1</ele>
        <time>2025-08-15T15:30:07Z</time>
      </trkpt>
      <trkpt lat="45.75453" lon="6.52448">
        <ele>1709.2</ele>
        <time>2025-08-15T15:30:08Z</time>
      </trkpt>
      <trkpt lat="45.75452" lon="6.52447">
        <ele>1709.3</ele>
        <time>2025-08-15T15:30:09Z</time>
      </trkpt>
      <trkpt lat="45.75451" lon="6.52444">
        <ele>1709.5</ele>
        <time>2025-08-15T15:30:10Z</time>
      </trkpt>
      <trkpt lat="45.75451" lon="6.52443">
        <ele>1709.6</ele>
        <time>2025-08-15T15:30:11Z</time>
      </trkpt>
      <trkpt lat="45.75451" lon="6.52442">
        <ele>1709.7</ele>
        <time>2025-08-15T15:30:12Z</time>
      </trkpt>
      <trkpt lat="45.7545" lon="6.52441">
        <ele>1709.8</ele>
        <time>2025-08-15T15:30:13Z</time>
      </trkpt>
      <trkpt lat="45.75449" lon="6.5244">
        <ele>1709.9</ele>
        <time>2025-08-15T15:30:14Z</time>
      </trkpt>
      <trkpt lat="45.75448" lon="6.52438">
        <ele>1710</ele>
        <time>2025-08-15T15:30:15Z</time>
      </trkpt>
      <trkpt lat="45.75447" lon="6.52437">
        <ele>1710.2</ele>
        <time>2025-08-15T15:30:17Z</time>
      </trkpt>
      <trkpt lat="45.75447" lon="6.52436">
        <ele>1710.2</ele>
        <time>2025-08-15T15:30:18Z</time>
      </trkpt>
      <trkpt lat="45.75446" lon="6.52435">
        <ele>1710.3</ele>
        <time>2025-08-15T15:30:19Z</time>
      </trkpt>
      <trkpt lat="45.75446" lon="6.52433">
        <ele>1710.5</ele>
        <time>2025-08-15T15:30:20Z</time>
      </trkpt>
      <trkpt lat="45.75445" lon="6.52432">
        <ele>1710.5</ele>
        <time>2025-08-15T15:30:21Z</time>
      </trkpt>
      <trkpt lat="45.75445" lon="6.52431">
        <ele>1710.6</ele>
        <time>2025-08-15T15:30:22Z</time>
      </trkpt>
      <trkpt lat="45.75445" lon="6.5243">
        <ele>1710.6</ele>
        <time>2025-08-15T15:30:23Z</time>
      </trkpt>
      <trkpt lat="45.75445" lon="6.5243">
        <ele>1710.7</ele>
        <time>2025-08-15T15:30:24Z</time>
      </trkpt>
      <trkpt lat="45.75445" lon="6.52429">
        <ele>1710.7</ele>
        <time>2025-08-15T15:30:25Z</time>
      </trkpt>
      <trkpt lat="45.75444" lon="6.52428">
        <ele>1710.8</ele>
        <time>2025-08-15T15:30:26Z</time>
      </trkpt>
      <trkpt lat="45.75444" lon="6.52427">
        <ele>1710.8</ele>
        <time>2025-08-15T15:30:27Z</time>
      </trkpt>
      <trkpt lat="45.75444" lon="6.52426">
        <ele>1710.9</ele>
        <time>2025-08-15T15:30:28Z</time>
      </trkpt>
      <trkpt lat="45.75444" lon="6.52426">
        <ele>1711</ele>
        <time>2025-08-15T15:30:29Z</time>
      </trkpt>
      <trkpt lat="45.75444" lon="6.52425">
        <ele>1711</ele>
        <time>2025-08-15T15:30:30Z</time>
      </trkpt>
      <trkpt lat="45.75443" lon="6.52424">
        <ele>1711.1</ele>
        <time>2025-08-15T15:32:43Z</time>
      </trkpt>
      <trkpt lat="45.75443" lon="6.52423">
        <ele>1711.1</ele>
        <time>2025-08-15T15:32:44Z</time>
      </trkpt>
      <trkpt lat="45.75442" lon="6.52419">
        <ele>1711.4</ele>
        <time>2025-08-15T15:32:45Z</time>
      </trkpt>
      <trkpt lat="45.75441" lon="6.52417">
        <ele>1711.5</ele>
        <time>2025-08-15T15:32:46Z</time>
      </trkpt>
      <trkpt lat="45.75441" lon="6.52413">
        <ele>1711.8</ele>
        <time>2025-08-15T15:32:47Z</time>
      </trkpt>
      <trkpt lat="45.75441" lon="6.52412">
        <ele>1711.9</ele>
        <time>2025-08-15T15:32:48Z</time>
      </trkpt>
      <trkpt lat="45.7544" lon="6.5241">
        <ele>1712.1</ele>
        <time>2025-08-15T15:32:49Z</time>
      </trkpt>
      <trkpt lat="45.7544" lon="6.52407">
        <ele>1712.3</ele>
        <time>2025-08-15T15:32:50Z</time>
      </trkpt>
      <trkpt lat="45.75439" lon="6.52403">
        <ele>1712.6</ele>
        <time>2025-08-15T15:32:51Z</time>
      </trkpt>
      <trkpt lat="45.75439" lon="6.52402">
        <ele>1712.7</ele>
        <time>2025-08-15T15:32:52Z</time>
      </trkpt>
      <trkpt lat="45.75437" lon="6.52399">
        <ele>1713.1</ele>
        <time>2025-08-15T15:32:53Z</time>
      </trkpt>
      <trkpt lat="45.75436" lon="6.52398">
        <ele>1713.2</ele>
        <time>2025-08-15T15:32:54Z</time>
      </trkpt>
      <trkpt lat="45.75436" lon="6.52396">
        <ele>1713.4</ele>
        <time>2025-08-15T15:32:55Z</time>
      </trkpt>
      <trkpt lat="45.75435" lon="6.52393">
        <ele>1713.7</ele>
        <time>2025-08-15T15:32:56Z</time>
      </trkpt>
      <trkpt lat="45.75434" lon="6.52389">
        <ele>1714.1</ele>
        <time>2025-08-15T15:32:57Z</time>
      </trkpt>
      <trkpt lat="45.75433" lon="6.52388">
        <ele>1714.2</ele>
        <time>2025-08-15T15:32:58Z</time>
      </trkpt>
      <trkpt lat="45.75433" lon="6.52386">
        <ele>1714.5</ele>
        <time>2025-08-15T15:32:59Z</time>
      </trkpt>
      <trkpt lat="45.75432" lon="6.52384">
        <ele>1714.7</ele>
        <time>2025-08-15T15:33:00Z</time>
      </trkpt>
      <trkpt lat="45.75431" lon="6.52382">
        <ele>1715</ele>
        <time>2025-08-15T15:33:01Z</time>
      </trkpt>
      <trkpt lat="45.75431" lon="6.52379">
        <ele>1715.3</ele>
        <time>2025-08-15T15:33:02Z</time>
      </trkpt>
      <trkpt lat="45.7543" lon="6.52376">
        <ele>1715.7</ele>
        <time>2025-08-15T15:33:03Z</time>
      </trkpt>
      <trkpt lat="45.7543" lon="6.52375">
        <ele>1715.9</ele>
        <time>2025-08-15T15:33:04Z</time>
      </trkpt>
      <trkpt lat="45.75429" lon="6.52373">
        <ele>1716.1</ele>
        <time>2025-08-15T15:33:05Z</time>
      </trkpt>
      <trkpt lat="45.75428" lon="6.52371">
        <ele>1716.4</ele>
        <time>2025-08-15T15:33:06Z</time>
      </trkpt>
      <trkpt lat="45.75427" lon="6.52369">
        <ele>1716.6</ele>
        <time>2025-08-15T15:33:07Z</time>
      </trkpt>
      <trkpt lat="45.75427" lon="6.52367">
        <ele>1716.9</ele>
        <time>2025-08-15T15:33:08Z</time>
      </trkpt>
      <trkpt lat="45.75426" lon="6.52364">
        <ele>1717.2</ele>
        <time>2025-08-15T15:33:09Z</time>
      </trkpt>
      <trkpt lat="45.75425" lon="6.52363">
        <ele>1717.4</ele>
        <time>2025-08-15T15:33:10Z</time>
      </trkpt>
      <trkpt lat="45.75425" lon="6.5236">
        <ele>1717.7</ele>
        <time>2025-08-15T15:33:11Z</time>
      </trkpt>
      <trkpt lat="45.75424" lon="6.52358">
        <ele>1718</ele>
        <time>2025-08-15T15:33:12Z</time>
      </trkpt>
      <trkpt lat="45.75424" lon="6.52356">
        <ele>1718.2</ele>
        <time>2025-08-15T15:33:13Z</time>
      </trkpt>
      <trkpt lat="45.75423" lon="6.52354">
        <ele>1718.5</ele>
        <time>2025-08-15T15:33:14Z</time>
      </trkpt>
      <trkpt lat="45.75423" lon="6.52353">
        <ele>1718.7</ele>
        <time>2025-08-15T15:33:15Z</time>
      </trkpt>
      <trkpt lat="45.75422" lon="6.5235">
        <ele>1719</ele>
        <time>2025-08-15T15:33:16Z</time>
      </trkpt>
      <trkpt lat="45.75421" lon="6.52348">
        <ele>1719.3</ele>
        <time>2025-08-15T15:33:17Z</time>
      </trkpt>
      <trkpt lat="45.75421" lon="6.52346">
        <ele>1719.6</ele>
        <time>2025-08-15T15:33:18Z</time>
      </trkpt>
      <trkpt lat="45.75421" lon="6.52344">
        <ele>1719.8</ele>
        <time>2025-08-15T15:33:19Z</time>
      </trkpt>
      <trkpt lat="45.7542" lon="6.52342">
        <ele>1720.1</ele>
        <time>2025-08-15T15:33:20Z</time>
      </trkpt>
      <trkpt lat="45.7542" lon="6.5234">
        <ele>1720.3</ele>
        <time>2025-08-15T15:33:21Z</time>
      </trkpt>
      <trkpt lat="45.75419" lon="6.52338">
        <ele>1720.7</ele>
        <time>2025-08-15T15:33:22Z</time>
      </trkpt>
      <trkpt lat="45.75418" lon="6.52334">
        <ele>1721.1</ele>
        <time>2025-08-15T15:33:23Z</time>
      </trkpt>
      <trkpt lat="45.75418" lon="6.52333">
        <ele>1721.2</ele>
        <time>2025-08-15T15:33:24Z</time>
      </trkpt>
      <trkpt lat="45.75418" lon="6.52331">
        <ele>1721.4</ele>
        <time>2025-08-15T15:33:25Z</time>
      </trkpt>
      <trkpt lat="45.75417" lon="6.52329">
        <ele>1721.7</ele>
        <time>2025-08-15T15:33:26Z</time>
      </trkpt>
      <trkpt lat="45.75416" lon="6.52327">
        <ele>1722</ele>
        <time>2025-08-15T15:33:27Z</time>
      </trkpt>
      <trkpt lat="45.75415" lon="6.52325">
        <ele>1722.3</ele>
        <time>2025-08-15T15:33:28Z</time>
      </trkpt>
      <trkpt lat="45.75415" lon="6.52322">
        <ele>1722.5</ele>
        <time>2025-08-15T15:33:29Z</time>
      </trkpt>
      <trkpt lat="45.75414" lon="6.52318">
        <ele>1722.9</ele>
        <time>2025-08-15T15:33:30Z</time>
      </trkpt>
      <trkpt lat="45.75414" lon="6.52317">
        <ele>1723.1</ele>
        <time>2025-08-15T15:33:31Z</time>
      </trkpt>
      <trkpt lat="45.75414" lon="6.52315">
        <ele>1723.3</ele>
        <time>2025-08-15T15:33:32Z</time>
      </trkpt>
      <trkpt lat="45.75413" lon="6.52313">
        <ele>1723.6</ele>
        <time>2025-08-15T15:33:33Z</time>
      </trkpt>
      <trkpt lat="45.75412" lon="6.52309">
        <ele>1724</ele>
        <time>2025-08-15T15:33:34Z</time>
      </trkpt>
      <trkpt lat="45.75412" lon="6.52307">
        <ele>1724.2</ele>
        <time>2025-08-15T15:33:35Z</time>
      </trkpt>
      <trkpt lat="45.75411" lon="6.52303">
        <ele>1724.6</ele>
        <time>2025-08-15T15:33:36Z</time>
      </trkpt>
      <trkpt lat="45.7541" lon="6.52302">
        <ele>1724.8</ele>
        <time>2025-08-15T15:33:37Z</time>
      </trkpt>
      <trkpt lat="45.75409" lon="6.52298">
        <ele>1725.3</ele>
        <time>2025-08-15T15:33:38Z</time>
      </trkpt>
      <trkpt lat="45.75409" lon="6.52297">
        <ele>1725.4</ele>
        <time>2025-08-15T15:33:39Z</time>
      </trkpt>
      <trkpt lat="45.75408" lon="6.52292">
        <ele>1725.9</ele>
        <time>2025-08-15T15:33:40Z</time>
      </trkpt>
      <trkpt lat="45.75407" lon="6.52291">
        <ele>1726</ele>
        <time>2025-08-15T15:33:41Z</time>
      </trkpt>
      <trkpt lat="45.75407" lon="6.52287">
        <ele>1726.5</ele>
        <time>2025-08-15T15:33:42Z</time>
      </trkpt>
      <trkpt lat="45.75406" lon="6.52286">
        <ele>1726.6</ele>
        <time>2025-08-15T15:33:43Z</time>
      </trkpt>
      <trkpt lat="45.75404" lon="6.52282">
        <ele>1727.1</ele>
        <time>2025-08-15T15:33:44Z</time>
      </trkpt>
      <trkpt lat="45.75404" lon="6.52281">
        <ele>1727.2</ele>
        <time>2025-08-15T15:33:45Z</time>
      </trkpt>
      <trkpt lat="45.75402" lon="6.52277">
        <ele>1727.7</ele>
        <time>2025-08-15T15:33:46Z</time>
      </trkpt>
      <trkpt lat="45.75402" lon="6.52276">
        <ele>1727.8</ele>
        <time>2025-08-15T15:33:47Z</time>
      </trkpt>
      <trkpt lat="45.754" lon="6.52272">
        <ele>1728.3</ele>
        <time>2025-08-15T15:33:48Z</time>
      </trkpt>
      <trkpt lat="45.754" lon="6.52271">
        <ele>1728.4</ele>
        <time>2025-08-15T15:33:49Z</time>
      </trkpt>
      <trkpt lat="45.75398" lon="6.52267">
        <ele>1728.9</ele>
        <time>2025-08-15T15:33:50Z</time>
      </trkpt>
      <trkpt lat="45.75398" lon="6.52266">
        <ele>1729</ele>
        <time>2025-08-15T15:33:51Z</time>
      </trkpt>
      <trkpt lat="45.75396" lon="6.52262">
        <ele>1729.5</ele>
        <time>2025-08-15T15:33:52Z</time>
      </trkpt>
      <trkpt lat="45.75396" lon="6.52261">
        <ele>1729.6</ele>
        <time>2025-08-15T15:33:53Z</time>
      </trkpt>
      <trkpt lat="45.75395" lon="6.52257">
        <ele>1730.1</ele>
        <time>2025-08-15T15:33:54Z</time>
      </trkpt>
      <trkpt lat="45.75394" lon="6.52256">
        <ele>1730.3</ele>
        <time>2025-08-15T15:33:55Z</time>
      </trkpt>
      <trkpt lat="45.75394" lon="6.52254">
        <ele>1730.6</ele>
        <time>2025-08-15T15:33:56Z</time>
      </trkpt>
      <trkpt lat="45.75393" lon="6.52251">
        <ele>1730.9</ele>
        <time>2025-08-15T15:33:57Z</time>
      </trkpt>
      <trkpt lat="45.75392" lon="6.52248">
        <ele>1731.5</ele>
        <time>2025-08-15T15:33:58Z</time>
      </trkpt>
      <trkpt lat="45.75391" lon="6.52247">
        <ele>1731.7</ele>
        <time>2025-08-15T15:33:59Z</time>
      </trkpt>
      <trkpt lat="45.75391" lon="6.52244">
        <ele>1732</ele>
        <time>2025-08-15T15:34:00Z</time>
      </trkpt>
      <trkpt lat="45.75389" lon="6.52242">
        <ele>1732.4</ele>
        <time>2025-08-15T15:34:01Z</time>
      </trkpt>
      <trkpt lat="45.75389" lon="6.5224">
        <ele>1732.8</ele>
        <time>2025-08-15T15:34:02Z</time>
      </trkpt>
      <trkpt lat="45.75388" lon="6.52238">
        <ele>1733.2</ele>
        <time>2025-08-15T15:34:03Z</time>
      </trkpt>
      <trkpt lat="45.75388" lon="6.52235">
        <ele>1733.6</ele>
        <time>2025-08-15T15:34:04Z</time>
      </trkpt>
      <trkpt lat="45.75387" lon="6.52233">
        <ele>1734</ele>
        <time>2025-08-15T15:34:05Z</time>
      </trkpt>
      <trkpt lat="45.75386" lon="6.5223">
        <ele>1734.6</ele>
        <time>2025-08-15T15:34:06Z</time>
      </trkpt>
      <trkpt lat="45.75385" lon="6.52229">
        <ele>1734.9</ele>
        <time>2025-08-15T15:34:07Z</time>
      </trkpt>
      <trkpt lat="45.75383" lon="6.52226">
        <ele>1735.5</ele>
        <time>2025-08-15T15:34:08Z</time>
      </trkpt>
      <trkpt lat="45.75382" lon="6.52225">
        <ele>1735.7</ele>
        <time>2025-08-15T15:34:09Z</time>
      </trkpt>
      <trkpt lat="45.75381" lon="6.52223">
        <ele>1736.3</ele>
        <time>2025-08-15T15:34:10Z</time>
      </trkpt>
      <trkpt lat="45.7538" lon="6.52222">
        <ele>1736.5</ele>
        <time>2025-08-15T15:34:11Z</time>
      </trkpt>
      <trkpt lat="45.75379" lon="6.52221">
        <ele>1736.7</ele>
        <time>2025-08-15T15:34:12Z</time>
      </trkpt>
      <trkpt lat="45.75378" lon="6.52219">
        <ele>1737</ele>
        <time>2025-08-15T15:34:13Z</time>
      </trkpt>
      <trkpt lat="45.75378" lon="6.52218">
        <ele>1737.3</ele>
        <time>2025-08-15T15:34:14Z</time>
      </trkpt>
      <trkpt lat="45.75377" lon="6.52216">
        <ele>1737.6</ele>
        <time>2025-08-15T15:34:15Z</time>
      </trkpt>
      <trkpt lat="45.75377" lon="6.52215">
        <ele>1737.8</ele>
        <time>2025-08-15T15:34:16Z</time>
      </trkpt>
      <trkpt lat="45.75377" lon="6.52213">
        <ele>1738</ele>
        <time>2025-08-15T15:34:17Z</time>
      </trkpt>
      <trkpt lat="45.75376" lon="6.52212">
        <ele>1738.2</ele>
        <time>2025-08-15T15:34:18Z</time>
      </trkpt>
      <trkpt lat="45.75376" lon="6.5221">
        <ele>1738.4</ele>
        <time>2025-08-15T15:34:19Z</time>
      </trkpt>
      <trkpt lat="45.75376" lon="6.52209">
        <ele>1738.6</ele>
        <time>2025-08-15T15:34:20Z</time>
      </trkpt>
      <trkpt lat="45.75375" lon="6.52207">
        <ele>1738.8</ele>
        <time>2025-08-15T15:34:21Z</time>
      </trkpt>
      <trkpt lat="45.75375" lon="6.52206">
        <ele>1738.9</ele>
        <time>2025-08-15T15:34:22Z</time>
      </trkpt>
      <trkpt lat="45.75375" lon="6.52205">
        <ele>1739</ele>
        <time>2025-08-15T15:34:23Z</time>
      </trkpt>
      <trkpt lat="45.75375" lon="6.52205">
        <ele>1739.1</ele>
        <time>2025-08-15T15:34:24Z</time>
      </trkpt>
      <trkpt lat="45.75374" lon="6.52204">
        <ele>1739.2</ele>
        <time>2025-08-15T15:34:25Z</time>
      </trkpt>
      <trkpt lat="45.75374" lon="6.52203">
        <ele>1739.2</ele>
        <time>2025-08-15T15:34:26Z</time>
      </trkpt>
      <trkpt lat="45.75374" lon="6.52202">
        <ele>1739.2</ele>
        <time>2025-08-15T15:34:27Z</time>
      </trkpt>
      <trkpt lat="45.75373" lon="6.52202">
        <ele>1739.2</ele>
        <time>2025-08-15T15:34:28Z</time>
      </trkpt>
      <trkpt lat="45.75373" lon="6.52201">
        <ele>1739.3</ele>
        <time>2025-08-15T15:34:29Z</time>
      </trkpt>
      <trkpt lat="45.75373" lon="6.522">
        <ele>1739.3</ele>
        <time>2025-08-15T15:34:30Z</time>
      </trkpt>
      <trkpt lat="45.75373" lon="6.52199">
        <ele>1739.3</ele>
        <time>2025-08-15T15:34:31Z</time>
      </trkpt>
      <trkpt lat="45.75372" lon="6.52199">
        <ele>1739.3</ele>
        <time>2025-08-15T15:35:08Z</time>
      </trkpt>
      <trkpt lat="45.75372" lon="6.52198">
        <ele>1739.4</ele>
        <time>2025-08-15T15:35:09Z</time>
      </trkpt>
      <trkpt lat="45.75372" lon="6.52197">
        <ele>1739.4</ele>
        <time>2025-08-15T15:35:10Z</time>
      </trkpt>
      <trkpt lat="45.75371" lon="6.52195">
        <ele>1739.5</ele>
        <time>2025-08-15T15:35:11Z</time>
      </trkpt>
      <trkpt lat="45.75371" lon="6.52193">
        <ele>1739.5</ele>
        <time>2025-08-15T15:35:12Z</time>
      </trkpt>
      <trkpt lat="45.7537" lon="6.52191">
        <ele>1739.6</ele>
        <time>2025-08-15T15:35:13Z</time>
      </trkpt>
      <trkpt lat="45.7537" lon="6.52188">
        <ele>1739.7</ele>
        <time>2025-08-15T15:35:14Z</time>
      </trkpt>
      <trkpt lat="45.75369" lon="6.52184">
        <ele>1739.8</ele>
        <time>2025-08-15T15:35:15Z</time>
      </trkpt>
      <trkpt lat="45.75368" lon="6.52183">
        <ele>1739.9</ele>
        <time>2025-08-15T15:35:16Z</time>
      </trkpt>
      <trkpt lat="45.75367" lon="6.52179">
        <ele>1740</ele>
        <time>2025-08-15T15:35:17Z</time>
      </trkpt>
      <trkpt lat="45.75367" lon="6.52177">
        <ele>1740</ele>
        <time>2025-08-15T15:35:18Z</time>
      </trkpt>
      <trkpt lat="45.75367" lon="6.52175">
        <ele>1740.1</ele>
        <time>2025-08-15T15:35:19Z</time>
      </trkpt>
      <trkpt lat="45.75366" lon="6.52172">
        <ele>1740.2</ele>
        <time>2025-08-15T15:35:20Z</time>
      </trkpt>
      <trkpt lat="45.75365" lon="6.5217">
        <ele>1740.2</ele>
        <time>2025-08-15T15:35:21Z</time>
      </trkpt>
      <trkpt lat="45.75364" lon="6.52168">
        <ele>1740.3</ele>
        <time>2025-08-15T15:35:22Z</time>
      </trkpt>
      <trkpt lat="45.75364" lon="6.52166">
        <ele>1740.4</ele>
        <time>2025-08-15T15:35:23Z</time>
      </trkpt>
      <trkpt lat="45.75363" lon="6.52163">
        <ele>1740.4</ele>
        <time>2025-08-15T15:35:24Z</time>
      </trkpt>
      <trkpt lat="45.75362" lon="6.5216">
        <ele>1740.5</ele>
        <time>2025-08-15T15:35:25Z</time>
      </trkpt>
      <trkpt lat="45.75361" lon="6.52158">
        <ele>1740.6</ele>
        <time>2025-08-15T15:35:26Z</time>
      </trkpt>
      <trkpt lat="45.7536" lon="6.52154">
        <ele>1740.7</ele>
        <time>2025-08-15T15:35:27Z</time>
      </trkpt>
      <trkpt lat="45.75359" lon="6.52153">
        <ele>1740.7</ele>
        <time>2025-08-15T15:35:28Z</time>
      </trkpt>
      <trkpt lat="45.75358" lon="6.52149">
        <ele>1740.8</ele>
        <time>2025-08-15T15:35:29Z</time>
      </trkpt>
      <trkpt lat="45.75357" lon="6.52148">
        <ele>1740.9</ele>
        <time>2025-08-15T15:35:30Z</time>
      </trkpt>
      <trkpt lat="45.75356" lon="6.52144">
        <ele>1741</ele>
        <time>2025-08-15T15:35:31Z</time>
      </trkpt>
      <trkpt lat="45.75355" lon="6.52142">
        <ele>1741</ele>
        <time>2025-08-15T15:35:32Z</time>
      </trkpt>
      <trkpt lat="45.75354" lon="6.52138">
        <ele>1741.1</ele>
        <time>2025-08-15T15:35:33Z</time>
      </trkpt>
      <trkpt lat="45.75354" lon="6.52137">
        <ele>1741.2</ele>
        <time>2025-08-15T15:35:34Z</time>
      </trkpt>
      <trkpt lat="45.75352" lon="6.52133">
        <ele>1741.3</ele>
        <time>2025-08-15T15:35:35Z</time>
      </trkpt>
      <trkpt lat="45.75351" lon="6.52132">
        <ele>1741.4</ele>
        <time>2025-08-15T15:35:36Z</time>
      </trkpt>
      <trkpt lat="45.7535" lon="6.52128">
        <ele>1741.5</ele>
        <time>2025-08-15T15:35:37Z</time>
      </trkpt>
      <trkpt lat="45.7535" lon="6.52126">
        <ele>1741.5</ele>
        <time>2025-08-15T15:35:38Z</time>
      </trkpt>
      <trkpt lat="45.75348" lon="6.52123">
        <ele>1741.7</ele>
        <time>2025-08-15T15:35:39Z</time>
      </trkpt>
      <trkpt lat="45.75348" lon="6.52121">
        <ele>1741.7</ele>
        <time>2025-08-15T15:35:40Z</time>
      </trkpt>
      <trkpt lat="45.75346" lon="6.52118">
        <ele>1741.9</ele>
        <time>2025-08-15T15:35:41Z</time>
      </trkpt>
      <trkpt lat="45.75346" lon="6.52117">
        <ele>1741.9</ele>
        <time>2025-08-15T15:35:42Z</time>
      </trkpt>
      <trkpt lat="45.75345" lon="6.52114">
        <ele>1742</ele>
        <time>2025-08-15T15:35:43Z</time>
      </trkpt>
      <trkpt lat="45.75344" lon="6.52113">
        <ele>1742.1</ele>
        <time>2025-08-15T15:35:44Z</time>
      </trkpt>
      <trkpt lat="45.75344" lon="6.52111">
        <ele>1742.2</ele>
        <time>2025-08-15T15:35:45Z</time>
      </trkpt>
      <trkpt lat="45.75343" lon="6.52108">
        <ele>1742.3</ele>
        <time>2025-08-15T15:35:46Z</time>
      </trkpt>
      <trkpt lat="45.75343" lon="6.52106">
        <ele>1742.4</ele>
        <time>2025-08-15T15:35:47Z</time>
      </trkpt>
      <trkpt lat="45.75343" lon="6.52104">
        <ele>1742.5</ele>
        <time>2025-08-15T15:35:48Z</time>
      </trkpt>
      <trkpt lat="45.75342" lon="6.52102">
        <ele>1742.6</ele>
        <time>2025-08-15T15:35:49Z</time>
      </trkpt>
      <trkpt lat="45.75342" lon="6.521">
        <ele>1742.7</ele>
        <time>2025-08-15T15:35:50Z</time>
      </trkpt>
      <trkpt lat="45.75341" lon="6.52098">
        <ele>1742.8</ele>
        <time>2025-08-15T15:35:51Z</time>
      </trkpt>
      <trkpt lat="45.75341" lon="6.52096">
        <ele>1742.9</ele>
        <time>2025-08-15T15:35:52Z</time>
      </trkpt>
      <trkpt lat="45.7534" lon="6.52094">
        <ele>1743</ele>
        <time>2025-08-15T15:35:53Z</time>
      </trkpt>
      <trkpt lat="45.7534" lon="6.52092">
        <ele>1743.1</ele>
        <time>2025-08-15T15:35:54Z</time>
      </trkpt>
      <trkpt lat="45.75339" lon="6.52089">
        <ele>1743.3</ele>
        <time>2025-08-15T15:35:55Z</time>
      </trkpt>
      <trkpt lat="45.75338" lon="6.52088">
        <ele>1743.4</ele>
        <time>2025-08-15T15:35:56Z</time>
      </trkpt>
      <trkpt lat="45.75338" lon="6.52087">
        <ele>1743.5</ele>
        <time>2025-08-15T15:35:57Z</time>
      </trkpt>
      <trkpt lat="45.75337" lon="6.52085">
        <ele>1743.6</ele>
        <time>2025-08-15T15:35:58Z</time>
      </trkpt>
      <trkpt lat="45.75337" lon="6.52084">
        <ele>1743.7</ele>
        <time>2025-08-15T15:35:59Z</time>
      </trkpt>
      <trkpt lat="45.75337" lon="6.52082">
        <ele>1743.8</ele>
        <time>2025-08-15T15:36:00Z</time>
      </trkpt>
      <trkpt lat="45.75336" lon="6.5208">
        <ele>1744</ele>
        <time>2025-08-15T15:36:01Z</time>
      </trkpt>
      <trkpt lat="45.75336" lon="6.52078">
        <ele>1744.1</ele>
        <time>2025-08-15T15:36:02Z</time>
      </trkpt>
      <trkpt lat="45.75335" lon="6.52076">
        <ele>1744.2</ele>
        <time>2025-08-15T15:36:03Z</time>
      </trkpt>
      <trkpt lat="45.75335" lon="6.52074">
        <ele>1744.4</ele>
        <time>2025-08-15T15:36:04Z</time>
      </trkpt>
      <trkpt lat="45.75334" lon="6.52072">
        <ele>1744.5</ele>
        <time>2025-08-15T15:36:05Z</time>
      </trkpt>
      <trkpt lat="45.75333" lon="6.5207">
        <ele>1744.7</ele>
        <time>2025-08-15T15:36:06Z</time>
      </trkpt>
      <trkpt lat="45.75332" lon="6.52068">
        <ele>1744.9</ele>
        <time>2025-08-15T15:36:07Z</time>
      </trkpt>
      <trkpt lat="45.75331" lon="6.52067">
        <ele>1745.1</ele>
        <time>2025-08-15T15:36:08Z</time>
      </trkpt>
      <trkpt lat="45.75331" lon="6.52065">
        <ele>1745.2</ele>
        <time>2025-08-15T15:36:09Z</time>
      </trkpt>
      <trkpt lat="45.7533" lon="6.52064">
        <ele>1745.4</ele>
        <time>2025-08-15T15:36:10Z</time>
      </trkpt>
      <trkpt lat="45.7533" lon="6.52065">
        <ele>1745.5</ele>
        <time>2025-08-15T15:36:11Z</time>
      </trkpt>
      <trkpt lat="45.7533" lon="6.52065">
        <ele>1745.5</ele>
        <time>2025-08-15T15:36:12Z</time>
      </trkpt>
      <trkpt lat="45.7533" lon="6.52065">
        <ele>1745.6</ele>
        <time>2025-08-15T15:36:13Z</time>
      </trkpt>
      <trkpt lat="45.7533" lon="6.52066">
        <ele>1745.6</ele>
        <time>2025-08-15T15:36:14Z</time>
      </trkpt>
      <trkpt lat="45.7533" lon="6.52066">
        <ele>1745.7</ele>
        <time>2025-08-15T15:36:15Z</time>
      </trkpt>
      <trkpt lat="45.75331" lon="6.52068">
        <ele>1745.9</ele>
        <time>2025-08-15T15:36:16Z</time>
      </trkpt>
      <trkpt lat="45.75331" lon="6.52069">
        <ele>1746.1</ele>
        <time>2025-08-15T15:36:17Z</time>
      </trkpt>
      <trkpt lat="45.75332" lon="6.5207">
        <ele>1746.2</ele>
        <time>2025-08-15T15:36:18Z</time>
      </trkpt>
      <trkpt lat="45.75332" lon="6.52072">
        <ele>1746.3</ele>
        <time>2025-08-15T15:36:19Z</time>
      </trkpt>
      <trkpt lat="45.75332" lon="6.52074">
        <ele>1746.5</ele>
        <time>2025-08-15T15:36:20Z</time>
      </trkpt>
      <trkpt lat="45.75338" lon="6.52093">
        <ele>1748.8</ele>
        <time>2025-08-15T15:36:32Z</time>
      </trkpt>
      <trkpt lat="45.75338" lon="6.52093">
        <ele>1748.8</ele>
        <time>2025-08-15T15:36:33Z</time>
      </trkpt>
      <trkpt lat="45.75338" lon="6.52094">
        <ele>1749</ele>
        <time>2025-08-15T15:36:34Z</time>
      </trkpt>
      <trkpt lat="45.75338" lon="6.52096">
        <ele>1749.2</ele>
        <time>2025-08-15T15:36:35Z</time>
      </trkpt>
      <trkpt lat="45.75337" lon="6.52098">
        <ele>1749.4</ele>
        <time>2025-08-15T15:36:36Z</time>
      </trkpt>
      <trkpt lat="45.75338" lon="6.52099">
        <ele>1749.5</ele>
        <time>2025-08-15T15:36:37Z</time>
      </trkpt>
      <trkpt lat="45.75338" lon="6.52099">
        <ele>1749.6</ele>
        <time>2025-08-15T15:36:38Z</time>
      </trkpt>
      <trkpt lat="45.75339" lon="6.52099">
        <ele>1749.8</ele>
        <time>2025-08-15T15:36:39Z</time>
      </trkpt>
      <trkpt lat="45.75339" lon="6.521">
        <ele>1749.8</ele>
        <time>2025-08-15T15:36:40Z</time>
      </trkpt>
      <trkpt lat="45.75339" lon="6.521">
        <ele>1749.8</ele>
        <time>2025-08-15T15:36:41Z</time>
      </trkpt>
      <trkpt lat="45.75339" lon="6.521">
        <ele>1749.9</ele>
        <time>2025-08-15T15:36:42Z</time>
      </trkpt>
      <trkpt lat="45.75339" lon="6.521">
        <ele>1749.9</ele>
        <time>2025-08-15T15:36:43Z</time>
      </trkpt>
      <trkpt lat="45.75339" lon="6.521">
        <ele>1750</ele>
        <time>2025-08-15T15:36:44Z</time>
      </trkpt>
      <trkpt lat="45.75339" lon="6.521">
        <ele>1750</ele>
        <time>2025-08-15T15:36:45Z</time>
      </trkpt>
      <trkpt lat="45.75339" lon="6.521">
        <ele>1750</ele>
        <time>2025-08-15T15:36:46Z</time>
      </trkpt>
      <trkpt lat="45.75339" lon="6.521">
        <ele>1750</ele>
        <time>2025-08-15T15:36:47Z</time>
      </trkpt>
      <trkpt lat="45.75266" lon="6.51933">
        <ele>1780.2</ele>
        <time>2025-08-15T15:39:40Z</time>
      </trkpt>
      <trkpt lat="45.75263" lon="6.51933">
        <ele>1780.3</ele>
        <time>2025-08-15T15:39:41Z</time>
      </trkpt>
      <trkpt lat="45.75261" lon="6.51933">
        <ele>1780.4</ele>
        <time>2025-08-15T15:39:42Z</time>
      </trkpt>
      <trkpt lat="45.7526" lon="6.51933">
        <ele>1780.4</ele>
        <time>2025-08-15T15:39:43Z</time>
      </trkpt>
      <trkpt lat="45.75258" lon="6.51932">
        <ele>1780.4</ele>
        <time>2025-08-15T15:39:44Z</time>
      </trkpt>
      <trkpt lat="45.75257" lon="6.51931">
        <ele>1781.1</ele>
        <time>2025-08-15T15:39:45Z</time>
      </trkpt>
      <trkpt lat="45.75254" lon="6.5193">
        <ele>1781.2</ele>
        <time>2025-08-15T15:39:46Z</time>
      </trkpt>
      <trkpt lat="45.75254" lon="6.5193">
        <ele>1781.1</ele>
        <time>2025-08-15T15:39:47Z</time>
      </trkpt>
      <trkpt lat="45.75251" lon="6.5193">
        <ele>1781.2</ele>
        <time>2025-08-15T15:39:48Z</time>
      </trkpt>
      <trkpt lat="45.75249" lon="6.51929">
        <ele>1781.3</ele>
        <time>2025-08-15T15:39:49Z</time>
      </trkpt>
      <trkpt lat="45.75247" lon="6.51929">
        <ele>1781.3</ele>
        <time>2025-08-15T15:39:50Z</time>
      </trkpt>
      <trkpt lat="45.75246" lon="6.51929">
        <ele>1781.3</ele>
        <time>2025-08-15T15:39:51Z</time>
      </trkpt>
      <trkpt lat="45.75243" lon="6.51927">
        <ele>1781.4</ele>
        <time>2025-08-15T15:39:52Z</time>
      </trkpt>
      <trkpt lat="45.75242" lon="6.51926">
        <ele>1782.1</ele>
        <time>2025-08-15T15:39:53Z</time>
      </trkpt>
      <trkpt lat="45.75241" lon="6.51926">
        <ele>1782</ele>
        <time>2025-08-15T15:39:54Z</time>
      </trkpt>
      <trkpt lat="45.75239" lon="6.51925">
        <ele>1782.1</ele>
        <time>2025-08-15T15:39:55Z</time>
      </trkpt>
      <trkpt lat="45.75238" lon="6.51925">
        <ele>1782.1</ele>
        <time>2025-08-15T15:39:56Z</time>
      </trkpt>
      <trkpt lat="45.75237" lon="6.51926">
        <ele>1782.2</ele>
        <time>2025-08-15T15:39:57Z</time>
      </trkpt>
      <trkpt lat="45.75237" lon="6.51926">
        <ele>1782.2</ele>
        <time>2025-08-15T15:39:58Z</time>
      </trkpt>
      <trkpt lat="45.75236" lon="6.51927">
        <ele>1781.5</ele>
        <time>2025-08-15T15:39:59Z</time>
      </trkpt>
      <trkpt lat="45.75236" lon="6.51928">
        <ele>1781.4</ele>
        <time>2025-08-15T15:40:00Z</time>
      </trkpt>
      <trkpt lat="45.75235" lon="6.51928">
        <ele>1781.4</ele>
        <time>2025-08-15T15:40:01Z</time>
      </trkpt>
      <trkpt lat="45.75235" lon="6.51929">
        <ele>1781.4</ele>
        <time>2025-08-15T15:40:02Z</time>
      </trkpt>
      <trkpt lat="45.75234" lon="6.5193">
        <ele>1781.4</ele>
        <time>2025-08-15T15:40:03Z</time>
      </trkpt>
      <trkpt lat="45.75234" lon="6.5193">
        <ele>1781.5</ele>
        <time>2025-08-15T15:40:04Z</time>
      </trkpt>
      <trkpt lat="45.75234" lon="6.51931">
        <ele>1781.4</ele>
        <time>2025-08-15T15:40:05Z</time>
      </trkpt>
      <trkpt lat="45.75233" lon="6.51932">
        <ele>1780.8</ele>
        <time>2025-08-15T15:40:06Z</time>
      </trkpt>
      <trkpt lat="45.75233" lon="6.51932">
        <ele>1780.8</ele>
        <time>2025-08-15T15:40:10Z</time>
      </trkpt>
      <trkpt lat="45.75232" lon="6.51933">
        <ele>1780.7</ele>
        <time>2025-08-15T15:40:11Z</time>
      </trkpt>
      <trkpt lat="45.75232" lon="6.51934">
        <ele>1780.7</ele>
        <time>2025-08-15T15:40:12Z</time>
      </trkpt>
      <trkpt lat="45.75229" lon="6.51936">
        <ele>1780.2</ele>
        <time>2025-08-15T15:40:13Z</time>
      </trkpt>
      <trkpt lat="45.75225" lon="6.51936">
        <ele>1780.4</ele>
        <time>2025-08-15T15:40:14Z</time>
      </trkpt>
      <trkpt lat="45.75222" lon="6.51936">
        <ele>1781.4</ele>
        <time>2025-08-15T15:40:15Z</time>
      </trkpt>
      <trkpt lat="45.75221" lon="6.51935">
        <ele>1781.4</ele>
        <time>2025-08-15T15:40:16Z</time>
      </trkpt>
      <trkpt lat="45.75218" lon="6.51937">
        <ele>1781.2</ele>
        <time>2025-08-15T15:40:17Z</time>
      </trkpt>
      <trkpt lat="45.75217" lon="6.51937">
        <ele>1781.1</ele>
        <time>2025-08-15T15:40:18Z</time>
      </trkpt>
      <trkpt lat="45.75215" lon="6.5194">
        <ele>1780.8</ele>
        <time>2025-08-15T15:40:19Z</time>
      </trkpt>
      <trkpt lat="45.75213" lon="6.51941">
        <ele>1781</ele>
        <time>2025-08-15T15:40:20Z</time>
      </trkpt>
      <trkpt lat="45.7521" lon="6.51941">
        <ele>1781.2</ele>
        <time>2025-08-15T15:40:21Z</time>
      </trkpt>
      <trkpt lat="45.75206" lon="6.51942">
        <ele>1781.4</ele>
        <time>2025-08-15T15:40:22Z</time>
      </trkpt>
      <trkpt lat="45.75205" lon="6.51944">
        <ele>1781.3</ele>
        <time>2025-08-15T15:40:23Z</time>
      </trkpt>
      <trkpt lat="45.75203" lon="6.51947">
        <ele>1780.9</ele>
        <time>2025-08-15T15:40:24Z</time>
      </trkpt>
      <trkpt lat="45.75203" lon="6.51949">
        <ele>1780.3</ele>
        <time>2025-08-15T15:40:25Z</time>
      </trkpt>
      <trkpt lat="45.75201" lon="6.51952">
        <ele>1780.4</ele>
        <time>2025-08-15T15:40:26Z</time>
      </trkpt>
      <trkpt lat="45.752" lon="6.51954">
        <ele>1779.8</ele>
        <time>2025-08-15T15:40:27Z</time>
      </trkpt>
      <trkpt lat="45.75199" lon="6.51956">
        <ele>1779.7</ele>
        <time>2025-08-15T15:40:28Z</time>
      </trkpt>
      <trkpt lat="45.75198" lon="6.5196">
        <ele>1779.2</ele>
        <time>2025-08-15T15:40:29Z</time>
      </trkpt>
      <trkpt lat="45.75197" lon="6.51962">
        <ele>1778.4</ele>
        <time>2025-08-15T15:40:30Z</time>
      </trkpt>
      <trkpt lat="45.75193" lon="6.51964">
        <ele>1778.6</ele>
        <time>2025-08-15T15:40:31Z</time>
      </trkpt>
      <trkpt lat="45.7519" lon="6.51967">
        <ele>1777.9</ele>
        <time>2025-08-15T15:40:32Z</time>
      </trkpt>
      <trkpt lat="45.75188" lon="6.51968">
        <ele>1778</ele>
        <time>2025-08-15T15:40:33Z</time>
      </trkpt>
      <trkpt lat="45.75186" lon="6.5197">
        <ele>1777.3</ele>
        <time>2025-08-15T15:40:34Z</time>
      </trkpt>
      <trkpt lat="45.75184" lon="6.51972">
        <ele>1777.3</ele>
        <time>2025-08-15T15:40:35Z</time>
      </trkpt>
      <trkpt lat="45.75182" lon="6.51975">
        <ele>1776.7</ele>
        <time>2025-08-15T15:40:36Z</time>
      </trkpt>
      <trkpt lat="45.7518" lon="6.51979">
        <ele>1776.3</ele>
        <time>2025-08-15T15:40:37Z</time>
      </trkpt>
      <trkpt lat="45.75179" lon="6.51981">
        <ele>1776.2</ele>
        <time>2025-08-15T15:40:38Z</time>
      </trkpt>
      <trkpt lat="45.75178" lon="6.51986">
        <ele>1775.7</ele>
        <time>2025-08-15T15:40:39Z</time>
      </trkpt>
      <trkpt lat="45.75177" lon="6.51989">
        <ele>1775.5</ele>
        <time>2025-08-15T15:40:40Z</time>
      </trkpt>
      <trkpt lat="45.75175" lon="6.51993">
        <ele>1775.1</ele>
        <time>2025-08-15T15:40:41Z</time>
      </trkpt>
      <trkpt lat="45.75174" lon="6.51994">
        <ele>1775</ele>
        <time>2025-08-15T15:40:42Z</time>
      </trkpt>
      <trkpt lat="45.75173" lon="6.51996">
        <ele>1774.8</ele>
        <time>2025-08-15T15:40:43Z</time>
      </trkpt>
      <trkpt lat="45.75173" lon="6.51996">
        <ele>1774.7</ele>
        <time>2025-08-15T15:40:44Z</time>
      </trkpt>
      <trkpt lat="45.75173" lon="6.51995">
        <ele>1774.7</ele>
        <time>2025-08-15T15:40:45Z</time>
      </trkpt>
      <trkpt lat="45.75173" lon="6.51995">
        <ele>1774.7</ele>
        <time>2025-08-15T15:40:47Z</time>
      </trkpt>
      <trkpt lat="45.75173" lon="6.51996">
        <ele>1774.6</ele>
        <time>2025-08-15T15:40:48Z</time>
      </trkpt>
      <trkpt lat="45.75173" lon="6.51995">
        <ele>1774.6</ele>
        <time>2025-08-15T15:40:49Z</time>
      </trkpt>
      <trkpt lat="45.75173" lon="6.51995">
        <ele>1774.6</ele>
        <time>2025-08-15T15:40:50Z</time>
      </trkpt>
      <trkpt lat="45.75173" lon="6.51995">
        <ele>1774.6</ele>
        <time>2025-08-15T15:40:51Z</time>
      </trkpt>
      <trkpt lat="45.75173" lon="6.51995">
        <ele>1774.6</ele>
        <time>2025-08-15T15:40:52Z</time>
      </trkpt>
      <trkpt lat="45.75173" lon="6.51995">
        <ele>1774.6</ele>
        <time>2025-08-15T15:40:53Z</time>
      </trkpt>
      <trkpt lat="45.75173" lon="6.51995">
        <ele>1774.6</ele>
        <time>2025-08-15T15:40:54Z</time>
      </trkpt>
      <trkpt lat="45.75167" lon="6.52006">
        <ele>1774</ele>
        <time>2025-08-15T15:44:04Z</time>
      </trkpt>
      <trkpt lat="45.75166" lon="6.5201">
        <ele>1773.9</ele>
        <time>2025-08-15T15:44:05Z</time>
      </trkpt>
      <trkpt lat="45.75164" lon="6.52015">
        <ele>1773.8</ele>
        <time>2025-08-15T15:44:06Z</time>
      </trkpt>
      <trkpt lat="45.75163" lon="6.52017">
        <ele>1773.8</ele>
        <time>2025-08-15T15:44:07Z</time>
      </trkpt>
      <trkpt lat="45.75161" lon="6.52021">
        <ele>1773.7</ele>
        <time>2025-08-15T15:44:08Z</time>
      </trkpt>
      <trkpt lat="45.7516" lon="6.52024">
        <ele>1773.7</ele>
        <time>2025-08-15T15:44:09Z</time>
      </trkpt>
      <trkpt lat="45.75158" lon="6.52029">
        <ele>1773.6</ele>
        <time>2025-08-15T15:44:10Z</time>
      </trkpt>
      <trkpt lat="45.75157" lon="6.52033">
        <ele>1773.5</ele>
        <time>2025-08-15T15:44:11Z</time>
      </trkpt>
      <trkpt lat="45.75156" lon="6.52038">
        <ele>1773.5</ele>
        <time>2025-08-15T15:44:12Z</time>
      </trkpt>
      <trkpt lat="45.75156" lon="6.5204">
        <ele>1773.4</ele>
        <time>2025-08-15T15:44:13Z</time>
      </trkpt>
      <trkpt lat="45.75153" lon="6.52044">
        <ele>1773.3</ele>
        <time>2025-08-15T15:44:14Z</time>
      </trkpt>
      <trkpt lat="45.75151" lon="6.52047">
        <ele>1773.2</ele>
        <time>2025-08-15T15:44:15Z</time>
      </trkpt>
      <trkpt lat="45.75147" lon="6.52051">
        <ele>1773</ele>
        <time>2025-08-15T15:44:16Z</time>
      </trkpt>
      <trkpt lat="45.75145" lon="6.52055">
        <ele>1772.7</ele>
        <time>2025-08-15T15:44:17Z</time>
      </trkpt>
      <trkpt lat="45.75142" lon="6.5206">
        <ele>1772.4</ele>
        <time>2025-08-15T15:44:18Z</time>
      </trkpt>
      <trkpt lat="45.7514" lon="6.52065">
        <ele>1772.1</ele>
        <time>2025-08-15T15:44:19Z</time>
      </trkpt>
      <trkpt lat="45.75139" lon="6.5207">
        <ele>1771.8</ele>
        <time>2025-08-15T15:44:20Z</time>
      </trkpt>
      <trkpt lat="45.75136" lon="6.52075">
        <ele>1771.6</ele>
        <time>2025-08-15T15:44:21Z</time>
      </trkpt>
      <trkpt lat="45.75134" lon="6.5208">
        <ele>1771.5</ele>
        <time>2025-08-15T15:44:22Z</time>
      </trkpt>
      <trkpt lat="45.7513" lon="6.52082">
        <ele>1771.5</ele>
        <time>2025-08-15T15:44:23Z</time>
      </trkpt>
      <trkpt lat="45.75127" lon="6.52086">
        <ele>1771.5</ele>
        <time>2025-08-15T15:44:24Z</time>
      </trkpt>
      <trkpt lat="45.75124" lon="6.52089">
        <ele>1771.6</ele>
        <time>2025-08-15T15:44:25Z</time>
      </trkpt>
      <trkpt lat="45.75121" lon="6.52093">
        <ele>1771.7</ele>
        <time>2025-08-15T15:44:26Z</time>
      </trkpt>
      <trkpt lat="45.75118" lon="6.52096">
        <ele>1771.7</ele>
        <time>2025-08-15T15:44:27Z</time>
      </trkpt>
      <trkpt lat="45.75116" lon="6.52099">
        <ele>1771.7</ele>
        <time>2025-08-15T15:44:28Z</time>
      </trkpt>
      <trkpt lat="45.75113" lon="6.52102">
        <ele>1771.7</ele>
        <time>2025-08-15T15:44:29Z</time>
      </trkpt>
      <trkpt lat="45.7511" lon="6.52104">
        <ele>1771.7</ele>
        <time>2025-08-15T15:44:30Z</time>
      </trkpt>
      <trkpt lat="45.75107" lon="6.52107">
        <ele>1771.7</ele>
        <time>2025-08-15T15:44:31Z</time>
      </trkpt>
      <trkpt lat="45.75105" lon="6.52109">
        <ele>1771.6</ele>
        <time>2025-08-15T15:44:32Z</time>
      </trkpt>
      <trkpt lat="45.75103" lon="6.52113">
        <ele>1771.4</ele>
        <time>2025-08-15T15:44:33Z</time>
      </trkpt>
      <trkpt lat="45.75102" lon="6.52118">
        <ele>1771.1</ele>
        <time>2025-08-15T15:44:34Z</time>
      </trkpt>
      <trkpt lat="45.75101" lon="6.52124">
        <ele>1770.8</ele>
        <time>2025-08-15T15:44:35Z</time>
      </trkpt>
      <trkpt lat="45.751" lon="6.5213">
        <ele>1770.5</ele>
        <time>2025-08-15T15:44:36Z</time>
      </trkpt>
      <trkpt lat="45.75099" lon="6.52137">
        <ele>1770.2</ele>
        <time>2025-08-15T15:44:37Z</time>
      </trkpt>
      <trkpt lat="45.75099" lon="6.52144">
        <ele>1770</ele>
        <time>2025-08-15T15:44:38Z</time>
      </trkpt>
      <trkpt lat="45.75098" lon="6.52151">
        <ele>1769.8</ele>
        <time>2025-08-15T15:44:39Z</time>
      </trkpt>
      <trkpt lat="45.75097" lon="6.52157">
        <ele>1769.6</ele>
        <time>2025-08-15T15:44:40Z</time>
      </trkpt>
      <trkpt lat="45.75097" lon="6.52165">
        <ele>1769.3</ele>
        <time>2025-08-15T15:44:41Z</time>
      </trkpt>
      <trkpt lat="45.75097" lon="6.52173">
        <ele>1769.1</ele>
        <time>2025-08-15T15:44:42Z</time>
      </trkpt>
      <trkpt lat="45.75096" lon="6.5218">
        <ele>1768.9</ele>
        <time>2025-08-15T15:44:43Z</time>
      </trkpt>
      <trkpt lat="45.75097" lon="6.52188">
        <ele>1768.7</ele>
        <time>2025-08-15T15:44:44Z</time>
      </trkpt>
      <trkpt lat="45.75097" lon="6.52196">
        <ele>1768.5</ele>
        <time>2025-08-15T15:44:45Z</time>
      </trkpt>
      <trkpt lat="45.75096" lon="6.52204">
        <ele>1768.4</ele>
        <time>2025-08-15T15:44:46Z</time>
      </trkpt>
      <trkpt lat="45.75095" lon="6.52213">
        <ele>1768.3</ele>
        <time>2025-08-15T15:44:47Z</time>
      </trkpt>
      <trkpt lat="45.75095" lon="6.5222">
        <ele>1768.2</ele>
        <time>2025-08-15T15:44:48Z</time>
      </trkpt>
      <trkpt lat="45.75096" lon="6.52228">
        <ele>1768.2</ele>
        <time>2025-08-15T15:44:49Z</time>
      </trkpt>
      <trkpt lat="45.75097" lon="6.52236">
        <ele>1768.1</ele>
        <time>2025-08-15T15:44:50Z</time>
      </trkpt>
      <trkpt lat="45.75099" lon="6.52243">
        <ele>1768.1</ele>
        <time>2025-08-15T15:44:51Z</time>
      </trkpt>
      <trkpt lat="45.75102" lon="6.5225">
        <ele>1768</ele>
        <time>2025-08-15T15:44:52Z</time>
      </trkpt>
      <trkpt lat="45.75104" lon="6.52256">
        <ele>1768</ele>
        <time>2025-08-15T15:44:53Z</time>
      </trkpt>
      <trkpt lat="45.75105" lon="6.52262">
        <ele>1768</ele>
        <time>2025-08-15T15:44:54Z</time>
      </trkpt>
      <trkpt lat="45.75106" lon="6.52269">
        <ele>1768</ele>
        <time>2025-08-15T15:44:55Z</time>
      </trkpt>
      <trkpt lat="45.75107" lon="6.52275">
        <ele>1767.9</ele>
        <time>2025-08-15T15:44:56Z</time>
      </trkpt>
      <trkpt lat="45.75107" lon="6.52281">
        <ele>1767.8</ele>
        <time>2025-08-15T15:44:57Z</time>
      </trkpt>
      <trkpt lat="45.75107" lon="6.52287">
        <ele>1767.7</ele>
        <time>2025-08-15T15:44:59Z</time>
      </trkpt>
      <trkpt lat="45.75107" lon="6.52293">
        <ele>1767.6</ele>
        <time>2025-08-15T15:45:00Z</time>
      </trkpt>
      <trkpt lat="45.75106" lon="6.523">
        <ele>1767.4</ele>
        <time>2025-08-15T15:45:01Z</time>
      </trkpt>
      <trkpt lat="45.75105" lon="6.52307">
        <ele>1767.3</ele>
        <time>2025-08-15T15:45:02Z</time>
      </trkpt>
      <trkpt lat="45.75103" lon="6.52315">
        <ele>1767.1</ele>
        <time>2025-08-15T15:45:03Z</time>
      </trkpt>
      <trkpt lat="45.75101" lon="6.52323">
        <ele>1767</ele>
        <time>2025-08-15T15:45:04Z</time>
      </trkpt>
      <trkpt lat="45.75099" lon="6.52329">
        <ele>1766.8</ele>
        <time>2025-08-15T15:45:05Z</time>
      </trkpt>
      <trkpt lat="45.75097" lon="6.52336">
        <ele>1766.6</ele>
        <time>2025-08-15T15:45:06Z</time>
      </trkpt>
      <trkpt lat="45.75094" lon="6.52342">
        <ele>1766.4</ele>
        <time>2025-08-15T15:45:07Z</time>
      </trkpt>
      <trkpt lat="45.75092" lon="6.52348">
        <ele>1766.1</ele>
        <time>2025-08-15T15:45:08Z</time>
      </trkpt>
      <trkpt lat="45.75089" lon="6.52353">
        <ele>1765.8</ele>
        <time>2025-08-15T15:45:09Z</time>
      </trkpt>
      <trkpt lat="45.75085" lon="6.52357">
        <ele>1765.4</ele>
        <time>2025-08-15T15:45:10Z</time>
      </trkpt>
      <trkpt lat="45.7508" lon="6.52362">
        <ele>1764.9</ele>
        <time>2025-08-15T15:45:11Z</time>
      </trkpt>
      <trkpt lat="45.75074" lon="6.52367">
        <ele>1764.3</ele>
        <time>2025-08-15T15:45:12Z</time>
      </trkpt>
      <trkpt lat="45.75068" lon="6.52371">
        <ele>1763.5</ele>
        <time>2025-08-15T15:45:13Z</time>
      </trkpt>
      <trkpt lat="45.75061" lon="6.52377">
        <ele>1762.6</ele>
        <time>2025-08-15T15:45:14Z</time>
      </trkpt>
      <trkpt lat="45.75054" lon="6.52385">
        <ele>1761.6</ele>
        <time>2025-08-15T15:45:15Z</time>
      </trkpt>
      <trkpt lat="45.75048" lon="6.52395">
        <ele>1760.6</ele>
        <time>2025-08-15T15:45:16Z</time>
      </trkpt>
      <trkpt lat="45.7504" lon="6.5242">
        <ele>1758.9</ele>
        <time>2025-08-15T15:45:17Z</time>
      </trkpt>
      <trkpt lat="45.75034" lon="6.52432">
        <ele>1758</ele>
        <time>2025-08-15T15:45:18Z</time>
      </trkpt>
      <trkpt lat="45.75027" lon="6.52444">
        <ele>1756.9</ele>
        <time>2025-08-15T15:45:19Z</time>
      </trkpt>
      <trkpt lat="45.7502" lon="6.52456">
        <ele>1755.8</ele>
        <time>2025-08-15T15:45:20Z</time>
      </trkpt>
      <trkpt lat="45.75012" lon="6.52468">
        <ele>1754.8</ele>
        <time>2025-08-15T15:45:21Z</time>
      </trkpt>
      <trkpt lat="45.75005" lon="6.52482">
        <ele>1754</ele>
        <time>2025-08-15T15:45:22Z</time>
      </trkpt>
      <trkpt lat="45.74998" lon="6.52495">
        <ele>1753.2</ele>
        <time>2025-08-15T15:45:23Z</time>
      </trkpt>
      <trkpt lat="45.74991" lon="6.52508">
        <ele>1752.6</ele>
        <time>2025-08-15T15:45:24Z</time>
      </trkpt>
      <trkpt lat="45.74984" lon="6.52521">
        <ele>1751.8</ele>
        <time>2025-08-15T15:45:25Z</time>
      </trkpt>
      <trkpt lat="45.74977" lon="6.52535">
        <ele>1750.9</ele>
        <time>2025-08-15T15:45:26Z</time>
      </trkpt>
      <trkpt lat="45.74972" lon="6.52546">
        <ele>1750.1</ele>
        <time>2025-08-15T15:45:27Z</time>
      </trkpt>
      <trkpt lat="45.74966" lon="6.52556">
        <ele>1749.3</ele>
        <time>2025-08-15T15:45:28Z</time>
      </trkpt>
      <trkpt lat="45.74963" lon="6.52567">
        <ele>1748.5</ele>
        <time>2025-08-15T15:45:29Z</time>
      </trkpt>
      <trkpt lat="45.74963" lon="6.52579">
        <ele>1747.8</ele>
        <time>2025-08-15T15:45:30Z</time>
      </trkpt>
      <trkpt lat="45.74965" lon="6.52592">
        <ele>1746.9</ele>
        <time>2025-08-15T15:45:31Z</time>
      </trkpt>
      <trkpt lat="45.74966" lon="6.52605">
        <ele>1745.9</ele>
        <time>2025-08-15T15:45:32Z</time>
      </trkpt>
      <trkpt lat="45.74966" lon="6.5262">
        <ele>1744.4</ele>
        <time>2025-08-15T15:45:33Z</time>
      </trkpt>
      <trkpt lat="45.74965" lon="6.52635">
        <ele>1742.6</ele>
        <time>2025-08-15T15:45:34Z</time>
      </trkpt>
      <trkpt lat="45.74964" lon="6.52649">
        <ele>1740.6</ele>
        <time>2025-08-15T15:45:35Z</time>
      </trkpt>
      <trkpt lat="45.74964" lon="6.52664">
        <ele>1738.8</ele>
        <time>2025-08-15T15:45:36Z</time>
      </trkpt>
      <trkpt lat="45.74964" lon="6.52679">
        <ele>1736.9</ele>
        <time>2025-08-15T15:45:37Z</time>
      </trkpt>
      <trkpt lat="45.74964" lon="6.52695">
        <ele>1734.9</ele>
        <time>2025-08-15T15:45:38Z</time>
      </trkpt>
      <trkpt lat="45.74965" lon="6.52708">
        <ele>1733.4</ele>
        <time>2025-08-15T15:45:39Z</time>
      </trkpt>
      <trkpt lat="45.74965" lon="6.52718">
        <ele>1732.3</ele>
        <time>2025-08-15T15:45:40Z</time>
      </trkpt>
      <trkpt lat="45.74965" lon="6.52727">
        <ele>1731.3</ele>
        <time>2025-08-15T15:45:41Z</time>
      </trkpt>
      <trkpt lat="45.74966" lon="6.52735">
        <ele>1730.4</ele>
        <time>2025-08-15T15:45:42Z</time>
      </trkpt>
      <trkpt lat="45.74965" lon="6.52742">
        <ele>1729.6</ele>
        <time>2025-08-15T15:45:43Z</time>
      </trkpt>
      <trkpt lat="45.74965" lon="6.52748">
        <ele>1728.9</ele>
        <time>2025-08-15T15:45:44Z</time>
      </trkpt>
      <trkpt lat="45.74964" lon="6.52753">
        <ele>1728.2</ele>
        <time>2025-08-15T15:45:45Z</time>
      </trkpt>
      <trkpt lat="45.74963" lon="6.52759">
        <ele>1727.5</ele>
        <time>2025-08-15T15:45:46Z</time>
      </trkpt>
      <trkpt lat="45.74963" lon="6.52764">
        <ele>1726.8</ele>
        <time>2025-08-15T15:45:47Z</time>
      </trkpt>
      <trkpt lat="45.74962" lon="6.52769">
        <ele>1726</ele>
        <time>2025-08-15T15:45:48Z</time>
      </trkpt>
      <trkpt lat="45.74962" lon="6.52774">
        <ele>1725.4</ele>
        <time>2025-08-15T15:45:49Z</time>
      </trkpt>
      <trkpt lat="45.74961" lon="6.52779">
        <ele>1724.7</ele>
        <time>2025-08-15T15:45:50Z</time>
      </trkpt>
      <trkpt lat="45.74961" lon="6.52781">
        <ele>1724.4</ele>
        <time>2025-08-15T15:45:51Z</time>
      </trkpt>
      <trkpt lat="45.74961" lon="6.52787">
        <ele>1723.5</ele>
        <time>2025-08-15T15:45:52Z</time>
      </trkpt>
      <trkpt lat="45.74961" lon="6.52789">
        <ele>1723.1</ele>
        <time>2025-08-15T15:45:53Z</time>
      </trkpt>
      <trkpt lat="45.74961" lon="6.52795">
        <ele>1722.1</ele>
        <time>2025-08-15T15:45:54Z</time>
      </trkpt>
      <trkpt lat="45.74962" lon="6.52801">
        <ele>1721.1</ele>
        <time>2025-08-15T15:45:55Z</time>
      </trkpt>
      <trkpt lat="45.74963" lon="6.52806">
        <ele>1720.2</ele>
        <time>2025-08-15T15:45:56Z</time>
      </trkpt>
      <trkpt lat="45.74965" lon="6.52811">
        <ele>1719.4</ele>
        <time>2025-08-15T15:45:57Z</time>
      </trkpt>
      <trkpt lat="45.74965" lon="6.52816">
        <ele>1718.8</ele>
        <time>2025-08-15T15:45:58Z</time>
      </trkpt>
      <trkpt lat="45.74963" lon="6.5282">
        <ele>1718.9</ele>
        <time>2025-08-15T15:45:59Z</time>
      </trkpt>
      <trkpt lat="45.74961" lon="6.52823">
        <ele>1719</ele>
        <time>2025-08-15T15:46:00Z</time>
      </trkpt>
      <trkpt lat="45.74959" lon="6.52827">
        <ele>1719.1</ele>
        <time>2025-08-15T15:46:01Z</time>
      </trkpt>
      <trkpt lat="45.74958" lon="6.52828">
        <ele>1719.1</ele>
        <time>2025-08-15T15:46:02Z</time>
      </trkpt>
      <trkpt lat="45.74957" lon="6.52829">
        <ele>1719.1</ele>
        <time>2025-08-15T15:46:03Z</time>
      </trkpt>
      <trkpt lat="45.74957" lon="6.5283">
        <ele>1719.2</ele>
        <time>2025-08-15T15:46:04Z</time>
      </trkpt>
      <trkpt lat="45.74955" lon="6.52831">
        <ele>1719.2</ele>
        <time>2025-08-15T15:46:05Z</time>
      </trkpt>
      <trkpt lat="45.74954" lon="6.52831">
        <ele>1719.3</ele>
        <time>2025-08-15T15:46:06Z</time>
      </trkpt>
      <trkpt lat="45.74953" lon="6.52832">
        <ele>1719.3</ele>
        <time>2025-08-15T15:46:07Z</time>
      </trkpt>
      <trkpt lat="45.74951" lon="6.52833">
        <ele>1719.4</ele>
        <time>2025-08-15T15:46:08Z</time>
      </trkpt>
      <trkpt lat="45.74951" lon="6.52834">
        <ele>1719.4</ele>
        <time>2025-08-15T15:46:09Z</time>
      </trkpt>
      <trkpt lat="45.74951" lon="6.52834">
        <ele>1719.4</ele>
        <time>2025-08-15T15:46:10Z</time>
      </trkpt>
      <trkpt lat="45.7495" lon="6.52834">
        <ele>1719.4</ele>
        <time>2025-08-15T15:46:11Z</time>
      </trkpt>
      <trkpt lat="45.7495" lon="6.52834">
        <ele>1719.4</ele>
        <time>2025-08-15T15:46:12Z</time>
      </trkpt>
      <trkpt lat="45.7495" lon="6.52835">
        <ele>1719.4</ele>
        <time>2025-08-15T15:46:13Z</time>
      </trkpt>
      <trkpt lat="45.74949" lon="6.52835">
        <ele>1719.4</ele>
        <time>2025-08-15T15:46:14Z</time>
      </trkpt>
      <trkpt lat="45.74949" lon="6.52835">
        <ele>1719.4</ele>
        <time>2025-08-15T15:46:15Z</time>
      </trkpt>
      <trkpt lat="45.74949" lon="6.52836">
        <ele>1719.4</ele>
        <time>2025-08-15T15:46:16Z</time>
      </trkpt>
      <trkpt lat="45.74948" lon="6.52836">
        <ele>1719.4</ele>
        <time>2025-08-15T15:46:17Z</time>
      </trkpt>
      <trkpt lat="45.74948" lon="6.52836">
        <ele>1719.4</ele>
        <time>2025-08-15T15:46:18Z</time>
      </trkpt>
      <trkpt lat="45.74948" lon="6.52837">
        <ele>1719.5</ele>
        <time>2025-08-15T15:46:19Z</time>
      </trkpt>
      <trkpt lat="45.74948" lon="6.52837">
        <ele>1719.5</ele>
        <time>2025-08-15T15:47:18Z</time>
      </trkpt>
      <trkpt lat="45.74947" lon="6.52837">
        <ele>1719.5</ele>
        <time>2025-08-15T15:47:19Z</time>
      </trkpt>
      <trkpt lat="45.74947" lon="6.52838">
        <ele>1719.5</ele>
        <time>2025-08-15T15:47:20Z</time>
      </trkpt>
      <trkpt lat="45.74946" lon="6.52838">
        <ele>1719.5</ele>
        <time>2025-08-15T15:47:21Z</time>
      </trkpt>
      <trkpt lat="45.74947" lon="6.52839">
        <ele>1719.5</ele>
        <time>2025-08-15T15:47:22Z</time>
      </trkpt>
      <trkpt lat="45.74947" lon="6.52838">
        <ele>1719.5</ele>
        <time>2025-08-15T15:47:23Z</time>
      </trkpt>
      <trkpt lat="45.74946" lon="6.52839">
        <ele>1719.5</ele>
        <time>2025-08-15T15:47:24Z</time>
      </trkpt>
      <trkpt lat="45.74945" lon="6.52839">
        <ele>1719.6</ele>
        <time>2025-08-15T15:47:25Z</time>
      </trkpt>
      <trkpt lat="45.74944" lon="6.5284">
        <ele>1719.6</ele>
        <time>2025-08-15T15:47:26Z</time>
      </trkpt>
      <trkpt lat="45.74941" lon="6.52841">
        <ele>1719.7</ele>
        <time>2025-08-15T15:47:27Z</time>
      </trkpt>
      <trkpt lat="45.7494" lon="6.52842">
        <ele>1719.7</ele>
        <time>2025-08-15T15:47:28Z</time>
      </trkpt>
      <trkpt lat="45.74937" lon="6.52843">
        <ele>1719.7</ele>
        <time>2025-08-15T15:47:29Z</time>
      </trkpt>
      <trkpt lat="45.74934" lon="6.52846">
        <ele>1719.8</ele>
        <time>2025-08-15T15:47:30Z</time>
      </trkpt>
      <trkpt lat="45.74931" lon="6.52848">
        <ele>1719.9</ele>
        <time>2025-08-15T15:47:31Z</time>
      </trkpt>
      <trkpt lat="45.74928" lon="6.5285">
        <ele>1720</ele>
        <time>2025-08-15T15:47:32Z</time>
      </trkpt>
      <trkpt lat="45.74925" lon="6.52852">
        <ele>1720</ele>
        <time>2025-08-15T15:47:33Z</time>
      </trkpt>
      <trkpt lat="45.74922" lon="6.52855">
        <ele>1720.1</ele>
        <time>2025-08-15T15:47:34Z</time>
      </trkpt>
      <trkpt lat="45.74919" lon="6.52857">
        <ele>1720.2</ele>
        <time>2025-08-15T15:47:35Z</time>
      </trkpt>
      <trkpt lat="45.74916" lon="6.52859">
        <ele>1720.3</ele>
        <time>2025-08-15T15:47:36Z</time>
      </trkpt>
      <trkpt lat="45.74912" lon="6.5286">
        <ele>1720.4</ele>
        <time>2025-08-15T15:47:37Z</time>
      </trkpt>
      <trkpt lat="45.74909" lon="6.52862">
        <ele>1720.5</ele>
        <time>2025-08-15T15:47:38Z</time>
      </trkpt>
      <trkpt lat="45.74907" lon="6.52863">
        <ele>1720.6</ele>
        <time>2025-08-15T15:47:39Z</time>
      </trkpt>
      <trkpt lat="45.74904" lon="6.52864">
        <ele>1720.8</ele>
        <time>2025-08-15T15:47:40Z</time>
      </trkpt>
      <trkpt lat="45.74901" lon="6.52865">
        <ele>1720.9</ele>
        <time>2025-08-15T15:47:41Z</time>
      </trkpt>
      <trkpt lat="45.74898" lon="6.52866">
        <ele>1721.1</ele>
        <time>2025-08-15T15:47:42Z</time>
      </trkpt>
      <trkpt lat="45.74894" lon="6.52867">
        <ele>1721.4</ele>
        <time>2025-08-15T15:47:43Z</time>
      </trkpt>
      <trkpt lat="45.74892" lon="6.52868">
        <ele>1721.6</ele>
        <time>2025-08-15T15:47:44Z</time>
      </trkpt>
      <trkpt lat="45.74888" lon="6.52867">
        <ele>1721.8</ele>
        <time>2025-08-15T15:47:45Z</time>
      </trkpt>
      <trkpt lat="45.74884" lon="6.52866">
        <ele>1722.1</ele>
        <time>2025-08-15T15:47:46Z</time>
      </trkpt>
      <trkpt lat="45.74881" lon="6.52865">
        <ele>1722.4</ele>
        <time>2025-08-15T15:47:47Z</time>
      </trkpt>
      <trkpt lat="45.74877" lon="6.52864">
        <ele>1722.7</ele>
        <time>2025-08-15T15:47:48Z</time>
      </trkpt>
      <trkpt lat="45.74874" lon="6.52863">
        <ele>1722.9</ele>
        <time>2025-08-15T15:47:49Z</time>
      </trkpt>
      <trkpt lat="45.7487" lon="6.52862">
        <ele>1723.1</ele>
        <time>2025-08-15T15:47:50Z</time>
      </trkpt>
      <trkpt lat="45.74867" lon="6.5286">
        <ele>1723.4</ele>
        <time>2025-08-15T15:47:51Z</time>
      </trkpt>
      <trkpt lat="45.74863" lon="6.52859">
        <ele>1723.6</ele>
        <time>2025-08-15T15:47:52Z</time>
      </trkpt>
      <trkpt lat="45.7486" lon="6.52857">
        <ele>1723.8</ele>
        <time>2025-08-15T15:47:53Z</time>
      </trkpt>
      <trkpt lat="45.74856" lon="6.52855">
        <ele>1723.9</ele>
        <time>2025-08-15T15:47:54Z</time>
      </trkpt>
      <trkpt lat="45.74853" lon="6.52853">
        <ele>1724.1</ele>
        <time>2025-08-15T15:47:55Z</time>
      </trkpt>
      <trkpt lat="45.74849" lon="6.52853">
        <ele>1724.2</ele>
        <time>2025-08-15T15:47:56Z</time>
      </trkpt>
      <trkpt lat="45.74845" lon="6.52853">
        <ele>1724.3</ele>
        <time>2025-08-15T15:47:57Z</time>
      </trkpt>
      <trkpt lat="45.74841" lon="6.52853">
        <ele>1724.4</ele>
        <time>2025-08-15T15:47:58Z</time>
      </trkpt>
      <trkpt lat="45.74837" lon="6.52854">
        <ele>1724.5</ele>
        <time>2025-08-15T15:47:59Z</time>
      </trkpt>
      <trkpt lat="45.74833" lon="6.52854">
        <ele>1724.6</ele>
        <time>2025-08-15T15:48:00Z</time>
      </trkpt>
      <trkpt lat="45.74829" lon="6.52855">
        <ele>1724.7</ele>
        <time>2025-08-15T15:48:01Z</time>
      </trkpt>
      <trkpt lat="45.74825" lon="6.52855">
        <ele>1724.8</ele>
        <time>2025-08-15T15:48:02Z</time>
      </trkpt>
      <trkpt lat="45.74821" lon="6.52854">
        <ele>1724.9</ele>
        <time>2025-08-15T15:48:03Z</time>
      </trkpt>
      <trkpt lat="45.74817" lon="6.52853">
        <ele>1725</ele>
        <time>2025-08-15T15:48:04Z</time>
      </trkpt>
      <trkpt lat="45.74812" lon="6.52853">
        <ele>1725.1</ele>
        <time>2025-08-15T15:48:05Z</time>
      </trkpt>
      <trkpt lat="45.74808" lon="6.52851">
        <ele>1725.3</ele>
        <time>2025-08-15T15:48:06Z</time>
      </trkpt>
      <trkpt lat="45.74804" lon="6.52849">
        <ele>1725.4</ele>
        <time>2025-08-15T15:48:07Z</time>
      </trkpt>
      <trkpt lat="45.748" lon="6.52847">
        <ele>1725.5</ele>
        <time>2025-08-15T15:48:08Z</time>
      </trkpt>
      <trkpt lat="45.74797" lon="6.52846">
        <ele>1725.7</ele>
        <time>2025-08-15T15:48:09Z</time>
      </trkpt>
      <trkpt lat="45.74793" lon="6.52844">
        <ele>1725.9</ele>
        <time>2025-08-15T15:48:10Z</time>
      </trkpt>
      <trkpt lat="45.7479" lon="6.52843">
        <ele>1726.1</ele>
        <time>2025-08-15T15:48:11Z</time>
      </trkpt>
      <trkpt lat="45.74787" lon="6.52842">
        <ele>1726.2</ele>
        <time>2025-08-15T15:48:12Z</time>
      </trkpt>
      <trkpt lat="45.74784" lon="6.52841">
        <ele>1726.4</ele>
        <time>2025-08-15T15:48:13Z</time>
      </trkpt>
      <trkpt lat="45.74781" lon="6.5284">
        <ele>1726.7</ele>
        <time>2025-08-15T15:48:14Z</time>
      </trkpt>
      <trkpt lat="45.7478" lon="6.52839">
        <ele>1726.7</ele>
        <time>2025-08-15T15:48:15Z</time>
      </trkpt>
      <trkpt lat="45.74778" lon="6.52839">
        <ele>1726.8</ele>
        <time>2025-08-15T15:48:16Z</time>
      </trkpt>
      <trkpt lat="45.74777" lon="6.52838">
        <ele>1726.9</ele>
        <time>2025-08-15T15:48:17Z</time>
      </trkpt>
      <trkpt lat="45.74774" lon="6.52838">
        <ele>1727.1</ele>
        <time>2025-08-15T15:48:18Z</time>
      </trkpt>
      <trkpt lat="45.74773" lon="6.52838">
        <ele>1727.1</ele>
        <time>2025-08-15T15:48:19Z</time>
      </trkpt>
      <trkpt lat="45.7477" lon="6.52837">
        <ele>1727.3</ele>
        <time>2025-08-15T15:48:20Z</time>
      </trkpt>
      <trkpt lat="45.74769" lon="6.52836">
        <ele>1727.4</ele>
        <time>2025-08-15T15:48:21Z</time>
      </trkpt>
      <trkpt lat="45.74765" lon="6.52835">
        <ele>1727.6</ele>
        <time>2025-08-15T15:48:22Z</time>
      </trkpt>
      <trkpt lat="45.74764" lon="6.52835">
        <ele>1727.6</ele>
        <time>2025-08-15T15:48:23Z</time>
      </trkpt>
      <trkpt lat="45.74761" lon="6.52835">
        <ele>1727.8</ele>
        <time>2025-08-15T15:48:24Z</time>
      </trkpt>
      <trkpt lat="45.74758" lon="6.52835">
        <ele>1728</ele>
        <time>2025-08-15T15:48:25Z</time>
      </trkpt>
      <trkpt lat="45.74754" lon="6.52835">
        <ele>1728.3</ele>
        <time>2025-08-15T15:48:26Z</time>
      </trkpt>
      <trkpt lat="45.74751" lon="6.52835">
        <ele>1728.5</ele>
        <time>2025-08-15T15:48:27Z</time>
      </trkpt>
      <trkpt lat="45.74748" lon="6.52836">
        <ele>1728.7</ele>
        <time>2025-08-15T15:48:28Z</time>
      </trkpt>
      <trkpt lat="45.74745" lon="6.52835">
        <ele>1728.9</ele>
        <time>2025-08-15T15:48:29Z</time>
      </trkpt>
      <trkpt lat="45.74742" lon="6.52835">
        <ele>1729.2</ele>
        <time>2025-08-15T15:48:30Z</time>
      </trkpt>
      <trkpt lat="45.7474" lon="6.52834">
        <ele>1729.4</ele>
        <time>2025-08-15T15:48:31Z</time>
      </trkpt>
      <trkpt lat="45.74737" lon="6.52834">
        <ele>1729.6</ele>
        <time>2025-08-15T15:48:32Z</time>
      </trkpt>
      <trkpt lat="45.74733" lon="6.52834">
        <ele>1729.8</ele>
        <time>2025-08-15T15:48:33Z</time>
      </trkpt>
      <trkpt lat="45.74732" lon="6.52834">
        <ele>1729.8</ele>
        <time>2025-08-15T15:48:34Z</time>
      </trkpt>
      <trkpt lat="45.74729" lon="6.52834">
        <ele>1730</ele>
        <time>2025-08-15T15:48:35Z</time>
      </trkpt>
      <trkpt lat="45.74726" lon="6.52834">
        <ele>1730.1</ele>
        <time>2025-08-15T15:48:36Z</time>
      </trkpt>
      <trkpt lat="45.74723" lon="6.52835">
        <ele>1730.2</ele>
        <time>2025-08-15T15:48:37Z</time>
      </trkpt>
      <trkpt lat="45.7472" lon="6.52834">
        <ele>1730.3</ele>
        <time>2025-08-15T15:48:38Z</time>
      </trkpt>
      <trkpt lat="45.74717" lon="6.52834">
        <ele>1730.3</ele>
        <time>2025-08-15T15:48:39Z</time>
      </trkpt>
      <trkpt lat="45.74714" lon="6.52834">
        <ele>1730.3</ele>
        <time>2025-08-15T15:48:40Z</time>
      </trkpt>
      <trkpt lat="45.7471" lon="6.52835">
        <ele>1730.3</ele>
        <time>2025-08-15T15:48:41Z</time>
      </trkpt>
      <trkpt lat="45.74709" lon="6.52835">
        <ele>1730.3</ele>
        <time>2025-08-15T15:48:42Z</time>
      </trkpt>
      <trkpt lat="45.74706" lon="6.52835">
        <ele>1730.3</ele>
        <time>2025-08-15T15:48:43Z</time>
      </trkpt>
      <trkpt lat="45.74705" lon="6.52835">
        <ele>1730.3</ele>
        <time>2025-08-15T15:48:44Z</time>
      </trkpt>
      <trkpt lat="45.747" lon="6.52835">
        <ele>1730.2</ele>
        <time>2025-08-15T15:48:45Z</time>
      </trkpt>
      <trkpt lat="45.74699" lon="6.52835">
        <ele>1730.2</ele>
        <time>2025-08-15T15:48:46Z</time>
      </trkpt>
      <trkpt lat="45.74695" lon="6.52835">
        <ele>1730.1</ele>
        <time>2025-08-15T15:48:47Z</time>
      </trkpt>
      <trkpt lat="45.74692" lon="6.52834">
        <ele>1730</ele>
        <time>2025-08-15T15:48:48Z</time>
      </trkpt>
      <trkpt lat="45.7469" lon="6.52835">
        <ele>1729.9</ele>
        <time>2025-08-15T15:48:49Z</time>
      </trkpt>
      <trkpt lat="45.74689" lon="6.52835">
        <ele>1729.8</ele>
        <time>2025-08-15T15:48:50Z</time>
      </trkpt>
      <trkpt lat="45.74688" lon="6.52837">
        <ele>1729.8</ele>
        <time>2025-08-15T15:48:51Z</time>
      </trkpt>
      <trkpt lat="45.74687" lon="6.52839">
        <ele>1729.5</ele>
        <time>2025-08-15T15:48:52Z</time>
      </trkpt>
      <trkpt lat="45.74688" lon="6.5284">
        <ele>1729.5</ele>
        <time>2025-08-15T15:48:53Z</time>
      </trkpt>
      <trkpt lat="45.74689" lon="6.52839">
        <ele>1729.5</ele>
        <time>2025-08-15T15:48:54Z</time>
      </trkpt>
      <trkpt lat="45.74689" lon="6.52839">
        <ele>1729.5</ele>
        <time>2025-08-15T15:48:55Z</time>
      </trkpt>
      <trkpt lat="45.74688" lon="6.52839">
        <ele>1729.5</ele>
        <time>2025-08-15T15:48:56Z</time>
      </trkpt>
      <trkpt lat="45.74688" lon="6.52839">
        <ele>1729.5</ele>
        <time>2025-08-15T15:48:57Z</time>
      </trkpt>
      <trkpt lat="45.74688" lon="6.52839">
        <ele>1729.4</ele>
        <time>2025-08-15T15:48:58Z</time>
      </trkpt>
      <trkpt lat="45.74688" lon="6.52839">
        <ele>1729.4</ele>
        <time>2025-08-15T15:48:59Z</time>
      </trkpt>
      <trkpt lat="45.74688" lon="6.52839">
        <ele>1729.4</ele>
        <time>2025-08-15T15:49:00Z</time>
      </trkpt>
      <trkpt lat="45.74688" lon="6.5284">
        <ele>1729.4</ele>
        <time>2025-08-15T15:49:01Z</time>
      </trkpt>
      <trkpt lat="45.74689" lon="6.52839">
        <ele>1729.4</ele>
        <time>2025-08-15T15:49:02Z</time>
      </trkpt>
      <trkpt lat="45.74688" lon="6.52839">
        <ele>1729.4</ele>
        <time>2025-08-15T15:49:03Z</time>
      </trkpt>
      <trkpt lat="45.74685" lon="6.52846">
        <ele>1728.8</ele>
        <time>2025-08-15T15:49:06Z</time>
      </trkpt>
      <trkpt lat="45.74684" lon="6.5285">
        <ele>1728.6</ele>
        <time>2025-08-15T15:49:07Z</time>
      </trkpt>
      <trkpt lat="45.74684" lon="6.52854">
        <ele>1728.4</ele>
        <time>2025-08-15T15:49:08Z</time>
      </trkpt>
      <trkpt lat="45.74684" lon="6.52855">
        <ele>1728.4</ele>
        <time>2025-08-15T15:49:09Z</time>
      </trkpt>
      <trkpt lat="45.74684" lon="6.52859">
        <ele>1728.1</ele>
        <time>2025-08-15T15:49:11Z</time>
      </trkpt>
      <trkpt lat="45.74683" lon="6.52861">
        <ele>1727.9</ele>
        <time>2025-08-15T15:49:12Z</time>
      </trkpt>
      <trkpt lat="45.74684" lon="6.52866">
        <ele>1727.9</ele>
        <time>2025-08-15T15:49:13Z</time>
      </trkpt>
      <trkpt lat="45.74683" lon="6.52872">
        <ele>1727.5</ele>
        <time>2025-08-15T15:49:14Z</time>
      </trkpt>
      <trkpt lat="45.74683" lon="6.52877">
        <ele>1727.1</ele>
        <time>2025-08-15T15:49:15Z</time>
      </trkpt>
      <trkpt lat="45.74687" lon="6.52882">
        <ele>1727.3</ele>
        <time>2025-08-15T15:49:16Z</time>
      </trkpt>
      <trkpt lat="45.74687" lon="6.52889">
        <ele>1727</ele>
        <time>2025-08-15T15:49:17Z</time>
      </trkpt>
      <trkpt lat="45.74688" lon="6.52893">
        <ele>1726.8</ele>
        <time>2025-08-15T15:49:18Z</time>
      </trkpt>
      <trkpt lat="45.74689" lon="6.52899">
        <ele>1726.6</ele>
        <time>2025-08-15T15:49:19Z</time>
      </trkpt>
      <trkpt lat="45.74689" lon="6.52904">
        <ele>1726.4</ele>
        <time>2025-08-15T15:49:20Z</time>
      </trkpt>
      <trkpt lat="45.74691" lon="6.52907">
        <ele>1726.5</ele>
        <time>2025-08-15T15:49:21Z</time>
      </trkpt>
      <trkpt lat="45.74692" lon="6.52912">
        <ele>1726.6</ele>
        <time>2025-08-15T15:49:22Z</time>
      </trkpt>
      <trkpt lat="45.74694" lon="6.5292">
        <ele>1726.4</ele>
        <time>2025-08-15T15:49:23Z</time>
      </trkpt>
      <trkpt lat="45.74695" lon="6.52929">
        <ele>1726.1</ele>
        <time>2025-08-15T15:49:24Z</time>
      </trkpt>
      <trkpt lat="45.74695" lon="6.52938">
        <ele>1725.9</ele>
        <time>2025-08-15T15:49:25Z</time>
      </trkpt>
      <trkpt lat="45.74693" lon="6.52944">
        <ele>1725.7</ele>
        <time>2025-08-15T15:49:26Z</time>
      </trkpt>
      <trkpt lat="45.74691" lon="6.52956">
        <ele>1725.3</ele>
        <time>2025-08-15T15:49:27Z</time>
      </trkpt>
      <trkpt lat="45.7469" lon="6.52963">
        <ele>1725.2</ele>
        <time>2025-08-15T15:49:28Z</time>
      </trkpt>
      <trkpt lat="45.7469" lon="6.52968">
        <ele>1725.1</ele>
        <time>2025-08-15T15:49:29Z</time>
      </trkpt>
      <trkpt lat="45.74689" lon="6.52972">
        <ele>1724.7</ele>
        <time>2025-08-15T15:49:30Z</time>
      </trkpt>
      <trkpt lat="45.74688" lon="6.52977">
        <ele>1724.7</ele>
        <time>2025-08-15T15:49:31Z</time>
      </trkpt>
      <trkpt lat="45.74687" lon="6.52982">
        <ele>1724.8</ele>
        <time>2025-08-15T15:49:32Z</time>
      </trkpt>
      <trkpt lat="45.74686" lon="6.5299">
        <ele>1724.9</ele>
        <time>2025-08-15T15:49:33Z</time>
      </trkpt>
      <trkpt lat="45.7469" lon="6.52998">
        <ele>1725.6</ele>
        <time>2025-08-15T15:49:34Z</time>
      </trkpt>
      <trkpt lat="45.74695" lon="6.53003">
        <ele>1726.1</ele>
        <time>2025-08-15T15:49:35Z</time>
      </trkpt>
      <trkpt lat="45.74698" lon="6.53003">
        <ele>1726.4</ele>
        <time>2025-08-15T15:49:36Z</time>
      </trkpt>
      <trkpt lat="45.74701" lon="6.53009">
        <ele>1726.7</ele>
        <time>2025-08-15T15:49:37Z</time>
      </trkpt>
      <trkpt lat="45.74704" lon="6.53013">
        <ele>1726.8</ele>
        <time>2025-08-15T15:49:38Z</time>
      </trkpt>
      <trkpt lat="45.74706" lon="6.53018">
        <ele>1726.8</ele>
        <time>2025-08-15T15:49:39Z</time>
      </trkpt>
      <trkpt lat="45.74708" lon="6.53023">
        <ele>1726.5</ele>
        <time>2025-08-15T15:49:40Z</time>
      </trkpt>
      <trkpt lat="45.74711" lon="6.53027">
        <ele>1726.2</ele>
        <time>2025-08-15T15:49:41Z</time>
      </trkpt>
      <trkpt lat="45.74715" lon="6.53032">
        <ele>1725.8</ele>
        <time>2025-08-15T15:49:42Z</time>
      </trkpt>
      <trkpt lat="45.74717" lon="6.53035">
        <ele>1725.3</ele>
        <time>2025-08-15T15:49:43Z</time>
      </trkpt>
      <trkpt lat="45.74718" lon="6.53037">
        <ele>1725.2</ele>
        <time>2025-08-15T15:49:44Z</time>
      </trkpt>
      <trkpt lat="45.74718" lon="6.53038">
        <ele>1725.2</ele>
        <time>2025-08-15T15:49:45Z</time>
      </trkpt>
      <trkpt lat="45.74719" lon="6.53039">
        <ele>1724.8</ele>
        <time>2025-08-15T15:49:46Z</time>
      </trkpt>
      <trkpt lat="45.74719" lon="6.53039">
        <ele>1724.6</ele>
        <time>2025-08-15T15:49:47Z</time>
      </trkpt>
      <trkpt lat="45.7472" lon="6.5304">
        <ele>1724.6</ele>
        <time>2025-08-15T15:49:48Z</time>
      </trkpt>
      <trkpt lat="45.7472" lon="6.53041">
        <ele>1724.6</ele>
        <time>2025-08-15T15:49:49Z</time>
      </trkpt>
      <trkpt lat="45.74721" lon="6.53041">
        <ele>1724.6</ele>
        <time>2025-08-15T15:49:50Z</time>
      </trkpt>
      <trkpt lat="45.74721" lon="6.53042">
        <ele>1724.5</ele>
        <time>2025-08-15T15:49:51Z</time>
      </trkpt>
      <trkpt lat="45.74722" lon="6.53042">
        <ele>1724.5</ele>
        <time>2025-08-15T15:49:52Z</time>
      </trkpt>
      <trkpt lat="45.74722" lon="6.53043">
        <ele>1723.9</ele>
        <time>2025-08-15T15:49:53Z</time>
      </trkpt>
      <trkpt lat="45.74723" lon="6.53044">
        <ele>1723.9</ele>
        <time>2025-08-15T15:49:54Z</time>
      </trkpt>
      <trkpt lat="45.74723" lon="6.53044">
        <ele>1723.8</ele>
        <time>2025-08-15T15:49:55Z</time>
      </trkpt>
      <trkpt lat="45.74724" lon="6.53045">
        <ele>1723.8</ele>
        <time>2025-08-15T15:50:03Z</time>
      </trkpt>
      <trkpt lat="45.74724" lon="6.53045">
        <ele>1723.8</ele>
        <time>2025-08-15T15:50:04Z</time>
      </trkpt>
      <trkpt lat="45.74725" lon="6.53046">
        <ele>1723.8</ele>
        <time>2025-08-15T15:50:05Z</time>
      </trkpt>
      <trkpt lat="45.74729" lon="6.5305">
        <ele>1722.9</ele>
        <time>2025-08-15T15:50:06Z</time>
      </trkpt>
      <trkpt lat="45.74734" lon="6.53054">
        <ele>1722.1</ele>
        <time>2025-08-15T15:50:07Z</time>
      </trkpt>
      <trkpt lat="45.74739" lon="6.53058">
        <ele>1721.5</ele>
        <time>2025-08-15T15:50:08Z</time>
      </trkpt>
      <trkpt lat="45.74743" lon="6.53062">
        <ele>1720.8</ele>
        <time>2025-08-15T15:50:09Z</time>
      </trkpt>
      <trkpt lat="45.74748" lon="6.53067">
        <ele>1720.2</ele>
        <time>2025-08-15T15:50:10Z</time>
      </trkpt>
      <trkpt lat="45.74752" lon="6.53072">
        <ele>1719.6</ele>
        <time>2025-08-15T15:50:11Z</time>
      </trkpt>
      <trkpt lat="45.74758" lon="6.53075">
        <ele>1719</ele>
        <time>2025-08-15T15:50:12Z</time>
      </trkpt>
      <trkpt lat="45.74765" lon="6.53074">
        <ele>1718.5</ele>
        <time>2025-08-15T15:50:13Z</time>
      </trkpt>
      <trkpt lat="45.7477" lon="6.5307">
        <ele>1718</ele>
        <time>2025-08-15T15:50:14Z</time>
      </trkpt>
      <trkpt lat="45.74775" lon="6.53067">
        <ele>1717.6</ele>
        <time>2025-08-15T15:50:15Z</time>
      </trkpt>
      <trkpt lat="45.74778" lon="6.5306">
        <ele>1717.1</ele>
        <time>2025-08-15T15:50:16Z</time>
      </trkpt>
      <trkpt lat="45.7478" lon="6.53052">
        <ele>1716.6</ele>
        <time>2025-08-15T15:50:17Z</time>
      </trkpt>
      <trkpt lat="45.74784" lon="6.53046">
        <ele>1716.2</ele>
        <time>2025-08-15T15:50:18Z</time>
      </trkpt>
      <trkpt lat="45.74787" lon="6.53041">
        <ele>1716</ele>
        <time>2025-08-15T15:50:19Z</time>
      </trkpt>
      <trkpt lat="45.7479" lon="6.53032">
        <ele>1715.7</ele>
        <time>2025-08-15T15:50:20Z</time>
      </trkpt>
      <trkpt lat="45.7479" lon="6.53024">
        <ele>1715.5</ele>
        <time>2025-08-15T15:50:21Z</time>
      </trkpt>
      <trkpt lat="45.74789" lon="6.53017">
        <ele>1715.3</ele>
        <time>2025-08-15T15:50:22Z</time>
      </trkpt>
      <trkpt lat="45.74795" lon="6.53018">
        <ele>1715.1</ele>
        <time>2025-08-15T15:50:23Z</time>
      </trkpt>
      <trkpt lat="45.74801" lon="6.53026">
        <ele>1714.6</ele>
        <time>2025-08-15T15:50:24Z</time>
      </trkpt>
      <trkpt lat="45.74803" lon="6.53037">
        <ele>1713.8</ele>
        <time>2025-08-15T15:50:25Z</time>
      </trkpt>
      <trkpt lat="45.74805" lon="6.53047">
        <ele>1713.1</ele>
        <time>2025-08-15T15:50:26Z</time>
      </trkpt>
      <trkpt lat="45.74805" lon="6.53055">
        <ele>1712.5</ele>
        <time>2025-08-15T15:50:27Z</time>
      </trkpt>
      <trkpt lat="45.74802" lon="6.53064">
        <ele>1711.8</ele>
        <time>2025-08-15T15:50:28Z</time>
      </trkpt>
      <trkpt lat="45.74805" lon="6.53071">
        <ele>1711.1</ele>
        <time>2025-08-15T15:50:29Z</time>
      </trkpt>
      <trkpt lat="45.74809" lon="6.5308">
        <ele>1710.1</ele>
        <time>2025-08-15T15:50:30Z</time>
      </trkpt>
      <trkpt lat="45.74809" lon="6.53089">
        <ele>1709.2</ele>
        <time>2025-08-15T15:50:31Z</time>
      </trkpt>
      <trkpt lat="45.74809" lon="6.53098">
        <ele>1708.2</ele>
        <time>2025-08-15T15:50:32Z</time>
      </trkpt>
      <trkpt lat="45.74811" lon="6.53109">
        <ele>1707.1</ele>
        <time>2025-08-15T15:50:33Z</time>
      </trkpt>
      <trkpt lat="45.74812" lon="6.5312">
        <ele>1706</ele>
        <time>2025-08-15T15:50:34Z</time>
      </trkpt>
      <trkpt lat="45.74812" lon="6.53129">
        <ele>1705.3</ele>
        <time>2025-08-15T15:50:35Z</time>
      </trkpt>
      <trkpt lat="45.74811" lon="6.53137">
        <ele>1704.8</ele>
        <time>2025-08-15T15:50:36Z</time>
      </trkpt>
      <trkpt lat="45.74807" lon="6.53144">
        <ele>1704.5</ele>
        <time>2025-08-15T15:50:37Z</time>
      </trkpt>
      <trkpt lat="45.74802" lon="6.53149">
        <ele>1704.4</ele>
        <time>2025-08-15T15:50:38Z</time>
      </trkpt>
      <trkpt lat="45.74801" lon="6.53152">
        <ele>1704.4</ele>
        <time>2025-08-15T15:50:39Z</time>
      </trkpt>
      <trkpt lat="45.748" lon="6.53153">
        <ele>1704.4</ele>
        <time>2025-08-15T15:50:40Z</time>
      </trkpt>
      <trkpt lat="45.74796" lon="6.5316">
        <ele>1704.3</ele>
        <time>2025-08-15T15:50:41Z</time>
      </trkpt>
      <trkpt lat="45.74797" lon="6.53169">
        <ele>1704.2</ele>
        <time>2025-08-15T15:50:42Z</time>
      </trkpt>
      <trkpt lat="45.748" lon="6.53171">
        <ele>1704</ele>
        <time>2025-08-15T15:50:43Z</time>
      </trkpt>
      <trkpt lat="45.74803" lon="6.53169">
        <ele>1703.8</ele>
        <time>2025-08-15T15:50:44Z</time>
      </trkpt>
      <trkpt lat="45.74805" lon="6.53168">
        <ele>1703.6</ele>
        <time>2025-08-15T15:50:45Z</time>
      </trkpt>
      <trkpt lat="45.74811" lon="6.53166">
        <ele>1703.1</ele>
        <time>2025-08-15T15:50:46Z</time>
      </trkpt>
      <trkpt lat="45.74816" lon="6.53162">
        <ele>1702.5</ele>
        <time>2025-08-15T15:50:47Z</time>
      </trkpt>
      <trkpt lat="45.74825" lon="6.53159">
        <ele>1701.8</ele>
        <time>2025-08-15T15:50:48Z</time>
      </trkpt>
      <trkpt lat="45.7483" lon="6.53156">
        <ele>1701.6</ele>
        <time>2025-08-15T15:50:49Z</time>
      </trkpt>
      <trkpt lat="45.74835" lon="6.5315">
        <ele>1701.5</ele>
        <time>2025-08-15T15:50:50Z</time>
      </trkpt>
      <trkpt lat="45.74836" lon="6.53144">
        <ele>1701.5</ele>
        <time>2025-08-15T15:50:51Z</time>
      </trkpt>
      <trkpt lat="45.74838" lon="6.53149">
        <ele>1701.4</ele>
        <time>2025-08-15T15:50:52Z</time>
      </trkpt>
      <trkpt lat="45.74839" lon="6.53152">
        <ele>1701.3</ele>
        <time>2025-08-15T15:50:53Z</time>
      </trkpt>
      <trkpt lat="45.74838" lon="6.53155">
        <ele>1701.2</ele>
        <time>2025-08-15T15:50:54Z</time>
      </trkpt>
      <trkpt lat="45.74838" lon="6.53157">
        <ele>1701.1</ele>
        <time>2025-08-15T15:50:55Z</time>
      </trkpt>
      <trkpt lat="45.74836" lon="6.53159">
        <ele>1701</ele>
        <time>2025-08-15T15:50:56Z</time>
      </trkpt>
      <trkpt lat="45.74836" lon="6.5316">
        <ele>1700.9</ele>
        <time>2025-08-15T15:50:57Z</time>
      </trkpt>
      <trkpt lat="45.74836" lon="6.53161">
        <ele>1700.9</ele>
        <time>2025-08-15T15:50:58Z</time>
      </trkpt>
      <trkpt lat="45.74836" lon="6.53161">
        <ele>1700.8</ele>
        <time>2025-08-15T15:50:59Z</time>
      </trkpt>
      <trkpt lat="45.74836" lon="6.53162">
        <ele>1700.8</ele>
        <time>2025-08-15T15:51:00Z</time>
      </trkpt>
      <trkpt lat="45.74836" lon="6.53163">
        <ele>1700.7</ele>
        <time>2025-08-15T15:51:01Z</time>
      </trkpt>
      <trkpt lat="45.74836" lon="6.53164">
        <ele>1700.7</ele>
        <time>2025-08-15T15:51:02Z</time>
      </trkpt>
      <trkpt lat="45.74836" lon="6.53165">
        <ele>1700.6</ele>
        <time>2025-08-15T15:51:03Z</time>
      </trkpt>
      <trkpt lat="45.74836" lon="6.53166">
        <ele>1700.6</ele>
        <time>2025-08-15T15:51:04Z</time>
      </trkpt>
      <trkpt lat="45.74836" lon="6.53167">
        <ele>1700.5</ele>
        <time>2025-08-15T15:51:05Z</time>
      </trkpt>
      <trkpt lat="45.74837" lon="6.53168">
        <ele>1700.4</ele>
        <time>2025-08-15T15:51:06Z</time>
      </trkpt>
      <trkpt lat="45.74837" lon="6.53169">
        <ele>1700.4</ele>
        <time>2025-08-15T15:51:07Z</time>
      </trkpt>
      <trkpt lat="45.74837" lon="6.53169">
        <ele>1700.3</ele>
        <time>2025-08-15T15:53:46Z</time>
      </trkpt>
      <trkpt lat="45.74837" lon="6.5317">
        <ele>1700.2</ele>
        <time>2025-08-15T15:53:47Z</time>
      </trkpt>
      <trkpt lat="45.74841" lon="6.53172">
        <ele>1699.7</ele>
        <time>2025-08-15T15:53:48Z</time>
      </trkpt>
      <trkpt lat="45.74846" lon="6.53168">
        <ele>1699</ele>
        <time>2025-08-15T15:53:49Z</time>
      </trkpt>
      <trkpt lat="45.7485" lon="6.53164">
        <ele>1698.3</ele>
        <time>2025-08-15T15:53:50Z</time>
      </trkpt>
      <trkpt lat="45.74855" lon="6.53163">
        <ele>1697.7</ele>
        <time>2025-08-15T15:53:51Z</time>
      </trkpt>
      <trkpt lat="45.74858" lon="6.53171">
        <ele>1697</ele>
        <time>2025-08-15T15:53:52Z</time>
      </trkpt>
      <trkpt lat="45.74857" lon="6.5318">
        <ele>1696.3</ele>
        <time>2025-08-15T15:53:53Z</time>
      </trkpt>
      <trkpt lat="45.74853" lon="6.53183">
        <ele>1695.8</ele>
        <time>2025-08-15T15:53:54Z</time>
      </trkpt>
      <trkpt lat="45.74848" lon="6.53185">
        <ele>1695.2</ele>
        <time>2025-08-15T15:53:55Z</time>
      </trkpt>
      <trkpt lat="45.74845" lon="6.53189">
        <ele>1694.7</ele>
        <time>2025-08-15T15:53:56Z</time>
      </trkpt>
      <trkpt lat="45.74843" lon="6.53197">
        <ele>1694.2</ele>
        <time>2025-08-15T15:53:57Z</time>
      </trkpt>
      <trkpt lat="45.7484" lon="6.53205">
        <ele>1693.6</ele>
        <time>2025-08-15T15:53:58Z</time>
      </trkpt>
      <trkpt lat="45.74837" lon="6.53212">
        <ele>1693.6</ele>
        <time>2025-08-15T15:53:59Z</time>
      </trkpt>
      <trkpt lat="45.74837" lon="6.5322">
        <ele>1693.6</ele>
        <time>2025-08-15T15:54:00Z</time>
      </trkpt>
      <trkpt lat="45.7484" lon="6.53229">
        <ele>1693.4</ele>
        <time>2025-08-15T15:54:01Z</time>
      </trkpt>
      <trkpt lat="45.74845" lon="6.53239">
        <ele>1691.9</ele>
        <time>2025-08-15T15:54:02Z</time>
      </trkpt>
      <trkpt lat="45.74849" lon="6.5325">
        <ele>1690.4</ele>
        <time>2025-08-15T15:54:03Z</time>
      </trkpt>
      <trkpt lat="45.74855" lon="6.53259">
        <ele>1688.9</ele>
        <time>2025-08-15T15:54:04Z</time>
      </trkpt>
      <trkpt lat="45.74863" lon="6.53266">
        <ele>1687.6</ele>
        <time>2025-08-15T15:54:05Z</time>
      </trkpt>
      <trkpt lat="45.74871" lon="6.53273">
        <ele>1686.9</ele>
        <time>2025-08-15T15:54:06Z</time>
      </trkpt>
      <trkpt lat="45.74875" lon="6.53279">
        <ele>1686.5</ele>
        <time>2025-08-15T15:54:07Z</time>
      </trkpt>
      <trkpt lat="45.7488" lon="6.5328">
        <ele>1686.3</ele>
        <time>2025-08-15T15:54:08Z</time>
      </trkpt>
      <trkpt lat="45.74883" lon="6.53274">
        <ele>1686.2</ele>
        <time>2025-08-15T15:54:09Z</time>
      </trkpt>
      <trkpt lat="45.74883" lon="6.53267">
        <ele>1685.9</ele>
        <time>2025-08-15T15:54:10Z</time>
      </trkpt>
      <trkpt lat="45.74885" lon="6.53262">
        <ele>1685.6</ele>
        <time>2025-08-15T15:54:11Z</time>
      </trkpt>
      <trkpt lat="45.74889" lon="6.53263">
        <ele>1685.2</ele>
        <time>2025-08-15T15:54:12Z</time>
      </trkpt>
      <trkpt lat="45.74891" lon="6.53267">
        <ele>1684.9</ele>
        <time>2025-08-15T15:54:13Z</time>
      </trkpt>
      <trkpt lat="45.74893" lon="6.53275">
        <ele>1684.1</ele>
        <time>2025-08-15T15:54:14Z</time>
      </trkpt>
      <trkpt lat="45.74891" lon="6.5329">
        <ele>1682.8</ele>
        <time>2025-08-15T15:54:15Z</time>
      </trkpt>
      <trkpt lat="45.74889" lon="6.53295">
        <ele>1682.2</ele>
        <time>2025-08-15T15:54:16Z</time>
      </trkpt>
      <trkpt lat="45.74888" lon="6.53304">
        <ele>1681.5</ele>
        <time>2025-08-15T15:54:17Z</time>
      </trkpt>
      <trkpt lat="45.74886" lon="6.53311">
        <ele>1680.8</ele>
        <time>2025-08-15T15:54:18Z</time>
      </trkpt>
      <trkpt lat="45.74881" lon="6.53316">
        <ele>1680.1</ele>
        <time>2025-08-15T15:54:19Z</time>
      </trkpt>
      <trkpt lat="45.74881" lon="6.53322">
        <ele>1679.6</ele>
        <time>2025-08-15T15:54:20Z</time>
      </trkpt>
      <trkpt lat="45.74886" lon="6.53328">
        <ele>1678.6</ele>
        <time>2025-08-15T15:54:21Z</time>
      </trkpt>
      <trkpt lat="45.7489" lon="6.53333">
        <ele>1677.8</ele>
        <time>2025-08-15T15:54:22Z</time>
      </trkpt>
      <trkpt lat="45.74895" lon="6.53336">
        <ele>1677.1</ele>
        <time>2025-08-15T15:54:23Z</time>
      </trkpt>
      <trkpt lat="45.749" lon="6.53336">
        <ele>1676.5</ele>
        <time>2025-08-15T15:54:24Z</time>
      </trkpt>
      <trkpt lat="45.74905" lon="6.53335">
        <ele>1675.9</ele>
        <time>2025-08-15T15:54:25Z</time>
      </trkpt>
      <trkpt lat="45.7491" lon="6.53334">
        <ele>1675.4</ele>
        <time>2025-08-15T15:54:26Z</time>
      </trkpt>
      <trkpt lat="45.74915" lon="6.53332">
        <ele>1674.9</ele>
        <time>2025-08-15T15:54:27Z</time>
      </trkpt>
      <trkpt lat="45.74919" lon="6.53326">
        <ele>1674.4</ele>
        <time>2025-08-15T15:54:28Z</time>
      </trkpt>
      <trkpt lat="45.74923" lon="6.53323">
        <ele>1673.9</ele>
        <time>2025-08-15T15:54:29Z</time>
      </trkpt>
      <trkpt lat="45.74928" lon="6.53326">
        <ele>1673.3</ele>
        <time>2025-08-15T15:54:30Z</time>
      </trkpt>
      <trkpt lat="45.74927" lon="6.53333">
        <ele>1672.6</ele>
        <time>2025-08-15T15:54:31Z</time>
      </trkpt>
      <trkpt lat="45.74924" lon="6.5334">
        <ele>1671.8</ele>
        <time>2025-08-15T15:54:32Z</time>
      </trkpt>
      <trkpt lat="45.74921" lon="6.53347">
        <ele>1671</ele>
        <time>2025-08-15T15:54:33Z</time>
      </trkpt>
      <trkpt lat="45.74919" lon="6.53354">
        <ele>1670.3</ele>
        <time>2025-08-15T15:54:34Z</time>
      </trkpt>
      <trkpt lat="45.74916" lon="6.53362">
        <ele>1669.5</ele>
        <time>2025-08-15T15:54:35Z</time>
      </trkpt>
      <trkpt lat="45.74915" lon="6.53369">
        <ele>1668.9</ele>
        <time>2025-08-15T15:54:36Z</time>
      </trkpt>
      <trkpt lat="45.74911" lon="6.53375">
        <ele>1668.2</ele>
        <time>2025-08-15T15:54:37Z</time>
      </trkpt>
      <trkpt lat="45.74907" lon="6.53382">
        <ele>1667.6</ele>
        <time>2025-08-15T15:54:38Z</time>
      </trkpt>
      <trkpt lat="45.74903" lon="6.53389">
        <ele>1666.9</ele>
        <time>2025-08-15T15:54:39Z</time>
      </trkpt>
      <trkpt lat="45.74898" lon="6.53397">
        <ele>1666.2</ele>
        <time>2025-08-15T15:54:40Z</time>
      </trkpt>
      <trkpt lat="45.74893" lon="6.53404">
        <ele>1666.1</ele>
        <time>2025-08-15T15:54:41Z</time>
      </trkpt>
      <trkpt lat="45.74891" lon="6.53411">
        <ele>1665.9</ele>
        <time>2025-08-15T15:54:42Z</time>
      </trkpt>
      <trkpt lat="45.74888" lon="6.53418">
        <ele>1665.7</ele>
        <time>2025-08-15T15:54:43Z</time>
      </trkpt>
      <trkpt lat="45.74885" lon="6.53423">
        <ele>1665.5</ele>
        <time>2025-08-15T15:54:44Z</time>
      </trkpt>
      <trkpt lat="45.74884" lon="6.53423">
        <ele>1665.4</ele>
        <time>2025-08-15T15:54:45Z</time>
      </trkpt>
      <trkpt lat="45.74883" lon="6.53424">
        <ele>1665.3</ele>
        <time>2025-08-15T15:54:46Z</time>
      </trkpt>
      <trkpt lat="45.74883" lon="6.53427">
        <ele>1665.2</ele>
        <time>2025-08-15T15:54:47Z</time>
      </trkpt>
      <trkpt lat="45.74881" lon="6.53431">
        <ele>1664.9</ele>
        <time>2025-08-15T15:54:48Z</time>
      </trkpt>
      <trkpt lat="45.74881" lon="6.53433">
        <ele>1664.7</ele>
        <time>2025-08-15T15:54:49Z</time>
      </trkpt>
      <trkpt lat="45.74882" lon="6.53438">
        <ele>1664.4</ele>
        <time>2025-08-15T15:54:50Z</time>
      </trkpt>
      <trkpt lat="45.74884" lon="6.53441">
        <ele>1664.1</ele>
        <time>2025-08-15T15:54:51Z</time>
      </trkpt>
      <trkpt lat="45.74884" lon="6.53442">
        <ele>1664</ele>
        <time>2025-08-15T15:54:52Z</time>
      </trkpt>
      <trkpt lat="45.74883" lon="6.53443">
        <ele>1663.9</ele>
        <time>2025-08-15T15:54:53Z</time>
      </trkpt>
      <trkpt lat="45.74883" lon="6.53443">
        <ele>1663.9</ele>
        <time>2025-08-15T15:54:54Z</time>
      </trkpt>
      <trkpt lat="45.74883" lon="6.53444">
        <ele>1663.8</ele>
        <time>2025-08-15T15:54:55Z</time>
      </trkpt>
      <trkpt lat="45.74883" lon="6.53444">
        <ele>1663.8</ele>
        <time>2025-08-15T15:54:56Z</time>
      </trkpt>
      <trkpt lat="45.74882" lon="6.53445">
        <ele>1663.8</ele>
        <time>2025-08-15T15:54:57Z</time>
      </trkpt>
      <trkpt lat="45.74882" lon="6.53446">
        <ele>1663.7</ele>
        <time>2025-08-15T15:54:58Z</time>
      </trkpt>
      <trkpt lat="45.74882" lon="6.53446">
        <ele>1663.7</ele>
        <time>2025-08-15T15:54:59Z</time>
      </trkpt>
      <trkpt lat="45.74882" lon="6.53447">
        <ele>1663.6</ele>
        <time>2025-08-15T15:55:00Z</time>
      </trkpt>
      <trkpt lat="45.74881" lon="6.53447">
        <ele>1663.6</ele>
        <time>2025-08-15T15:55:01Z</time>
      </trkpt>
      <trkpt lat="45.74881" lon="6.53448">
        <ele>1663.6</ele>
        <time>2025-08-15T15:55:02Z</time>
      </trkpt>
      <trkpt lat="45.74881" lon="6.53448">
        <ele>1663.5</ele>
        <time>2025-08-15T15:56:59Z</time>
      </trkpt>
      <trkpt lat="45.74881" lon="6.53449">
        <ele>1663.5</ele>
        <time>2025-08-15T15:57:00Z</time>
      </trkpt>
      <trkpt lat="45.74879" lon="6.53452">
        <ele>1663.2</ele>
        <time>2025-08-15T15:57:01Z</time>
      </trkpt>
      <trkpt lat="45.74876" lon="6.53455">
        <ele>1663</ele>
        <time>2025-08-15T15:57:02Z</time>
      </trkpt>
      <trkpt lat="45.74874" lon="6.53459">
        <ele>1662.8</ele>
        <time>2025-08-15T15:57:03Z</time>
      </trkpt>
      <trkpt lat="45.74872" lon="6.53464">
        <ele>1662.5</ele>
        <time>2025-08-15T15:57:04Z</time>
      </trkpt>
      <trkpt lat="45.7487" lon="6.53467">
        <ele>1662.4</ele>
        <time>2025-08-15T15:57:05Z</time>
      </trkpt>
      <trkpt lat="45.74867" lon="6.53471">
        <ele>1662.3</ele>
        <time>2025-08-15T15:57:06Z</time>
      </trkpt>
      <trkpt lat="45.74865" lon="6.53476">
        <ele>1662.1</ele>
        <time>2025-08-15T15:57:07Z</time>
      </trkpt>
      <trkpt lat="45.74862" lon="6.5348">
        <ele>1662.1</ele>
        <time>2025-08-15T15:57:08Z</time>
      </trkpt>
      <trkpt lat="45.74859" lon="6.53485">
        <ele>1662.1</ele>
        <time>2025-08-15T15:57:09Z</time>
      </trkpt>
      <trkpt lat="45.74856" lon="6.5349">
        <ele>1662.1</ele>
        <time>2025-08-15T15:57:10Z</time>
      </trkpt>
      <trkpt lat="45.74854" lon="6.53494">
        <ele>1662.1</ele>
        <time>2025-08-15T15:57:11Z</time>
      </trkpt>
      <trkpt lat="45.74851" lon="6.53499">
        <ele>1662</ele>
        <time>2025-08-15T15:57:12Z</time>
      </trkpt>
      <trkpt lat="45.74848" lon="6.53503">
        <ele>1662</ele>
        <time>2025-08-15T15:57:13Z</time>
      </trkpt>
      <trkpt lat="45.74845" lon="6.53507">
        <ele>1661.9</ele>
        <time>2025-08-15T15:57:14Z</time>
      </trkpt>
      <trkpt lat="45.74841" lon="6.53512">
        <ele>1661.7</ele>
        <time>2025-08-15T15:57:15Z</time>
      </trkpt>
      <trkpt lat="45.74837" lon="6.53517">
        <ele>1661.4</ele>
        <time>2025-08-15T15:57:16Z</time>
      </trkpt>
      <trkpt lat="45.74834" lon="6.53522">
        <ele>1661.2</ele>
        <time>2025-08-15T15:57:17Z</time>
      </trkpt>
      <trkpt lat="45.7483" lon="6.53525">
        <ele>1660.9</ele>
        <time>2025-08-15T15:57:18Z</time>
      </trkpt>
      <trkpt lat="45.74828" lon="6.53528">
        <ele>1660.6</ele>
        <time>2025-08-15T15:57:19Z</time>
      </trkpt>
      <trkpt lat="45.74827" lon="6.53528">
        <ele>1660.5</ele>
        <time>2025-08-15T15:57:20Z</time>
      </trkpt>
      <trkpt lat="45.74827" lon="6.53529">
        <ele>1660.4</ele>
        <time>2025-08-15T15:57:21Z</time>
      </trkpt>
      <trkpt lat="45.74827" lon="6.5353">
        <ele>1660.4</ele>
        <time>2025-08-15T15:57:22Z</time>
      </trkpt>
      <trkpt lat="45.74827" lon="6.53531">
        <ele>1660.3</ele>
        <time>2025-08-15T15:57:23Z</time>
      </trkpt>
      <trkpt lat="45.74827" lon="6.53531">
        <ele>1660.2</ele>
        <time>2025-08-15T15:57:24Z</time>
      </trkpt>
      <trkpt lat="45.74827" lon="6.53532">
        <ele>1660.2</ele>
        <time>2025-08-15T15:57:25Z</time>
      </trkpt>
      <trkpt lat="45.74826" lon="6.53532">
        <ele>1660.1</ele>
        <time>2025-08-15T15:57:26Z</time>
      </trkpt>
      <trkpt lat="45.74826" lon="6.53533">
        <ele>1660</ele>
        <time>2025-08-15T15:57:27Z</time>
      </trkpt>
      <trkpt lat="45.74826" lon="6.53534">
        <ele>1660</ele>
        <time>2025-08-15T15:57:28Z</time>
      </trkpt>
      <trkpt lat="45.74826" lon="6.53536">
        <ele>1659.8</ele>
        <time>2025-08-15T15:57:29Z</time>
      </trkpt>
      <trkpt lat="45.74828" lon="6.53541">
        <ele>1659.3</ele>
        <time>2025-08-15T15:57:30Z</time>
      </trkpt>
      <trkpt lat="45.7483" lon="6.53549">
        <ele>1657.3</ele>
        <time>2025-08-15T15:57:31Z</time>
      </trkpt>
      <trkpt lat="45.74833" lon="6.53555">
        <ele>1656.4</ele>
        <time>2025-08-15T15:57:32Z</time>
      </trkpt>
      <trkpt lat="45.74837" lon="6.53561">
        <ele>1655.5</ele>
        <time>2025-08-15T15:57:33Z</time>
      </trkpt>
      <trkpt lat="45.74843" lon="6.53564">
        <ele>1654.5</ele>
        <time>2025-08-15T15:57:35Z</time>
      </trkpt>
      <trkpt lat="45.74849" lon="6.53565">
        <ele>1653.7</ele>
        <time>2025-08-15T15:57:36Z</time>
      </trkpt>
      <trkpt lat="45.74854" lon="6.53565">
        <ele>1653</ele>
        <time>2025-08-15T15:57:37Z</time>
      </trkpt>
      <trkpt lat="45.74857" lon="6.53565">
        <ele>1652.5</ele>
        <time>2025-08-15T15:57:38Z</time>
      </trkpt>
      <trkpt lat="45.7486" lon="6.53565">
        <ele>1652.2</ele>
        <time>2025-08-15T15:57:39Z</time>
      </trkpt>
      <trkpt lat="45.74861" lon="6.53565">
        <ele>1652.1</ele>
        <time>2025-08-15T15:57:40Z</time>
      </trkpt>
      <trkpt lat="45.74863" lon="6.53566">
        <ele>1651.8</ele>
        <time>2025-08-15T15:57:41Z</time>
      </trkpt>
      <trkpt lat="45.74864" lon="6.53567">
        <ele>1651.7</ele>
        <time>2025-08-15T15:57:42Z</time>
      </trkpt>
      <trkpt lat="45.74865" lon="6.53567">
        <ele>1651.6</ele>
        <time>2025-08-15T15:57:43Z</time>
      </trkpt>
      <trkpt lat="45.74868" lon="6.53569">
        <ele>1651.2</ele>
        <time>2025-08-15T15:57:44Z</time>
      </trkpt>
      <trkpt lat="45.74873" lon="6.53567">
        <ele>1650.6</ele>
        <time>2025-08-15T15:57:45Z</time>
      </trkpt>
      <trkpt lat="45.74877" lon="6.53566">
        <ele>1650.1</ele>
        <time>2025-08-15T15:57:46Z</time>
      </trkpt>
      <trkpt lat="45.74883" lon="6.53565">
        <ele>1649.5</ele>
        <time>2025-08-15T15:57:47Z</time>
      </trkpt>
      <trkpt lat="45.74888" lon="6.53563">
        <ele>1649.1</ele>
        <time>2025-08-15T15:57:48Z</time>
      </trkpt>
      <trkpt lat="45.74894" lon="6.53562">
        <ele>1648.6</ele>
        <time>2025-08-15T15:57:49Z</time>
      </trkpt>
      <trkpt lat="45.74899" lon="6.53562">
        <ele>1648.3</ele>
        <time>2025-08-15T15:57:50Z</time>
      </trkpt>
      <trkpt lat="45.74905" lon="6.5356">
        <ele>1648</ele>
        <time>2025-08-15T15:57:51Z</time>
      </trkpt>
      <trkpt lat="45.7491" lon="6.53558">
        <ele>1647.7</ele>
        <time>2025-08-15T15:57:52Z</time>
      </trkpt>
      <trkpt lat="45.7492" lon="6.53554">
        <ele>1647.2</ele>
        <time>2025-08-15T15:57:53Z</time>
      </trkpt>
      <trkpt lat="45.74924" lon="6.5355">
        <ele>1646.9</ele>
        <time>2025-08-15T15:57:54Z</time>
      </trkpt>
      <trkpt lat="45.74929" lon="6.53547">
        <ele>1646.6</ele>
        <time>2025-08-15T15:57:55Z</time>
      </trkpt>
      <trkpt lat="45.74934" lon="6.53544">
        <ele>1646.3</ele>
        <time>2025-08-15T15:57:56Z</time>
      </trkpt>
      <trkpt lat="45.74939" lon="6.53542">
        <ele>1645.9</ele>
        <time>2025-08-15T15:57:57Z</time>
      </trkpt>
      <trkpt lat="45.74945" lon="6.5354">
        <ele>1645.5</ele>
        <time>2025-08-15T15:57:58Z</time>
      </trkpt>
      <trkpt lat="45.7495" lon="6.53537">
        <ele>1645</ele>
        <time>2025-08-15T15:57:59Z</time>
      </trkpt>
      <trkpt lat="45.74955" lon="6.53534">
        <ele>1644.5</ele>
        <time>2025-08-15T15:58:00Z</time>
      </trkpt>
      <trkpt lat="45.74961" lon="6.53532">
        <ele>1643.8</ele>
        <time>2025-08-15T15:58:01Z</time>
      </trkpt>
      <trkpt lat="45.74968" lon="6.53531">
        <ele>1642.9</ele>
        <time>2025-08-15T15:58:02Z</time>
      </trkpt>
      <trkpt lat="45.74975" lon="6.53534">
        <ele>1641.8</ele>
        <time>2025-08-15T15:58:03Z</time>
      </trkpt>
      <trkpt lat="45.74984" lon="6.53537">
        <ele>1640.5</ele>
        <time>2025-08-15T15:58:04Z</time>
      </trkpt>
      <trkpt lat="45.74991" lon="6.53542">
        <ele>1639.4</ele>
        <time>2025-08-15T15:58:05Z</time>
      </trkpt>
      <trkpt lat="45.74995" lon="6.53552">
        <ele>1638.4</ele>
        <time>2025-08-15T15:58:06Z</time>
      </trkpt>
      <trkpt lat="45.74998" lon="6.53562">
        <ele>1637.6</ele>
        <time>2025-08-15T15:58:07Z</time>
      </trkpt>
      <trkpt lat="45.75" lon="6.53569">
        <ele>1637.1</ele>
        <time>2025-08-15T15:58:08Z</time>
      </trkpt>
      <trkpt lat="45.75004" lon="6.53572">
        <ele>1636.8</ele>
        <time>2025-08-15T15:58:09Z</time>
      </trkpt>
      <trkpt lat="45.75007" lon="6.53572">
        <ele>1636.5</ele>
        <time>2025-08-15T15:58:10Z</time>
      </trkpt>
      <trkpt lat="45.7501" lon="6.53571">
        <ele>1636.3</ele>
        <time>2025-08-15T15:58:11Z</time>
      </trkpt>
      <trkpt lat="45.75013" lon="6.53571">
        <ele>1636</ele>
        <time>2025-08-15T15:58:12Z</time>
      </trkpt>
      <trkpt lat="45.75014" lon="6.53571">
        <ele>1636</ele>
        <time>2025-08-15T15:58:13Z</time>
      </trkpt>
      <trkpt lat="45.75015" lon="6.53571">
        <ele>1635.9</ele>
        <time>2025-08-15T15:58:14Z</time>
      </trkpt>
      <trkpt lat="45.75015" lon="6.53571">
        <ele>1635.9</ele>
        <time>2025-08-15T15:58:15Z</time>
      </trkpt>
      <trkpt lat="45.75015" lon="6.53571">
        <ele>1635.8</ele>
        <time>2025-08-15T15:58:16Z</time>
      </trkpt>
      <trkpt lat="45.75015" lon="6.53571">
        <ele>1635.8</ele>
        <time>2025-08-15T15:58:17Z</time>
      </trkpt>
      <trkpt lat="45.75014" lon="6.53571">
        <ele>1635.8</ele>
        <time>2025-08-15T15:58:18Z</time>
      </trkpt>
      <trkpt lat="45.75014" lon="6.53571">
        <ele>1635.8</ele>
        <time>2025-08-15T15:58:19Z</time>
      </trkpt>
      <trkpt lat="45.75014" lon="6.53571">
        <ele>1635.8</ele>
        <time>2025-08-15T15:58:20Z</time>
      </trkpt>
      <trkpt lat="45.75014" lon="6.53571">
        <ele>1635.7</ele>
        <time>2025-08-15T15:58:21Z</time>
      </trkpt>
      <trkpt lat="45.75014" lon="6.53571">
        <ele>1635.7</ele>
        <time>2025-08-15T15:58:22Z</time>
      </trkpt>
      <trkpt lat="45.75014" lon="6.53571">
        <ele>1635.7</ele>
        <time>2025-08-15T15:58:23Z</time>
      </trkpt>
      <trkpt lat="45.75014" lon="6.5357">
        <ele>1635.7</ele>
        <time>2025-08-15T15:58:24Z</time>
      </trkpt>
      <trkpt lat="45.75015" lon="6.5357">
        <ele>1635.6</ele>
        <time>2025-08-15T15:58:25Z</time>
      </trkpt>
      <trkpt lat="45.75018" lon="6.53568">
        <ele>1635.4</ele>
        <time>2025-08-15T15:59:49Z</time>
      </trkpt>
      <trkpt lat="45.75018" lon="6.5357">
        <ele>1635.3</ele>
        <time>2025-08-15T15:59:50Z</time>
      </trkpt>
      <trkpt lat="45.75018" lon="6.53572">
        <ele>1635.1</ele>
        <time>2025-08-15T15:59:51Z</time>
      </trkpt>
      <trkpt lat="45.75021" lon="6.53575">
        <ele>1634.8</ele>
        <time>2025-08-15T15:59:52Z</time>
      </trkpt>
      <trkpt lat="45.75025" lon="6.53577">
        <ele>1634.5</ele>
        <time>2025-08-15T15:59:53Z</time>
      </trkpt>
      <trkpt lat="45.75026" lon="6.53577">
        <ele>1634.3</ele>
        <time>2025-08-15T15:59:54Z</time>
      </trkpt>
      <trkpt lat="45.75028" lon="6.53574">
        <ele>1634.1</ele>
        <time>2025-08-15T15:59:55Z</time>
      </trkpt>
      <trkpt lat="45.75031" lon="6.53575">
        <ele>1633.8</ele>
        <time>2025-08-15T15:59:56Z</time>
      </trkpt>
      <trkpt lat="45.75039" lon="6.53577">
        <ele>1633.1</ele>
        <time>2025-08-15T15:59:57Z</time>
      </trkpt>
      <trkpt lat="45.75043" lon="6.53579">
        <ele>1632.9</ele>
        <time>2025-08-15T15:59:58Z</time>
      </trkpt>
      <trkpt lat="45.75047" lon="6.5358">
        <ele>1632.7</ele>
        <time>2025-08-15T15:59:59Z</time>
      </trkpt>
      <trkpt lat="45.75051" lon="6.53581">
        <ele>1632.6</ele>
        <time>2025-08-15T16:00:00Z</time>
      </trkpt>
      <trkpt lat="45.75053" lon="6.53582">
        <ele>1632.5</ele>
        <time>2025-08-15T16:00:01Z</time>
      </trkpt>
      <trkpt lat="45.75056" lon="6.53581">
        <ele>1632.5</ele>
        <time>2025-08-15T16:00:02Z</time>
      </trkpt>
      <trkpt lat="45.75057" lon="6.53581">
        <ele>1632.4</ele>
        <time>2025-08-15T16:00:03Z</time>
      </trkpt>
      <trkpt lat="45.75062" lon="6.53581">
        <ele>1632.4</ele>
        <time>2025-08-15T16:00:04Z</time>
      </trkpt>
      <trkpt lat="45.75068" lon="6.53581">
        <ele>1632.2</ele>
        <time>2025-08-15T16:00:05Z</time>
      </trkpt>
      <trkpt lat="45.75074" lon="6.53584">
        <ele>1632.1</ele>
        <time>2025-08-15T16:00:06Z</time>
      </trkpt>
      <trkpt lat="45.75081" lon="6.53584">
        <ele>1631.9</ele>
        <time>2025-08-15T16:00:07Z</time>
      </trkpt>
      <trkpt lat="45.75088" lon="6.5358">
        <ele>1631.6</ele>
        <time>2025-08-15T16:00:08Z</time>
      </trkpt>
      <trkpt lat="45.75094" lon="6.53579">
        <ele>1631.4</ele>
        <time>2025-08-15T16:00:09Z</time>
      </trkpt>
      <trkpt lat="45.75102" lon="6.5358">
        <ele>1631</ele>
        <time>2025-08-15T16:00:10Z</time>
      </trkpt>
      <trkpt lat="45.75108" lon="6.53583">
        <ele>1630.7</ele>
        <time>2025-08-15T16:00:11Z</time>
      </trkpt>
      <trkpt lat="45.75114" lon="6.53585">
        <ele>1630.4</ele>
        <time>2025-08-15T16:00:12Z</time>
      </trkpt>
      <trkpt lat="45.75119" lon="6.53584">
        <ele>1630.2</ele>
        <time>2025-08-15T16:00:13Z</time>
      </trkpt>
      <trkpt lat="45.75123" lon="6.53582">
        <ele>1630</ele>
        <time>2025-08-15T16:00:14Z</time>
      </trkpt>
      <trkpt lat="45.75129" lon="6.53575">
        <ele>1629.6</ele>
        <time>2025-08-15T16:00:15Z</time>
      </trkpt>
      <trkpt lat="45.75136" lon="6.53571">
        <ele>1629.4</ele>
        <time>2025-08-15T16:00:16Z</time>
      </trkpt>
      <trkpt lat="45.75141" lon="6.53568">
        <ele>1629.2</ele>
        <time>2025-08-15T16:00:17Z</time>
      </trkpt>
      <trkpt lat="45.75146" lon="6.53564">
        <ele>1629</ele>
        <time>2025-08-15T16:00:18Z</time>
      </trkpt>
      <trkpt lat="45.75152" lon="6.53557">
        <ele>1628.8</ele>
        <time>2025-08-15T16:00:19Z</time>
      </trkpt>
      <trkpt lat="45.75156" lon="6.53549">
        <ele>1628.7</ele>
        <time>2025-08-15T16:00:20Z</time>
      </trkpt>
      <trkpt lat="45.75159" lon="6.53542">
        <ele>1628.6</ele>
        <time>2025-08-15T16:00:21Z</time>
      </trkpt>
      <trkpt lat="45.75162" lon="6.53537">
        <ele>1628.6</ele>
        <time>2025-08-15T16:00:22Z</time>
      </trkpt>
      <trkpt lat="45.75166" lon="6.53533">
        <ele>1628.6</ele>
        <time>2025-08-15T16:00:23Z</time>
      </trkpt>
      <trkpt lat="45.75169" lon="6.53529">
        <ele>1628.5</ele>
        <time>2025-08-15T16:00:24Z</time>
      </trkpt>
      <trkpt lat="45.75174" lon="6.53526">
        <ele>1628.4</ele>
        <time>2025-08-15T16:00:25Z</time>
      </trkpt>
      <trkpt lat="45.75179" lon="6.53525">
        <ele>1628.3</ele>
        <time>2025-08-15T16:00:26Z</time>
      </trkpt>
      <trkpt lat="45.75183" lon="6.53523">
        <ele>1628.2</ele>
        <time>2025-08-15T16:00:27Z</time>
      </trkpt>
      <trkpt lat="45.75188" lon="6.53521">
        <ele>1628.1</ele>
        <time>2025-08-15T16:00:28Z</time>
      </trkpt>
      <trkpt lat="45.75192" lon="6.53518">
        <ele>1627.9</ele>
        <time>2025-08-15T16:00:29Z</time>
      </trkpt>
      <trkpt lat="45.75196" lon="6.53515">
        <ele>1627.8</ele>
        <time>2025-08-15T16:00:30Z</time>
      </trkpt>
      <trkpt lat="45.752" lon="6.53513">
        <ele>1627.6</ele>
        <time>2025-08-15T16:00:31Z</time>
      </trkpt>
      <trkpt lat="45.75204" lon="6.5351">
        <ele>1627.4</ele>
        <time>2025-08-15T16:00:32Z</time>
      </trkpt>
      <trkpt lat="45.75208" lon="6.53508">
        <ele>1627.2</ele>
        <time>2025-08-15T16:00:33Z</time>
      </trkpt>
      <trkpt lat="45.75212" lon="6.53506">
        <ele>1627</ele>
        <time>2025-08-15T16:00:34Z</time>
      </trkpt>
      <trkpt lat="45.75216" lon="6.53503">
        <ele>1626.7</ele>
        <time>2025-08-15T16:00:35Z</time>
      </trkpt>
      <trkpt lat="45.75221" lon="6.53501">
        <ele>1626.5</ele>
        <time>2025-08-15T16:00:36Z</time>
      </trkpt>
      <trkpt lat="45.75224" lon="6.53498">
        <ele>1626.2</ele>
        <time>2025-08-15T16:00:37Z</time>
      </trkpt>
      <trkpt lat="45.75228" lon="6.53496">
        <ele>1626</ele>
        <time>2025-08-15T16:00:38Z</time>
      </trkpt>
      <trkpt lat="45.75232" lon="6.53493">
        <ele>1625.7</ele>
        <time>2025-08-15T16:00:39Z</time>
      </trkpt>
      <trkpt lat="45.75236" lon="6.5349">
        <ele>1625.4</ele>
        <time>2025-08-15T16:00:40Z</time>
      </trkpt>
      <trkpt lat="45.75239" lon="6.53487">
        <ele>1625.2</ele>
        <time>2025-08-15T16:00:41Z</time>
      </trkpt>
      <trkpt lat="45.75242" lon="6.53484">
        <ele>1624.9</ele>
        <time>2025-08-15T16:00:42Z</time>
      </trkpt>
      <trkpt lat="45.75246" lon="6.53481">
        <ele>1624.5</ele>
        <time>2025-08-15T16:00:43Z</time>
      </trkpt>
      <trkpt lat="45.7525" lon="6.53478">
        <ele>1624.1</ele>
        <time>2025-08-15T16:00:44Z</time>
      </trkpt>
      <trkpt lat="45.75255" lon="6.53474">
        <ele>1623.7</ele>
        <time>2025-08-15T16:00:45Z</time>
      </trkpt>
      <trkpt lat="45.7526" lon="6.53471">
        <ele>1623.3</ele>
        <time>2025-08-15T16:00:46Z</time>
      </trkpt>
      <trkpt lat="45.75265" lon="6.53467">
        <ele>1622.8</ele>
        <time>2025-08-15T16:00:47Z</time>
      </trkpt>
      <trkpt lat="45.75271" lon="6.53463">
        <ele>1622.4</ele>
        <time>2025-08-15T16:00:48Z</time>
      </trkpt>
      <trkpt lat="45.75277" lon="6.5346">
        <ele>1622</ele>
        <time>2025-08-15T16:00:49Z</time>
      </trkpt>
      <trkpt lat="45.75282" lon="6.53458">
        <ele>1621.6</ele>
        <time>2025-08-15T16:00:50Z</time>
      </trkpt>
      <trkpt lat="45.75288" lon="6.53456">
        <ele>1621.3</ele>
        <time>2025-08-15T16:00:51Z</time>
      </trkpt>
      <trkpt lat="45.75293" lon="6.53454">
        <ele>1621</ele>
        <time>2025-08-15T16:00:52Z</time>
      </trkpt>
      <trkpt lat="45.75297" lon="6.53451">
        <ele>1620.7</ele>
        <time>2025-08-15T16:00:53Z</time>
      </trkpt>
      <trkpt lat="45.75302" lon="6.53449">
        <ele>1620.3</ele>
        <time>2025-08-15T16:00:54Z</time>
      </trkpt>
      <trkpt lat="45.75307" lon="6.53446">
        <ele>1619.9</ele>
        <time>2025-08-15T16:00:55Z</time>
      </trkpt>
      <trkpt lat="45.75312" lon="6.53442">
        <ele>1619.5</ele>
        <time>2025-08-15T16:00:56Z</time>
      </trkpt>
      <trkpt lat="45.75318" lon="6.53438">
        <ele>1619.1</ele>
        <time>2025-08-15T16:00:57Z</time>
      </trkpt>
      <trkpt lat="45.75323" lon="6.53433">
        <ele>1618.7</ele>
        <time>2025-08-15T16:00:58Z</time>
      </trkpt>
      <trkpt lat="45.75329" lon="6.53428">
        <ele>1618.5</ele>
        <time>2025-08-15T16:00:59Z</time>
      </trkpt>
      <trkpt lat="45.75334" lon="6.53423">
        <ele>1618.5</ele>
        <time>2025-08-15T16:01:00Z</time>
      </trkpt>
      <trkpt lat="45.7534" lon="6.53417">
        <ele>1618.7</ele>
        <time>2025-08-15T16:01:01Z</time>
      </trkpt>
      <trkpt lat="45.75345" lon="6.53411">
        <ele>1619</ele>
        <time>2025-08-15T16:01:02Z</time>
      </trkpt>
      <trkpt lat="45.7535" lon="6.53407">
        <ele>1619.3</ele>
        <time>2025-08-15T16:01:03Z</time>
      </trkpt>
      <trkpt lat="45.75356" lon="6.53403">
        <ele>1619.6</ele>
        <time>2025-08-15T16:01:04Z</time>
      </trkpt>
      <trkpt lat="45.75362" lon="6.534">
        <ele>1619.7</ele>
        <time>2025-08-15T16:01:05Z</time>
      </trkpt>
      <trkpt lat="45.75367" lon="6.53398">
        <ele>1619.5</ele>
        <time>2025-08-15T16:01:06Z</time>
      </trkpt>
      <trkpt lat="45.75371" lon="6.53398">
        <ele>1619.1</ele>
        <time>2025-08-15T16:01:07Z</time>
      </trkpt>
      <trkpt lat="45.75376" lon="6.53399">
        <ele>1618.6</ele>
        <time>2025-08-15T16:01:08Z</time>
      </trkpt>
      <trkpt lat="45.75382" lon="6.53402">
        <ele>1617.7</ele>
        <time>2025-08-15T16:01:09Z</time>
      </trkpt>
      <trkpt lat="45.75388" lon="6.53407">
        <ele>1616.6</ele>
        <time>2025-08-15T16:01:10Z</time>
      </trkpt>
      <trkpt lat="45.75394" lon="6.53413">
        <ele>1615.4</ele>
        <time>2025-08-15T16:01:11Z</time>
      </trkpt>
      <trkpt lat="45.75401" lon="6.53419">
        <ele>1614.4</ele>
        <time>2025-08-15T16:01:12Z</time>
      </trkpt>
      <trkpt lat="45.75407" lon="6.53424">
        <ele>1613.6</ele>
        <time>2025-08-15T16:01:13Z</time>
      </trkpt>
      <trkpt lat="45.75415" lon="6.5343">
        <ele>1612.9</ele>
        <time>2025-08-15T16:01:14Z</time>
      </trkpt>
      <trkpt lat="45.75422" lon="6.53435">
        <ele>1612.4</ele>
        <time>2025-08-15T16:01:15Z</time>
      </trkpt>
      <trkpt lat="45.75428" lon="6.53439">
        <ele>1612</ele>
        <time>2025-08-15T16:01:16Z</time>
      </trkpt>
      <trkpt lat="45.75433" lon="6.53441">
        <ele>1611.7</ele>
        <time>2025-08-15T16:01:17Z</time>
      </trkpt>
      <trkpt lat="45.75437" lon="6.53444">
        <ele>1611.4</ele>
        <time>2025-08-15T16:01:18Z</time>
      </trkpt>
      <trkpt lat="45.75441" lon="6.53447">
        <ele>1611</ele>
        <time>2025-08-15T16:01:19Z</time>
      </trkpt>
      <trkpt lat="45.75446" lon="6.53451">
        <ele>1610.9</ele>
        <time>2025-08-15T16:01:20Z</time>
      </trkpt>
      <trkpt lat="45.7545" lon="6.53454">
        <ele>1610.9</ele>
        <time>2025-08-15T16:01:21Z</time>
      </trkpt>
      <trkpt lat="45.75453" lon="6.53458">
        <ele>1610.9</ele>
        <time>2025-08-15T16:01:22Z</time>
      </trkpt>
      <trkpt lat="45.75456" lon="6.53462">
        <ele>1610.9</ele>
        <time>2025-08-15T16:01:23Z</time>
      </trkpt>
      <trkpt lat="45.75459" lon="6.53466">
        <ele>1610.9</ele>
        <time>2025-08-15T16:01:24Z</time>
      </trkpt>
      <trkpt lat="45.75461" lon="6.53469">
        <ele>1610.9</ele>
        <time>2025-08-15T16:01:25Z</time>
      </trkpt>
      <trkpt lat="45.75463" lon="6.53472">
        <ele>1610.9</ele>
        <time>2025-08-15T16:01:26Z</time>
      </trkpt>
      <trkpt lat="45.75464" lon="6.53476">
        <ele>1610.9</ele>
        <time>2025-08-15T16:01:27Z</time>
      </trkpt>
      <trkpt lat="45.75467" lon="6.53477">
        <ele>1610.9</ele>
        <time>2025-08-15T16:01:28Z</time>
      </trkpt>
      <trkpt lat="45.75469" lon="6.53473">
        <ele>1610.9</ele>
        <time>2025-08-15T16:01:29Z</time>
      </trkpt>
      <trkpt lat="45.75469" lon="6.53471">
        <ele>1610.9</ele>
        <time>2025-08-15T16:01:30Z</time>
      </trkpt>
      <trkpt lat="45.75467" lon="6.53466">
        <ele>1610.9</ele>
        <time>2025-08-15T16:01:31Z</time>
      </trkpt>
      <trkpt lat="45.75465" lon="6.53463">
        <ele>1610.9</ele>
        <time>2025-08-15T16:01:32Z</time>
      </trkpt>
      <trkpt lat="45.75462" lon="6.53461">
        <ele>1610.9</ele>
        <time>2025-08-15T16:01:33Z</time>
      </trkpt>
      <trkpt lat="45.75459" lon="6.53459">
        <ele>1610.9</ele>
        <time>2025-08-15T16:01:34Z</time>
      </trkpt>
      <trkpt lat="45.75456" lon="6.53458">
        <ele>1610.9</ele>
        <time>2025-08-15T16:01:35Z</time>
      </trkpt>
      <trkpt lat="45.75456" lon="6.53457">
        <ele>1610.9</ele>
        <time>2025-08-15T16:01:36Z</time>
      </trkpt>
      <trkpt lat="45.75456" lon="6.53456">
        <ele>1610.9</ele>
        <time>2025-08-15T16:01:37Z</time>
      </trkpt>
      <trkpt lat="45.75455" lon="6.53456">
        <ele>1610.9</ele>
        <time>2025-08-15T16:01:38Z</time>
      </trkpt>
      <trkpt lat="45.75455" lon="6.53456">
        <ele>1610.9</ele>
        <time>2025-08-15T16:01:39Z</time>
      </trkpt>
      <trkpt lat="45.75454" lon="6.53456">
        <ele>1610.9</ele>
        <time>2025-08-15T16:01:40Z</time>
      </trkpt>
      <trkpt lat="45.75453" lon="6.53455">
        <ele>1610.9</ele>
        <time>2025-08-15T16:01:41Z</time>
      </trkpt>
      <trkpt lat="45.75453" lon="6.53455">
        <ele>1610.9</ele>
        <time>2025-08-15T16:01:42Z</time>
      </trkpt>
      <trkpt lat="45.75452" lon="6.53455">
        <ele>1610.9</ele>
        <time>2025-08-15T16:01:43Z</time>
      </trkpt>
      <trkpt lat="45.75451" lon="6.53455">
        <ele>1610.9</ele>
        <time>2025-08-15T16:01:44Z</time>
      </trkpt>
      <trkpt lat="45.75451" lon="6.53454">
        <ele>1610.9</ele>
        <time>2025-08-15T16:01:45Z</time>
      </trkpt>
      <trkpt lat="45.7545" lon="6.53454">
        <ele>1610.9</ele>
        <time>2025-08-15T16:01:47Z</time>
      </trkpt>
      <trkpt lat="45.7545" lon="6.53454">
        <ele>1610.9</ele>
        <time>2025-08-15T16:01:48Z</time>
      </trkpt>
      <trkpt lat="45.75449" lon="6.53454">
        <ele>1610.9</ele>
        <time>2025-08-15T16:01:49Z</time>
      </trkpt>
      <trkpt lat="45.75446" lon="6.53452">
        <ele>1610.9</ele>
        <time>2025-08-15T16:01:50Z</time>
      </trkpt>
      <trkpt lat="45.75443" lon="6.53449">
        <ele>1610.9</ele>
        <time>2025-08-15T16:01:51Z</time>
      </trkpt>
      <trkpt lat="45.7544" lon="6.53446">
        <ele>1610.9</ele>
        <time>2025-08-15T16:01:52Z</time>
      </trkpt>
      <trkpt lat="45.75438" lon="6.53444">
        <ele>1610.9</ele>
        <time>2025-08-15T16:01:53Z</time>
      </trkpt>
      <trkpt lat="45.75437" lon="6.53443">
        <ele>1610.9</ele>
        <time>2025-08-15T16:01:54Z</time>
      </trkpt>
      <trkpt lat="45.75438" lon="6.53444">
        <ele>1610.9</ele>
        <time>2025-08-15T16:01:55Z</time>
      </trkpt>
      <trkpt lat="45.75438" lon="6.53444">
        <ele>1610.9</ele>
        <time>2025-08-15T16:01:56Z</time>
      </trkpt>
      <trkpt lat="45.75438" lon="6.53444">
        <ele>1610.9</ele>
        <time>2025-08-15T16:01:57Z</time>
      </trkpt>
      <trkpt lat="45.75438" lon="6.53444">
        <ele>1610.9</ele>
        <time>2025-08-15T16:01:58Z</time>
      </trkpt>
      <trkpt lat="45.75438" lon="6.53444">
        <ele>1610.9</ele>
        <time>2025-08-15T16:01:59Z</time>
      </trkpt>
      <trkpt lat="45.75438" lon="6.53444">
        <ele>1610.9</ele>
        <time>2025-08-15T16:02:00Z</time>
      </trkpt>
      <trkpt lat="45.75438" lon="6.53444">
        <ele>1610.9</ele>
        <time>2025-08-15T16:02:01Z</time>
      </trkpt>
      <trkpt lat="45.75438" lon="6.53444">
        <ele>1610.9</ele>
        <time>2025-08-15T16:02:02Z</time>
      </trkpt>
      <trkpt lat="45.75438" lon="6.53444">
        <ele>1610.9</ele>
        <time>2025-08-15T16:02:03Z</time>
      </trkpt>
      <trkpt lat="45.75443" lon="6.53448">
        <ele>1610.9</ele>
        <time>2025-08-15T16:02:23Z</time>
      </trkpt>
      <trkpt lat="45.75444" lon="6.53448">
        <ele>1610.9</ele>
        <time>2025-08-15T16:02:24Z</time>
      </trkpt>
      <trkpt lat="45.75446" lon="6.5345">
        <ele>1610.9</ele>
        <time>2025-08-15T16:02:25Z</time>
      </trkpt>
      <trkpt lat="45.75446" lon="6.53451">
        <ele>1610.9</ele>
        <time>2025-08-15T16:02:26Z</time>
      </trkpt>
      <trkpt lat="45.75447" lon="6.53452">
        <ele>1610.9</ele>
        <time>2025-08-15T16:02:27Z</time>
      </trkpt>
      <trkpt lat="45.75449" lon="6.53454">
        <ele>1610.9</ele>
        <time>2025-08-15T16:02:28Z</time>
      </trkpt>
      <trkpt lat="45.7545" lon="6.53454">
        <ele>1610.9</ele>
        <time>2025-08-15T16:02:29Z</time>
      </trkpt>
      <trkpt lat="45.75451" lon="6.53455">
        <ele>1610.9</ele>
        <time>2025-08-15T16:02:30Z</time>
      </trkpt>
      <trkpt lat="45.75451" lon="6.53454">
        <ele>1610.9</ele>
        <time>2025-08-15T16:02:31Z</time>
      </trkpt>
      <trkpt lat="45.75451" lon="6.53454">
        <ele>1610.9</ele>
        <time>2025-08-15T16:02:32Z</time>
      </trkpt>
      <trkpt lat="45.75451" lon="6.53454">
        <ele>1610.9</ele>
        <time>2025-08-15T16:02:33Z</time>
      </trkpt>
      <trkpt lat="45.75451" lon="6.53454">
        <ele>1610.9</ele>
        <time>2025-08-15T16:02:34Z</time>
      </trkpt>
      <trkpt lat="45.75451" lon="6.53454">
        <ele>1610.9</ele>
        <time>2025-08-15T16:02:35Z</time>
      </trkpt>
      <trkpt lat="45.75451" lon="6.53454">
        <ele>1610.9</ele>
        <time>2025-08-15T16:02:36Z</time>
      </trkpt>
      <trkpt lat="45.75451" lon="6.53454">
        <ele>1610.9</ele>
        <time>2025-08-15T16:02:37Z</time>
      </trkpt>
      <trkpt lat="45.75451" lon="6.53454">
        <ele>1610.9</ele>
        <time>2025-08-15T16:02:38Z</time>
      </trkpt>
      <trkpt lat="45.75451" lon="6.53454">
        <ele>1610.9</ele>
        <time>2025-08-15T16:02:39Z</time>
      </trkpt>
      <trkpt lat="45.75451" lon="6.53454">
        <ele>1610.9</ele>
        <time>2025-08-15T16:02:40Z</time>
      </trkpt>
      <trkpt lat="45.75451" lon="6.53454">
        <ele>1610.9</ele>
        <time>2025-08-15T16:02:41Z</time>
      </trkpt>
      <trkpt lat="45.75451" lon="6.53454">
        <ele>1610.9</ele>
        <time>2025-08-15T16:02:44Z</time>
      </trkpt>
      <trkpt lat="45.75451" lon="6.53454">
        <ele>1610.9</ele>
        <time>2025-08-15T16:02:45Z</time>
      </trkpt>
      <trkpt lat="45.75451" lon="6.53454">
        <ele>1610.9</ele>
        <time>2025-08-15T16:02:46Z</time>
      </trkpt>
      <trkpt lat="45.75451" lon="6.53454">
        <ele>1610.9</ele>
        <time>2025-08-15T16:02:47Z</time>
      </trkpt>
      <trkpt lat="45.75451" lon="6.53454">
        <ele>1610.9</ele>
        <time>2025-08-15T16:02:48Z</time>
      </trkpt>
      <trkpt lat="45.75451" lon="6.53454">
        <ele>1610.9</ele>
        <time>2025-08-15T16:02:49Z</time>
      </trkpt>
      <trkpt lat="45.75451" lon="6.53454">
        <ele>1610.9</ele>
        <time>2025-08-15T16:02:50Z</time>
      </trkpt>
      <trkpt lat="45.75445" lon="6.53453">
        <ele>1610.9</ele>
        <time>2025-08-15T16:02:51Z</time>
      </trkpt>
      <trkpt lat="45.75444" lon="6.5345">
        <ele>1610.9</ele>
        <time>2025-08-15T16:02:52Z</time>
      </trkpt>
      <trkpt lat="45.75443" lon="6.53449">
        <ele>1610.9</ele>
        <time>2025-08-15T16:02:53Z</time>
      </trkpt>
      <trkpt lat="45.7544" lon="6.53448">
        <ele>1610.9</ele>
        <time>2025-08-15T16:02:54Z</time>
      </trkpt>
      <trkpt lat="45.75439" lon="6.53448">
        <ele>1610.9</ele>
        <time>2025-08-15T16:02:55Z</time>
      </trkpt>
      <trkpt lat="45.75438" lon="6.53447">
        <ele>1610.9</ele>
        <time>2025-08-15T16:02:56Z</time>
      </trkpt>
      <trkpt lat="45.75437" lon="6.53446">
        <ele>1610.9</ele>
        <time>2025-08-15T16:02:57Z</time>
      </trkpt>
      <trkpt lat="45.75438" lon="6.53447">
        <ele>1610.9</ele>
        <time>2025-08-15T16:02:58Z</time>
      </trkpt>
      <trkpt lat="45.75438" lon="6.53447">
        <ele>1610.9</ele>
        <time>2025-08-15T16:02:59Z</time>
      </trkpt>
      <trkpt lat="45.75438" lon="6.53447">
        <ele>1610.9</ele>
        <time>2025-08-15T16:03:00Z</time>
      </trkpt>
      <trkpt lat="45.75438" lon="6.53447">
        <ele>1610.9</ele>
        <time>2025-08-15T16:03:01Z</time>
      </trkpt>
      <trkpt lat="45.75438" lon="6.53447">
        <ele>1610.9</ele>
        <time>2025-08-15T16:03:02Z</time>
      </trkpt>
      <trkpt lat="45.75438" lon="6.53447">
        <ele>1610.9</ele>
        <time>2025-08-15T16:03:03Z</time>
      </trkpt>
      <trkpt lat="45.75438" lon="6.53447">
        <ele>1610.9</ele>
        <time>2025-08-15T16:03:04Z</time>
      </trkpt>
      <trkpt lat="45.75438" lon="6.53447">
        <ele>1610.9</ele>
        <time>2025-08-15T16:03:05Z</time>
      </trkpt>
      <trkpt lat="45.75437" lon="6.53446">
        <ele>1610.9</ele>
        <time>2025-08-15T16:03:06Z</time>
      </trkpt>
      <trkpt lat="45.75437" lon="6.53446">
        <ele>1610.9</ele>
        <time>2025-08-15T16:03:07Z</time>
      </trkpt>
      <trkpt lat="45.75466" lon="6.53468">
        <ele>1610.9</ele>
        <time>2025-08-15T16:04:42Z</time>
      </trkpt>
      <trkpt lat="45.75468" lon="6.53471">
        <ele>1611.1</ele>
        <time>2025-08-15T16:04:43Z</time>
      </trkpt>
      <trkpt lat="45.7547" lon="6.53473">
        <ele>1611.5</ele>
        <time>2025-08-15T16:04:44Z</time>
      </trkpt>
      <trkpt lat="45.75472" lon="6.53476">
        <ele>1611.8</ele>
        <time>2025-08-15T16:04:45Z</time>
      </trkpt>
      <trkpt lat="45.75475" lon="6.5348">
        <ele>1612.3</ele>
        <time>2025-08-15T16:04:46Z</time>
      </trkpt>
      <trkpt lat="45.75476" lon="6.53481">
        <ele>1612.4</ele>
        <time>2025-08-15T16:04:47Z</time>
      </trkpt>
      <trkpt lat="45.75478" lon="6.53483">
        <ele>1612.8</ele>
        <time>2025-08-15T16:04:48Z</time>
      </trkpt>
      <trkpt lat="45.75482" lon="6.53484">
        <ele>1613.3</ele>
        <time>2025-08-15T16:04:49Z</time>
      </trkpt>
      <trkpt lat="45.75485" lon="6.53486">
        <ele>1613.8</ele>
        <time>2025-08-15T16:04:50Z</time>
      </trkpt>
      <trkpt lat="45.75489" lon="6.53488">
        <ele>1614.4</ele>
        <time>2025-08-15T16:04:51Z</time>
      </trkpt>
      <trkpt lat="45.75494" lon="6.5349">
        <ele>1615.1</ele>
        <time>2025-08-15T16:04:52Z</time>
      </trkpt>
      <trkpt lat="45.75499" lon="6.53491">
        <ele>1615.7</ele>
        <time>2025-08-15T16:04:53Z</time>
      </trkpt>
      <trkpt lat="45.75504" lon="6.53493">
        <ele>1616.4</ele>
        <time>2025-08-15T16:04:54Z</time>
      </trkpt>
      <trkpt lat="45.75509" lon="6.53496">
        <ele>1616.9</ele>
        <time>2025-08-15T16:04:55Z</time>
      </trkpt>
      <trkpt lat="45.75513" lon="6.53498">
        <ele>1617.2</ele>
        <time>2025-08-15T16:04:56Z</time>
      </trkpt>
      <trkpt lat="45.75515" lon="6.53501">
        <ele>1617.4</ele>
        <time>2025-08-15T16:04:57Z</time>
      </trkpt>
      <trkpt lat="45.75515" lon="6.53503">
        <ele>1617.5</ele>
        <time>2025-08-15T16:04:58Z</time>
      </trkpt>
      <trkpt lat="45.75518" lon="6.53507">
        <ele>1617.6</ele>
        <time>2025-08-15T16:04:59Z</time>
      </trkpt>
      <trkpt lat="45.7552" lon="6.53509">
        <ele>1617.7</ele>
        <time>2025-08-15T16:05:00Z</time>
      </trkpt>
      <trkpt lat="45.75524" lon="6.53513">
        <ele>1617.8</ele>
        <time>2025-08-15T16:05:01Z</time>
      </trkpt>
      <trkpt lat="45.75528" lon="6.5352">
        <ele>1617.7</ele>
        <time>2025-08-15T16:05:02Z</time>
      </trkpt>
      <trkpt lat="45.75532" lon="6.53527">
        <ele>1617.6</ele>
        <time>2025-08-15T16:05:03Z</time>
      </trkpt>
      <trkpt lat="45.75535" lon="6.53534">
        <ele>1617.6</ele>
        <time>2025-08-15T16:05:04Z</time>
      </trkpt>
      <trkpt lat="45.75538" lon="6.5354">
        <ele>1617.6</ele>
        <time>2025-08-15T16:05:05Z</time>
      </trkpt>
      <trkpt lat="45.75541" lon="6.53544">
        <ele>1617.5</ele>
        <time>2025-08-15T16:05:06Z</time>
      </trkpt>
      <trkpt lat="45.75544" lon="6.53548">
        <ele>1617.5</ele>
        <time>2025-08-15T16:05:07Z</time>
      </trkpt>
      <trkpt lat="45.75546" lon="6.53552">
        <ele>1617.5</ele>
        <time>2025-08-15T16:05:08Z</time>
      </trkpt>
      <trkpt lat="45.75549" lon="6.53557">
        <ele>1617.6</ele>
        <time>2025-08-15T16:05:09Z</time>
      </trkpt>
      <trkpt lat="45.75553" lon="6.53562">
        <ele>1617.6</ele>
        <time>2025-08-15T16:05:10Z</time>
      </trkpt>
      <trkpt lat="45.75557" lon="6.53568">
        <ele>1617.6</ele>
        <time>2025-08-15T16:05:11Z</time>
      </trkpt>
      <trkpt lat="45.75561" lon="6.53575">
        <ele>1617.7</ele>
        <time>2025-08-15T16:05:12Z</time>
      </trkpt>
      <trkpt lat="45.75566" lon="6.53581">
        <ele>1617.7</ele>
        <time>2025-08-15T16:05:13Z</time>
      </trkpt>
      <trkpt lat="45.7557" lon="6.53586">
        <ele>1617.8</ele>
        <time>2025-08-15T16:05:14Z</time>
      </trkpt>
      <trkpt lat="45.75575" lon="6.53592">
        <ele>1617.9</ele>
        <time>2025-08-15T16:05:15Z</time>
      </trkpt>
      <trkpt lat="45.75579" lon="6.53597">
        <ele>1618</ele>
        <time>2025-08-15T16:05:16Z</time>
      </trkpt>
      <trkpt lat="45.75583" lon="6.53602">
        <ele>1618.3</ele>
        <time>2025-08-15T16:05:17Z</time>
      </trkpt>
      <trkpt lat="45.75587" lon="6.53608">
        <ele>1618.6</ele>
        <time>2025-08-15T16:05:18Z</time>
      </trkpt>
      <trkpt lat="45.75591" lon="6.53613">
        <ele>1618.9</ele>
        <time>2025-08-15T16:05:19Z</time>
      </trkpt>
      <trkpt lat="45.75594" lon="6.5362">
        <ele>1619.2</ele>
        <time>2025-08-15T16:05:20Z</time>
      </trkpt>
      <trkpt lat="45.75597" lon="6.53626">
        <ele>1619.4</ele>
        <time>2025-08-15T16:05:21Z</time>
      </trkpt>
      <trkpt lat="45.756" lon="6.53632">
        <ele>1619.6</ele>
        <time>2025-08-15T16:05:22Z</time>
      </trkpt>
      <trkpt lat="45.75604" lon="6.53638">
        <ele>1619.8</ele>
        <time>2025-08-15T16:05:23Z</time>
      </trkpt>
      <trkpt lat="45.75609" lon="6.53642">
        <ele>1620.1</ele>
        <time>2025-08-15T16:05:24Z</time>
      </trkpt>
      <trkpt lat="45.75615" lon="6.53645">
        <ele>1620.4</ele>
        <time>2025-08-15T16:05:25Z</time>
      </trkpt>
      <trkpt lat="45.7562" lon="6.53648">
        <ele>1620.7</ele>
        <time>2025-08-15T16:05:26Z</time>
      </trkpt>
      <trkpt lat="45.75625" lon="6.53652">
        <ele>1621</ele>
        <time>2025-08-15T16:05:27Z</time>
      </trkpt>
      <trkpt lat="45.75628" lon="6.53656">
        <ele>1621.2</ele>
        <time>2025-08-15T16:05:28Z</time>
      </trkpt>
      <trkpt lat="45.7563" lon="6.5366">
        <ele>1621.4</ele>
        <time>2025-08-15T16:05:29Z</time>
      </trkpt>
      <trkpt lat="45.75631" lon="6.53665">
        <ele>1621.5</ele>
        <time>2025-08-15T16:05:30Z</time>
      </trkpt>
      <trkpt lat="45.75632" lon="6.53669">
        <ele>1621.6</ele>
        <time>2025-08-15T16:05:31Z</time>
      </trkpt>
      <trkpt lat="45.75634" lon="6.53674">
        <ele>1621.6</ele>
        <time>2025-08-15T16:05:32Z</time>
      </trkpt>
      <trkpt lat="45.75636" lon="6.53678">
        <ele>1621.5</ele>
        <time>2025-08-15T16:05:33Z</time>
      </trkpt>
      <trkpt lat="45.75638" lon="6.53682">
        <ele>1621.5</ele>
        <time>2025-08-15T16:05:34Z</time>
      </trkpt>
      <trkpt lat="45.75636" lon="6.53687">
        <ele>1621.4</ele>
        <time>2025-08-15T16:05:35Z</time>
      </trkpt>
      <trkpt lat="45.75636" lon="6.53694">
        <ele>1621.2</ele>
        <time>2025-08-15T16:05:36Z</time>
      </trkpt>
      <trkpt lat="45.75638" lon="6.53699">
        <ele>1621</ele>
        <time>2025-08-15T16:05:37Z</time>
      </trkpt>
      <trkpt lat="45.75642" lon="6.53702">
        <ele>1621</ele>
        <time>2025-08-15T16:05:38Z</time>
      </trkpt>
      <trkpt lat="45.75646" lon="6.53703">
        <ele>1621.2</ele>
        <time>2025-08-15T16:05:39Z</time>
      </trkpt>
      <trkpt lat="45.75649" lon="6.53704">
        <ele>1621.3</ele>
        <time>2025-08-15T16:05:40Z</time>
      </trkpt>
      <trkpt lat="45.75652" lon="6.53705">
        <ele>1621.5</ele>
        <time>2025-08-15T16:05:41Z</time>
      </trkpt>
      <trkpt lat="45.75655" lon="6.53705">
        <ele>1621.6</ele>
        <time>2025-08-15T16:05:42Z</time>
      </trkpt>
      <trkpt lat="45.75658" lon="6.53705">
        <ele>1621.8</ele>
        <time>2025-08-15T16:05:43Z</time>
      </trkpt>
      <trkpt lat="45.75661" lon="6.53707">
        <ele>1622</ele>
        <time>2025-08-15T16:05:44Z</time>
      </trkpt>
      <trkpt lat="45.75662" lon="6.53708">
        <ele>1622.1</ele>
        <time>2025-08-15T16:05:45Z</time>
      </trkpt>
      <trkpt lat="45.75663" lon="6.53714">
        <ele>1622.4</ele>
        <time>2025-08-15T16:05:46Z</time>
      </trkpt>
      <trkpt lat="45.75663" lon="6.53715">
        <ele>1622.5</ele>
        <time>2025-08-15T16:05:47Z</time>
      </trkpt>
      <trkpt lat="45.75663" lon="6.5372">
        <ele>1622.7</ele>
        <time>2025-08-15T16:05:48Z</time>
      </trkpt>
      <trkpt lat="45.75664" lon="6.53725">
        <ele>1623</ele>
        <time>2025-08-15T16:05:49Z</time>
      </trkpt>
      <trkpt lat="45.75665" lon="6.53731">
        <ele>1623.4</ele>
        <time>2025-08-15T16:05:50Z</time>
      </trkpt>
      <trkpt lat="45.75666" lon="6.53738">
        <ele>1623.8</ele>
        <time>2025-08-15T16:05:51Z</time>
      </trkpt>
      <trkpt lat="45.75667" lon="6.53745">
        <ele>1624.3</ele>
        <time>2025-08-15T16:05:52Z</time>
      </trkpt>
      <trkpt lat="45.75667" lon="6.53753">
        <ele>1624.7</ele>
        <time>2025-08-15T16:05:53Z</time>
      </trkpt>
      <trkpt lat="45.75668" lon="6.5376">
        <ele>1625.2</ele>
        <time>2025-08-15T16:05:54Z</time>
      </trkpt>
      <trkpt lat="45.75669" lon="6.53768">
        <ele>1625.7</ele>
        <time>2025-08-15T16:05:55Z</time>
      </trkpt>
      <trkpt lat="45.75669" lon="6.53774">
        <ele>1626.1</ele>
        <time>2025-08-15T16:05:56Z</time>
      </trkpt>
      <trkpt lat="45.75669" lon="6.53779">
        <ele>1626.4</ele>
        <time>2025-08-15T16:05:57Z</time>
      </trkpt>
      <trkpt lat="45.75669" lon="6.53785">
        <ele>1626.8</ele>
        <time>2025-08-15T16:05:58Z</time>
      </trkpt>
      <trkpt lat="45.75669" lon="6.53791">
        <ele>1627.2</ele>
        <time>2025-08-15T16:05:59Z</time>
      </trkpt>
      <trkpt lat="45.75671" lon="6.53798">
        <ele>1627.7</ele>
        <time>2025-08-15T16:06:00Z</time>
      </trkpt>
      <trkpt lat="45.75673" lon="6.53805">
        <ele>1628.2</ele>
        <time>2025-08-15T16:06:01Z</time>
      </trkpt>
      <trkpt lat="45.75675" lon="6.53812">
        <ele>1628.7</ele>
        <time>2025-08-15T16:06:02Z</time>
      </trkpt>
      <trkpt lat="45.75678" lon="6.53819">
        <ele>1629.1</ele>
        <time>2025-08-15T16:06:03Z</time>
      </trkpt>
      <trkpt lat="45.7568" lon="6.53825">
        <ele>1629.6</ele>
        <time>2025-08-15T16:06:04Z</time>
      </trkpt>
      <trkpt lat="45.75682" lon="6.53829">
        <ele>1629.9</ele>
        <time>2025-08-15T16:06:05Z</time>
      </trkpt>
      <trkpt lat="45.75684" lon="6.53834">
        <ele>1630.2</ele>
        <time>2025-08-15T16:06:06Z</time>
      </trkpt>
      <trkpt lat="45.75685" lon="6.53835">
        <ele>1630.3</ele>
        <time>2025-08-15T16:06:07Z</time>
      </trkpt>
      <trkpt lat="45.75688" lon="6.53836">
        <ele>1630.4</ele>
        <time>2025-08-15T16:06:08Z</time>
      </trkpt>
      <trkpt lat="45.75689" lon="6.53837">
        <ele>1630.5</ele>
        <time>2025-08-15T16:06:09Z</time>
      </trkpt>
      <trkpt lat="45.75692" lon="6.53839">
        <ele>1630.6</ele>
        <time>2025-08-15T16:06:10Z</time>
      </trkpt>
      <trkpt lat="45.75695" lon="6.53842">
        <ele>1630.7</ele>
        <time>2025-08-15T16:06:11Z</time>
      </trkpt>
      <trkpt lat="45.75698" lon="6.53846">
        <ele>1630.9</ele>
        <time>2025-08-15T16:06:12Z</time>
      </trkpt>
      <trkpt lat="45.75701" lon="6.5385">
        <ele>1631.2</ele>
        <time>2025-08-15T16:06:13Z</time>
      </trkpt>
      <trkpt lat="45.75703" lon="6.53853">
        <ele>1631.5</ele>
        <time>2025-08-15T16:06:14Z</time>
      </trkpt>
      <trkpt lat="45.75703" lon="6.53857">
        <ele>1631.7</ele>
        <time>2025-08-15T16:06:15Z</time>
      </trkpt>
      <trkpt lat="45.75702" lon="6.5386">
        <ele>1632</ele>
        <time>2025-08-15T16:06:16Z</time>
      </trkpt>
      <trkpt lat="45.75701" lon="6.53864">
        <ele>1632.2</ele>
        <time>2025-08-15T16:06:17Z</time>
      </trkpt>
      <trkpt lat="45.757" lon="6.53865">
        <ele>1632.3</ele>
        <time>2025-08-15T16:06:18Z</time>
      </trkpt>
      <trkpt lat="45.75699" lon="6.53865">
        <ele>1632.4</ele>
        <time>2025-08-15T16:06:19Z</time>
      </trkpt>
      <trkpt lat="45.75699" lon="6.53868">
        <ele>1632.6</ele>
        <time>2025-08-15T16:06:20Z</time>
      </trkpt>
      <trkpt lat="45.75699" lon="6.53869">
        <ele>1632.7</ele>
        <time>2025-08-15T16:06:21Z</time>
      </trkpt>
      <trkpt lat="45.75699" lon="6.53871">
        <ele>1632.8</ele>
        <time>2025-08-15T16:06:22Z</time>
      </trkpt>
      <trkpt lat="45.75699" lon="6.53873">
        <ele>1633</ele>
        <time>2025-08-15T16:06:23Z</time>
      </trkpt>
      <trkpt lat="45.757" lon="6.53875">
        <ele>1633.1</ele>
        <time>2025-08-15T16:06:24Z</time>
      </trkpt>
      <trkpt lat="45.757" lon="6.53877">
        <ele>1633.3</ele>
        <time>2025-08-15T16:06:25Z</time>
      </trkpt>
      <trkpt lat="45.757" lon="6.53879">
        <ele>1633.4</ele>
        <time>2025-08-15T16:06:26Z</time>
      </trkpt>
      <trkpt lat="45.757" lon="6.5388">
        <ele>1633.5</ele>
        <time>2025-08-15T16:06:27Z</time>
      </trkpt>
      <trkpt lat="45.75699" lon="6.53882">
        <ele>1633.6</ele>
        <time>2025-08-15T16:06:28Z</time>
      </trkpt>
      <trkpt lat="45.75699" lon="6.53884">
        <ele>1633.8</ele>
        <time>2025-08-15T16:06:29Z</time>
      </trkpt>
      <trkpt lat="45.75699" lon="6.53886">
        <ele>1633.9</ele>
        <time>2025-08-15T16:06:30Z</time>
      </trkpt>
      <trkpt lat="45.75699" lon="6.53887">
        <ele>1634</ele>
        <time>2025-08-15T16:06:31Z</time>
      </trkpt>
      <trkpt lat="45.75699" lon="6.53889">
        <ele>1634.1</ele>
        <time>2025-08-15T16:06:32Z</time>
      </trkpt>
      <trkpt lat="45.757" lon="6.53891">
        <ele>1634.1</ele>
        <time>2025-08-15T16:06:33Z</time>
      </trkpt>
      <trkpt lat="45.757" lon="6.53891">
        <ele>1634.1</ele>
        <time>2025-08-15T16:06:34Z</time>
      </trkpt>
      <trkpt lat="45.757" lon="6.53891">
        <ele>1634.2</ele>
        <time>2025-08-15T16:06:35Z</time>
      </trkpt>
      <trkpt lat="45.75701" lon="6.53893">
        <ele>1634.2</ele>
        <time>2025-08-15T16:06:36Z</time>
      </trkpt>
      <trkpt lat="45.75701" lon="6.53893">
        <ele>1634.2</ele>
        <time>2025-08-15T16:06:37Z</time>
      </trkpt>
      <trkpt lat="45.75701" lon="6.53893">
        <ele>1634.2</ele>
        <time>2025-08-15T16:06:38Z</time>
      </trkpt>
      <trkpt lat="45.75701" lon="6.53894">
        <ele>1634.2</ele>
        <time>2025-08-15T16:06:39Z</time>
      </trkpt>
      <trkpt lat="45.75701" lon="6.53895">
        <ele>1634.3</ele>
        <time>2025-08-15T16:06:40Z</time>
      </trkpt>
      <trkpt lat="45.75701" lon="6.53895">
        <ele>1634.3</ele>
        <time>2025-08-15T16:06:41Z</time>
      </trkpt>
      <trkpt lat="45.75702" lon="6.53897">
        <ele>1634.3</ele>
        <time>2025-08-15T16:06:42Z</time>
      </trkpt>
      <trkpt lat="45.75702" lon="6.53898">
        <ele>1634.3</ele>
        <time>2025-08-15T16:06:43Z</time>
      </trkpt>
      <trkpt lat="45.75702" lon="6.53898">
        <ele>1634.4</ele>
        <time>2025-08-15T16:06:44Z</time>
      </trkpt>
      <trkpt lat="45.75702" lon="6.53899">
        <ele>1634.4</ele>
        <time>2025-08-15T16:06:45Z</time>
      </trkpt>
      <trkpt lat="45.75703" lon="6.539">
        <ele>1634.4</ele>
        <time>2025-08-15T16:06:46Z</time>
      </trkpt>
      <trkpt lat="45.75703" lon="6.53901">
        <ele>1634.4</ele>
        <time>2025-08-15T16:06:47Z</time>
      </trkpt>
      <trkpt lat="45.75703" lon="6.53902">
        <ele>1634.5</ele>
        <time>2025-08-15T16:06:48Z</time>
      </trkpt>
      <trkpt lat="45.75703" lon="6.53903">
        <ele>1634.5</ele>
        <time>2025-08-15T16:06:49Z</time>
      </trkpt>
      <trkpt lat="45.75704" lon="6.53904">
        <ele>1634.5</ele>
        <time>2025-08-15T16:06:50Z</time>
      </trkpt>
      <trkpt lat="45.75704" lon="6.53905">
        <ele>1634.5</ele>
        <time>2025-08-15T16:06:51Z</time>
      </trkpt>
      <trkpt lat="45.75704" lon="6.53906">
        <ele>1634.5</ele>
        <time>2025-08-15T16:06:52Z</time>
      </trkpt>
      <trkpt lat="45.75704" lon="6.53908">
        <ele>1634.6</ele>
        <time>2025-08-15T16:06:53Z</time>
      </trkpt>
      <trkpt lat="45.75704" lon="6.5391">
        <ele>1634.6</ele>
        <time>2025-08-15T16:06:54Z</time>
      </trkpt>
      <trkpt lat="45.75705" lon="6.53912">
        <ele>1634.6</ele>
        <time>2025-08-15T16:06:55Z</time>
      </trkpt>
      <trkpt lat="45.75705" lon="6.53913">
        <ele>1634.6</ele>
        <time>2025-08-15T16:06:56Z</time>
      </trkpt>
      <trkpt lat="45.75706" lon="6.53914">
        <ele>1634.6</ele>
        <time>2025-08-15T16:06:57Z</time>
      </trkpt>
      <trkpt lat="45.75706" lon="6.53914">
        <ele>1634.7</ele>
        <time>2025-08-15T16:06:58Z</time>
      </trkpt>
      <trkpt lat="45.75707" lon="6.53915">
        <ele>1634.7</ele>
        <time>2025-08-15T16:06:59Z</time>
      </trkpt>
      <trkpt lat="45.75708" lon="6.53915">
        <ele>1634.7</ele>
        <time>2025-08-15T16:07:00Z</time>
      </trkpt>
      <trkpt lat="45.75708" lon="6.53914">
        <ele>1634.7</ele>
        <time>2025-08-15T16:07:01Z</time>
      </trkpt>
      <trkpt lat="45.75709" lon="6.53914">
        <ele>1634.7</ele>
        <time>2025-08-15T16:07:02Z</time>
      </trkpt>
      <trkpt lat="45.75709" lon="6.53914">
        <ele>1634.7</ele>
        <time>2025-08-15T16:07:03Z</time>
      </trkpt>
      <trkpt lat="45.75709" lon="6.53914">
        <ele>1634.7</ele>
        <time>2025-08-15T16:07:04Z</time>
      </trkpt>
      <trkpt lat="45.7571" lon="6.53914">
        <ele>1634.7</ele>
        <time>2025-08-15T16:07:05Z</time>
      </trkpt>
      <trkpt lat="45.75711" lon="6.53914">
        <ele>1634.8</ele>
        <time>2025-08-15T16:07:06Z</time>
      </trkpt>
      <trkpt lat="45.75712" lon="6.53913">
        <ele>1634.8</ele>
        <time>2025-08-15T16:07:07Z</time>
      </trkpt>
      <trkpt lat="45.75712" lon="6.53913">
        <ele>1634.8</ele>
        <time>2025-08-15T16:07:08Z</time>
      </trkpt>
      <trkpt lat="45.75713" lon="6.53913">
        <ele>1634.8</ele>
        <time>2025-08-15T16:07:09Z</time>
      </trkpt>
      <trkpt lat="45.75714" lon="6.53913">
        <ele>1634.8</ele>
        <time>2025-08-15T16:07:10Z</time>
      </trkpt>
      <trkpt lat="45.75715" lon="6.53913">
        <ele>1634.8</ele>
        <time>2025-08-15T16:07:11Z</time>
      </trkpt>
      <trkpt lat="45.75716" lon="6.53914">
        <ele>1634.8</ele>
        <time>2025-08-15T16:07:12Z</time>
      </trkpt>
      <trkpt lat="45.75717" lon="6.53914">
        <ele>1634.8</ele>
        <time>2025-08-15T16:07:13Z</time>
      </trkpt>
      <trkpt lat="45.75718" lon="6.53914">
        <ele>1634.8</ele>
        <time>2025-08-15T16:07:14Z</time>
      </trkpt>
      <trkpt lat="45.75719" lon="6.53914">
        <ele>1634.9</ele>
        <time>2025-08-15T16:07:15Z</time>
      </trkpt>
      <trkpt lat="45.7572" lon="6.53914">
        <ele>1634.9</ele>
        <time>2025-08-15T16:07:16Z</time>
      </trkpt>
      <trkpt lat="45.7572" lon="6.53914">
        <ele>1634.9</ele>
        <time>2025-08-15T16:07:17Z</time>
      </trkpt>
      <trkpt lat="45.75721" lon="6.53915">
        <ele>1635</ele>
        <time>2025-08-15T16:07:18Z</time>
      </trkpt>
      <trkpt lat="45.75722" lon="6.53914">
        <ele>1635</ele>
        <time>2025-08-15T16:07:19Z</time>
      </trkpt>
      <trkpt lat="45.75722" lon="6.53913">
        <ele>1635.1</ele>
        <time>2025-08-15T16:07:20Z</time>
      </trkpt>
      <trkpt lat="45.75723" lon="6.53913">
        <ele>1635.1</ele>
        <time>2025-08-15T16:07:21Z</time>
      </trkpt>
      <trkpt lat="45.75724" lon="6.53912">
        <ele>1635.2</ele>
        <time>2025-08-15T16:07:22Z</time>
      </trkpt>
      <trkpt lat="45.75725" lon="6.53911">
        <ele>1635.2</ele>
        <time>2025-08-15T16:07:23Z</time>
      </trkpt>
      <trkpt lat="45.75726" lon="6.5391">
        <ele>1635.3</ele>
        <time>2025-08-15T16:07:24Z</time>
      </trkpt>
      <trkpt lat="45.75727" lon="6.5391">
        <ele>1635.4</ele>
        <time>2025-08-15T16:07:25Z</time>
      </trkpt>
      <trkpt lat="45.75728" lon="6.53909">
        <ele>1635.4</ele>
        <time>2025-08-15T16:07:26Z</time>
      </trkpt>
      <trkpt lat="45.75728" lon="6.53908">
        <ele>1635.4</ele>
        <time>2025-08-15T16:07:27Z</time>
      </trkpt>
      <trkpt lat="45.75728" lon="6.53907">
        <ele>1635.5</ele>
        <time>2025-08-15T16:07:28Z</time>
      </trkpt>
      <trkpt lat="45.75729" lon="6.53906">
        <ele>1635.5</ele>
        <time>2025-08-15T16:07:29Z</time>
      </trkpt>
      <trkpt lat="45.7573" lon="6.53905">
        <ele>1635.6</ele>
        <time>2025-08-15T16:07:30Z</time>
      </trkpt>
      <trkpt lat="45.7573" lon="6.53904">
        <ele>1635.6</ele>
        <time>2025-08-15T16:07:31Z</time>
      </trkpt>
      <trkpt lat="45.75731" lon="6.53903">
        <ele>1635.7</ele>
        <time>2025-08-15T16:07:32Z</time>
      </trkpt>
      <trkpt lat="45.75731" lon="6.53902">
        <ele>1635.7</ele>
        <time>2025-08-15T16:07:33Z</time>
      </trkpt>
      <trkpt lat="45.75732" lon="6.53902">
        <ele>1635.8</ele>
        <time>2025-08-15T16:07:34Z</time>
      </trkpt>
      <trkpt lat="45.75732" lon="6.53901">
        <ele>1635.8</ele>
        <time>2025-08-15T16:07:35Z</time>
      </trkpt>
      <trkpt lat="45.75732" lon="6.539">
        <ele>1635.8</ele>
        <time>2025-08-15T16:07:36Z</time>
      </trkpt>
      <trkpt lat="45.75733" lon="6.539">
        <ele>1635.8</ele>
        <time>2025-08-15T16:07:37Z</time>
      </trkpt>
      <trkpt lat="45.75734" lon="6.53899">
        <ele>1635.9</ele>
        <time>2025-08-15T16:07:38Z</time>
      </trkpt>
      <trkpt lat="45.75735" lon="6.53898">
        <ele>1635.9</ele>
        <time>2025-08-15T16:07:39Z</time>
      </trkpt>
      <trkpt lat="45.75736" lon="6.53898">
        <ele>1636</ele>
        <time>2025-08-15T16:07:40Z</time>
      </trkpt>
      <trkpt lat="45.75736" lon="6.53898">
        <ele>1636</ele>
        <time>2025-08-15T16:07:41Z</time>
      </trkpt>
      <trkpt lat="45.75737" lon="6.53897">
        <ele>1636</ele>
        <time>2025-08-15T16:07:42Z</time>
      </trkpt>
      <trkpt lat="45.75737" lon="6.53896">
        <ele>1636.1</ele>
        <time>2025-08-15T16:07:43Z</time>
      </trkpt>
      <trkpt lat="45.75738" lon="6.53895">
        <ele>1636.1</ele>
        <time>2025-08-15T16:07:44Z</time>
      </trkpt>
      <trkpt lat="45.75738" lon="6.53894">
        <ele>1636.1</ele>
        <time>2025-08-15T16:07:45Z</time>
      </trkpt>
      <trkpt lat="45.75738" lon="6.53893">
        <ele>1636.2</ele>
        <time>2025-08-15T16:07:46Z</time>
      </trkpt>
      <trkpt lat="45.75739" lon="6.53892">
        <ele>1636.2</ele>
        <time>2025-08-15T16:07:47Z</time>
      </trkpt>
      <trkpt lat="45.75739" lon="6.53891">
        <ele>1636.2</ele>
        <time>2025-08-15T16:07:48Z</time>
      </trkpt>
      <trkpt lat="45.75739" lon="6.5389">
        <ele>1636.3</ele>
        <time>2025-08-15T16:07:49Z</time>
      </trkpt>
      <trkpt lat="45.7574" lon="6.53889">
        <ele>1636.3</ele>
        <time>2025-08-15T16:07:50Z</time>
      </trkpt>
      <trkpt lat="45.7574" lon="6.53888">
        <ele>1636.3</ele>
        <time>2025-08-15T16:07:51Z</time>
      </trkpt>
      <trkpt lat="45.75741" lon="6.53887">
        <ele>1636.4</ele>
        <time>2025-08-15T16:07:52Z</time>
      </trkpt>
      <trkpt lat="45.75741" lon="6.53886">
        <ele>1636.4</ele>
        <time>2025-08-15T16:07:53Z</time>
      </trkpt>
      <trkpt lat="45.75742" lon="6.53885">
        <ele>1636.5</ele>
        <time>2025-08-15T16:07:54Z</time>
      </trkpt>
      <trkpt lat="45.75743" lon="6.53885">
        <ele>1636.5</ele>
        <time>2025-08-15T16:07:55Z</time>
      </trkpt>
      <trkpt lat="45.75743" lon="6.53884">
        <ele>1636.5</ele>
        <time>2025-08-15T16:07:56Z</time>
      </trkpt>
      <trkpt lat="45.75744" lon="6.53883">
        <ele>1636.6</ele>
        <time>2025-08-15T16:07:57Z</time>
      </trkpt>
      <trkpt lat="45.75744" lon="6.53883">
        <ele>1636.6</ele>
        <time>2025-08-15T16:07:58Z</time>
      </trkpt>
      <trkpt lat="45.75744" lon="6.53882">
        <ele>1636.6</ele>
        <time>2025-08-15T16:07:59Z</time>
      </trkpt>
      <trkpt lat="45.75745" lon="6.53881">
        <ele>1636.6</ele>
        <time>2025-08-15T16:08:00Z</time>
      </trkpt>
      <trkpt lat="45.75745" lon="6.53881">
        <ele>1636.6</ele>
        <time>2025-08-15T16:08:01Z</time>
      </trkpt>
      <trkpt lat="45.75744" lon="6.53881">
        <ele>1636.7</ele>
        <time>2025-08-15T16:08:02Z</time>
      </trkpt>
      <trkpt lat="45.75745" lon="6.53879">
        <ele>1636.7</ele>
        <time>2025-08-15T16:08:03Z</time>
      </trkpt>
      <trkpt lat="45.75745" lon="6.53878">
        <ele>1636.7</ele>
        <time>2025-08-15T16:08:05Z</time>
      </trkpt>
      <trkpt lat="45.75745" lon="6.53877">
        <ele>1636.8</ele>
        <time>2025-08-15T16:08:06Z</time>
      </trkpt>
      <trkpt lat="45.75745" lon="6.53876">
        <ele>1636.8</ele>
        <time>2025-08-15T16:08:07Z</time>
      </trkpt>
      <trkpt lat="45.75746" lon="6.53875">
        <ele>1636.9</ele>
        <time>2025-08-15T16:08:08Z</time>
      </trkpt>
      <trkpt lat="45.75746" lon="6.53874">
        <ele>1636.9</ele>
        <time>2025-08-15T16:08:09Z</time>
      </trkpt>
      <trkpt lat="45.75747" lon="6.53873">
        <ele>1637</ele>
        <time>2025-08-15T16:08:10Z</time>
      </trkpt>
      <trkpt lat="45.75747" lon="6.53873">
        <ele>1637</ele>
        <time>2025-08-15T16:08:11Z</time>
      </trkpt>
      <trkpt lat="45.75747" lon="6.53872">
        <ele>1637</ele>
        <time>2025-08-15T16:08:12Z</time>
      </trkpt>
      <trkpt lat="45.75747" lon="6.5387">
        <ele>1637.1</ele>
        <time>2025-08-15T16:08:13Z</time>
      </trkpt>
      <trkpt lat="45.75748" lon="6.5387">
        <ele>1637.1</ele>
        <time>2025-08-15T16:08:14Z</time>
      </trkpt>
      <trkpt lat="45.75748" lon="6.53868">
        <ele>1637.2</ele>
        <time>2025-08-15T16:08:15Z</time>
      </trkpt>
      <trkpt lat="45.75748" lon="6.53867">
        <ele>1637.2</ele>
        <time>2025-08-15T16:08:16Z</time>
      </trkpt>
      <trkpt lat="45.75749" lon="6.53866">
        <ele>1637.3</ele>
        <time>2025-08-15T16:08:17Z</time>
      </trkpt>
      <trkpt lat="45.75749" lon="6.53865">
        <ele>1637.3</ele>
        <time>2025-08-15T16:08:18Z</time>
      </trkpt>
      <trkpt lat="45.75749" lon="6.53864">
        <ele>1637.4</ele>
        <time>2025-08-15T16:08:19Z</time>
      </trkpt>
      <trkpt lat="45.7575" lon="6.53863">
        <ele>1637.4</ele>
        <time>2025-08-15T16:08:20Z</time>
      </trkpt>
      <trkpt lat="45.7575" lon="6.53862">
        <ele>1637.5</ele>
        <time>2025-08-15T16:08:21Z</time>
      </trkpt>
      <trkpt lat="45.7575" lon="6.53862">
        <ele>1637.5</ele>
        <time>2025-08-15T16:08:22Z</time>
      </trkpt>
      <trkpt lat="45.75751" lon="6.53861">
        <ele>1637.6</ele>
        <time>2025-08-15T16:08:23Z</time>
      </trkpt>
      <trkpt lat="45.75751" lon="6.53859">
        <ele>1637.6</ele>
        <time>2025-08-15T16:08:24Z</time>
      </trkpt>
      <trkpt lat="45.75751" lon="6.53859">
        <ele>1637.6</ele>
        <time>2025-08-15T16:08:25Z</time>
      </trkpt>
      <trkpt lat="45.75751" lon="6.53858">
        <ele>1637.7</ele>
        <time>2025-08-15T16:08:26Z</time>
      </trkpt>
      <trkpt lat="45.75752" lon="6.53857">
        <ele>1637.7</ele>
        <time>2025-08-15T16:08:27Z</time>
      </trkpt>
      <trkpt lat="45.75752" lon="6.53856">
        <ele>1637.8</ele>
        <time>2025-08-15T16:08:28Z</time>
      </trkpt>
      <trkpt lat="45.75753" lon="6.53853">
        <ele>1637.9</ele>
        <time>2025-08-15T16:08:29Z</time>
      </trkpt>
      <trkpt lat="45.75753" lon="6.53852">
        <ele>1638</ele>
        <time>2025-08-15T16:08:30Z</time>
      </trkpt>
      <trkpt lat="45.75754" lon="6.53851">
        <ele>1638</ele>
        <time>2025-08-15T16:08:31Z</time>
      </trkpt>
      <trkpt lat="45.75754" lon="6.5385">
        <ele>1638.1</ele>
        <time>2025-08-15T16:08:32Z</time>
      </trkpt>
      <trkpt lat="45.75755" lon="6.53849">
        <ele>1638.1</ele>
        <time>2025-08-15T16:08:33Z</time>
      </trkpt>
      <trkpt lat="45.75755" lon="6.53848">
        <ele>1638.2</ele>
        <time>2025-08-15T16:08:34Z</time>
      </trkpt>
      <trkpt lat="45.75755" lon="6.53847">
        <ele>1638.2</ele>
        <time>2025-08-15T16:08:35Z</time>
      </trkpt>
      <trkpt lat="45.75756" lon="6.53845">
        <ele>1638.2</ele>
        <time>2025-08-15T16:08:36Z</time>
      </trkpt>
      <trkpt lat="45.75756" lon="6.53845">
        <ele>1638.3</ele>
        <time>2025-08-15T16:08:37Z</time>
      </trkpt>
      <trkpt lat="45.75756" lon="6.53844">
        <ele>1638.3</ele>
        <time>2025-08-15T16:08:38Z</time>
      </trkpt>
      <trkpt lat="45.75757" lon="6.53842">
        <ele>1638.4</ele>
        <time>2025-08-15T16:08:39Z</time>
      </trkpt>
      <trkpt lat="45.75757" lon="6.53841">
        <ele>1638.4</ele>
        <time>2025-08-15T16:08:40Z</time>
      </trkpt>
      <trkpt lat="45.75758" lon="6.53839">
        <ele>1638.5</ele>
        <time>2025-08-15T16:08:41Z</time>
      </trkpt>
      <trkpt lat="45.75759" lon="6.53838">
        <ele>1638.5</ele>
        <time>2025-08-15T16:08:42Z</time>
      </trkpt>
      <trkpt lat="45.75759" lon="6.53836">
        <ele>1638.6</ele>
        <time>2025-08-15T16:08:43Z</time>
      </trkpt>
      <trkpt lat="45.7576" lon="6.53835">
        <ele>1638.7</ele>
        <time>2025-08-15T16:08:44Z</time>
      </trkpt>
      <trkpt lat="45.7576" lon="6.53834">
        <ele>1638.7</ele>
        <time>2025-08-15T16:08:45Z</time>
      </trkpt>
      <trkpt lat="45.75761" lon="6.53832">
        <ele>1638.8</ele>
        <time>2025-08-15T16:08:46Z</time>
      </trkpt>
      <trkpt lat="45.75761" lon="6.53831">
        <ele>1638.8</ele>
        <time>2025-08-15T16:08:47Z</time>
      </trkpt>
      <trkpt lat="45.75762" lon="6.53829">
        <ele>1638.9</ele>
        <time>2025-08-15T16:08:48Z</time>
      </trkpt>
      <trkpt lat="45.75762" lon="6.53828">
        <ele>1639</ele>
        <time>2025-08-15T16:08:49Z</time>
      </trkpt>
      <trkpt lat="45.75762" lon="6.53826">
        <ele>1639</ele>
        <time>2025-08-15T16:08:50Z</time>
      </trkpt>
      <trkpt lat="45.75763" lon="6.53825">
        <ele>1639.1</ele>
        <time>2025-08-15T16:08:51Z</time>
      </trkpt>
      <trkpt lat="45.75764" lon="6.53824">
        <ele>1639.2</ele>
        <time>2025-08-15T16:08:52Z</time>
      </trkpt>
      <trkpt lat="45.75764" lon="6.53823">
        <ele>1639.2</ele>
        <time>2025-08-15T16:08:53Z</time>
      </trkpt>
      <trkpt lat="45.75765" lon="6.53822">
        <ele>1639.3</ele>
        <time>2025-08-15T16:08:54Z</time>
      </trkpt>
      <trkpt lat="45.75766" lon="6.53821">
        <ele>1639.4</ele>
        <time>2025-08-15T16:08:55Z</time>
      </trkpt>
      <trkpt lat="45.75767" lon="6.53818">
        <ele>1639.5</ele>
        <time>2025-08-15T16:08:56Z</time>
      </trkpt>
      <trkpt lat="45.75768" lon="6.53817">
        <ele>1639.6</ele>
        <time>2025-08-15T16:08:57Z</time>
      </trkpt>
      <trkpt lat="45.75768" lon="6.53816">
        <ele>1639.6</ele>
        <time>2025-08-15T16:08:58Z</time>
      </trkpt>
      <trkpt lat="45.75768" lon="6.53815">
        <ele>1639.7</ele>
        <time>2025-08-15T16:08:59Z</time>
      </trkpt>
      <trkpt lat="45.75768" lon="6.53814">
        <ele>1639.8</ele>
        <time>2025-08-15T16:09:00Z</time>
      </trkpt>
      <trkpt lat="45.75769" lon="6.53812">
        <ele>1639.8</ele>
        <time>2025-08-15T16:09:01Z</time>
      </trkpt>
      <trkpt lat="45.7577" lon="6.53811">
        <ele>1639.9</ele>
        <time>2025-08-15T16:09:02Z</time>
      </trkpt>
      <trkpt lat="45.7577" lon="6.5381">
        <ele>1640</ele>
        <time>2025-08-15T16:09:03Z</time>
      </trkpt>
      <trkpt lat="45.7577" lon="6.53809">
        <ele>1640</ele>
        <time>2025-08-15T16:09:04Z</time>
      </trkpt>
      <trkpt lat="45.75771" lon="6.53808">
        <ele>1640.1</ele>
        <time>2025-08-15T16:09:05Z</time>
      </trkpt>
      <trkpt lat="45.75772" lon="6.53806">
        <ele>1640.2</ele>
        <time>2025-08-15T16:09:06Z</time>
      </trkpt>
      <trkpt lat="45.75772" lon="6.53805">
        <ele>1640.2</ele>
        <time>2025-08-15T16:09:07Z</time>
      </trkpt>
      <trkpt lat="45.75773" lon="6.53804">
        <ele>1640.3</ele>
        <time>2025-08-15T16:09:08Z</time>
      </trkpt>
      <trkpt lat="45.75774" lon="6.53803">
        <ele>1640.4</ele>
        <time>2025-08-15T16:09:09Z</time>
      </trkpt>
      <trkpt lat="45.75774" lon="6.53801">
        <ele>1640.5</ele>
        <time>2025-08-15T16:09:10Z</time>
      </trkpt>
      <trkpt lat="45.75775" lon="6.538">
        <ele>1640.5</ele>
        <time>2025-08-15T16:09:11Z</time>
      </trkpt>
      <trkpt lat="45.75775" lon="6.53798">
        <ele>1640.6</ele>
        <time>2025-08-15T16:09:12Z</time>
      </trkpt>
      <trkpt lat="45.75775" lon="6.53797">
        <ele>1640.7</ele>
        <time>2025-08-15T16:09:13Z</time>
      </trkpt>
      <trkpt lat="45.75776" lon="6.53795">
        <ele>1640.8</ele>
        <time>2025-08-15T16:09:14Z</time>
      </trkpt>
      <trkpt lat="45.75776" lon="6.53794">
        <ele>1640.8</ele>
        <time>2025-08-15T16:09:15Z</time>
      </trkpt>
      <trkpt lat="45.75776" lon="6.53791">
        <ele>1640.9</ele>
        <time>2025-08-15T16:09:16Z</time>
      </trkpt>
      <trkpt lat="45.75777" lon="6.5379">
        <ele>1641</ele>
        <time>2025-08-15T16:09:17Z</time>
      </trkpt>
      <trkpt lat="45.75777" lon="6.53788">
        <ele>1641.1</ele>
        <time>2025-08-15T16:09:18Z</time>
      </trkpt>
      <trkpt lat="45.75777" lon="6.53787">
        <ele>1641.2</ele>
        <time>2025-08-15T16:09:19Z</time>
      </trkpt>
      <trkpt lat="45.75778" lon="6.53786">
        <ele>1641.3</ele>
        <time>2025-08-15T16:09:20Z</time>
      </trkpt>
      <trkpt lat="45.75778" lon="6.53784">
        <ele>1641.4</ele>
        <time>2025-08-15T16:09:21Z</time>
      </trkpt>
      <trkpt lat="45.75779" lon="6.53783">
        <ele>1641.4</ele>
        <time>2025-08-15T16:09:22Z</time>
      </trkpt>
      <trkpt lat="45.75779" lon="6.53782">
        <ele>1641.5</ele>
        <time>2025-08-15T16:09:23Z</time>
      </trkpt>
      <trkpt lat="45.75779" lon="6.53781">
        <ele>1641.6</ele>
        <time>2025-08-15T16:09:24Z</time>
      </trkpt>
      <trkpt lat="45.75779" lon="6.53779">
        <ele>1641.7</ele>
        <time>2025-08-15T16:09:25Z</time>
      </trkpt>
      <trkpt lat="45.75779" lon="6.53777">
        <ele>1641.8</ele>
        <time>2025-08-15T16:09:26Z</time>
      </trkpt>
      <trkpt lat="45.75779" lon="6.53775">
        <ele>1641.9</ele>
        <time>2025-08-15T16:09:27Z</time>
      </trkpt>
      <trkpt lat="45.75779" lon="6.53773">
        <ele>1642</ele>
        <time>2025-08-15T16:09:28Z</time>
      </trkpt>
      <trkpt lat="45.75779" lon="6.53771">
        <ele>1642.1</ele>
        <time>2025-08-15T16:09:29Z</time>
      </trkpt>
      <trkpt lat="45.75779" lon="6.5377">
        <ele>1642.2</ele>
        <time>2025-08-15T16:09:30Z</time>
      </trkpt>
      <trkpt lat="45.75779" lon="6.53768">
        <ele>1642.2</ele>
        <time>2025-08-15T16:09:31Z</time>
      </trkpt>
      <trkpt lat="45.7578" lon="6.53768">
        <ele>1642.3</ele>
        <time>2025-08-15T16:09:32Z</time>
      </trkpt>
      <trkpt lat="45.7578" lon="6.53767">
        <ele>1642.3</ele>
        <time>2025-08-15T16:09:33Z</time>
      </trkpt>
      <trkpt lat="45.7578" lon="6.53766">
        <ele>1642.4</ele>
        <time>2025-08-15T16:09:34Z</time>
      </trkpt>
      <trkpt lat="45.75781" lon="6.53766">
        <ele>1642.4</ele>
        <time>2025-08-15T16:09:35Z</time>
      </trkpt>
      <trkpt lat="45.75781" lon="6.53765">
        <ele>1642.4</ele>
        <time>2025-08-15T16:09:36Z</time>
      </trkpt>
      <trkpt lat="45.75781" lon="6.53764">
        <ele>1642.5</ele>
        <time>2025-08-15T16:09:37Z</time>
      </trkpt>
      <trkpt lat="45.75781" lon="6.53764">
        <ele>1642.5</ele>
        <time>2025-08-15T16:09:38Z</time>
      </trkpt>
      <trkpt lat="45.75782" lon="6.53763">
        <ele>1642.6</ele>
        <time>2025-08-15T16:09:39Z</time>
      </trkpt>
      <trkpt lat="45.75782" lon="6.53762">
        <ele>1642.6</ele>
        <time>2025-08-15T16:09:40Z</time>
      </trkpt>
      <trkpt lat="45.75782" lon="6.53761">
        <ele>1642.7</ele>
        <time>2025-08-15T16:09:41Z</time>
      </trkpt>
      <trkpt lat="45.75781" lon="6.5376">
        <ele>1642.7</ele>
        <time>2025-08-15T16:09:42Z</time>
      </trkpt>
      <trkpt lat="45.75781" lon="6.53759">
        <ele>1642.8</ele>
        <time>2025-08-15T16:09:43Z</time>
      </trkpt>
      <trkpt lat="45.75782" lon="6.53758">
        <ele>1642.8</ele>
        <time>2025-08-15T16:09:44Z</time>
      </trkpt>
      <trkpt lat="45.75782" lon="6.53758">
        <ele>1642.8</ele>
        <time>2025-08-15T16:09:45Z</time>
      </trkpt>
      <trkpt lat="45.75782" lon="6.53757">
        <ele>1642.9</ele>
        <time>2025-08-15T16:09:46Z</time>
      </trkpt>
      <trkpt lat="45.75782" lon="6.53756">
        <ele>1642.9</ele>
        <time>2025-08-15T16:09:47Z</time>
      </trkpt>
      <trkpt lat="45.75781" lon="6.53755">
        <ele>1643</ele>
        <time>2025-08-15T16:09:48Z</time>
      </trkpt>
      <trkpt lat="45.75781" lon="6.53754">
        <ele>1643</ele>
        <time>2025-08-15T16:09:49Z</time>
      </trkpt>
      <trkpt lat="45.75781" lon="6.53754">
        <ele>1643</ele>
        <time>2025-08-15T16:09:50Z</time>
      </trkpt>
      <trkpt lat="45.75781" lon="6.53753">
        <ele>1643.1</ele>
        <time>2025-08-15T16:09:51Z</time>
      </trkpt>
      <trkpt lat="45.75781" lon="6.53753">
        <ele>1643.1</ele>
        <time>2025-08-15T16:09:52Z</time>
      </trkpt>
      <trkpt lat="45.75782" lon="6.53752">
        <ele>1643.1</ele>
        <time>2025-08-15T16:09:53Z</time>
      </trkpt>
      <trkpt lat="45.75782" lon="6.53751">
        <ele>1643.2</ele>
        <time>2025-08-15T16:09:54Z</time>
      </trkpt>
      <trkpt lat="45.75782" lon="6.5375">
        <ele>1643.2</ele>
        <time>2025-08-15T16:09:55Z</time>
      </trkpt>
      <trkpt lat="45.75782" lon="6.53749">
        <ele>1643.3</ele>
        <time>2025-08-15T16:09:56Z</time>
      </trkpt>
      <trkpt lat="45.75782" lon="6.53749">
        <ele>1643.3</ele>
        <time>2025-08-15T16:09:57Z</time>
      </trkpt>
    </trkseg>
  </trk>
</gpx>